<?xml version='1.0' encoding='UTF-8'?><gpx version="1.1" creator="JPX - https://github.com/jenetics/jpx" xmlns="http://www.topografix.com/GPX/1/1"><trk><trkseg><trkpt lat="43.64598980228339" lon="11.064846758962227"><ele>231.99999999999997</ele><time>2026-05-01T10:08:47Z</time></trkpt><trkpt lat="43.645910115777646" lon="11.064898317904683"><ele>232.0</ele><time>2026-05-01T10:09:10Z</time></trkpt><trkpt lat="43.645876578285375" lon="11.065023535298247"><ele>232.0</ele><time>2026-05-01T10:09:12Z</time></trkpt><trkpt lat="43.645882324498025" lon="11.065115367625463"><ele>232.0</ele><time>2026-05-01T10:09:13Z</time></trkpt><trkpt lat="43.64588973917368" lon="11.065243580270302"><ele>231.99999999999997</ele><time>2026-05-01T10:09:14Z</time></trkpt><trkpt lat="43.64589629919724" lon="11.065378325406598"><ele>232.0</ele><time>2026-05-01T10:09:15Z</time></trkpt><trkpt lat="43.6459018410874" lon="11.065509820009725"><ele>232.2</ele><time>2026-05-01T10:09:16Z</time></trkpt><trkpt lat="43.64590207736679" lon="11.065650208821712"><ele>232.39999999999998</ele><time>2026-05-01T10:09:17Z</time></trkpt><trkpt lat="43.64589279925393" lon="11.06580037832011"><ele>232.60000000000002</ele><time>2026-05-01T10:09:18Z</time></trkpt><trkpt lat="43.64589054187802" lon="11.065954085918206"><ele>232.8</ele><time>2026-05-01T10:09:19Z</time></trkpt><trkpt lat="43.64588489473228" lon="11.066094040482884"><ele>233.0</ele><time>2026-05-01T10:09:20Z</time></trkpt><trkpt lat="43.64587747692929" lon="11.066242990340797"><ele>233.25</ele><time>2026-05-01T10:09:21Z</time></trkpt><trkpt lat="43.64586651716705" lon="11.066399115243874"><ele>233.5</ele><time>2026-05-01T10:09:22Z</time></trkpt><trkpt lat="43.645822298197665" lon="11.066544177988053"><ele>233.75</ele><time>2026-05-01T10:09:23Z</time></trkpt><trkpt lat="43.64577827519954" lon="11.06669636136129"><ele>234.0</ele><time>2026-05-01T10:09:24Z</time></trkpt><trkpt lat="43.645717798921694" lon="11.066842072234207"><ele>234.0</ele><time>2026-05-01T10:09:25Z</time></trkpt><trkpt lat="43.64565333596973" lon="11.066984968094355"><ele>234.0</ele><time>2026-05-01T10:09:26Z</time></trkpt><trkpt lat="43.64558581212979" lon="11.067121322180267"><ele>234.0</ele><time>2026-05-01T10:09:27Z</time></trkpt><trkpt lat="43.6455213171231" lon="11.067235013491452"><ele>234.0</ele><time>2026-05-01T10:09:28Z</time></trkpt><trkpt lat="43.645450504531865" lon="11.067360162635145"><ele>232.75</ele><time>2026-05-01T10:09:29Z</time></trkpt><trkpt lat="43.64538109423887" lon="11.067491905189685"><ele>231.5</ele><time>2026-05-01T10:09:30Z</time></trkpt><trkpt lat="43.64530905067865" lon="11.067624776351868"><ele>230.25</ele><time>2026-05-01T10:09:31Z</time></trkpt><trkpt lat="43.64525468934941" lon="11.067762181249497"><ele>229.0</ele><time>2026-05-01T10:09:32Z</time></trkpt><trkpt lat="43.645171794724305" lon="11.067885990269296"><ele>229.0</ele><time>2026-05-01T10:09:33Z</time></trkpt><trkpt lat="43.64510564280167" lon="11.068019926264107"><ele>229.0</ele><time>2026-05-01T10:09:34Z</time></trkpt><trkpt lat="43.645043397806035" lon="11.068175517018744"><ele>229.0</ele><time>2026-05-01T10:09:35Z</time></trkpt><trkpt lat="43.64498526960043" lon="11.06832306355131"><ele>229.0</ele><time>2026-05-01T10:09:36Z</time></trkpt><trkpt lat="43.64493675968372" lon="11.06846364512341"><ele>229.0</ele><time>2026-05-01T10:09:37Z</time></trkpt><trkpt lat="43.64490077021789" lon="11.068611711416533"><ele>228.99999999999997</ele><time>2026-05-01T10:09:38Z</time></trkpt><trkpt lat="43.64485293403171" lon="11.068750882674808"><ele>228.99999999999997</ele><time>2026-05-01T10:09:39Z</time></trkpt><trkpt lat="43.644824191251836" lon="11.068891538984719"><ele>229.0</ele><time>2026-05-01T10:09:40Z</time></trkpt><trkpt lat="43.644801522343066" lon="11.069048658118183"><ele>229.0</ele><time>2026-05-01T10:09:41Z</time></trkpt><trkpt lat="43.644772510956535" lon="11.069211160436923"><ele>228.79999999999998</ele><time>2026-05-01T10:09:42Z</time></trkpt><trkpt lat="43.64474976106724" lon="11.069367088556588"><ele>228.59999999999997</ele><time>2026-05-01T10:09:43Z</time></trkpt><trkpt lat="43.64473377991414" lon="11.069507795480432"><ele>228.4</ele><time>2026-05-01T10:09:44Z</time></trkpt><trkpt lat="43.64471202043013" lon="11.069654726628348"><ele>228.2</ele><time>2026-05-01T10:09:45Z</time></trkpt><trkpt lat="43.64468557625939" lon="11.069804885765766"><ele>228.0</ele><time>2026-05-01T10:09:46Z</time></trkpt><trkpt lat="43.644656019181454" lon="11.069963621806611"><ele>228.5</ele><time>2026-05-01T10:09:47Z</time></trkpt><trkpt lat="43.64461558717791" lon="11.070120433145364"><ele>229.0</ele><time>2026-05-01T10:09:48Z</time></trkpt><trkpt lat="43.644565215006565" lon="11.070263606065975"><ele>229.5</ele><time>2026-05-01T10:09:49Z</time></trkpt><trkpt lat="43.64452704722803" lon="11.070401900638336"><ele>230.0</ele><time>2026-05-01T10:09:50Z</time></trkpt><trkpt lat="43.6444961844154" lon="11.070543352790498"><ele>230.00000000000003</ele><time>2026-05-01T10:09:51Z</time></trkpt><trkpt lat="43.644465644087774" lon="11.070658343852067"><ele>230.0</ele><time>2026-05-01T10:09:52Z</time></trkpt><trkpt lat="43.64442656454752" lon="11.070799307856705"><ele>230.0</ele><time>2026-05-01T10:09:54Z</time></trkpt><trkpt lat="43.64440738645168" lon="11.070896669433404"><ele>230.0</ele><time>2026-05-01T10:09:56Z</time></trkpt><trkpt lat="43.64436076484469" lon="11.071022694051477"><ele>230.00000000000003</ele><time>2026-05-01T10:09:58Z</time></trkpt><trkpt lat="43.64433643109556" lon="11.071120318780364"><ele>230.0</ele><time>2026-05-01T10:10:00Z</time></trkpt><trkpt lat="43.64444822053033" lon="11.07120782964021"><ele>230.16666666666669</ele><time>2026-05-01T10:10:01Z</time></trkpt><trkpt lat="43.64451952733355" lon="11.071256369501748"><ele>230.33333333333334</ele><time>2026-05-01T10:10:02Z</time></trkpt><trkpt lat="43.64460025349826" lon="11.071321527171353"><ele>230.5</ele><time>2026-05-01T10:10:03Z</time></trkpt><trkpt lat="43.64466716845506" lon="11.071405448483773"><ele>230.66666666666669</ele><time>2026-05-01T10:10:04Z</time></trkpt><trkpt lat="43.644726304684916" lon="11.071514165878025"><ele>230.83333333333334</ele><time>2026-05-01T10:10:05Z</time></trkpt><trkpt lat="43.644774318692996" lon="11.071607088603624"><ele>231.0</ele><time>2026-05-01T10:10:06Z</time></trkpt><trkpt lat="43.6448137825256" lon="11.071688731222826"><ele>231.16666666666666</ele><time>2026-05-01T10:10:07Z</time></trkpt><trkpt lat="43.64484976274719" lon="11.071769379495061"><ele>231.33333333333331</ele><time>2026-05-01T10:10:08Z</time></trkpt><trkpt lat="43.644880838349096" lon="11.071845610305378"><ele>231.5</ele><time>2026-05-01T10:10:09Z</time></trkpt><trkpt lat="43.64489501021381" lon="11.071941657761577"><ele>231.66666666666666</ele><time>2026-05-01T10:10:10Z</time></trkpt><trkpt lat="43.64491991413128" lon="11.072056530755544"><ele>231.83333333333331</ele><time>2026-05-01T10:10:11Z</time></trkpt><trkpt lat="43.6449401622806" lon="11.072178907212722"><ele>232.0</ele><time>2026-05-01T10:10:12Z</time></trkpt><trkpt lat="43.644955508050025" lon="11.072280003168212"><ele>231.99999999999997</ele><time>2026-05-01T10:10:13Z</time></trkpt><trkpt lat="43.64496998167987" lon="11.072381094233341"><ele>232.0</ele><time>2026-05-01T10:10:14Z</time></trkpt><trkpt lat="43.64499415814526" lon="11.072561245725703"><ele>232.0</ele><time>2026-05-01T10:10:16Z</time></trkpt><trkpt lat="43.64500662547988" lon="11.072663326046731"><ele>232.0</ele><time>2026-05-01T10:10:17Z</time></trkpt><trkpt lat="43.645018201563744" lon="11.072762971321652"><ele>231.99999999999997</ele><time>2026-05-01T10:10:18Z</time></trkpt><trkpt lat="43.64502814650618" lon="11.0728648315851"><ele>232.0</ele><time>2026-05-01T10:10:19Z</time></trkpt><trkpt lat="43.64503721488015" lon="11.072959544009354"><ele>232.25</ele><time>2026-05-01T10:10:20Z</time></trkpt><trkpt lat="43.64505388602652" lon="11.073136496566901"><ele>232.5</ele><time>2026-05-01T10:10:22Z</time></trkpt><trkpt lat="43.64508178021757" lon="11.073313164778837"><ele>232.75</ele><time>2026-05-01T10:10:24Z</time></trkpt><trkpt lat="43.64505070267965" lon="11.073480419159198"><ele>233.0</ele><time>2026-05-01T10:10:26Z</time></trkpt><trkpt lat="43.64509524500084" lon="11.073654183344974"><ele>233.4</ele><time>2026-05-01T10:10:28Z</time></trkpt><trkpt lat="43.64513275386226" lon="11.073744467959484"><ele>233.8</ele><time>2026-05-01T10:10:29Z</time></trkpt><trkpt lat="43.64515716744811" lon="11.07389641217304"><ele>234.2</ele><time>2026-05-01T10:10:31Z</time></trkpt><trkpt lat="43.64517433657137" lon="11.074040842338036"><ele>234.6</ele><time>2026-05-01T10:10:33Z</time></trkpt><trkpt lat="43.64519493300296" lon="11.07421777455503"><ele>235.0</ele><time>2026-05-01T10:10:35Z</time></trkpt><trkpt lat="43.64520487193124" lon="11.074307312817618"><ele>235.6</ele><time>2026-05-01T10:10:36Z</time></trkpt><trkpt lat="43.645215186852795" lon="11.074400332276022"><ele>236.2</ele><time>2026-05-01T10:10:37Z</time></trkpt><trkpt lat="43.64522830926172" lon="11.074522727867633"><ele>236.8</ele><time>2026-05-01T10:10:38Z</time></trkpt><trkpt lat="43.64524108837124" lon="11.074642096426365"><ele>237.4</ele><time>2026-05-01T10:10:39Z</time></trkpt><trkpt lat="43.645255834159194" lon="11.07477974912936"><ele>238.0</ele><time>2026-05-01T10:10:40Z</time></trkpt><trkpt lat="43.64527146500664" lon="11.074923047745473"><ele>238.8</ele><time>2026-05-01T10:10:41Z</time></trkpt><trkpt lat="43.64528789807669" lon="11.075063103406542"><ele>239.60000000000002</ele><time>2026-05-01T10:10:42Z</time></trkpt><trkpt lat="43.645305182540184" lon="11.075210415268383"><ele>240.39999999999998</ele><time>2026-05-01T10:10:43Z</time></trkpt><trkpt lat="43.64532547692775" lon="11.075363253952595"><ele>241.2</ele><time>2026-05-01T10:10:44Z</time></trkpt><trkpt lat="43.64534957469026" lon="11.07551124682817"><ele>242.0</ele><time>2026-05-01T10:10:45Z</time></trkpt><trkpt lat="43.64537440419046" lon="11.075667299543808"><ele>238.25</ele><time>2026-05-01T10:10:46Z</time></trkpt><trkpt lat="43.64540271369176" lon="11.07583124095416"><ele>234.5</ele><time>2026-05-01T10:10:47Z</time></trkpt><trkpt lat="43.645432473702215" lon="11.075997394796742"><ele>230.75</ele><time>2026-05-01T10:10:48Z</time></trkpt><trkpt lat="43.64547739968771" lon="11.076165848096982"><ele>227.0</ele><time>2026-05-01T10:10:49Z</time></trkpt><trkpt lat="43.6454964943907" lon="11.076342470808296"><ele>227.0</ele><time>2026-05-01T10:10:50Z</time></trkpt><trkpt lat="43.645533372061266" lon="11.076521961025625"><ele>227.0</ele><time>2026-05-01T10:10:51Z</time></trkpt><trkpt lat="43.64555709459305" lon="11.076702805765443"><ele>227.0</ele><time>2026-05-01T10:10:52Z</time></trkpt><trkpt lat="43.64559556346706" lon="11.076883652488643"><ele>227.0</ele><time>2026-05-01T10:10:53Z</time></trkpt><trkpt lat="43.6456378295426" lon="11.077061573263096"><ele>227.25</ele><time>2026-05-01T10:10:54Z</time></trkpt><trkpt lat="43.645681444703" lon="11.077234064609538"><ele>227.5</ele><time>2026-05-01T10:10:55Z</time></trkpt><trkpt lat="43.64573157101414" lon="11.077414759156763"><ele>227.75</ele><time>2026-05-01T10:10:56Z</time></trkpt><trkpt lat="43.64577602492974" lon="11.077598987548464"><ele>228.0</ele><time>2026-05-01T10:10:57Z</time></trkpt><trkpt lat="43.64581986461201" lon="11.077789415413301"><ele>227.33333333333331</ele><time>2026-05-01T10:10:58Z</time></trkpt><trkpt lat="43.64586225573417" lon="11.077988522533998"><ele>226.66666666666666</ele><time>2026-05-01T10:10:59Z</time></trkpt><trkpt lat="43.64590485419229" lon="11.078195856392458"><ele>226.0</ele><time>2026-05-01T10:11:00Z</time></trkpt><trkpt lat="43.64593555112634" lon="11.07839528225586"><ele>226.0</ele><time>2026-05-01T10:11:01Z</time></trkpt><trkpt lat="43.64596616394403" lon="11.078595500871284"><ele>226.0</ele><time>2026-05-01T10:11:02Z</time></trkpt><trkpt lat="43.64599829867027" lon="11.078800359733808"><ele>226.0</ele><time>2026-05-01T10:11:03Z</time></trkpt><trkpt lat="43.6460334348656" lon="11.07900506024173"><ele>225.66666666666666</ele><time>2026-05-01T10:11:04Z</time></trkpt><trkpt lat="43.646068061239646" lon="11.079206007028784"><ele>225.33333333333331</ele><time>2026-05-01T10:11:05Z</time></trkpt><trkpt lat="43.646112372025534" lon="11.079412102336354"><ele>225.0</ele><time>2026-05-01T10:11:06Z</time></trkpt><trkpt lat="43.64616588466232" lon="11.079620111221319"><ele>220.66666666666669</ele><time>2026-05-01T10:11:07Z</time></trkpt><trkpt lat="43.646238026673764" lon="11.079815926370356"><ele>216.33333333333334</ele><time>2026-05-01T10:11:08Z</time></trkpt><trkpt lat="43.64633236705015" lon="11.080007395834627"><ele>212.0</ele><time>2026-05-01T10:11:09Z</time></trkpt><trkpt lat="43.64643384145364" lon="11.080181143592426"><ele>212.0</ele><time>2026-05-01T10:11:10Z</time></trkpt><trkpt lat="43.64654898748821" lon="11.08034490214348"><ele>212.0</ele><time>2026-05-01T10:11:11Z</time></trkpt><trkpt lat="43.64667141900728" lon="11.080497105650396"><ele>212.0</ele><time>2026-05-01T10:11:12Z</time></trkpt><trkpt lat="43.64679917781421" lon="11.080640485874442"><ele>214.33333333333334</ele><time>2026-05-01T10:11:13Z</time></trkpt><trkpt lat="43.646922163428016" lon="11.080788387322913"><ele>216.66666666666669</ele><time>2026-05-01T10:11:14Z</time></trkpt><trkpt lat="43.64703245898815" lon="11.080945762847458"><ele>219.0</ele><time>2026-05-01T10:11:15Z</time></trkpt><trkpt lat="43.647136092322135" lon="11.08111174513341"><ele>217.0</ele><time>2026-05-01T10:11:16Z</time></trkpt><trkpt lat="43.647223653720424" lon="11.081291588306962"><ele>215.0</ele><time>2026-05-01T10:11:17Z</time></trkpt><trkpt lat="43.64729659161231" lon="11.081489818563618"><ele>213.0</ele><time>2026-05-01T10:11:18Z</time></trkpt><trkpt lat="43.64735844156321" lon="11.081701236073059"><ele>213.0</ele><time>2026-05-01T10:11:19Z</time></trkpt><trkpt lat="43.647404078900855" lon="11.081913793139426"><ele>213.0</ele><time>2026-05-01T10:11:20Z</time></trkpt><trkpt lat="43.6474455684094" lon="11.082126337903977"><ele>213.0</ele><time>2026-05-01T10:11:21Z</time></trkpt><trkpt lat="43.647475540308854" lon="11.082336375987653"><ele>212.5</ele><time>2026-05-01T10:11:22Z</time></trkpt><trkpt lat="43.64750549758944" lon="11.082530111023372"><ele>212.0</ele><time>2026-05-01T10:11:23Z</time></trkpt><trkpt lat="43.64755046457831" lon="11.082724098358636"><ele>211.5</ele><time>2026-05-01T10:11:24Z</time></trkpt><trkpt lat="43.64758531253109" lon="11.082925581191164"><ele>211.0</ele><time>2026-05-01T10:11:25Z</time></trkpt><trkpt lat="43.647651662047075" lon="11.083114268577278"><ele>210.0</ele><time>2026-05-01T10:11:26Z</time></trkpt><trkpt lat="43.64771794653719" lon="11.083304352119558"><ele>209.0</ele><time>2026-05-01T10:11:27Z</time></trkpt><trkpt lat="43.647776734576794" lon="11.083483869211376"><ele>208.0</ele><time>2026-05-01T10:11:28Z</time></trkpt><trkpt lat="43.64783500404148" lon="11.083649315431629"><ele>207.0</ele><time>2026-05-01T10:11:29Z</time></trkpt><trkpt lat="43.647884906900934" lon="11.08379726429198"><ele>206.2</ele><time>2026-05-01T10:11:30Z</time></trkpt><trkpt lat="43.64793464774339" lon="11.083940383087276"><ele>205.39999999999998</ele><time>2026-05-01T10:11:31Z</time></trkpt><trkpt lat="43.647981588699736" lon="11.084085613140944"><ele>204.60000000000002</ele><time>2026-05-01T10:11:32Z</time></trkpt><trkpt lat="43.64802796582195" lon="11.084226083763653"><ele>203.8</ele><time>2026-05-01T10:11:33Z</time></trkpt><trkpt lat="43.64806737530405" lon="11.084348157170718"><ele>203.0</ele><time>2026-05-01T10:11:34Z</time></trkpt><trkpt lat="43.64810695761504" lon="11.084469203137555"><ele>203.0</ele><time>2026-05-01T10:11:35Z</time></trkpt><trkpt lat="43.648147156623615" lon="11.084592422037757"><ele>203.0</ele><time>2026-05-01T10:11:36Z</time></trkpt><trkpt lat="43.64818868182219" lon="11.084727586166352"><ele>203.0</ele><time>2026-05-01T10:11:37Z</time></trkpt><trkpt lat="43.64823277127634" lon="11.08486515078755"><ele>203.0</ele><time>2026-05-01T10:11:38Z</time></trkpt><trkpt lat="43.64827712680235" lon="11.08499470431573"><ele>203.0</ele><time>2026-05-01T10:11:39Z</time></trkpt><trkpt lat="43.64831685971298" lon="11.085118162868543"><ele>203.0</ele><time>2026-05-01T10:11:40Z</time></trkpt><trkpt lat="43.648353497060256" lon="11.085234928984365"><ele>203.0</ele><time>2026-05-01T10:11:41Z</time></trkpt><trkpt lat="43.64839260969488" lon="11.085344647855653"><ele>203.0</ele><time>2026-05-01T10:11:42Z</time></trkpt><trkpt lat="43.64844101095507" lon="11.085459485248451"><ele>203.0</ele><time>2026-05-01T10:11:43Z</time></trkpt><trkpt lat="43.648501135058204" lon="11.085567765942256"><ele>203.0</ele><time>2026-05-01T10:11:44Z</time></trkpt><trkpt lat="43.6485681190882" lon="11.085657547039656"><ele>202.8</ele><time>2026-05-01T10:11:45Z</time></trkpt><trkpt lat="43.64864209861328" lon="11.085726205708983"><ele>202.60000000000002</ele><time>2026-05-01T10:11:46Z</time></trkpt><trkpt lat="43.64872863617121" lon="11.08578764412701"><ele>202.39999999999998</ele><time>2026-05-01T10:11:47Z</time></trkpt><trkpt lat="43.648818112519976" lon="11.085831805906144"><ele>202.2</ele><time>2026-05-01T10:11:48Z</time></trkpt><trkpt lat="43.64890697937248" lon="11.085849975080679"><ele>202.0</ele><time>2026-05-01T10:11:49Z</time></trkpt><trkpt lat="43.64899248823981" lon="11.085845174322364"><ele>202.0</ele><time>2026-05-01T10:11:50Z</time></trkpt><trkpt lat="43.6490847256563" lon="11.085835450278855"><ele>202.0</ele><time>2026-05-01T10:11:51Z</time></trkpt><trkpt lat="43.64916956616115" lon="11.085768742626659"><ele>202.0</ele><time>2026-05-01T10:11:52Z</time></trkpt><trkpt lat="43.64923194443982" lon="11.08567636041024"><ele>202.0</ele><time>2026-05-01T10:11:53Z</time></trkpt><trkpt lat="43.64927010038597" lon="11.08553346230137"><ele>202.0</ele><time>2026-05-01T10:11:54Z</time></trkpt><trkpt lat="43.64931089929151" lon="11.085404071002932"><ele>202.0</ele><time>2026-05-01T10:11:55Z</time></trkpt><trkpt lat="43.64934521064646" lon="11.085281404582528"><ele>202.0</ele><time>2026-05-01T10:11:56Z</time></trkpt><trkpt lat="43.64938386566144" lon="11.08514797114235"><ele>202.0</ele><time>2026-05-01T10:11:57Z</time></trkpt><trkpt lat="43.64944477945951" lon="11.085027652853464"><ele>202.0</ele><time>2026-05-01T10:11:58Z</time></trkpt><trkpt lat="43.64953333608217" lon="11.08493072279678"><ele>202.0</ele><time>2026-05-01T10:11:59Z</time></trkpt><trkpt lat="43.649636409879506" lon="11.08485718150631"><ele>198.75</ele><time>2026-05-01T10:12:00Z</time></trkpt><trkpt lat="43.64975639993111" lon="11.084801730736674"><ele>195.5</ele><time>2026-05-01T10:12:01Z</time></trkpt><trkpt lat="43.64987815036015" lon="11.084770803860083"><ele>192.25</ele><time>2026-05-01T10:12:02Z</time></trkpt><trkpt lat="43.64999716875126" lon="11.084734890981956"><ele>189.0</ele><time>2026-05-01T10:12:03Z</time></trkpt><trkpt lat="43.650113368886366" lon="11.084713351632935"><ele>189.0</ele><time>2026-05-01T10:12:04Z</time></trkpt><trkpt lat="43.6502301729031" lon="11.084706105556629"><ele>189.0</ele><time>2026-05-01T10:12:05Z</time></trkpt><trkpt lat="43.65034899415883" lon="11.08471317123654"><ele>189.0</ele><time>2026-05-01T10:12:06Z</time></trkpt><trkpt lat="43.65046955148284" lon="11.08471803397492"><ele>189.0</ele><time>2026-05-01T10:12:07Z</time></trkpt><trkpt lat="43.650584930909524" lon="11.084721971332852"><ele>187.39999999999998</ele><time>2026-05-01T10:12:08Z</time></trkpt><trkpt lat="43.65069728973893" lon="11.084725145137712"><ele>185.8</ele><time>2026-05-01T10:12:09Z</time></trkpt><trkpt lat="43.65080748471992" lon="11.084730089116576"><ele>184.2</ele><time>2026-05-01T10:12:10Z</time></trkpt><trkpt lat="43.65091540475964" lon="11.084741734964224"><ele>182.60000000000002</ele><time>2026-05-01T10:12:11Z</time></trkpt><trkpt lat="43.65101256044701" lon="11.084761041574685"><ele>181.0</ele><time>2026-05-01T10:12:12Z</time></trkpt><trkpt lat="43.65109910465187" lon="11.084786982344621"><ele>179.57142857142856</ele><time>2026-05-01T10:12:13Z</time></trkpt><trkpt lat="43.65116904795853" lon="11.084824264665263"><ele>178.14285714285714</ele><time>2026-05-01T10:12:14Z</time></trkpt><trkpt lat="43.65122891599809" lon="11.084875999760662"><ele>176.71428571428572</ele><time>2026-05-01T10:12:15Z</time></trkpt><trkpt lat="43.65127991722302" lon="11.084945152721243"><ele>175.28571428571428</ele><time>2026-05-01T10:12:16Z</time></trkpt><trkpt lat="43.65131112113604" lon="11.085036497183301"><ele>173.85714285714286</ele><time>2026-05-01T10:12:17Z</time></trkpt><trkpt lat="43.65132380193561" lon="11.085140334257643"><ele>172.42857142857142</ele><time>2026-05-01T10:12:18Z</time></trkpt><trkpt lat="43.651310911079534" lon="11.085250476604127"><ele>171.0</ele><time>2026-05-01T10:12:19Z</time></trkpt><trkpt lat="43.651287101841746" lon="11.085356788203635"><ele>171.0</ele><time>2026-05-01T10:12:20Z</time></trkpt><trkpt lat="43.65127280734566" lon="11.085445526923303"><ele>171.0</ele><time>2026-05-01T10:12:21Z</time></trkpt><trkpt lat="43.65130615264491" lon="11.085598936427925"><ele>171.0</ele><time>2026-05-01T10:12:23Z</time></trkpt><trkpt lat="43.65135463848311" lon="11.085669749282284"><ele>171.0</ele><time>2026-05-01T10:12:24Z</time></trkpt><trkpt lat="43.65141373499648" lon="11.085712518311624"><ele>171.0</ele><time>2026-05-01T10:12:25Z</time></trkpt><trkpt lat="43.65148071931363" lon="11.085707725650417"><ele>171.0</ele><time>2026-05-01T10:12:26Z</time></trkpt><trkpt lat="43.65154712654924" lon="11.085670080299169"><ele>171.0</ele><time>2026-05-01T10:12:27Z</time></trkpt><trkpt lat="43.6516169397003" lon="11.085596207444688"><ele>171.0</ele><time>2026-05-01T10:12:28Z</time></trkpt><trkpt lat="43.65168242479737" lon="11.085497879201004"><ele>171.0</ele><time>2026-05-01T10:12:29Z</time></trkpt><trkpt lat="43.651754234758364" lon="11.08538560845381"><ele>171.0</ele><time>2026-05-01T10:12:30Z</time></trkpt><trkpt lat="43.65184320046419" lon="11.085262569953503"><ele>171.0</ele><time>2026-05-01T10:12:31Z</time></trkpt><trkpt lat="43.651931912185105" lon="11.08514989538471"><ele>168.5</ele><time>2026-05-01T10:12:32Z</time></trkpt><trkpt lat="43.652025404925254" lon="11.085047440417847"><ele>166.0</ele><time>2026-05-01T10:12:33Z</time></trkpt><trkpt lat="43.65213389883151" lon="11.084969582091022"><ele>163.5</ele><time>2026-05-01T10:12:34Z</time></trkpt><trkpt lat="43.65225088680721" lon="11.084909254331844"><ele>161.0</ele><time>2026-05-01T10:12:35Z</time></trkpt><trkpt lat="43.65237241982637" lon="11.084853538235416"><ele>160.25</ele><time>2026-05-01T10:12:36Z</time></trkpt><trkpt lat="43.6524914287705" lon="11.08479802175429"><ele>159.5</ele><time>2026-05-01T10:12:37Z</time></trkpt><trkpt lat="43.65260947744058" lon="11.084746743901725"><ele>158.75</ele><time>2026-05-01T10:12:38Z</time></trkpt><trkpt lat="43.65272136655254" lon="11.084693200195312"><ele>158.0</ele><time>2026-05-01T10:12:39Z</time></trkpt><trkpt lat="43.652826717512276" lon="11.08463811381027"><ele>156.4</ele><time>2026-05-01T10:12:40Z</time></trkpt><trkpt lat="43.6529194427477" lon="11.084598186163383"><ele>154.8</ele><time>2026-05-01T10:12:41Z</time></trkpt><trkpt lat="43.65301172983793" lon="11.08457553503772"><ele>153.2</ele><time>2026-05-01T10:12:42Z</time></trkpt><trkpt lat="43.65310808965738" lon="11.084590564807964"><ele>151.6</ele><time>2026-05-01T10:12:43Z</time></trkpt><trkpt lat="43.65319651039555" lon="11.084637050362517"><ele>150.0</ele><time>2026-05-01T10:12:44Z</time></trkpt><trkpt lat="43.65327087235928" lon="11.084714814233271"><ele>150.0</ele><time>2026-05-01T10:12:45Z</time></trkpt><trkpt lat="43.65332903968371" lon="11.08481991700442"><ele>150.0</ele><time>2026-05-01T10:12:46Z</time></trkpt><trkpt lat="43.65336276583682" lon="11.08493588505453"><ele>150.0</ele><time>2026-05-01T10:12:47Z</time></trkpt><trkpt lat="43.653380195263246" lon="11.085061336561786"><ele>150.0</ele><time>2026-05-01T10:12:48Z</time></trkpt><trkpt lat="43.6533816126975" lon="11.085184293463099"><ele>150.0</ele><time>2026-05-01T10:12:49Z</time></trkpt><trkpt lat="43.653355393485434" lon="11.085299709604318"><ele>150.8</ele><time>2026-05-01T10:12:50Z</time></trkpt><trkpt lat="43.65330734431051" lon="11.08540020791565"><ele>151.6</ele><time>2026-05-01T10:12:51Z</time></trkpt><trkpt lat="43.65323982590201" lon="11.085476794227711"><ele>152.4</ele><time>2026-05-01T10:12:52Z</time></trkpt><trkpt lat="43.653147172089774" lon="11.08554453630808"><ele>153.2</ele><time>2026-05-01T10:12:53Z</time></trkpt><trkpt lat="43.653038551731534" lon="11.085610856181674"><ele>154.0</ele><time>2026-05-01T10:12:54Z</time></trkpt><trkpt lat="43.652926624281264" lon="11.085690738550898"><ele>154.6</ele><time>2026-05-01T10:12:55Z</time></trkpt><trkpt lat="43.65282518245445" lon="11.085763620287391"><ele>155.2</ele><time>2026-05-01T10:12:56Z</time></trkpt><trkpt lat="43.652734888094194" lon="11.085828737109027"><ele>155.79999999999998</ele><time>2026-05-01T10:12:57Z</time></trkpt><trkpt lat="43.652657496732644" lon="11.085897788210744"><ele>156.4</ele><time>2026-05-01T10:12:58Z</time></trkpt><trkpt lat="43.65258732053699" lon="11.085985979074586"><ele>157.0</ele><time>2026-05-01T10:12:59Z</time></trkpt><trkpt lat="43.652534457342405" lon="11.086101834199257"><ele>157.0</ele><time>2026-05-01T10:13:00Z</time></trkpt><trkpt lat="43.65250330311861" lon="11.086246210144505"><ele>157.0</ele><time>2026-05-01T10:13:01Z</time></trkpt><trkpt lat="43.65248873635887" lon="11.086407144129037"><ele>157.0</ele><time>2026-05-01T10:13:02Z</time></trkpt><trkpt lat="43.652474170735815" lon="11.086576199044513"><ele>157.0</ele><time>2026-05-01T10:13:03Z</time></trkpt><trkpt lat="43.65245996577946" lon="11.086728956737916"><ele>155.2</ele><time>2026-05-01T10:13:04Z</time></trkpt><trkpt lat="43.65243259955142" lon="11.08687437992238"><ele>153.39999999999998</ele><time>2026-05-01T10:13:05Z</time></trkpt><trkpt lat="43.65238887608261" lon="11.087003600204147"><ele>151.60000000000002</ele><time>2026-05-01T10:13:06Z</time></trkpt><trkpt lat="43.65232359586573" lon="11.08711692021987"><ele>149.8</ele><time>2026-05-01T10:13:07Z</time></trkpt><trkpt lat="43.6522379242422" lon="11.08720806339903"><ele>148.0</ele><time>2026-05-01T10:13:08Z</time></trkpt><trkpt lat="43.65213591714139" lon="11.087272415800534"><ele>148.0</ele><time>2026-05-01T10:13:09Z</time></trkpt><trkpt lat="43.652031452380655" lon="11.087322336630773"><ele>148.0</ele><time>2026-05-01T10:13:10Z</time></trkpt><trkpt lat="43.651937820511016" lon="11.087400698270564"><ele>148.0</ele><time>2026-05-01T10:13:11Z</time></trkpt><trkpt lat="43.65185380659158" lon="11.087514437413633"><ele>148.0</ele><time>2026-05-01T10:13:12Z</time></trkpt><trkpt lat="43.65177918241157" lon="11.087643619210771"><ele>148.0</ele><time>2026-05-01T10:13:13Z</time></trkpt><trkpt lat="43.65170333973529" lon="11.087757548102692"><ele>148.0</ele><time>2026-05-01T10:13:14Z</time></trkpt><trkpt lat="43.65162004363352" lon="11.08786475745797"><ele>148.0</ele><time>2026-05-01T10:13:15Z</time></trkpt><trkpt lat="43.651523282652605" lon="11.087952953440363"><ele>148.0</ele><time>2026-05-01T10:13:16Z</time></trkpt><trkpt lat="43.651461391944416" lon="11.088091389910288"><ele>148.0</ele><time>2026-05-01T10:13:17Z</time></trkpt><trkpt lat="43.651393545555685" lon="11.088228505569436"><ele>148.0</ele><time>2026-05-01T10:13:18Z</time></trkpt><trkpt lat="43.65133590423278" lon="11.088364116675779"><ele>148.0</ele><time>2026-05-01T10:13:19Z</time></trkpt><trkpt lat="43.65128022898135" lon="11.088494538837592"><ele>148.0</ele><time>2026-05-01T10:13:20Z</time></trkpt><trkpt lat="43.65121089982172" lon="11.088626311589683"><ele>147.25</ele><time>2026-05-01T10:13:21Z</time></trkpt><trkpt lat="43.651137867464435" lon="11.088753968993144"><ele>146.5</ele><time>2026-05-01T10:13:22Z</time></trkpt><trkpt lat="43.651050103637566" lon="11.088862747836107"><ele>145.75</ele><time>2026-05-01T10:13:23Z</time></trkpt><trkpt lat="43.65094176478408" lon="11.088920461075945"><ele>145.0</ele><time>2026-05-01T10:13:24Z</time></trkpt><trkpt lat="43.65084104040482" lon="11.088982505784768"><ele>145.0</ele><time>2026-05-01T10:13:25Z</time></trkpt><trkpt lat="43.6507596571552" lon="11.089063960190455"><ele>145.0</ele><time>2026-05-01T10:13:26Z</time></trkpt><trkpt lat="43.65067796021271" lon="11.08916851703493"><ele>145.0</ele><time>2026-05-01T10:13:27Z</time></trkpt><trkpt lat="43.65061344780974" lon="11.089294832193419"><ele>145.0</ele><time>2026-05-01T10:13:28Z</time></trkpt><trkpt lat="43.650561017272445" lon="11.08944918190301"><ele>145.0</ele><time>2026-05-01T10:13:29Z</time></trkpt><trkpt lat="43.650481332947415" lon="11.089582789169722"><ele>141.25</ele><time>2026-05-01T10:13:30Z</time></trkpt><trkpt lat="43.65041367073885" lon="11.089717574735964"><ele>137.5</ele><time>2026-05-01T10:13:31Z</time></trkpt><trkpt lat="43.65035261845028" lon="11.089852868660381"><ele>133.75</ele><time>2026-05-01T10:13:32Z</time></trkpt><trkpt lat="43.65027493554153" lon="11.08996922983096"><ele>130.0</ele><time>2026-05-01T10:13:33Z</time></trkpt><trkpt lat="43.65018568612638" lon="11.090051926586915"><ele>130.0</ele><time>2026-05-01T10:13:34Z</time></trkpt><trkpt lat="43.650098060706384" lon="11.09014344784486"><ele>130.0</ele><time>2026-05-01T10:13:35Z</time></trkpt><trkpt lat="43.649996252888066" lon="11.090249388021476"><ele>130.0</ele><time>2026-05-01T10:13:36Z</time></trkpt><trkpt lat="43.64989388287817" lon="11.0903541636179"><ele>130.0</ele><time>2026-05-01T10:13:37Z</time></trkpt><trkpt lat="43.64978171781432" lon="11.090458445852473"><ele>130.0</ele><time>2026-05-01T10:13:38Z</time></trkpt><trkpt lat="43.64967148382548" lon="11.090551202031053"><ele>130.0</ele><time>2026-05-01T10:13:39Z</time></trkpt><trkpt lat="43.6495793251991" lon="11.090657130568346"><ele>130.0</ele><time>2026-05-01T10:13:40Z</time></trkpt><trkpt lat="43.64951738988997" lon="11.090798087725183"><ele>130.0</ele><time>2026-05-01T10:13:41Z</time></trkpt><trkpt lat="43.64944710557891" lon="11.090941175837177"><ele>129.25</ele><time>2026-05-01T10:13:42Z</time></trkpt><trkpt lat="43.649378757197326" lon="11.09109329919312"><ele>128.5</ele><time>2026-05-01T10:13:43Z</time></trkpt><trkpt lat="43.64930283493744" lon="11.091230915934755"><ele>127.75</ele><time>2026-05-01T10:13:44Z</time></trkpt><trkpt lat="43.649242187350204" lon="11.091370552325195"><ele>127.0</ele><time>2026-05-01T10:13:45Z</time></trkpt><trkpt lat="43.64919150768004" lon="11.09149667689811"><ele>125.50000000000001</ele><time>2026-05-01T10:13:46Z</time></trkpt><trkpt lat="43.6491535625975" lon="11.091607961244781"><ele>124.0</ele><time>2026-05-01T10:13:47Z</time></trkpt><trkpt lat="43.64914245400134" lon="11.091715117804823"><ele>122.5</ele><time>2026-05-01T10:13:48Z</time></trkpt><trkpt lat="43.64915463904065" lon="11.091838976873971"><ele>121.0</ele><time>2026-05-01T10:13:49Z</time></trkpt><trkpt lat="43.64918772658936" lon="11.091948608745888"><ele>119.50000000000001</ele><time>2026-05-01T10:13:50Z</time></trkpt><trkpt lat="43.649220302846594" lon="11.092026055789008"><ele>118.0</ele><time>2026-05-01T10:13:51Z</time></trkpt><trkpt lat="43.64926869855498" lon="11.092105904379522"><ele>118.0</ele><time>2026-05-01T10:13:53Z</time></trkpt><trkpt lat="43.649355820551676" lon="11.092235734019214"><ele>118.00000000000001</ele><time>2026-05-01T10:13:55Z</time></trkpt><trkpt lat="43.649406586481575" lon="11.092337962155334"><ele>118.00000000000001</ele><time>2026-05-01T10:13:56Z</time></trkpt><trkpt lat="43.64945585418685" lon="11.092462985882364"><ele>118.0</ele><time>2026-05-01T10:13:57Z</time></trkpt><trkpt lat="43.64952303521621" lon="11.092587762785511"><ele>118.0</ele><time>2026-05-01T10:13:58Z</time></trkpt><trkpt lat="43.64960181234726" lon="11.092725797487523"><ele>117.5</ele><time>2026-05-01T10:13:59Z</time></trkpt><trkpt lat="43.6496802943449" lon="11.092863939141552"><ele>117.0</ele><time>2026-05-01T10:14:00Z</time></trkpt><trkpt lat="43.6497545138628" lon="11.092992950969938"><ele>116.5</ele><time>2026-05-01T10:14:01Z</time></trkpt><trkpt lat="43.6498330944501" lon="11.09313331868671"><ele>116.0</ele><time>2026-05-01T10:14:02Z</time></trkpt><trkpt lat="43.649907029304316" lon="11.093258024114867"><ele>116.0</ele><time>2026-05-01T10:14:03Z</time></trkpt><trkpt lat="43.6499732900382" lon="11.093371715071884"><ele>116.0</ele><time>2026-05-01T10:14:04Z</time></trkpt><trkpt lat="43.650022398296564" lon="11.09346591911355"><ele>116.0</ele><time>2026-05-01T10:14:05Z</time></trkpt><trkpt lat="43.65005529185894" lon="11.09359519704413"><ele>116.0</ele><time>2026-05-01T10:14:07Z</time></trkpt><trkpt lat="43.65009496224695" lon="11.093672649197195"><ele>116.0</ele><time>2026-05-01T10:14:34Z</time></trkpt><trkpt lat="43.649998014211874" lon="11.093804283945744"><ele>116.0</ele><time>2026-05-01T10:14:36Z</time></trkpt><trkpt lat="43.64993021712158" lon="11.093841751270102"><ele>116.0</ele><time>2026-05-01T10:14:37Z</time></trkpt><trkpt lat="43.64984660288402" lon="11.093895103415095"><ele>116.0</ele><time>2026-05-01T10:14:38Z</time></trkpt><trkpt lat="43.64975296500732" lon="11.093960982020318"><ele>116.0</ele><time>2026-05-01T10:14:39Z</time></trkpt><trkpt lat="43.6496594292341" lon="11.094018492334602"><ele>116.0</ele><time>2026-05-01T10:14:40Z</time></trkpt><trkpt lat="43.64955810482859" lon="11.094085059132775"><ele>116.75</ele><time>2026-05-01T10:14:41Z</time></trkpt><trkpt lat="43.64945528798083" lon="11.094154753891422"><ele>117.5</ele><time>2026-05-01T10:14:42Z</time></trkpt><trkpt lat="43.649350488788954" lon="11.094228662844797"><ele>118.25</ele><time>2026-05-01T10:14:43Z</time></trkpt><trkpt lat="43.64924021741569" lon="11.094309803941147"><ele>119.0</ele><time>2026-05-01T10:14:44Z</time></trkpt><trkpt lat="43.64912636990445" lon="11.094391879470802"><ele>119.0</ele><time>2026-05-01T10:14:45Z</time></trkpt><trkpt lat="43.6490181195449" lon="11.09446831009885"><ele>119.0</ele><time>2026-05-01T10:14:46Z</time></trkpt><trkpt lat="43.64890558257599" lon="11.094550984027924"><ele>119.0</ele><time>2026-05-01T10:14:47Z</time></trkpt><trkpt lat="43.648784679835224" lon="11.0946424710825"><ele>119.0</ele><time>2026-05-01T10:14:48Z</time></trkpt><trkpt lat="43.64866026774754" lon="11.094722643609986"><ele>118.75</ele><time>2026-05-01T10:14:49Z</time></trkpt><trkpt lat="43.64853524212209" lon="11.094807389767595"><ele>118.5</ele><time>2026-05-01T10:14:50Z</time></trkpt><trkpt lat="43.648410951310254" lon="11.094900698096954"><ele>118.25</ele><time>2026-05-01T10:14:51Z</time></trkpt><trkpt lat="43.648287734974375" lon="11.095005467758217"><ele>118.0</ele><time>2026-05-01T10:14:52Z</time></trkpt><trkpt lat="43.64815991468683" lon="11.09511268268816"><ele>118.66666666666667</ele><time>2026-05-01T10:14:53Z</time></trkpt><trkpt lat="43.64803314183334" lon="11.095231187899468"><ele>119.33333333333334</ele><time>2026-05-01T10:14:54Z</time></trkpt><trkpt lat="43.64790948400199" lon="11.095358655578714"><ele>120.0</ele><time>2026-05-01T10:14:55Z</time></trkpt><trkpt lat="43.647786723229395" lon="11.095497673509465"><ele>120.0</ele><time>2026-05-01T10:14:56Z</time></trkpt><trkpt lat="43.64767564353772" lon="11.095644119237074"><ele>120.0</ele><time>2026-05-01T10:14:57Z</time></trkpt><trkpt lat="43.647571070807146" lon="11.095795701019329"><ele>120.0</ele><time>2026-05-01T10:14:58Z</time></trkpt><trkpt lat="43.64747758675239" lon="11.095957317678085"><ele>120.25</ele><time>2026-05-01T10:14:59Z</time></trkpt><trkpt lat="43.647387674971206" lon="11.096111692829714"><ele>120.5</ele><time>2026-05-01T10:15:00Z</time></trkpt><trkpt lat="43.647301709684136" lon="11.096278115973634"><ele>120.75</ele><time>2026-05-01T10:15:01Z</time></trkpt><trkpt lat="43.64721869863689" lon="11.096440645747109"><ele>121.0</ele><time>2026-05-01T10:15:02Z</time></trkpt><trkpt lat="43.647136283344274" lon="11.096610133848634"><ele>121.75</ele><time>2026-05-01T10:15:03Z</time></trkpt><trkpt lat="43.64705131475298" lon="11.096774256042131"><ele>122.5</ele><time>2026-05-01T10:15:04Z</time></trkpt><trkpt lat="43.64696459305351" lon="11.09694094901737"><ele>123.25</ele><time>2026-05-01T10:15:05Z</time></trkpt><trkpt lat="43.646880861322344" lon="11.097115167508688"><ele>124.0</ele><time>2026-05-01T10:15:06Z</time></trkpt><trkpt lat="43.64678591244353" lon="11.097290003945755"><ele>124.66666666666667</ele><time>2026-05-01T10:15:07Z</time></trkpt><trkpt lat="43.64668790606273" lon="11.097460037984268"><ele>125.33333333333334</ele><time>2026-05-01T10:15:08Z</time></trkpt><trkpt lat="43.646583879061076" lon="11.097643998268232"><ele>126.0</ele><time>2026-05-01T10:15:09Z</time></trkpt><trkpt lat="43.64646989570393" lon="11.09781042424537"><ele>126.0</ele><time>2026-05-01T10:15:10Z</time></trkpt><trkpt lat="43.646343338686535" lon="11.097969823942565"><ele>126.0</ele><time>2026-05-01T10:15:11Z</time></trkpt><trkpt lat="43.646207056966546" lon="11.098134189482206"><ele>126.0</ele><time>2026-05-01T10:15:12Z</time></trkpt><trkpt lat="43.64606274383509" lon="11.098275876038636"><ele>126.33333333333334</ele><time>2026-05-01T10:15:13Z</time></trkpt><trkpt lat="43.64591107527712" lon="11.098406852869553"><ele>126.66666666666667</ele><time>2026-05-01T10:15:14Z</time></trkpt><trkpt lat="43.64575168569771" lon="11.098520190074321"><ele>127.0</ele><time>2026-05-01T10:15:15Z</time></trkpt><trkpt lat="43.64558607037182" lon="11.098619718291655"><ele>127.0</ele><time>2026-05-01T10:15:16Z</time></trkpt><trkpt lat="43.64542424254126" lon="11.098718680748743"><ele>127.0</ele><time>2026-05-01T10:15:17Z</time></trkpt><trkpt lat="43.645262878452755" lon="11.098817267481484"><ele>127.0</ele><time>2026-05-01T10:15:18Z</time></trkpt><trkpt lat="43.64510752017093" lon="11.098915451776834"><ele>127.0</ele><time>2026-05-01T10:15:19Z</time></trkpt><trkpt lat="43.64495453266627" lon="11.09901245094428"><ele>127.0</ele><time>2026-05-01T10:15:20Z</time></trkpt><trkpt lat="43.64480082729077" lon="11.099111073320294"><ele>127.0</ele><time>2026-05-01T10:15:21Z</time></trkpt><trkpt lat="43.644645964480944" lon="11.099207199212811"><ele>127.0</ele><time>2026-05-01T10:15:22Z</time></trkpt><trkpt lat="43.64449329315315" lon="11.099301510440604"><ele>127.0</ele><time>2026-05-01T10:15:23Z</time></trkpt><trkpt lat="43.64434376888279" lon="11.09939547219738"><ele>127.0</ele><time>2026-05-01T10:15:24Z</time></trkpt><trkpt lat="43.64419407007415" lon="11.099490130805105"><ele>127.66666666666667</ele><time>2026-05-01T10:15:25Z</time></trkpt><trkpt lat="43.64404493350816" lon="11.09958549689973"><ele>128.33333333333334</ele><time>2026-05-01T10:15:26Z</time></trkpt><trkpt lat="43.64389311680279" lon="11.09967685490701"><ele>129.0</ele><time>2026-05-01T10:15:27Z</time></trkpt><trkpt lat="43.64373933969808" lon="11.099773456161211"><ele>129.33333333333334</ele><time>2026-05-01T10:15:28Z</time></trkpt><trkpt lat="43.64358153578071" lon="11.099865832060845"><ele>129.66666666666669</ele><time>2026-05-01T10:15:29Z</time></trkpt><trkpt lat="43.643423978144824" lon="11.09996828574214"><ele>130.0</ele><time>2026-05-01T10:15:30Z</time></trkpt><trkpt lat="43.64326334798195" lon="11.100071357323605"><ele>130.33333333333334</ele><time>2026-05-01T10:15:31Z</time></trkpt><trkpt lat="43.64310010159643" lon="11.100176503049358"><ele>130.66666666666666</ele><time>2026-05-01T10:15:32Z</time></trkpt><trkpt lat="43.642940347329464" lon="11.100276338931586"><ele>131.0</ele><time>2026-05-01T10:15:33Z</time></trkpt><trkpt lat="43.642780313846664" lon="11.10037128681558"><ele>131.0</ele><time>2026-05-01T10:15:34Z</time></trkpt><trkpt lat="43.642618127885974" lon="11.100471823889949"><ele>131.0</ele><time>2026-05-01T10:15:35Z</time></trkpt><trkpt lat="43.64245584929325" lon="11.100571742772116"><ele>131.0</ele><time>2026-05-01T10:15:36Z</time></trkpt><trkpt lat="43.6422947343158" lon="11.10067237375388"><ele>131.0</ele><time>2026-05-01T10:15:37Z</time></trkpt><trkpt lat="43.64213268230848" lon="11.100770261958695"><ele>131.0</ele><time>2026-05-01T10:15:38Z</time></trkpt><trkpt lat="43.64197192581291" lon="11.100864699045818"><ele>131.0</ele><time>2026-05-01T10:15:39Z</time></trkpt><trkpt lat="43.64180954736463" lon="11.100965025917693"><ele>131.0</ele><time>2026-05-01T10:15:40Z</time></trkpt><trkpt lat="43.641651894868815" lon="11.101065491364993"><ele>131.0</ele><time>2026-05-01T10:15:41Z</time></trkpt><trkpt lat="43.641495935414376" lon="11.101174886380383"><ele>131.0</ele><time>2026-05-01T10:15:42Z</time></trkpt><trkpt lat="43.64134166846299" lon="11.10128837820976"><ele>131.0</ele><time>2026-05-01T10:15:43Z</time></trkpt><trkpt lat="43.64118492004217" lon="11.101410158350618"><ele>131.0</ele><time>2026-05-01T10:15:44Z</time></trkpt><trkpt lat="43.64103168686335" lon="11.10154053765088"><ele>131.0</ele><time>2026-05-01T10:15:45Z</time></trkpt><trkpt lat="43.64087833537332" lon="11.101677715156299"><ele>131.33333333333331</ele><time>2026-05-01T10:15:46Z</time></trkpt><trkpt lat="43.64072515339029" lon="11.101828413618863"><ele>131.66666666666666</ele><time>2026-05-01T10:15:47Z</time></trkpt><trkpt lat="43.640577271258195" lon="11.101991099687325"><ele>132.0</ele><time>2026-05-01T10:15:48Z</time></trkpt><trkpt lat="43.6404329297616" lon="11.10216170151111"><ele>132.66666666666666</ele><time>2026-05-01T10:15:49Z</time></trkpt><trkpt lat="43.64029126374572" lon="11.102334744808665"><ele>133.33333333333331</ele><time>2026-05-01T10:15:50Z</time></trkpt><trkpt lat="43.64015213221144" lon="11.102509673326528"><ele>134.0</ele><time>2026-05-01T10:15:51Z</time></trkpt><trkpt lat="43.64001335880979" lon="11.102687516369059"><ele>134.0</ele><time>2026-05-01T10:15:52Z</time></trkpt><trkpt lat="43.639876749762536" lon="11.10286810526222"><ele>134.0</ele><time>2026-05-01T10:15:53Z</time></trkpt><trkpt lat="43.639739384965154" lon="11.103048300718918"><ele>134.0</ele><time>2026-05-01T10:15:54Z</time></trkpt><trkpt lat="43.639600826246514" lon="11.10322356966726"><ele>134.0</ele><time>2026-05-01T10:15:55Z</time></trkpt><trkpt lat="43.63946256716123" lon="11.103402016456645"><ele>134.0</ele><time>2026-05-01T10:15:56Z</time></trkpt><trkpt lat="43.639326077627004" lon="11.103583865548334"><ele>134.0</ele><time>2026-05-01T10:15:57Z</time></trkpt><trkpt lat="43.63919158103126" lon="11.103766576945302"><ele>134.0</ele><time>2026-05-01T10:15:58Z</time></trkpt><trkpt lat="43.63905363037546" lon="11.103940878491292"><ele>134.0</ele><time>2026-05-01T10:15:59Z</time></trkpt><trkpt lat="43.638915032243936" lon="11.104121635165217"><ele>134.0</ele><time>2026-05-01T10:16:00Z</time></trkpt><trkpt lat="43.638774714635396" lon="11.10430012887971"><ele>135.0</ele><time>2026-05-01T10:16:01Z</time></trkpt><trkpt lat="43.638636549546" lon="11.10448160873134"><ele>136.0</ele><time>2026-05-01T10:16:02Z</time></trkpt><trkpt lat="43.638496328220654" lon="11.104666011227257"><ele>137.0</ele><time>2026-05-01T10:16:03Z</time></trkpt><trkpt lat="43.63835575128946" lon="11.104844364280233"><ele>137.66666666666666</ele><time>2026-05-01T10:16:04Z</time></trkpt><trkpt lat="43.63822144799564" lon="11.105021945684044"><ele>138.33333333333334</ele><time>2026-05-01T10:16:05Z</time></trkpt><trkpt lat="43.63808746403125" lon="11.105198093667736"><ele>139.0</ele><time>2026-05-01T10:16:06Z</time></trkpt><trkpt lat="43.63795645735763" lon="11.105377754575626"><ele>139.0</ele><time>2026-05-01T10:16:07Z</time></trkpt><trkpt lat="43.63782603977631" lon="11.105554445342158"><ele>139.0</ele><time>2026-05-01T10:16:08Z</time></trkpt><trkpt lat="43.63768546455024" lon="11.105727071718816"><ele>139.0</ele><time>2026-05-01T10:16:09Z</time></trkpt><trkpt lat="43.63754534884602" lon="11.10589994218744"><ele>139.0</ele><time>2026-05-01T10:16:10Z</time></trkpt><trkpt lat="43.637405047047864" lon="11.106072706567081"><ele>139.0</ele><time>2026-05-01T10:16:11Z</time></trkpt><trkpt lat="43.63727001229736" lon="11.106247332243429"><ele>139.0</ele><time>2026-05-01T10:16:12Z</time></trkpt><trkpt lat="43.637136458644264" lon="11.106422598277868"><ele>139.33333333333334</ele><time>2026-05-01T10:16:13Z</time></trkpt><trkpt lat="43.63700362892774" lon="11.106593971001999"><ele>139.66666666666666</ele><time>2026-05-01T10:16:14Z</time></trkpt><trkpt lat="43.63687338339923" lon="11.10676205972809"><ele>140.0</ele><time>2026-05-01T10:16:15Z</time></trkpt><trkpt lat="43.63674656153131" lon="11.106927844954848"><ele>140.0</ele><time>2026-05-01T10:16:16Z</time></trkpt><trkpt lat="43.636621145456594" lon="11.107091420251411"><ele>140.0</ele><time>2026-05-01T10:16:17Z</time></trkpt><trkpt lat="43.636496588760004" lon="11.107252944830964"><ele>140.0</ele><time>2026-05-01T10:16:18Z</time></trkpt><trkpt lat="43.63637471012465" lon="11.10741022920549"><ele>141.0</ele><time>2026-05-01T10:16:19Z</time></trkpt><trkpt lat="43.63625352596787" lon="11.107571067121842"><ele>142.0</ele><time>2026-05-01T10:16:20Z</time></trkpt><trkpt lat="43.63612878871918" lon="11.10773652637349"><ele>143.0</ele><time>2026-05-01T10:16:21Z</time></trkpt><trkpt lat="43.63600833772711" lon="11.1078962760534"><ele>143.0</ele><time>2026-05-01T10:16:22Z</time></trkpt><trkpt lat="43.63588700979623" lon="11.108053537357033"><ele>143.0</ele><time>2026-05-01T10:16:23Z</time></trkpt><trkpt lat="43.63576608095356" lon="11.108210793147832"><ele>143.0</ele><time>2026-05-01T10:16:24Z</time></trkpt><trkpt lat="43.63564437780713" lon="11.108369362353685"><ele>143.0</ele><time>2026-05-01T10:16:25Z</time></trkpt><trkpt lat="43.63552181012886" lon="11.108527608380179"><ele>143.0</ele><time>2026-05-01T10:16:26Z</time></trkpt><trkpt lat="43.63539815443572" lon="11.108683980919702"><ele>143.0</ele><time>2026-05-01T10:16:27Z</time></trkpt><trkpt lat="43.63527574208847" lon="11.108845767908358"><ele>143.0</ele><time>2026-05-01T10:16:28Z</time></trkpt><trkpt lat="43.63515474942199" lon="11.109008769778853"><ele>143.0</ele><time>2026-05-01T10:16:29Z</time></trkpt><trkpt lat="43.63503378754571" lon="11.10916855641061"><ele>143.0</ele><time>2026-05-01T10:16:30Z</time></trkpt><trkpt lat="43.6349115423738" lon="11.10932742130674"><ele>144.66666666666666</ele><time>2026-05-01T10:16:31Z</time></trkpt><trkpt lat="43.6347914766481" lon="11.10948440706364"><ele>146.33333333333334</ele><time>2026-05-01T10:16:32Z</time></trkpt><trkpt lat="43.63466888922657" lon="11.10964608922982"><ele>148.0</ele><time>2026-05-01T10:16:33Z</time></trkpt><trkpt lat="43.63454655409524" lon="11.109800335934073"><ele>147.66666666666669</ele><time>2026-05-01T10:16:34Z</time></trkpt><trkpt lat="43.63442530282079" lon="11.109957701615599"><ele>147.33333333333334</ele><time>2026-05-01T10:16:35Z</time></trkpt><trkpt lat="43.63430539411373" lon="11.110111999832748"><ele>147.0</ele><time>2026-05-01T10:16:36Z</time></trkpt><trkpt lat="43.63418340611303" lon="11.110264520848594"><ele>147.0</ele><time>2026-05-01T10:16:37Z</time></trkpt><trkpt lat="43.634062915373356" lon="11.110417785171512"><ele>147.0</ele><time>2026-05-01T10:16:38Z</time></trkpt><trkpt lat="43.633941136778375" lon="11.110576900209269"><ele>147.0</ele><time>2026-05-01T10:16:39Z</time></trkpt><trkpt lat="43.63382084687111" lon="11.110736348143348"><ele>148.33333333333334</ele><time>2026-05-01T10:16:40Z</time></trkpt><trkpt lat="43.633697648165146" lon="11.110898346138507"><ele>149.66666666666669</ele><time>2026-05-01T10:16:41Z</time></trkpt><trkpt lat="43.633574913606274" lon="11.111058089563077"><ele>151.0</ele><time>2026-05-01T10:16:42Z</time></trkpt><trkpt lat="43.633447620207406" lon="11.111218141948873"><ele>151.0</ele><time>2026-05-01T10:16:43Z</time></trkpt><trkpt lat="43.63332059071165" lon="11.111381527638654"><ele>151.0</ele><time>2026-05-01T10:16:44Z</time></trkpt><trkpt lat="43.63319126182052" lon="11.111545104859637"><ele>151.0</ele><time>2026-05-01T10:16:45Z</time></trkpt><trkpt lat="43.63306330345593" lon="11.111708071837668"><ele>152.0</ele><time>2026-05-01T10:16:46Z</time></trkpt><trkpt lat="43.63293617903951" lon="11.111872136113544"><ele>153.0</ele><time>2026-05-01T10:16:47Z</time></trkpt><trkpt lat="43.632814195424906" lon="11.112040839424788"><ele>154.0</ele><time>2026-05-01T10:16:48Z</time></trkpt><trkpt lat="43.63268428794261" lon="11.112207803346452"><ele>153.33333333333334</ele><time>2026-05-01T10:16:49Z</time></trkpt><trkpt lat="43.632557970945804" lon="11.112372522036683"><ele>152.66666666666666</ele><time>2026-05-01T10:16:50Z</time></trkpt><trkpt lat="43.6324316572674" lon="11.112540198162582"><ele>152.0</ele><time>2026-05-01T10:16:51Z</time></trkpt><trkpt lat="43.63230494526933" lon="11.112704604074255"><ele>152.0</ele><time>2026-05-01T10:16:52Z</time></trkpt><trkpt lat="43.63217568728104" lon="11.112871129392484"><ele>152.0</ele><time>2026-05-01T10:16:53Z</time></trkpt><trkpt lat="43.63205037322862" lon="11.113035887003026"><ele>152.0</ele><time>2026-05-01T10:16:54Z</time></trkpt><trkpt lat="43.63192319512546" lon="11.113204441366841"><ele>152.0</ele><time>2026-05-01T10:16:55Z</time></trkpt><trkpt lat="43.631791403965245" lon="11.113371747146006"><ele>152.0</ele><time>2026-05-01T10:16:56Z</time></trkpt><trkpt lat="43.631662946178835" lon="11.11353920473375"><ele>152.0</ele><time>2026-05-01T10:16:57Z</time></trkpt><trkpt lat="43.631535681935375" lon="11.113702951050264"><ele>152.0</ele><time>2026-05-01T10:16:58Z</time></trkpt><trkpt lat="43.631407104071094" lon="11.113866870231446"><ele>152.0</ele><time>2026-05-01T10:16:59Z</time></trkpt><trkpt lat="43.631277506754" lon="11.114035091746276"><ele>152.0</ele><time>2026-05-01T10:17:00Z</time></trkpt><trkpt lat="43.63114690309958" lon="11.114207234078725"><ele>152.66666666666666</ele><time>2026-05-01T10:17:01Z</time></trkpt><trkpt lat="43.631014330773425" lon="11.114376896621074"><ele>153.33333333333334</ele><time>2026-05-01T10:17:02Z</time></trkpt><trkpt lat="43.630881991442514" lon="11.11454676066722"><ele>154.0</ele><time>2026-05-01T10:17:03Z</time></trkpt><trkpt lat="43.63075147841312" lon="11.114720506345998"><ele>154.0</ele><time>2026-05-01T10:17:04Z</time></trkpt><trkpt lat="43.63061862644138" lon="11.114894766841383"><ele>154.0</ele><time>2026-05-01T10:17:05Z</time></trkpt><trkpt lat="43.6304863435486" lon="11.11506768523653"><ele>154.0</ele><time>2026-05-01T10:17:06Z</time></trkpt><trkpt lat="43.63035297862806" lon="11.115240893704001"><ele>154.33333333333334</ele><time>2026-05-01T10:17:07Z</time></trkpt><trkpt lat="43.63022288357523" lon="11.115416470187512"><ele>154.66666666666666</ele><time>2026-05-01T10:17:08Z</time></trkpt><trkpt lat="43.630091953641895" lon="11.115591039228997"><ele>155.0</ele><time>2026-05-01T10:17:09Z</time></trkpt><trkpt lat="43.6299669940812" lon="11.115768628732264"><ele>156.0</ele><time>2026-05-01T10:17:10Z</time></trkpt><trkpt lat="43.62983995985052" lon="11.115948744078157"><ele>157.0</ele><time>2026-05-01T10:17:11Z</time></trkpt><trkpt lat="43.62970904422809" lon="11.116126009971754"><ele>158.0</ele><time>2026-05-01T10:17:12Z</time></trkpt><trkpt lat="43.629580128920644" lon="11.116303639765786"><ele>158.0</ele><time>2026-05-01T10:17:13Z</time></trkpt><trkpt lat="43.629451807568714" lon="11.116486682131175"><ele>158.0</ele><time>2026-05-01T10:17:14Z</time></trkpt><trkpt lat="43.62932163258875" lon="11.116667677239045"><ele>158.0</ele><time>2026-05-01T10:17:15Z</time></trkpt><trkpt lat="43.62919295163155" lon="11.116847547968817"><ele>158.0</ele><time>2026-05-01T10:17:16Z</time></trkpt><trkpt lat="43.6290645116638" lon="11.117026615165322"><ele>158.0</ele><time>2026-05-01T10:17:17Z</time></trkpt><trkpt lat="43.628933206443655" lon="11.117206377383937"><ele>158.0</ele><time>2026-05-01T10:17:18Z</time></trkpt><trkpt lat="43.62880465219005" lon="11.117385997109466"><ele>158.66666666666666</ele><time>2026-05-01T10:17:19Z</time></trkpt><trkpt lat="43.62867624242769" lon="11.117565043281019"><ele>159.33333333333334</ele><time>2026-05-01T10:17:20Z</time></trkpt><trkpt lat="43.62854426936125" lon="11.117749588726863"><ele>160.0</ele><time>2026-05-01T10:17:21Z</time></trkpt><trkpt lat="43.62841289563121" lon="11.117938574578858"><ele>160.0</ele><time>2026-05-01T10:17:22Z</time></trkpt><trkpt lat="43.62827939112197" lon="11.118125413647382"><ele>160.0</ele><time>2026-05-01T10:17:23Z</time></trkpt><trkpt lat="43.62814526334985" lon="11.118317120507722"><ele>160.0</ele><time>2026-05-01T10:17:24Z</time></trkpt><trkpt lat="43.62801208833673" lon="11.118503213533318"><ele>160.0</ele><time>2026-05-01T10:17:25Z</time></trkpt><trkpt lat="43.627879298811095" lon="11.118689355971894"><ele>160.0</ele><time>2026-05-01T10:17:26Z</time></trkpt><trkpt lat="43.62775088221725" lon="11.118874112888697"><ele>160.0</ele><time>2026-05-01T10:17:27Z</time></trkpt><trkpt lat="43.62762226427715" lon="11.119054481668337"><ele>161.66666666666669</ele><time>2026-05-01T10:17:28Z</time></trkpt><trkpt lat="43.62749280615235" lon="11.11923731321696"><ele>163.33333333333334</ele><time>2026-05-01T10:17:29Z</time></trkpt><trkpt lat="43.62736467055593" lon="11.11941848060228"><ele>165.0</ele><time>2026-05-01T10:17:30Z</time></trkpt><trkpt lat="43.62723678288392" lon="11.119598732152298"><ele>165.0</ele><time>2026-05-01T10:17:31Z</time></trkpt><trkpt lat="43.62711026031759" lon="11.119776083955417"><ele>165.0</ele><time>2026-05-01T10:17:32Z</time></trkpt><trkpt lat="43.626983251133964" lon="11.119956972018096"><ele>165.0</ele><time>2026-05-01T10:17:33Z</time></trkpt><trkpt lat="43.626852326217126" lon="11.120141477906643"><ele>165.0</ele><time>2026-05-01T10:17:34Z</time></trkpt><trkpt lat="43.626724887349006" lon="11.120320678668659"><ele>165.0</ele><time>2026-05-01T10:17:35Z</time></trkpt><trkpt lat="43.62659078068899" lon="11.120501651584698"><ele>165.0</ele><time>2026-05-01T10:17:36Z</time></trkpt><trkpt lat="43.6264570568915" lon="11.1206809407855"><ele>164.33333333333334</ele><time>2026-05-01T10:17:37Z</time></trkpt><trkpt lat="43.62632554943766" lon="11.120863339665933"><ele>163.66666666666669</ele><time>2026-05-01T10:17:38Z</time></trkpt><trkpt lat="43.62620099702383" lon="11.121041100470348"><ele>163.0</ele><time>2026-05-01T10:17:39Z</time></trkpt><trkpt lat="43.626070341829596" lon="11.12122334622389"><ele>163.0</ele><time>2026-05-01T10:17:40Z</time></trkpt><trkpt lat="43.62594329302328" lon="11.121401649544516"><ele>163.0</ele><time>2026-05-01T10:17:41Z</time></trkpt><trkpt lat="43.62581463715859" lon="11.121588701140384"><ele>163.0</ele><time>2026-05-01T10:17:42Z</time></trkpt><trkpt lat="43.625688796504086" lon="11.121771245508999"><ele>164.66666666666669</ele><time>2026-05-01T10:17:43Z</time></trkpt><trkpt lat="43.625562399983885" lon="11.121956556197217"><ele>166.33333333333334</ele><time>2026-05-01T10:17:44Z</time></trkpt><trkpt lat="43.625442249742086" lon="11.122147973635153"><ele>168.0</ele><time>2026-05-01T10:17:45Z</time></trkpt><trkpt lat="43.62532272944211" lon="11.122348693577818"><ele>167.33333333333334</ele><time>2026-05-01T10:17:46Z</time></trkpt><trkpt lat="43.62520588110946" lon="11.122540869181647"><ele>166.66666666666669</ele><time>2026-05-01T10:17:47Z</time></trkpt><trkpt lat="43.62509165801635" lon="11.122741984071151"><ele>166.0</ele><time>2026-05-01T10:17:48Z</time></trkpt><trkpt lat="43.624974821782594" lon="11.122944263632505"><ele>166.0</ele><time>2026-05-01T10:17:49Z</time></trkpt><trkpt lat="43.624859156506474" lon="11.12314302517142"><ele>166.0</ele><time>2026-05-01T10:17:50Z</time></trkpt><trkpt lat="43.62474326237712" lon="11.123340229434474"><ele>166.0</ele><time>2026-05-01T10:17:51Z</time></trkpt><trkpt lat="43.62463186097629" lon="11.123531871073213"><ele>167.66666666666669</ele><time>2026-05-01T10:17:52Z</time></trkpt><trkpt lat="43.6245204440265" lon="11.123727309941163"><ele>169.33333333333334</ele><time>2026-05-01T10:17:53Z</time></trkpt><trkpt lat="43.62440900012043" lon="11.123923953690898"><ele>171.0</ele><time>2026-05-01T10:17:54Z</time></trkpt><trkpt lat="43.62429455539029" lon="11.124127584853168"><ele>172.0</ele><time>2026-05-01T10:17:55Z</time></trkpt><trkpt lat="43.6241823425397" lon="11.124323565863774"><ele>173.0</ele><time>2026-05-01T10:17:56Z</time></trkpt><trkpt lat="43.62406984258474" lon="11.12451850712074"><ele>174.0</ele><time>2026-05-01T10:17:57Z</time></trkpt><trkpt lat="43.62395934002294" lon="11.124726609435493"><ele>174.0</ele><time>2026-05-01T10:17:58Z</time></trkpt><trkpt lat="43.623843602739655" lon="11.124931185104032"><ele>174.0</ele><time>2026-05-01T10:17:59Z</time></trkpt><trkpt lat="43.62372931315028" lon="11.125136321260653"><ele>174.0</ele><time>2026-05-01T10:18:00Z</time></trkpt><trkpt lat="43.62360847132619" lon="11.125347258728459"><ele>173.66666666666666</ele><time>2026-05-01T10:18:01Z</time></trkpt><trkpt lat="43.62348815728007" lon="11.125554084972435"><ele>173.33333333333331</ele><time>2026-05-01T10:18:02Z</time></trkpt><trkpt lat="43.623369108649534" lon="11.125761058336039"><ele>173.0</ele><time>2026-05-01T10:18:03Z</time></trkpt><trkpt lat="43.623252660685225" lon="11.125964958303706"><ele>173.0</ele><time>2026-05-01T10:18:04Z</time></trkpt><trkpt lat="43.62312779788653" lon="11.126165084371182"><ele>173.0</ele><time>2026-05-01T10:18:05Z</time></trkpt><trkpt lat="43.62299255680215" lon="11.126347584192445"><ele>173.0</ele><time>2026-05-01T10:18:06Z</time></trkpt><trkpt lat="43.622848304996005" lon="11.126520769286431"><ele>172.33333333333331</ele><time>2026-05-01T10:18:07Z</time></trkpt><trkpt lat="43.622692440311795" lon="11.126674624447801"><ele>171.66666666666666</ele><time>2026-05-01T10:18:08Z</time></trkpt><trkpt lat="43.62253027958033" lon="11.126816077548622"><ele>171.0</ele><time>2026-05-01T10:18:09Z</time></trkpt><trkpt lat="43.62236195380369" lon="11.126946739160688"><ele>171.0</ele><time>2026-05-01T10:18:10Z</time></trkpt><trkpt lat="43.622184269185425" lon="11.127054616617851"><ele>171.0</ele><time>2026-05-01T10:18:11Z</time></trkpt><trkpt lat="43.621998177295765" lon="11.127153265380345"><ele>171.0</ele><time>2026-05-01T10:18:12Z</time></trkpt><trkpt lat="43.62181278748035" lon="11.127242454748231"><ele>171.66666666666666</ele><time>2026-05-01T10:18:13Z</time></trkpt><trkpt lat="43.62163307654832" lon="11.127319836844967"><ele>172.33333333333331</ele><time>2026-05-01T10:18:14Z</time></trkpt><trkpt lat="43.62145360760452" lon="11.12739513729551"><ele>173.0</ele><time>2026-05-01T10:18:15Z</time></trkpt><trkpt lat="43.62127782022791" lon="11.127473092192671"><ele>174.0</ele><time>2026-05-01T10:18:16Z</time></trkpt><trkpt lat="43.621105737580535" lon="11.127549185812368"><ele>175.0</ele><time>2026-05-01T10:18:17Z</time></trkpt><trkpt lat="43.620935162531524" lon="11.12762857251679"><ele>176.0</ele><time>2026-05-01T10:18:18Z</time></trkpt><trkpt lat="43.620763036689894" lon="11.127708362125519"><ele>176.0</ele><time>2026-05-01T10:18:19Z</time></trkpt><trkpt lat="43.62058975042262" lon="11.127796004066177"><ele>176.0</ele><time>2026-05-01T10:18:20Z</time></trkpt><trkpt lat="43.62042090927371" lon="11.12789388940942"><ele>176.0</ele><time>2026-05-01T10:18:21Z</time></trkpt><trkpt lat="43.62025104040227" lon="11.128002841412586"><ele>175.66666666666666</ele><time>2026-05-01T10:18:22Z</time></trkpt><trkpt lat="43.62009117355488" lon="11.128116994053531"><ele>175.33333333333334</ele><time>2026-05-01T10:18:23Z</time></trkpt><trkpt lat="43.61992680095806" lon="11.128251549819755"><ele>175.0</ele><time>2026-05-01T10:18:24Z</time></trkpt><trkpt lat="43.619768787522695" lon="11.128399627606928"><ele>175.0</ele><time>2026-05-01T10:18:25Z</time></trkpt><trkpt lat="43.61961681654114" lon="11.128554422400564"><ele>175.0</ele><time>2026-05-01T10:18:26Z</time></trkpt><trkpt lat="43.619467954599564" lon="11.128724565238837"><ele>175.0</ele><time>2026-05-01T10:18:27Z</time></trkpt><trkpt lat="43.61932601070763" lon="11.128911213413325"><ele>175.33333333333334</ele><time>2026-05-01T10:18:28Z</time></trkpt><trkpt lat="43.61919036822293" lon="11.129094979579946"><ele>175.66666666666666</ele><time>2026-05-01T10:18:29Z</time></trkpt><trkpt lat="43.61905877635609" lon="11.129291800534949"><ele>176.0</ele><time>2026-05-01T10:18:30Z</time></trkpt><trkpt lat="43.61893366912881" lon="11.129492791724394"><ele>176.0</ele><time>2026-05-01T10:18:31Z</time></trkpt><trkpt lat="43.618817705415864" lon="11.12968839683474"><ele>176.0</ele><time>2026-05-01T10:18:32Z</time></trkpt><trkpt lat="43.6187079925452" lon="11.129884872449967"><ele>176.0</ele><time>2026-05-01T10:18:33Z</time></trkpt><trkpt lat="43.618596640835726" lon="11.130070149269592"><ele>177.33333333333331</ele><time>2026-05-01T10:18:34Z</time></trkpt><trkpt lat="43.618484882713034" lon="11.130255083587699"><ele>178.66666666666666</ele><time>2026-05-01T10:18:35Z</time></trkpt><trkpt lat="43.618379979771206" lon="11.130436822459624"><ele>180.0</ele><time>2026-05-01T10:18:36Z</time></trkpt><trkpt lat="43.61827604671467" lon="11.130622978707978"><ele>179.66666666666666</ele><time>2026-05-01T10:18:37Z</time></trkpt><trkpt lat="43.61818961118542" lon="11.130826276145022"><ele>179.33333333333331</ele><time>2026-05-01T10:18:38Z</time></trkpt><trkpt lat="43.61809705404368" lon="11.130994836553182"><ele>179.0</ele><time>2026-05-01T10:18:39Z</time></trkpt><trkpt lat="43.61803329236232" lon="11.131196732692109"><ele>179.0</ele><time>2026-05-01T10:18:40Z</time></trkpt><trkpt lat="43.61798283946399" lon="11.131408750276565"><ele>179.0</ele><time>2026-05-01T10:18:41Z</time></trkpt><trkpt lat="43.6179452000659" lon="11.131619755620047"><ele>179.0</ele><time>2026-05-01T10:18:42Z</time></trkpt><trkpt lat="43.61792148496712" lon="11.131836530497027"><ele>179.0</ele><time>2026-05-01T10:18:43Z</time></trkpt><trkpt lat="43.617919374096815" lon="11.132053444687648"><ele>179.0</ele><time>2026-05-01T10:18:44Z</time></trkpt><trkpt lat="43.617934688873795" lon="11.1322641650534"><ele>179.0</ele><time>2026-05-01T10:18:45Z</time></trkpt><trkpt lat="43.61795560868507" lon="11.132470806084363"><ele>179.0</ele><time>2026-05-01T10:18:46Z</time></trkpt><trkpt lat="43.61798311068926" lon="11.132669355317745"><ele>179.0</ele><time>2026-05-01T10:18:47Z</time></trkpt><trkpt lat="43.618006548890975" lon="11.132833057864126"><ele>179.0</ele><time>2026-05-01T10:18:48Z</time></trkpt><trkpt lat="43.61802539385486" lon="11.132970311302635"><ele>179.0</ele><time>2026-05-01T10:18:49Z</time></trkpt><trkpt lat="43.618039443161535" lon="11.133077411628866"><ele>179.0</ele><time>2026-05-01T10:18:50Z</time></trkpt><trkpt lat="43.618067583691776" lon="11.133218003517708"><ele>179.66666666666666</ele><time>2026-05-01T10:18:52Z</time></trkpt><trkpt lat="43.6181088605909" lon="11.133299715451585"><ele>180.33333333333331</ele><time>2026-05-01T10:18:55Z</time></trkpt><trkpt lat="43.61814324441818" lon="11.133401117510608"><ele>181.0</ele><time>2026-05-01T10:18:58Z</time></trkpt><trkpt lat="43.618264664815705" lon="11.133386816543297"><ele>181.66666666666666</ele><time>2026-05-01T10:18:59Z</time></trkpt><trkpt lat="43.61833935805941" lon="11.133376828693724"><ele>182.33333333333334</ele><time>2026-05-01T10:19:00Z</time></trkpt><trkpt lat="43.618426944959545" lon="11.1333728200953"><ele>183.0</ele><time>2026-05-01T10:19:01Z</time></trkpt><trkpt lat="43.61852933319431" lon="11.133363252623088"><ele>183.0</ele><time>2026-05-01T10:19:02Z</time></trkpt><trkpt lat="43.61863767901631" lon="11.133383704047114"><ele>183.0</ele><time>2026-05-01T10:19:03Z</time></trkpt><trkpt lat="43.6187523850249" lon="11.133419002316462"><ele>183.0</ele><time>2026-05-01T10:19:04Z</time></trkpt><trkpt lat="43.61886884800918" lon="11.133469333068005"><ele>183.0</ele><time>2026-05-01T10:19:05Z</time></trkpt><trkpt lat="43.61898416686272" lon="11.13353995083613"><ele>183.5</ele><time>2026-05-01T10:19:06Z</time></trkpt><trkpt lat="43.61910228818941" lon="11.133619681696576"><ele>184.0</ele><time>2026-05-01T10:19:07Z</time></trkpt><trkpt lat="43.61922497241686" lon="11.133699740872794"><ele>184.5</ele><time>2026-05-01T10:19:08Z</time></trkpt><trkpt lat="43.619335923373384" lon="11.133780935022612"><ele>185.0</ele><time>2026-05-01T10:19:09Z</time></trkpt><trkpt lat="43.61945148818552" lon="11.133862082750309"><ele>186.8</ele><time>2026-05-01T10:19:10Z</time></trkpt><trkpt lat="43.619563731595655" lon="11.133934157240043"><ele>188.6</ele><time>2026-05-01T10:19:11Z</time></trkpt><trkpt lat="43.619666559101056" lon="11.1339783610871"><ele>190.39999999999998</ele><time>2026-05-01T10:19:12Z</time></trkpt><trkpt lat="43.6197693492858" lon="11.133991963110283"><ele>192.2</ele><time>2026-05-01T10:19:13Z</time></trkpt><trkpt lat="43.619877833654996" lon="11.133977379123108"><ele>194.0</ele><time>2026-05-01T10:19:14Z</time></trkpt><trkpt lat="43.619977903423795" lon="11.133923081702758"><ele>194.0</ele><time>2026-05-01T10:19:15Z</time></trkpt><trkpt lat="43.62007580350708" lon="11.133850258654295"><ele>194.0</ele><time>2026-05-01T10:19:16Z</time></trkpt><trkpt lat="43.6201722380688" lon="11.133766783071929"><ele>194.0</ele><time>2026-05-01T10:19:17Z</time></trkpt><trkpt lat="43.62026816744978" lon="11.13368554759964"><ele>194.0</ele><time>2026-05-01T10:19:18Z</time></trkpt><trkpt lat="43.620365552067" lon="11.133601656854287"><ele>196.6</ele><time>2026-05-01T10:19:19Z</time></trkpt><trkpt lat="43.62046737305339" lon="11.1335340932035"><ele>199.2</ele><time>2026-05-01T10:19:20Z</time></trkpt><trkpt lat="43.62056365159519" lon="11.133461630478758"><ele>201.79999999999998</ele><time>2026-05-01T10:19:21Z</time></trkpt><trkpt lat="43.62065681045742" lon="11.133386832381479"><ele>204.39999999999998</ele><time>2026-05-01T10:19:22Z</time></trkpt><trkpt lat="43.620744157759894" lon="11.133319917279799"><ele>207.0</ele><time>2026-05-01T10:19:23Z</time></trkpt><trkpt lat="43.620810655562" lon="11.133260074626275"><ele>206.16666666666666</ele><time>2026-05-01T10:19:24Z</time></trkpt><trkpt lat="43.62088411115887" lon="11.13319593119456"><ele>205.33333333333331</ele><time>2026-05-01T10:19:25Z</time></trkpt><trkpt lat="43.6209598664054" lon="11.133132071769253"><ele>204.5</ele><time>2026-05-01T10:19:26Z</time></trkpt><trkpt lat="43.62104237302801" lon="11.133073239631004"><ele>203.66666666666666</ele><time>2026-05-01T10:19:27Z</time></trkpt><trkpt lat="43.62112114114558" lon="11.13301588092898"><ele>202.83333333333331</ele><time>2026-05-01T10:19:28Z</time></trkpt><trkpt lat="43.62120472747331" lon="11.13296567560398"><ele>202.0</ele><time>2026-05-01T10:19:29Z</time></trkpt><trkpt lat="43.62129766780382" lon="11.132932238248905"><ele>205.39999999999998</ele><time>2026-05-01T10:19:30Z</time></trkpt><trkpt lat="43.62138825179396" lon="11.132930647157627"><ele>208.79999999999998</ele><time>2026-05-01T10:19:31Z</time></trkpt><trkpt lat="43.62147448078863" lon="11.132963567256509"><ele>212.2</ele><time>2026-05-01T10:19:32Z</time></trkpt><trkpt lat="43.62155337292526" lon="11.133026710883357"><ele>215.6</ele><time>2026-05-01T10:19:33Z</time></trkpt><trkpt lat="43.62162040580901" lon="11.133113429930384"><ele>219.0</ele><time>2026-05-01T10:19:34Z</time></trkpt><trkpt lat="43.62167908650819" lon="11.133201550068318"><ele>219.83333333333334</ele><time>2026-05-01T10:19:35Z</time></trkpt><trkpt lat="43.6217317359456" lon="11.13327521632087"><ele>220.66666666666669</ele><time>2026-05-01T10:19:36Z</time></trkpt><trkpt lat="43.62179030831636" lon="11.133359159308743"><ele>221.5</ele><time>2026-05-01T10:19:37Z</time></trkpt><trkpt lat="43.621853697551714" lon="11.133447368524337"><ele>222.33333333333334</ele><time>2026-05-01T10:19:38Z</time></trkpt><trkpt lat="43.62191352240184" lon="11.133537628449623"><ele>223.16666666666669</ele><time>2026-05-01T10:19:39Z</time></trkpt><trkpt lat="43.621972336300544" lon="11.133623953658121"><ele>224.0</ele><time>2026-05-01T10:19:40Z</time></trkpt><trkpt lat="43.6220312068596" lon="11.133700583609231"><ele>228.00000000000003</ele><time>2026-05-01T10:19:41Z</time></trkpt><trkpt lat="43.62208227808109" lon="11.133776925865387"><ele>232.0</ele><time>2026-05-01T10:19:42Z</time></trkpt><trkpt lat="43.622131304820215" lon="11.133856554261595"><ele>236.0</ele><time>2026-05-01T10:19:43Z</time></trkpt><trkpt lat="43.62218641740487" lon="11.13393877102828"><ele>240.0</ele><time>2026-05-01T10:19:44Z</time></trkpt><trkpt lat="43.622238788023616" lon="11.134020314836997"><ele>244.00000000000003</ele><time>2026-05-01T10:19:45Z</time></trkpt><trkpt lat="43.62229681339086" lon="11.134109479986716"><ele>248.0</ele><time>2026-05-01T10:19:46Z</time></trkpt><trkpt lat="43.622355680822835" lon="11.13419814952134"><ele>248.0</ele><time>2026-05-01T10:19:47Z</time></trkpt><trkpt lat="43.62240370703642" lon="11.134306245264327"><ele>248.0</ele><time>2026-05-01T10:19:48Z</time></trkpt><trkpt lat="43.62244943945068" lon="11.134426657645712"><ele>248.0</ele><time>2026-05-01T10:19:49Z</time></trkpt><trkpt lat="43.62246977740343" lon="11.1345386262405"><ele>248.0</ele><time>2026-05-01T10:19:50Z</time></trkpt><trkpt lat="43.622506613121686" lon="11.134668704566632"><ele>248.0</ele><time>2026-05-01T10:19:51Z</time></trkpt><trkpt lat="43.622539633204546" lon="11.134781458791634"><ele>248.0</ele><time>2026-05-01T10:19:52Z</time></trkpt><trkpt lat="43.62258463448098" lon="11.1348858573447"><ele>248.0</ele><time>2026-05-01T10:19:53Z</time></trkpt><trkpt lat="43.62262365976067" lon="11.135001423372223"><ele>248.0</ele><time>2026-05-01T10:19:54Z</time></trkpt><trkpt lat="43.622662368239375" lon="11.135120569892132"><ele>248.0</ele><time>2026-05-01T10:19:55Z</time></trkpt><trkpt lat="43.622707049067905" lon="11.135240018402097"><ele>248.0</ele><time>2026-05-01T10:19:56Z</time></trkpt><trkpt lat="43.622749094093386" lon="11.135350607296457"><ele>246.60000000000002</ele><time>2026-05-01T10:19:57Z</time></trkpt><trkpt lat="43.62280104921511" lon="11.135462011648183"><ele>245.20000000000002</ele><time>2026-05-01T10:19:58Z</time></trkpt><trkpt lat="43.62286177841026" lon="11.135562508892457"><ele>243.8</ele><time>2026-05-01T10:19:59Z</time></trkpt><trkpt lat="43.6229318217159" lon="11.135658170088277"><ele>242.4</ele><time>2026-05-01T10:20:00Z</time></trkpt><trkpt lat="43.6230068243617" lon="11.135741554225763"><ele>241.0</ele><time>2026-05-01T10:20:01Z</time></trkpt><trkpt lat="43.62308455810587" lon="11.135812340024929"><ele>243.49999999999997</ele><time>2026-05-01T10:20:02Z</time></trkpt><trkpt lat="43.62316115727594" lon="11.135881178478497"><ele>246.0</ele><time>2026-05-01T10:20:03Z</time></trkpt><trkpt lat="43.623233544375275" lon="11.135933693348088"><ele>248.5</ele><time>2026-05-01T10:20:04Z</time></trkpt><trkpt lat="43.623298704500094" lon="11.136012671826691"><ele>251.0</ele><time>2026-05-01T10:20:05Z</time></trkpt><trkpt lat="43.623373213217775" lon="11.136074589231468"><ele>253.49999999999997</ele><time>2026-05-01T10:20:06Z</time></trkpt><trkpt lat="43.62345696549353" lon="11.136119351701211"><ele>256.0</ele><time>2026-05-01T10:20:07Z</time></trkpt><trkpt lat="43.623527228595506" lon="11.13619552181977"><ele>256.0</ele><time>2026-05-01T10:20:08Z</time></trkpt><trkpt lat="43.623612635852304" lon="11.136263458420851"><ele>256.0</ele><time>2026-05-01T10:20:09Z</time></trkpt><trkpt lat="43.62369891496973" lon="11.136332685477456"><ele>256.0</ele><time>2026-05-01T10:20:10Z</time></trkpt><trkpt lat="43.62378482188655" lon="11.136404549096099"><ele>256.0</ele><time>2026-05-01T10:20:11Z</time></trkpt><trkpt lat="43.623875011854196" lon="11.136477089111382"><ele>256.0</ele><time>2026-05-01T10:20:12Z</time></trkpt><trkpt lat="43.623971946199966" lon="11.136543918413803"><ele>258.40000000000003</ele><time>2026-05-01T10:20:13Z</time></trkpt><trkpt lat="43.6240737131322" lon="11.136606343810467"><ele>260.8</ele><time>2026-05-01T10:20:14Z</time></trkpt><trkpt lat="43.62417235349524" lon="11.13666155159386"><ele>263.20000000000005</ele><time>2026-05-01T10:20:15Z</time></trkpt><trkpt lat="43.624278268271624" lon="11.136693965056972"><ele>265.6</ele><time>2026-05-01T10:20:16Z</time></trkpt><trkpt lat="43.624379097142956" lon="11.13671250059481"><ele>268.0</ele><time>2026-05-01T10:20:17Z</time></trkpt><trkpt lat="43.624486082917585" lon="11.13672699542343"><ele>270.2</ele><time>2026-05-01T10:20:18Z</time></trkpt><trkpt lat="43.62459199280879" lon="11.13672365853184"><ele>272.4</ele><time>2026-05-01T10:20:19Z</time></trkpt><trkpt lat="43.624696870964215" lon="11.136719049853616"><ele>274.59999999999997</ele><time>2026-05-01T10:20:20Z</time></trkpt><trkpt lat="43.624796161481626" lon="11.136712638878548"><ele>276.8</ele><time>2026-05-01T10:20:21Z</time></trkpt><trkpt lat="43.62490314137114" lon="11.136700568012749"><ele>279.0</ele><time>2026-05-01T10:20:22Z</time></trkpt><trkpt lat="43.62499876190424" lon="11.136693504795716"><ele>279.0</ele><time>2026-05-01T10:20:23Z</time></trkpt><trkpt lat="43.62507404684366" lon="11.136694809110088"><ele>279.0</ele><time>2026-05-01T10:20:24Z</time></trkpt><trkpt lat="43.62514839339657" lon="11.136721199173236"><ele>279.0</ele><time>2026-05-01T10:20:25Z</time></trkpt><trkpt lat="43.62522232839828" lon="11.136772545405282"><ele>279.0</ele><time>2026-05-01T10:20:26Z</time></trkpt><trkpt lat="43.62528533335749" lon="11.136849039723046"><ele>279.0</ele><time>2026-05-01T10:20:27Z</time></trkpt><trkpt lat="43.625324288932084" lon="11.136947184743864"><ele>279.0</ele><time>2026-05-01T10:20:28Z</time></trkpt><trkpt lat="43.62534309249273" lon="11.137055827937822"><ele>281.5</ele><time>2026-05-01T10:20:29Z</time></trkpt><trkpt lat="43.62534102821729" lon="11.137180820477147"><ele>284.0</ele><time>2026-05-01T10:20:30Z</time></trkpt><trkpt lat="43.625357710285535" lon="11.137267548643356"><ele>286.5</ele><time>2026-05-01T10:20:31Z</time></trkpt><trkpt lat="43.625396852483085" lon="11.137358713458104"><ele>289.0</ele><time>2026-05-01T10:20:32Z</time></trkpt><trkpt lat="43.62545946320996" lon="11.137441719999176"><ele>291.5</ele><time>2026-05-01T10:20:33Z</time></trkpt><trkpt lat="43.62553982856299" lon="11.137507832228392"><ele>294.0</ele><time>2026-05-01T10:20:34Z</time></trkpt><trkpt lat="43.62563415168535" lon="11.137558496909865"><ele>294.0</ele><time>2026-05-01T10:20:35Z</time></trkpt><trkpt lat="43.62572133348485" lon="11.137620120995912"><ele>294.0</ele><time>2026-05-01T10:20:36Z</time></trkpt><trkpt lat="43.62581057417743" lon="11.137678643714093"><ele>294.0</ele><time>2026-05-01T10:20:37Z</time></trkpt><trkpt lat="43.62589680418327" lon="11.13773688009009"><ele>294.0</ele><time>2026-05-01T10:20:38Z</time></trkpt><trkpt lat="43.625972657857666" lon="11.137821929063762"><ele>294.0</ele><time>2026-05-01T10:20:39Z</time></trkpt><trkpt lat="43.62605978606263" lon="11.137890872202288"><ele>296.4</ele><time>2026-05-01T10:20:40Z</time></trkpt><trkpt lat="43.62614728669493" lon="11.13796699841423"><ele>298.79999999999995</ele><time>2026-05-01T10:20:41Z</time></trkpt><trkpt lat="43.626231617645985" lon="11.13804490394237"><ele>301.20000000000005</ele><time>2026-05-01T10:20:42Z</time></trkpt><trkpt lat="43.62631333597611" lon="11.138127678743531"><ele>303.6</ele><time>2026-05-01T10:20:43Z</time></trkpt><trkpt lat="43.626393381887674" lon="11.138223724317251"><ele>306.0</ele><time>2026-05-01T10:20:44Z</time></trkpt><trkpt lat="43.62646238365457" lon="11.138333488541175"><ele>306.0</ele><time>2026-05-01T10:20:45Z</time></trkpt><trkpt lat="43.626526650268524" lon="11.138443059719183"><ele>306.0</ele><time>2026-05-01T10:20:46Z</time></trkpt><trkpt lat="43.626590934161015" lon="11.13855013698072"><ele>306.0</ele><time>2026-05-01T10:20:47Z</time></trkpt><trkpt lat="43.626654212493584" lon="11.138653975401084"><ele>306.0</ele><time>2026-05-01T10:20:48Z</time></trkpt><trkpt lat="43.62671836630073" lon="11.138750404744668"><ele>306.0</ele><time>2026-05-01T10:20:49Z</time></trkpt><trkpt lat="43.62679043509258" lon="11.138850768988647"><ele>306.0</ele><time>2026-05-01T10:20:50Z</time></trkpt><trkpt lat="43.62685817716518" lon="11.138952099842344"><ele>306.0</ele><time>2026-05-01T10:20:51Z</time></trkpt><trkpt lat="43.626941209284546" lon="11.139045392298213"><ele>306.0</ele><time>2026-05-01T10:20:52Z</time></trkpt><trkpt lat="43.62702494119268" lon="11.139115160018665"><ele>306.0</ele><time>2026-05-01T10:20:53Z</time></trkpt><trkpt lat="43.62707774425529" lon="11.139218774002249"><ele>306.0</ele><time>2026-05-01T10:20:54Z</time></trkpt><trkpt lat="43.62712430092247" lon="11.139345458026817"><ele>305.75</ele><time>2026-05-01T10:20:55Z</time></trkpt><trkpt lat="43.627173209174124" lon="11.13948473166564"><ele>305.5</ele><time>2026-05-01T10:20:56Z</time></trkpt><trkpt lat="43.6272307246861" lon="11.139631541748162"><ele>305.25</ele><time>2026-05-01T10:20:57Z</time></trkpt><trkpt lat="43.62729871959743" lon="11.139778660150998"><ele>305.0</ele><time>2026-05-01T10:20:58Z</time></trkpt><trkpt lat="43.62736908563217" lon="11.139929896533665"><ele>306.0</ele><time>2026-05-01T10:20:59Z</time></trkpt><trkpt lat="43.62744090795533" lon="11.140076871563055"><ele>307.0</ele><time>2026-05-01T10:21:00Z</time></trkpt><trkpt lat="43.62751450245249" lon="11.140227494824632"><ele>308.0</ele><time>2026-05-01T10:21:01Z</time></trkpt><trkpt lat="43.62758474172269" lon="11.140390671810147"><ele>309.0</ele><time>2026-05-01T10:21:02Z</time></trkpt><trkpt lat="43.627658052171846" lon="11.140553924995663"><ele>310.5</ele><time>2026-05-01T10:21:03Z</time></trkpt><trkpt lat="43.62772930723706" lon="11.140718341852631"><ele>312.0</ele><time>2026-05-01T10:21:04Z</time></trkpt><trkpt lat="43.62780010455445" lon="11.14088176371693"><ele>313.5</ele><time>2026-05-01T10:21:05Z</time></trkpt><trkpt lat="43.62786869159652" lon="11.141049756560626"><ele>315.0</ele><time>2026-05-01T10:21:06Z</time></trkpt><trkpt lat="43.62793547712848" lon="11.14121942374651"><ele>312.5</ele><time>2026-05-01T10:21:07Z</time></trkpt><trkpt lat="43.62800509497261" lon="11.141385037203808"><ele>310.0</ele><time>2026-05-01T10:21:08Z</time></trkpt><trkpt lat="43.62808294092014" lon="11.14154500062019"><ele>307.5</ele><time>2026-05-01T10:21:09Z</time></trkpt><trkpt lat="43.62816194051091" lon="11.141699166300551"><ele>305.0</ele><time>2026-05-01T10:21:10Z</time></trkpt><trkpt lat="43.62824752871367" lon="11.141857860967004"><ele>305.0</ele><time>2026-05-01T10:21:11Z</time></trkpt><trkpt lat="43.628321675540086" lon="11.142024486270847"><ele>305.0</ele><time>2026-05-01T10:21:12Z</time></trkpt><trkpt lat="43.62841253115966" lon="11.142151289626321"><ele>305.0</ele><time>2026-05-01T10:21:13Z</time></trkpt><trkpt lat="43.62849066760606" lon="11.142292532344932"><ele>305.0</ele><time>2026-05-01T10:21:14Z</time></trkpt><trkpt lat="43.628566026104295" lon="11.142444592298633"><ele>303.5</ele><time>2026-05-01T10:21:15Z</time></trkpt><trkpt lat="43.62866115300615" lon="11.142575971245178"><ele>302.0</ele><time>2026-05-01T10:21:16Z</time></trkpt><trkpt lat="43.62876960567065" lon="11.142672330125269"><ele>300.5</ele><time>2026-05-01T10:21:17Z</time></trkpt><trkpt lat="43.62887793953536" lon="11.142776693009719"><ele>299.0</ele><time>2026-05-01T10:21:18Z</time></trkpt><trkpt lat="43.62899280057119" lon="11.142872238150009"><ele>299.0</ele><time>2026-05-01T10:21:19Z</time></trkpt><trkpt lat="43.62911479333373" lon="11.142956767210583"><ele>299.0</ele><time>2026-05-01T10:21:20Z</time></trkpt><trkpt lat="43.62924173256675" lon="11.143034342026734"><ele>299.0</ele><time>2026-05-01T10:21:21Z</time></trkpt><trkpt lat="43.62936413154875" lon="11.143103786133926"><ele>299.0</ele><time>2026-05-01T10:21:22Z</time></trkpt><trkpt lat="43.62948104839878" lon="11.143177181773574"><ele>299.0</ele><time>2026-05-01T10:21:23Z</time></trkpt><trkpt lat="43.62959691207553" lon="11.143247324248447"><ele>299.0</ele><time>2026-05-01T10:21:24Z</time></trkpt><trkpt lat="43.629713538971885" lon="11.143302495537377"><ele>299.0</ele><time>2026-05-01T10:21:25Z</time></trkpt><trkpt lat="43.62983883908914" lon="11.143342346058514"><ele>299.0</ele><time>2026-05-01T10:21:26Z</time></trkpt><trkpt lat="43.62997109766121" lon="11.143365412256966"><ele>299.0</ele><time>2026-05-01T10:21:27Z</time></trkpt><trkpt lat="43.63010052578583" lon="11.143380743236364"><ele>299.0</ele><time>2026-05-01T10:21:28Z</time></trkpt><trkpt lat="43.63022557380684" lon="11.143386123629723"><ele>299.0</ele><time>2026-05-01T10:21:29Z</time></trkpt><trkpt lat="43.630351154064975" lon="11.14337574325523"><ele>299.0</ele><time>2026-05-01T10:21:30Z</time></trkpt><trkpt lat="43.63046866360435" lon="11.143356710544474"><ele>298.59999999999997</ele><time>2026-05-01T10:21:31Z</time></trkpt><trkpt lat="43.63057640763803" lon="11.143343577843044"><ele>298.2</ele><time>2026-05-01T10:21:32Z</time></trkpt><trkpt lat="43.63067107678545" lon="11.14334209427456"><ele>297.79999999999995</ele><time>2026-05-01T10:21:33Z</time></trkpt><trkpt lat="43.63074997946412" lon="11.143386345635255"><ele>297.4</ele><time>2026-05-01T10:21:34Z</time></trkpt><trkpt lat="43.63083934595692" lon="11.143415223995177"><ele>297.0</ele><time>2026-05-01T10:21:35Z</time></trkpt><trkpt lat="43.63088875771618" lon="11.143493007793069"><ele>297.0</ele><time>2026-05-01T10:21:36Z</time></trkpt><trkpt lat="43.63097267815249" lon="11.143592354003276"><ele>297.0</ele><time>2026-05-01T10:21:37Z</time></trkpt><trkpt lat="43.63104267980994" lon="11.14371718352005"><ele>297.0</ele><time>2026-05-01T10:21:38Z</time></trkpt><trkpt lat="43.6311170642957" lon="11.143847864233184"><ele>297.0</ele><time>2026-05-01T10:21:39Z</time></trkpt><trkpt lat="43.631197281203185" lon="11.14396536544592"><ele>296.0</ele><time>2026-05-01T10:21:40Z</time></trkpt><trkpt lat="43.63126173760962" lon="11.144084634148184"><ele>295.0</ele><time>2026-05-01T10:21:41Z</time></trkpt><trkpt lat="43.63134758372515" lon="11.14417866971728"><ele>294.0</ele><time>2026-05-01T10:21:42Z</time></trkpt><trkpt lat="43.63144039553324" lon="11.14427658740151"><ele>293.0</ele><time>2026-05-01T10:21:43Z</time></trkpt><trkpt lat="43.63153091011425" lon="11.144382631840108"><ele>293.0</ele><time>2026-05-01T10:21:44Z</time></trkpt><trkpt lat="43.63161538056928" lon="11.144485716732033"><ele>293.0</ele><time>2026-05-01T10:21:45Z</time></trkpt><trkpt lat="43.631701973269294" lon="11.144581150954854"><ele>293.0</ele><time>2026-05-01T10:21:46Z</time></trkpt><trkpt lat="43.63179750631597" lon="11.144656126569165"><ele>293.0</ele><time>2026-05-01T10:21:47Z</time></trkpt><trkpt lat="43.631897388162365" lon="11.144706642612142"><ele>293.0</ele><time>2026-05-01T10:21:48Z</time></trkpt><trkpt lat="43.63200819455172" lon="11.144735519291634"><ele>292.0</ele><time>2026-05-01T10:21:49Z</time></trkpt><trkpt lat="43.63210789484344" lon="11.144754439507544"><ele>291.0</ele><time>2026-05-01T10:21:50Z</time></trkpt><trkpt lat="43.63220012946123" lon="11.144802519376217"><ele>290.0</ele><time>2026-05-01T10:21:51Z</time></trkpt><trkpt lat="43.6322951675655" lon="11.14487223481256"><ele>289.0</ele><time>2026-05-01T10:21:52Z</time></trkpt><trkpt lat="43.63239118538601" lon="11.14498020635675"><ele>288.0</ele><time>2026-05-01T10:21:53Z</time></trkpt><trkpt lat="43.63247641585903" lon="11.14509454597502"><ele>288.0</ele><time>2026-05-01T10:21:54Z</time></trkpt><trkpt lat="43.63255065672616" lon="11.145219794716441"><ele>288.0</ele><time>2026-05-01T10:21:55Z</time></trkpt><trkpt lat="43.632629117714096" lon="11.14534389916422"><ele>288.0</ele><time>2026-05-01T10:21:56Z</time></trkpt><trkpt lat="43.632722955361885" lon="11.145455737529316"><ele>288.0</ele><time>2026-05-01T10:21:57Z</time></trkpt><trkpt lat="43.63282856574784" lon="11.14555737802363"><ele>285.25</ele><time>2026-05-01T10:21:58Z</time></trkpt><trkpt lat="43.63293137446105" lon="11.145648694357655"><ele>282.5</ele><time>2026-05-01T10:21:59Z</time></trkpt><trkpt lat="43.6330301375022" lon="11.145750278484963"><ele>279.75</ele><time>2026-05-01T10:22:00Z</time></trkpt><trkpt lat="43.63312357445228" lon="11.14587237239176"><ele>277.0</ele><time>2026-05-01T10:22:01Z</time></trkpt><trkpt lat="43.63320162866543" lon="11.146014995289223"><ele>277.0</ele><time>2026-05-01T10:22:02Z</time></trkpt><trkpt lat="43.63329468872142" lon="11.146168743130232"><ele>277.0</ele><time>2026-05-01T10:22:03Z</time></trkpt><trkpt lat="43.63338127898488" lon="11.146321829462961"><ele>277.0</ele><time>2026-05-01T10:22:04Z</time></trkpt><trkpt lat="43.633469234369414" lon="11.146461335111853"><ele>277.0</ele><time>2026-05-01T10:22:05Z</time></trkpt><trkpt lat="43.6335527437777" lon="11.146602922673807"><ele>277.0</ele><time>2026-05-01T10:22:06Z</time></trkpt><trkpt lat="43.63363478872179" lon="11.146741894769233"><ele>277.0</ele><time>2026-05-01T10:22:07Z</time></trkpt><trkpt lat="43.633711617169894" lon="11.146882314953556"><ele>277.0</ele><time>2026-05-01T10:22:08Z</time></trkpt><trkpt lat="43.633779169150294" lon="11.147020423859589"><ele>277.0</ele><time>2026-05-01T10:22:09Z</time></trkpt><trkpt lat="43.63383588938142" lon="11.147165104340196"><ele>277.2</ele><time>2026-05-01T10:22:10Z</time></trkpt><trkpt lat="43.63389389047304" lon="11.147319410852605"><ele>277.4</ele><time>2026-05-01T10:22:11Z</time></trkpt><trkpt lat="43.63394321441798" lon="11.147469055504311"><ele>277.6</ele><time>2026-05-01T10:22:12Z</time></trkpt><trkpt lat="43.633986820374204" lon="11.147599779577789"><ele>277.8</ele><time>2026-05-01T10:22:13Z</time></trkpt><trkpt lat="43.634013720270985" lon="11.147714566456715"><ele>278.0</ele><time>2026-05-01T10:22:14Z</time></trkpt><trkpt lat="43.634053142015475" lon="11.14780462958197"><ele>278.2</ele><time>2026-05-01T10:22:15Z</time></trkpt><trkpt lat="43.634120464341024" lon="11.14789726980509"><ele>278.4</ele><time>2026-05-01T10:22:16Z</time></trkpt><trkpt lat="43.63421387835823" lon="11.147940043968259"><ele>278.59999999999997</ele><time>2026-05-01T10:22:17Z</time></trkpt><trkpt lat="43.63430390479972" lon="11.148012540367526"><ele>278.8</ele><time>2026-05-01T10:22:18Z</time></trkpt><trkpt lat="43.63442293159781" lon="11.148045061769375"><ele>279.0</ele><time>2026-05-01T10:22:19Z</time></trkpt><trkpt lat="43.63453885247716" lon="11.148097882910209"><ele>279.0</ele><time>2026-05-01T10:22:20Z</time></trkpt><trkpt lat="43.63464275977204" lon="11.148164081318743"><ele>279.0</ele><time>2026-05-01T10:22:21Z</time></trkpt><trkpt lat="43.63474523206601" lon="11.148226797520174"><ele>279.0</ele><time>2026-05-01T10:22:22Z</time></trkpt><trkpt lat="43.63483905824748" lon="11.148304422230975"><ele>279.0</ele><time>2026-05-01T10:22:23Z</time></trkpt><trkpt lat="43.63492926353612" lon="11.14841007418121"><ele>279.0</ele><time>2026-05-01T10:22:24Z</time></trkpt><trkpt lat="43.63500632759642" lon="11.148529777316073"><ele>279.0</ele><time>2026-05-01T10:22:25Z</time></trkpt><trkpt lat="43.63506946071806" lon="11.148651793624445"><ele>279.0</ele><time>2026-05-01T10:22:26Z</time></trkpt><trkpt lat="43.63512709504807" lon="11.148758530408818"><ele>279.0</ele><time>2026-05-01T10:22:27Z</time></trkpt><trkpt lat="43.635192081950564" lon="11.148843195004709"><ele>279.0</ele><time>2026-05-01T10:22:28Z</time></trkpt><trkpt lat="43.63525165125823" lon="11.14891190132587"><ele>280.2</ele><time>2026-05-01T10:22:29Z</time></trkpt><trkpt lat="43.63534049254549" lon="11.148953937142096"><ele>281.4</ele><time>2026-05-01T10:22:30Z</time></trkpt><trkpt lat="43.63545062912879" lon="11.148979841993286"><ele>282.6</ele><time>2026-05-01T10:22:31Z</time></trkpt><trkpt lat="43.63557073305465" lon="11.148983915602093"><ele>283.8</ele><time>2026-05-01T10:22:32Z</time></trkpt><trkpt lat="43.635682714888205" lon="11.14898841594027"><ele>285.0</ele><time>2026-05-01T10:22:33Z</time></trkpt><trkpt lat="43.63579459288747" lon="11.148998244945439"><ele>285.0</ele><time>2026-05-01T10:22:34Z</time></trkpt><trkpt lat="43.635906205007124" lon="11.14900234382782"><ele>285.0</ele><time>2026-05-01T10:22:35Z</time></trkpt><trkpt lat="43.636015937792315" lon="11.149057084060688"><ele>285.0</ele><time>2026-05-01T10:22:36Z</time></trkpt><trkpt lat="43.63612572444019" lon="11.149124767673571"><ele>285.0</ele><time>2026-05-01T10:22:37Z</time></trkpt><trkpt lat="43.63623425151689" lon="11.1492079867445"><ele>282.75</ele><time>2026-05-01T10:22:38Z</time></trkpt><trkpt lat="43.63634405636056" lon="11.149307090812792"><ele>280.5</ele><time>2026-05-01T10:22:39Z</time></trkpt><trkpt lat="43.636452406143206" lon="11.149420304098829"><ele>278.25</ele><time>2026-05-01T10:22:40Z</time></trkpt><trkpt lat="43.636555662650025" lon="11.149547601973547"><ele>276.0</ele><time>2026-05-01T10:22:41Z</time></trkpt><trkpt lat="43.63665605294877" lon="11.149685211645075"><ele>276.0</ele><time>2026-05-01T10:22:42Z</time></trkpt><trkpt lat="43.636751544859436" lon="11.149819295621178"><ele>276.0</ele><time>2026-05-01T10:22:43Z</time></trkpt><trkpt lat="43.63684436905458" lon="11.149957370859356"><ele>276.0</ele><time>2026-05-01T10:22:44Z</time></trkpt><trkpt lat="43.63693424814221" lon="11.150097570774761"><ele>276.0</ele><time>2026-05-01T10:22:45Z</time></trkpt><trkpt lat="43.6370197427101" lon="11.150241658860365"><ele>276.5</ele><time>2026-05-01T10:22:46Z</time></trkpt><trkpt lat="43.637096330716474" lon="11.150377997125357"><ele>277.0</ele><time>2026-05-01T10:22:47Z</time></trkpt><trkpt lat="43.63715853686212" lon="11.150529414665273"><ele>277.5</ele><time>2026-05-01T10:22:48Z</time></trkpt><trkpt lat="43.637210581249334" lon="11.150693804997378"><ele>278.0</ele><time>2026-05-01T10:22:49Z</time></trkpt><trkpt lat="43.63725191795563" lon="11.15086987571614"><ele>274.75</ele><time>2026-05-01T10:22:50Z</time></trkpt><trkpt lat="43.637276796864015" lon="11.151059577001739"><ele>271.5</ele><time>2026-05-01T10:22:51Z</time></trkpt><trkpt lat="43.63730313409353" lon="11.151250492812979"><ele>268.25</ele><time>2026-05-01T10:22:52Z</time></trkpt><trkpt lat="43.63733009953506" lon="11.151433953350965"><ele>265.0</ele><time>2026-05-01T10:22:53Z</time></trkpt><trkpt lat="43.637337461973694" lon="11.151615624032258"><ele>263.0</ele><time>2026-05-01T10:22:54Z</time></trkpt><trkpt lat="43.63736209700351" lon="11.15177360723265"><ele>261.0</ele><time>2026-05-01T10:22:55Z</time></trkpt><trkpt lat="43.63738710751213" lon="11.151909053812169"><ele>259.0</ele><time>2026-05-01T10:22:56Z</time></trkpt><trkpt lat="43.63742953443162" lon="11.152039819054595"><ele>257.0</ele><time>2026-05-01T10:22:57Z</time></trkpt><trkpt lat="43.63749298990826" lon="11.152163346167628"><ele>255.0</ele><time>2026-05-01T10:22:58Z</time></trkpt><trkpt lat="43.63757674992964" lon="11.152285959863683"><ele>252.0</ele><time>2026-05-01T10:22:59Z</time></trkpt><trkpt lat="43.637674102729235" lon="11.152390607690624"><ele>249.0</ele><time>2026-05-01T10:23:00Z</time></trkpt><trkpt lat="43.63778227279715" lon="11.15247021278897"><ele>246.0</ele><time>2026-05-01T10:23:01Z</time></trkpt><trkpt lat="43.637895595521705" lon="11.152522096764692"><ele>243.0</ele><time>2026-05-01T10:23:02Z</time></trkpt><trkpt lat="43.638002492651225" lon="11.152556178126302"><ele>243.0</ele><time>2026-05-01T10:23:03Z</time></trkpt><trkpt lat="43.638116783318644" lon="11.152565713741987"><ele>243.0</ele><time>2026-05-01T10:23:04Z</time></trkpt><trkpt lat="43.638227340399155" lon="11.152556987373798"><ele>243.0</ele><time>2026-05-01T10:23:05Z</time></trkpt><trkpt lat="43.638336044152936" lon="11.152516910271677"><ele>243.0</ele><time>2026-05-01T10:23:06Z</time></trkpt><trkpt lat="43.638430935489794" lon="11.152444273197473"><ele>243.0</ele><time>2026-05-01T10:23:07Z</time></trkpt><trkpt lat="43.63851205860765" lon="11.152332586966043"><ele>244.5</ele><time>2026-05-01T10:23:08Z</time></trkpt><trkpt lat="43.638600832436296" lon="11.152227311472467"><ele>246.0</ele><time>2026-05-01T10:23:09Z</time></trkpt><trkpt lat="43.6386998519626" lon="11.152127979961568"><ele>247.5</ele><time>2026-05-01T10:23:10Z</time></trkpt><trkpt lat="43.638813129957846" lon="11.152032679339792"><ele>249.0</ele><time>2026-05-01T10:23:11Z</time></trkpt><trkpt lat="43.63893375654427" lon="11.151972315177758"><ele>249.0</ele><time>2026-05-01T10:23:12Z</time></trkpt><trkpt lat="43.63906478096456" lon="11.151905443757727"><ele>249.0</ele><time>2026-05-01T10:23:13Z</time></trkpt><trkpt lat="43.63919649430848" lon="11.151845743769524"><ele>249.0</ele><time>2026-05-01T10:23:14Z</time></trkpt><trkpt lat="43.63932186681208" lon="11.151774888338613"><ele>249.0</ele><time>2026-05-01T10:23:15Z</time></trkpt><trkpt lat="43.63944119731136" lon="11.151718996671212"><ele>251.25</ele><time>2026-05-01T10:23:16Z</time></trkpt><trkpt lat="43.6395709634745" lon="11.151655605477533"><ele>253.5</ele><time>2026-05-01T10:23:17Z</time></trkpt><trkpt lat="43.63970058179296" lon="11.151578640687912"><ele>255.75</ele><time>2026-05-01T10:23:18Z</time></trkpt><trkpt lat="43.63982832419712" lon="11.151517071551664"><ele>258.0</ele><time>2026-05-01T10:23:19Z</time></trkpt><trkpt lat="43.63996441397105" lon="11.151445729071664"><ele>258.0</ele><time>2026-05-01T10:23:20Z</time></trkpt><trkpt lat="43.64009107522503" lon="11.151374050866048"><ele>258.0</ele><time>2026-05-01T10:23:21Z</time></trkpt><trkpt lat="43.64021087716713" lon="11.151313474645265"><ele>258.0</ele><time>2026-05-01T10:23:22Z</time></trkpt><trkpt lat="43.6403344751387" lon="11.15127080821366"><ele>258.0</ele><time>2026-05-01T10:23:23Z</time></trkpt><trkpt lat="43.64046938350698" lon="11.151238075065857"><ele>255.0</ele><time>2026-05-01T10:23:24Z</time></trkpt><trkpt lat="43.640604167778086" lon="11.151241251957876"><ele>252.0</ele><time>2026-05-01T10:23:25Z</time></trkpt><trkpt lat="43.640733482963284" lon="11.151259835636868"><ele>249.0</ele><time>2026-05-01T10:23:26Z</time></trkpt><trkpt lat="43.640857056408095" lon="11.15129786255492"><ele>246.0</ele><time>2026-05-01T10:23:27Z</time></trkpt><trkpt lat="43.64097533130271" lon="11.151347341273961"><ele>246.0</ele><time>2026-05-01T10:23:28Z</time></trkpt><trkpt lat="43.64109063384938" lon="11.151411068790933"><ele>246.0</ele><time>2026-05-01T10:23:29Z</time></trkpt><trkpt lat="43.641212969813324" lon="11.151478114278428"><ele>246.0</ele><time>2026-05-01T10:23:30Z</time></trkpt><trkpt lat="43.64132247801836" lon="11.151531996281049"><ele>246.0</ele><time>2026-05-01T10:23:31Z</time></trkpt><trkpt lat="43.64141283544684" lon="11.15157759676359"><ele>243.60000000000002</ele><time>2026-05-01T10:23:32Z</time></trkpt><trkpt lat="43.64150392877332" lon="11.15161146147896"><ele>241.20000000000002</ele><time>2026-05-01T10:23:33Z</time></trkpt><trkpt lat="43.64160605534738" lon="11.15162260749261"><ele>238.79999999999998</ele><time>2026-05-01T10:23:34Z</time></trkpt><trkpt lat="43.64169987642649" lon="11.151615717016773"><ele>236.39999999999998</ele><time>2026-05-01T10:23:35Z</time></trkpt><trkpt lat="43.64179545558305" lon="11.151579704901433"><ele>234.0</ele><time>2026-05-01T10:23:36Z</time></trkpt><trkpt lat="43.64187928446472" lon="11.151511192487954"><ele>234.0</ele><time>2026-05-01T10:23:37Z</time></trkpt><trkpt lat="43.64195936239558" lon="11.151423823942565"><ele>233.99999999999997</ele><time>2026-05-01T10:23:38Z</time></trkpt><trkpt lat="43.64203335656164" lon="11.151308078456797"><ele>233.99999999999997</ele><time>2026-05-01T10:23:39Z</time></trkpt><trkpt lat="43.642099961870066" lon="11.151179026763616"><ele>234.0</ele><time>2026-05-01T10:23:40Z</time></trkpt><trkpt lat="43.642157582992255" lon="11.151053689013578"><ele>234.0</ele><time>2026-05-01T10:23:41Z</time></trkpt><trkpt lat="43.64222026743927" lon="11.150935707736867"><ele>231.0</ele><time>2026-05-01T10:23:42Z</time></trkpt><trkpt lat="43.64228250457774" lon="11.15083912864697"><ele>228.0</ele><time>2026-05-01T10:23:43Z</time></trkpt><trkpt lat="43.642351589677375" lon="11.150776293248576"><ele>225.0</ele><time>2026-05-01T10:23:44Z</time></trkpt><trkpt lat="43.64241588366176" lon="11.150697414346672"><ele>222.0</ele><time>2026-05-01T10:23:45Z</time></trkpt><trkpt lat="43.64249921907121" lon="11.150668014770671"><ele>219.0</ele><time>2026-05-01T10:23:46Z</time></trkpt><trkpt lat="43.64258840944012" lon="11.150675861223565"><ele>216.0</ele><time>2026-05-01T10:23:47Z</time></trkpt><trkpt lat="43.64266873546076" lon="11.150731926402324"><ele>216.0</ele><time>2026-05-01T10:23:48Z</time></trkpt><trkpt lat="43.64274487619771" lon="11.150794470734901"><ele>216.0</ele><time>2026-05-01T10:23:49Z</time></trkpt><trkpt lat="43.64280544458811" lon="11.150884204846099"><ele>216.0</ele><time>2026-05-01T10:23:50Z</time></trkpt><trkpt lat="43.64284920921876" lon="11.150994329782682"><ele>216.0</ele><time>2026-05-01T10:23:51Z</time></trkpt><trkpt lat="43.64286206869964" lon="11.15111815118539"><ele>216.0</ele><time>2026-05-01T10:23:52Z</time></trkpt><trkpt lat="43.64285586537341" lon="11.151242368544066"><ele>216.0</ele><time>2026-05-01T10:23:53Z</time></trkpt><trkpt lat="43.64282992456588" lon="11.15138326164635"><ele>216.0</ele><time>2026-05-01T10:23:54Z</time></trkpt><trkpt lat="43.64278377567771" lon="11.151527790328116"><ele>216.0</ele><time>2026-05-01T10:23:55Z</time></trkpt><trkpt lat="43.64272303362302" lon="11.151664101870372"><ele>216.0</ele><time>2026-05-01T10:23:56Z</time></trkpt><trkpt lat="43.64263995376471" lon="11.151805435052514"><ele>216.0</ele><time>2026-05-01T10:23:57Z</time></trkpt><trkpt lat="43.642547780977154" lon="11.151951500421678"><ele>214.25</ele><time>2026-05-01T10:23:58Z</time></trkpt><trkpt lat="43.64244699650782" lon="11.152103457560925"><ele>212.5</ele><time>2026-05-01T10:23:59Z</time></trkpt><trkpt lat="43.64235117992371" lon="11.152257059781423"><ele>210.75</ele><time>2026-05-01T10:24:00Z</time></trkpt><trkpt lat="43.6422548833204" lon="11.15241466829083"><ele>209.0</ele><time>2026-05-01T10:24:01Z</time></trkpt><trkpt lat="43.642160933297006" lon="11.152578975151998"><ele>208.25</ele><time>2026-05-01T10:24:02Z</time></trkpt><trkpt lat="43.642070974072574" lon="11.152741959079123"><ele>207.5</ele><time>2026-05-01T10:24:03Z</time></trkpt><trkpt lat="43.64198735664269" lon="11.152903412517084"><ele>206.75</ele><time>2026-05-01T10:24:04Z</time></trkpt><trkpt lat="43.64190260212519" lon="11.15305773547237"><ele>206.0</ele><time>2026-05-01T10:24:05Z</time></trkpt><trkpt lat="43.64181767856533" lon="11.153214642688635"><ele>203.25</ele><time>2026-05-01T10:24:06Z</time></trkpt><trkpt lat="43.64173180390563" lon="11.153362854820397"><ele>200.5</ele><time>2026-05-01T10:24:07Z</time></trkpt><trkpt lat="43.64164907578525" lon="11.15351125866317"><ele>197.75</ele><time>2026-05-01T10:24:08Z</time></trkpt><trkpt lat="43.64156116936036" lon="11.153656459490449"><ele>195.0</ele><time>2026-05-01T10:24:09Z</time></trkpt><trkpt lat="43.64146769533048" lon="11.153799500427382"><ele>195.0</ele><time>2026-05-01T10:24:10Z</time></trkpt><trkpt lat="43.64137379591828" lon="11.153930184393499"><ele>195.0</ele><time>2026-05-01T10:24:11Z</time></trkpt><trkpt lat="43.64127477284689" lon="11.1540651836608"><ele>195.0</ele><time>2026-05-01T10:24:12Z</time></trkpt><trkpt lat="43.64117662387406" lon="11.154192998347218"><ele>195.0</ele><time>2026-05-01T10:24:13Z</time></trkpt><trkpt lat="43.6410688737572" lon="11.154314167125735"><ele>193.0</ele><time>2026-05-01T10:24:14Z</time></trkpt><trkpt lat="43.64095274588757" lon="11.154427600798817"><ele>191.0</ele><time>2026-05-01T10:24:15Z</time></trkpt><trkpt lat="43.64083682290033" lon="11.154535962201923"><ele>189.0</ele><time>2026-05-01T10:24:16Z</time></trkpt><trkpt lat="43.64071717623173" lon="11.15463481198264"><ele>187.0</ele><time>2026-05-01T10:24:17Z</time></trkpt><trkpt lat="43.640591194430016" lon="11.154721620861848"><ele>187.0</ele><time>2026-05-01T10:24:18Z</time></trkpt><trkpt lat="43.64046366546698" lon="11.154797643680137"><ele>187.0</ele><time>2026-05-01T10:24:19Z</time></trkpt><trkpt lat="43.64034084510147" lon="11.154881798775083"><ele>187.0</ele><time>2026-05-01T10:24:20Z</time></trkpt><trkpt lat="43.64021581110959" lon="11.154969572729936"><ele>187.0</ele><time>2026-05-01T10:24:21Z</time></trkpt><trkpt lat="43.64009006586161" lon="11.155052577238017"><ele>185.75</ele><time>2026-05-01T10:24:22Z</time></trkpt><trkpt lat="43.63996093296161" lon="11.155135407712843"><ele>184.5</ele><time>2026-05-01T10:24:23Z</time></trkpt><trkpt lat="43.639824399420796" lon="11.155218953206742"><ele>183.25</ele><time>2026-05-01T10:24:24Z</time></trkpt><trkpt lat="43.639698660638174" lon="11.155306614702239"><ele>182.0</ele><time>2026-05-01T10:24:25Z</time></trkpt><trkpt lat="43.63957349219481" lon="11.155365299159872"><ele>181.5</ele><time>2026-05-01T10:24:26Z</time></trkpt><trkpt lat="43.639447020917366" lon="11.155448708451852"><ele>181.0</ele><time>2026-05-01T10:24:27Z</time></trkpt><trkpt lat="43.639325706918974" lon="11.155531770841309"><ele>180.5</ele><time>2026-05-01T10:24:28Z</time></trkpt><trkpt lat="43.63919662391463" lon="11.155603384354691"><ele>180.0</ele><time>2026-05-01T10:24:29Z</time></trkpt><trkpt lat="43.639060041295224" lon="11.155667726922712"><ele>176.75</ele><time>2026-05-01T10:24:30Z</time></trkpt><trkpt lat="43.63891347762707" lon="11.155714103066774"><ele>173.5</ele><time>2026-05-01T10:24:31Z</time></trkpt><trkpt lat="43.638770695914786" lon="11.155751988417665"><ele>170.25</ele><time>2026-05-01T10:24:32Z</time></trkpt><trkpt lat="43.638633801437656" lon="11.155798102002214"><ele>167.0</ele><time>2026-05-01T10:24:33Z</time></trkpt><trkpt lat="43.63849821553658" lon="11.155834255730896"><ele>166.0</ele><time>2026-05-01T10:24:34Z</time></trkpt><trkpt lat="43.63835870290803" lon="11.155868619332747"><ele>165.0</ele><time>2026-05-01T10:24:35Z</time></trkpt><trkpt lat="43.638218614876465" lon="11.155901974634391"><ele>164.0</ele><time>2026-05-01T10:24:36Z</time></trkpt><trkpt lat="43.63808451928642" lon="11.155931618241445"><ele>163.0</ele><time>2026-05-01T10:24:37Z</time></trkpt><trkpt lat="43.63795109582084" lon="11.155960608167089"><ele>163.0</ele><time>2026-05-01T10:24:38Z</time></trkpt><trkpt lat="43.63781530426361" lon="11.155988196491537"><ele>163.0</ele><time>2026-05-01T10:24:39Z</time></trkpt><trkpt lat="43.637680397073375" lon="11.156022577898911"><ele>163.0</ele><time>2026-05-01T10:24:40Z</time></trkpt><trkpt lat="43.63754955238718" lon="11.1560601282523"><ele>163.0</ele><time>2026-05-01T10:24:41Z</time></trkpt><trkpt lat="43.637420434939344" lon="11.156066454356983"><ele>163.5</ele><time>2026-05-01T10:24:42Z</time></trkpt><trkpt lat="43.637298705113544" lon="11.156084813758785"><ele>164.0</ele><time>2026-05-01T10:24:43Z</time></trkpt><trkpt lat="43.63717829943237" lon="11.156082232444371"><ele>164.5</ele><time>2026-05-01T10:24:44Z</time></trkpt><trkpt lat="43.63705989192974" lon="11.156054926449851"><ele>165.0</ele><time>2026-05-01T10:24:45Z</time></trkpt><trkpt lat="43.636949779449544" lon="11.156029025213781"><ele>165.0</ele><time>2026-05-01T10:24:46Z</time></trkpt><trkpt lat="43.63684154890201" lon="11.156017947529264"><ele>165.0</ele><time>2026-05-01T10:24:47Z</time></trkpt><trkpt lat="43.63673309196534" lon="11.156026397411708"><ele>165.0</ele><time>2026-05-01T10:24:48Z</time></trkpt><trkpt lat="43.63662358140957" lon="11.15606181060662"><ele>165.0</ele><time>2026-05-01T10:24:49Z</time></trkpt><trkpt lat="43.636522275666515" lon="11.15610843204707"><ele>165.0</ele><time>2026-05-01T10:24:50Z</time></trkpt><trkpt lat="43.63643319974481" lon="11.156160575251604"><ele>165.0</ele><time>2026-05-01T10:24:51Z</time></trkpt><trkpt lat="43.63635460684195" lon="11.15622347258295"><ele>165.0</ele><time>2026-05-01T10:24:52Z</time></trkpt><trkpt lat="43.636293146966544" lon="11.156296062818546"><ele>165.0</ele><time>2026-05-01T10:24:53Z</time></trkpt><trkpt lat="43.636253301215504" lon="11.156416492348919"><ele>165.0</ele><time>2026-05-01T10:24:54Z</time></trkpt><trkpt lat="43.63624987630373" lon="11.15653830248661"><ele>165.0</ele><time>2026-05-01T10:24:55Z</time></trkpt><trkpt lat="43.636264318303915" lon="11.156709535920518"><ele>162.0</ele><time>2026-05-01T10:24:57Z</time></trkpt><trkpt lat="43.63632240605966" lon="11.156796806270693"><ele>159.0</ele><time>2026-05-01T10:24:58Z</time></trkpt><trkpt lat="43.63640358867896" lon="11.156852837675133"><ele>156.0</ele><time>2026-05-01T10:24:59Z</time></trkpt><trkpt lat="43.63648901009032" lon="11.156877159765079"><ele>153.0</ele><time>2026-05-01T10:25:00Z</time></trkpt><trkpt lat="43.63658386230735" lon="11.156879020482492"><ele>150.0</ele><time>2026-05-01T10:25:01Z</time></trkpt><trkpt lat="43.63669590289914" lon="11.156851905879735"><ele>150.0</ele><time>2026-05-01T10:25:02Z</time></trkpt><trkpt lat="43.63680578570881" lon="11.156813395074577"><ele>150.0</ele><time>2026-05-01T10:25:03Z</time></trkpt><trkpt lat="43.63692539599962" lon="11.15678548267591"><ele>150.0</ele><time>2026-05-01T10:25:04Z</time></trkpt><trkpt lat="43.63703488832602" lon="11.156738636316426"><ele>150.0</ele><time>2026-05-01T10:25:05Z</time></trkpt><trkpt lat="43.637150255880336" lon="11.156752373916182"><ele>149.5</ele><time>2026-05-01T10:25:06Z</time></trkpt><trkpt lat="43.63726957171971" lon="11.156795102724535"><ele>149.0</ele><time>2026-05-01T10:25:07Z</time></trkpt><trkpt lat="43.63738527792953" lon="11.156874336164128"><ele>148.5</ele><time>2026-05-01T10:25:08Z</time></trkpt><trkpt lat="43.63751976194" lon="11.156930345552217"><ele>148.0</ele><time>2026-05-01T10:25:09Z</time></trkpt><trkpt lat="43.637651588990906" lon="11.15698461592636"><ele>148.0</ele><time>2026-05-01T10:25:10Z</time></trkpt><trkpt lat="43.637775410196355" lon="11.15703086891135"><ele>148.0</ele><time>2026-05-01T10:25:11Z</time></trkpt><trkpt lat="43.637889288284576" lon="11.157078679127812"><ele>148.0</ele><time>2026-05-01T10:25:12Z</time></trkpt><trkpt lat="43.637999964944925" lon="11.157130196368675"><ele>148.0</ele><time>2026-05-01T10:25:13Z</time></trkpt><trkpt lat="43.638097374759234" lon="11.157209993972378"><ele>148.5</ele><time>2026-05-01T10:25:14Z</time></trkpt><trkpt lat="43.638186451768064" lon="11.157308455006742"><ele>149.0</ele><time>2026-05-01T10:25:15Z</time></trkpt><trkpt lat="43.63826838933445" lon="11.157416735410058"><ele>149.5</ele><time>2026-05-01T10:25:16Z</time></trkpt><trkpt lat="43.63834681476409" lon="11.157523578792938"><ele>150.0</ele><time>2026-05-01T10:25:17Z</time></trkpt><trkpt lat="43.63843384273964" lon="11.157632776723572"><ele>148.6</ele><time>2026-05-01T10:25:18Z</time></trkpt><trkpt lat="43.63852020373524" lon="11.157746505868053"><ele>147.2</ele><time>2026-05-01T10:25:19Z</time></trkpt><trkpt lat="43.63859754599919" lon="11.157858933975412"><ele>145.8</ele><time>2026-05-01T10:25:20Z</time></trkpt><trkpt lat="43.638674921707704" lon="11.157964547828955"><ele>144.4</ele><time>2026-05-01T10:25:21Z</time></trkpt><trkpt lat="43.63876042062586" lon="11.158054993028829"><ele>143.0</ele><time>2026-05-01T10:25:22Z</time></trkpt><trkpt lat="43.63885534055267" lon="11.158114682409474"><ele>142.5</ele><time>2026-05-01T10:25:23Z</time></trkpt><trkpt lat="43.638965383842255" lon="11.158153102187487"><ele>142.0</ele><time>2026-05-01T10:25:24Z</time></trkpt><trkpt lat="43.63909096420357" lon="11.158166252800317"><ele>141.5</ele><time>2026-05-01T10:25:25Z</time></trkpt><trkpt lat="43.63921894399037" lon="11.158173244449507"><ele>141.0</ele><time>2026-05-01T10:25:26Z</time></trkpt><trkpt lat="43.63934843154984" lon="11.158184561477228"><ele>140.5</ele><time>2026-05-01T10:25:27Z</time></trkpt><trkpt lat="43.63947626409394" lon="11.158194742035267"><ele>140.0</ele><time>2026-05-01T10:25:28Z</time></trkpt><trkpt lat="43.63960290289043" lon="11.158224163338945"><ele>139.5</ele><time>2026-05-01T10:25:29Z</time></trkpt><trkpt lat="43.639725007977844" lon="11.158295207172891"><ele>139.0</ele><time>2026-05-01T10:25:30Z</time></trkpt><trkpt lat="43.639851586986715" lon="11.15832743691296"><ele>138.0</ele><time>2026-05-01T10:25:31Z</time></trkpt><trkpt lat="43.63996456076551" lon="11.15837674527712"><ele>137.0</ele><time>2026-05-01T10:25:32Z</time></trkpt><trkpt lat="43.6400820119667" lon="11.158424325823198"><ele>136.0</ele><time>2026-05-01T10:25:33Z</time></trkpt><trkpt lat="43.64020742367087" lon="11.158478290717309"><ele>135.0</ele><time>2026-05-01T10:25:34Z</time></trkpt><trkpt lat="43.64032943768107" lon="11.158528511185672"><ele>134.5</ele><time>2026-05-01T10:25:35Z</time></trkpt><trkpt lat="43.6404484823601" lon="11.15857765015479"><ele>134.0</ele><time>2026-05-01T10:25:36Z</time></trkpt><trkpt lat="43.64057524631577" lon="11.158628694215551"><ele>133.5</ele><time>2026-05-01T10:25:37Z</time></trkpt><trkpt lat="43.64070218489311" lon="11.158681655383502"><ele>133.0</ele><time>2026-05-01T10:25:38Z</time></trkpt><trkpt lat="43.640820874072446" lon="11.158731353642763"><ele>133.0</ele><time>2026-05-01T10:25:39Z</time></trkpt><trkpt lat="43.64093450216011" lon="11.158779645614294"><ele>133.0</ele><time>2026-05-01T10:25:40Z</time></trkpt><trkpt lat="43.641045397276514" lon="11.158818835368109"><ele>133.0</ele><time>2026-05-01T10:25:41Z</time></trkpt><trkpt lat="43.641153031371765" lon="11.158846828675307"><ele>133.0</ele><time>2026-05-01T10:25:42Z</time></trkpt><trkpt lat="43.64126093462959" lon="11.158852674982052"><ele>132.25</ele><time>2026-05-01T10:25:43Z</time></trkpt><trkpt lat="43.641370566341415" lon="11.158832711158928"><ele>131.5</ele><time>2026-05-01T10:25:44Z</time></trkpt><trkpt lat="43.641481682185294" lon="11.158831680587157"><ele>130.75</ele><time>2026-05-01T10:25:45Z</time></trkpt><trkpt lat="43.64158931213042" lon="11.158788990510942"><ele>130.0</ele><time>2026-05-01T10:25:46Z</time></trkpt><trkpt lat="43.64170585601064" lon="11.158775234537496"><ele>130.0</ele><time>2026-05-01T10:25:47Z</time></trkpt><trkpt lat="43.641819830303426" lon="11.15876792465424"><ele>130.0</ele><time>2026-05-01T10:25:48Z</time></trkpt><trkpt lat="43.641937851259925" lon="11.15877698926797"><ele>130.0</ele><time>2026-05-01T10:25:49Z</time></trkpt><trkpt lat="43.64205100627836" lon="11.158845680129454"><ele>130.0</ele><time>2026-05-01T10:25:50Z</time></trkpt><trkpt lat="43.64217334455866" lon="11.158892703088464"><ele>129.5</ele><time>2026-05-01T10:25:51Z</time></trkpt><trkpt lat="43.64229590125973" lon="11.158960010089316"><ele>129.0</ele><time>2026-05-01T10:25:52Z</time></trkpt><trkpt lat="43.64241739716409" lon="11.159032743257844"><ele>128.5</ele><time>2026-05-01T10:25:53Z</time></trkpt><trkpt lat="43.64252601243471" lon="11.159122008326216"><ele>128.0</ele><time>2026-05-01T10:25:54Z</time></trkpt><trkpt lat="43.642619936172665" lon="11.1592202255614"><ele>127.75</ele><time>2026-05-01T10:25:55Z</time></trkpt><trkpt lat="43.64271058325366" lon="11.159325485209203"><ele>127.5</ele><time>2026-05-01T10:25:56Z</time></trkpt><trkpt lat="43.64279799950526" lon="11.159443662993631"><ele>127.25</ele><time>2026-05-01T10:25:57Z</time></trkpt><trkpt lat="43.64288130261826" lon="11.159571451468606"><ele>127.0</ele><time>2026-05-01T10:25:58Z</time></trkpt><trkpt lat="43.64296392657452" lon="11.159708859314307"><ele>126.25</ele><time>2026-05-01T10:25:59Z</time></trkpt><trkpt lat="43.6430468806232" lon="11.159843824770329"><ele>125.5</ele><time>2026-05-01T10:26:00Z</time></trkpt><trkpt lat="43.64313672335571" lon="11.159980039103125"><ele>124.75</ele><time>2026-05-01T10:26:01Z</time></trkpt><trkpt lat="43.64321780381188" lon="11.160123219304536"><ele>124.0</ele><time>2026-05-01T10:26:02Z</time></trkpt><trkpt lat="43.64329961396257" lon="11.160265115869644"><ele>123.75</ele><time>2026-05-01T10:26:03Z</time></trkpt><trkpt lat="43.643380696664465" lon="11.160395122783859"><ele>123.5</ele><time>2026-05-01T10:26:04Z</time></trkpt><trkpt lat="43.64346063759683" lon="11.160525602378618"><ele>123.25</ele><time>2026-05-01T10:26:05Z</time></trkpt><trkpt lat="43.64354028422574" lon="11.160654067149196"><ele>123.0</ele><time>2026-05-01T10:26:06Z</time></trkpt><trkpt lat="43.64362027939384" lon="11.160784974235172"><ele>122.25</ele><time>2026-05-01T10:26:07Z</time></trkpt><trkpt lat="43.64369756380748" lon="11.16091261995564"><ele>121.5</ele><time>2026-05-01T10:26:08Z</time></trkpt><trkpt lat="43.643779685345415" lon="11.16103714287785"><ele>120.75</ele><time>2026-05-01T10:26:09Z</time></trkpt><trkpt lat="43.64386036468516" lon="11.161162495158473"><ele>120.0</ele><time>2026-05-01T10:26:10Z</time></trkpt><trkpt lat="43.64394971199053" lon="11.161285613077588"><ele>120.0</ele><time>2026-05-01T10:26:11Z</time></trkpt><trkpt lat="43.64404735371898" lon="11.161402692776138"><ele>120.0</ele><time>2026-05-01T10:26:12Z</time></trkpt><trkpt lat="43.644148674010324" lon="11.161517891224317"><ele>120.0</ele><time>2026-05-01T10:26:13Z</time></trkpt><trkpt lat="43.64424550561205" lon="11.161625561657742"><ele>120.0</ele><time>2026-05-01T10:26:14Z</time></trkpt><trkpt lat="43.64434449648169" lon="11.161729291248244"><ele>119.75</ele><time>2026-05-01T10:26:15Z</time></trkpt><trkpt lat="43.644440244696895" lon="11.161853356647487"><ele>119.5</ele><time>2026-05-01T10:26:16Z</time></trkpt><trkpt lat="43.644558126090274" lon="11.161955254246317"><ele>119.25</ele><time>2026-05-01T10:26:17Z</time></trkpt><trkpt lat="43.64466674259637" lon="11.162070872709139"><ele>119.0</ele><time>2026-05-01T10:26:18Z</time></trkpt><trkpt lat="43.64477677140499" lon="11.162178610363702"><ele>118.25</ele><time>2026-05-01T10:26:19Z</time></trkpt><trkpt lat="43.64488938535416" lon="11.162281463650267"><ele>117.5</ele><time>2026-05-01T10:26:20Z</time></trkpt><trkpt lat="43.64500640779191" lon="11.162382785554954"><ele>116.75</ele><time>2026-05-01T10:26:21Z</time></trkpt><trkpt lat="43.64512143646202" lon="11.16248457453439"><ele>116.0</ele><time>2026-05-01T10:26:22Z</time></trkpt><trkpt lat="43.64522859207477" lon="11.162579794891814"><ele>114.75</ele><time>2026-05-01T10:26:23Z</time></trkpt><trkpt lat="43.645334299123085" lon="11.16267471052854"><ele>113.5</ele><time>2026-05-01T10:26:24Z</time></trkpt><trkpt lat="43.64543092969774" lon="11.162768635064642"><ele>112.25</ele><time>2026-05-01T10:26:25Z</time></trkpt><trkpt lat="43.645516737010304" lon="11.162868730373338"><ele>111.0</ele><time>2026-05-01T10:26:26Z</time></trkpt><trkpt lat="43.64558987090807" lon="11.16299460029665"><ele>111.0</ele><time>2026-05-01T10:26:27Z</time></trkpt><trkpt lat="43.645645227088025" lon="11.16314754762194"><ele>111.0</ele><time>2026-05-01T10:26:28Z</time></trkpt><trkpt lat="43.64568241592819" lon="11.163315196871196"><ele>111.0</ele><time>2026-05-01T10:26:29Z</time></trkpt><trkpt lat="43.645706529717" lon="11.163499659892901"><ele>111.0</ele><time>2026-05-01T10:26:30Z</time></trkpt><trkpt lat="43.64573256509429" lon="11.163684548991602"><ele>111.0</ele><time>2026-05-01T10:26:31Z</time></trkpt><trkpt lat="43.645757787497914" lon="11.163853733953193"><ele>111.0</ele><time>2026-05-01T10:26:32Z</time></trkpt><trkpt lat="43.64578516480261" lon="11.164012505834167"><ele>111.0</ele><time>2026-05-01T10:26:33Z</time></trkpt><trkpt lat="43.645805736391154" lon="11.164174459844839"><ele>111.0</ele><time>2026-05-01T10:26:34Z</time></trkpt><trkpt lat="43.64582220176582" lon="11.164338090877452"><ele>111.75</ele><time>2026-05-01T10:26:35Z</time></trkpt><trkpt lat="43.645824353273824" lon="11.16449946357461"><ele>112.5</ele><time>2026-05-01T10:26:36Z</time></trkpt><trkpt lat="43.64581333666994" lon="11.164651491087534"><ele>113.25</ele><time>2026-05-01T10:26:37Z</time></trkpt><trkpt lat="43.645794720981044" lon="11.164802689785397"><ele>114.0</ele><time>2026-05-01T10:26:38Z</time></trkpt><trkpt lat="43.64575769084728" lon="11.164952517467915"><ele>115.0</ele><time>2026-05-01T10:26:39Z</time></trkpt><trkpt lat="43.64571110879824" lon="11.165095608229628"><ele>116.0</ele><time>2026-05-01T10:26:40Z</time></trkpt><trkpt lat="43.6456564008671" lon="11.165226574149914"><ele>117.0</ele><time>2026-05-01T10:26:41Z</time></trkpt><trkpt lat="43.645587005813155" lon="11.165353529785381"><ele>118.0</ele><time>2026-05-01T10:26:42Z</time></trkpt><trkpt lat="43.64551769439956" lon="11.165481695418645"><ele>118.0</ele><time>2026-05-01T10:26:43Z</time></trkpt><trkpt lat="43.645449199367846" lon="11.165611612361271"><ele>118.00000000000001</ele><time>2026-05-01T10:26:44Z</time></trkpt><trkpt lat="43.64539631155704" lon="11.165732504194736"><ele>118.00000000000001</ele><time>2026-05-01T10:26:45Z</time></trkpt><trkpt lat="43.64535691950431" lon="11.165873614458631"><ele>118.0</ele><time>2026-05-01T10:26:46Z</time></trkpt><trkpt lat="43.64533502243394" lon="11.16602556095343"><ele>118.0</ele><time>2026-05-01T10:26:47Z</time></trkpt><trkpt lat="43.64532986449932" lon="11.166184771646979"><ele>119.80000000000001</ele><time>2026-05-01T10:26:48Z</time></trkpt><trkpt lat="43.645331914488" lon="11.166335798538107"><ele>121.60000000000001</ele><time>2026-05-01T10:26:49Z</time></trkpt><trkpt lat="43.6453310396395" lon="11.166479054023007"><ele>123.39999999999999</ele><time>2026-05-01T10:26:50Z</time></trkpt><trkpt lat="43.64533229797199" lon="11.166634427640199"><ele>125.19999999999999</ele><time>2026-05-01T10:26:51Z</time></trkpt><trkpt lat="43.64533635383398" lon="11.166791620863133"><ele>127.0</ele><time>2026-05-01T10:26:52Z</time></trkpt><trkpt lat="43.64533669671" lon="11.166947020314497"><ele>128.25</ele><time>2026-05-01T10:26:53Z</time></trkpt><trkpt lat="43.64533022592197" lon="11.16710204754175"><ele>129.5</ele><time>2026-05-01T10:26:54Z</time></trkpt><trkpt lat="43.645326832367815" lon="11.167259946852548"><ele>130.75</ele><time>2026-05-01T10:26:55Z</time></trkpt><trkpt lat="43.64532622344528" lon="11.16741828064742"><ele>132.0</ele><time>2026-05-01T10:26:56Z</time></trkpt><trkpt lat="43.6453279308214" lon="11.167575839737081"><ele>132.25</ele><time>2026-05-01T10:26:57Z</time></trkpt><trkpt lat="43.64532606835551" lon="11.167731765324634"><ele>132.5</ele><time>2026-05-01T10:26:58Z</time></trkpt><trkpt lat="43.64531553648088" lon="11.167887844271199"><ele>132.75</ele><time>2026-05-01T10:26:59Z</time></trkpt><trkpt lat="43.6452935183182" lon="11.16804483771638"><ele>133.0</ele><time>2026-05-01T10:27:00Z</time></trkpt><trkpt lat="43.645259933880396" lon="11.168200753164792"><ele>134.0</ele><time>2026-05-01T10:27:01Z</time></trkpt><trkpt lat="43.645221972177765" lon="11.168350756798176"><ele>135.0</ele><time>2026-05-01T10:27:02Z</time></trkpt><trkpt lat="43.64517057833743" lon="11.168495493023979"><ele>136.0</ele><time>2026-05-01T10:27:03Z</time></trkpt><trkpt lat="43.645113982726066" lon="11.168632476154576"><ele>137.0</ele><time>2026-05-01T10:27:04Z</time></trkpt><trkpt lat="43.64504636660005" lon="11.168759720289776"><ele>137.0</ele><time>2026-05-01T10:27:05Z</time></trkpt><trkpt lat="43.644968599237906" lon="11.168885142487632"><ele>137.0</ele><time>2026-05-01T10:27:06Z</time></trkpt><trkpt lat="43.64489338740269" lon="11.169012316382585"><ele>137.0</ele><time>2026-05-01T10:27:07Z</time></trkpt><trkpt lat="43.64481368357741" lon="11.16913910033781"><ele>137.0</ele><time>2026-05-01T10:27:08Z</time></trkpt><trkpt lat="43.64473566158133" lon="11.169264805528782"><ele>137.5</ele><time>2026-05-01T10:27:09Z</time></trkpt><trkpt lat="43.644658547521914" lon="11.169388091863501"><ele>138.0</ele><time>2026-05-01T10:27:10Z</time></trkpt><trkpt lat="43.64458317568231" lon="11.16951038421242"><ele>138.5</ele><time>2026-05-01T10:27:11Z</time></trkpt><trkpt lat="43.644506269986856" lon="11.169632831229098"><ele>139.0</ele><time>2026-05-01T10:27:12Z</time></trkpt><trkpt lat="43.644426221010534" lon="11.169753778978864"><ele>140.25</ele><time>2026-05-01T10:27:13Z</time></trkpt><trkpt lat="43.644341356633426" lon="11.16987022003622"><ele>141.5</ele><time>2026-05-01T10:27:14Z</time></trkpt><trkpt lat="43.64425245571211" lon="11.169985664259741"><ele>142.75</ele><time>2026-05-01T10:27:15Z</time></trkpt><trkpt lat="43.644161395504696" lon="11.170109115125541"><ele>144.0</ele><time>2026-05-01T10:27:16Z</time></trkpt><trkpt lat="43.64406609099603" lon="11.170229607087018"><ele>144.0</ele><time>2026-05-01T10:27:17Z</time></trkpt><trkpt lat="43.64396073894571" lon="11.170337742666193"><ele>144.0</ele><time>2026-05-01T10:27:18Z</time></trkpt><trkpt lat="43.643859714564705" lon="11.170434537091632"><ele>144.0</ele><time>2026-05-01T10:27:19Z</time></trkpt><trkpt lat="43.64375967704547" lon="11.170528534293883"><ele>144.0</ele><time>2026-05-01T10:27:20Z</time></trkpt><trkpt lat="43.64366020361767" lon="11.170625923931063"><ele>145.75</ele><time>2026-05-01T10:27:21Z</time></trkpt><trkpt lat="43.643558074208954" lon="11.170727701047893"><ele>147.5</ele><time>2026-05-01T10:27:22Z</time></trkpt><trkpt lat="43.64344972053055" lon="11.170828577594742"><ele>149.25</ele><time>2026-05-01T10:27:23Z</time></trkpt><trkpt lat="43.64333867493603" lon="11.17093771373842"><ele>151.0</ele><time>2026-05-01T10:27:24Z</time></trkpt><trkpt lat="43.64322223705916" lon="11.171048263801605"><ele>151.0</ele><time>2026-05-01T10:27:25Z</time></trkpt><trkpt lat="43.643102462705876" lon="11.1711603988463"><ele>151.0</ele><time>2026-05-01T10:27:26Z</time></trkpt><trkpt lat="43.64298848672758" lon="11.171267544647703"><ele>151.0</ele><time>2026-05-01T10:27:27Z</time></trkpt><trkpt lat="43.64287700376117" lon="11.171375429255487"><ele>151.0</ele><time>2026-05-01T10:27:28Z</time></trkpt><trkpt lat="43.642769152686476" lon="11.171481361425545"><ele>149.75</ele><time>2026-05-01T10:27:29Z</time></trkpt><trkpt lat="43.64266700718745" lon="11.17157447074875"><ele>148.5</ele><time>2026-05-01T10:27:30Z</time></trkpt><trkpt lat="43.64256608064373" lon="11.17166098573411"><ele>147.25</ele><time>2026-05-01T10:27:31Z</time></trkpt><trkpt lat="43.64245566886156" lon="11.171734521620714"><ele>146.0</ele><time>2026-05-01T10:27:32Z</time></trkpt><trkpt lat="43.64234394268167" lon="11.171814978111616"><ele>146.0</ele><time>2026-05-01T10:27:33Z</time></trkpt><trkpt lat="43.64222080428653" lon="11.171875524963143"><ele>146.0</ele><time>2026-05-01T10:27:34Z</time></trkpt><trkpt lat="43.64207636117014" lon="11.171882059225057"><ele>146.0</ele><time>2026-05-01T10:27:35Z</time></trkpt><trkpt lat="43.64194043763183" lon="11.171848195358299"><ele>146.0</ele><time>2026-05-01T10:27:36Z</time></trkpt><trkpt lat="43.641806582117034" lon="11.17184307676139"><ele>144.5</ele><time>2026-05-01T10:27:37Z</time></trkpt><trkpt lat="43.64166754835524" lon="11.171825287490368"><ele>143.0</ele><time>2026-05-01T10:27:38Z</time></trkpt><trkpt lat="43.641518867842876" lon="11.171794420538495"><ele>141.5</ele><time>2026-05-01T10:27:39Z</time></trkpt><trkpt lat="43.64136603151382" lon="11.171757948707684"><ele>140.0</ele><time>2026-05-01T10:27:40Z</time></trkpt><trkpt lat="43.64120069921155" lon="11.171720274017757"><ele>138.0</ele><time>2026-05-01T10:27:41Z</time></trkpt><trkpt lat="43.641038401085375" lon="11.171673953016242"><ele>136.0</ele><time>2026-05-01T10:27:42Z</time></trkpt><trkpt lat="43.64088476568727" lon="11.171626951009612"><ele>134.0</ele><time>2026-05-01T10:27:43Z</time></trkpt><trkpt lat="43.640740590969806" lon="11.17158763655161"><ele>134.0</ele><time>2026-05-01T10:27:44Z</time></trkpt><trkpt lat="43.64060767715299" lon="11.171564216202999"><ele>134.0</ele><time>2026-05-01T10:27:45Z</time></trkpt><trkpt lat="43.640483303603496" lon="11.171556015725358"><ele>134.0</ele><time>2026-05-01T10:27:46Z</time></trkpt><trkpt lat="43.64036100100225" lon="11.171575689195624"><ele>134.0</ele><time>2026-05-01T10:27:47Z</time></trkpt><trkpt lat="43.64024452040534" lon="11.171610030809322"><ele>133.25</ele><time>2026-05-01T10:27:48Z</time></trkpt><trkpt lat="43.64012469446614" lon="11.171680021991932"><ele>132.5</ele><time>2026-05-01T10:27:49Z</time></trkpt><trkpt lat="43.640003923168564" lon="11.1717766733395"><ele>131.75</ele><time>2026-05-01T10:27:50Z</time></trkpt><trkpt lat="43.63988423986224" lon="11.17189694037657"><ele>131.0</ele><time>2026-05-01T10:27:51Z</time></trkpt><trkpt lat="43.63976706168128" lon="11.17203298064076"><ele>131.0</ele><time>2026-05-01T10:27:52Z</time></trkpt><trkpt lat="43.63964984507797" lon="11.172170138171007"><ele>131.0</ele><time>2026-05-01T10:27:53Z</time></trkpt><trkpt lat="43.63953251350692" lon="11.172305766208476"><ele>131.0</ele><time>2026-05-01T10:27:54Z</time></trkpt><trkpt lat="43.63941019050008" lon="11.172441570854808"><ele>130.66666666666666</ele><time>2026-05-01T10:27:55Z</time></trkpt><trkpt lat="43.639287729452825" lon="11.172580710209875"><ele>130.33333333333334</ele><time>2026-05-01T10:27:56Z</time></trkpt><trkpt lat="43.63916552538694" lon="11.172719946110488"><ele>130.0</ele><time>2026-05-01T10:27:57Z</time></trkpt><trkpt lat="43.63904541993207" lon="11.172859465893008"><ele>130.0</ele><time>2026-05-01T10:27:58Z</time></trkpt><trkpt lat="43.63892285193302" lon="11.17300149518583"><ele>130.0</ele><time>2026-05-01T10:27:59Z</time></trkpt><trkpt lat="43.638802232903124" lon="11.17314018182765"><ele>130.0</ele><time>2026-05-01T10:28:00Z</time></trkpt><trkpt lat="43.63868352202958" lon="11.1732618034193"><ele>130.0</ele><time>2026-05-01T10:28:01Z</time></trkpt><trkpt lat="43.63857040708084" lon="11.173379769819498"><ele>130.0</ele><time>2026-05-01T10:28:02Z</time></trkpt><trkpt lat="43.63846283574275" lon="11.173507169342548"><ele>130.0</ele><time>2026-05-01T10:28:03Z</time></trkpt><trkpt lat="43.63835794181003" lon="11.173648567768659"><ele>130.0</ele><time>2026-05-01T10:28:04Z</time></trkpt><trkpt lat="43.63825515226222" lon="11.173796658768437"><ele>130.0</ele><time>2026-05-01T10:28:05Z</time></trkpt><trkpt lat="43.63814808576341" lon="11.17395096224489"><ele>130.0</ele><time>2026-05-01T10:28:06Z</time></trkpt><trkpt lat="43.63804335756379" lon="11.174097433604347"><ele>130.0</ele><time>2026-05-01T10:28:07Z</time></trkpt><trkpt lat="43.63794066731555" lon="11.174229743061185"><ele>130.0</ele><time>2026-05-01T10:28:08Z</time></trkpt><trkpt lat="43.63783237281733" lon="11.17435575832877"><ele>129.25</ele><time>2026-05-01T10:28:09Z</time></trkpt><trkpt lat="43.63772097444774" lon="11.174474734737217"><ele>128.5</ele><time>2026-05-01T10:28:10Z</time></trkpt><trkpt lat="43.63761098342168" lon="11.174602474591028"><ele>127.75</ele><time>2026-05-01T10:28:11Z</time></trkpt><trkpt lat="43.63750650328489" lon="11.17474634219583"><ele>127.0</ele><time>2026-05-01T10:28:12Z</time></trkpt><trkpt lat="43.63740626044635" lon="11.174904413393648"><ele>127.0</ele><time>2026-05-01T10:28:13Z</time></trkpt><trkpt lat="43.637306011220254" lon="11.175061610510769"><ele>127.0</ele><time>2026-05-01T10:28:14Z</time></trkpt><trkpt lat="43.637209912179294" lon="11.175207213414321"><ele>127.0</ele><time>2026-05-01T10:28:15Z</time></trkpt><trkpt lat="43.637120939125545" lon="11.175345587902484"><ele>127.0</ele><time>2026-05-01T10:28:16Z</time></trkpt><trkpt lat="43.63703749242038" lon="11.175468628865532"><ele>126.5</ele><time>2026-05-01T10:28:17Z</time></trkpt><trkpt lat="43.6369579579198" lon="11.17558473126597"><ele>126.0</ele><time>2026-05-01T10:28:18Z</time></trkpt><trkpt lat="43.636873754675456" lon="11.175697880666082"><ele>125.5</ele><time>2026-05-01T10:28:19Z</time></trkpt><trkpt lat="43.636780113061896" lon="11.175808358869308"><ele>125.0</ele><time>2026-05-01T10:28:20Z</time></trkpt><trkpt lat="43.63668252745274" lon="11.175917191887372"><ele>125.0</ele><time>2026-05-01T10:28:21Z</time></trkpt><trkpt lat="43.63658351033728" lon="11.176026082262814"><ele>125.0</ele><time>2026-05-01T10:28:22Z</time></trkpt><trkpt lat="43.636488898952464" lon="11.176128193647411"><ele>125.0</ele><time>2026-05-01T10:28:23Z</time></trkpt><trkpt lat="43.63639166331392" lon="11.176232972309698"><ele>125.0</ele><time>2026-05-01T10:28:24Z</time></trkpt><trkpt lat="43.63629267967989" lon="11.176334492974132"><ele>125.0</ele><time>2026-05-01T10:28:25Z</time></trkpt><trkpt lat="43.63619837015938" lon="11.176434917564446"><ele>125.0</ele><time>2026-05-01T10:28:26Z</time></trkpt><trkpt lat="43.63611114035976" lon="11.176529883743507"><ele>125.0</ele><time>2026-05-01T10:28:27Z</time></trkpt><trkpt lat="43.63602012397084" lon="11.17662551299143"><ele>125.0</ele><time>2026-05-01T10:28:28Z</time></trkpt><trkpt lat="43.635929501476475" lon="11.176723109923897"><ele>125.0</ele><time>2026-05-01T10:28:29Z</time></trkpt><trkpt lat="43.6358422254854" lon="11.176821566670636"><ele>125.0</ele><time>2026-05-01T10:28:30Z</time></trkpt><trkpt lat="43.63575183168383" lon="11.176923292269667"><ele>125.0</ele><time>2026-05-01T10:28:31Z</time></trkpt><trkpt lat="43.6356622123288" lon="11.177032760638928"><ele>125.0</ele><time>2026-05-01T10:28:32Z</time></trkpt><trkpt lat="43.63556847771504" lon="11.177139230597787"><ele>125.0</ele><time>2026-05-01T10:28:33Z</time></trkpt><trkpt lat="43.63547422020434" lon="11.177244593252677"><ele>125.0</ele><time>2026-05-01T10:28:34Z</time></trkpt><trkpt lat="43.63537732043717" lon="11.177349936509163"><ele>125.0</ele><time>2026-05-01T10:28:35Z</time></trkpt><trkpt lat="43.63528994712976" lon="11.177452599178055"><ele>125.0</ele><time>2026-05-01T10:28:36Z</time></trkpt><trkpt lat="43.63520692402083" lon="11.177554082526521"><ele>125.2</ele><time>2026-05-01T10:28:37Z</time></trkpt><trkpt lat="43.63512897896076" lon="11.177662667837353"><ele>125.4</ele><time>2026-05-01T10:28:38Z</time></trkpt><trkpt lat="43.635066419440506" lon="11.177783786228382"><ele>125.6</ele><time>2026-05-01T10:28:39Z</time></trkpt><trkpt lat="43.63501442533304" lon="11.17791770633122"><ele>125.8</ele><time>2026-05-01T10:28:40Z</time></trkpt><trkpt lat="43.634978039669036" lon="11.178059463519311"><ele>126.0</ele><time>2026-05-01T10:28:41Z</time></trkpt><trkpt lat="43.634951479092926" lon="11.178202743625333"><ele>126.33333333333333</ele><time>2026-05-01T10:28:42Z</time></trkpt><trkpt lat="43.63492420459543" lon="11.17832918951883"><ele>126.66666666666666</ele><time>2026-05-01T10:28:43Z</time></trkpt><trkpt lat="43.63489388816867" lon="11.178434404909924"><ele>127.0</ele><time>2026-05-01T10:28:44Z</time></trkpt><trkpt lat="43.634850029338146" lon="11.17851780779837"><ele>127.33333333333333</ele><time>2026-05-01T10:28:45Z</time></trkpt><trkpt lat="43.634801450375036" lon="11.178574850962375"><ele>127.66666666666666</ele><time>2026-05-01T10:28:46Z</time></trkpt><trkpt lat="43.63473855367341" lon="11.17862846570831"><ele>128.0</ele><time>2026-05-01T10:28:47Z</time></trkpt><trkpt lat="43.634653178147104" lon="11.178671672247079"><ele>128.0</ele><time>2026-05-01T10:28:48Z</time></trkpt><trkpt lat="43.63455857220354" lon="11.178709804527887"><ele>128.0</ele><time>2026-05-01T10:28:49Z</time></trkpt><trkpt lat="43.63445976840631" lon="11.178768423248139"><ele>128.0</ele><time>2026-05-01T10:28:50Z</time></trkpt><trkpt lat="43.63436124168643" lon="11.17883462829396"><ele>128.0</ele><time>2026-05-01T10:28:51Z</time></trkpt><trkpt lat="43.634251479433715" lon="11.178901608326935"><ele>128.0</ele><time>2026-05-01T10:28:52Z</time></trkpt><trkpt lat="43.63414111510888" lon="11.178972049144987"><ele>128.5</ele><time>2026-05-01T10:28:53Z</time></trkpt><trkpt lat="43.63403118732416" lon="11.179045912310366"><ele>129.0</ele><time>2026-05-01T10:28:54Z</time></trkpt><trkpt lat="43.633924275334145" lon="11.17911531996888"><ele>129.5</ele><time>2026-05-01T10:28:55Z</time></trkpt><trkpt lat="43.63381854624634" lon="11.179191938278235"><ele>130.0</ele><time>2026-05-01T10:28:56Z</time></trkpt><trkpt lat="43.63371626840693" lon="11.17927823935333"><ele>129.75</ele><time>2026-05-01T10:28:57Z</time></trkpt><trkpt lat="43.63361766605871" lon="11.179371074826387"><ele>129.5</ele><time>2026-05-01T10:28:58Z</time></trkpt><trkpt lat="43.633521138666424" lon="11.179473351308493"><ele>129.25</ele><time>2026-05-01T10:28:59Z</time></trkpt><trkpt lat="43.633421858647104" lon="11.179579557763661"><ele>129.0</ele><time>2026-05-01T10:29:00Z</time></trkpt><trkpt lat="43.633320654992175" lon="11.179687756498979"><ele>129.0</ele><time>2026-05-01T10:29:01Z</time></trkpt><trkpt lat="43.63322233644847" lon="11.179797360538025"><ele>129.0</ele><time>2026-05-01T10:29:02Z</time></trkpt><trkpt lat="43.63311841638961" lon="11.179903943817557"><ele>129.0</ele><time>2026-05-01T10:29:03Z</time></trkpt><trkpt lat="43.63300585439807" lon="11.18001030319732"><ele>129.0</ele><time>2026-05-01T10:29:04Z</time></trkpt><trkpt lat="43.63287715061485" lon="11.180097158449163"><ele>129.0</ele><time>2026-05-01T10:29:05Z</time></trkpt><trkpt lat="43.632741671577215" lon="11.180173165499351"><ele>129.0</ele><time>2026-05-01T10:29:06Z</time></trkpt><trkpt lat="43.63260777273998" lon="11.180246059747478"><ele>129.0</ele><time>2026-05-01T10:29:07Z</time></trkpt><trkpt lat="43.63247384721849" lon="11.180321962784248"><ele>129.0</ele><time>2026-05-01T10:29:08Z</time></trkpt><trkpt lat="43.63233920051974" lon="11.180402582368247"><ele>129.0</ele><time>2026-05-01T10:29:09Z</time></trkpt><trkpt lat="43.63220010670037" lon="11.180473486965392"><ele>129.0</ele><time>2026-05-01T10:29:10Z</time></trkpt><trkpt lat="43.6320640612934" lon="11.180545863677299"><ele>129.0</ele><time>2026-05-01T10:29:11Z</time></trkpt><trkpt lat="43.631939716714314" lon="11.180614688661004"><ele>129.0</ele><time>2026-05-01T10:29:12Z</time></trkpt><trkpt lat="43.631822921958005" lon="11.180688075690117"><ele>128.75</ele><time>2026-05-01T10:29:13Z</time></trkpt><trkpt lat="43.63169972199558" lon="11.18076707721058"><ele>128.5</ele><time>2026-05-01T10:29:14Z</time></trkpt><trkpt lat="43.63157069243799" lon="11.180836964191412"><ele>128.25</ele><time>2026-05-01T10:29:15Z</time></trkpt><trkpt lat="43.63144572592868" lon="11.180915339466061"><ele>128.0</ele><time>2026-05-01T10:29:16Z</time></trkpt><trkpt lat="43.6313177307612" lon="11.180984933850434"><ele>128.0</ele><time>2026-05-01T10:29:17Z</time></trkpt><trkpt lat="43.63119810312694" lon="11.18104253520522"><ele>128.0</ele><time>2026-05-01T10:29:18Z</time></trkpt><trkpt lat="43.63108131639916" lon="11.181088437519639"><ele>128.0</ele><time>2026-05-01T10:29:19Z</time></trkpt><trkpt lat="43.630968266829456" lon="11.181129366119745"><ele>128.0</ele><time>2026-05-01T10:29:20Z</time></trkpt><trkpt lat="43.630848486722414" lon="11.181169264082937"><ele>128.0</ele><time>2026-05-01T10:29:21Z</time></trkpt><trkpt lat="43.63072951427141" lon="11.181219847811994"><ele>128.0</ele><time>2026-05-01T10:29:22Z</time></trkpt><trkpt lat="43.630603134943605" lon="11.181272149737957"><ele>128.0</ele><time>2026-05-01T10:29:23Z</time></trkpt><trkpt lat="43.63047834277585" lon="11.181321266718008"><ele>128.0</ele><time>2026-05-01T10:29:24Z</time></trkpt><trkpt lat="43.63035256967703" lon="11.18137356385922"><ele>128.25</ele><time>2026-05-01T10:29:25Z</time></trkpt><trkpt lat="43.63023845326597" lon="11.181426590284328"><ele>128.5</ele><time>2026-05-01T10:29:26Z</time></trkpt><trkpt lat="43.63012213350361" lon="11.181487857235613"><ele>128.75</ele><time>2026-05-01T10:29:27Z</time></trkpt><trkpt lat="43.630005608164836" lon="11.18156022691823"><ele>129.0</ele><time>2026-05-01T10:29:28Z</time></trkpt><trkpt lat="43.62989047995525" lon="11.181641883946403"><ele>129.25</ele><time>2026-05-01T10:29:29Z</time></trkpt><trkpt lat="43.62978456257566" lon="11.181726152082428"><ele>129.5</ele><time>2026-05-01T10:29:30Z</time></trkpt><trkpt lat="43.629676054235254" lon="11.181809025043107"><ele>129.75</ele><time>2026-05-01T10:29:31Z</time></trkpt><trkpt lat="43.62956384662497" lon="11.18187759009877"><ele>130.0</ele><time>2026-05-01T10:29:32Z</time></trkpt><trkpt lat="43.62944598244847" lon="11.181929118267675"><ele>130.0</ele><time>2026-05-01T10:29:33Z</time></trkpt><trkpt lat="43.629323253342896" lon="11.18196044302526"><ele>130.0</ele><time>2026-05-01T10:29:34Z</time></trkpt><trkpt lat="43.62920111488012" lon="11.181977836786528"><ele>130.0</ele><time>2026-05-01T10:29:35Z</time></trkpt><trkpt lat="43.629081789966335" lon="11.181993141987427"><ele>130.0</ele><time>2026-05-01T10:29:36Z</time></trkpt><trkpt lat="43.62897375337895" lon="11.182016521446272"><ele>130.0</ele><time>2026-05-01T10:29:37Z</time></trkpt><trkpt lat="43.6288696248312" lon="11.182050566312506"><ele>130.0</ele><time>2026-05-01T10:29:38Z</time></trkpt><trkpt lat="43.62876523694914" lon="11.182092820334724"><ele>130.0</ele><time>2026-05-01T10:29:39Z</time></trkpt><trkpt lat="43.62866592600765" lon="11.182140643975728"><ele>130.0</ele><time>2026-05-01T10:29:40Z</time></trkpt><trkpt lat="43.62857130279489" lon="11.182205982827025"><ele>130.0</ele><time>2026-05-01T10:29:41Z</time></trkpt><trkpt lat="43.628484149665894" lon="11.182295773223418"><ele>130.5</ele><time>2026-05-01T10:29:42Z</time></trkpt><trkpt lat="43.62840446989218" lon="11.182390003104326"><ele>131.0</ele><time>2026-05-01T10:29:43Z</time></trkpt><trkpt lat="43.62833565242372" lon="11.182482653130727"><ele>131.5</ele><time>2026-05-01T10:29:44Z</time></trkpt><trkpt lat="43.628274069482046" lon="11.182561470735651"><ele>132.0</ele><time>2026-05-01T10:29:45Z</time></trkpt><trkpt lat="43.628224111487874" lon="11.182625800424459"><ele>132.5</ele><time>2026-05-01T10:29:46Z</time></trkpt><trkpt lat="43.62815576722077" lon="11.182708594772807"><ele>133.0</ele><time>2026-05-01T10:29:48Z</time></trkpt><trkpt lat="43.62811450472318" lon="11.182778030919415"><ele>133.0</ele><time>2026-05-01T10:30:10Z</time></trkpt><trkpt lat="43.62809681205858" lon="11.182876286369767"><ele>133.0</ele><time>2026-05-01T10:33:26Z</time></trkpt><trkpt lat="43.62816448735853" lon="11.182884778203919"><ele>133.0</ele><time>2026-05-01T10:33:28Z</time></trkpt><trkpt lat="43.62821712285663" lon="11.182803352876501"><ele>133.0</ele><time>2026-05-01T10:33:30Z</time></trkpt><trkpt lat="43.62825217888251" lon="11.18271933511838"><ele>133.0</ele><time>2026-05-01T10:33:33Z</time></trkpt><trkpt lat="43.62826941984269" lon="11.18261357764119"><ele>133.0</ele><time>2026-05-01T10:33:36Z</time></trkpt><trkpt lat="43.62820853410361" lon="11.182423698187815"><ele>133.0</ele><time>2026-05-01T10:33:38Z</time></trkpt><trkpt lat="43.62813461814858" lon="11.18236805286234"><ele>133.0</ele><time>2026-05-01T10:33:39Z</time></trkpt><trkpt lat="43.6280381889275" lon="11.182329372556204"><ele>133.0</ele><time>2026-05-01T10:33:40Z</time></trkpt><trkpt lat="43.62793669921717" lon="11.18230729731315"><ele>133.0</ele><time>2026-05-01T10:33:41Z</time></trkpt><trkpt lat="43.62782111717949" lon="11.182299830000597"><ele>133.0</ele><time>2026-05-01T10:33:42Z</time></trkpt><trkpt lat="43.62769493841061" lon="11.182297846649556"><ele>132.5</ele><time>2026-05-01T10:33:43Z</time></trkpt><trkpt lat="43.627560432268936" lon="11.182295969508658"><ele>132.0</ele><time>2026-05-01T10:33:44Z</time></trkpt><trkpt lat="43.62742334553442" lon="11.182302179591918"><ele>131.5</ele><time>2026-05-01T10:33:45Z</time></trkpt><trkpt lat="43.62728440178893" lon="11.182304206335816"><ele>131.0</ele><time>2026-05-01T10:33:46Z</time></trkpt><trkpt lat="43.62713984744863" lon="11.182308156572486"><ele>131.0</ele><time>2026-05-01T10:33:47Z</time></trkpt><trkpt lat="43.627006264219986" lon="11.182315793679894"><ele>131.0</ele><time>2026-05-01T10:33:48Z</time></trkpt><trkpt lat="43.62688456595783" lon="11.182322330650361"><ele>131.0</ele><time>2026-05-01T10:33:49Z</time></trkpt><trkpt lat="43.6267564751176" lon="11.182320050507252"><ele>131.0</ele><time>2026-05-01T10:33:50Z</time></trkpt><trkpt lat="43.6266324180704" lon="11.182321880817451"><ele>130.8</ele><time>2026-05-01T10:33:51Z</time></trkpt><trkpt lat="43.62652126966052" lon="11.182330736568163"><ele>130.6</ele><time>2026-05-01T10:33:52Z</time></trkpt><trkpt lat="43.626420478277396" lon="11.18236870615317"><ele>130.4</ele><time>2026-05-01T10:33:53Z</time></trkpt><trkpt lat="43.626322862881864" lon="11.182440097668097"><ele>130.2</ele><time>2026-05-01T10:33:54Z</time></trkpt><trkpt lat="43.62623597403918" lon="11.182535196722812"><ele>130.0</ele><time>2026-05-01T10:33:55Z</time></trkpt><trkpt lat="43.626151276497225" lon="11.182657477448355"><ele>131.75</ele><time>2026-05-01T10:33:56Z</time></trkpt><trkpt lat="43.62606443357221" lon="11.182790778554724"><ele>133.5</ele><time>2026-05-01T10:33:57Z</time></trkpt><trkpt lat="43.62596710364983" lon="11.182903852058413"><ele>135.25</ele><time>2026-05-01T10:33:58Z</time></trkpt><trkpt lat="43.62587097169719" lon="11.182996945039402"><ele>137.0</ele><time>2026-05-01T10:33:59Z</time></trkpt><trkpt lat="43.625775964388914" lon="11.18308074027151"><ele>137.0</ele><time>2026-05-01T10:34:00Z</time></trkpt><trkpt lat="43.62567141753223" lon="11.18316092421312"><ele>137.0</ele><time>2026-05-01T10:34:01Z</time></trkpt><trkpt lat="43.62555734091856" lon="11.183229181729905"><ele>137.0</ele><time>2026-05-01T10:34:02Z</time></trkpt><trkpt lat="43.62543603088741" lon="11.183286834977835"><ele>137.0</ele><time>2026-05-01T10:34:03Z</time></trkpt><trkpt lat="43.62531531501417" lon="11.183338318077245"><ele>137.2</ele><time>2026-05-01T10:34:04Z</time></trkpt><trkpt lat="43.62520222893753" lon="11.183385851777071"><ele>137.39999999999998</ele><time>2026-05-01T10:34:05Z</time></trkpt><trkpt lat="43.6250877943713" lon="11.183429052401873"><ele>137.60000000000002</ele><time>2026-05-01T10:34:06Z</time></trkpt><trkpt lat="43.624979025918954" lon="11.183469975823405"><ele>137.8</ele><time>2026-05-01T10:34:07Z</time></trkpt><trkpt lat="43.624885036528006" lon="11.183511235701605"><ele>138.0</ele><time>2026-05-01T10:34:08Z</time></trkpt><trkpt lat="43.62480989828043" lon="11.183548754892621"><ele>138.0</ele><time>2026-05-01T10:34:09Z</time></trkpt><trkpt lat="43.624744962572436" lon="11.183580833488648"><ele>138.0</ele><time>2026-05-01T10:34:10Z</time></trkpt><trkpt lat="43.62466485137732" lon="11.183622193260973"><ele>138.0</ele><time>2026-05-01T10:34:11Z</time></trkpt><trkpt lat="43.62456764668187" lon="11.183675602086808"><ele>138.0</ele><time>2026-05-01T10:34:12Z</time></trkpt><trkpt lat="43.62445479360482" lon="11.183730044252675"><ele>138.0</ele><time>2026-05-01T10:34:13Z</time></trkpt><trkpt lat="43.624334145212934" lon="11.183794555634595"><ele>137.33333333333334</ele><time>2026-05-01T10:34:14Z</time></trkpt><trkpt lat="43.624198542745155" lon="11.1838618646357"><ele>136.66666666666669</ele><time>2026-05-01T10:34:15Z</time></trkpt><trkpt lat="43.62405841036938" lon="11.183938746340763"><ele>136.0</ele><time>2026-05-01T10:34:16Z</time></trkpt><trkpt lat="43.623908314792665" lon="11.184031410225497"><ele>136.33333333333334</ele><time>2026-05-01T10:34:17Z</time></trkpt><trkpt lat="43.62375536221458" lon="11.184124161846048"><ele>136.66666666666666</ele><time>2026-05-01T10:34:18Z</time></trkpt><trkpt lat="43.62359856317668" lon="11.184214756852743"><ele>137.0</ele><time>2026-05-01T10:34:19Z</time></trkpt><trkpt lat="43.623440521762284" lon="11.184304402538093"><ele>137.0</ele><time>2026-05-01T10:34:20Z</time></trkpt><trkpt lat="43.62327875376445" lon="11.184396235890905"><ele>137.0</ele><time>2026-05-01T10:34:21Z</time></trkpt><trkpt lat="43.62311304224324" lon="11.184493125202268"><ele>137.0</ele><time>2026-05-01T10:34:22Z</time></trkpt><trkpt lat="43.62294807671272" lon="11.184590542414083"><ele>136.33333333333331</ele><time>2026-05-01T10:34:23Z</time></trkpt><trkpt lat="43.62278448472461" lon="11.184684733420214"><ele>135.66666666666666</ele><time>2026-05-01T10:34:24Z</time></trkpt><trkpt lat="43.622621167553085" lon="11.184783462794408"><ele>135.0</ele><time>2026-05-01T10:34:25Z</time></trkpt><trkpt lat="43.62245842473818" lon="11.184876494948186"><ele>135.0</ele><time>2026-05-01T10:34:26Z</time></trkpt><trkpt lat="43.62229728220463" lon="11.184973628094939"><ele>135.0</ele><time>2026-05-01T10:34:27Z</time></trkpt><trkpt lat="43.622136312443146" lon="11.185068498410478"><ele>135.0</ele><time>2026-05-01T10:34:28Z</time></trkpt><trkpt lat="43.62198579079954" lon="11.185154631047343"><ele>135.0</ele><time>2026-05-01T10:34:29Z</time></trkpt><trkpt lat="43.62183989157102" lon="11.185237013269134"><ele>135.0</ele><time>2026-05-01T10:34:30Z</time></trkpt><trkpt lat="43.62169292340617" lon="11.185324367486963"><ele>135.0</ele><time>2026-05-01T10:34:31Z</time></trkpt><trkpt lat="43.62154715759378" lon="11.185413599614792"><ele>135.0</ele><time>2026-05-01T10:34:32Z</time></trkpt><trkpt lat="43.621401724208624" lon="11.18550180983634"><ele>135.0</ele><time>2026-05-01T10:34:33Z</time></trkpt><trkpt lat="43.62125456458033" lon="11.185592034033746"><ele>135.0</ele><time>2026-05-01T10:34:34Z</time></trkpt><trkpt lat="43.62110685471114" lon="11.185674910355633"><ele>135.33333333333334</ele><time>2026-05-01T10:34:35Z</time></trkpt><trkpt lat="43.62095868166534" lon="11.185762451434494"><ele>135.66666666666669</ele><time>2026-05-01T10:34:36Z</time></trkpt><trkpt lat="43.62080843605671" lon="11.18584774492311"><ele>136.0</ele><time>2026-05-01T10:34:37Z</time></trkpt><trkpt lat="43.620656560150806" lon="11.185931382427034"><ele>136.0</ele><time>2026-05-01T10:34:38Z</time></trkpt><trkpt lat="43.620504360056394" lon="11.186017611900601"><ele>136.0</ele><time>2026-05-01T10:34:39Z</time></trkpt><trkpt lat="43.62035255366603" lon="11.186105550357103"><ele>136.0</ele><time>2026-05-01T10:34:40Z</time></trkpt><trkpt lat="43.62020075153239" lon="11.18619302605402"><ele>135.66666666666669</ele><time>2026-05-01T10:34:41Z</time></trkpt><trkpt lat="43.620049989954374" lon="11.186283560439213"><ele>135.33333333333334</ele><time>2026-05-01T10:34:42Z</time></trkpt><trkpt lat="43.61989720787958" lon="11.186373080840493"><ele>135.0</ele><time>2026-05-01T10:34:43Z</time></trkpt><trkpt lat="43.61974666270391" lon="11.186459433680632"><ele>135.66666666666666</ele><time>2026-05-01T10:34:44Z</time></trkpt><trkpt lat="43.619595568817466" lon="11.18654625437193"><ele>136.33333333333331</ele><time>2026-05-01T10:34:45Z</time></trkpt><trkpt lat="43.61944428037007" lon="11.186634957955434"><ele>137.0</ele><time>2026-05-01T10:34:46Z</time></trkpt><trkpt lat="43.6192921569714" lon="11.186728246366714"><ele>137.0</ele><time>2026-05-01T10:34:47Z</time></trkpt><trkpt lat="43.619137344108736" lon="11.186818150607069"><ele>137.0</ele><time>2026-05-01T10:34:48Z</time></trkpt><trkpt lat="43.61898360192638" lon="11.186902359035095"><ele>137.0</ele><time>2026-05-01T10:34:49Z</time></trkpt><trkpt lat="43.618832268267816" lon="11.186989929172583"><ele>137.0</ele><time>2026-05-01T10:34:50Z</time></trkpt><trkpt lat="43.618683637389" lon="11.187076326844085"><ele>137.0</ele><time>2026-05-01T10:34:51Z</time></trkpt><trkpt lat="43.61853245990646" lon="11.187162568314427"><ele>137.0</ele><time>2026-05-01T10:34:52Z</time></trkpt><trkpt lat="43.61837543988755" lon="11.187254837320891"><ele>137.33333333333331</ele><time>2026-05-01T10:34:53Z</time></trkpt><trkpt lat="43.61821987346689" lon="11.187336096216375"><ele>137.66666666666666</ele><time>2026-05-01T10:34:54Z</time></trkpt><trkpt lat="43.6180636456998" lon="11.187432231319379"><ele>138.0</ele><time>2026-05-01T10:34:55Z</time></trkpt><trkpt lat="43.61791537208947" lon="11.187518511000018"><ele>139.0</ele><time>2026-05-01T10:34:56Z</time></trkpt><trkpt lat="43.61776817788198" lon="11.18760044982236"><ele>140.0</ele><time>2026-05-01T10:34:57Z</time></trkpt><trkpt lat="43.617616820522805" lon="11.187683463821266"><ele>141.0</ele><time>2026-05-01T10:34:58Z</time></trkpt><trkpt lat="43.61746399990823" lon="11.187771156973252"><ele>141.0</ele><time>2026-05-01T10:34:59Z</time></trkpt><trkpt lat="43.61730806203602" lon="11.1878654544097"><ele>141.0</ele><time>2026-05-01T10:35:00Z</time></trkpt><trkpt lat="43.61715052379113" lon="11.187961560588484"><ele>141.0</ele><time>2026-05-01T10:35:01Z</time></trkpt><trkpt lat="43.616993869213935" lon="11.18806483686769"><ele>140.66666666666666</ele><time>2026-05-01T10:35:02Z</time></trkpt><trkpt lat="43.616828833362845" lon="11.188159483665835"><ele>140.33333333333331</ele><time>2026-05-01T10:35:03Z</time></trkpt><trkpt lat="43.61666734749776" lon="11.188248971767667"><ele>140.0</ele><time>2026-05-01T10:35:04Z</time></trkpt><trkpt lat="43.616511663782" lon="11.188344947470329"><ele>140.66666666666666</ele><time>2026-05-01T10:35:05Z</time></trkpt><trkpt lat="43.616355887801156" lon="11.188431872059711"><ele>141.33333333333334</ele><time>2026-05-01T10:35:06Z</time></trkpt><trkpt lat="43.61620221505068" lon="11.188525228627736"><ele>142.0</ele><time>2026-05-01T10:35:07Z</time></trkpt><trkpt lat="43.616051145774485" lon="11.188614769052245"><ele>142.0</ele><time>2026-05-01T10:35:08Z</time></trkpt><trkpt lat="43.61590202192968" lon="11.188697705845698"><ele>142.0</ele><time>2026-05-01T10:35:09Z</time></trkpt><trkpt lat="43.61575119666782" lon="11.188788603155704"><ele>142.0</ele><time>2026-05-01T10:35:10Z</time></trkpt><trkpt lat="43.61560063628669" lon="11.188879442779534"><ele>142.0</ele><time>2026-05-01T10:35:11Z</time></trkpt><trkpt lat="43.61544658231483" lon="11.18896755946493"><ele>142.0</ele><time>2026-05-01T10:35:12Z</time></trkpt><trkpt lat="43.615287883547424" lon="11.18905996425127"><ele>142.0</ele><time>2026-05-01T10:35:13Z</time></trkpt><trkpt lat="43.61512671435418" lon="11.189156868983279"><ele>141.66666666666669</ele><time>2026-05-01T10:35:14Z</time></trkpt><trkpt lat="43.61496786372274" lon="11.1892490811085"><ele>141.33333333333334</ele><time>2026-05-01T10:35:15Z</time></trkpt><trkpt lat="43.61480345565042" lon="11.189342996069271"><ele>141.0</ele><time>2026-05-01T10:35:16Z</time></trkpt><trkpt lat="43.614636049162506" lon="11.189439570127616"><ele>141.0</ele><time>2026-05-01T10:35:17Z</time></trkpt><trkpt lat="43.61446972857414" lon="11.189535027799597"><ele>141.0</ele><time>2026-05-01T10:35:18Z</time></trkpt><trkpt lat="43.614304325120045" lon="11.18963358035512"><ele>141.0</ele><time>2026-05-01T10:35:19Z</time></trkpt><trkpt lat="43.614142814450744" lon="11.189732407730515"><ele>141.0</ele><time>2026-05-01T10:35:20Z</time></trkpt><trkpt lat="43.61398315847636" lon="11.189823454944289"><ele>141.0</ele><time>2026-05-01T10:35:21Z</time></trkpt><trkpt lat="43.61382274774442" lon="11.189913974368865"><ele>141.0</ele><time>2026-05-01T10:35:22Z</time></trkpt><trkpt lat="43.61366374280377" lon="11.190001424108232"><ele>142.0</ele><time>2026-05-01T10:35:23Z</time></trkpt><trkpt lat="43.61350287073516" lon="11.190076935112343"><ele>143.0</ele><time>2026-05-01T10:35:24Z</time></trkpt><trkpt lat="43.613342693684274" lon="11.1901501122412"><ele>144.0</ele><time>2026-05-01T10:35:25Z</time></trkpt><trkpt lat="43.61318658227406" lon="11.190219402576902"><ele>144.0</ele><time>2026-05-01T10:35:26Z</time></trkpt><trkpt lat="43.61302418323329" lon="11.190287414179776"><ele>144.0</ele><time>2026-05-01T10:35:27Z</time></trkpt><trkpt lat="43.61285538869734" lon="11.190353251856873"><ele>144.0</ele><time>2026-05-01T10:35:28Z</time></trkpt><trkpt lat="43.612683211459185" lon="11.19040787557648"><ele>143.66666666666666</ele><time>2026-05-01T10:35:29Z</time></trkpt><trkpt lat="43.61250929719626" lon="11.190460264490548"><ele>143.33333333333331</ele><time>2026-05-01T10:35:30Z</time></trkpt><trkpt lat="43.612328332867136" lon="11.190511018826575"><ele>143.0</ele><time>2026-05-01T10:35:31Z</time></trkpt><trkpt lat="43.612141578745465" lon="11.190556156807373"><ele>143.0</ele><time>2026-05-01T10:35:32Z</time></trkpt><trkpt lat="43.61195011011874" lon="11.190596722436435"><ele>143.0</ele><time>2026-05-01T10:35:33Z</time></trkpt><trkpt lat="43.61175937855225" lon="11.190635667596155"><ele>143.0</ele><time>2026-05-01T10:35:34Z</time></trkpt><trkpt lat="43.611569472807325" lon="11.190665310088479"><ele>143.0</ele><time>2026-05-01T10:35:35Z</time></trkpt><trkpt lat="43.61137863548943" lon="11.190693167565435"><ele>143.0</ele><time>2026-05-01T10:35:36Z</time></trkpt><trkpt lat="43.61118667621839" lon="11.190718202221353"><ele>143.0</ele><time>2026-05-01T10:35:37Z</time></trkpt><trkpt lat="43.61099376408149" lon="11.190742438234635"><ele>143.0</ele><time>2026-05-01T10:35:38Z</time></trkpt><trkpt lat="43.6108010551175" lon="11.190764421794212"><ele>143.0</ele><time>2026-05-01T10:35:39Z</time></trkpt><trkpt lat="43.61060895508217" lon="11.190788233517422"><ele>143.0</ele><time>2026-05-01T10:35:40Z</time></trkpt><trkpt lat="43.61041758887336" lon="11.190809555271837"><ele>143.33333333333331</ele><time>2026-05-01T10:35:41Z</time></trkpt><trkpt lat="43.61022726466956" lon="11.190826320242047"><ele>143.66666666666666</ele><time>2026-05-01T10:35:42Z</time></trkpt><trkpt lat="43.610034337191614" lon="11.190849705054829"><ele>144.0</ele><time>2026-05-01T10:35:43Z</time></trkpt><trkpt lat="43.60984138332261" lon="11.190875352176564"><ele>144.0</ele><time>2026-05-01T10:35:44Z</time></trkpt><trkpt lat="43.60965015597997" lon="11.190894049440326"><ele>144.0</ele><time>2026-05-01T10:35:45Z</time></trkpt><trkpt lat="43.60945960045007" lon="11.190908521012949"><ele>144.0</ele><time>2026-05-01T10:35:46Z</time></trkpt><trkpt lat="43.60927090357015" lon="11.190926298449101"><ele>145.0</ele><time>2026-05-01T10:35:47Z</time></trkpt><trkpt lat="43.60908073186794" lon="11.190946554160094"><ele>146.0</ele><time>2026-05-01T10:35:48Z</time></trkpt><trkpt lat="43.60888858722675" lon="11.190966061750776"><ele>147.0</ele><time>2026-05-01T10:35:49Z</time></trkpt><trkpt lat="43.60869156445472" lon="11.190992923597253"><ele>147.0</ele><time>2026-05-01T10:35:50Z</time></trkpt><trkpt lat="43.60849669451119" lon="11.191014374284855"><ele>147.0</ele><time>2026-05-01T10:35:51Z</time></trkpt><trkpt lat="43.60829907695724" lon="11.191038764245192"><ele>147.0</ele><time>2026-05-01T10:35:52Z</time></trkpt><trkpt lat="43.608104337234074" lon="11.191059604756758"><ele>147.0</ele><time>2026-05-01T10:35:53Z</time></trkpt><trkpt lat="43.60791042703528" lon="11.191082518403862"><ele>147.0</ele><time>2026-05-01T10:35:54Z</time></trkpt><trkpt lat="43.60771720427058" lon="11.191111320083673"><ele>147.0</ele><time>2026-05-01T10:35:55Z</time></trkpt><trkpt lat="43.607523807811795" lon="11.191129005063228"><ele>146.66666666666666</ele><time>2026-05-01T10:35:56Z</time></trkpt><trkpt lat="43.60732921096526" lon="11.191148101376477"><ele>146.33333333333331</ele><time>2026-05-01T10:35:57Z</time></trkpt><trkpt lat="43.60713780051836" lon="11.191168400129497"><ele>146.0</ele><time>2026-05-01T10:35:58Z</time></trkpt><trkpt lat="43.60694675445858" lon="11.191194662432444"><ele>146.0</ele><time>2026-05-01T10:35:59Z</time></trkpt><trkpt lat="43.6067509393874" lon="11.19122298142782"><ele>146.0</ele><time>2026-05-01T10:36:00Z</time></trkpt><trkpt lat="43.60656165315932" lon="11.191245431974734"><ele>146.0</ele><time>2026-05-01T10:36:01Z</time></trkpt><trkpt lat="43.606370139826964" lon="11.19126833632059"><ele>146.0</ele><time>2026-05-01T10:36:02Z</time></trkpt><trkpt lat="43.606174593292735" lon="11.191293537254733"><ele>146.0</ele><time>2026-05-01T10:36:03Z</time></trkpt><trkpt lat="43.605981691085105" lon="11.191315803434875"><ele>146.0</ele><time>2026-05-01T10:36:04Z</time></trkpt><trkpt lat="43.60578818482069" lon="11.19133509486629"><ele>146.33333333333331</ele><time>2026-05-01T10:36:05Z</time></trkpt><trkpt lat="43.60559189679352" lon="11.191360826466498"><ele>146.66666666666666</ele><time>2026-05-01T10:36:06Z</time></trkpt><trkpt lat="43.60539431445214" lon="11.191383411604868"><ele>147.0</ele><time>2026-05-01T10:36:07Z</time></trkpt><trkpt lat="43.6052015488783" lon="11.19140399763787"><ele>148.33333333333334</ele><time>2026-05-01T10:36:08Z</time></trkpt><trkpt lat="43.60500910567143" lon="11.191433878722506"><ele>149.66666666666669</ele><time>2026-05-01T10:36:09Z</time></trkpt><trkpt lat="43.60481336799543" lon="11.191473172557062"><ele>151.0</ele><time>2026-05-01T10:36:10Z</time></trkpt><trkpt lat="43.60462123867361" lon="11.191511511051734"><ele>151.0</ele><time>2026-05-01T10:36:11Z</time></trkpt><trkpt lat="43.60442703734177" lon="11.191559088005345"><ele>151.0</ele><time>2026-05-01T10:36:12Z</time></trkpt><trkpt lat="43.604238461812955" lon="11.191616052488964"><ele>151.0</ele><time>2026-05-01T10:36:13Z</time></trkpt><trkpt lat="43.60404872896869" lon="11.19167720275337"><ele>151.0</ele><time>2026-05-01T10:36:14Z</time></trkpt><trkpt lat="43.60385863401676" lon="11.191736908716953"><ele>151.0</ele><time>2026-05-01T10:36:15Z</time></trkpt><trkpt lat="43.60366778714973" lon="11.191810961678096"><ele>151.0</ele><time>2026-05-01T10:36:16Z</time></trkpt><trkpt lat="43.60348034577052" lon="11.191889511885602"><ele>151.0</ele><time>2026-05-01T10:36:17Z</time></trkpt><trkpt lat="43.60328686504855" lon="11.191968902076331"><ele>151.0</ele><time>2026-05-01T10:36:18Z</time></trkpt><trkpt lat="43.603096055935644" lon="11.192051806192223"><ele>151.0</ele><time>2026-05-01T10:36:19Z</time></trkpt><trkpt lat="43.602903334279425" lon="11.192125715202788"><ele>150.66666666666669</ele><time>2026-05-01T10:36:20Z</time></trkpt><trkpt lat="43.60271417296913" lon="11.192207442979205"><ele>150.33333333333334</ele><time>2026-05-01T10:36:21Z</time></trkpt><trkpt lat="43.60252696193695" lon="11.192288420020821"><ele>150.0</ele><time>2026-05-01T10:36:22Z</time></trkpt><trkpt lat="43.60233591097435" lon="11.192370429021832"><ele>149.66666666666666</ele><time>2026-05-01T10:36:23Z</time></trkpt><trkpt lat="43.60214588395669" lon="11.192451049083086"><ele>149.33333333333331</ele><time>2026-05-01T10:36:24Z</time></trkpt><trkpt lat="43.601956782520794" lon="11.192531296729502"><ele>149.0</ele><time>2026-05-01T10:36:25Z</time></trkpt><trkpt lat="43.60176339241612" lon="11.192608802147149"><ele>149.66666666666666</ele><time>2026-05-01T10:36:26Z</time></trkpt><trkpt lat="43.601573682059644" lon="11.192686051970803"><ele>150.33333333333334</ele><time>2026-05-01T10:36:27Z</time></trkpt><trkpt lat="43.60138164390725" lon="11.192763892115407"><ele>151.0</ele><time>2026-05-01T10:36:28Z</time></trkpt><trkpt lat="43.60119512017805" lon="11.192840544662639"><ele>151.33333333333334</ele><time>2026-05-01T10:36:29Z</time></trkpt><trkpt lat="43.601011379787884" lon="11.192921308012643"><ele>151.66666666666666</ele><time>2026-05-01T10:36:30Z</time></trkpt><trkpt lat="43.6008278889182" lon="11.192993357080072"><ele>152.0</ele><time>2026-05-01T10:36:31Z</time></trkpt><trkpt lat="43.60064547948308" lon="11.193063969279406"><ele>152.0</ele><time>2026-05-01T10:36:32Z</time></trkpt><trkpt lat="43.600463538309526" lon="11.193138062776717"><ele>152.0</ele><time>2026-05-01T10:36:33Z</time></trkpt><trkpt lat="43.600282618258035" lon="11.193212902365588"><ele>152.0</ele><time>2026-05-01T10:36:34Z</time></trkpt><trkpt lat="43.60010695512086" lon="11.19327905070043"><ele>152.0</ele><time>2026-05-01T10:36:35Z</time></trkpt><trkpt lat="43.59992594078636" lon="11.193355298516918"><ele>152.0</ele><time>2026-05-01T10:36:36Z</time></trkpt><trkpt lat="43.599744717887624" lon="11.193427750097522"><ele>152.0</ele><time>2026-05-01T10:36:37Z</time></trkpt><trkpt lat="43.59956351453552" lon="11.19349479883015"><ele>151.66666666666666</ele><time>2026-05-01T10:36:38Z</time></trkpt><trkpt lat="43.59938376544602" lon="11.193572182793991"><ele>151.33333333333334</ele><time>2026-05-01T10:36:39Z</time></trkpt><trkpt lat="43.59920286828834" lon="11.193651272634241"><ele>151.0</ele><time>2026-05-01T10:36:40Z</time></trkpt><trkpt lat="43.59902560644891" lon="11.193727640707948"><ele>151.0</ele><time>2026-05-01T10:36:41Z</time></trkpt><trkpt lat="43.5988461621684" lon="11.193810202362654"><ele>151.0</ele><time>2026-05-01T10:36:42Z</time></trkpt><trkpt lat="43.59866913263954" lon="11.193896953233955"><ele>151.0</ele><time>2026-05-01T10:36:43Z</time></trkpt><trkpt lat="43.598491981349945" lon="11.193992358439665"><ele>151.66666666666669</ele><time>2026-05-01T10:36:44Z</time></trkpt><trkpt lat="43.59831946777502" lon="11.1940804496826"><ele>152.33333333333334</ele><time>2026-05-01T10:36:45Z</time></trkpt><trkpt lat="43.59814627879014" lon="11.19418481394076"><ele>153.0</ele><time>2026-05-01T10:36:46Z</time></trkpt><trkpt lat="43.59797438261406" lon="11.194296995198915"><ele>154.66666666666666</ele><time>2026-05-01T10:36:47Z</time></trkpt><trkpt lat="43.59780106862341" lon="11.194422398357034"><ele>156.33333333333331</ele><time>2026-05-01T10:36:48Z</time></trkpt><trkpt lat="43.59763106046422" lon="11.194540162394393"><ele>158.0</ele><time>2026-05-01T10:36:49Z</time></trkpt><trkpt lat="43.59746516247178" lon="11.194657294489335"><ele>158.0</ele><time>2026-05-01T10:36:50Z</time></trkpt><trkpt lat="43.597300679115406" lon="11.194787237409422"><ele>158.0</ele><time>2026-05-01T10:36:51Z</time></trkpt><trkpt lat="43.5971363645097" lon="11.194920857087242"><ele>158.0</ele><time>2026-05-01T10:36:52Z</time></trkpt><trkpt lat="43.59697509896867" lon="11.19505686850262"><ele>159.66666666666666</ele><time>2026-05-01T10:36:53Z</time></trkpt><trkpt lat="43.596814278951335" lon="11.195203565469626"><ele>161.33333333333334</ele><time>2026-05-01T10:36:54Z</time></trkpt><trkpt lat="43.59665491295517" lon="11.195353621713146"><ele>163.0</ele><time>2026-05-01T10:36:55Z</time></trkpt><trkpt lat="43.59649656842071" lon="11.195499611771924"><ele>163.0</ele><time>2026-05-01T10:36:56Z</time></trkpt><trkpt lat="43.59633893873797" lon="11.195645758317342"><ele>163.0</ele><time>2026-05-01T10:36:57Z</time></trkpt><trkpt lat="43.59617884302916" lon="11.195792486117245"><ele>163.0</ele><time>2026-05-01T10:36:58Z</time></trkpt><trkpt lat="43.59602737100692" lon="11.195942966290774"><ele>162.33333333333334</ele><time>2026-05-01T10:36:59Z</time></trkpt><trkpt lat="43.59588493219261" lon="11.196075931176827"><ele>161.66666666666666</ele><time>2026-05-01T10:37:00Z</time></trkpt><trkpt lat="43.59574371244527" lon="11.196217327760504"><ele>161.0</ele><time>2026-05-01T10:37:01Z</time></trkpt><trkpt lat="43.59560432275756" lon="11.196344953677913"><ele>161.0</ele><time>2026-05-01T10:37:02Z</time></trkpt><trkpt lat="43.595457460225624" lon="11.196474890648421"><ele>161.0</ele><time>2026-05-01T10:37:03Z</time></trkpt><trkpt lat="43.59531158993494" lon="11.196605106476735"><ele>161.0</ele><time>2026-05-01T10:37:04Z</time></trkpt><trkpt lat="43.595166900743" lon="11.196744333886256"><ele>160.66666666666666</ele><time>2026-05-01T10:37:05Z</time></trkpt><trkpt lat="43.59501790118419" lon="11.196878729077469"><ele>160.33333333333334</ele><time>2026-05-01T10:37:06Z</time></trkpt><trkpt lat="43.59486969606114" lon="11.19701600979692"><ele>160.0</ele><time>2026-05-01T10:37:07Z</time></trkpt><trkpt lat="43.59472168398646" lon="11.197153417470169"><ele>160.0</ele><time>2026-05-01T10:37:08Z</time></trkpt><trkpt lat="43.59457538270507" lon="11.197288245470405"><ele>160.0</ele><time>2026-05-01T10:37:09Z</time></trkpt><trkpt lat="43.59442977077324" lon="11.197417143451721"><ele>160.0</ele><time>2026-05-01T10:37:10Z</time></trkpt><trkpt lat="43.59428613084008" lon="11.197551375067112"><ele>160.66666666666669</ele><time>2026-05-01T10:37:11Z</time></trkpt><trkpt lat="43.59414469536594" lon="11.19768019721419"><ele>161.33333333333334</ele><time>2026-05-01T10:37:12Z</time></trkpt><trkpt lat="43.59399924157506" lon="11.19781161175051"><ele>162.0</ele><time>2026-05-01T10:37:13Z</time></trkpt><trkpt lat="43.59385892016048" lon="11.197945777292643"><ele>162.0</ele><time>2026-05-01T10:37:14Z</time></trkpt><trkpt lat="43.593707075413974" lon="11.198063314362692"><ele>162.0</ele><time>2026-05-01T10:37:15Z</time></trkpt><trkpt lat="43.59356064723301" lon="11.198183415482479"><ele>162.0</ele><time>2026-05-01T10:37:16Z</time></trkpt><trkpt lat="43.59340984934549" lon="11.198300878652327"><ele>162.33333333333334</ele><time>2026-05-01T10:37:17Z</time></trkpt><trkpt lat="43.593255624092635" lon="11.198414615574192"><ele>162.66666666666669</ele><time>2026-05-01T10:37:18Z</time></trkpt><trkpt lat="43.59310964613049" lon="11.198522282822333"><ele>163.0</ele><time>2026-05-01T10:37:19Z</time></trkpt><trkpt lat="43.592967486163886" lon="11.198623724939715"><ele>164.0</ele><time>2026-05-01T10:37:20Z</time></trkpt><trkpt lat="43.592813036991984" lon="11.1987271019057"><ele>165.0</ele><time>2026-05-01T10:37:21Z</time></trkpt><trkpt lat="43.59266100381165" lon="11.198809272650433"><ele>166.0</ele><time>2026-05-01T10:37:22Z</time></trkpt><trkpt lat="43.59249495939581" lon="11.198916391500756"><ele>164.33333333333334</ele><time>2026-05-01T10:37:23Z</time></trkpt><trkpt lat="43.59234028679145" lon="11.199009841156773"><ele>162.66666666666666</ele><time>2026-05-01T10:37:24Z</time></trkpt><trkpt lat="43.59218197540509" lon="11.199088878141893"><ele>161.0</ele><time>2026-05-01T10:37:25Z</time></trkpt><trkpt lat="43.59202450904249" lon="11.199172622269606"><ele>161.0</ele><time>2026-05-01T10:37:26Z</time></trkpt><trkpt lat="43.59186656999089" lon="11.199251618054648"><ele>161.0</ele><time>2026-05-01T10:37:27Z</time></trkpt><trkpt lat="43.59170310382099" lon="11.199330277149654"><ele>161.0</ele><time>2026-05-01T10:37:28Z</time></trkpt><trkpt lat="43.59154517346245" lon="11.199409415422597"><ele>161.0</ele><time>2026-05-01T10:37:29Z</time></trkpt><trkpt lat="43.59138364178912" lon="11.199493767431138"><ele>161.0</ele><time>2026-05-01T10:37:30Z</time></trkpt><trkpt lat="43.591222898312765" lon="11.199579425923881"><ele>161.0</ele><time>2026-05-01T10:37:31Z</time></trkpt><trkpt lat="43.59105834548878" lon="11.199656295523498"><ele>161.33333333333331</ele><time>2026-05-01T10:37:32Z</time></trkpt><trkpt lat="43.59088993424916" lon="11.19973629018494"><ele>161.66666666666666</ele><time>2026-05-01T10:37:33Z</time></trkpt><trkpt lat="43.5907200087491" lon="11.199817213267938"><ele>162.0</ele><time>2026-05-01T10:37:34Z</time></trkpt><trkpt lat="43.590554808440714" lon="11.199889058731634"><ele>161.66666666666666</ele><time>2026-05-01T10:37:35Z</time></trkpt><trkpt lat="43.59038821372258" lon="11.199973683058838"><ele>161.33333333333331</ele><time>2026-05-01T10:37:36Z</time></trkpt><trkpt lat="43.590217896642535" lon="11.200057087152752"><ele>161.0</ele><time>2026-05-01T10:37:37Z</time></trkpt><trkpt lat="43.59005273365282" lon="11.200137777936746"><ele>161.0</ele><time>2026-05-01T10:37:38Z</time></trkpt><trkpt lat="43.58988249932906" lon="11.200224281115538"><ele>161.0</ele><time>2026-05-01T10:37:39Z</time></trkpt><trkpt lat="43.58971410598929" lon="11.200299728033254"><ele>161.0</ele><time>2026-05-01T10:37:40Z</time></trkpt><trkpt lat="43.589544231357586" lon="11.200383083991383"><ele>162.33333333333331</ele><time>2026-05-01T10:37:41Z</time></trkpt><trkpt lat="43.58937233144755" lon="11.20046072062199"><ele>163.66666666666666</ele><time>2026-05-01T10:37:42Z</time></trkpt><trkpt lat="43.589202940771926" lon="11.20054367885216"><ele>165.0</ele><time>2026-05-01T10:37:43Z</time></trkpt><trkpt lat="43.58903401299965" lon="11.20062523106764"><ele>165.0</ele><time>2026-05-01T10:37:44Z</time></trkpt><trkpt lat="43.58886181483125" lon="11.200715264691276"><ele>165.0</ele><time>2026-05-01T10:37:45Z</time></trkpt><trkpt lat="43.588690067724315" lon="11.200801120126227"><ele>165.0</ele><time>2026-05-01T10:37:46Z</time></trkpt><trkpt lat="43.58851698973737" lon="11.200889567536107"><ele>165.0</ele><time>2026-05-01T10:37:47Z</time></trkpt><trkpt lat="43.588347327138244" lon="11.20097299808329"><ele>165.0</ele><time>2026-05-01T10:37:48Z</time></trkpt><trkpt lat="43.58817746842719" lon="11.201056690550027"><ele>165.0</ele><time>2026-05-01T10:37:49Z</time></trkpt><trkpt lat="43.588005917568616" lon="11.201134901556301"><ele>166.33333333333334</ele><time>2026-05-01T10:37:50Z</time></trkpt><trkpt lat="43.587830744373015" lon="11.201210226181633"><ele>167.66666666666669</ele><time>2026-05-01T10:37:51Z</time></trkpt><trkpt lat="43.5876521838555" lon="11.201275963072455"><ele>169.0</ele><time>2026-05-01T10:37:52Z</time></trkpt><trkpt lat="43.58746807505263" lon="11.201337924324278"><ele>169.0</ele><time>2026-05-01T10:37:53Z</time></trkpt><trkpt lat="43.5872825486458" lon="11.201399229271207"><ele>169.0</ele><time>2026-05-01T10:37:54Z</time></trkpt><trkpt lat="43.58710507533049" lon="11.201451570356033"><ele>169.0</ele><time>2026-05-01T10:37:55Z</time></trkpt><trkpt lat="43.58692621297584" lon="11.201506875834554"><ele>169.33333333333334</ele><time>2026-05-01T10:37:56Z</time></trkpt><trkpt lat="43.586745244508165" lon="11.201560591075001"><ele>169.66666666666666</ele><time>2026-05-01T10:37:57Z</time></trkpt><trkpt lat="43.586560783184396" lon="11.201621487236602"><ele>170.0</ele><time>2026-05-01T10:37:58Z</time></trkpt><trkpt lat="43.58637470736719" lon="11.20168031694844"><ele>170.0</ele><time>2026-05-01T10:37:59Z</time></trkpt><trkpt lat="43.586188891800326" lon="11.20173655303547"><ele>170.0</ele><time>2026-05-01T10:38:00Z</time></trkpt><trkpt lat="43.58599834135329" lon="11.201793149623793"><ele>170.0</ele><time>2026-05-01T10:38:01Z</time></trkpt><trkpt lat="43.58581279122504" lon="11.201844580568741"><ele>171.66666666666666</ele><time>2026-05-01T10:38:02Z</time></trkpt><trkpt lat="43.58562555850023" lon="11.201903071475197"><ele>173.33333333333334</ele><time>2026-05-01T10:38:03Z</time></trkpt><trkpt lat="43.58543898784454" lon="11.201961134028638"><ele>175.0</ele><time>2026-05-01T10:38:04Z</time></trkpt><trkpt lat="43.58525388569" lon="11.202014806115303"><ele>175.0</ele><time>2026-05-01T10:38:05Z</time></trkpt><trkpt lat="43.58506546977737" lon="11.202063922114348"><ele>175.0</ele><time>2026-05-01T10:38:06Z</time></trkpt><trkpt lat="43.58487431578196" lon="11.202123620649958"><ele>175.0</ele><time>2026-05-01T10:38:07Z</time></trkpt><trkpt lat="43.58468186278722" lon="11.202176304896936"><ele>174.66666666666669</ele><time>2026-05-01T10:38:08Z</time></trkpt><trkpt lat="43.58449161523964" lon="11.202234842996761"><ele>174.33333333333334</ele><time>2026-05-01T10:38:09Z</time></trkpt><trkpt lat="43.58430155584512" lon="11.202293610802291"><ele>174.0</ele><time>2026-05-01T10:38:10Z</time></trkpt><trkpt lat="43.58410871838441" lon="11.202355492801018"><ele>174.0</ele><time>2026-05-01T10:38:11Z</time></trkpt><trkpt lat="43.58391873888287" lon="11.2024095731423"><ele>174.0</ele><time>2026-05-01T10:38:12Z</time></trkpt><trkpt lat="43.583727891896714" lon="11.202461866760691"><ele>174.0</ele><time>2026-05-01T10:38:13Z</time></trkpt><trkpt lat="43.583536797108216" lon="11.202527531188244"><ele>174.66666666666666</ele><time>2026-05-01T10:38:14Z</time></trkpt><trkpt lat="43.58334797148761" lon="11.202585790871261"><ele>175.33333333333331</ele><time>2026-05-01T10:38:15Z</time></trkpt><trkpt lat="43.58315665999193" lon="11.202653125924986"><ele>176.0</ele><time>2026-05-01T10:38:16Z</time></trkpt><trkpt lat="43.58297214881804" lon="11.202705537068026"><ele>178.0</ele><time>2026-05-01T10:38:17Z</time></trkpt><trkpt lat="43.58278731012516" lon="11.202762070411264"><ele>180.0</ele><time>2026-05-01T10:38:18Z</time></trkpt><trkpt lat="43.58260782918073" lon="11.202818998851217"><ele>182.0</ele><time>2026-05-01T10:38:19Z</time></trkpt><trkpt lat="43.58242797757155" lon="11.20287430392602"><ele>182.0</ele><time>2026-05-01T10:38:20Z</time></trkpt><trkpt lat="43.58225108048103" lon="11.20293116300979"><ele>182.0</ele><time>2026-05-01T10:38:21Z</time></trkpt><trkpt lat="43.582076288280085" lon="11.202980577831712"><ele>182.0</ele><time>2026-05-01T10:38:22Z</time></trkpt><trkpt lat="43.58189820080062" lon="11.203033637141488"><ele>182.66666666666666</ele><time>2026-05-01T10:38:23Z</time></trkpt><trkpt lat="43.581718330709684" lon="11.203088111409459"><ele>183.33333333333334</ele><time>2026-05-01T10:38:24Z</time></trkpt><trkpt lat="43.58153686801633" lon="11.2031445683077"><ele>184.0</ele><time>2026-05-01T10:38:25Z</time></trkpt><trkpt lat="43.581352461760424" lon="11.20320531189747"><ele>184.33333333333334</ele><time>2026-05-01T10:38:26Z</time></trkpt><trkpt lat="43.581173058913755" lon="11.203259152995816"><ele>184.66666666666666</ele><time>2026-05-01T10:38:27Z</time></trkpt><trkpt lat="43.58099271943655" lon="11.203307370757527"><ele>185.0</ele><time>2026-05-01T10:38:28Z</time></trkpt><trkpt lat="43.580805397098175" lon="11.203359913463"><ele>185.0</ele><time>2026-05-01T10:38:29Z</time></trkpt><trkpt lat="43.580627408619456" lon="11.203407722973365"><ele>185.0</ele><time>2026-05-01T10:38:30Z</time></trkpt><trkpt lat="43.58045100662777" lon="11.203457046388083"><ele>185.0</ele><time>2026-05-01T10:38:31Z</time></trkpt><trkpt lat="43.580269378052094" lon="11.20351142448584"><ele>188.0</ele><time>2026-05-01T10:38:32Z</time></trkpt><trkpt lat="43.5800883487158" lon="11.203570392333376"><ele>191.0</ele><time>2026-05-01T10:38:33Z</time></trkpt><trkpt lat="43.579912223639326" lon="11.203622493720513"><ele>194.0</ele><time>2026-05-01T10:38:34Z</time></trkpt><trkpt lat="43.579730541292186" lon="11.203671082459186"><ele>194.0</ele><time>2026-05-01T10:38:35Z</time></trkpt><trkpt lat="43.57955130297256" lon="11.203724778881814"><ele>194.0</ele><time>2026-05-01T10:38:36Z</time></trkpt><trkpt lat="43.57936992796897" lon="11.203780762645748"><ele>194.0</ele><time>2026-05-01T10:38:37Z</time></trkpt><trkpt lat="43.579195042183684" lon="11.203837026829785"><ele>197.66666666666669</ele><time>2026-05-01T10:38:38Z</time></trkpt><trkpt lat="43.57902434905222" lon="11.203880922428116"><ele>201.33333333333331</ele><time>2026-05-01T10:38:39Z</time></trkpt><trkpt lat="43.57884929850362" lon="11.20393541934033"><ele>205.0</ele><time>2026-05-01T10:38:40Z</time></trkpt><trkpt lat="43.57867604382613" lon="11.203986192306523"><ele>202.0</ele><time>2026-05-01T10:38:41Z</time></trkpt><trkpt lat="43.57850193609545" lon="11.204040924652771"><ele>199.0</ele><time>2026-05-01T10:38:42Z</time></trkpt><trkpt lat="43.578322572262685" lon="11.204105543033144"><ele>196.0</ele><time>2026-05-01T10:38:43Z</time></trkpt><trkpt lat="43.57814820117865" lon="11.20415462875379"><ele>196.0</ele><time>2026-05-01T10:38:44Z</time></trkpt><trkpt lat="43.57797522492787" lon="11.204204814174485"><ele>196.0</ele><time>2026-05-01T10:38:45Z</time></trkpt><trkpt lat="43.57781157636897" lon="11.204266682188688"><ele>196.0</ele><time>2026-05-01T10:38:46Z</time></trkpt><trkpt lat="43.577650253354264" lon="11.204326238322455"><ele>198.0</ele><time>2026-05-01T10:38:47Z</time></trkpt><trkpt lat="43.57748556233818" lon="11.204384909687548"><ele>200.0</ele><time>2026-05-01T10:38:48Z</time></trkpt><trkpt lat="43.57732006823966" lon="11.204455092553683"><ele>202.0</ele><time>2026-05-01T10:38:49Z</time></trkpt><trkpt lat="43.57715538149724" lon="11.204512409007432"><ele>204.0</ele><time>2026-05-01T10:38:50Z</time></trkpt><trkpt lat="43.57698574839473" lon="11.204587002260787"><ele>206.0</ele><time>2026-05-01T10:38:51Z</time></trkpt><trkpt lat="43.57681787748653" lon="11.204664172540681"><ele>208.0</ele><time>2026-05-01T10:38:52Z</time></trkpt><trkpt lat="43.57665180405253" lon="11.20473735851193"><ele>208.0</ele><time>2026-05-01T10:38:53Z</time></trkpt><trkpt lat="43.57649140790599" lon="11.204812943381597"><ele>208.0</ele><time>2026-05-01T10:38:54Z</time></trkpt><trkpt lat="43.576328305209344" lon="11.20489132393757"><ele>208.0</ele><time>2026-05-01T10:38:55Z</time></trkpt><trkpt lat="43.57616515102366" lon="11.204966131678626"><ele>208.33333333333331</ele><time>2026-05-01T10:38:56Z</time></trkpt><trkpt lat="43.57600409419815" lon="11.205042296067857"><ele>208.66666666666669</ele><time>2026-05-01T10:38:57Z</time></trkpt><trkpt lat="43.57584314004656" lon="11.205123968008735"><ele>209.0</ele><time>2026-05-01T10:38:58Z</time></trkpt><trkpt lat="43.57567882318536" lon="11.205210980771318"><ele>209.0</ele><time>2026-05-01T10:38:59Z</time></trkpt><trkpt lat="43.57552262857855" lon="11.205296412003877"><ele>209.0</ele><time>2026-05-01T10:39:00Z</time></trkpt><trkpt lat="43.5753743212735" lon="11.2053845179555"><ele>209.0</ele><time>2026-05-01T10:39:01Z</time></trkpt><trkpt lat="43.57523977371383" lon="11.205459929121398"><ele>209.25</ele><time>2026-05-01T10:39:02Z</time></trkpt><trkpt lat="43.57511320041156" lon="11.205526513883713"><ele>209.5</ele><time>2026-05-01T10:39:03Z</time></trkpt><trkpt lat="43.57498085447691" lon="11.205597478469787"><ele>209.75</ele><time>2026-05-01T10:39:04Z</time></trkpt><trkpt lat="43.57484904116974" lon="11.205671722972125"><ele>210.0</ele><time>2026-05-01T10:39:05Z</time></trkpt><trkpt lat="43.5747155331536" lon="11.205746655289188"><ele>210.0</ele><time>2026-05-01T10:39:06Z</time></trkpt><trkpt lat="43.57459127403089" lon="11.205813330510257"><ele>210.0</ele><time>2026-05-01T10:39:07Z</time></trkpt><trkpt lat="43.574478658919666" lon="11.205871741925144"><ele>210.0</ele><time>2026-05-01T10:39:08Z</time></trkpt><trkpt lat="43.57437565375016" lon="11.20592634511581"><ele>210.0</ele><time>2026-05-01T10:39:09Z</time></trkpt><trkpt lat="43.574288066672636" lon="11.205977111914706"><ele>213.33333333333334</ele><time>2026-05-01T10:39:10Z</time></trkpt><trkpt lat="43.57421402219921" lon="11.206024568059757"><ele>216.66666666666669</ele><time>2026-05-01T10:39:11Z</time></trkpt><trkpt lat="43.57414742506026" lon="11.206063456932775"><ele>220.0</ele><time>2026-05-01T10:39:12Z</time></trkpt><trkpt lat="43.57408773451521" lon="11.206099620451038"><ele>223.33333333333334</ele><time>2026-05-01T10:39:13Z</time></trkpt><trkpt lat="43.5739761238613" lon="11.206154699212481"><ele>226.66666666666669</ele><time>2026-05-01T10:39:15Z</time></trkpt><trkpt lat="43.57391250395892" lon="11.206193675709168"><ele>230.0</ele><time>2026-05-01T10:39:16Z</time></trkpt><trkpt lat="43.57384500534474" lon="11.206237810972896"><ele>230.00000000000003</ele><time>2026-05-01T10:39:17Z</time></trkpt><trkpt lat="43.57377165363295" lon="11.206279316548116"><ele>230.0</ele><time>2026-05-01T10:39:18Z</time></trkpt><trkpt lat="43.57369301513758" lon="11.206316521341309"><ele>230.0</ele><time>2026-05-01T10:39:19Z</time></trkpt><trkpt lat="43.573613594432466" lon="11.20636244675768"><ele>230.0</ele><time>2026-05-01T10:39:20Z</time></trkpt><trkpt lat="43.573536041925635" lon="11.206407757076345"><ele>230.00000000000003</ele><time>2026-05-01T10:39:21Z</time></trkpt><trkpt lat="43.57346262887067" lon="11.206455683590757"><ele>230.0</ele><time>2026-05-01T10:39:22Z</time></trkpt><trkpt lat="43.573400330509514" lon="11.206488687487989"><ele>227.8</ele><time>2026-05-01T10:39:23Z</time></trkpt><trkpt lat="43.573322781006304" lon="11.20653522066686"><ele>225.6</ele><time>2026-05-01T10:39:25Z</time></trkpt><trkpt lat="43.573241951878046" lon="11.206588290683003"><ele>223.39999999999998</ele><time>2026-05-01T10:39:28Z</time></trkpt><trkpt lat="43.57316471490466" lon="11.206634135514369"><ele>221.2</ele><time>2026-05-01T10:39:30Z</time></trkpt><trkpt lat="43.57305178326918" lon="11.206691344777331"><ele>219.0</ele><time>2026-05-01T10:39:32Z</time></trkpt><trkpt lat="43.57295547190996" lon="11.206750303058877"><ele>218.2</ele><time>2026-05-01T10:39:34Z</time></trkpt><trkpt lat="43.57285552577176" lon="11.206819052536511"><ele>217.39999999999998</ele><time>2026-05-01T10:39:36Z</time></trkpt><trkpt lat="43.57273559443611" lon="11.206883477798984"><ele>216.6</ele><time>2026-05-01T10:39:38Z</time></trkpt><trkpt lat="43.57266155569938" lon="11.206920886253931"><ele>215.8</ele><time>2026-05-01T10:39:39Z</time></trkpt><trkpt lat="43.57258578079012" lon="11.206970793740064"><ele>215.0</ele><time>2026-05-01T10:39:40Z</time></trkpt><trkpt lat="43.572494819126995" lon="11.20702599355406"><ele>215.0</ele><time>2026-05-01T10:39:41Z</time></trkpt><trkpt lat="43.57239556146821" lon="11.207077101392873"><ele>215.0</ele><time>2026-05-01T10:39:42Z</time></trkpt><trkpt lat="43.57229103852362" lon="11.207131053952867"><ele>215.0</ele><time>2026-05-01T10:39:43Z</time></trkpt><trkpt lat="43.572182258100156" lon="11.207189007682759"><ele>215.0</ele><time>2026-05-01T10:39:44Z</time></trkpt><trkpt lat="43.5720687426797" lon="11.207246089424117"><ele>215.75</ele><time>2026-05-01T10:39:45Z</time></trkpt><trkpt lat="43.57195072073679" lon="11.207312155570426"><ele>216.5</ele><time>2026-05-01T10:39:46Z</time></trkpt><trkpt lat="43.57184411405667" lon="11.20737241797695"><ele>217.25</ele><time>2026-05-01T10:39:47Z</time></trkpt><trkpt lat="43.57174062773171" lon="11.20742528834407"><ele>218.0</ele><time>2026-05-01T10:39:48Z</time></trkpt><trkpt lat="43.571635533901315" lon="11.207477669283934"><ele>218.16666666666669</ele><time>2026-05-01T10:39:49Z</time></trkpt><trkpt lat="43.571540581656464" lon="11.20753067771892"><ele>218.33333333333334</ele><time>2026-05-01T10:39:50Z</time></trkpt><trkpt lat="43.57145591075846" lon="11.207581325188238"><ele>218.5</ele><time>2026-05-01T10:39:51Z</time></trkpt><trkpt lat="43.57138369273468" lon="11.207621280055738"><ele>218.66666666666669</ele><time>2026-05-01T10:39:52Z</time></trkpt><trkpt lat="43.57131825800194" lon="11.20767068306476"><ele>218.83333333333334</ele><time>2026-05-01T10:39:53Z</time></trkpt><trkpt lat="43.57125976403129" lon="11.207711066062464"><ele>219.0</ele><time>2026-05-01T10:39:54Z</time></trkpt><trkpt lat="43.57119410973051" lon="11.207754387909707"><ele>222.16666666666666</ele><time>2026-05-01T10:39:55Z</time></trkpt><trkpt lat="43.57112739758784" lon="11.207797793008712"><ele>225.33333333333331</ele><time>2026-05-01T10:39:56Z</time></trkpt><trkpt lat="43.57105535376518" lon="11.20784985757898"><ele>228.5</ele><time>2026-05-01T10:39:57Z</time></trkpt><trkpt lat="43.57097348594174" lon="11.207912648337013"><ele>231.66666666666666</ele><time>2026-05-01T10:39:58Z</time></trkpt><trkpt lat="43.57089161049551" lon="11.207974306704227"><ele>234.83333333333331</ele><time>2026-05-01T10:39:59Z</time></trkpt><trkpt lat="43.5708062727886" lon="11.208041970938371"><ele>238.0</ele><time>2026-05-01T10:40:00Z</time></trkpt><trkpt lat="43.570726261125095" lon="11.20810864384555"><ele>238.60000000000002</ele><time>2026-05-01T10:40:01Z</time></trkpt><trkpt lat="43.570659358135636" lon="11.208170211641976"><ele>239.20000000000002</ele><time>2026-05-01T10:40:02Z</time></trkpt><trkpt lat="43.570587635367836" lon="11.208240540023684"><ele>239.8</ele><time>2026-05-01T10:40:03Z</time></trkpt><trkpt lat="43.57050778356684" lon="11.208323482216578"><ele>240.4</ele><time>2026-05-01T10:40:04Z</time></trkpt><trkpt lat="43.57041620934659" lon="11.20840211610768"><ele>241.0</ele><time>2026-05-01T10:40:05Z</time></trkpt><trkpt lat="43.57032161231349" lon="11.208492628189394"><ele>241.0</ele><time>2026-05-01T10:40:06Z</time></trkpt><trkpt lat="43.570222943991745" lon="11.208598484669661"><ele>241.0</ele><time>2026-05-01T10:40:07Z</time></trkpt><trkpt lat="43.57013088573138" lon="11.20869772243372"><ele>241.0</ele><time>2026-05-01T10:40:08Z</time></trkpt><trkpt lat="43.570040900549046" lon="11.208796136739101"><ele>241.0</ele><time>2026-05-01T10:40:09Z</time></trkpt><trkpt lat="43.569952695608556" lon="11.2088936794426"><ele>241.0</ele><time>2026-05-01T10:40:10Z</time></trkpt><trkpt lat="43.569865964134074" lon="11.208985899701306"><ele>241.00000000000003</ele><time>2026-05-01T10:40:11Z</time></trkpt><trkpt lat="43.56978741642024" lon="11.209076122120097"><ele>241.00000000000003</ele><time>2026-05-01T10:40:12Z</time></trkpt><trkpt lat="43.56970614124134" lon="11.209173782083846"><ele>241.0</ele><time>2026-05-01T10:40:13Z</time></trkpt><trkpt lat="43.56961849435003" lon="11.20927040179653"><ele>241.0</ele><time>2026-05-01T10:40:14Z</time></trkpt><trkpt lat="43.56953467577841" lon="11.209370111972033"><ele>240.20000000000002</ele><time>2026-05-01T10:40:15Z</time></trkpt><trkpt lat="43.569450906049354" lon="11.209467659769112"><ele>239.40000000000003</ele><time>2026-05-01T10:40:16Z</time></trkpt><trkpt lat="43.56936709845181" lon="11.209568123391636"><ele>238.6</ele><time>2026-05-01T10:40:17Z</time></trkpt><trkpt lat="43.56927878622036" lon="11.20967211819152"><ele>237.8</ele><time>2026-05-01T10:40:18Z</time></trkpt><trkpt lat="43.569197685693005" lon="11.209766187989661"><ele>237.0</ele><time>2026-05-01T10:40:19Z</time></trkpt><trkpt lat="43.56911871452425" lon="11.209856957533432"><ele>237.0</ele><time>2026-05-01T10:40:20Z</time></trkpt><trkpt lat="43.56904330487661" lon="11.209941032544805"><ele>237.0</ele><time>2026-05-01T10:40:21Z</time></trkpt><trkpt lat="43.56896926953087" lon="11.210024609264734"><ele>237.0</ele><time>2026-05-01T10:40:22Z</time></trkpt><trkpt lat="43.56889558933151" lon="11.21011202623412"><ele>237.0</ele><time>2026-05-01T10:40:23Z</time></trkpt><trkpt lat="43.56881944263034" lon="11.210196265678686"><ele>237.0</ele><time>2026-05-01T10:40:24Z</time></trkpt><trkpt lat="43.56874271686225" lon="11.210281663648834"><ele>237.39999999999998</ele><time>2026-05-01T10:40:25Z</time></trkpt><trkpt lat="43.56866666421144" lon="11.210366673556033"><ele>237.79999999999998</ele><time>2026-05-01T10:40:26Z</time></trkpt><trkpt lat="43.56858563424393" lon="11.21045605167026"><ele>238.2</ele><time>2026-05-01T10:40:27Z</time></trkpt><trkpt lat="43.56850848272083" lon="11.210548030547793"><ele>238.6</ele><time>2026-05-01T10:40:28Z</time></trkpt><trkpt lat="43.56843163863147" lon="11.210639296216552"><ele>239.0</ele><time>2026-05-01T10:40:29Z</time></trkpt><trkpt lat="43.568354261658655" lon="11.210727708650268"><ele>239.0</ele><time>2026-05-01T10:40:30Z</time></trkpt><trkpt lat="43.568275048112724" lon="11.210812556796157"><ele>238.99999999999997</ele><time>2026-05-01T10:40:31Z</time></trkpt><trkpt lat="43.568192751436335" lon="11.210901297333846"><ele>238.99999999999997</ele><time>2026-05-01T10:40:32Z</time></trkpt><trkpt lat="43.56810552365762" lon="11.210991927171948"><ele>239.0</ele><time>2026-05-01T10:40:33Z</time></trkpt><trkpt lat="43.56801536712779" lon="11.21108876305795"><ele>239.0</ele><time>2026-05-01T10:40:34Z</time></trkpt><trkpt lat="43.56792300255045" lon="11.211184004347894"><ele>238.75</ele><time>2026-05-01T10:40:35Z</time></trkpt><trkpt lat="43.56783174219271" lon="11.211283002281851"><ele>238.5</ele><time>2026-05-01T10:40:36Z</time></trkpt><trkpt lat="43.56773848095206" lon="11.211386656240219"><ele>238.25</ele><time>2026-05-01T10:40:37Z</time></trkpt><trkpt lat="43.567641531355704" lon="11.211493335655824"><ele>238.0</ele><time>2026-05-01T10:40:38Z</time></trkpt><trkpt lat="43.56754704629514" lon="11.211595309126736"><ele>238.5</ele><time>2026-05-01T10:40:39Z</time></trkpt><trkpt lat="43.567460095237756" lon="11.211693079461977"><ele>239.0</ele><time>2026-05-01T10:40:40Z</time></trkpt><trkpt lat="43.567368701307956" lon="11.211789111955863"><ele>239.5</ele><time>2026-05-01T10:40:41Z</time></trkpt><trkpt lat="43.56727518205214" lon="11.211892806973788"><ele>240.0</ele><time>2026-05-01T10:40:42Z</time></trkpt><trkpt lat="43.56717732341972" lon="11.211998599839447"><ele>240.0</ele><time>2026-05-01T10:40:43Z</time></trkpt><trkpt lat="43.56708085120256" lon="11.212097574891034"><ele>240.0</ele><time>2026-05-01T10:40:44Z</time></trkpt><trkpt lat="43.566978758381545" lon="11.212195568119064"><ele>240.0</ele><time>2026-05-01T10:40:45Z</time></trkpt><trkpt lat="43.56687275820434" lon="11.212284366042416"><ele>240.0</ele><time>2026-05-01T10:40:46Z</time></trkpt><trkpt lat="43.56675937548103" lon="11.212369585379273"><ele>245.5</ele><time>2026-05-01T10:40:47Z</time></trkpt><trkpt lat="43.56664198133886" lon="11.212453921197561"><ele>251.0</ele><time>2026-05-01T10:40:48Z</time></trkpt><trkpt lat="43.566523454035284" lon="11.212541434013225"><ele>256.5</ele><time>2026-05-01T10:40:49Z</time></trkpt><trkpt lat="43.566407186964426" lon="11.212623653148585"><ele>262.0</ele><time>2026-05-01T10:40:50Z</time></trkpt><trkpt lat="43.56628434540198" lon="11.212705023155088"><ele>265.25</ele><time>2026-05-01T10:40:51Z</time></trkpt><trkpt lat="43.56615997966959" lon="11.212784077020594"><ele>268.5</ele><time>2026-05-01T10:40:52Z</time></trkpt><trkpt lat="43.56602915517601" lon="11.212852996653517"><ele>271.75</ele><time>2026-05-01T10:40:53Z</time></trkpt><trkpt lat="43.56589054944402" lon="11.212917760940872"><ele>275.0</ele><time>2026-05-01T10:40:54Z</time></trkpt><trkpt lat="43.5657499763288" lon="11.212975370121825"><ele>275.0</ele><time>2026-05-01T10:40:55Z</time></trkpt><trkpt lat="43.56560913907033" lon="11.213031935631026"><ele>275.0</ele><time>2026-05-01T10:40:56Z</time></trkpt><trkpt lat="43.565466626225046" lon="11.213078801563935"><ele>275.0</ele><time>2026-05-01T10:40:57Z</time></trkpt><trkpt lat="43.56532902833489" lon="11.213115423993468"><ele>275.0</ele><time>2026-05-01T10:40:58Z</time></trkpt><trkpt lat="43.56518373080671" lon="11.213159301750357"><ele>273.0</ele><time>2026-05-01T10:40:59Z</time></trkpt><trkpt lat="43.56503249363143" lon="11.213195912085013"><ele>271.0</ele><time>2026-05-01T10:41:00Z</time></trkpt><trkpt lat="43.564881193263396" lon="11.21322049251312"><ele>269.0</ele><time>2026-05-01T10:41:01Z</time></trkpt><trkpt lat="43.5647287943574" lon="11.213230827406576"><ele>269.0</ele><time>2026-05-01T10:41:02Z</time></trkpt><trkpt lat="43.564572116095185" lon="11.213239197920398"><ele>269.0</ele><time>2026-05-01T10:41:03Z</time></trkpt><trkpt lat="43.56441235738805" lon="11.213244984301765"><ele>269.0</ele><time>2026-05-01T10:41:04Z</time></trkpt><trkpt lat="43.56425752573391" lon="11.213240746986553"><ele>268.0</ele><time>2026-05-01T10:41:05Z</time></trkpt><trkpt lat="43.56409646504411" lon="11.213236033754834"><ele>267.0</ele><time>2026-05-01T10:41:06Z</time></trkpt><trkpt lat="43.563940377046215" lon="11.213219449662027"><ele>266.0</ele><time>2026-05-01T10:41:07Z</time></trkpt><trkpt lat="43.563787741882805" lon="11.213202482268821"><ele>264.0</ele><time>2026-05-01T10:41:08Z</time></trkpt><trkpt lat="43.56363425780043" lon="11.21318068987971"><ele>262.0</ele><time>2026-05-01T10:41:09Z</time></trkpt><trkpt lat="43.563476064519826" lon="11.213163353093952"><ele>260.0</ele><time>2026-05-01T10:41:10Z</time></trkpt><trkpt lat="43.563321603307735" lon="11.21313942090311"><ele>265.33333333333337</ele><time>2026-05-01T10:41:11Z</time></trkpt><trkpt lat="43.56316163565613" lon="11.213127071965475"><ele>270.6666666666667</ele><time>2026-05-01T10:41:12Z</time></trkpt><trkpt lat="43.56300614355522" lon="11.213103214640753"><ele>276.0</ele><time>2026-05-01T10:41:13Z</time></trkpt><trkpt lat="43.56285283359284" lon="11.213080226775611"><ele>276.0</ele><time>2026-05-01T10:41:14Z</time></trkpt><trkpt lat="43.56269622104986" lon="11.213063669498807"><ele>276.0</ele><time>2026-05-01T10:41:15Z</time></trkpt><trkpt lat="43.56253711600527" lon="11.213052892524617"><ele>276.0</ele><time>2026-05-01T10:41:16Z</time></trkpt><trkpt lat="43.562382716372895" lon="11.213032028839972"><ele>276.0</ele><time>2026-05-01T10:41:17Z</time></trkpt><trkpt lat="43.56222651967628" lon="11.213012905118967"><ele>276.0</ele><time>2026-05-01T10:41:18Z</time></trkpt><trkpt lat="43.562072419396976" lon="11.212983174724819"><ele>276.0</ele><time>2026-05-01T10:41:19Z</time></trkpt><trkpt lat="43.561918262407715" lon="11.212963862220697"><ele>276.0</ele><time>2026-05-01T10:41:20Z</time></trkpt><trkpt lat="43.56176642792004" lon="11.212943384226973"><ele>276.0</ele><time>2026-05-01T10:41:21Z</time></trkpt><trkpt lat="43.56160935494843" lon="11.21291874904459"><ele>276.0</ele><time>2026-05-01T10:41:22Z</time></trkpt><trkpt lat="43.56144932683856" lon="11.21289769239336"><ele>276.0</ele><time>2026-05-01T10:41:23Z</time></trkpt><trkpt lat="43.5612900561496" lon="11.212873325664475"><ele>276.0</ele><time>2026-05-01T10:41:24Z</time></trkpt><trkpt lat="43.56112963768114" lon="11.21285043060528"><ele>276.0</ele><time>2026-05-01T10:41:25Z</time></trkpt><trkpt lat="43.56097181684768" lon="11.21282851572424"><ele>276.6666666666667</ele><time>2026-05-01T10:41:26Z</time></trkpt><trkpt lat="43.560813334608454" lon="11.21280983556982"><ele>277.33333333333337</ele><time>2026-05-01T10:41:27Z</time></trkpt><trkpt lat="43.5606559074778" lon="11.212786913404795"><ele>278.0</ele><time>2026-05-01T10:41:28Z</time></trkpt><trkpt lat="43.56049655649031" lon="11.212766002706072"><ele>280.6666666666667</ele><time>2026-05-01T10:41:29Z</time></trkpt><trkpt lat="43.56033593679941" lon="11.212746998508491"><ele>283.3333333333333</ele><time>2026-05-01T10:41:30Z</time></trkpt><trkpt lat="43.560178101071905" lon="11.212721595982503"><ele>286.0</ele><time>2026-05-01T10:41:31Z</time></trkpt><trkpt lat="43.56001981393958" lon="11.212696573824191"><ele>286.0</ele><time>2026-05-01T10:41:32Z</time></trkpt><trkpt lat="43.55986056650565" lon="11.212676919788107"><ele>286.0</ele><time>2026-05-01T10:41:33Z</time></trkpt><trkpt lat="43.55969589320595" lon="11.21265361638384"><ele>286.0</ele><time>2026-05-01T10:41:34Z</time></trkpt><trkpt lat="43.55952906006034" lon="11.21263766201379"><ele>286.66666666666663</ele><time>2026-05-01T10:41:35Z</time></trkpt><trkpt lat="43.559365395311154" lon="11.212617934263546"><ele>287.3333333333333</ele><time>2026-05-01T10:41:36Z</time></trkpt><trkpt lat="43.559198750358064" lon="11.212604669509926"><ele>288.0</ele><time>2026-05-01T10:41:37Z</time></trkpt><trkpt lat="43.559041706809246" lon="11.212578529051223"><ele>288.0</ele><time>2026-05-01T10:41:38Z</time></trkpt><trkpt lat="43.558884469191106" lon="11.212541622051857"><ele>288.0</ele><time>2026-05-01T10:41:39Z</time></trkpt><trkpt lat="43.558729286470125" lon="11.212499995130626"><ele>288.0</ele><time>2026-05-01T10:41:40Z</time></trkpt><trkpt lat="43.558571847532924" lon="11.212451246212778"><ele>288.0</ele><time>2026-05-01T10:41:41Z</time></trkpt><trkpt lat="43.55841916962259" lon="11.212394917863215"><ele>288.0</ele><time>2026-05-01T10:41:42Z</time></trkpt><trkpt lat="43.55827034300544" lon="11.212333407939695"><ele>288.0</ele><time>2026-05-01T10:41:43Z</time></trkpt><trkpt lat="43.55812305057884" lon="11.21226553668285"><ele>287.6666666666667</ele><time>2026-05-01T10:41:44Z</time></trkpt><trkpt lat="43.557977481783226" lon="11.212191015504548"><ele>287.33333333333337</ele><time>2026-05-01T10:41:45Z</time></trkpt><trkpt lat="43.557835186500554" lon="11.212108825727858"><ele>287.0</ele><time>2026-05-01T10:41:46Z</time></trkpt><trkpt lat="43.55769386556677" lon="11.212018622724509"><ele>287.0</ele><time>2026-05-01T10:41:47Z</time></trkpt><trkpt lat="43.55755350494483" lon="11.21191488906716"><ele>287.0</ele><time>2026-05-01T10:41:48Z</time></trkpt><trkpt lat="43.55741531990965" lon="11.21181392403058"><ele>287.0</ele><time>2026-05-01T10:41:49Z</time></trkpt><trkpt lat="43.55728025093332" lon="11.21170157841398"><ele>287.0</ele><time>2026-05-01T10:41:50Z</time></trkpt><trkpt lat="43.55714734514628" lon="11.211587673614927"><ele>287.0</ele><time>2026-05-01T10:41:51Z</time></trkpt><trkpt lat="43.55701087420634" lon="11.211474525665487"><ele>287.0</ele><time>2026-05-01T10:41:52Z</time></trkpt><trkpt lat="43.556875867739734" lon="11.211359053472735"><ele>290.6666666666667</ele><time>2026-05-01T10:41:53Z</time></trkpt><trkpt lat="43.55674339218437" lon="11.21124277910487"><ele>294.3333333333333</ele><time>2026-05-01T10:41:54Z</time></trkpt><trkpt lat="43.556606329610474" lon="11.2111291330369"><ele>298.0</ele><time>2026-05-01T10:41:55Z</time></trkpt><trkpt lat="43.556469850934334" lon="11.211017986716268"><ele>298.0</ele><time>2026-05-01T10:41:56Z</time></trkpt><trkpt lat="43.55633371589528" lon="11.210908023853516"><ele>298.0</ele><time>2026-05-01T10:41:57Z</time></trkpt><trkpt lat="43.556197274376416" lon="11.210808806324426"><ele>298.0</ele><time>2026-05-01T10:41:58Z</time></trkpt><trkpt lat="43.55605757408157" lon="11.210722275229537"><ele>303.0</ele><time>2026-05-01T10:41:59Z</time></trkpt><trkpt lat="43.55591510402076" lon="11.210635294367234"><ele>308.0</ele><time>2026-05-01T10:42:00Z</time></trkpt><trkpt lat="43.555773652498" lon="11.21055662940164"><ele>313.0</ele><time>2026-05-01T10:42:01Z</time></trkpt><trkpt lat="43.555628610049254" lon="11.210482554610714"><ele>313.0</ele><time>2026-05-01T10:42:02Z</time></trkpt><trkpt lat="43.55548235309037" lon="11.210418891293452"><ele>313.0</ele><time>2026-05-01T10:42:03Z</time></trkpt><trkpt lat="43.55533222225384" lon="11.2103655676498"><ele>313.0</ele><time>2026-05-01T10:42:04Z</time></trkpt><trkpt lat="43.55518042779039" lon="11.21031954800579"><ele>312.66666666666663</ele><time>2026-05-01T10:42:05Z</time></trkpt><trkpt lat="43.55502517675992" lon="11.210279829751686"><ele>312.3333333333333</ele><time>2026-05-01T10:42:06Z</time></trkpt><trkpt lat="43.55486958875852" lon="11.21025246703169"><ele>312.0</ele><time>2026-05-01T10:42:07Z</time></trkpt><trkpt lat="43.554715668918995" lon="11.210221549067317"><ele>312.0</ele><time>2026-05-01T10:42:08Z</time></trkpt><trkpt lat="43.554562515227275" lon="11.210199664582504"><ele>312.0</ele><time>2026-05-01T10:42:09Z</time></trkpt><trkpt lat="43.55440894083794" lon="11.210185322624344"><ele>312.0</ele><time>2026-05-01T10:42:10Z</time></trkpt><trkpt lat="43.55425489066391" lon="11.210179407226704"><ele>314.0</ele><time>2026-05-01T10:42:11Z</time></trkpt><trkpt lat="43.55409765439456" lon="11.210181221724943"><ele>316.0</ele><time>2026-05-01T10:42:12Z</time></trkpt><trkpt lat="43.55393535424885" lon="11.210183266207732"><ele>318.0</ele><time>2026-05-01T10:42:13Z</time></trkpt><trkpt lat="43.55376990630812" lon="11.210183049821211"><ele>317.0</ele><time>2026-05-01T10:42:14Z</time></trkpt><trkpt lat="43.55360036628551" lon="11.210185263480781"><ele>316.0</ele><time>2026-05-01T10:42:15Z</time></trkpt><trkpt lat="43.553432132627655" lon="11.210186970983544"><ele>315.0</ele><time>2026-05-01T10:42:16Z</time></trkpt><trkpt lat="43.55326447162845" lon="11.21018542375031"><ele>315.0</ele><time>2026-05-01T10:42:17Z</time></trkpt><trkpt lat="43.55309960002384" lon="11.210182206102541"><ele>315.0</ele><time>2026-05-01T10:42:18Z</time></trkpt><trkpt lat="43.55292996131411" lon="11.210180887841066"><ele>315.0</ele><time>2026-05-01T10:42:19Z</time></trkpt><trkpt lat="43.552757905339085" lon="11.21018271003118"><ele>314.6666666666667</ele><time>2026-05-01T10:42:20Z</time></trkpt><trkpt lat="43.55258843498063" lon="11.210185861692784"><ele>314.33333333333337</ele><time>2026-05-01T10:42:21Z</time></trkpt><trkpt lat="43.55242660966304" lon="11.210185089725405"><ele>314.0</ele><time>2026-05-01T10:42:22Z</time></trkpt><trkpt lat="43.55226091437802" lon="11.210187537129567"><ele>314.0</ele><time>2026-05-01T10:42:23Z</time></trkpt><trkpt lat="43.55209225615881" lon="11.210191781016386"><ele>314.0</ele><time>2026-05-01T10:42:24Z</time></trkpt><trkpt lat="43.55192411905459" lon="11.210200732452325"><ele>314.0</ele><time>2026-05-01T10:42:25Z</time></trkpt><trkpt lat="43.55174408666842" lon="11.210207888061614"><ele>311.33333333333337</ele><time>2026-05-01T10:42:26Z</time></trkpt><trkpt lat="43.55155837412119" lon="11.21021703120027"><ele>308.6666666666667</ele><time>2026-05-01T10:42:27Z</time></trkpt><trkpt lat="43.55137945198507" lon="11.210218681587465"><ele>306.0</ele><time>2026-05-01T10:42:28Z</time></trkpt><trkpt lat="43.55119787101985" lon="11.210219196288483"><ele>304.0</ele><time>2026-05-01T10:42:29Z</time></trkpt><trkpt lat="43.551021786356586" lon="11.210224173146898"><ele>302.0</ele><time>2026-05-01T10:42:30Z</time></trkpt><trkpt lat="43.55084902013511" lon="11.21022722344729"><ele>300.0</ele><time>2026-05-01T10:42:31Z</time></trkpt><trkpt lat="43.55067111056674" lon="11.210229251648403"><ele>300.0</ele><time>2026-05-01T10:42:32Z</time></trkpt><trkpt lat="43.55048811952059" lon="11.210231217373906"><ele>300.0</ele><time>2026-05-01T10:42:33Z</time></trkpt><trkpt lat="43.55030740653404" lon="11.210232555789219"><ele>300.0</ele><time>2026-05-01T10:42:34Z</time></trkpt><trkpt lat="43.55012270293699" lon="11.210236956252045"><ele>303.3333333333333</ele><time>2026-05-01T10:42:35Z</time></trkpt><trkpt lat="43.549937160823866" lon="11.210240415636747"><ele>306.66666666666663</ele><time>2026-05-01T10:42:36Z</time></trkpt><trkpt lat="43.549755894233655" lon="11.210245789769845"><ele>310.0</ele><time>2026-05-01T10:42:37Z</time></trkpt><trkpt lat="43.54956752777605" lon="11.210245777129872"><ele>310.3333333333333</ele><time>2026-05-01T10:42:38Z</time></trkpt><trkpt lat="43.5493784854423" lon="11.210251124247819"><ele>310.6666666666667</ele><time>2026-05-01T10:42:39Z</time></trkpt><trkpt lat="43.54919545576259" lon="11.210255566143257"><ele>311.0</ele><time>2026-05-01T10:42:40Z</time></trkpt><trkpt lat="43.549013412706785" lon="11.210262761394514"><ele>311.0</ele><time>2026-05-01T10:42:41Z</time></trkpt><trkpt lat="43.54883001855021" lon="11.210278190588358"><ele>311.0</ele><time>2026-05-01T10:42:42Z</time></trkpt><trkpt lat="43.548650638186636" lon="11.210309704783231"><ele>311.0</ele><time>2026-05-01T10:42:43Z</time></trkpt><trkpt lat="43.54846394199361" lon="11.210352806628254"><ele>308.33333333333337</ele><time>2026-05-01T10:42:44Z</time></trkpt><trkpt lat="43.54828188998066" lon="11.210403955160896"><ele>305.6666666666667</ele><time>2026-05-01T10:42:45Z</time></trkpt><trkpt lat="43.54809670692285" lon="11.2104644514837"><ele>303.0</ele><time>2026-05-01T10:42:46Z</time></trkpt><trkpt lat="43.54791753726762" lon="11.210533603348308"><ele>301.3333333333333</ele><time>2026-05-01T10:42:47Z</time></trkpt><trkpt lat="43.54773335518178" lon="11.210619103428943"><ele>299.66666666666663</ele><time>2026-05-01T10:42:48Z</time></trkpt><trkpt lat="43.54755505343551" lon="11.210712430918006"><ele>298.0</ele><time>2026-05-01T10:42:49Z</time></trkpt><trkpt lat="43.547380848289606" lon="11.210818500144832"><ele>296.66666666666663</ele><time>2026-05-01T10:42:50Z</time></trkpt><trkpt lat="43.547207609081816" lon="11.210932126526613"><ele>295.3333333333333</ele><time>2026-05-01T10:42:51Z</time></trkpt><trkpt lat="43.54704077756854" lon="11.211055655247776"><ele>294.0</ele><time>2026-05-01T10:42:52Z</time></trkpt><trkpt lat="43.54687842811676" lon="11.211190356056422"><ele>294.0</ele><time>2026-05-01T10:42:53Z</time></trkpt><trkpt lat="43.54672042354131" lon="11.21133005148027"><ele>294.0</ele><time>2026-05-01T10:42:54Z</time></trkpt><trkpt lat="43.54656433544793" lon="11.211471422158985"><ele>294.0</ele><time>2026-05-01T10:42:55Z</time></trkpt><trkpt lat="43.54640955953137" lon="11.21163288191021"><ele>294.3333333333333</ele><time>2026-05-01T10:42:56Z</time></trkpt><trkpt lat="43.54625814097595" lon="11.211793700157248"><ele>294.66666666666663</ele><time>2026-05-01T10:42:57Z</time></trkpt><trkpt lat="43.54610509717118" lon="11.211961802543215"><ele>295.0</ele><time>2026-05-01T10:42:58Z</time></trkpt><trkpt lat="43.54595294755185" lon="11.212135152423837"><ele>294.66666666666663</ele><time>2026-05-01T10:42:59Z</time></trkpt><trkpt lat="43.54579666215264" lon="11.212309475553731"><ele>294.3333333333333</ele><time>2026-05-01T10:43:00Z</time></trkpt><trkpt lat="43.54564881628973" lon="11.212477091578858"><ele>294.0</ele><time>2026-05-01T10:43:01Z</time></trkpt><trkpt lat="43.54550183351863" lon="11.212646031871133"><ele>293.3333333333333</ele><time>2026-05-01T10:43:02Z</time></trkpt><trkpt lat="43.54535511961814" lon="11.212813849933472"><ele>292.66666666666663</ele><time>2026-05-01T10:43:03Z</time></trkpt><trkpt lat="43.54520720760098" lon="11.212986832955776"><ele>292.0</ele><time>2026-05-01T10:43:04Z</time></trkpt><trkpt lat="43.545060046039325" lon="11.213165395731124"><ele>293.3333333333333</ele><time>2026-05-01T10:43:05Z</time></trkpt><trkpt lat="43.54491659874896" lon="11.213347529810479"><ele>294.6666666666667</ele><time>2026-05-01T10:43:06Z</time></trkpt><trkpt lat="43.54477595885845" lon="11.213533360638225"><ele>296.0</ele><time>2026-05-01T10:43:07Z</time></trkpt><trkpt lat="43.54463484674132" lon="11.213712218429583"><ele>296.0</ele><time>2026-05-01T10:43:08Z</time></trkpt><trkpt lat="43.5444992737482" lon="11.213900740696097"><ele>296.0</ele><time>2026-05-01T10:43:09Z</time></trkpt><trkpt lat="43.5443560488304" lon="11.214088729000423"><ele>296.0</ele><time>2026-05-01T10:43:10Z</time></trkpt><trkpt lat="43.5442189844611" lon="11.214286719869403"><ele>296.0</ele><time>2026-05-01T10:43:11Z</time></trkpt><trkpt lat="43.544083406597004" lon="11.214475263686507"><ele>296.0</ele><time>2026-05-01T10:43:12Z</time></trkpt><trkpt lat="43.5439502161916" lon="11.214665736616626"><ele>296.0</ele><time>2026-05-01T10:43:13Z</time></trkpt><trkpt lat="43.54382180461231" lon="11.214855293771654"><ele>293.6666666666667</ele><time>2026-05-01T10:43:14Z</time></trkpt><trkpt lat="43.54369803050513" lon="11.21504934588566"><ele>291.3333333333333</ele><time>2026-05-01T10:43:15Z</time></trkpt><trkpt lat="43.54357457787454" lon="11.215237761213356"><ele>289.0</ele><time>2026-05-01T10:43:16Z</time></trkpt><trkpt lat="43.543443900619366" lon="11.215439251429215"><ele>289.0</ele><time>2026-05-01T10:43:17Z</time></trkpt><trkpt lat="43.54331514237697" lon="11.215642578212352"><ele>289.0</ele><time>2026-05-01T10:43:18Z</time></trkpt><trkpt lat="43.54318841353519" lon="11.215843704609707"><ele>289.0</ele><time>2026-05-01T10:43:19Z</time></trkpt><trkpt lat="43.54306165706303" lon="11.216043813415467"><ele>289.0</ele><time>2026-05-01T10:43:20Z</time></trkpt><trkpt lat="43.5429351790527" lon="11.216235017040612"><ele>289.0</ele><time>2026-05-01T10:43:21Z</time></trkpt><trkpt lat="43.54280819061062" lon="11.216435234067546"><ele>289.0</ele><time>2026-05-01T10:43:22Z</time></trkpt><trkpt lat="43.5426811765843" lon="11.216638408436529"><ele>291.0</ele><time>2026-05-01T10:43:23Z</time></trkpt><trkpt lat="43.54255606280609" lon="11.216839597673886"><ele>293.0</ele><time>2026-05-01T10:43:24Z</time></trkpt><trkpt lat="43.54242641462527" lon="11.217041984533958"><ele>295.0</ele><time>2026-05-01T10:43:25Z</time></trkpt><trkpt lat="43.5422999885255" lon="11.217242575628205"><ele>296.0</ele><time>2026-05-01T10:43:26Z</time></trkpt><trkpt lat="43.542167317822845" lon="11.21745194002132"><ele>297.0</ele><time>2026-05-01T10:43:27Z</time></trkpt><trkpt lat="43.54203845536448" lon="11.217650772665081"><ele>298.0</ele><time>2026-05-01T10:43:28Z</time></trkpt><trkpt lat="43.54191305417692" lon="11.217854965854269"><ele>298.0</ele><time>2026-05-01T10:43:29Z</time></trkpt><trkpt lat="43.54178551974572" lon="11.218049491587683"><ele>298.0</ele><time>2026-05-01T10:43:30Z</time></trkpt><trkpt lat="43.541657898904184" lon="11.218246843578518"><ele>298.0</ele><time>2026-05-01T10:43:31Z</time></trkpt><trkpt lat="43.541518231604925" lon="11.218427810275987"><ele>299.66666666666663</ele><time>2026-05-01T10:43:32Z</time></trkpt><trkpt lat="43.54137857970588" lon="11.218604593749125"><ele>301.3333333333333</ele><time>2026-05-01T10:43:33Z</time></trkpt><trkpt lat="43.54123417765183" lon="11.21877979681416"><ele>303.0</ele><time>2026-05-01T10:43:34Z</time></trkpt><trkpt lat="43.54108961138352" lon="11.218945371212989"><ele>305.0</ele><time>2026-05-01T10:43:35Z</time></trkpt><trkpt lat="43.540934504525566" lon="11.21909963869217"><ele>307.0</ele><time>2026-05-01T10:43:36Z</time></trkpt><trkpt lat="43.54077667923365" lon="11.219240607838834"><ele>309.0</ele><time>2026-05-01T10:43:37Z</time></trkpt><trkpt lat="43.54061322928148" lon="11.219381075876727"><ele>309.0</ele><time>2026-05-01T10:43:38Z</time></trkpt><trkpt lat="43.54045102338083" lon="11.219522699384322"><ele>309.0</ele><time>2026-05-01T10:43:39Z</time></trkpt><trkpt lat="43.54027954476953" lon="11.219649597219098"><ele>309.0</ele><time>2026-05-01T10:43:40Z</time></trkpt><trkpt lat="43.54010654405927" lon="11.219768501240912"><ele>310.6666666666667</ele><time>2026-05-01T10:43:41Z</time></trkpt><trkpt lat="43.53992622468919" lon="11.219874649800936"><ele>312.33333333333337</ele><time>2026-05-01T10:43:42Z</time></trkpt><trkpt lat="43.539743697428214" lon="11.219974335712731"><ele>314.0</ele><time>2026-05-01T10:43:43Z</time></trkpt><trkpt lat="43.53955953409155" lon="11.220069551404986"><ele>313.0</ele><time>2026-05-01T10:43:44Z</time></trkpt><trkpt lat="43.539373109626666" lon="11.220151375559984"><ele>312.0</ele><time>2026-05-01T10:43:45Z</time></trkpt><trkpt lat="43.53918607020358" lon="11.22022164098502"><ele>311.0</ele><time>2026-05-01T10:43:46Z</time></trkpt><trkpt lat="43.53899619083532" lon="11.220284586192639"><ele>311.0</ele><time>2026-05-01T10:43:47Z</time></trkpt><trkpt lat="43.53880210937756" lon="11.220336716855476"><ele>311.0</ele><time>2026-05-01T10:43:48Z</time></trkpt><trkpt lat="43.53860445939543" lon="11.220382758300238"><ele>311.0</ele><time>2026-05-01T10:43:49Z</time></trkpt><trkpt lat="43.53841606108569" lon="11.220411024578695"><ele>311.33333333333337</ele><time>2026-05-01T10:43:50Z</time></trkpt><trkpt lat="43.53822901144608" lon="11.220440541156256"><ele>311.6666666666667</ele><time>2026-05-01T10:43:51Z</time></trkpt><trkpt lat="43.53804064397499" lon="11.220456718171285"><ele>312.0</ele><time>2026-05-01T10:43:52Z</time></trkpt><trkpt lat="43.53785191438471" lon="11.220463561493359"><ele>314.0</ele><time>2026-05-01T10:43:53Z</time></trkpt><trkpt lat="43.53766448972203" lon="11.22045749093154"><ele>316.0</ele><time>2026-05-01T10:43:54Z</time></trkpt><trkpt lat="43.53747436080559" lon="11.220448161875007"><ele>318.0</ele><time>2026-05-01T10:43:55Z</time></trkpt><trkpt lat="43.53728852884849" lon="11.220424494231604"><ele>318.0</ele><time>2026-05-01T10:43:56Z</time></trkpt><trkpt lat="43.53709960769463" lon="11.220388412801073"><ele>318.0</ele><time>2026-05-01T10:43:57Z</time></trkpt><trkpt lat="43.53690603644383" lon="11.220350853238797"><ele>318.0</ele><time>2026-05-01T10:43:58Z</time></trkpt><trkpt lat="43.53671455242049" lon="11.220299556646479"><ele>318.0</ele><time>2026-05-01T10:43:59Z</time></trkpt><trkpt lat="43.53651961975998" lon="11.22023290327422"><ele>318.0</ele><time>2026-05-01T10:44:00Z</time></trkpt><trkpt lat="43.53632784731602" lon="11.220166097798744"><ele>318.0</ele><time>2026-05-01T10:44:01Z</time></trkpt><trkpt lat="43.536142485944005" lon="11.2200810699769"><ele>318.0</ele><time>2026-05-01T10:44:02Z</time></trkpt><trkpt lat="43.5359594649017" lon="11.219989730333053"><ele>318.0</ele><time>2026-05-01T10:44:03Z</time></trkpt><trkpt lat="43.535781174095945" lon="11.219896316559712"><ele>318.0</ele><time>2026-05-01T10:44:04Z</time></trkpt><trkpt lat="43.53560465016952" lon="11.219789594926851"><ele>317.0</ele><time>2026-05-01T10:44:05Z</time></trkpt><trkpt lat="43.53542877778569" lon="11.219672096853811"><ele>316.0</ele><time>2026-05-01T10:44:06Z</time></trkpt><trkpt lat="43.53525441542689" lon="11.219550740874043"><ele>315.0</ele><time>2026-05-01T10:44:07Z</time></trkpt><trkpt lat="43.535082959272636" lon="11.219420005854069"><ele>315.0</ele><time>2026-05-01T10:44:08Z</time></trkpt><trkpt lat="43.5349142877783" lon="11.219287053015648"><ele>315.0</ele><time>2026-05-01T10:44:09Z</time></trkpt><trkpt lat="43.53474859525261" lon="11.219135839744997"><ele>315.0</ele><time>2026-05-01T10:44:10Z</time></trkpt><trkpt lat="43.53459274865817" lon="11.218978391884383"><ele>313.3333333333333</ele><time>2026-05-01T10:44:11Z</time></trkpt><trkpt lat="43.534435572281446" lon="11.218816104000329"><ele>311.66666666666663</ele><time>2026-05-01T10:44:12Z</time></trkpt><trkpt lat="43.53428444183959" lon="11.218640063678288"><ele>310.0</ele><time>2026-05-01T10:44:13Z</time></trkpt><trkpt lat="43.53413266003548" lon="11.218460657830052"><ele>310.0</ele><time>2026-05-01T10:44:14Z</time></trkpt><trkpt lat="43.53399270245657" lon="11.218278826275455"><ele>310.0</ele><time>2026-05-01T10:44:15Z</time></trkpt><trkpt lat="43.53386413267943" lon="11.218097336251798"><ele>310.0</ele><time>2026-05-01T10:44:16Z</time></trkpt><trkpt lat="43.53374202969086" lon="11.217914167114278"><ele>308.3333333333333</ele><time>2026-05-01T10:44:17Z</time></trkpt><trkpt lat="43.53362986130395" lon="11.217729791103258"><ele>306.6666666666667</ele><time>2026-05-01T10:44:18Z</time></trkpt><trkpt lat="43.533519304349376" lon="11.217556816632095"><ele>305.0</ele><time>2026-05-01T10:44:19Z</time></trkpt><trkpt lat="43.5334084556069" lon="11.217385533064094"><ele>306.0</ele><time>2026-05-01T10:44:20Z</time></trkpt><trkpt lat="43.533296815744414" lon="11.217218878150723"><ele>307.0</ele><time>2026-05-01T10:44:21Z</time></trkpt><trkpt lat="43.533192571133476" lon="11.217055025644072"><ele>308.0</ele><time>2026-05-01T10:44:22Z</time></trkpt><trkpt lat="43.53308749056388" lon="11.216891657380911"><ele>308.0</ele><time>2026-05-01T10:44:23Z</time></trkpt><trkpt lat="43.53297496171838" lon="11.216724620292192"><ele>308.0</ele><time>2026-05-01T10:44:24Z</time></trkpt><trkpt lat="43.53285450405254" lon="11.216549839395347"><ele>308.0</ele><time>2026-05-01T10:44:25Z</time></trkpt><trkpt lat="43.532733528114576" lon="11.216376260445019"><ele>304.6666666666667</ele><time>2026-05-01T10:44:26Z</time></trkpt><trkpt lat="43.53262238579033" lon="11.216204739250323"><ele>301.3333333333333</ele><time>2026-05-01T10:44:27Z</time></trkpt><trkpt lat="43.532512462830034" lon="11.216031839602158"><ele>298.0</ele><time>2026-05-01T10:44:28Z</time></trkpt><trkpt lat="43.53240450449168" lon="11.21586186287091"><ele>298.0</ele><time>2026-05-01T10:44:29Z</time></trkpt><trkpt lat="43.53229262384454" lon="11.215684877368501"><ele>298.0</ele><time>2026-05-01T10:44:30Z</time></trkpt><trkpt lat="43.532179896939134" lon="11.215502630194958"><ele>298.0</ele><time>2026-05-01T10:44:31Z</time></trkpt><trkpt lat="43.532062403302085" lon="11.215322037616955"><ele>291.66666666666663</ele><time>2026-05-01T10:44:32Z</time></trkpt><trkpt lat="43.53194432821713" lon="11.215136333191412"><ele>285.3333333333333</ele><time>2026-05-01T10:44:33Z</time></trkpt><trkpt lat="43.53182449878759" lon="11.214945755600036"><ele>279.0</ele><time>2026-05-01T10:44:34Z</time></trkpt><trkpt lat="43.53171011587461" lon="11.214758090383599"><ele>278.3333333333333</ele><time>2026-05-01T10:44:35Z</time></trkpt><trkpt lat="43.53160038106328" lon="11.214560376319834"><ele>277.66666666666663</ele><time>2026-05-01T10:44:36Z</time></trkpt><trkpt lat="43.5314925513811" lon="11.214355793667941"><ele>277.0</ele><time>2026-05-01T10:44:37Z</time></trkpt><trkpt lat="43.53138869536788" lon="11.214140877096868"><ele>275.66666666666663</ele><time>2026-05-01T10:44:38Z</time></trkpt><trkpt lat="43.53129390862788" lon="11.21392825660121"><ele>274.3333333333333</ele><time>2026-05-01T10:44:39Z</time></trkpt><trkpt lat="43.53120615905494" lon="11.213706242590384"><ele>273.0</ele><time>2026-05-01T10:44:40Z</time></trkpt><trkpt lat="43.53112829076247" lon="11.213473386371001"><ele>279.3333333333333</ele><time>2026-05-01T10:44:41Z</time></trkpt><trkpt lat="43.53105722693259" lon="11.213234747340906"><ele>285.66666666666663</ele><time>2026-05-01T10:44:42Z</time></trkpt><trkpt lat="43.530991257102045" lon="11.21299403026052"><ele>292.0</ele><time>2026-05-01T10:44:43Z</time></trkpt><trkpt lat="43.53093091647663" lon="11.212747635816907"><ele>292.0</ele><time>2026-05-01T10:44:44Z</time></trkpt><trkpt lat="43.530868342930745" lon="11.212502108780141"><ele>292.0</ele><time>2026-05-01T10:44:45Z</time></trkpt><trkpt lat="43.530791975991995" lon="11.21224962051308"><ele>292.0</ele><time>2026-05-01T10:44:46Z</time></trkpt><trkpt lat="43.530721478099494" lon="11.211998472555816"><ele>290.66666666666663</ele><time>2026-05-01T10:44:47Z</time></trkpt><trkpt lat="43.53064820343901" lon="11.211746371273566"><ele>289.3333333333333</ele><time>2026-05-01T10:44:48Z</time></trkpt><trkpt lat="43.53056830720951" lon="11.211493714903026"><ele>288.0</ele><time>2026-05-01T10:44:49Z</time></trkpt><trkpt lat="43.530481274345206" lon="11.2112466572487"><ele>288.6666666666667</ele><time>2026-05-01T10:44:50Z</time></trkpt><trkpt lat="43.530386419566256" lon="11.211000958032772"><ele>289.33333333333337</ele><time>2026-05-01T10:44:51Z</time></trkpt><trkpt lat="43.53028582855475" lon="11.210761151846922"><ele>290.0</ele><time>2026-05-01T10:44:52Z</time></trkpt><trkpt lat="43.530176987789034" lon="11.210531575879324"><ele>290.0</ele><time>2026-05-01T10:44:53Z</time></trkpt><trkpt lat="43.53005871858479" lon="11.210307529387954"><ele>290.0</ele><time>2026-05-01T10:44:54Z</time></trkpt><trkpt lat="43.52993326796368" lon="11.210087553251974"><ele>290.0</ele><time>2026-05-01T10:44:55Z</time></trkpt><trkpt lat="43.52979960873112" lon="11.209876198476952"><ele>289.6666666666667</ele><time>2026-05-01T10:44:56Z</time></trkpt><trkpt lat="43.52965804777269" lon="11.209670160700938"><ele>289.3333333333333</ele><time>2026-05-01T10:44:57Z</time></trkpt><trkpt lat="43.529509524528166" lon="11.209467740462792"><ele>289.0</ele><time>2026-05-01T10:44:58Z</time></trkpt><trkpt lat="43.5293637393164" lon="11.20927229183293"><ele>287.66666666666663</ele><time>2026-05-01T10:44:59Z</time></trkpt><trkpt lat="43.52922707104274" lon="11.209072037381581"><ele>286.3333333333333</ele><time>2026-05-01T10:45:00Z</time></trkpt><trkpt lat="43.52908764451697" lon="11.208871889465557"><ele>285.0</ele><time>2026-05-01T10:45:01Z</time></trkpt><trkpt lat="43.5289503582502" lon="11.208670019771853"><ele>285.0</ele><time>2026-05-01T10:45:02Z</time></trkpt><trkpt lat="43.52881900424332" lon="11.208460508240618"><ele>285.0</ele><time>2026-05-01T10:45:03Z</time></trkpt><trkpt lat="43.52869557401813" lon="11.20823783505278"><ele>285.0</ele><time>2026-05-01T10:45:04Z</time></trkpt><trkpt lat="43.528579828720325" lon="11.208012597408702"><ele>287.0</ele><time>2026-05-01T10:45:05Z</time></trkpt><trkpt lat="43.52847258299067" lon="11.207786666066513"><ele>289.0</ele><time>2026-05-01T10:45:06Z</time></trkpt><trkpt lat="43.528371828848734" lon="11.207558654952589"><ele>291.0</ele><time>2026-05-01T10:45:07Z</time></trkpt><trkpt lat="43.528276557933566" lon="11.207328848961838"><ele>292.0</ele><time>2026-05-01T10:45:08Z</time></trkpt><trkpt lat="43.528180925246865" lon="11.20709893726409"><ele>293.0</ele><time>2026-05-01T10:45:09Z</time></trkpt><trkpt lat="43.52808431540106" lon="11.206875617314946"><ele>294.0</ele><time>2026-05-01T10:45:10Z</time></trkpt><trkpt lat="43.52798658864354" lon="11.206651177800133"><ele>294.0</ele><time>2026-05-01T10:45:11Z</time></trkpt><trkpt lat="43.527889312126234" lon="11.206425816815116"><ele>294.0</ele><time>2026-05-01T10:45:12Z</time></trkpt><trkpt lat="43.52779298038875" lon="11.206202119820018"><ele>294.0</ele><time>2026-05-01T10:45:13Z</time></trkpt><trkpt lat="43.52769859405459" lon="11.205969134699084"><ele>294.0</ele><time>2026-05-01T10:45:14Z</time></trkpt><trkpt lat="43.52760384075051" lon="11.205738911890476"><ele>294.0</ele><time>2026-05-01T10:45:15Z</time></trkpt><trkpt lat="43.52750676197709" lon="11.205508309708543"><ele>294.0</ele><time>2026-05-01T10:45:16Z</time></trkpt><trkpt lat="43.527412444229626" lon="11.20527809339942"><ele>291.0</ele><time>2026-05-01T10:45:17Z</time></trkpt><trkpt lat="43.527312958362955" lon="11.205044627497536"><ele>288.0</ele><time>2026-05-01T10:45:18Z</time></trkpt><trkpt lat="43.52721173936357" lon="11.204815792884467"><ele>285.0</ele><time>2026-05-01T10:45:19Z</time></trkpt><trkpt lat="43.52711711951678" lon="11.204582763045217"><ele>286.3333333333333</ele><time>2026-05-01T10:45:20Z</time></trkpt><trkpt lat="43.52701935934887" lon="11.20435002405632"><ele>287.66666666666663</ele><time>2026-05-01T10:45:21Z</time></trkpt><trkpt lat="43.526921485006156" lon="11.204117799548458"><ele>289.0</ele><time>2026-05-01T10:45:22Z</time></trkpt><trkpt lat="43.52682346341299" lon="11.203887356153272"><ele>289.0</ele><time>2026-05-01T10:45:23Z</time></trkpt><trkpt lat="43.52671983808922" lon="11.20365758498444"><ele>289.0</ele><time>2026-05-01T10:45:24Z</time></trkpt><trkpt lat="43.52662084954754" lon="11.20342612431527"><ele>289.0</ele><time>2026-05-01T10:45:25Z</time></trkpt><trkpt lat="43.5265112999021" lon="11.203200255405607"><ele>289.3333333333333</ele><time>2026-05-01T10:45:26Z</time></trkpt><trkpt lat="43.52640740960369" lon="11.202977081151163"><ele>289.6666666666667</ele><time>2026-05-01T10:45:27Z</time></trkpt><trkpt lat="43.526294883716666" lon="11.202781593710801"><ele>290.0</ele><time>2026-05-01T10:45:28Z</time></trkpt><trkpt lat="43.52618500707834" lon="11.20258508538906"><ele>290.0</ele><time>2026-05-01T10:45:29Z</time></trkpt><trkpt lat="43.52606895407946" lon="11.202403513589127"><ele>290.0</ele><time>2026-05-01T10:45:30Z</time></trkpt><trkpt lat="43.52596170616867" lon="11.202223377741223"><ele>290.0</ele><time>2026-05-01T10:45:31Z</time></trkpt><trkpt lat="43.52584837044137" lon="11.202042716427181"><ele>290.33333333333337</ele><time>2026-05-01T10:45:32Z</time></trkpt><trkpt lat="43.52573522107628" lon="11.201861989943504"><ele>290.6666666666667</ele><time>2026-05-01T10:45:33Z</time></trkpt><trkpt lat="43.525618759993996" lon="11.201693098803444"><ele>291.0</ele><time>2026-05-01T10:45:34Z</time></trkpt><trkpt lat="43.52549486800851" lon="11.201523752697376"><ele>288.0</ele><time>2026-05-01T10:45:35Z</time></trkpt><trkpt lat="43.525373168937946" lon="11.201355883189036"><ele>285.0</ele><time>2026-05-01T10:45:36Z</time></trkpt><trkpt lat="43.52525193724834" lon="11.201191932902326"><ele>282.0</ele><time>2026-05-01T10:45:37Z</time></trkpt><trkpt lat="43.52513131722157" lon="11.201037347303512"><ele>282.0</ele><time>2026-05-01T10:45:38Z</time></trkpt><trkpt lat="43.52500758615043" lon="11.20088373459587"><ele>282.0</ele><time>2026-05-01T10:45:39Z</time></trkpt><trkpt lat="43.524875063420694" lon="11.20073276007338"><ele>282.0</ele><time>2026-05-01T10:45:40Z</time></trkpt><trkpt lat="43.52474439190125" lon="11.200582435280928"><ele>282.3333333333333</ele><time>2026-05-01T10:45:41Z</time></trkpt><trkpt lat="43.52460685096281" lon="11.200434935369323"><ele>282.66666666666663</ele><time>2026-05-01T10:45:42Z</time></trkpt><trkpt lat="43.52446212857054" lon="11.200292518924885"><ele>283.0</ele><time>2026-05-01T10:45:43Z</time></trkpt><trkpt lat="43.524320654790984" lon="11.200149138760743"><ele>281.3333333333333</ele><time>2026-05-01T10:45:44Z</time></trkpt><trkpt lat="43.524176407324724" lon="11.20000944460819"><ele>279.6666666666667</ele><time>2026-05-01T10:45:45Z</time></trkpt><trkpt lat="43.524027445819506" lon="11.199875086899269"><ele>278.0</ele><time>2026-05-01T10:45:46Z</time></trkpt><trkpt lat="43.52387716508542" lon="11.199736862363107"><ele>276.0</ele><time>2026-05-01T10:45:47Z</time></trkpt><trkpt lat="43.523724738966884" lon="11.19960182910904"><ele>274.0</ele><time>2026-05-01T10:45:48Z</time></trkpt><trkpt lat="43.52357351460611" lon="11.199473485790909"><ele>272.0</ele><time>2026-05-01T10:45:49Z</time></trkpt><trkpt lat="43.52341745201374" lon="11.199353184433615"><ele>272.0</ele><time>2026-05-01T10:45:50Z</time></trkpt><trkpt lat="43.52325669779288" lon="11.199231262188789"><ele>272.0</ele><time>2026-05-01T10:45:51Z</time></trkpt><trkpt lat="43.52308585952308" lon="11.199110221747658"><ele>272.0</ele><time>2026-05-01T10:45:52Z</time></trkpt><trkpt lat="43.5229160929547" lon="11.199001197048883"><ele>270.6666666666667</ele><time>2026-05-01T10:45:53Z</time></trkpt><trkpt lat="43.5227447934933" lon="11.198891263895222"><ele>269.3333333333333</ele><time>2026-05-01T10:45:54Z</time></trkpt><trkpt lat="43.52256755967559" lon="11.198790254924663"><ele>268.0</ele><time>2026-05-01T10:45:55Z</time></trkpt><trkpt lat="43.522391113674246" lon="11.198688464200275"><ele>268.0</ele><time>2026-05-01T10:45:56Z</time></trkpt><trkpt lat="43.522212005193886" lon="11.198588827294746"><ele>268.0</ele><time>2026-05-01T10:45:57Z</time></trkpt><trkpt lat="43.522030633709655" lon="11.198496428777753"><ele>268.0</ele><time>2026-05-01T10:45:58Z</time></trkpt><trkpt lat="43.52184963661868" lon="11.198400563812152"><ele>269.0</ele><time>2026-05-01T10:45:59Z</time></trkpt><trkpt lat="43.52166548350606" lon="11.198299230518128"><ele>270.0</ele><time>2026-05-01T10:46:00Z</time></trkpt><trkpt lat="43.52148031585444" lon="11.198197703210635"><ele>271.0</ele><time>2026-05-01T10:46:01Z</time></trkpt><trkpt lat="43.52129586476556" lon="11.198103003478444"><ele>268.0</ele><time>2026-05-01T10:46:02Z</time></trkpt><trkpt lat="43.52111832698344" lon="11.198004767496865"><ele>265.0</ele><time>2026-05-01T10:46:03Z</time></trkpt><trkpt lat="43.520937001048814" lon="11.197903652240191"><ele>262.0</ele><time>2026-05-01T10:46:04Z</time></trkpt><trkpt lat="43.52075430046731" lon="11.197808254062547"><ele>262.0</ele><time>2026-05-01T10:46:05Z</time></trkpt><trkpt lat="43.52057187229735" lon="11.19771202418422"><ele>262.0</ele><time>2026-05-01T10:46:06Z</time></trkpt><trkpt lat="43.52038896278499" lon="11.19761785431691"><ele>262.0</ele><time>2026-05-01T10:46:07Z</time></trkpt><trkpt lat="43.52020291049714" lon="11.197532027069824"><ele>260.66666666666663</ele><time>2026-05-01T10:46:08Z</time></trkpt><trkpt lat="43.52001807654116" lon="11.197437732958647"><ele>259.3333333333333</ele><time>2026-05-01T10:46:09Z</time></trkpt><trkpt lat="43.51982773179906" lon="11.19736329313108"><ele>258.0</ele><time>2026-05-01T10:46:10Z</time></trkpt><trkpt lat="43.51963582229348" lon="11.19729151272646"><ele>257.3333333333333</ele><time>2026-05-01T10:46:11Z</time></trkpt><trkpt lat="43.51943906524167" lon="11.19723161550573"><ele>256.66666666666663</ele><time>2026-05-01T10:46:12Z</time></trkpt><trkpt lat="43.51924461873705" lon="11.197179137280756"><ele>256.0</ele><time>2026-05-01T10:46:13Z</time></trkpt><trkpt lat="43.51904959440534" lon="11.197145892597508"><ele>256.0</ele><time>2026-05-01T10:46:14Z</time></trkpt><trkpt lat="43.51885342929946" lon="11.197111007747127"><ele>256.0</ele><time>2026-05-01T10:46:15Z</time></trkpt><trkpt lat="43.51865230256849" lon="11.197082004766314"><ele>256.0</ele><time>2026-05-01T10:46:16Z</time></trkpt><trkpt lat="43.518451992504" lon="11.197061688422254"><ele>255.66666666666666</ele><time>2026-05-01T10:46:17Z</time></trkpt><trkpt lat="43.51824947531761" lon="11.197048354365052"><ele>255.33333333333331</ele><time>2026-05-01T10:46:18Z</time></trkpt><trkpt lat="43.51805440689233" lon="11.197036258222827"><ele>255.0</ele><time>2026-05-01T10:46:19Z</time></trkpt><trkpt lat="43.51785917345125" lon="11.19702824116495"><ele>254.33333333333331</ele><time>2026-05-01T10:46:20Z</time></trkpt><trkpt lat="43.51766375981988" lon="11.197026278586014"><ele>253.66666666666666</ele><time>2026-05-01T10:46:21Z</time></trkpt><trkpt lat="43.51747022305731" lon="11.197016813964444"><ele>253.0</ele><time>2026-05-01T10:46:22Z</time></trkpt><trkpt lat="43.517273583079664" lon="11.197007795897708"><ele>253.0</ele><time>2026-05-01T10:46:23Z</time></trkpt><trkpt lat="43.51708059759755" lon="11.196993553949659"><ele>253.0</ele><time>2026-05-01T10:46:24Z</time></trkpt><trkpt lat="43.51688146493559" lon="11.196987806879164"><ele>253.0</ele><time>2026-05-01T10:46:25Z</time></trkpt><trkpt lat="43.51667938848399" lon="11.196977196793345"><ele>250.66666666666666</ele><time>2026-05-01T10:46:26Z</time></trkpt><trkpt lat="43.516483388987034" lon="11.196956717806655"><ele>248.33333333333331</ele><time>2026-05-01T10:46:27Z</time></trkpt><trkpt lat="43.51628654633074" lon="11.196929676334465"><ele>246.0</ele><time>2026-05-01T10:46:28Z</time></trkpt><trkpt lat="43.516090920389686" lon="11.196892732760915"><ele>242.0</ele><time>2026-05-01T10:46:29Z</time></trkpt><trkpt lat="43.51589816936866" lon="11.1968410957382"><ele>238.0</ele><time>2026-05-01T10:46:30Z</time></trkpt><trkpt lat="43.515708269677845" lon="11.196779904374203"><ele>234.0</ele><time>2026-05-01T10:46:31Z</time></trkpt><trkpt lat="43.515525695610336" lon="11.196695305430154"><ele>233.0</ele><time>2026-05-01T10:46:32Z</time></trkpt><trkpt lat="43.51535157743817" lon="11.196602158384525"><ele>232.0</ele><time>2026-05-01T10:46:33Z</time></trkpt><trkpt lat="43.51517871833361" lon="11.196501519906828"><ele>231.0</ele><time>2026-05-01T10:46:34Z</time></trkpt><trkpt lat="43.5150100996186" lon="11.19638683538603"><ele>230.0</ele><time>2026-05-01T10:46:35Z</time></trkpt><trkpt lat="43.51484168125706" lon="11.196262245654086"><ele>229.0</ele><time>2026-05-01T10:46:36Z</time></trkpt><trkpt lat="43.51467594048368" lon="11.196136506634625"><ele>228.0</ele><time>2026-05-01T10:46:37Z</time></trkpt><trkpt lat="43.51451506170977" lon="11.195993639872952"><ele>231.0</ele><time>2026-05-01T10:46:38Z</time></trkpt><trkpt lat="43.51436361458544" lon="11.195837722854277"><ele>234.0</ele><time>2026-05-01T10:46:39Z</time></trkpt><trkpt lat="43.514215910830394" lon="11.195665662944977"><ele>237.0</ele><time>2026-05-01T10:46:40Z</time></trkpt><trkpt lat="43.51407207307835" lon="11.19548422535495"><ele>237.0</ele><time>2026-05-01T10:46:41Z</time></trkpt><trkpt lat="43.51393546956823" lon="11.195291472566597"><ele>237.0</ele><time>2026-05-01T10:46:42Z</time></trkpt><trkpt lat="43.513809384846546" lon="11.195083289353192"><ele>237.0</ele><time>2026-05-01T10:46:43Z</time></trkpt><trkpt lat="43.51368335774301" lon="11.194874580638599"><ele>237.33333333333331</ele><time>2026-05-01T10:46:44Z</time></trkpt><trkpt lat="43.513564747136925" lon="11.194656038259593"><ele>237.66666666666666</ele><time>2026-05-01T10:46:45Z</time></trkpt><trkpt lat="43.51345632529594" lon="11.194422595378244"><ele>238.0</ele><time>2026-05-01T10:46:46Z</time></trkpt><trkpt lat="43.51336086243747" lon="11.194178101410966"><ele>234.66666666666666</ele><time>2026-05-01T10:46:47Z</time></trkpt><trkpt lat="43.51326716774055" lon="11.193949522765621"><ele>231.33333333333331</ele><time>2026-05-01T10:46:48Z</time></trkpt><trkpt lat="43.513165006024295" lon="11.19371822675619"><ele>228.0</ele><time>2026-05-01T10:46:49Z</time></trkpt><trkpt lat="43.51305524660196" lon="11.193488867501253"><ele>228.0</ele><time>2026-05-01T10:46:50Z</time></trkpt><trkpt lat="43.51293337165784" lon="11.19327005321186"><ele>228.0</ele><time>2026-05-01T10:46:51Z</time></trkpt><trkpt lat="43.5128113568065" lon="11.193055256742046"><ele>228.0</ele><time>2026-05-01T10:46:52Z</time></trkpt><trkpt lat="43.512670844872424" lon="11.192847211965814"><ele>228.0</ele><time>2026-05-01T10:46:53Z</time></trkpt><trkpt lat="43.51253620004346" lon="11.192645962894629"><ele>228.0</ele><time>2026-05-01T10:46:54Z</time></trkpt><trkpt lat="43.51239092999267" lon="11.19245401288452"><ele>228.0</ele><time>2026-05-01T10:46:55Z</time></trkpt><trkpt lat="43.51223689160687" lon="11.192273344097678"><ele>226.66666666666669</ele><time>2026-05-01T10:46:56Z</time></trkpt><trkpt lat="43.51207520214004" lon="11.19209938837973"><ele>225.33333333333334</ele><time>2026-05-01T10:46:57Z</time></trkpt><trkpt lat="43.51190700591935" lon="11.191935756993429"><ele>224.0</ele><time>2026-05-01T10:46:58Z</time></trkpt><trkpt lat="43.51173815558526" lon="11.191776884346227"><ele>224.0</ele><time>2026-05-01T10:46:59Z</time></trkpt><trkpt lat="43.51157146330266" lon="11.191618708533216"><ele>224.0</ele><time>2026-05-01T10:47:00Z</time></trkpt><trkpt lat="43.51139842024552" lon="11.191469913007044"><ele>224.0</ele><time>2026-05-01T10:47:01Z</time></trkpt><trkpt lat="43.5112231972412" lon="11.191313046680202"><ele>221.33333333333334</ele><time>2026-05-01T10:47:02Z</time></trkpt><trkpt lat="43.51105109025726" lon="11.191152777928142"><ele>218.66666666666669</ele><time>2026-05-01T10:47:03Z</time></trkpt><trkpt lat="43.51087152078696" lon="11.191009486550971"><ele>216.0</ele><time>2026-05-01T10:47:04Z</time></trkpt><trkpt lat="43.51068824967006" lon="11.190883976712009"><ele>216.0</ele><time>2026-05-01T10:47:05Z</time></trkpt><trkpt lat="43.51050445095261" lon="11.19075634269799"><ele>216.0</ele><time>2026-05-01T10:47:06Z</time></trkpt><trkpt lat="43.51031902670412" lon="11.190637538485305"><ele>216.0</ele><time>2026-05-01T10:47:07Z</time></trkpt><trkpt lat="43.510131299817715" lon="11.190526630512739"><ele>215.0</ele><time>2026-05-01T10:47:08Z</time></trkpt><trkpt lat="43.50994374486338" lon="11.190419446784471"><ele>214.0</ele><time>2026-05-01T10:47:09Z</time></trkpt><trkpt lat="43.509751687260255" lon="11.19032700717459"><ele>213.0</ele><time>2026-05-01T10:47:10Z</time></trkpt><trkpt lat="43.509557301730666" lon="11.190246160474478"><ele>213.0</ele><time>2026-05-01T10:47:11Z</time></trkpt><trkpt lat="43.50936752645474" lon="11.190154610422267"><ele>213.0</ele><time>2026-05-01T10:47:12Z</time></trkpt><trkpt lat="43.5091739255737" lon="11.190076983326355"><ele>213.0</ele><time>2026-05-01T10:47:13Z</time></trkpt><trkpt lat="43.50897047904173" lon="11.190011307139793"><ele>213.0</ele><time>2026-05-01T10:47:14Z</time></trkpt><trkpt lat="43.508769603760435" lon="11.189945627573396"><ele>213.0</ele><time>2026-05-01T10:47:15Z</time></trkpt><trkpt lat="43.50856177354086" lon="11.189884123261896"><ele>213.0</ele><time>2026-05-01T10:47:16Z</time></trkpt><trkpt lat="43.50835908326965" lon="11.189816059026779"><ele>210.33333333333331</ele><time>2026-05-01T10:47:17Z</time></trkpt><trkpt lat="43.50815368540845" lon="11.189754265159905"><ele>207.66666666666666</ele><time>2026-05-01T10:47:18Z</time></trkpt><trkpt lat="43.5079458184622" lon="11.189698898339246"><ele>205.0</ele><time>2026-05-01T10:47:19Z</time></trkpt><trkpt lat="43.50774466754273" lon="11.189636815403011"><ele>205.0</ele><time>2026-05-01T10:47:20Z</time></trkpt><trkpt lat="43.507538021932554" lon="11.189579498224404"><ele>205.0</ele><time>2026-05-01T10:47:21Z</time></trkpt><trkpt lat="43.5073347042173" lon="11.189515251203426"><ele>205.0</ele><time>2026-05-01T10:47:22Z</time></trkpt><trkpt lat="43.50712649226156" lon="11.189452503066889"><ele>204.66666666666666</ele><time>2026-05-01T10:47:23Z</time></trkpt><trkpt lat="43.50692000562692" lon="11.189384120081627"><ele>204.33333333333331</ele><time>2026-05-01T10:47:24Z</time></trkpt><trkpt lat="43.50671378949921" lon="11.189318198690396"><ele>204.0</ele><time>2026-05-01T10:47:25Z</time></trkpt><trkpt lat="43.506515264326445" lon="11.189267080463729"><ele>204.0</ele><time>2026-05-01T10:47:26Z</time></trkpt><trkpt lat="43.50631472986168" lon="11.189215483025805"><ele>204.0</ele><time>2026-05-01T10:47:27Z</time></trkpt><trkpt lat="43.506104692153855" lon="11.189172075763008"><ele>204.0</ele><time>2026-05-01T10:47:28Z</time></trkpt><trkpt lat="43.50590302244177" lon="11.189106467441635"><ele>203.33333333333331</ele><time>2026-05-01T10:47:29Z</time></trkpt><trkpt lat="43.50570341821273" lon="11.189033659319225"><ele>202.66666666666666</ele><time>2026-05-01T10:47:30Z</time></trkpt><trkpt lat="43.50550740242279" lon="11.188955161652093"><ele>202.0</ele><time>2026-05-01T10:47:31Z</time></trkpt><trkpt lat="43.50531087700457" lon="11.18887229526924"><ele>199.33333333333331</ele><time>2026-05-01T10:47:32Z</time></trkpt><trkpt lat="43.50511715010496" lon="11.188780527052677"><ele>196.66666666666669</ele><time>2026-05-01T10:47:33Z</time></trkpt><trkpt lat="43.50492161525954" lon="11.188688670721742"><ele>194.0</ele><time>2026-05-01T10:47:34Z</time></trkpt><trkpt lat="43.50473187319392" lon="11.188596347880345"><ele>195.0</ele><time>2026-05-01T10:47:35Z</time></trkpt><trkpt lat="43.50454191923151" lon="11.188504130572133"><ele>196.0</ele><time>2026-05-01T10:47:36Z</time></trkpt><trkpt lat="43.504347926497296" lon="11.188411201645557"><ele>197.0</ele><time>2026-05-01T10:47:37Z</time></trkpt><trkpt lat="43.50415607686959" lon="11.18831201921376"><ele>197.0</ele><time>2026-05-01T10:47:38Z</time></trkpt><trkpt lat="43.503959307319114" lon="11.188224988863501"><ele>197.0</ele><time>2026-05-01T10:47:39Z</time></trkpt><trkpt lat="43.50376980123454" lon="11.188134860930187"><ele>197.0</ele><time>2026-05-01T10:47:40Z</time></trkpt><trkpt lat="43.50358547436055" lon="11.188044910213629"><ele>195.0</ele><time>2026-05-01T10:47:41Z</time></trkpt><trkpt lat="43.50339530207266" lon="11.187954085826387"><ele>193.0</ele><time>2026-05-01T10:47:42Z</time></trkpt><trkpt lat="43.50320346458382" lon="11.187867196580573"><ele>191.0</ele><time>2026-05-01T10:47:43Z</time></trkpt><trkpt lat="43.50300926802706" lon="11.187791865641584"><ele>192.0</ele><time>2026-05-01T10:47:44Z</time></trkpt><trkpt lat="43.502812533350145" lon="11.18770500135398"><ele>193.0</ele><time>2026-05-01T10:47:45Z</time></trkpt><trkpt lat="43.502626745247355" lon="11.187615783215088"><ele>194.0</ele><time>2026-05-01T10:47:46Z</time></trkpt><trkpt lat="43.50244603052711" lon="11.187529270139304"><ele>194.0</ele><time>2026-05-01T10:47:47Z</time></trkpt><trkpt lat="43.50225988128986" lon="11.187442214176754"><ele>194.0</ele><time>2026-05-01T10:47:48Z</time></trkpt><trkpt lat="43.50207371323086" lon="11.187358274292551"><ele>194.0</ele><time>2026-05-01T10:47:49Z</time></trkpt><trkpt lat="43.501887352937786" lon="11.187264428101866"><ele>190.33333333333334</ele><time>2026-05-01T10:47:50Z</time></trkpt><trkpt lat="43.501703692068155" lon="11.187159454109867"><ele>186.66666666666669</ele><time>2026-05-01T10:47:51Z</time></trkpt><trkpt lat="43.50152326522398" lon="11.187043510878773"><ele>183.0</ele><time>2026-05-01T10:47:52Z</time></trkpt><trkpt lat="43.50134759216012" lon="11.186912921423954"><ele>183.0</ele><time>2026-05-01T10:47:53Z</time></trkpt><trkpt lat="43.501173260809345" lon="11.186779302559579"><ele>183.0</ele><time>2026-05-01T10:47:54Z</time></trkpt><trkpt lat="43.501008547978756" lon="11.18662817014508"><ele>183.0</ele><time>2026-05-01T10:47:55Z</time></trkpt><trkpt lat="43.50084585139705" lon="11.186492697883516"><ele>183.0</ele><time>2026-05-01T10:47:56Z</time></trkpt><trkpt lat="43.50068408405924" lon="11.186321682572704"><ele>183.0</ele><time>2026-05-01T10:47:57Z</time></trkpt><trkpt lat="43.50052467700039" lon="11.18614902957511"><ele>183.0</ele><time>2026-05-01T10:47:58Z</time></trkpt><trkpt lat="43.500377755979756" lon="11.185969909248502"><ele>182.66666666666666</ele><time>2026-05-01T10:47:59Z</time></trkpt><trkpt lat="43.50023515796878" lon="11.185776530616579"><ele>182.33333333333331</ele><time>2026-05-01T10:48:00Z</time></trkpt><trkpt lat="43.500100731581725" lon="11.185569230724637"><ele>182.0</ele><time>2026-05-01T10:48:01Z</time></trkpt><trkpt lat="43.49997334443065" lon="11.18535293055274"><ele>182.0</ele><time>2026-05-01T10:48:02Z</time></trkpt><trkpt lat="43.4998491420417" lon="11.185128644742887"><ele>182.0</ele><time>2026-05-01T10:48:03Z</time></trkpt><trkpt lat="43.499727201457944" lon="11.184904621797477"><ele>182.0</ele><time>2026-05-01T10:48:04Z</time></trkpt><trkpt lat="43.499610302331554" lon="11.184672813626227"><ele>183.33333333333331</ele><time>2026-05-01T10:48:05Z</time></trkpt><trkpt lat="43.49949075616274" lon="11.184443025450438"><ele>184.66666666666666</ele><time>2026-05-01T10:48:06Z</time></trkpt><trkpt lat="43.499372373178254" lon="11.18421665633644"><ele>186.0</ele><time>2026-05-01T10:48:07Z</time></trkpt><trkpt lat="43.49925017370414" lon="11.183993545373761"><ele>183.33333333333334</ele><time>2026-05-01T10:48:08Z</time></trkpt><trkpt lat="43.499129634223436" lon="11.183763256015453"><ele>180.66666666666669</ele><time>2026-05-01T10:48:09Z</time></trkpt><trkpt lat="43.49901731108779" lon="11.183523703252808"><ele>178.0</ele><time>2026-05-01T10:48:10Z</time></trkpt><trkpt lat="43.498896302112364" lon="11.183292849267257"><ele>178.33333333333334</ele><time>2026-05-01T10:48:11Z</time></trkpt><trkpt lat="43.49877800476974" lon="11.183055855471244"><ele>178.66666666666666</ele><time>2026-05-01T10:48:12Z</time></trkpt><trkpt lat="43.498659031949224" lon="11.182823639624676"><ele>179.0</ele><time>2026-05-01T10:48:13Z</time></trkpt><trkpt lat="43.498531301135344" lon="11.1825920963124"><ele>179.0</ele><time>2026-05-01T10:48:14Z</time></trkpt><trkpt lat="43.49840146979216" lon="11.182370746471829"><ele>179.0</ele><time>2026-05-01T10:48:15Z</time></trkpt><trkpt lat="43.49826797980811" lon="11.182150165199754"><ele>179.0</ele><time>2026-05-01T10:48:16Z</time></trkpt><trkpt lat="43.49812798878114" lon="11.181932928603965"><ele>179.0</ele><time>2026-05-01T10:48:17Z</time></trkpt><trkpt lat="43.49798860968618" lon="11.181721501092614"><ele>179.0</ele><time>2026-05-01T10:48:18Z</time></trkpt><trkpt lat="43.497834147929154" lon="11.181522031586743"><ele>179.0</ele><time>2026-05-01T10:48:19Z</time></trkpt><trkpt lat="43.497681829176805" lon="11.181323014577174"><ele>175.66666666666666</ele><time>2026-05-01T10:48:20Z</time></trkpt><trkpt lat="43.49752151362303" lon="11.181134553731638"><ele>172.33333333333334</ele><time>2026-05-01T10:48:21Z</time></trkpt><trkpt lat="43.49736406012228" lon="11.180941721164338"><ele>169.0</ele><time>2026-05-01T10:48:22Z</time></trkpt><trkpt lat="43.49720346317774" lon="11.18075105928693"><ele>168.33333333333334</ele><time>2026-05-01T10:48:23Z</time></trkpt><trkpt lat="43.49703928267105" lon="11.18057027401559"><ele>167.66666666666666</ele><time>2026-05-01T10:48:24Z</time></trkpt><trkpt lat="43.496877485484006" lon="11.180394916473581"><ele>167.0</ele><time>2026-05-01T10:48:25Z</time></trkpt><trkpt lat="43.49670540243926" lon="11.180233775175957"><ele>167.0</ele><time>2026-05-01T10:48:26Z</time></trkpt><trkpt lat="43.49653591563941" lon="11.180063973620276"><ele>167.0</ele><time>2026-05-01T10:48:27Z</time></trkpt><trkpt lat="43.49635987501034" lon="11.179911728432497"><ele>167.0</ele><time>2026-05-01T10:48:28Z</time></trkpt><trkpt lat="43.496177620869624" lon="11.179778640631904"><ele>165.33333333333331</ele><time>2026-05-01T10:48:29Z</time></trkpt><trkpt lat="43.496001101643934" lon="11.179635145464983"><ele>163.66666666666666</ele><time>2026-05-01T10:48:30Z</time></trkpt><trkpt lat="43.4958226333397" lon="11.17950227109454"><ele>162.0</ele><time>2026-05-01T10:48:31Z</time></trkpt><trkpt lat="43.49563550489969" lon="11.17938017602034"><ele>162.0</ele><time>2026-05-01T10:48:32Z</time></trkpt><trkpt lat="43.49545060730561" lon="11.179254698249634"><ele>162.0</ele><time>2026-05-01T10:48:33Z</time></trkpt><trkpt lat="43.49526892685689" lon="11.179145809627629"><ele>162.0</ele><time>2026-05-01T10:48:34Z</time></trkpt><trkpt lat="43.49508074303667" lon="11.179050328498246"><ele>161.33333333333334</ele><time>2026-05-01T10:48:35Z</time></trkpt><trkpt lat="43.49489197947594" lon="11.178954793061921"><ele>160.66666666666669</ele><time>2026-05-01T10:48:36Z</time></trkpt><trkpt lat="43.494704418571274" lon="11.17884780947893"><ele>160.0</ele><time>2026-05-01T10:48:37Z</time></trkpt><trkpt lat="43.49451761654038" lon="11.178739563027454"><ele>158.33333333333334</ele><time>2026-05-01T10:48:38Z</time></trkpt><trkpt lat="43.4943335752016" lon="11.178633379319981"><ele>156.66666666666666</ele><time>2026-05-01T10:48:39Z</time></trkpt><trkpt lat="43.49415218306732" lon="11.178518531357984"><ele>155.0</ele><time>2026-05-01T10:48:40Z</time></trkpt><trkpt lat="43.49396702704957" lon="11.178401404827682"><ele>155.0</ele><time>2026-05-01T10:48:41Z</time></trkpt><trkpt lat="43.49378765747383" lon="11.178269307821727"><ele>155.0</ele><time>2026-05-01T10:48:42Z</time></trkpt><trkpt lat="43.493609686295606" lon="11.178123994017296"><ele>155.0</ele><time>2026-05-01T10:48:43Z</time></trkpt><trkpt lat="43.49344003798603" lon="11.177958155170904"><ele>155.0</ele><time>2026-05-01T10:48:44Z</time></trkpt><trkpt lat="43.49326718095215" lon="11.177799879738544"><ele>155.0</ele><time>2026-05-01T10:48:45Z</time></trkpt><trkpt lat="43.493104156579406" lon="11.177622460986438"><ele>155.0</ele><time>2026-05-01T10:48:46Z</time></trkpt><trkpt lat="43.49294388494568" lon="11.177444969170148"><ele>156.0</ele><time>2026-05-01T10:48:47Z</time></trkpt><trkpt lat="43.49278491693525" lon="11.177259470515809"><ele>157.0</ele><time>2026-05-01T10:48:48Z</time></trkpt><trkpt lat="43.4926276342808" lon="11.17706508440523"><ele>158.0</ele><time>2026-05-01T10:48:49Z</time></trkpt><trkpt lat="43.492479862241986" lon="11.176858425412872"><ele>158.0</ele><time>2026-05-01T10:48:50Z</time></trkpt><trkpt lat="43.49233558159683" lon="11.176646933414288"><ele>158.0</ele><time>2026-05-01T10:48:51Z</time></trkpt><trkpt lat="43.49220513711364" lon="11.176419757826947"><ele>158.0</ele><time>2026-05-01T10:48:52Z</time></trkpt><trkpt lat="43.49208076308325" lon="11.176181611769751"><ele>155.0</ele><time>2026-05-01T10:48:53Z</time></trkpt><trkpt lat="43.491957734720245" lon="11.175949548221384"><ele>152.0</ele><time>2026-05-01T10:48:54Z</time></trkpt><trkpt lat="43.491834631399904" lon="11.175713257990122"><ele>149.0</ele><time>2026-05-01T10:48:55Z</time></trkpt><trkpt lat="43.49170621603983" lon="11.175481530108499"><ele>149.0</ele><time>2026-05-01T10:48:56Z</time></trkpt><trkpt lat="43.49158250259834" lon="11.175257138686694"><ele>149.0</ele><time>2026-05-01T10:48:57Z</time></trkpt><trkpt lat="43.49146489942543" lon="11.175032901111715"><ele>149.0</ele><time>2026-05-01T10:48:58Z</time></trkpt><trkpt lat="43.49135147000802" lon="11.174802830122475"><ele>146.66666666666666</ele><time>2026-05-01T10:48:59Z</time></trkpt><trkpt lat="43.49123343818343" lon="11.174576290145254"><ele>144.33333333333334</ele><time>2026-05-01T10:49:00Z</time></trkpt><trkpt lat="43.49111774949664" lon="11.1743517229892"><ele>142.0</ele><time>2026-05-01T10:49:01Z</time></trkpt><trkpt lat="43.49099894450638" lon="11.174125175212591"><ele>141.66666666666669</ele><time>2026-05-01T10:49:02Z</time></trkpt><trkpt lat="43.49088142597796" lon="11.173904164408096"><ele>141.33333333333334</ele><time>2026-05-01T10:49:03Z</time></trkpt><trkpt lat="43.49076665958233" lon="11.173656016008016"><ele>141.0</ele><time>2026-05-01T10:49:04Z</time></trkpt><trkpt lat="43.49064817993926" lon="11.17342769508609"><ele>141.0</ele><time>2026-05-01T10:49:05Z</time></trkpt><trkpt lat="43.49053576999989" lon="11.173200869632089"><ele>141.0</ele><time>2026-05-01T10:49:06Z</time></trkpt><trkpt lat="43.49041925722584" lon="11.172978868631422"><ele>141.0</ele><time>2026-05-01T10:49:07Z</time></trkpt><trkpt lat="43.490307155803485" lon="11.17275412652598"><ele>141.0</ele><time>2026-05-01T10:49:08Z</time></trkpt><trkpt lat="43.490189431312" lon="11.172522848063124"><ele>141.0</ele><time>2026-05-01T10:49:09Z</time></trkpt><trkpt lat="43.49007971123986" lon="11.172291090660936"><ele>141.0</ele><time>2026-05-01T10:49:10Z</time></trkpt><trkpt lat="43.48996334034675" lon="11.172066141776583"><ele>141.0</ele><time>2026-05-01T10:49:11Z</time></trkpt><trkpt lat="43.489853182608044" lon="11.171838732963522"><ele>141.0</ele><time>2026-05-01T10:49:12Z</time></trkpt><trkpt lat="43.48974543974734" lon="11.171611662275268"><ele>141.0</ele><time>2026-05-01T10:49:13Z</time></trkpt><trkpt lat="43.48964269184777" lon="11.171376350359777"><ele>140.0</ele><time>2026-05-01T10:49:14Z</time></trkpt><trkpt lat="43.48953969853241" lon="11.17114452468004"><ele>139.0</ele><time>2026-05-01T10:49:15Z</time></trkpt><trkpt lat="43.489442316718" lon="11.170911117815653"><ele>138.0</ele><time>2026-05-01T10:49:16Z</time></trkpt><trkpt lat="43.48934559291449" lon="11.170668617735316"><ele>138.0</ele><time>2026-05-01T10:49:17Z</time></trkpt><trkpt lat="43.48925144902779" lon="11.170427363603759"><ele>138.0</ele><time>2026-05-01T10:49:18Z</time></trkpt><trkpt lat="43.48916074618899" lon="11.170182540443705"><ele>138.0</ele><time>2026-05-01T10:49:19Z</time></trkpt><trkpt lat="43.489073391479096" lon="11.169934016963072"><ele>138.33333333333334</ele><time>2026-05-01T10:49:20Z</time></trkpt><trkpt lat="43.48898887050972" lon="11.169685124621932"><ele>138.66666666666669</ele><time>2026-05-01T10:49:21Z</time></trkpt><trkpt lat="43.488904218128276" lon="11.16943390359544"><ele>139.0</ele><time>2026-05-01T10:49:22Z</time></trkpt><trkpt lat="43.488819318568204" lon="11.169181456924687"><ele>136.33333333333334</ele><time>2026-05-01T10:49:23Z</time></trkpt><trkpt lat="43.488740247932924" lon="11.168928842044295"><ele>133.66666666666666</ele><time>2026-05-01T10:49:24Z</time></trkpt><trkpt lat="43.488662269896786" lon="11.168674288552449"><ele>131.0</ele><time>2026-05-01T10:49:25Z</time></trkpt><trkpt lat="43.48858948116753" lon="11.168412318019708"><ele>131.0</ele><time>2026-05-01T10:49:26Z</time></trkpt><trkpt lat="43.4885201989433" lon="11.168149358022287"><ele>131.0</ele><time>2026-05-01T10:49:27Z</time></trkpt><trkpt lat="43.48845253428772" lon="11.167886407856134"><ele>131.0</ele><time>2026-05-01T10:49:28Z</time></trkpt><trkpt lat="43.48838816237631" lon="11.167618611813046"><ele>131.33333333333331</ele><time>2026-05-01T10:49:29Z</time></trkpt><trkpt lat="43.488322692982344" lon="11.167352202744206"><ele>131.66666666666666</ele><time>2026-05-01T10:49:30Z</time></trkpt><trkpt lat="43.4882594568725" lon="11.167091167413647"><ele>132.0</ele><time>2026-05-01T10:49:31Z</time></trkpt><trkpt lat="43.48820206327246" lon="11.16683008092876"><ele>132.0</ele><time>2026-05-01T10:49:32Z</time></trkpt><trkpt lat="43.48814901599239" lon="11.166563326843743"><ele>132.0</ele><time>2026-05-01T10:49:33Z</time></trkpt><trkpt lat="43.488105676381174" lon="11.16629152489614"><ele>132.0</ele><time>2026-05-01T10:49:34Z</time></trkpt><trkpt lat="43.488058676685334" lon="11.16601870433235"><ele>131.0</ele><time>2026-05-01T10:49:35Z</time></trkpt><trkpt lat="43.48801562199048" lon="11.165751388191259"><ele>130.0</ele><time>2026-05-01T10:49:36Z</time></trkpt><trkpt lat="43.48797447423409" lon="11.165480959881775"><ele>129.0</ele><time>2026-05-01T10:49:37Z</time></trkpt><trkpt lat="43.48793964961278" lon="11.165212041729795"><ele>127.33333333333334</ele><time>2026-05-01T10:49:38Z</time></trkpt><trkpt lat="43.4879053544006" lon="11.16494268967436"><ele>125.66666666666667</ele><time>2026-05-01T10:49:39Z</time></trkpt><trkpt lat="43.48786650930811" lon="11.164671296965222"><ele>124.0</ele><time>2026-05-01T10:49:40Z</time></trkpt><trkpt lat="43.4878321697478" lon="11.164397160727134"><ele>124.0</ele><time>2026-05-01T10:49:41Z</time></trkpt><trkpt lat="43.48779583928226" lon="11.164125043306065"><ele>124.0</ele><time>2026-05-01T10:49:42Z</time></trkpt><trkpt lat="43.48776117715741" lon="11.163847303363482"><ele>124.0</ele><time>2026-05-01T10:49:43Z</time></trkpt><trkpt lat="43.487727278818916" lon="11.163569582266575"><ele>123.66666666666667</ele><time>2026-05-01T10:49:44Z</time></trkpt><trkpt lat="43.48769442127336" lon="11.163294723541341"><ele>123.33333333333334</ele><time>2026-05-01T10:49:45Z</time></trkpt><trkpt lat="43.487661932604524" lon="11.163020921590594"><ele>123.0</ele><time>2026-05-01T10:49:46Z</time></trkpt><trkpt lat="43.4876225055885" lon="11.162745872315964"><ele>123.66666666666666</ele><time>2026-05-01T10:49:47Z</time></trkpt><trkpt lat="43.48758473312111" lon="11.162467338070032"><ele>124.33333333333333</ele><time>2026-05-01T10:49:48Z</time></trkpt><trkpt lat="43.48755192850959" lon="11.162194633570028"><ele>125.0</ele><time>2026-05-01T10:49:49Z</time></trkpt><trkpt lat="43.48751647804668" lon="11.161917001073823"><ele>125.0</ele><time>2026-05-01T10:49:50Z</time></trkpt><trkpt lat="43.48747827000595" lon="11.161642502808597"><ele>125.0</ele><time>2026-05-01T10:49:51Z</time></trkpt><trkpt lat="43.48744414860854" lon="11.1613667297447"><ele>125.0</ele><time>2026-05-01T10:49:52Z</time></trkpt><trkpt lat="43.48740896349321" lon="11.16108803014684"><ele>125.33333333333333</ele><time>2026-05-01T10:49:53Z</time></trkpt><trkpt lat="43.48737335143593" lon="11.160812231786958"><ele>125.66666666666666</ele><time>2026-05-01T10:49:54Z</time></trkpt><trkpt lat="43.48733829049448" lon="11.160534488262934"><ele>126.0</ele><time>2026-05-01T10:49:55Z</time></trkpt><trkpt lat="43.48730086530799" lon="11.160257020137914"><ele>126.0</ele><time>2026-05-01T10:49:56Z</time></trkpt><trkpt lat="43.48726605542819" lon="11.159976741022362"><ele>126.0</ele><time>2026-05-01T10:49:57Z</time></trkpt><trkpt lat="43.48722335250194" lon="11.159704324312441"><ele>126.0</ele><time>2026-05-01T10:49:58Z</time></trkpt><trkpt lat="43.48718878958904" lon="11.159428796177647"><ele>126.0</ele><time>2026-05-01T10:49:59Z</time></trkpt><trkpt lat="43.48715157996852" lon="11.159155147885595"><ele>126.0</ele><time>2026-05-01T10:50:00Z</time></trkpt><trkpt lat="43.48711859021673" lon="11.15888485016016"><ele>126.0</ele><time>2026-05-01T10:50:01Z</time></trkpt><trkpt lat="43.487084271564896" lon="11.158611323752487"><ele>124.33333333333334</ele><time>2026-05-01T10:50:02Z</time></trkpt><trkpt lat="43.48704758204702" lon="11.15833015940438"><ele>122.66666666666667</ele><time>2026-05-01T10:50:03Z</time></trkpt><trkpt lat="43.48700627613052" lon="11.158064285393591"><ele>121.0</ele><time>2026-05-01T10:50:04Z</time></trkpt><trkpt lat="43.48697568419374" lon="11.157788661312518"><ele>121.0</ele><time>2026-05-01T10:50:05Z</time></trkpt><trkpt lat="43.48694106155016" lon="11.15752224224277"><ele>121.0</ele><time>2026-05-01T10:50:06Z</time></trkpt><trkpt lat="43.48690836966062" lon="11.157259858669605"><ele>121.0</ele><time>2026-05-01T10:50:07Z</time></trkpt><trkpt lat="43.48686841745918" lon="11.156993715961383"><ele>121.0</ele><time>2026-05-01T10:50:08Z</time></trkpt><trkpt lat="43.48683392126862" lon="11.15671979944986"><ele>121.0</ele><time>2026-05-01T10:50:09Z</time></trkpt><trkpt lat="43.4867936940928" lon="11.156447749666741"><ele>121.0</ele><time>2026-05-01T10:50:10Z</time></trkpt><trkpt lat="43.48675526717569" lon="11.156178237890803"><ele>120.66666666666667</ele><time>2026-05-01T10:50:11Z</time></trkpt><trkpt lat="43.486700878737786" lon="11.155918967148564"><ele>120.33333333333334</ele><time>2026-05-01T10:50:12Z</time></trkpt><trkpt lat="43.48664372857183" lon="11.155655559462698"><ele>120.0</ele><time>2026-05-01T10:50:13Z</time></trkpt><trkpt lat="43.486575244958246" lon="11.155400703317321"><ele>119.0</ele><time>2026-05-01T10:50:14Z</time></trkpt><trkpt lat="43.48649943545754" lon="11.155152470393839"><ele>118.0</ele><time>2026-05-01T10:50:15Z</time></trkpt><trkpt lat="43.486409405884665" lon="11.15491572473958"><ele>117.0</ele><time>2026-05-01T10:50:16Z</time></trkpt><trkpt lat="43.486316137715534" lon="11.154683751945429"><ele>115.66666666666666</ele><time>2026-05-01T10:50:17Z</time></trkpt><trkpt lat="43.48621513968099" lon="11.15445548017485"><ele>114.33333333333333</ele><time>2026-05-01T10:50:18Z</time></trkpt><trkpt lat="43.48609992971746" lon="11.154230353221775"><ele>113.0</ele><time>2026-05-01T10:50:19Z</time></trkpt><trkpt lat="43.48598198904801" lon="11.154007493225473"><ele>113.0</ele><time>2026-05-01T10:50:20Z</time></trkpt><trkpt lat="43.4858589462324" lon="11.153794492659822"><ele>113.0</ele><time>2026-05-01T10:50:21Z</time></trkpt><trkpt lat="43.48572659310986" lon="11.153591138721463"><ele>113.0</ele><time>2026-05-01T10:50:22Z</time></trkpt><trkpt lat="43.48558710995503" lon="11.153390651250792"><ele>112.0</ele><time>2026-05-01T10:50:23Z</time></trkpt><trkpt lat="43.48544402772477" lon="11.153202090680471"><ele>111.0</ele><time>2026-05-01T10:50:24Z</time></trkpt><trkpt lat="43.4852914484619" lon="11.153019581681042"><ele>110.0</ele><time>2026-05-01T10:50:25Z</time></trkpt><trkpt lat="43.48513435913161" lon="11.152845292399236"><ele>110.0</ele><time>2026-05-01T10:50:26Z</time></trkpt><trkpt lat="43.48497072232036" lon="11.152675890277461"><ele>110.0</ele><time>2026-05-01T10:50:27Z</time></trkpt><trkpt lat="43.48480564401748" lon="11.15251341408053"><ele>110.0</ele><time>2026-05-01T10:50:28Z</time></trkpt><trkpt lat="43.48464164399467" lon="11.15234543209996"><ele>110.33333333333333</ele><time>2026-05-01T10:50:29Z</time></trkpt><trkpt lat="43.484480857475575" lon="11.152187206282367"><ele>110.66666666666666</ele><time>2026-05-01T10:50:30Z</time></trkpt><trkpt lat="43.484319995607116" lon="11.152028700434224"><ele>111.0</ele><time>2026-05-01T10:50:31Z</time></trkpt><trkpt lat="43.48416388179733" lon="11.151878892732732"><ele>111.0</ele><time>2026-05-01T10:50:32Z</time></trkpt><trkpt lat="43.48401967061244" lon="11.151746049041796"><ele>111.0</ele><time>2026-05-01T10:50:33Z</time></trkpt><trkpt lat="43.48388813274992" lon="11.151610611172785"><ele>111.0</ele><time>2026-05-01T10:50:34Z</time></trkpt><trkpt lat="43.4837609024267" lon="11.151482015774352"><ele>113.66666666666666</ele><time>2026-05-01T10:50:35Z</time></trkpt><trkpt lat="43.48363076932707" lon="11.15134583590526"><ele>116.33333333333333</ele><time>2026-05-01T10:50:36Z</time></trkpt><trkpt lat="43.48349850881599" lon="11.151213028735622"><ele>119.0</ele><time>2026-05-01T10:50:37Z</time></trkpt><trkpt lat="43.48336212492125" lon="11.151074170896031"><ele>119.0</ele><time>2026-05-01T10:50:38Z</time></trkpt><trkpt lat="43.48322172383447" lon="11.150932435882849"><ele>119.0</ele><time>2026-05-01T10:50:39Z</time></trkpt><trkpt lat="43.48307218786492" lon="11.150795425957527"><ele>119.0</ele><time>2026-05-01T10:50:40Z</time></trkpt><trkpt lat="43.48291756476664" lon="11.150662676893019"><ele>120.0</ele><time>2026-05-01T10:50:41Z</time></trkpt><trkpt lat="43.482756623617064" lon="11.150529642153218"><ele>121.0</ele><time>2026-05-01T10:50:42Z</time></trkpt><trkpt lat="43.482587907433675" lon="11.150407434250804"><ele>122.0</ele><time>2026-05-01T10:50:43Z</time></trkpt><trkpt lat="43.48241133860403" lon="11.1502981252344"><ele>122.0</ele><time>2026-05-01T10:50:44Z</time></trkpt><trkpt lat="43.482231995852466" lon="11.15019304681652"><ele>122.0</ele><time>2026-05-01T10:50:45Z</time></trkpt><trkpt lat="43.48204700176888" lon="11.15009511388985"><ele>122.0</ele><time>2026-05-01T10:50:46Z</time></trkpt><trkpt lat="43.48185997849045" lon="11.150003657528453"><ele>122.66666666666666</ele><time>2026-05-01T10:50:47Z</time></trkpt><trkpt lat="43.48166470520466" lon="11.149929852585071"><ele>123.33333333333334</ele><time>2026-05-01T10:50:48Z</time></trkpt><trkpt lat="43.481466756290345" lon="11.149868953364875"><ele>124.0</ele><time>2026-05-01T10:50:49Z</time></trkpt><trkpt lat="43.481278691951005" lon="11.149821025731471"><ele>125.0</ele><time>2026-05-01T10:50:50Z</time></trkpt><trkpt lat="43.48108492919563" lon="11.149784749918542"><ele>126.0</ele><time>2026-05-01T10:50:51Z</time></trkpt><trkpt lat="43.480886475075145" lon="11.14975674212142"><ele>127.0</ele><time>2026-05-01T10:50:52Z</time></trkpt><trkpt lat="43.48068418361958" lon="11.149747718157256"><ele>127.0</ele><time>2026-05-01T10:50:53Z</time></trkpt><trkpt lat="43.480482430668204" lon="11.149745074381228"><ele>127.0</ele><time>2026-05-01T10:50:54Z</time></trkpt><trkpt lat="43.48028353854163" lon="11.149751504683977"><ele>127.0</ele><time>2026-05-01T10:50:55Z</time></trkpt><trkpt lat="43.48008908711936" lon="11.149770568610425"><ele>124.66666666666667</ele><time>2026-05-01T10:50:56Z</time></trkpt><trkpt lat="43.47988627456659" lon="11.149822826987238"><ele>122.33333333333334</ele><time>2026-05-01T10:50:57Z</time></trkpt><trkpt lat="43.47969374604134" lon="11.149868613391385"><ele>120.0</ele><time>2026-05-01T10:50:58Z</time></trkpt><trkpt lat="43.47950275167305" lon="11.14992889215575"><ele>120.0</ele><time>2026-05-01T10:50:59Z</time></trkpt><trkpt lat="43.479312411410426" lon="11.149996684091183"><ele>120.0</ele><time>2026-05-01T10:51:00Z</time></trkpt><trkpt lat="43.47913344122259" lon="11.150072750015447"><ele>120.0</ele><time>2026-05-01T10:51:01Z</time></trkpt><trkpt lat="43.47895016508632" lon="11.150161460607881"><ele>122.33333333333334</ele><time>2026-05-01T10:51:02Z</time></trkpt><trkpt lat="43.478766043496314" lon="11.150263185193012"><ele>124.66666666666667</ele><time>2026-05-01T10:51:03Z</time></trkpt><trkpt lat="43.47858805948673" lon="11.150363738775496"><ele>127.0</ele><time>2026-05-01T10:51:04Z</time></trkpt><trkpt lat="43.47840638898516" lon="11.150459609331984"><ele>127.0</ele><time>2026-05-01T10:51:05Z</time></trkpt><trkpt lat="43.4782247075863" lon="11.150560330951405"><ele>127.0</ele><time>2026-05-01T10:51:06Z</time></trkpt><trkpt lat="43.478038191768476" lon="11.150662943781025"><ele>127.0</ele><time>2026-05-01T10:51:07Z</time></trkpt><trkpt lat="43.47785082453716" lon="11.150760194746914"><ele>129.0</ele><time>2026-05-01T10:51:08Z</time></trkpt><trkpt lat="43.477665677315436" lon="11.150858667810375"><ele>131.0</ele><time>2026-05-01T10:51:09Z</time></trkpt><trkpt lat="43.477482068520914" lon="11.150957179547225"><ele>133.0</ele><time>2026-05-01T10:51:10Z</time></trkpt><trkpt lat="43.47729320127232" lon="11.151071991353838"><ele>133.0</ele><time>2026-05-01T10:51:11Z</time></trkpt><trkpt lat="43.47711387898451" lon="11.151162008921139"><ele>133.0</ele><time>2026-05-01T10:51:12Z</time></trkpt><trkpt lat="43.47694077978651" lon="11.151257469096167"><ele>133.0</ele><time>2026-05-01T10:51:13Z</time></trkpt><trkpt lat="43.476761524447085" lon="11.151357929859026"><ele>133.0</ele><time>2026-05-01T10:51:14Z</time></trkpt><trkpt lat="43.47657700962287" lon="11.151452460165622"><ele>133.0</ele><time>2026-05-01T10:51:15Z</time></trkpt><trkpt lat="43.476395576922194" lon="11.151557129183146"><ele>133.0</ele><time>2026-05-01T10:51:16Z</time></trkpt><trkpt lat="43.47621583589528" lon="11.151653869333293"><ele>130.0</ele><time>2026-05-01T10:51:17Z</time></trkpt><trkpt lat="43.476037272275605" lon="11.15174959773149"><ele>127.0</ele><time>2026-05-01T10:51:18Z</time></trkpt><trkpt lat="43.47586093969922" lon="11.151825073236756"><ele>124.0</ele><time>2026-05-01T10:51:19Z</time></trkpt><trkpt lat="43.47567636087949" lon="11.15189001563915"><ele>124.0</ele><time>2026-05-01T10:51:20Z</time></trkpt><trkpt lat="43.47548972287934" lon="11.151941455400344"><ele>124.0</ele><time>2026-05-01T10:51:21Z</time></trkpt><trkpt lat="43.47529652595067" lon="11.151984972713453"><ele>124.0</ele><time>2026-05-01T10:51:22Z</time></trkpt><trkpt lat="43.475108712547346" lon="11.15202600341241"><ele>122.0</ele><time>2026-05-01T10:51:23Z</time></trkpt><trkpt lat="43.47492179131365" lon="11.152071292814751"><ele>120.0</ele><time>2026-05-01T10:51:24Z</time></trkpt><trkpt lat="43.47473958384475" lon="11.152125560479636"><ele>118.0</ele><time>2026-05-01T10:51:25Z</time></trkpt><trkpt lat="43.47454771081782" lon="11.15219356776187"><ele>116.66666666666667</ele><time>2026-05-01T10:51:26Z</time></trkpt><trkpt lat="43.47435533253424" lon="11.15227516334095"><ele>115.33333333333334</ele><time>2026-05-01T10:51:27Z</time></trkpt><trkpt lat="43.47416617496098" lon="11.152350826135788"><ele>114.0</ele><time>2026-05-01T10:51:28Z</time></trkpt><trkpt lat="43.47397338682594" lon="11.152447185801432"><ele>114.0</ele><time>2026-05-01T10:51:29Z</time></trkpt><trkpt lat="43.4737896679534" lon="11.1525376240349"><ele>114.0</ele><time>2026-05-01T10:51:30Z</time></trkpt><trkpt lat="43.47360029490879" lon="11.152618793894227"><ele>114.0</ele><time>2026-05-01T10:51:31Z</time></trkpt><trkpt lat="43.473408605666606" lon="11.1526990088477"><ele>112.0</ele><time>2026-05-01T10:51:32Z</time></trkpt><trkpt lat="43.473222989187796" lon="11.152789316177328"><ele>110.0</ele><time>2026-05-01T10:51:33Z</time></trkpt><trkpt lat="43.47304019758259" lon="11.152874384419116"><ele>108.0</ele><time>2026-05-01T10:51:34Z</time></trkpt><trkpt lat="43.47285821616582" lon="11.152952345477319"><ele>108.66666666666666</ele><time>2026-05-01T10:51:35Z</time></trkpt><trkpt lat="43.47267300216222" lon="11.153033083578924"><ele>109.33333333333333</ele><time>2026-05-01T10:51:36Z</time></trkpt><trkpt lat="43.472483666090994" lon="11.153122064900368"><ele>110.0</ele><time>2026-05-01T10:51:37Z</time></trkpt><trkpt lat="43.47229981643954" lon="11.153207074722925"><ele>110.0</ele><time>2026-05-01T10:51:38Z</time></trkpt><trkpt lat="43.472126339027994" lon="11.153277470357093"><ele>110.0</ele><time>2026-05-01T10:51:39Z</time></trkpt><trkpt lat="43.47194987634111" lon="11.15335514393898"><ele>110.0</ele><time>2026-05-01T10:51:40Z</time></trkpt><trkpt lat="43.4717721055775" lon="11.153438816397067"><ele>108.66666666666666</ele><time>2026-05-01T10:51:41Z</time></trkpt><trkpt lat="43.47159026868717" lon="11.153531275603575"><ele>107.33333333333334</ele><time>2026-05-01T10:51:42Z</time></trkpt><trkpt lat="43.471407864899916" lon="11.15361709553843"><ele>106.0</ele><time>2026-05-01T10:51:43Z</time></trkpt><trkpt lat="43.47122548795743" lon="11.153710376682314"><ele>106.0</ele><time>2026-05-01T10:51:44Z</time></trkpt><trkpt lat="43.47104196929963" lon="11.153818536051737"><ele>106.0</ele><time>2026-05-01T10:51:45Z</time></trkpt><trkpt lat="43.47086242250207" lon="11.153933084975533"><ele>106.0</ele><time>2026-05-01T10:51:46Z</time></trkpt><trkpt lat="43.47068866554924" lon="11.154055776814246"><ele>106.0</ele><time>2026-05-01T10:51:47Z</time></trkpt><trkpt lat="43.470510906181794" lon="11.154194201103229"><ele>106.0</ele><time>2026-05-01T10:51:48Z</time></trkpt><trkpt lat="43.47033446281711" lon="11.154339732000148"><ele>106.0</ele><time>2026-05-01T10:51:49Z</time></trkpt><trkpt lat="43.47015915013215" lon="11.154486195038565"><ele>105.33333333333334</ele><time>2026-05-01T10:51:50Z</time></trkpt><trkpt lat="43.46999650002544" lon="11.154640137330974"><ele>104.66666666666666</ele><time>2026-05-01T10:51:51Z</time></trkpt><trkpt lat="43.46983735186726" lon="11.154800646779028"><ele>104.0</ele><time>2026-05-01T10:51:52Z</time></trkpt><trkpt lat="43.46968131219316" lon="11.154973022915181"><ele>103.66666666666666</ele><time>2026-05-01T10:51:53Z</time></trkpt><trkpt lat="43.46952695688728" lon="11.155149774378444"><ele>103.33333333333334</ele><time>2026-05-01T10:51:54Z</time></trkpt><trkpt lat="43.46938418189063" lon="11.155322466573663"><ele>103.0</ele><time>2026-05-01T10:51:55Z</time></trkpt><trkpt lat="43.46923964258558" lon="11.15551212261978"><ele>103.0</ele><time>2026-05-01T10:51:56Z</time></trkpt><trkpt lat="43.469100452162046" lon="11.155712650302753"><ele>103.0</ele><time>2026-05-01T10:51:57Z</time></trkpt><trkpt lat="43.468966314424605" lon="11.155910131774318"><ele>103.0</ele><time>2026-05-01T10:51:58Z</time></trkpt><trkpt lat="43.4688302864266" lon="11.156118203933485"><ele>103.0</ele><time>2026-05-01T10:51:59Z</time></trkpt><trkpt lat="43.46871130606925" lon="11.156330407468792"><ele>103.0</ele><time>2026-05-01T10:52:00Z</time></trkpt><trkpt lat="43.46859370862615" lon="11.156547602562478"><ele>103.0</ele><time>2026-05-01T10:52:01Z</time></trkpt><trkpt lat="43.46848384158614" lon="11.156780004761037"><ele>103.0</ele><time>2026-05-01T10:52:02Z</time></trkpt><trkpt lat="43.46837771735522" lon="11.156998732070706"><ele>103.0</ele><time>2026-05-01T10:52:03Z</time></trkpt><trkpt lat="43.46827283609964" lon="11.157237253754722"><ele>103.0</ele><time>2026-05-01T10:52:04Z</time></trkpt><trkpt lat="43.46816991047983" lon="11.157470062684926"><ele>102.66666666666667</ele><time>2026-05-01T10:52:05Z</time></trkpt><trkpt lat="43.46806825936858" lon="11.15770173307034"><ele>102.33333333333334</ele><time>2026-05-01T10:52:06Z</time></trkpt><trkpt lat="43.46796428195333" lon="11.157933544983589"><ele>102.0</ele><time>2026-05-01T10:52:07Z</time></trkpt><trkpt lat="43.46785884688117" lon="11.158161352849634"><ele>101.66666666666666</ele><time>2026-05-01T10:52:08Z</time></trkpt><trkpt lat="43.46775264428519" lon="11.158381893879145"><ele>101.33333333333333</ele><time>2026-05-01T10:52:09Z</time></trkpt><trkpt lat="43.46764777622395" lon="11.158606593216945"><ele>101.0</ele><time>2026-05-01T10:52:10Z</time></trkpt><trkpt lat="43.46753714940598" lon="11.158842549115471"><ele>101.0</ele><time>2026-05-01T10:52:11Z</time></trkpt><trkpt lat="43.46742540533969" lon="11.159063917378733"><ele>101.0</ele><time>2026-05-01T10:52:12Z</time></trkpt><trkpt lat="43.467322943985415" lon="11.159282596010302"><ele>101.0</ele><time>2026-05-01T10:52:13Z</time></trkpt><trkpt lat="43.46721293086236" lon="11.159507700517597"><ele>101.66666666666666</ele><time>2026-05-01T10:52:14Z</time></trkpt><trkpt lat="43.46710421778481" lon="11.159728787896606"><ele>102.33333333333334</ele><time>2026-05-01T10:52:15Z</time></trkpt><trkpt lat="43.46698971158553" lon="11.159950504973159"><ele>103.0</ele><time>2026-05-01T10:52:16Z</time></trkpt><trkpt lat="43.46687009663783" lon="11.16016840197164"><ele>103.0</ele><time>2026-05-01T10:52:17Z</time></trkpt><trkpt lat="43.46674440444399" lon="11.160380375645023"><ele>103.0</ele><time>2026-05-01T10:52:18Z</time></trkpt><trkpt lat="43.466617138267104" lon="11.160576590652889"><ele>103.0</ele><time>2026-05-01T10:52:19Z</time></trkpt><trkpt lat="43.46649084734803" lon="11.160769719732603"><ele>103.33333333333334</ele><time>2026-05-01T10:52:20Z</time></trkpt><trkpt lat="43.46635464262884" lon="11.160954566893546"><ele>103.66666666666666</ele><time>2026-05-01T10:52:21Z</time></trkpt><trkpt lat="43.46621573860917" lon="11.16113288827378"><ele>104.0</ele><time>2026-05-01T10:52:22Z</time></trkpt><trkpt lat="43.46607489781055" lon="11.161307181848233"><ele>104.0</ele><time>2026-05-01T10:52:23Z</time></trkpt><trkpt lat="43.46592237167031" lon="11.161487874713456"><ele>104.0</ele><time>2026-05-01T10:52:24Z</time></trkpt><trkpt lat="43.465773171588516" lon="11.16164702416779"><ele>104.0</ele><time>2026-05-01T10:52:25Z</time></trkpt><trkpt lat="43.46562138206769" lon="11.1617948351682"><ele>103.66666666666666</ele><time>2026-05-01T10:52:26Z</time></trkpt><trkpt lat="43.465470154880464" lon="11.161939083449639"><ele>103.33333333333334</ele><time>2026-05-01T10:52:27Z</time></trkpt><trkpt lat="43.4653140383919" lon="11.162081169296421"><ele>103.0</ele><time>2026-05-01T10:52:28Z</time></trkpt><trkpt lat="43.465146098929615" lon="11.162213731282561"><ele>103.0</ele><time>2026-05-01T10:52:29Z</time></trkpt><trkpt lat="43.4649774471496" lon="11.162343714765344"><ele>103.0</ele><time>2026-05-01T10:52:30Z</time></trkpt><trkpt lat="43.46480539473891" lon="11.162465662427667"><ele>103.0</ele><time>2026-05-01T10:52:31Z</time></trkpt><trkpt lat="43.464633253727015" lon="11.162578844342676"><ele>104.33333333333334</ele><time>2026-05-01T10:52:32Z</time></trkpt><trkpt lat="43.46445480641878" lon="11.162683400762297"><ele>105.66666666666666</ele><time>2026-05-01T10:52:33Z</time></trkpt><trkpt lat="43.46427821137406" lon="11.162787332934235"><ele>107.0</ele><time>2026-05-01T10:52:34Z</time></trkpt><trkpt lat="43.46409699326908" lon="11.162879605553739"><ele>107.0</ele><time>2026-05-01T10:52:35Z</time></trkpt><trkpt lat="43.46391250271707" lon="11.162966534299116"><ele>107.0</ele><time>2026-05-01T10:52:36Z</time></trkpt><trkpt lat="43.46372066999565" lon="11.163040733400178"><ele>107.0</ele><time>2026-05-01T10:52:37Z</time></trkpt><trkpt lat="43.463528158938274" lon="11.163110884547839"><ele>106.66666666666666</ele><time>2026-05-01T10:52:38Z</time></trkpt><trkpt lat="43.463333960523634" lon="11.163172967310118"><ele>106.33333333333334</ele><time>2026-05-01T10:52:39Z</time></trkpt><trkpt lat="43.46313976467907" lon="11.163231194812388"><ele>106.0</ele><time>2026-05-01T10:52:40Z</time></trkpt><trkpt lat="43.46294272416108" lon="11.163280252472394"><ele>107.0</ele><time>2026-05-01T10:52:41Z</time></trkpt><trkpt lat="43.462735534487784" lon="11.163320907675871"><ele>108.0</ele><time>2026-05-01T10:52:42Z</time></trkpt><trkpt lat="43.4625341306889" lon="11.16335431004994"><ele>109.0</ele><time>2026-05-01T10:52:43Z</time></trkpt><trkpt lat="43.462334161290634" lon="11.163383231376326"><ele>109.0</ele><time>2026-05-01T10:52:44Z</time></trkpt><trkpt lat="43.462138722492725" lon="11.163402875011284"><ele>109.0</ele><time>2026-05-01T10:52:45Z</time></trkpt><trkpt lat="43.46193995931089" lon="11.16342004855411"><ele>109.0</ele><time>2026-05-01T10:52:46Z</time></trkpt><trkpt lat="43.46175269012917" lon="11.163431202021792"><ele>109.0</ele><time>2026-05-01T10:52:47Z</time></trkpt><trkpt lat="43.46155902794248" lon="11.16344601568334"><ele>109.0</ele><time>2026-05-01T10:52:48Z</time></trkpt><trkpt lat="43.46137245214526" lon="11.163460382599801"><ele>109.0</ele><time>2026-05-01T10:52:49Z</time></trkpt><trkpt lat="43.46119156353233" lon="11.163460585656328"><ele>109.0</ele><time>2026-05-01T10:52:50Z</time></trkpt><trkpt lat="43.461008253393736" lon="11.163466922314782"><ele>109.0</ele><time>2026-05-01T10:52:51Z</time></trkpt><trkpt lat="43.460821520487684" lon="11.163476417727724"><ele>109.0</ele><time>2026-05-01T10:52:52Z</time></trkpt><trkpt lat="43.46064003999546" lon="11.163466873602689"><ele>109.0</ele><time>2026-05-01T10:52:53Z</time></trkpt><trkpt lat="43.46045309913822" lon="11.163446817633485"><ele>109.0</ele><time>2026-05-01T10:52:54Z</time></trkpt><trkpt lat="43.46026984395478" lon="11.16341444836297"><ele>109.0</ele><time>2026-05-01T10:52:55Z</time></trkpt><trkpt lat="43.460093537989835" lon="11.163370593186531"><ele>108.66666666666667</ele><time>2026-05-01T10:52:56Z</time></trkpt><trkpt lat="43.45991395946024" lon="11.163313419494898"><ele>108.33333333333334</ele><time>2026-05-01T10:52:57Z</time></trkpt><trkpt lat="43.4597328303348" lon="11.163259790479493"><ele>108.0</ele><time>2026-05-01T10:52:58Z</time></trkpt><trkpt lat="43.459554884215805" lon="11.163191561974562"><ele>108.0</ele><time>2026-05-01T10:52:59Z</time></trkpt><trkpt lat="43.459372381907095" lon="11.163114455864077"><ele>108.0</ele><time>2026-05-01T10:53:00Z</time></trkpt><trkpt lat="43.45919258476566" lon="11.163017930487587"><ele>108.0</ele><time>2026-05-01T10:53:01Z</time></trkpt><trkpt lat="43.459019713119595" lon="11.162916341046978"><ele>108.0</ele><time>2026-05-01T10:53:02Z</time></trkpt><trkpt lat="43.458847525557594" lon="11.162807830423317"><ele>108.0</ele><time>2026-05-01T10:53:03Z</time></trkpt><trkpt lat="43.458682411062185" lon="11.162686461975815"><ele>108.0</ele><time>2026-05-01T10:53:04Z</time></trkpt><trkpt lat="43.4585261282561" lon="11.162558231968555"><ele>107.0</ele><time>2026-05-01T10:53:05Z</time></trkpt><trkpt lat="43.458377651766895" lon="11.162421947717043"><ele>106.0</ele><time>2026-05-01T10:53:06Z</time></trkpt><trkpt lat="43.45823022893" lon="11.162266281640768"><ele>105.0</ele><time>2026-05-01T10:53:07Z</time></trkpt><trkpt lat="43.45808279063445" lon="11.162108545761473"><ele>106.33333333333334</ele><time>2026-05-01T10:53:08Z</time></trkpt><trkpt lat="43.45794339564535" lon="11.161941528884496"><ele>107.66666666666667</ele><time>2026-05-01T10:53:09Z</time></trkpt><trkpt lat="43.45780176653884" lon="11.161770234916435"><ele>109.0</ele><time>2026-05-01T10:53:10Z</time></trkpt><trkpt lat="43.457672843037486" lon="11.161582686297196"><ele>108.66666666666667</ele><time>2026-05-01T10:53:11Z</time></trkpt><trkpt lat="43.45754112012083" lon="11.161391235130736"><ele>108.33333333333334</ele><time>2026-05-01T10:53:12Z</time></trkpt><trkpt lat="43.4574025641653" lon="11.161207013370895"><ele>108.0</ele><time>2026-05-01T10:53:13Z</time></trkpt><trkpt lat="43.457265309851635" lon="11.161021575403531"><ele>108.0</ele><time>2026-05-01T10:53:14Z</time></trkpt><trkpt lat="43.45712813190284" lon="11.160838650044534"><ele>108.0</ele><time>2026-05-01T10:53:15Z</time></trkpt><trkpt lat="43.45699232585617" lon="11.160657244719498"><ele>108.0</ele><time>2026-05-01T10:53:16Z</time></trkpt><trkpt lat="43.4568571091409" lon="11.160471712609906"><ele>108.33333333333334</ele><time>2026-05-01T10:53:17Z</time></trkpt><trkpt lat="43.45672497065561" lon="11.160282243695125"><ele>108.66666666666667</ele><time>2026-05-01T10:53:18Z</time></trkpt><trkpt lat="43.45659268777742" lon="11.160095698612889"><ele>109.0</ele><time>2026-05-01T10:53:19Z</time></trkpt><trkpt lat="43.45646334015994" lon="11.15992333853239"><ele>108.66666666666667</ele><time>2026-05-01T10:53:20Z</time></trkpt><trkpt lat="43.45633658307198" lon="11.159748354501023"><ele>108.33333333333334</ele><time>2026-05-01T10:53:21Z</time></trkpt><trkpt lat="43.456208868542305" lon="11.159575831490018"><ele>108.0</ele><time>2026-05-01T10:53:22Z</time></trkpt><trkpt lat="43.45608059465511" lon="11.15939860296404"><ele>108.33333333333334</ele><time>2026-05-01T10:53:23Z</time></trkpt><trkpt lat="43.455952506456114" lon="11.15922277156315"><ele>108.66666666666667</ele><time>2026-05-01T10:53:24Z</time></trkpt><trkpt lat="43.45582282467778" lon="11.159046812110567"><ele>109.0</ele><time>2026-05-01T10:53:25Z</time></trkpt><trkpt lat="43.45569552962742" lon="11.158868874270267"><ele>109.0</ele><time>2026-05-01T10:53:26Z</time></trkpt><trkpt lat="43.45557242831891" lon="11.158691822121515"><ele>109.0</ele><time>2026-05-01T10:53:27Z</time></trkpt><trkpt lat="43.45544298390763" lon="11.15851937668925"><ele>109.0</ele><time>2026-05-01T10:53:28Z</time></trkpt><trkpt lat="43.455315099902094" lon="11.15834200831867"><ele>108.66666666666667</ele><time>2026-05-01T10:53:29Z</time></trkpt><trkpt lat="43.45518726046372" lon="11.15815693803509"><ele>108.33333333333334</ele><time>2026-05-01T10:53:30Z</time></trkpt><trkpt lat="43.45505225721936" lon="11.157973501745445"><ele>108.0</ele><time>2026-05-01T10:53:31Z</time></trkpt><trkpt lat="43.45492032618422" lon="11.157789815845504"><ele>108.0</ele><time>2026-05-01T10:53:32Z</time></trkpt><trkpt lat="43.45478181934635" lon="11.157607698555987"><ele>108.0</ele><time>2026-05-01T10:53:33Z</time></trkpt><trkpt lat="43.454644360225636" lon="11.157421486782747"><ele>108.0</ele><time>2026-05-01T10:53:34Z</time></trkpt><trkpt lat="43.454507842712616" lon="11.157232998628361"><ele>108.66666666666666</ele><time>2026-05-01T10:53:35Z</time></trkpt><trkpt lat="43.454374700170135" lon="11.157040759983301"><ele>109.33333333333333</ele><time>2026-05-01T10:53:36Z</time></trkpt><trkpt lat="43.454239526164734" lon="11.156849341280019"><ele>110.0</ele><time>2026-05-01T10:53:37Z</time></trkpt><trkpt lat="43.45410386575254" lon="11.156664169836732"><ele>110.33333333333333</ele><time>2026-05-01T10:53:38Z</time></trkpt><trkpt lat="43.4539662814237" lon="11.156478008002292"><ele>110.66666666666666</ele><time>2026-05-01T10:53:39Z</time></trkpt><trkpt lat="43.45382377483042" lon="11.156297110473435"><ele>111.0</ele><time>2026-05-01T10:53:40Z</time></trkpt><trkpt lat="43.4536794550746" lon="11.156119586292302"><ele>111.0</ele><time>2026-05-01T10:53:41Z</time></trkpt><trkpt lat="43.453526377739514" lon="11.155951549534326"><ele>111.0</ele><time>2026-05-01T10:53:42Z</time></trkpt><trkpt lat="43.45336803292903" lon="11.15578917393101"><ele>111.0</ele><time>2026-05-01T10:53:43Z</time></trkpt><trkpt lat="43.453206135795824" lon="11.155633043899597"><ele>111.0</ele><time>2026-05-01T10:53:44Z</time></trkpt><trkpt lat="43.45304485026377" lon="11.155498079088455"><ele>111.0</ele><time>2026-05-01T10:53:45Z</time></trkpt><trkpt lat="43.452883003534964" lon="11.155363613229115"><ele>111.0</ele><time>2026-05-01T10:53:46Z</time></trkpt><trkpt lat="43.45271480795309" lon="11.155235059501692"><ele>111.0</ele><time>2026-05-01T10:53:47Z</time></trkpt><trkpt lat="43.45254536625745" lon="11.155114312367822"><ele>111.0</ele><time>2026-05-01T10:53:48Z</time></trkpt><trkpt lat="43.45237246435418" lon="11.155005055140014"><ele>111.0</ele><time>2026-05-01T10:53:49Z</time></trkpt><trkpt lat="43.45219550580057" lon="11.154900221007102"><ele>111.0</ele><time>2026-05-01T10:53:50Z</time></trkpt><trkpt lat="43.45201949307788" lon="11.154798730467647"><ele>111.0</ele><time>2026-05-01T10:53:51Z</time></trkpt><trkpt lat="43.45183955350301" lon="11.154700642249663"><ele>111.0</ele><time>2026-05-01T10:53:52Z</time></trkpt><trkpt lat="43.45165768237247" lon="11.15460154748438"><ele>111.0</ele><time>2026-05-01T10:53:53Z</time></trkpt><trkpt lat="43.451474534404795" lon="11.154504763686905"><ele>111.0</ele><time>2026-05-01T10:53:54Z</time></trkpt><trkpt lat="43.451290983359115" lon="11.15440672881294"><ele>111.0</ele><time>2026-05-01T10:53:55Z</time></trkpt><trkpt lat="43.45110712284147" lon="11.154309531413642"><ele>114.33333333333334</ele><time>2026-05-01T10:53:56Z</time></trkpt><trkpt lat="43.45091956396271" lon="11.154213395854516"><ele>117.66666666666667</ele><time>2026-05-01T10:53:57Z</time></trkpt><trkpt lat="43.45073439904447" lon="11.154120661010735"><ele>121.0</ele><time>2026-05-01T10:53:58Z</time></trkpt><trkpt lat="43.45055314207066" lon="11.154022496814964"><ele>122.0</ele><time>2026-05-01T10:53:59Z</time></trkpt><trkpt lat="43.45037037612296" lon="11.153923808294767"><ele>123.0</ele><time>2026-05-01T10:54:00Z</time></trkpt><trkpt lat="43.4501900820426" lon="11.153827257939454"><ele>124.0</ele><time>2026-05-01T10:54:01Z</time></trkpt><trkpt lat="43.45000869265623" lon="11.153730616032925"><ele>124.0</ele><time>2026-05-01T10:54:02Z</time></trkpt><trkpt lat="43.44982935128097" lon="11.153635141565374"><ele>124.0</ele><time>2026-05-01T10:54:03Z</time></trkpt><trkpt lat="43.44965350419261" lon="11.153538417005988"><ele>124.0</ele><time>2026-05-01T10:54:04Z</time></trkpt><trkpt lat="43.44948201885815" lon="11.153431291724539"><ele>123.0</ele><time>2026-05-01T10:54:05Z</time></trkpt><trkpt lat="43.44930657404948" lon="11.153325039208395"><ele>122.0</ele><time>2026-05-01T10:54:06Z</time></trkpt><trkpt lat="43.449138301371995" lon="11.153208126245937"><ele>121.0</ele><time>2026-05-01T10:54:07Z</time></trkpt><trkpt lat="43.44896332919716" lon="11.15308664686739"><ele>118.66666666666667</ele><time>2026-05-01T10:54:08Z</time></trkpt><trkpt lat="43.44879722576733" lon="11.152958744294152"><ele>116.33333333333334</ele><time>2026-05-01T10:54:09Z</time></trkpt><trkpt lat="43.448628773586705" lon="11.152830101397658"><ele>114.0</ele><time>2026-05-01T10:54:10Z</time></trkpt><trkpt lat="43.44846160308025" lon="11.152700071020487"><ele>114.0</ele><time>2026-05-01T10:54:11Z</time></trkpt><trkpt lat="43.448292171715856" lon="11.152561967391824"><ele>114.0</ele><time>2026-05-01T10:54:12Z</time></trkpt><trkpt lat="43.448138387425125" lon="11.152419103988885"><ele>114.0</ele><time>2026-05-01T10:54:13Z</time></trkpt><trkpt lat="43.44798571146588" lon="11.152258644201687"><ele>115.0</ele><time>2026-05-01T10:54:14Z</time></trkpt><trkpt lat="43.44783404450359" lon="11.152092288611735"><ele>116.0</ele><time>2026-05-01T10:54:15Z</time></trkpt><trkpt lat="43.447680010070854" lon="11.151935552419177"><ele>117.0</ele><time>2026-05-01T10:54:16Z</time></trkpt><trkpt lat="43.44752743057277" lon="11.151770823557428"><ele>117.0</ele><time>2026-05-01T10:54:17Z</time></trkpt><trkpt lat="43.44737285863157" lon="11.151610454349582"><ele>117.0</ele><time>2026-05-01T10:54:18Z</time></trkpt><trkpt lat="43.44721976400407" lon="11.151439863901105"><ele>117.0</ele><time>2026-05-01T10:54:19Z</time></trkpt><trkpt lat="43.44706757769011" lon="11.151271110971177"><ele>118.33333333333334</ele><time>2026-05-01T10:54:20Z</time></trkpt><trkpt lat="43.446911114461464" lon="11.151109444908604"><ele>119.66666666666667</ele><time>2026-05-01T10:54:21Z</time></trkpt><trkpt lat="43.44675684118112" lon="11.150949187255485"><ele>121.0</ele><time>2026-05-01T10:54:22Z</time></trkpt><trkpt lat="43.44659312227595" lon="11.150802103260373"><ele>122.66666666666667</ele><time>2026-05-01T10:54:23Z</time></trkpt><trkpt lat="43.44642124145672" lon="11.150666877902832"><ele>124.33333333333334</ele><time>2026-05-01T10:54:24Z</time></trkpt><trkpt lat="43.446250825303494" lon="11.150544324477018"><ele>126.0</ele><time>2026-05-01T10:54:25Z</time></trkpt><trkpt lat="43.44607608999109" lon="11.150434537388877"><ele>127.0</ele><time>2026-05-01T10:54:26Z</time></trkpt><trkpt lat="43.445900910265195" lon="11.150336159863208"><ele>128.0</ele><time>2026-05-01T10:54:27Z</time></trkpt><trkpt lat="43.44572389328255" lon="11.150244581488257"><ele>129.0</ele><time>2026-05-01T10:54:28Z</time></trkpt><trkpt lat="43.44554995302948" lon="11.15016494603568"><ele>128.0</ele><time>2026-05-01T10:54:29Z</time></trkpt><trkpt lat="43.44537861887354" lon="11.150087890419533"><ele>127.0</ele><time>2026-05-01T10:54:30Z</time></trkpt><trkpt lat="43.44520045833712" lon="11.150029085225604"><ele>126.0</ele><time>2026-05-01T10:54:31Z</time></trkpt><trkpt lat="43.44502173744689" lon="11.149980346150453"><ele>126.0</ele><time>2026-05-01T10:54:32Z</time></trkpt><trkpt lat="43.444841715009744" lon="11.149941312763467"><ele>126.0</ele><time>2026-05-01T10:54:33Z</time></trkpt><trkpt lat="43.44466099336585" lon="11.149913075646841"><ele>126.0</ele><time>2026-05-01T10:54:34Z</time></trkpt><trkpt lat="43.444480771321636" lon="11.149890820654074"><ele>126.66666666666666</ele><time>2026-05-01T10:54:35Z</time></trkpt><trkpt lat="43.44430121961425" lon="11.149880615236539"><ele>127.33333333333333</ele><time>2026-05-01T10:54:36Z</time></trkpt><trkpt lat="43.44412182799088" lon="11.149878977975906"><ele>128.0</ele><time>2026-05-01T10:54:37Z</time></trkpt><trkpt lat="43.44394287773454" lon="11.149883322172645"><ele>129.33333333333331</ele><time>2026-05-01T10:54:38Z</time></trkpt><trkpt lat="43.443764138191916" lon="11.149888377273378"><ele>130.66666666666666</ele><time>2026-05-01T10:54:39Z</time></trkpt><trkpt lat="43.44358645656146" lon="11.149886240940942"><ele>132.0</ele><time>2026-05-01T10:54:40Z</time></trkpt><trkpt lat="43.44340753920539" lon="11.14988872066767"><ele>132.0</ele><time>2026-05-01T10:54:41Z</time></trkpt><trkpt lat="43.44322860059121" lon="11.149893046488842"><ele>132.0</ele><time>2026-05-01T10:54:42Z</time></trkpt><trkpt lat="43.44304853671853" lon="11.149899454793312"><ele>132.0</ele><time>2026-05-01T10:54:43Z</time></trkpt><trkpt lat="43.442868996095044" lon="11.149909844454928"><ele>133.66666666666666</ele><time>2026-05-01T10:54:44Z</time></trkpt><trkpt lat="43.442692865700174" lon="11.149914027814761"><ele>135.33333333333331</ele><time>2026-05-01T10:54:45Z</time></trkpt><trkpt lat="43.442516727193244" lon="11.149920691678759"><ele>137.0</ele><time>2026-05-01T10:54:46Z</time></trkpt><trkpt lat="43.442340543770946" lon="11.149929040770898"><ele>137.0</ele><time>2026-05-01T10:54:47Z</time></trkpt><trkpt lat="43.44216647253711" lon="11.149938416665854"><ele>137.0</ele><time>2026-05-01T10:54:48Z</time></trkpt><trkpt lat="43.4419945974394" lon="11.149938732649204"><ele>137.0</ele><time>2026-05-01T10:54:49Z</time></trkpt><trkpt lat="43.441817425755296" lon="11.14994485303203"><ele>139.0</ele><time>2026-05-01T10:54:50Z</time></trkpt><trkpt lat="43.4416432588705" lon="11.149953993244683"><ele>141.0</ele><time>2026-05-01T10:54:51Z</time></trkpt><trkpt lat="43.44146989173564" lon="11.1499644045242"><ele>143.0</ele><time>2026-05-01T10:54:52Z</time></trkpt><trkpt lat="43.44128884599928" lon="11.149964075449143"><ele>144.0</ele><time>2026-05-01T10:54:53Z</time></trkpt><trkpt lat="43.44111521254966" lon="11.149948476143095"><ele>145.0</ele><time>2026-05-01T10:54:54Z</time></trkpt><trkpt lat="43.44094079777656" lon="11.149927205435038"><ele>146.0</ele><time>2026-05-01T10:54:55Z</time></trkpt><trkpt lat="43.440768912840745" lon="11.14989876147684"><ele>150.66666666666666</ele><time>2026-05-01T10:54:56Z</time></trkpt><trkpt lat="43.440600673495375" lon="11.149859204630923"><ele>155.33333333333334</ele><time>2026-05-01T10:54:57Z</time></trkpt><trkpt lat="43.44043019218687" lon="11.149811968499803"><ele>160.0</ele><time>2026-05-01T10:54:58Z</time></trkpt><trkpt lat="43.44025794060699" lon="11.149747100916514"><ele>160.0</ele><time>2026-05-01T10:54:59Z</time></trkpt><trkpt lat="43.44008724311595" lon="11.149676566775494"><ele>160.0</ele><time>2026-05-01T10:55:00Z</time></trkpt><trkpt lat="43.43991467571647" lon="11.149591332543572"><ele>160.0</ele><time>2026-05-01T10:55:01Z</time></trkpt><trkpt lat="43.43974030182056" lon="11.149505601984682"><ele>160.0</ele><time>2026-05-01T10:55:02Z</time></trkpt><trkpt lat="43.43957620245531" lon="11.149403404773551"><ele>160.0</ele><time>2026-05-01T10:55:03Z</time></trkpt><trkpt lat="43.439411416996805" lon="11.149298355681983"><ele>160.0</ele><time>2026-05-01T10:55:04Z</time></trkpt><trkpt lat="43.43925036874902" lon="11.149183554578261"><ele>160.0</ele><time>2026-05-01T10:55:05Z</time></trkpt><trkpt lat="43.43909075145513" lon="11.14905670050713"><ele>160.0</ele><time>2026-05-01T10:55:06Z</time></trkpt><trkpt lat="43.43893607911652" lon="11.148921530572714"><ele>160.0</ele><time>2026-05-01T10:55:07Z</time></trkpt><trkpt lat="43.438782980464076" lon="11.148777818178862"><ele>160.66666666666669</ele><time>2026-05-01T10:55:08Z</time></trkpt><trkpt lat="43.43863776286605" lon="11.148622035944816"><ele>161.33333333333334</ele><time>2026-05-01T10:55:09Z</time></trkpt><trkpt lat="43.43849811980722" lon="11.148451507285744"><ele>162.0</ele><time>2026-05-01T10:55:10Z</time></trkpt><trkpt lat="43.438354449544605" lon="11.148279699652994"><ele>161.66666666666666</ele><time>2026-05-01T10:55:11Z</time></trkpt><trkpt lat="43.43820832589412" lon="11.148123074918242"><ele>161.33333333333331</ele><time>2026-05-01T10:55:12Z</time></trkpt><trkpt lat="43.438065114040036" lon="11.1479627897394"><ele>161.0</ele><time>2026-05-01T10:55:13Z</time></trkpt><trkpt lat="43.43791666968343" lon="11.147804318707232"><ele>161.0</ele><time>2026-05-01T10:55:14Z</time></trkpt><trkpt lat="43.43776532600565" lon="11.147650953899536"><ele>161.0</ele><time>2026-05-01T10:55:15Z</time></trkpt><trkpt lat="43.43760625428906" lon="11.147503320295666"><ele>161.0</ele><time>2026-05-01T10:55:16Z</time></trkpt><trkpt lat="43.437438418248774" lon="11.147365604442959"><ele>158.66666666666666</ele><time>2026-05-01T10:55:17Z</time></trkpt><trkpt lat="43.437264129438944" lon="11.147238008886006"><ele>156.33333333333334</ele><time>2026-05-01T10:55:18Z</time></trkpt><trkpt lat="43.43708480574975" lon="11.147120620988012"><ele>154.0</ele><time>2026-05-01T10:55:19Z</time></trkpt><trkpt lat="43.43690386277589" lon="11.147006164428982"><ele>153.66666666666669</ele><time>2026-05-01T10:55:20Z</time></trkpt><trkpt lat="43.43672951179609" lon="11.146892116029926"><ele>153.33333333333334</ele><time>2026-05-01T10:55:21Z</time></trkpt><trkpt lat="43.436548367751314" lon="11.146790360545275"><ele>153.0</ele><time>2026-05-01T10:55:22Z</time></trkpt><trkpt lat="43.436360290635044" lon="11.146703292429839"><ele>152.33333333333334</ele><time>2026-05-01T10:55:23Z</time></trkpt><trkpt lat="43.43617391334784" lon="11.146611244331302"><ele>151.66666666666669</ele><time>2026-05-01T10:55:24Z</time></trkpt><trkpt lat="43.43598546120425" lon="11.146515845663961"><ele>151.0</ele><time>2026-05-01T10:55:25Z</time></trkpt><trkpt lat="43.43579491608725" lon="11.146420197341959"><ele>148.66666666666669</ele><time>2026-05-01T10:55:26Z</time></trkpt><trkpt lat="43.43560558535106" lon="11.146320735397527"><ele>146.33333333333334</ele><time>2026-05-01T10:55:27Z</time></trkpt><trkpt lat="43.43541878091418" lon="11.14622274701939"><ele>144.0</ele><time>2026-05-01T10:55:28Z</time></trkpt><trkpt lat="43.43523409833271" lon="11.14612992513083"><ele>142.66666666666666</ele><time>2026-05-01T10:55:29Z</time></trkpt><trkpt lat="43.4350457692062" lon="11.146030810070576"><ele>141.33333333333331</ele><time>2026-05-01T10:55:30Z</time></trkpt><trkpt lat="43.434851729485146" lon="11.145934278179734"><ele>140.0</ele><time>2026-05-01T10:55:31Z</time></trkpt><trkpt lat="43.43465809560947" lon="11.145840190248128"><ele>139.66666666666666</ele><time>2026-05-01T10:55:32Z</time></trkpt><trkpt lat="43.434467279492694" lon="11.145743901362373"><ele>139.33333333333334</ele><time>2026-05-01T10:55:33Z</time></trkpt><trkpt lat="43.4342789528163" lon="11.145643334464648"><ele>139.0</ele><time>2026-05-01T10:55:34Z</time></trkpt><trkpt lat="43.43408753544503" lon="11.145549207166079"><ele>137.33333333333334</ele><time>2026-05-01T10:55:35Z</time></trkpt><trkpt lat="43.43389845985546" lon="11.145446936274862"><ele>135.66666666666666</ele><time>2026-05-01T10:55:36Z</time></trkpt><trkpt lat="43.433709100420096" lon="11.145352100572929"><ele>134.0</ele><time>2026-05-01T10:55:37Z</time></trkpt><trkpt lat="43.43351245177637" lon="11.145256045804441"><ele>134.0</ele><time>2026-05-01T10:55:38Z</time></trkpt><trkpt lat="43.43331967483665" lon="11.14516048755015"><ele>134.0</ele><time>2026-05-01T10:55:39Z</time></trkpt><trkpt lat="43.433126451245016" lon="11.145063587724955"><ele>134.0</ele><time>2026-05-01T10:55:40Z</time></trkpt><trkpt lat="43.43293427298345" lon="11.144967001896154"><ele>137.33333333333331</ele><time>2026-05-01T10:55:41Z</time></trkpt><trkpt lat="43.43274489595459" lon="11.14486952787241"><ele>140.66666666666666</ele><time>2026-05-01T10:55:42Z</time></trkpt><trkpt lat="43.43255394046672" lon="11.144777324364597"><ele>144.0</ele><time>2026-05-01T10:55:43Z</time></trkpt><trkpt lat="43.43236848071216" lon="11.144677538922883"><ele>144.0</ele><time>2026-05-01T10:55:44Z</time></trkpt><trkpt lat="43.43217699309682" lon="11.14458651927442"><ele>144.0</ele><time>2026-05-01T10:55:45Z</time></trkpt><trkpt lat="43.431991961654504" lon="11.144507076134273"><ele>144.0</ele><time>2026-05-01T10:55:46Z</time></trkpt><trkpt lat="43.43180228227769" lon="11.14444651743433"><ele>144.0</ele><time>2026-05-01T10:55:47Z</time></trkpt><trkpt lat="43.43161090206817" lon="11.144395535926499"><ele>144.0</ele><time>2026-05-01T10:55:48Z</time></trkpt><trkpt lat="43.43141584317394" lon="11.144351647998302"><ele>144.0</ele><time>2026-05-01T10:55:49Z</time></trkpt><trkpt lat="43.43121880357517" lon="11.144329086150425"><ele>145.0</ele><time>2026-05-01T10:55:50Z</time></trkpt><trkpt lat="43.431021091809804" lon="11.144312728794494"><ele>146.0</ele><time>2026-05-01T10:55:51Z</time></trkpt><trkpt lat="43.4308259753913" lon="11.144301156814741"><ele>147.0</ele><time>2026-05-01T10:55:52Z</time></trkpt><trkpt lat="43.430629080648266" lon="11.144297151563912"><ele>149.0</ele><time>2026-05-01T10:55:53Z</time></trkpt><trkpt lat="43.430432892565676" lon="11.14429460136603"><ele>151.0</ele><time>2026-05-01T10:55:54Z</time></trkpt><trkpt lat="43.43023448093184" lon="11.144298399086276"><ele>153.0</ele><time>2026-05-01T10:55:55Z</time></trkpt><trkpt lat="43.43002731541978" lon="11.144314981742196"><ele>153.0</ele><time>2026-05-01T10:55:56Z</time></trkpt><trkpt lat="43.42982781557392" lon="11.144317784841894"><ele>153.0</ele><time>2026-05-01T10:55:57Z</time></trkpt><trkpt lat="43.42962836044374" lon="11.144321835809434"><ele>153.0</ele><time>2026-05-01T10:55:58Z</time></trkpt><trkpt lat="43.42942822575754" lon="11.144328292571682"><ele>154.33333333333334</ele><time>2026-05-01T10:55:59Z</time></trkpt><trkpt lat="43.42922884726696" lon="11.144336234476192"><ele>155.66666666666669</ele><time>2026-05-01T10:56:00Z</time></trkpt><trkpt lat="43.429028913806064" lon="11.144343040920717"><ele>157.0</ele><time>2026-05-01T10:56:01Z</time></trkpt><trkpt lat="43.42883158162877" lon="11.144346502568506"><ele>158.0</ele><time>2026-05-01T10:56:02Z</time></trkpt><trkpt lat="43.42863438716254" lon="11.144358026734396"><ele>159.0</ele><time>2026-05-01T10:56:03Z</time></trkpt><trkpt lat="43.428437653023906" lon="11.144371629365958"><ele>160.0</ele><time>2026-05-01T10:56:04Z</time></trkpt><trkpt lat="43.42825037861439" lon="11.144366054328728"><ele>160.0</ele><time>2026-05-01T10:56:05Z</time></trkpt><trkpt lat="43.42806017373449" lon="11.1443736214419"><ele>160.0</ele><time>2026-05-01T10:56:06Z</time></trkpt><trkpt lat="43.42787615091104" lon="11.144372051667027"><ele>160.0</ele><time>2026-05-01T10:56:07Z</time></trkpt><trkpt lat="43.42769046884134" lon="11.144376250861026"><ele>160.66666666666669</ele><time>2026-05-01T10:56:08Z</time></trkpt><trkpt lat="43.427503502235766" lon="11.144400082955153"><ele>161.33333333333334</ele><time>2026-05-01T10:56:09Z</time></trkpt><trkpt lat="43.42731805128704" lon="11.144425097365513"><ele>162.0</ele><time>2026-05-01T10:56:10Z</time></trkpt><trkpt lat="43.42713427217038" lon="11.144457940080708"><ele>163.0</ele><time>2026-05-01T10:56:11Z</time></trkpt><trkpt lat="43.42694590522911" lon="11.144499224032375"><ele>164.0</ele><time>2026-05-01T10:56:12Z</time></trkpt><trkpt lat="43.42675895367588" lon="11.144554654410003"><ele>165.0</ele><time>2026-05-01T10:56:13Z</time></trkpt><trkpt lat="43.426570241951545" lon="11.144619238777718"><ele>165.0</ele><time>2026-05-01T10:56:14Z</time></trkpt><trkpt lat="43.42638391930338" lon="11.144696328719352"><ele>165.0</ele><time>2026-05-01T10:56:15Z</time></trkpt><trkpt lat="43.42619668667357" lon="11.144780178426595"><ele>165.0</ele><time>2026-05-01T10:56:16Z</time></trkpt><trkpt lat="43.42601138034536" lon="11.144872928027258"><ele>164.0</ele><time>2026-05-01T10:56:17Z</time></trkpt><trkpt lat="43.42583433960435" lon="11.14496366746412"><ele>163.0</ele><time>2026-05-01T10:56:18Z</time></trkpt><trkpt lat="43.42565910789539" lon="11.145058601363584"><ele>162.0</ele><time>2026-05-01T10:56:19Z</time></trkpt><trkpt lat="43.4254849788601" lon="11.145165385785617"><ele>164.66666666666666</ele><time>2026-05-01T10:56:20Z</time></trkpt><trkpt lat="43.425316010451446" lon="11.145288580750586"><ele>167.33333333333331</ele><time>2026-05-01T10:56:21Z</time></trkpt><trkpt lat="43.42514915798037" lon="11.145422633549575"><ele>170.0</ele><time>2026-05-01T10:56:22Z</time></trkpt><trkpt lat="43.424987564344704" lon="11.145550915704748"><ele>170.0</ele><time>2026-05-01T10:56:23Z</time></trkpt><trkpt lat="43.42482918862774" lon="11.145679499419685"><ele>170.0</ele><time>2026-05-01T10:56:24Z</time></trkpt><trkpt lat="43.42468030701496" lon="11.145824712284766"><ele>170.0</ele><time>2026-05-01T10:56:25Z</time></trkpt><trkpt lat="43.424539473744396" lon="11.145977023412714"><ele>171.66666666666666</ele><time>2026-05-01T10:56:26Z</time></trkpt><trkpt lat="43.424401314440324" lon="11.146135209345982"><ele>173.33333333333334</ele><time>2026-05-01T10:56:27Z</time></trkpt><trkpt lat="43.42426738497952" lon="11.146297639072518"><ele>175.0</ele><time>2026-05-01T10:56:28Z</time></trkpt><trkpt lat="43.42413947274082" lon="11.146463672016873"><ele>174.33333333333334</ele><time>2026-05-01T10:56:29Z</time></trkpt><trkpt lat="43.42401163408152" lon="11.146637552715456"><ele>173.66666666666666</ele><time>2026-05-01T10:56:30Z</time></trkpt><trkpt lat="43.423883399968005" lon="11.146818997334481"><ele>173.0</ele><time>2026-05-01T10:56:31Z</time></trkpt><trkpt lat="43.42376056709112" lon="11.146998612673451"><ele>175.33333333333331</ele><time>2026-05-01T10:56:32Z</time></trkpt><trkpt lat="43.4236441472588" lon="11.14716751393723"><ele>177.66666666666666</ele><time>2026-05-01T10:56:33Z</time></trkpt><trkpt lat="43.42353440951708" lon="11.147330140009458"><ele>180.0</ele><time>2026-05-01T10:56:34Z</time></trkpt><trkpt lat="43.423421209396345" lon="11.147501018365132"><ele>180.0</ele><time>2026-05-01T10:56:35Z</time></trkpt><trkpt lat="43.423305790328264" lon="11.147668725467435"><ele>180.0</ele><time>2026-05-01T10:56:36Z</time></trkpt><trkpt lat="43.4231884575827" lon="11.147835046589606"><ele>180.0</ele><time>2026-05-01T10:56:37Z</time></trkpt><trkpt lat="43.423070739089994" lon="11.148002180794949"><ele>183.0</ele><time>2026-05-01T10:56:38Z</time></trkpt><trkpt lat="43.42295372597189" lon="11.148170093496127"><ele>186.0</ele><time>2026-05-01T10:56:39Z</time></trkpt><trkpt lat="43.42283738722932" lon="11.148345790483173"><ele>189.0</ele><time>2026-05-01T10:56:40Z</time></trkpt><trkpt lat="43.42271868350507" lon="11.148517004572934"><ele>189.0</ele><time>2026-05-01T10:56:41Z</time></trkpt><trkpt lat="43.42259840697887" lon="11.148689784062116"><ele>189.0</ele><time>2026-05-01T10:56:42Z</time></trkpt><trkpt lat="43.42247745636629" lon="11.148865755738031"><ele>189.0</ele><time>2026-05-01T10:56:43Z</time></trkpt><trkpt lat="43.422358574808804" lon="11.149039402237664"><ele>188.66666666666666</ele><time>2026-05-01T10:56:44Z</time></trkpt><trkpt lat="43.42223579850747" lon="11.149218258060857"><ele>188.33333333333331</ele><time>2026-05-01T10:56:45Z</time></trkpt><trkpt lat="43.422108822071316" lon="11.14939371699645"><ele>188.0</ele><time>2026-05-01T10:56:46Z</time></trkpt><trkpt lat="43.42198533582938" lon="11.14957679894316"><ele>191.66666666666666</ele><time>2026-05-01T10:56:47Z</time></trkpt><trkpt lat="43.421856769825425" lon="11.149758928769094"><ele>195.33333333333331</ele><time>2026-05-01T10:56:48Z</time></trkpt><trkpt lat="43.42173454230005" lon="11.149934844880946"><ele>199.0</ele><time>2026-05-01T10:56:49Z</time></trkpt><trkpt lat="43.42161320944493" lon="11.150113047799543"><ele>199.33333333333331</ele><time>2026-05-01T10:56:50Z</time></trkpt><trkpt lat="43.42149430679871" lon="11.150285534145342"><ele>199.66666666666669</ele><time>2026-05-01T10:56:51Z</time></trkpt><trkpt lat="43.42137292748059" lon="11.150465581376235"><ele>200.0</ele><time>2026-05-01T10:56:52Z</time></trkpt><trkpt lat="43.4212511857547" lon="11.150640749950881"><ele>202.66666666666669</ele><time>2026-05-01T10:56:53Z</time></trkpt><trkpt lat="43.42113214380247" lon="11.150814976919373"><ele>205.33333333333331</ele><time>2026-05-01T10:56:54Z</time></trkpt><trkpt lat="43.421016118629126" lon="11.150986222882796"><ele>208.0</ele><time>2026-05-01T10:56:55Z</time></trkpt><trkpt lat="43.42089878861133" lon="11.151153672686277"><ele>208.0</ele><time>2026-05-01T10:56:56Z</time></trkpt><trkpt lat="43.420785108166314" lon="11.15132062920144"><ele>208.0</ele><time>2026-05-01T10:56:57Z</time></trkpt><trkpt lat="43.420671955910926" lon="11.151481191444272"><ele>208.0</ele><time>2026-05-01T10:56:58Z</time></trkpt><trkpt lat="43.420554994346574" lon="11.151636720848588"><ele>210.66666666666666</ele><time>2026-05-01T10:56:59Z</time></trkpt><trkpt lat="43.42044192050974" lon="11.151796093116872"><ele>213.33333333333331</ele><time>2026-05-01T10:57:00Z</time></trkpt><trkpt lat="43.42033004562574" lon="11.151954796320958"><ele>216.0</ele><time>2026-05-01T10:57:01Z</time></trkpt><trkpt lat="43.42021983667842" lon="11.15211392871374"><ele>216.0</ele><time>2026-05-01T10:57:02Z</time></trkpt><trkpt lat="43.420111145368374" lon="11.152281952205545"><ele>216.0</ele><time>2026-05-01T10:57:03Z</time></trkpt><trkpt lat="43.42000471462642" lon="11.152439377860393"><ele>216.0</ele><time>2026-05-01T10:57:04Z</time></trkpt><trkpt lat="43.419900649169826" lon="11.152594413340905"><ele>215.66666666666669</ele><time>2026-05-01T10:57:05Z</time></trkpt><trkpt lat="43.419786041844986" lon="11.152750962937764"><ele>215.33333333333334</ele><time>2026-05-01T10:57:06Z</time></trkpt><trkpt lat="43.41967589374085" lon="11.152909710608878"><ele>215.0</ele><time>2026-05-01T10:57:07Z</time></trkpt><trkpt lat="43.419565115222575" lon="11.153072102897115"><ele>217.33333333333334</ele><time>2026-05-01T10:57:08Z</time></trkpt><trkpt lat="43.41945446506767" lon="11.15323999644239"><ele>219.66666666666669</ele><time>2026-05-01T10:57:09Z</time></trkpt><trkpt lat="43.419339470182884" lon="11.153409859773651"><ele>222.0</ele><time>2026-05-01T10:57:10Z</time></trkpt><trkpt lat="43.41922625325752" lon="11.153572724793369"><ele>222.0</ele><time>2026-05-01T10:57:11Z</time></trkpt><trkpt lat="43.41910973052842" lon="11.153733560140969"><ele>222.0</ele><time>2026-05-01T10:57:12Z</time></trkpt><trkpt lat="43.41899547808162" lon="11.153899557446557"><ele>222.0</ele><time>2026-05-01T10:57:13Z</time></trkpt><trkpt lat="43.41888163116424" lon="11.154070345371517"><ele>224.0</ele><time>2026-05-01T10:57:14Z</time></trkpt><trkpt lat="43.4187634513217" lon="11.154235442708817"><ele>226.0</ele><time>2026-05-01T10:57:15Z</time></trkpt><trkpt lat="43.418642752573454" lon="11.154405123368946"><ele>228.0</ele><time>2026-05-01T10:57:16Z</time></trkpt><trkpt lat="43.41852110619142" lon="11.154577283259107"><ele>228.0</ele><time>2026-05-01T10:57:17Z</time></trkpt><trkpt lat="43.41839856152093" lon="11.154755815509526"><ele>228.0</ele><time>2026-05-01T10:57:18Z</time></trkpt><trkpt lat="43.418271657973506" lon="11.15493753083903"><ele>228.0</ele><time>2026-05-01T10:57:19Z</time></trkpt><trkpt lat="43.418140924749586" lon="11.155115424463052"><ele>228.33333333333331</ele><time>2026-05-01T10:57:20Z</time></trkpt><trkpt lat="43.41801465343302" lon="11.155295401839167"><ele>228.66666666666666</ele><time>2026-05-01T10:57:21Z</time></trkpt><trkpt lat="43.41789267630272" lon="11.15547374957278"><ele>229.0</ele><time>2026-05-01T10:57:22Z</time></trkpt><trkpt lat="43.417772907564476" lon="11.155653325695118"><ele>230.0</ele><time>2026-05-01T10:57:23Z</time></trkpt><trkpt lat="43.417647159272995" lon="11.155825544535018"><ele>231.0</ele><time>2026-05-01T10:57:24Z</time></trkpt><trkpt lat="43.41752646879814" lon="11.156001406411528"><ele>232.0</ele><time>2026-05-01T10:57:25Z</time></trkpt><trkpt lat="43.41740485819904" lon="11.156176781320841"><ele>232.0</ele><time>2026-05-01T10:57:26Z</time></trkpt><trkpt lat="43.41728054594454" lon="11.156352915101536"><ele>232.0</ele><time>2026-05-01T10:57:27Z</time></trkpt><trkpt lat="43.41715923513129" lon="11.156528318770079"><ele>232.0</ele><time>2026-05-01T10:57:28Z</time></trkpt><trkpt lat="43.417032901631785" lon="11.156701395299423"><ele>232.66666666666666</ele><time>2026-05-01T10:57:29Z</time></trkpt><trkpt lat="43.41691125489223" lon="11.156874781316517"><ele>233.33333333333331</ele><time>2026-05-01T10:57:30Z</time></trkpt><trkpt lat="43.41678954438301" lon="11.157052297545103"><ele>234.0</ele><time>2026-05-01T10:57:31Z</time></trkpt><trkpt lat="43.41666470607612" lon="11.157229654518135"><ele>233.66666666666669</ele><time>2026-05-01T10:57:32Z</time></trkpt><trkpt lat="43.41654407074021" lon="11.157405645862688"><ele>233.33333333333334</ele><time>2026-05-01T10:57:33Z</time></trkpt><trkpt lat="43.416417363273915" lon="11.157580273962258"><ele>233.0</ele><time>2026-05-01T10:57:34Z</time></trkpt><trkpt lat="43.41629508850958" lon="11.15776062100859"><ele>233.0</ele><time>2026-05-01T10:57:35Z</time></trkpt><trkpt lat="43.41617030204644" lon="11.157937106875135"><ele>233.0</ele><time>2026-05-01T10:57:36Z</time></trkpt><trkpt lat="43.41604418584633" lon="11.158117985650913"><ele>233.0</ele><time>2026-05-01T10:57:37Z</time></trkpt><trkpt lat="43.415913413336966" lon="11.158300779074185"><ele>232.33333333333334</ele><time>2026-05-01T10:57:38Z</time></trkpt><trkpt lat="43.41578355620482" lon="11.158485064574213"><ele>231.66666666666669</ele><time>2026-05-01T10:57:39Z</time></trkpt><trkpt lat="43.41565397049196" lon="11.15867387652306"><ele>231.0</ele><time>2026-05-01T10:57:40Z</time></trkpt><trkpt lat="43.415518390596134" lon="11.15886185309843"><ele>230.66666666666669</ele><time>2026-05-01T10:57:41Z</time></trkpt><trkpt lat="43.41538751088887" lon="11.159051940015475"><ele>230.33333333333334</ele><time>2026-05-01T10:57:42Z</time></trkpt><trkpt lat="43.41525702474343" lon="11.15923936569887"><ele>230.0</ele><time>2026-05-01T10:57:43Z</time></trkpt><trkpt lat="43.415124671597525" lon="11.159420078362254"><ele>230.0</ele><time>2026-05-01T10:57:44Z</time></trkpt><trkpt lat="43.41499712756279" lon="11.159606547829265"><ele>230.0</ele><time>2026-05-01T10:57:45Z</time></trkpt><trkpt lat="43.41486749712024" lon="11.159795175118717"><ele>230.0</ele><time>2026-05-01T10:57:46Z</time></trkpt><trkpt lat="43.414737304917374" lon="11.159983210701466"><ele>229.66666666666669</ele><time>2026-05-01T10:57:47Z</time></trkpt><trkpt lat="43.41460653733417" lon="11.160170099973973"><ele>229.33333333333331</ele><time>2026-05-01T10:57:48Z</time></trkpt><trkpt lat="43.41447343543553" lon="11.16035773197339"><ele>229.0</ele><time>2026-05-01T10:57:49Z</time></trkpt><trkpt lat="43.41434365205821" lon="11.160547065489903"><ele>229.66666666666666</ele><time>2026-05-01T10:57:50Z</time></trkpt><trkpt lat="43.41421016531299" lon="11.160734465620372"><ele>230.33333333333331</ele><time>2026-05-01T10:57:51Z</time></trkpt><trkpt lat="43.41407707055805" lon="11.160920935672792"><ele>231.0</ele><time>2026-05-01T10:57:52Z</time></trkpt><trkpt lat="43.41394579243476" lon="11.161112937876752"><ele>230.0</ele><time>2026-05-01T10:57:53Z</time></trkpt><trkpt lat="43.41381478269606" lon="11.161305462300673"><ele>229.0</ele><time>2026-05-01T10:57:54Z</time></trkpt><trkpt lat="43.413685656060274" lon="11.161484598996026"><ele>228.0</ele><time>2026-05-01T10:57:55Z</time></trkpt><trkpt lat="43.41355814104476" lon="11.161666380499156"><ele>228.0</ele><time>2026-05-01T10:57:56Z</time></trkpt><trkpt lat="43.41343207603433" lon="11.161850134748937"><ele>228.0</ele><time>2026-05-01T10:57:57Z</time></trkpt><trkpt lat="43.41330441169877" lon="11.16202807256344"><ele>228.0</ele><time>2026-05-01T10:57:58Z</time></trkpt><trkpt lat="43.41317924105624" lon="11.16220964791885"><ele>227.66666666666669</ele><time>2026-05-01T10:57:59Z</time></trkpt><trkpt lat="43.41305318487025" lon="11.162391632435964"><ele>227.33333333333334</ele><time>2026-05-01T10:58:00Z</time></trkpt><trkpt lat="43.41292369160592" lon="11.162577062798931"><ele>227.0</ele><time>2026-05-01T10:58:01Z</time></trkpt><trkpt lat="43.41279372236917" lon="11.162765265324381"><ele>227.0</ele><time>2026-05-01T10:58:02Z</time></trkpt><trkpt lat="43.41266481211798" lon="11.162952095689919"><ele>227.0</ele><time>2026-05-01T10:58:03Z</time></trkpt><trkpt lat="43.41253890801678" lon="11.163143133600547"><ele>227.0</ele><time>2026-05-01T10:58:04Z</time></trkpt><trkpt lat="43.41240919041024" lon="11.163332291621337"><ele>226.66666666666669</ele><time>2026-05-01T10:58:05Z</time></trkpt><trkpt lat="43.41227846515369" lon="11.163523127310187"><ele>226.33333333333331</ele><time>2026-05-01T10:58:06Z</time></trkpt><trkpt lat="43.412146850662005" lon="11.163717713697174"><ele>226.0</ele><time>2026-05-01T10:58:07Z</time></trkpt><trkpt lat="43.41201646795098" lon="11.163910065604838"><ele>226.0</ele><time>2026-05-01T10:58:08Z</time></trkpt><trkpt lat="43.411889917416985" lon="11.164108915243643"><ele>226.0</ele><time>2026-05-01T10:58:09Z</time></trkpt><trkpt lat="43.4117629946001" lon="11.16430863948292"><ele>226.0</ele><time>2026-05-01T10:58:10Z</time></trkpt><trkpt lat="43.41164016802574" lon="11.16451804709659"><ele>226.0</ele><time>2026-05-01T10:58:11Z</time></trkpt><trkpt lat="43.41152291137483" lon="11.164729183203573"><ele>226.0</ele><time>2026-05-01T10:58:12Z</time></trkpt><trkpt lat="43.41140744066265" lon="11.164943149658317"><ele>226.0</ele><time>2026-05-01T10:58:13Z</time></trkpt><trkpt lat="43.41129668778408" lon="11.165161388137287"><ele>226.0</ele><time>2026-05-01T10:58:14Z</time></trkpt><trkpt lat="43.41119316052624" lon="11.165379414964262"><ele>226.0</ele><time>2026-05-01T10:58:15Z</time></trkpt><trkpt lat="43.41108991529275" lon="11.165598922564538"><ele>226.0</ele><time>2026-05-01T10:58:16Z</time></trkpt><trkpt lat="43.4109897185488" lon="11.165826659973893"><ele>226.33333333333331</ele><time>2026-05-01T10:58:17Z</time></trkpt><trkpt lat="43.41089034391707" lon="11.166057271540017"><ele>226.66666666666669</ele><time>2026-05-01T10:58:18Z</time></trkpt><trkpt lat="43.410795738110295" lon="11.166289893575767"><ele>227.0</ele><time>2026-05-01T10:58:19Z</time></trkpt><trkpt lat="43.41069967785847" lon="11.166520549825549"><ele>226.66666666666669</ele><time>2026-05-01T10:58:20Z</time></trkpt><trkpt lat="43.41061307789577" lon="11.166758217746331"><ele>226.33333333333331</ele><time>2026-05-01T10:58:21Z</time></trkpt><trkpt lat="43.41052944349947" lon="11.16699707785306"><ele>226.0</ele><time>2026-05-01T10:58:22Z</time></trkpt><trkpt lat="43.41045066452599" lon="11.167238171734978"><ele>226.33333333333331</ele><time>2026-05-01T10:58:23Z</time></trkpt><trkpt lat="43.41037165351143" lon="11.167483224705718"><ele>226.66666666666669</ele><time>2026-05-01T10:58:24Z</time></trkpt><trkpt lat="43.41029806153527" lon="11.167731750549393"><ele>227.0</ele><time>2026-05-01T10:58:25Z</time></trkpt><trkpt lat="43.41022733209613" lon="11.167976390124368"><ele>226.33333333333334</ele><time>2026-05-01T10:58:26Z</time></trkpt><trkpt lat="43.410155430227334" lon="11.168222768296033"><ele>225.66666666666669</ele><time>2026-05-01T10:58:27Z</time></trkpt><trkpt lat="43.410084031478156" lon="11.168472770619609"><ele>225.0</ele><time>2026-05-01T10:58:28Z</time></trkpt><trkpt lat="43.41001016773956" lon="11.168721135064125"><ele>225.0</ele><time>2026-05-01T10:58:29Z</time></trkpt><trkpt lat="43.40993696589722" lon="11.168965918658884"><ele>225.0</ele><time>2026-05-01T10:58:30Z</time></trkpt><trkpt lat="43.4098680721134" lon="11.169215367493775"><ele>225.0</ele><time>2026-05-01T10:58:31Z</time></trkpt><trkpt lat="43.4097935902064" lon="11.169458015253921"><ele>224.66666666666669</ele><time>2026-05-01T10:58:32Z</time></trkpt><trkpt lat="43.40972076132905" lon="11.169701203733373"><ele>224.33333333333334</ele><time>2026-05-01T10:58:33Z</time></trkpt><trkpt lat="43.409650309268194" lon="11.169945258019501"><ele>224.0</ele><time>2026-05-01T10:58:34Z</time></trkpt><trkpt lat="43.40957719886276" lon="11.170187776703333"><ele>224.0</ele><time>2026-05-01T10:58:35Z</time></trkpt><trkpt lat="43.40949975294027" lon="11.170433074782986"><ele>224.0</ele><time>2026-05-01T10:58:36Z</time></trkpt><trkpt lat="43.40943027348872" lon="11.170678142639641"><ele>224.0</ele><time>2026-05-01T10:58:37Z</time></trkpt><trkpt lat="43.40935995392628" lon="11.170926114767001"><ele>224.0</ele><time>2026-05-01T10:58:38Z</time></trkpt><trkpt lat="43.409285814897316" lon="11.171174850416104"><ele>224.0</ele><time>2026-05-01T10:58:39Z</time></trkpt><trkpt lat="43.4092115125819" lon="11.171425276770963"><ele>224.0</ele><time>2026-05-01T10:58:40Z</time></trkpt><trkpt lat="43.40913524826522" lon="11.171671726909276"><ele>224.0</ele><time>2026-05-01T10:58:41Z</time></trkpt><trkpt lat="43.40906357515896" lon="11.171918084223533"><ele>224.0</ele><time>2026-05-01T10:58:42Z</time></trkpt><trkpt lat="43.408992280357396" lon="11.172164156922367"><ele>224.0</ele><time>2026-05-01T10:58:43Z</time></trkpt><trkpt lat="43.40892045308367" lon="11.17241580517754"><ele>223.66666666666669</ele><time>2026-05-01T10:58:44Z</time></trkpt><trkpt lat="43.40884473410051" lon="11.172663342238893"><ele>223.33333333333331</ele><time>2026-05-01T10:58:45Z</time></trkpt><trkpt lat="43.4087693903609" lon="11.17291144014358"><ele>223.0</ele><time>2026-05-01T10:58:46Z</time></trkpt><trkpt lat="43.40869713555243" lon="11.173165047313992"><ele>223.0</ele><time>2026-05-01T10:58:47Z</time></trkpt><trkpt lat="43.40862681789075" lon="11.173414652759103"><ele>223.0</ele><time>2026-05-01T10:58:48Z</time></trkpt><trkpt lat="43.40855829850488" lon="11.173664997788672"><ele>223.0</ele><time>2026-05-01T10:58:49Z</time></trkpt><trkpt lat="43.408486373402305" lon="11.17391440196027"><ele>223.66666666666666</ele><time>2026-05-01T10:58:50Z</time></trkpt><trkpt lat="43.408416582863765" lon="11.174167737711558"><ele>224.33333333333331</ele><time>2026-05-01T10:58:51Z</time></trkpt><trkpt lat="43.40834522574989" lon="11.174415773781945"><ele>225.0</ele><time>2026-05-01T10:58:52Z</time></trkpt><trkpt lat="43.40827031220615" lon="11.174664652207811"><ele>225.66666666666669</ele><time>2026-05-01T10:58:53Z</time></trkpt><trkpt lat="43.40819704180281" lon="11.174912011244357"><ele>226.33333333333334</ele><time>2026-05-01T10:58:54Z</time></trkpt><trkpt lat="43.408125372550565" lon="11.175157901865223"><ele>227.0</ele><time>2026-05-01T10:58:55Z</time></trkpt><trkpt lat="43.40805209697992" lon="11.175405039274573"><ele>225.66666666666669</ele><time>2026-05-01T10:58:56Z</time></trkpt><trkpt lat="43.40798136720937" lon="11.175654952570243"><ele>224.33333333333331</ele><time>2026-05-01T10:58:57Z</time></trkpt><trkpt lat="43.407906872816056" lon="11.17590512242635"><ele>223.0</ele><time>2026-05-01T10:58:58Z</time></trkpt><trkpt lat="43.40783225565738" lon="11.17615872808979"><ele>221.66666666666666</ele><time>2026-05-01T10:58:59Z</time></trkpt><trkpt lat="43.40775518255457" lon="11.176412320623534"><ele>220.33333333333331</ele><time>2026-05-01T10:59:00Z</time></trkpt><trkpt lat="43.407676665256865" lon="11.176661452416091"><ele>219.0</ele><time>2026-05-01T10:59:01Z</time></trkpt><trkpt lat="43.40760618081424" lon="11.176913500385444"><ele>219.0</ele><time>2026-05-01T10:59:02Z</time></trkpt><trkpt lat="43.4075338799602" lon="11.177161692162997"><ele>219.0</ele><time>2026-05-01T10:59:03Z</time></trkpt><trkpt lat="43.40745679898828" lon="11.177407732021246"><ele>219.0</ele><time>2026-05-01T10:59:04Z</time></trkpt><trkpt lat="43.4073839675846" lon="11.17765396885664"><ele>220.0</ele><time>2026-05-01T10:59:05Z</time></trkpt><trkpt lat="43.4072952417142" lon="11.17789938121719"><ele>221.0</ele><time>2026-05-01T10:59:06Z</time></trkpt><trkpt lat="43.40720484490942" lon="11.178140423519629"><ele>222.0</ele><time>2026-05-01T10:59:07Z</time></trkpt><trkpt lat="43.40712244489374" lon="11.178383874406457"><ele>220.66666666666669</ele><time>2026-05-01T10:59:08Z</time></trkpt><trkpt lat="43.40703096354286" lon="11.178622835128786"><ele>219.33333333333334</ele><time>2026-05-01T10:59:09Z</time></trkpt><trkpt lat="43.40693768556527" lon="11.178861125160068"><ele>218.0</ele><time>2026-05-01T10:59:10Z</time></trkpt><trkpt lat="43.40684437711687" lon="11.179099399687095"><ele>218.0</ele><time>2026-05-01T10:59:11Z</time></trkpt><trkpt lat="43.406749955398865" lon="11.179336051413676"><ele>218.0</ele><time>2026-05-01T10:59:12Z</time></trkpt><trkpt lat="43.406652987322516" lon="11.179566943213302"><ele>218.0</ele><time>2026-05-01T10:59:13Z</time></trkpt><trkpt lat="43.406555883892445" lon="11.179795314916804"><ele>217.66666666666669</ele><time>2026-05-01T10:59:14Z</time></trkpt><trkpt lat="43.40645373791143" lon="11.180024002799527"><ele>217.33333333333331</ele><time>2026-05-01T10:59:15Z</time></trkpt><trkpt lat="43.40634881372158" lon="11.180253404485361"><ele>217.0</ele><time>2026-05-01T10:59:16Z</time></trkpt><trkpt lat="43.406238324685276" lon="11.180482966109025"><ele>219.0</ele><time>2026-05-01T10:59:17Z</time></trkpt><trkpt lat="43.406130751194624" lon="11.180711276793904"><ele>221.0</ele><time>2026-05-01T10:59:18Z</time></trkpt><trkpt lat="43.40602217768967" lon="11.180936183010232"><ele>223.0</ele><time>2026-05-01T10:59:19Z</time></trkpt><trkpt lat="43.40591275061527" lon="11.181159018102274"><ele>223.0</ele><time>2026-05-01T10:59:20Z</time></trkpt><trkpt lat="43.405804821857565" lon="11.181382811243756"><ele>223.0</ele><time>2026-05-01T10:59:21Z</time></trkpt><trkpt lat="43.40569949588932" lon="11.181608631822971"><ele>223.0</ele><time>2026-05-01T10:59:22Z</time></trkpt><trkpt lat="43.40559266935947" lon="11.181836270089276"><ele>223.33333333333331</ele><time>2026-05-01T10:59:23Z</time></trkpt><trkpt lat="43.40548158941409" lon="11.18205650544428"><ele>223.66666666666669</ele><time>2026-05-01T10:59:24Z</time></trkpt><trkpt lat="43.40536996998963" lon="11.182280596269644"><ele>224.0</ele><time>2026-05-01T10:59:25Z</time></trkpt><trkpt lat="43.40525630224568" lon="11.18250315229098"><ele>223.33333333333334</ele><time>2026-05-01T10:59:26Z</time></trkpt><trkpt lat="43.405143582153336" lon="11.182724232811559"><ele>222.66666666666669</ele><time>2026-05-01T10:59:27Z</time></trkpt><trkpt lat="43.40503172787518" lon="11.18294851202582"><ele>222.0</ele><time>2026-05-01T10:59:28Z</time></trkpt><trkpt lat="43.40492005110551" lon="11.183173868062402"><ele>221.66666666666669</ele><time>2026-05-01T10:59:29Z</time></trkpt><trkpt lat="43.40480422021106" lon="11.183392268657284"><ele>221.33333333333334</ele><time>2026-05-01T10:59:30Z</time></trkpt><trkpt lat="43.40469575964584" lon="11.183611005870773"><ele>221.0</ele><time>2026-05-01T10:59:31Z</time></trkpt><trkpt lat="43.40457747940521" lon="11.183829631547727"><ele>219.66666666666669</ele><time>2026-05-01T10:59:32Z</time></trkpt><trkpt lat="43.404463796583315" lon="11.184049682343828"><ele>218.33333333333331</ele><time>2026-05-01T10:59:33Z</time></trkpt><trkpt lat="43.40436602723728" lon="11.184280309925779"><ele>217.0</ele><time>2026-05-01T10:59:34Z</time></trkpt><trkpt lat="43.40426557495804" lon="11.184510969864133"><ele>217.0</ele><time>2026-05-01T10:59:35Z</time></trkpt><trkpt lat="43.40415665628363" lon="11.184737560438965"><ele>217.0</ele><time>2026-05-01T10:59:36Z</time></trkpt><trkpt lat="43.404047091016594" lon="11.184959496465396"><ele>217.0</ele><time>2026-05-01T10:59:37Z</time></trkpt><trkpt lat="43.40393669330493" lon="11.185181333109803"><ele>215.66666666666666</ele><time>2026-05-01T10:59:38Z</time></trkpt><trkpt lat="43.403823930465755" lon="11.185402916447295"><ele>214.33333333333331</ele><time>2026-05-01T10:59:39Z</time></trkpt><trkpt lat="43.40371483826047" lon="11.185628331935435"><ele>213.0</ele><time>2026-05-01T10:59:40Z</time></trkpt><trkpt lat="43.40360407015856" lon="11.18585573433275"><ele>213.0</ele><time>2026-05-01T10:59:41Z</time></trkpt><trkpt lat="43.40349285985527" lon="11.186083862899036"><ele>213.0</ele><time>2026-05-01T10:59:42Z</time></trkpt><trkpt lat="43.40337712535001" lon="11.1863063054124"><ele>213.0</ele><time>2026-05-01T10:59:43Z</time></trkpt><trkpt lat="43.40326889883079" lon="11.186534545023964"><ele>212.66666666666669</ele><time>2026-05-01T10:59:44Z</time></trkpt><trkpt lat="43.403154469380986" lon="11.186759422603833"><ele>212.33333333333334</ele><time>2026-05-01T10:59:45Z</time></trkpt><trkpt lat="43.40304435295028" lon="11.186990302021746"><ele>212.0</ele><time>2026-05-01T10:59:46Z</time></trkpt><trkpt lat="43.40293645665064" lon="11.187219109129774"><ele>211.33333333333334</ele><time>2026-05-01T10:59:47Z</time></trkpt><trkpt lat="43.40282760581674" lon="11.1874398562848"><ele>210.66666666666669</ele><time>2026-05-01T10:59:48Z</time></trkpt><trkpt lat="43.40271791545484" lon="11.187667421466365"><ele>210.0</ele><time>2026-05-01T10:59:49Z</time></trkpt><trkpt lat="43.40260642509716" lon="11.187891430204674"><ele>210.0</ele><time>2026-05-01T10:59:50Z</time></trkpt><trkpt lat="43.40249879998258" lon="11.188115315928972"><ele>210.0</ele><time>2026-05-01T10:59:51Z</time></trkpt><trkpt lat="43.40239243524547" lon="11.188341750513144"><ele>210.0</ele><time>2026-05-01T10:59:52Z</time></trkpt><trkpt lat="43.402288420694724" lon="11.188568298023267"><ele>210.33333333333331</ele><time>2026-05-01T10:59:53Z</time></trkpt><trkpt lat="43.402183061986136" lon="11.188797899904165"><ele>210.66666666666666</ele><time>2026-05-01T10:59:54Z</time></trkpt><trkpt lat="43.40207489530912" lon="11.189021759061497"><ele>211.0</ele><time>2026-05-01T10:59:55Z</time></trkpt><trkpt lat="43.40196488206486" lon="11.18924666435686"><ele>210.33333333333331</ele><time>2026-05-01T10:59:56Z</time></trkpt><trkpt lat="43.40185616257376" lon="11.189473724845389"><ele>209.66666666666669</ele><time>2026-05-01T10:59:57Z</time></trkpt><trkpt lat="43.40174756508534" lon="11.189698491661217"><ele>209.0</ele><time>2026-05-01T10:59:58Z</time></trkpt><trkpt lat="43.401629882613285" lon="11.18992018596208"><ele>209.0</ele><time>2026-05-01T10:59:59Z</time></trkpt><trkpt lat="43.40152092192699" lon="11.190145105675992"><ele>209.0</ele><time>2026-05-01T11:00:00Z</time></trkpt><trkpt lat="43.40140896537583" lon="11.190369748775526"><ele>209.0</ele><time>2026-05-01T11:00:01Z</time></trkpt><trkpt lat="43.40130175884767" lon="11.190608392790656"><ele>209.33333333333334</ele><time>2026-05-01T11:00:02Z</time></trkpt><trkpt lat="43.401192855433635" lon="11.190841638117082"><ele>209.66666666666669</ele><time>2026-05-01T11:00:03Z</time></trkpt><trkpt lat="43.40108567771477" lon="11.191069590179778"><ele>210.0</ele><time>2026-05-01T11:00:04Z</time></trkpt><trkpt lat="43.40097608833858" lon="11.191297915861925"><ele>210.0</ele><time>2026-05-01T11:00:05Z</time></trkpt><trkpt lat="43.400868364186415" lon="11.191522220362229"><ele>210.0</ele><time>2026-05-01T11:00:06Z</time></trkpt><trkpt lat="43.40076190244428" lon="11.191748956285968"><ele>210.0</ele><time>2026-05-01T11:00:07Z</time></trkpt><trkpt lat="43.40064776873959" lon="11.191972318215328"><ele>210.0</ele><time>2026-05-01T11:00:08Z</time></trkpt><trkpt lat="43.4005351507727" lon="11.192202643601028"><ele>210.0</ele><time>2026-05-01T11:00:09Z</time></trkpt><trkpt lat="43.40042548112316" lon="11.192435516922675"><ele>210.0</ele><time>2026-05-01T11:00:10Z</time></trkpt><trkpt lat="43.400318814495186" lon="11.192665179520356"><ele>210.0</ele><time>2026-05-01T11:00:11Z</time></trkpt><trkpt lat="43.40020889922557" lon="11.192895635856209"><ele>210.0</ele><time>2026-05-01T11:00:12Z</time></trkpt><trkpt lat="43.40009820063137" lon="11.193117197883321"><ele>210.0</ele><time>2026-05-01T11:00:13Z</time></trkpt><trkpt lat="43.399989680191474" lon="11.193339560650456"><ele>210.0</ele><time>2026-05-01T11:00:14Z</time></trkpt><trkpt lat="43.39987845486261" lon="11.193569881530804"><ele>210.0</ele><time>2026-05-01T11:00:15Z</time></trkpt><trkpt lat="43.399769327678186" lon="11.193797310132702"><ele>210.0</ele><time>2026-05-01T11:00:16Z</time></trkpt><trkpt lat="43.39966188029642" lon="11.194025939044145"><ele>209.33333333333331</ele><time>2026-05-01T11:00:17Z</time></trkpt><trkpt lat="43.39955291739124" lon="11.194255186701836"><ele>208.66666666666666</ele><time>2026-05-01T11:00:18Z</time></trkpt><trkpt lat="43.39943896473387" lon="11.194485013307219"><ele>208.0</ele><time>2026-05-01T11:00:19Z</time></trkpt><trkpt lat="43.399326643495456" lon="11.194713960749068"><ele>208.66666666666666</ele><time>2026-05-01T11:00:20Z</time></trkpt><trkpt lat="43.39921527660632" lon="11.194948344282446"><ele>209.33333333333331</ele><time>2026-05-01T11:00:21Z</time></trkpt><trkpt lat="43.399101874101724" lon="11.195175920572568"><ele>210.0</ele><time>2026-05-01T11:00:22Z</time></trkpt><trkpt lat="43.398991097548084" lon="11.195406334526652"><ele>210.0</ele><time>2026-05-01T11:00:23Z</time></trkpt><trkpt lat="43.39888188316852" lon="11.195639674317333"><ele>210.0</ele><time>2026-05-01T11:00:24Z</time></trkpt><trkpt lat="43.39877394243914" lon="11.195862336795985"><ele>210.0</ele><time>2026-05-01T11:00:25Z</time></trkpt><trkpt lat="43.398667201287005" lon="11.19609462477803"><ele>209.66666666666669</ele><time>2026-05-01T11:00:26Z</time></trkpt><trkpt lat="43.39855712304931" lon="11.196317704942423"><ele>209.33333333333334</ele><time>2026-05-01T11:00:27Z</time></trkpt><trkpt lat="43.39844661619696" lon="11.196543924883915"><ele>209.0</ele><time>2026-05-01T11:00:28Z</time></trkpt><trkpt lat="43.3983413742385" lon="11.196770690865543"><ele>209.0</ele><time>2026-05-01T11:00:29Z</time></trkpt><trkpt lat="43.39823274502984" lon="11.196997956269739"><ele>209.0</ele><time>2026-05-01T11:00:30Z</time></trkpt><trkpt lat="43.39812295656202" lon="11.197230740269282"><ele>209.0</ele><time>2026-05-01T11:00:31Z</time></trkpt><trkpt lat="43.39801092316805" lon="11.197461266235814"><ele>208.66666666666669</ele><time>2026-05-01T11:00:32Z</time></trkpt><trkpt lat="43.39790205089194" lon="11.19769082043291"><ele>208.33333333333331</ele><time>2026-05-01T11:00:33Z</time></trkpt><trkpt lat="43.39779124940513" lon="11.197923993969432"><ele>208.0</ele><time>2026-05-01T11:00:34Z</time></trkpt><trkpt lat="43.39768022915086" lon="11.198149831699974"><ele>209.66666666666666</ele><time>2026-05-01T11:00:35Z</time></trkpt><trkpt lat="43.397568694210584" lon="11.198377760517827"><ele>211.33333333333331</ele><time>2026-05-01T11:00:36Z</time></trkpt><trkpt lat="43.39745912030368" lon="11.198608670351998"><ele>213.0</ele><time>2026-05-01T11:00:37Z</time></trkpt><trkpt lat="43.39734846687523" lon="11.19883789792261"><ele>212.33333333333331</ele><time>2026-05-01T11:00:38Z</time></trkpt><trkpt lat="43.397240294952965" lon="11.199063496054686"><ele>211.66666666666666</ele><time>2026-05-01T11:00:39Z</time></trkpt><trkpt lat="43.397130257704845" lon="11.19929291157154"><ele>211.0</ele><time>2026-05-01T11:00:40Z</time></trkpt><trkpt lat="43.397020790032265" lon="11.199522199846546"><ele>211.0</ele><time>2026-05-01T11:00:41Z</time></trkpt><trkpt lat="43.39690799793499" lon="11.199754555322018"><ele>211.0</ele><time>2026-05-01T11:00:42Z</time></trkpt><trkpt lat="43.39679718973003" lon="11.199979771595801"><ele>211.0</ele><time>2026-05-01T11:00:43Z</time></trkpt><trkpt lat="43.396684345160565" lon="11.200207299938933"><ele>213.0</ele><time>2026-05-01T11:00:44Z</time></trkpt><trkpt lat="43.396577116624734" lon="11.200429561084606"><ele>215.0</ele><time>2026-05-01T11:00:45Z</time></trkpt><trkpt lat="43.39646513293994" lon="11.200655525642055"><ele>217.0</ele><time>2026-05-01T11:00:46Z</time></trkpt><trkpt lat="43.396357227240244" lon="11.200884563146435"><ele>216.33333333333331</ele><time>2026-05-01T11:00:47Z</time></trkpt><trkpt lat="43.39624782509492" lon="11.201107369721104"><ele>215.66666666666669</ele><time>2026-05-01T11:00:48Z</time></trkpt><trkpt lat="43.39614185808073" lon="11.20133834058508"><ele>215.0</ele><time>2026-05-01T11:00:49Z</time></trkpt><trkpt lat="43.396024029535596" lon="11.201563548380962"><ele>215.0</ele><time>2026-05-01T11:00:50Z</time></trkpt><trkpt lat="43.39591419418907" lon="11.201787907388315"><ele>215.0</ele><time>2026-05-01T11:00:51Z</time></trkpt><trkpt lat="43.39580581787727" lon="11.2020145538408"><ele>215.0</ele><time>2026-05-01T11:00:52Z</time></trkpt><trkpt lat="43.39570169600504" lon="11.202251721622687"><ele>215.33333333333334</ele><time>2026-05-01T11:00:53Z</time></trkpt><trkpt lat="43.395601242842886" lon="11.20248295433501"><ele>215.66666666666669</ele><time>2026-05-01T11:00:54Z</time></trkpt><trkpt lat="43.39550423421946" lon="11.202717801472197"><ele>216.0</ele><time>2026-05-01T11:00:55Z</time></trkpt><trkpt lat="43.395414326461285" lon="11.20296202534253"><ele>216.0</ele><time>2026-05-01T11:00:56Z</time></trkpt><trkpt lat="43.395330558204485" lon="11.203214393206196"><ele>216.0</ele><time>2026-05-01T11:00:57Z</time></trkpt><trkpt lat="43.39525335943328" lon="11.203473415084604"><ele>216.0</ele><time>2026-05-01T11:00:58Z</time></trkpt><trkpt lat="43.39518125967614" lon="11.203726710033642"><ele>216.0</ele><time>2026-05-01T11:00:59Z</time></trkpt><trkpt lat="43.39511384019798" lon="11.203976736286588"><ele>216.0</ele><time>2026-05-01T11:01:00Z</time></trkpt><trkpt lat="43.39505812286673" lon="11.204240428872925"><ele>216.0</ele><time>2026-05-01T11:01:01Z</time></trkpt><trkpt lat="43.395007660051974" lon="11.20450493316935"><ele>216.0</ele><time>2026-05-01T11:01:02Z</time></trkpt><trkpt lat="43.3949626939131" lon="11.204777912421978"><ele>216.0</ele><time>2026-05-01T11:01:03Z</time></trkpt><trkpt lat="43.39492790927938" lon="11.205051622441912"><ele>216.0</ele><time>2026-05-01T11:01:04Z</time></trkpt><trkpt lat="43.39489846230169" lon="11.205328674005349"><ele>215.0</ele><time>2026-05-01T11:01:05Z</time></trkpt><trkpt lat="43.39487825278598" lon="11.205615056028481"><ele>214.0</ele><time>2026-05-01T11:01:06Z</time></trkpt><trkpt lat="43.39485261756652" lon="11.205896431869844"><ele>213.0</ele><time>2026-05-01T11:01:07Z</time></trkpt><trkpt lat="43.39482692006167" lon="11.206182073831195"><ele>213.0</ele><time>2026-05-01T11:01:08Z</time></trkpt><trkpt lat="43.39480671407591" lon="11.206468578651481"><ele>213.0</ele><time>2026-05-01T11:01:09Z</time></trkpt><trkpt lat="43.394779260406466" lon="11.206751500447686"><ele>213.0</ele><time>2026-05-01T11:01:10Z</time></trkpt><trkpt lat="43.394757215853744" lon="11.207031304526375"><ele>212.0</ele><time>2026-05-01T11:01:11Z</time></trkpt><trkpt lat="43.39473084300568" lon="11.207311695045174"><ele>211.0</ele><time>2026-05-01T11:01:12Z</time></trkpt><trkpt lat="43.39470486455656" lon="11.207591699019234"><ele>210.0</ele><time>2026-05-01T11:01:13Z</time></trkpt><trkpt lat="43.394684408573596" lon="11.207875925498527"><ele>206.66666666666669</ele><time>2026-05-01T11:01:14Z</time></trkpt><trkpt lat="43.394660286402114" lon="11.208158138727573"><ele>203.33333333333334</ele><time>2026-05-01T11:01:15Z</time></trkpt><trkpt lat="43.394637839677316" lon="11.208434094660701"><ele>200.0</ele><time>2026-05-01T11:01:16Z</time></trkpt><trkpt lat="43.39461257785142" lon="11.208711953372207"><ele>199.66666666666669</ele><time>2026-05-01T11:01:17Z</time></trkpt><trkpt lat="43.394594066420645" lon="11.208985183130311"><ele>199.33333333333331</ele><time>2026-05-01T11:01:18Z</time></trkpt><trkpt lat="43.39456948769029" lon="11.20925545497603"><ele>199.0</ele><time>2026-05-01T11:01:19Z</time></trkpt><trkpt lat="43.394543970058656" lon="11.209531349982841"><ele>199.0</ele><time>2026-05-01T11:01:20Z</time></trkpt><trkpt lat="43.39452517546385" lon="11.209814407978582"><ele>199.0</ele><time>2026-05-01T11:01:21Z</time></trkpt><trkpt lat="43.39450429775482" lon="11.210094272454219"><ele>199.0</ele><time>2026-05-01T11:01:22Z</time></trkpt><trkpt lat="43.394481834167465" lon="11.210376833490287"><ele>198.0</ele><time>2026-05-01T11:01:23Z</time></trkpt><trkpt lat="43.394455356912744" lon="11.210648027939083"><ele>197.0</ele><time>2026-05-01T11:01:24Z</time></trkpt><trkpt lat="43.39442804562281" lon="11.210927853291972"><ele>196.0</ele><time>2026-05-01T11:01:25Z</time></trkpt><trkpt lat="43.39440877445641" lon="11.211207689684803"><ele>195.33333333333331</ele><time>2026-05-01T11:01:26Z</time></trkpt><trkpt lat="43.39437799898947" lon="11.21147237412441"><ele>194.66666666666669</ele><time>2026-05-01T11:01:27Z</time></trkpt><trkpt lat="43.39435245425887" lon="11.211743311374697"><ele>194.0</ele><time>2026-05-01T11:01:28Z</time></trkpt><trkpt lat="43.39432971609955" lon="11.21201995234485"><ele>194.0</ele><time>2026-05-01T11:01:29Z</time></trkpt><trkpt lat="43.39431038701652" lon="11.21228572933373"><ele>194.0</ele><time>2026-05-01T11:01:30Z</time></trkpt><trkpt lat="43.39428568179894" lon="11.212556523914595"><ele>194.0</ele><time>2026-05-01T11:01:31Z</time></trkpt><trkpt lat="43.39426190710663" lon="11.212830693310936"><ele>194.66666666666669</ele><time>2026-05-01T11:01:32Z</time></trkpt><trkpt lat="43.394239794814034" lon="11.213095421442052"><ele>195.33333333333331</ele><time>2026-05-01T11:01:33Z</time></trkpt><trkpt lat="43.39422598010494" lon="11.213369958158138"><ele>196.0</ele><time>2026-05-01T11:01:34Z</time></trkpt><trkpt lat="43.3942040383794" lon="11.2136410711883"><ele>196.0</ele><time>2026-05-01T11:01:35Z</time></trkpt><trkpt lat="43.39418152835204" lon="11.21390668168401"><ele>196.0</ele><time>2026-05-01T11:01:36Z</time></trkpt><trkpt lat="43.394156806520904" lon="11.214176104117215"><ele>196.0</ele><time>2026-05-01T11:01:37Z</time></trkpt><trkpt lat="43.39413574017513" lon="11.214450713620698"><ele>196.0</ele><time>2026-05-01T11:01:38Z</time></trkpt><trkpt lat="43.39411739180379" lon="11.214718826238055"><ele>196.0</ele><time>2026-05-01T11:01:39Z</time></trkpt><trkpt lat="43.394098965350736" lon="11.214994796980974"><ele>196.0</ele><time>2026-05-01T11:01:40Z</time></trkpt><trkpt lat="43.39407097984638" lon="11.2152662798785"><ele>196.33333333333331</ele><time>2026-05-01T11:01:41Z</time></trkpt><trkpt lat="43.394045559887516" lon="11.215534015425423"><ele>196.66666666666669</ele><time>2026-05-01T11:01:42Z</time></trkpt><trkpt lat="43.39402665487087" lon="11.215807453829113"><ele>197.0</ele><time>2026-05-01T11:01:43Z</time></trkpt><trkpt lat="43.39400174613935" lon="11.21608123881652"><ele>197.0</ele><time>2026-05-01T11:01:44Z</time></trkpt><trkpt lat="43.39398483549298" lon="11.21634941953012"><ele>197.0</ele><time>2026-05-01T11:01:45Z</time></trkpt><trkpt lat="43.39396270484308" lon="11.216612482842331"><ele>197.0</ele><time>2026-05-01T11:01:46Z</time></trkpt><trkpt lat="43.393936560393975" lon="11.21686218450402"><ele>197.0</ele><time>2026-05-01T11:01:47Z</time></trkpt><trkpt lat="43.39391646929554" lon="11.217095710717034"><ele>197.0</ele><time>2026-05-01T11:01:48Z</time></trkpt><trkpt lat="43.39390139517715" lon="11.217309707072628"><ele>197.0</ele><time>2026-05-01T11:01:49Z</time></trkpt><trkpt lat="43.39388327784573" lon="11.217509688785718"><ele>197.0</ele><time>2026-05-01T11:01:50Z</time></trkpt><trkpt lat="43.393867947766" lon="11.217704831232501"><ele>197.0</ele><time>2026-05-01T11:01:51Z</time></trkpt><trkpt lat="43.39386037324379" lon="11.217889234388604"><ele>197.0</ele><time>2026-05-01T11:01:52Z</time></trkpt><trkpt lat="43.39384441504637" lon="11.218067658770584"><ele>197.0</ele><time>2026-05-01T11:01:53Z</time></trkpt><trkpt lat="43.393829460701205" lon="11.218241851611687"><ele>198.25</ele><time>2026-05-01T11:01:54Z</time></trkpt><trkpt lat="43.39381804158864" lon="11.218424010284473"><ele>199.5</ele><time>2026-05-01T11:01:55Z</time></trkpt><trkpt lat="43.39380641200896" lon="11.21861229298083"><ele>200.75</ele><time>2026-05-01T11:01:56Z</time></trkpt><trkpt lat="43.393786490375504" lon="11.218796853492899"><ele>202.0</ele><time>2026-05-01T11:01:57Z</time></trkpt><trkpt lat="43.39376953432937" lon="11.218991507387532"><ele>202.5</ele><time>2026-05-01T11:01:58Z</time></trkpt><trkpt lat="43.39375069531729" lon="11.219184861308474"><ele>203.0</ele><time>2026-05-01T11:01:59Z</time></trkpt><trkpt lat="43.39373192827798" lon="11.21938215059634"><ele>203.5</ele><time>2026-05-01T11:02:00Z</time></trkpt><trkpt lat="43.39371824033412" lon="11.219585268561799"><ele>204.0</ele><time>2026-05-01T11:02:01Z</time></trkpt><trkpt lat="43.39370616580152" lon="11.219792304978018"><ele>206.0</ele><time>2026-05-01T11:02:02Z</time></trkpt><trkpt lat="43.39369503392241" lon="11.220009302824868"><ele>208.0</ele><time>2026-05-01T11:02:03Z</time></trkpt><trkpt lat="43.39368835706248" lon="11.220235820500175"><ele>210.0</ele><time>2026-05-01T11:02:04Z</time></trkpt><trkpt lat="43.39368936052014" lon="11.220458606425245"><ele>213.0</ele><time>2026-05-01T11:02:05Z</time></trkpt><trkpt lat="43.393691705817986" lon="11.220692218095312"><ele>216.0</ele><time>2026-05-01T11:02:06Z</time></trkpt><trkpt lat="43.3936925815631" lon="11.220932598759095"><ele>219.0</ele><time>2026-05-01T11:02:07Z</time></trkpt><trkpt lat="43.39370038772989" lon="11.221177036949507"><ele>219.0</ele><time>2026-05-01T11:02:08Z</time></trkpt><trkpt lat="43.393710967809795" lon="11.22142103887379"><ele>219.0</ele><time>2026-05-01T11:02:09Z</time></trkpt><trkpt lat="43.39372309910691" lon="11.221663377808035"><ele>219.0</ele><time>2026-05-01T11:02:10Z</time></trkpt><trkpt lat="43.39374000747151" lon="11.221913217156509"><ele>220.0</ele><time>2026-05-01T11:02:11Z</time></trkpt><trkpt lat="43.39376221663618" lon="11.222159445918715"><ele>221.0</ele><time>2026-05-01T11:02:12Z</time></trkpt><trkpt lat="43.3937841972646" lon="11.222411067457795"><ele>222.0</ele><time>2026-05-01T11:02:13Z</time></trkpt><trkpt lat="43.3938084130282" lon="11.222659531528507"><ele>219.33333333333331</ele><time>2026-05-01T11:02:14Z</time></trkpt><trkpt lat="43.3938355030758" lon="11.222915580745969"><ele>216.66666666666666</ele><time>2026-05-01T11:02:15Z</time></trkpt><trkpt lat="43.39386286976363" lon="11.223163881585599"><ele>214.0</ele><time>2026-05-01T11:02:16Z</time></trkpt><trkpt lat="43.39388500023701" lon="11.223407499605504"><ele>211.66666666666666</ele><time>2026-05-01T11:02:17Z</time></trkpt><trkpt lat="43.393916260882754" lon="11.223657339810504"><ele>209.33333333333331</ele><time>2026-05-01T11:02:18Z</time></trkpt><trkpt lat="43.39393787001352" lon="11.223905040111902"><ele>207.0</ele><time>2026-05-01T11:02:19Z</time></trkpt><trkpt lat="43.393964603155" lon="11.224151028299056"><ele>207.0</ele><time>2026-05-01T11:02:20Z</time></trkpt><trkpt lat="43.393991547864" lon="11.224400843835928"><ele>207.0</ele><time>2026-05-01T11:02:21Z</time></trkpt><trkpt lat="43.39402518637857" lon="11.224644134237332"><ele>207.0</ele><time>2026-05-01T11:02:22Z</time></trkpt><trkpt lat="43.39405669414763" lon="11.22489651911751"><ele>207.0</ele><time>2026-05-01T11:02:23Z</time></trkpt><trkpt lat="43.39409185665606" lon="11.225150299520891"><ele>207.0</ele><time>2026-05-01T11:02:24Z</time></trkpt><trkpt lat="43.394122016836434" lon="11.225411599546826"><ele>207.0</ele><time>2026-05-01T11:02:25Z</time></trkpt><trkpt lat="43.3941517896964" lon="11.22566904326259"><ele>207.0</ele><time>2026-05-01T11:02:26Z</time></trkpt><trkpt lat="43.39418834830806" lon="11.225927729533192"><ele>207.0</ele><time>2026-05-01T11:02:27Z</time></trkpt><trkpt lat="43.39421629200465" lon="11.226186856896986"><ele>207.0</ele><time>2026-05-01T11:02:28Z</time></trkpt><trkpt lat="43.39424582863228" lon="11.226455728736985"><ele>208.0</ele><time>2026-05-01T11:02:29Z</time></trkpt><trkpt lat="43.394277872692584" lon="11.226727471604997"><ele>209.0</ele><time>2026-05-01T11:02:30Z</time></trkpt><trkpt lat="43.39430553070933" lon="11.226993240014892"><ele>210.0</ele><time>2026-05-01T11:02:31Z</time></trkpt><trkpt lat="43.39433409333148" lon="11.22726057951193"><ele>210.66666666666669</ele><time>2026-05-01T11:02:32Z</time></trkpt><trkpt lat="43.39436135137299" lon="11.227527005094501"><ele>211.33333333333334</ele><time>2026-05-01T11:02:33Z</time></trkpt><trkpt lat="43.39438028232641" lon="11.227785068671148"><ele>212.0</ele><time>2026-05-01T11:02:34Z</time></trkpt><trkpt lat="43.39440009985684" lon="11.228050897917203"><ele>214.0</ele><time>2026-05-01T11:02:35Z</time></trkpt><trkpt lat="43.39442976103125" lon="11.228301904991746"><ele>216.0</ele><time>2026-05-01T11:02:36Z</time></trkpt><trkpt lat="43.3944287848164" lon="11.228556958506559"><ele>218.0</ele><time>2026-05-01T11:02:37Z</time></trkpt><trkpt lat="43.394424491976125" lon="11.228813857547317"><ele>220.66666666666669</ele><time>2026-05-01T11:02:38Z</time></trkpt><trkpt lat="43.39442194126302" lon="11.22907117640312"><ele>223.33333333333331</ele><time>2026-05-01T11:02:39Z</time></trkpt><trkpt lat="43.39440801109272" lon="11.229326540879507"><ele>226.0</ele><time>2026-05-01T11:02:40Z</time></trkpt><trkpt lat="43.394373132409555" lon="11.229579435985569"><ele>225.0</ele><time>2026-05-01T11:02:41Z</time></trkpt><trkpt lat="43.394344961443615" lon="11.229828489911577"><ele>224.0</ele><time>2026-05-01T11:02:42Z</time></trkpt><trkpt lat="43.39430615065066" lon="11.230075195508006"><ele>223.0</ele><time>2026-05-01T11:02:43Z</time></trkpt><trkpt lat="43.39426150228299" lon="11.230317662003769"><ele>223.0</ele><time>2026-05-01T11:02:44Z</time></trkpt><trkpt lat="43.394203719757044" lon="11.230551637010633"><ele>223.0</ele><time>2026-05-01T11:02:45Z</time></trkpt><trkpt lat="43.394142821034094" lon="11.230788077572695"><ele>223.0</ele><time>2026-05-01T11:02:46Z</time></trkpt><trkpt lat="43.39406883921024" lon="11.231013386592291"><ele>220.66666666666666</ele><time>2026-05-01T11:02:47Z</time></trkpt><trkpt lat="43.39399460791487" lon="11.231234268016989"><ele>218.33333333333331</ele><time>2026-05-01T11:02:48Z</time></trkpt><trkpt lat="43.393913513371" lon="11.231459781660968"><ele>216.0</ele><time>2026-05-01T11:02:49Z</time></trkpt><trkpt lat="43.39383954722807" lon="11.231690830330306"><ele>216.33333333333331</ele><time>2026-05-01T11:02:50Z</time></trkpt><trkpt lat="43.39376053055557" lon="11.23192615328784"><ele>216.66666666666666</ele><time>2026-05-01T11:02:51Z</time></trkpt><trkpt lat="43.39368467850125" lon="11.232158897916804"><ele>217.0</ele><time>2026-05-01T11:02:52Z</time></trkpt><trkpt lat="43.39360736116775" lon="11.232397683279029"><ele>217.0</ele><time>2026-05-01T11:02:53Z</time></trkpt><trkpt lat="43.39352944645083" lon="11.232638023880462"><ele>217.0</ele><time>2026-05-01T11:02:54Z</time></trkpt><trkpt lat="43.39344695407853" lon="11.232875111655318"><ele>217.0</ele><time>2026-05-01T11:02:55Z</time></trkpt><trkpt lat="43.39336951408255" lon="11.233116793648843"><ele>215.66666666666666</ele><time>2026-05-01T11:02:56Z</time></trkpt><trkpt lat="43.393286756880705" lon="11.233358287040828"><ele>214.33333333333331</ele><time>2026-05-01T11:02:57Z</time></trkpt><trkpt lat="43.39320660759284" lon="11.233598870403481"><ele>213.0</ele><time>2026-05-01T11:02:58Z</time></trkpt><trkpt lat="43.393126686894874" lon="11.233842336253222"><ele>210.66666666666669</ele><time>2026-05-01T11:02:59Z</time></trkpt><trkpt lat="43.39304118726125" lon="11.234084346217024"><ele>208.33333333333334</ele><time>2026-05-01T11:03:00Z</time></trkpt><trkpt lat="43.39296039038038" lon="11.234328673479821"><ele>206.0</ele><time>2026-05-01T11:03:01Z</time></trkpt><trkpt lat="43.392889540167225" lon="11.234576771566863"><ele>208.66666666666669</ele><time>2026-05-01T11:03:02Z</time></trkpt><trkpt lat="43.392808856690536" lon="11.234817470829913"><ele>211.33333333333331</ele><time>2026-05-01T11:03:03Z</time></trkpt><trkpt lat="43.3927242500583" lon="11.235057797720204"><ele>214.0</ele><time>2026-05-01T11:03:04Z</time></trkpt><trkpt lat="43.392642646376736" lon="11.23529779925135"><ele>214.0</ele><time>2026-05-01T11:03:05Z</time></trkpt><trkpt lat="43.39256282669391" lon="11.23553915872894"><ele>214.0</ele><time>2026-05-01T11:03:06Z</time></trkpt><trkpt lat="43.39248233707886" lon="11.235781002345204"><ele>214.0</ele><time>2026-05-01T11:03:07Z</time></trkpt><trkpt lat="43.39240033713189" lon="11.236019244909993"><ele>213.0</ele><time>2026-05-01T11:03:08Z</time></trkpt><trkpt lat="43.39232295680618" lon="11.236259592643666"><ele>212.0</ele><time>2026-05-01T11:03:09Z</time></trkpt><trkpt lat="43.39225417559376" lon="11.23650854493948"><ele>211.0</ele><time>2026-05-01T11:03:10Z</time></trkpt><trkpt lat="43.39219553643599" lon="11.236762032320623"><ele>214.66666666666666</ele><time>2026-05-01T11:03:11Z</time></trkpt><trkpt lat="43.39213881456532" lon="11.237010954663079"><ele>218.33333333333331</ele><time>2026-05-01T11:03:12Z</time></trkpt><trkpt lat="43.3920857905648" lon="11.23726129524137"><ele>222.0</ele><time>2026-05-01T11:03:13Z</time></trkpt><trkpt lat="43.392039459856306" lon="11.237512364450806"><ele>222.66666666666669</ele><time>2026-05-01T11:03:14Z</time></trkpt><trkpt lat="43.392004360257026" lon="11.237760622636674"><ele>223.33333333333334</ele><time>2026-05-01T11:03:15Z</time></trkpt><trkpt lat="43.39197438466173" lon="11.238003748964417"><ele>224.0</ele><time>2026-05-01T11:03:16Z</time></trkpt><trkpt lat="43.39194967318443" lon="11.238249722312597"><ele>225.0</ele><time>2026-05-01T11:03:17Z</time></trkpt><trkpt lat="43.391926667786024" lon="11.238496259851349"><ele>226.0</ele><time>2026-05-01T11:03:18Z</time></trkpt><trkpt lat="43.391912090673365" lon="11.238742878693683"><ele>227.0</ele><time>2026-05-01T11:03:19Z</time></trkpt><trkpt lat="43.39190799413828" lon="11.238992003228585"><ele>227.0</ele><time>2026-05-01T11:03:20Z</time></trkpt><trkpt lat="43.3919095502242" lon="11.23924595521127"><ele>227.0</ele><time>2026-05-01T11:03:21Z</time></trkpt><trkpt lat="43.391917363197805" lon="11.239502515161576"><ele>227.0</ele><time>2026-05-01T11:03:22Z</time></trkpt><trkpt lat="43.39192739517532" lon="11.23975470236706"><ele>227.33333333333334</ele><time>2026-05-01T11:03:23Z</time></trkpt><trkpt lat="43.39194111395763" lon="11.240008198947057"><ele>227.66666666666669</ele><time>2026-05-01T11:03:24Z</time></trkpt><trkpt lat="43.39196293521518" lon="11.240260835712988"><ele>228.0</ele><time>2026-05-01T11:03:25Z</time></trkpt><trkpt lat="43.39199145458885" lon="11.240515249787702"><ele>230.66666666666669</ele><time>2026-05-01T11:03:26Z</time></trkpt><trkpt lat="43.39202465258434" lon="11.240771596565237"><ele>233.33333333333334</ele><time>2026-05-01T11:03:27Z</time></trkpt><trkpt lat="43.39206370931756" lon="11.24102980546936"><ele>236.0</ele><time>2026-05-01T11:03:28Z</time></trkpt><trkpt lat="43.392091928744314" lon="11.241289380454106"><ele>237.33333333333334</ele><time>2026-05-01T11:03:29Z</time></trkpt><trkpt lat="43.392123061302506" lon="11.241551861753525"><ele>238.66666666666669</ele><time>2026-05-01T11:03:30Z</time></trkpt><trkpt lat="43.392151996709934" lon="11.2418165189846"><ele>240.0</ele><time>2026-05-01T11:03:31Z</time></trkpt><trkpt lat="43.39218470651184" lon="11.242082182686245"><ele>230.66666666666669</ele><time>2026-05-01T11:03:32Z</time></trkpt><trkpt lat="43.39221129387961" lon="11.242346247060404"><ele>221.33333333333334</ele><time>2026-05-01T11:03:33Z</time></trkpt><trkpt lat="43.392224918219455" lon="11.24260706039061"><ele>212.0</ele><time>2026-05-01T11:03:34Z</time></trkpt><trkpt lat="43.39223661431386" lon="11.242870137225246"><ele>211.33333333333334</ele><time>2026-05-01T11:03:35Z</time></trkpt><trkpt lat="43.392234366420176" lon="11.243133393464054"><ele>210.66666666666669</ele><time>2026-05-01T11:03:36Z</time></trkpt><trkpt lat="43.392221630092855" lon="11.243394180451551"><ele>210.0</ele><time>2026-05-01T11:03:37Z</time></trkpt><trkpt lat="43.39220857086449" lon="11.243653350245046"><ele>210.0</ele><time>2026-05-01T11:03:38Z</time></trkpt><trkpt lat="43.39218348005848" lon="11.243907140644074"><ele>210.0</ele><time>2026-05-01T11:03:39Z</time></trkpt><trkpt lat="43.39215170822757" lon="11.244161722099916"><ele>210.0</ele><time>2026-05-01T11:03:40Z</time></trkpt><trkpt lat="43.39211837760187" lon="11.244417916407153"><ele>209.66666666666669</ele><time>2026-05-01T11:03:41Z</time></trkpt><trkpt lat="43.39206515528043" lon="11.244672380493057"><ele>209.33333333333334</ele><time>2026-05-01T11:03:42Z</time></trkpt><trkpt lat="43.39200367645525" lon="11.244925065731636"><ele>209.0</ele><time>2026-05-01T11:03:43Z</time></trkpt><trkpt lat="43.391939894035524" lon="11.245174606799592"><ele>209.66666666666669</ele><time>2026-05-01T11:03:44Z</time></trkpt><trkpt lat="43.39186714789266" lon="11.245420419955952"><ele>210.33333333333331</ele><time>2026-05-01T11:03:45Z</time></trkpt><trkpt lat="43.391783889374096" lon="11.245659016559483"><ele>211.0</ele><time>2026-05-01T11:03:46Z</time></trkpt><trkpt lat="43.39169084860272" lon="11.245894537087938"><ele>213.33333333333331</ele><time>2026-05-01T11:03:47Z</time></trkpt><trkpt lat="43.39159455260121" lon="11.246124317295006"><ele>215.66666666666669</ele><time>2026-05-01T11:03:48Z</time></trkpt><trkpt lat="43.39149701436201" lon="11.24635190943668"><ele>218.0</ele><time>2026-05-01T11:03:49Z</time></trkpt><trkpt lat="43.391401611136125" lon="11.246570577168757"><ele>216.66666666666669</ele><time>2026-05-01T11:03:50Z</time></trkpt><trkpt lat="43.3913079217285" lon="11.246788371522305"><ele>215.33333333333331</ele><time>2026-05-01T11:03:51Z</time></trkpt><trkpt lat="43.39121528115674" lon="11.247008155264798"><ele>214.0</ele><time>2026-05-01T11:03:52Z</time></trkpt><trkpt lat="43.3911224381655" lon="11.247225688052872"><ele>215.0</ele><time>2026-05-01T11:03:53Z</time></trkpt><trkpt lat="43.39103927394287" lon="11.247447120216961"><ele>216.0</ele><time>2026-05-01T11:03:54Z</time></trkpt><trkpt lat="43.390960552111345" lon="11.247676699461072"><ele>217.0</ele><time>2026-05-01T11:03:55Z</time></trkpt><trkpt lat="43.39088721727211" lon="11.247912361059674"><ele>218.33333333333331</ele><time>2026-05-01T11:03:56Z</time></trkpt><trkpt lat="43.390821206710136" lon="11.248155904838146"><ele>219.66666666666669</ele><time>2026-05-01T11:03:57Z</time></trkpt><trkpt lat="43.39076059520787" lon="11.248399175506515"><ele>221.0</ele><time>2026-05-01T11:03:58Z</time></trkpt><trkpt lat="43.390710863441264" lon="11.248651973502463"><ele>221.0</ele><time>2026-05-01T11:03:59Z</time></trkpt><trkpt lat="43.39066543026239" lon="11.24890623545618"><ele>221.0</ele><time>2026-05-01T11:04:00Z</time></trkpt><trkpt lat="43.390626907865474" lon="11.249166080045729"><ele>221.0</ele><time>2026-05-01T11:04:01Z</time></trkpt><trkpt lat="43.39059561375193" lon="11.24942986564983"><ele>222.0</ele><time>2026-05-01T11:04:02Z</time></trkpt><trkpt lat="43.39057448098038" lon="11.24969534915251"><ele>223.0</ele><time>2026-05-01T11:04:03Z</time></trkpt><trkpt lat="43.39055544612456" lon="11.249963628523817"><ele>224.0</ele><time>2026-05-01T11:04:04Z</time></trkpt><trkpt lat="43.39053933130727" lon="11.250230698462236"><ele>223.66666666666669</ele><time>2026-05-01T11:04:05Z</time></trkpt><trkpt lat="43.39051838572694" lon="11.250496416370183"><ele>223.33333333333331</ele><time>2026-05-01T11:04:06Z</time></trkpt><trkpt lat="43.390499285960786" lon="11.250763927118623"><ele>223.0</ele><time>2026-05-01T11:04:07Z</time></trkpt><trkpt lat="43.390480221185356" lon="11.251031519382925"><ele>223.0</ele><time>2026-05-01T11:04:08Z</time></trkpt><trkpt lat="43.39046185199296" lon="11.251296077536665"><ele>223.0</ele><time>2026-05-01T11:04:09Z</time></trkpt><trkpt lat="43.39044370704747" lon="11.251567569365795"><ele>223.0</ele><time>2026-05-01T11:04:10Z</time></trkpt><trkpt lat="43.39042647207835" lon="11.25183331918624"><ele>223.66666666666666</ele><time>2026-05-01T11:04:11Z</time></trkpt><trkpt lat="43.390407649043304" lon="11.252101334819363"><ele>224.33333333333331</ele><time>2026-05-01T11:04:12Z</time></trkpt><trkpt lat="43.39038951212878" lon="11.252371514648663"><ele>225.0</ele><time>2026-05-01T11:04:13Z</time></trkpt><trkpt lat="43.39036736327232" lon="11.252640374547612"><ele>224.66666666666669</ele><time>2026-05-01T11:04:14Z</time></trkpt><trkpt lat="43.39034540129631" lon="11.252910079068055"><ele>224.33333333333334</ele><time>2026-05-01T11:04:15Z</time></trkpt><trkpt lat="43.39032329446131" lon="11.253175765428297"><ele>224.0</ele><time>2026-05-01T11:04:16Z</time></trkpt><trkpt lat="43.39030446242258" lon="11.253444181301136"><ele>224.0</ele><time>2026-05-01T11:04:17Z</time></trkpt><trkpt lat="43.39028448542272" lon="11.253711171700091"><ele>224.0</ele><time>2026-05-01T11:04:18Z</time></trkpt><trkpt lat="43.390265581851615" lon="11.253979059100319"><ele>224.0</ele><time>2026-05-01T11:04:19Z</time></trkpt><trkpt lat="43.39024786471705" lon="11.254244761876466"><ele>223.0</ele><time>2026-05-01T11:04:20Z</time></trkpt><trkpt lat="43.39022942394609" lon="11.254511426741933"><ele>222.0</ele><time>2026-05-01T11:04:21Z</time></trkpt><trkpt lat="43.39021850084878" lon="11.254780302101947"><ele>221.0</ele><time>2026-05-01T11:04:22Z</time></trkpt><trkpt lat="43.3901918187052" lon="11.255041346324075"><ele>221.0</ele><time>2026-05-01T11:04:23Z</time></trkpt><trkpt lat="43.39017181307662" lon="11.255307536812326"><ele>221.0</ele><time>2026-05-01T11:04:24Z</time></trkpt><trkpt lat="43.39015607489222" lon="11.25557576405579"><ele>221.0</ele><time>2026-05-01T11:04:25Z</time></trkpt><trkpt lat="43.39013416792121" lon="11.255842418874682"><ele>221.33333333333334</ele><time>2026-05-01T11:04:26Z</time></trkpt><trkpt lat="43.39011757923802" lon="11.25610942432185"><ele>221.66666666666669</ele><time>2026-05-01T11:04:27Z</time></trkpt><trkpt lat="43.3900978078662" lon="11.25637602508896"><ele>222.0</ele><time>2026-05-01T11:04:28Z</time></trkpt><trkpt lat="43.39007714179573" lon="11.25664551525782"><ele>222.33333333333331</ele><time>2026-05-01T11:04:29Z</time></trkpt><trkpt lat="43.39005722925551" lon="11.256917287422725"><ele>222.66666666666666</ele><time>2026-05-01T11:04:30Z</time></trkpt><trkpt lat="43.390039599082286" lon="11.25718568885968"><ele>223.0</ele><time>2026-05-01T11:04:31Z</time></trkpt><trkpt lat="43.39002378951799" lon="11.257452281092286"><ele>225.0</ele><time>2026-05-01T11:04:32Z</time></trkpt><trkpt lat="43.390004984476384" lon="11.2577224041418"><ele>227.0</ele><time>2026-05-01T11:04:33Z</time></trkpt><trkpt lat="43.38998312346971" lon="11.257990005868345"><ele>229.0</ele><time>2026-05-01T11:04:34Z</time></trkpt><trkpt lat="43.389964261899785" lon="11.258258277796404"><ele>230.33333333333331</ele><time>2026-05-01T11:04:35Z</time></trkpt><trkpt lat="43.389942621037086" lon="11.258527231388863"><ele>231.66666666666669</ele><time>2026-05-01T11:04:36Z</time></trkpt><trkpt lat="43.389923601562536" lon="11.258790595541283"><ele>233.0</ele><time>2026-05-01T11:04:37Z</time></trkpt><trkpt lat="43.389903494140995" lon="11.259058228184996"><ele>234.33333333333334</ele><time>2026-05-01T11:04:38Z</time></trkpt><trkpt lat="43.389881582836" lon="11.259322503154323"><ele>235.66666666666669</ele><time>2026-05-01T11:04:39Z</time></trkpt><trkpt lat="43.3898679399389" lon="11.259592905242505"><ele>237.0</ele><time>2026-05-01T11:04:40Z</time></trkpt><trkpt lat="43.389847025473344" lon="11.259860997787081"><ele>237.33333333333331</ele><time>2026-05-01T11:04:41Z</time></trkpt><trkpt lat="43.389827951685845" lon="11.26013012084157"><ele>237.66666666666666</ele><time>2026-05-01T11:04:42Z</time></trkpt><trkpt lat="43.38981172848482" lon="11.26040102512913"><ele>238.0</ele><time>2026-05-01T11:04:43Z</time></trkpt><trkpt lat="43.38979098779733" lon="11.260671656372715"><ele>238.0</ele><time>2026-05-01T11:04:44Z</time></trkpt><trkpt lat="43.389770960100385" lon="11.260945718117176"><ele>238.0</ele><time>2026-05-01T11:04:45Z</time></trkpt><trkpt lat="43.389749632396686" lon="11.26121856694155"><ele>238.0</ele><time>2026-05-01T11:04:46Z</time></trkpt><trkpt lat="43.38973113476066" lon="11.261486659426632"><ele>236.33333333333331</ele><time>2026-05-01T11:04:47Z</time></trkpt><trkpt lat="43.38971248404948" lon="11.261737537528735"><ele>234.66666666666669</ele><time>2026-05-01T11:04:48Z</time></trkpt><trkpt lat="43.38969345154389" lon="11.261978251793073"><ele>233.0</ele><time>2026-05-01T11:04:49Z</time></trkpt><trkpt lat="43.38967134791675" lon="11.262223297864049"><ele>230.0</ele><time>2026-05-01T11:04:50Z</time></trkpt><trkpt lat="43.38964744284794" lon="11.262467948613372"><ele>227.0</ele><time>2026-05-01T11:04:51Z</time></trkpt><trkpt lat="43.38962721279051" lon="11.262718807181345"><ele>224.0</ele><time>2026-05-01T11:04:52Z</time></trkpt><trkpt lat="43.389599227986224" lon="11.262967110334511"><ele>225.0</ele><time>2026-05-01T11:04:53Z</time></trkpt><trkpt lat="43.38957979153836" lon="11.263214885911614"><ele>226.0</ele><time>2026-05-01T11:04:54Z</time></trkpt><trkpt lat="43.389556121936565" lon="11.263455299850458"><ele>227.0</ele><time>2026-05-01T11:04:55Z</time></trkpt><trkpt lat="43.389535235608236" lon="11.263683030671954"><ele>227.0</ele><time>2026-05-01T11:04:56Z</time></trkpt><trkpt lat="43.38951108934427" lon="11.263899844231545"><ele>227.0</ele><time>2026-05-01T11:04:57Z</time></trkpt><trkpt lat="43.38949620592904" lon="11.26409974967378"><ele>227.0</ele><time>2026-05-01T11:04:58Z</time></trkpt><trkpt lat="43.389480166239025" lon="11.264284619688905"><ele>227.0</ele><time>2026-05-01T11:04:59Z</time></trkpt><trkpt lat="43.38947062860153" lon="11.26445803382811"><ele>227.0</ele><time>2026-05-01T11:05:00Z</time></trkpt><trkpt lat="43.389459648752" lon="11.264623731981954"><ele>227.0</ele><time>2026-05-01T11:05:01Z</time></trkpt><trkpt lat="43.389448941578934" lon="11.26478786775699"><ele>227.0</ele><time>2026-05-01T11:05:02Z</time></trkpt><trkpt lat="43.389438852914786" lon="11.264955013051239"><ele>227.0</ele><time>2026-05-01T11:05:03Z</time></trkpt><trkpt lat="43.38943061120445" lon="11.265127060606046"><ele>226.5</ele><time>2026-05-01T11:05:04Z</time></trkpt><trkpt lat="43.38942098994895" lon="11.26530276103429"><ele>226.0</ele><time>2026-05-01T11:05:05Z</time></trkpt><trkpt lat="43.38940942084413" lon="11.265467718420442"><ele>225.5</ele><time>2026-05-01T11:05:06Z</time></trkpt><trkpt lat="43.38939395527787" lon="11.265629073311784"><ele>225.0</ele><time>2026-05-01T11:05:07Z</time></trkpt><trkpt lat="43.38938571318702" lon="11.265805839860695"><ele>224.75</ele><time>2026-05-01T11:05:08Z</time></trkpt><trkpt lat="43.389379353439324" lon="11.265986917711015"><ele>224.5</ele><time>2026-05-01T11:05:09Z</time></trkpt><trkpt lat="43.38936982943029" lon="11.26617569904445"><ele>224.25</ele><time>2026-05-01T11:05:10Z</time></trkpt><trkpt lat="43.38934769186996" lon="11.266372373913798"><ele>224.0</ele><time>2026-05-01T11:05:11Z</time></trkpt><trkpt lat="43.38933728911711" lon="11.266582603137032"><ele>223.66666666666669</ele><time>2026-05-01T11:05:12Z</time></trkpt><trkpt lat="43.389318732309526" lon="11.266800628546076"><ele>223.33333333333331</ele><time>2026-05-01T11:05:13Z</time></trkpt><trkpt lat="43.389301412501965" lon="11.267033368617556"><ele>223.0</ele><time>2026-05-01T11:05:14Z</time></trkpt><trkpt lat="43.38927150267701" lon="11.26726306874732"><ele>222.33333333333331</ele><time>2026-05-01T11:05:15Z</time></trkpt><trkpt lat="43.38923936959322" lon="11.267504790937123"><ele>221.66666666666669</ele><time>2026-05-01T11:05:16Z</time></trkpt><trkpt lat="43.38920093217847" lon="11.267747307557583"><ele>221.0</ele><time>2026-05-01T11:05:17Z</time></trkpt><trkpt lat="43.38915614915474" lon="11.267998401267683"><ele>221.0</ele><time>2026-05-01T11:05:18Z</time></trkpt><trkpt lat="43.38910410596726" lon="11.268248268074055"><ele>221.0</ele><time>2026-05-01T11:05:19Z</time></trkpt><trkpt lat="43.38904503887265" lon="11.268499754662379"><ele>221.0</ele><time>2026-05-01T11:05:20Z</time></trkpt><trkpt lat="43.38897527278204" lon="11.268751551313727"><ele>221.0</ele><time>2026-05-01T11:05:21Z</time></trkpt><trkpt lat="43.38889960037045" lon="11.269006077890523"><ele>221.0</ele><time>2026-05-01T11:05:22Z</time></trkpt><trkpt lat="43.38882709725365" lon="11.269253120242388"><ele>221.0</ele><time>2026-05-01T11:05:23Z</time></trkpt><trkpt lat="43.38874619225805" lon="11.269489373288609"><ele>221.33333333333334</ele><time>2026-05-01T11:05:24Z</time></trkpt><trkpt lat="43.388661085318304" lon="11.26971274178803"><ele>221.66666666666669</ele><time>2026-05-01T11:05:25Z</time></trkpt><trkpt lat="43.38857139968593" lon="11.269928756874577"><ele>222.0</ele><time>2026-05-01T11:05:26Z</time></trkpt><trkpt lat="43.38848169029425" lon="11.270137829366393"><ele>222.0</ele><time>2026-05-01T11:05:27Z</time></trkpt><trkpt lat="43.38839041319014" lon="11.270341177583594"><ele>222.0</ele><time>2026-05-01T11:05:28Z</time></trkpt><trkpt lat="43.38829483237219" lon="11.27053878138364"><ele>222.0</ele><time>2026-05-01T11:05:29Z</time></trkpt><trkpt lat="43.38819499613848" lon="11.270732611108949"><ele>221.33333333333331</ele><time>2026-05-01T11:05:30Z</time></trkpt><trkpt lat="43.38808870620103" lon="11.270917708741964"><ele>220.66666666666666</ele><time>2026-05-01T11:05:31Z</time></trkpt><trkpt lat="43.38797812839268" lon="11.271098355271258"><ele>220.0</ele><time>2026-05-01T11:05:32Z</time></trkpt><trkpt lat="43.387863753829606" lon="11.271279549911114"><ele>221.0</ele><time>2026-05-01T11:05:33Z</time></trkpt><trkpt lat="43.3877446785005" lon="11.271458221809663"><ele>222.0</ele><time>2026-05-01T11:05:34Z</time></trkpt><trkpt lat="43.387621568394074" lon="11.271637900768381"><ele>223.0</ele><time>2026-05-01T11:05:35Z</time></trkpt><trkpt lat="43.387488128571455" lon="11.271812523543005"><ele>223.0</ele><time>2026-05-01T11:05:36Z</time></trkpt><trkpt lat="43.38735334220301" lon="11.27198231328786"><ele>223.0</ele><time>2026-05-01T11:05:37Z</time></trkpt><trkpt lat="43.38721258484852" lon="11.272143922741694"><ele>223.0</ele><time>2026-05-01T11:05:38Z</time></trkpt><trkpt lat="43.387073381207244" lon="11.272299537258705"><ele>223.33333333333331</ele><time>2026-05-01T11:05:39Z</time></trkpt><trkpt lat="43.386929912727965" lon="11.272449252602941"><ele>223.66666666666669</ele><time>2026-05-01T11:05:40Z</time></trkpt><trkpt lat="43.386783416426645" lon="11.272593178796345"><ele>224.0</ele><time>2026-05-01T11:05:41Z</time></trkpt><trkpt lat="43.38663711819125" lon="11.272734284470197"><ele>224.0</ele><time>2026-05-01T11:05:42Z</time></trkpt><trkpt lat="43.38648454127965" lon="11.272865761650165"><ele>224.0</ele><time>2026-05-01T11:05:43Z</time></trkpt><trkpt lat="43.386329976061646" lon="11.272990581365361"><ele>224.0</ele><time>2026-05-01T11:05:44Z</time></trkpt><trkpt lat="43.38616767450447" lon="11.273107388433797"><ele>223.66666666666669</ele><time>2026-05-01T11:05:45Z</time></trkpt><trkpt lat="43.38600555620592" lon="11.273222227979131"><ele>223.33333333333331</ele><time>2026-05-01T11:05:46Z</time></trkpt><trkpt lat="43.3858408866075" lon="11.273333739285574"><ele>223.0</ele><time>2026-05-01T11:05:47Z</time></trkpt><trkpt lat="43.385677338391254" lon="11.273447032972296"><ele>223.0</ele><time>2026-05-01T11:05:48Z</time></trkpt><trkpt lat="43.385515085134024" lon="11.273562895594315"><ele>223.0</ele><time>2026-05-01T11:05:49Z</time></trkpt><trkpt lat="43.38535576912392" lon="11.273676332089106"><ele>223.0</ele><time>2026-05-01T11:05:50Z</time></trkpt><trkpt lat="43.385192842480436" lon="11.273801315423405"><ele>223.33333333333331</ele><time>2026-05-01T11:05:51Z</time></trkpt><trkpt lat="43.38502460105039" lon="11.273924438941837"><ele>223.66666666666669</ele><time>2026-05-01T11:05:52Z</time></trkpt><trkpt lat="43.38486247557646" lon="11.274056054993293"><ele>224.0</ele><time>2026-05-01T11:05:53Z</time></trkpt><trkpt lat="43.38470706149283" lon="11.274195950931398"><ele>225.0</ele><time>2026-05-01T11:05:54Z</time></trkpt><trkpt lat="43.38454288222059" lon="11.274345777982035"><ele>226.0</ele><time>2026-05-01T11:05:55Z</time></trkpt><trkpt lat="43.38438558325382" lon="11.274490117526632"><ele>227.0</ele><time>2026-05-01T11:05:56Z</time></trkpt><trkpt lat="43.384240514494714" lon="11.27463893911685"><ele>229.33333333333334</ele><time>2026-05-01T11:05:57Z</time></trkpt><trkpt lat="43.38411002176005" lon="11.274789283571899"><ele>231.66666666666669</ele><time>2026-05-01T11:05:58Z</time></trkpt><trkpt lat="43.38398328356754" lon="11.274950412457615"><ele>234.0</ele><time>2026-05-01T11:05:59Z</time></trkpt><trkpt lat="43.383855720444565" lon="11.275116340441764"><ele>233.66666666666669</ele><time>2026-05-01T11:06:00Z</time></trkpt><trkpt lat="43.383729095664556" lon="11.275288817210221"><ele>233.33333333333334</ele><time>2026-05-01T11:06:01Z</time></trkpt><trkpt lat="43.38360720764522" lon="11.275465664641871"><ele>233.0</ele><time>2026-05-01T11:06:02Z</time></trkpt><trkpt lat="43.38348904076872" lon="11.275647079373593"><ele>233.0</ele><time>2026-05-01T11:06:03Z</time></trkpt><trkpt lat="43.383371523185154" lon="11.275829786918813"><ele>233.0</ele><time>2026-05-01T11:06:04Z</time></trkpt><trkpt lat="43.38325964717247" lon="11.276014787149007"><ele>233.0</ele><time>2026-05-01T11:06:05Z</time></trkpt><trkpt lat="43.383148351357654" lon="11.276204530330062"><ele>233.0</ele><time>2026-05-01T11:06:06Z</time></trkpt><trkpt lat="43.38304717763851" lon="11.276402416825526"><ele>233.0</ele><time>2026-05-01T11:06:07Z</time></trkpt><trkpt lat="43.38295141221336" lon="11.276603544330683"><ele>233.0</ele><time>2026-05-01T11:06:08Z</time></trkpt><trkpt lat="43.38285326965413" lon="11.276813002015816"><ele>232.66666666666669</ele><time>2026-05-01T11:06:09Z</time></trkpt><trkpt lat="43.38275702097869" lon="11.27701648433738"><ele>232.33333333333331</ele><time>2026-05-01T11:06:10Z</time></trkpt><trkpt lat="43.38265854856187" lon="11.277218248172167"><ele>232.0</ele><time>2026-05-01T11:06:11Z</time></trkpt><trkpt lat="43.382562492991816" lon="11.277422833388659"><ele>233.66666666666666</ele><time>2026-05-01T11:06:12Z</time></trkpt><trkpt lat="43.382462522268156" lon="11.27763037953325"><ele>235.33333333333331</ele><time>2026-05-01T11:06:13Z</time></trkpt><trkpt lat="43.38235947334605" lon="11.27783701783245"><ele>237.0</ele><time>2026-05-01T11:06:14Z</time></trkpt><trkpt lat="43.38225818840325" lon="11.278045007618296"><ele>236.0</ele><time>2026-05-01T11:06:15Z</time></trkpt><trkpt lat="43.3821561338461" lon="11.278256369975798"><ele>235.0</ele><time>2026-05-01T11:06:16Z</time></trkpt><trkpt lat="43.382055592715815" lon="11.278462168930515"><ele>234.0</ele><time>2026-05-01T11:06:17Z</time></trkpt><trkpt lat="43.38195833503171" lon="11.27866742006854"><ele>234.0</ele><time>2026-05-01T11:06:18Z</time></trkpt><trkpt lat="43.3818581741961" lon="11.278868304199495"><ele>234.0</ele><time>2026-05-01T11:06:19Z</time></trkpt><trkpt lat="43.381761311572" lon="11.27906988989634"><ele>234.0</ele><time>2026-05-01T11:06:20Z</time></trkpt><trkpt lat="43.38166311104798" lon="11.27927392291042"><ele>237.33333333333331</ele><time>2026-05-01T11:06:21Z</time></trkpt><trkpt lat="43.38156488266097" lon="11.279478837669885"><ele>240.66666666666666</ele><time>2026-05-01T11:06:22Z</time></trkpt><trkpt lat="43.381464344278974" lon="11.279687066947307"><ele>244.0</ele><time>2026-05-01T11:06:23Z</time></trkpt><trkpt lat="43.38136489788162" lon="11.279893714637724"><ele>240.33333333333331</ele><time>2026-05-01T11:06:24Z</time></trkpt><trkpt lat="43.3812645002317" lon="11.280097891527143"><ele>236.66666666666669</ele><time>2026-05-01T11:06:25Z</time></trkpt><trkpt lat="43.381160910210355" lon="11.280299186545573"><ele>233.0</ele><time>2026-05-01T11:06:26Z</time></trkpt><trkpt lat="43.381066405525544" lon="11.28049969305878"><ele>234.33333333333334</ele><time>2026-05-01T11:06:27Z</time></trkpt><trkpt lat="43.380968748616226" lon="11.280703344641628"><ele>235.66666666666669</ele><time>2026-05-01T11:06:28Z</time></trkpt><trkpt lat="43.380867610783085" lon="11.280904210226856"><ele>237.0</ele><time>2026-05-01T11:06:29Z</time></trkpt><trkpt lat="43.38076807919798" lon="11.281105847178589"><ele>237.0</ele><time>2026-05-01T11:06:30Z</time></trkpt><trkpt lat="43.38067048728727" lon="11.281314968219776"><ele>237.0</ele><time>2026-05-01T11:06:31Z</time></trkpt><trkpt lat="43.38056913419251" lon="11.281521825114174"><ele>237.0</ele><time>2026-05-01T11:06:32Z</time></trkpt><trkpt lat="43.380465477990136" lon="11.28172837279614"><ele>236.33333333333331</ele><time>2026-05-01T11:06:33Z</time></trkpt><trkpt lat="43.38036396080422" lon="11.28193813148042"><ele>235.66666666666666</ele><time>2026-05-01T11:06:34Z</time></trkpt><trkpt lat="43.38026114699581" lon="11.282147771839321"><ele>235.0</ele><time>2026-05-01T11:06:35Z</time></trkpt><trkpt lat="43.38015559564014" lon="11.282359002695241"><ele>237.33333333333331</ele><time>2026-05-01T11:06:36Z</time></trkpt><trkpt lat="43.38004908489893" lon="11.282572118142633"><ele>239.66666666666669</ele><time>2026-05-01T11:06:37Z</time></trkpt><trkpt lat="43.37994464235892" lon="11.282787035139588"><ele>242.0</ele><time>2026-05-01T11:06:38Z</time></trkpt><trkpt lat="43.37984098601536" lon="11.282993484652582"><ele>241.0</ele><time>2026-05-01T11:06:39Z</time></trkpt><trkpt lat="43.37973519189715" lon="11.283196180023094"><ele>240.0</ele><time>2026-05-01T11:06:40Z</time></trkpt><trkpt lat="43.37962426876531" lon="11.283397718336618"><ele>239.0</ele><time>2026-05-01T11:06:41Z</time></trkpt><trkpt lat="43.3795038622686" lon="11.283590840308403"><ele>239.0</ele><time>2026-05-01T11:06:42Z</time></trkpt><trkpt lat="43.37937460653656" lon="11.283775397635978"><ele>239.0</ele><time>2026-05-01T11:06:43Z</time></trkpt><trkpt lat="43.37924181721577" lon="11.283952071640048"><ele>239.0</ele><time>2026-05-01T11:06:44Z</time></trkpt><trkpt lat="43.37910398371341" lon="11.284125020518697"><ele>238.33333333333334</ele><time>2026-05-01T11:06:45Z</time></trkpt><trkpt lat="43.37896256193997" lon="11.284293248430837"><ele>237.66666666666669</ele><time>2026-05-01T11:06:46Z</time></trkpt><trkpt lat="43.37881476762117" lon="11.284453739878659"><ele>237.0</ele><time>2026-05-01T11:06:47Z</time></trkpt><trkpt lat="43.37866144873687" lon="11.284607081587465"><ele>237.0</ele><time>2026-05-01T11:06:48Z</time></trkpt><trkpt lat="43.378499382792434" lon="11.284749204392472"><ele>237.0</ele><time>2026-05-01T11:06:49Z</time></trkpt><trkpt lat="43.378337273211216" lon="11.28488102776808"><ele>237.0</ele><time>2026-05-01T11:06:50Z</time></trkpt><trkpt lat="43.37817336701639" lon="11.285003047590038"><ele>236.66666666666669</ele><time>2026-05-01T11:06:51Z</time></trkpt><trkpt lat="43.378006539647934" lon="11.28511485128317"><ele>236.33333333333334</ele><time>2026-05-01T11:06:52Z</time></trkpt><trkpt lat="43.377832993224324" lon="11.285215955821965"><ele>236.0</ele><time>2026-05-01T11:06:53Z</time></trkpt><trkpt lat="43.37765836111706" lon="11.28530817130425"><ele>236.0</ele><time>2026-05-01T11:06:54Z</time></trkpt><trkpt lat="43.377478907551286" lon="11.285386334444024"><ele>236.0</ele><time>2026-05-01T11:06:55Z</time></trkpt><trkpt lat="43.37729577917065" lon="11.285461432578154"><ele>236.0</ele><time>2026-05-01T11:06:56Z</time></trkpt><trkpt lat="43.377107514518954" lon="11.285522577983825"><ele>236.66666666666669</ele><time>2026-05-01T11:06:57Z</time></trkpt><trkpt lat="43.376919755508396" lon="11.285582723315343"><ele>237.33333333333331</ele><time>2026-05-01T11:06:58Z</time></trkpt><trkpt lat="43.37672778716811" lon="11.28563571294561"><ele>238.0</ele><time>2026-05-01T11:06:59Z</time></trkpt><trkpt lat="43.37654208054268" lon="11.28569088457986"><ele>242.33333333333331</ele><time>2026-05-01T11:07:00Z</time></trkpt><trkpt lat="43.37635768689583" lon="11.28574899809497"><ele>246.66666666666669</ele><time>2026-05-01T11:07:01Z</time></trkpt><trkpt lat="43.37617197143467" lon="11.285807009711178"><ele>251.0</ele><time>2026-05-01T11:07:02Z</time></trkpt><trkpt lat="43.375996954886986" lon="11.28586326035496"><ele>251.0</ele><time>2026-05-01T11:07:03Z</time></trkpt><trkpt lat="43.37581494879363" lon="11.28592109100051"><ele>251.0</ele><time>2026-05-01T11:07:04Z</time></trkpt><trkpt lat="43.37563829729425" lon="11.285973837539938"><ele>251.0</ele><time>2026-05-01T11:07:05Z</time></trkpt><trkpt lat="43.37545937946298" lon="11.286029854394751"><ele>250.66666666666669</ele><time>2026-05-01T11:07:06Z</time></trkpt><trkpt lat="43.37528001549709" lon="11.286081457538145"><ele>250.33333333333331</ele><time>2026-05-01T11:07:07Z</time></trkpt><trkpt lat="43.375100501452756" lon="11.286135023349107"><ele>250.0</ele><time>2026-05-01T11:07:08Z</time></trkpt><trkpt lat="43.37492525574817" lon="11.286185812482112"><ele>250.0</ele><time>2026-05-01T11:07:09Z</time></trkpt><trkpt lat="43.37474214765359" lon="11.286240656002505"><ele>250.0</ele><time>2026-05-01T11:07:10Z</time></trkpt><trkpt lat="43.374564586776934" lon="11.286297779240366"><ele>250.0</ele><time>2026-05-01T11:07:11Z</time></trkpt><trkpt lat="43.37438652378516" lon="11.286345042208696"><ele>248.66666666666666</ele><time>2026-05-01T11:07:12Z</time></trkpt><trkpt lat="43.37420449874204" lon="11.28640075482522"><ele>247.33333333333331</ele><time>2026-05-01T11:07:13Z</time></trkpt><trkpt lat="43.37401704603596" lon="11.286461567972374"><ele>246.0</ele><time>2026-05-01T11:07:14Z</time></trkpt><trkpt lat="43.3738319732697" lon="11.286520868069475"><ele>248.66666666666669</ele><time>2026-05-01T11:07:15Z</time></trkpt><trkpt lat="43.373643236794706" lon="11.286584955843386"><ele>251.33333333333334</ele><time>2026-05-01T11:07:16Z</time></trkpt><trkpt lat="43.37345229094644" lon="11.286646760003402"><ele>254.0</ele><time>2026-05-01T11:07:17Z</time></trkpt><trkpt lat="43.37326370126707" lon="11.286703936156043"><ele>254.0</ele><time>2026-05-01T11:07:18Z</time></trkpt><trkpt lat="43.37306846661092" lon="11.286768002257611"><ele>254.0</ele><time>2026-05-01T11:07:19Z</time></trkpt><trkpt lat="43.3728791497864" lon="11.286830008668815"><ele>254.0</ele><time>2026-05-01T11:07:20Z</time></trkpt><trkpt lat="43.372686013213084" lon="11.286887690429184"><ele>253.0</ele><time>2026-05-01T11:07:21Z</time></trkpt><trkpt lat="43.372494645261774" lon="11.286949031122973"><ele>252.0</ele><time>2026-05-01T11:07:22Z</time></trkpt><trkpt lat="43.372308066694444" lon="11.28701253236682"><ele>251.0</ele><time>2026-05-01T11:07:23Z</time></trkpt><trkpt lat="43.372127191663665" lon="11.287086267851988"><ele>250.0</ele><time>2026-05-01T11:07:24Z</time></trkpt><trkpt lat="43.37195066917359" lon="11.287167177489856"><ele>249.0</ele><time>2026-05-01T11:07:25Z</time></trkpt><trkpt lat="43.37176806449255" lon="11.287257184491189"><ele>248.0</ele><time>2026-05-01T11:07:26Z</time></trkpt><trkpt lat="43.37158969894999" lon="11.287352583609701"><ele>250.66666666666669</ele><time>2026-05-01T11:07:27Z</time></trkpt><trkpt lat="43.371410128230295" lon="11.287448125248604"><ele>253.33333333333331</ele><time>2026-05-01T11:07:28Z</time></trkpt><trkpt lat="43.37123625596914" lon="11.287553711472949"><ele>256.0</ele><time>2026-05-01T11:07:29Z</time></trkpt><trkpt lat="43.37106702100929" lon="11.287666824173073"><ele>256.0</ele><time>2026-05-01T11:07:30Z</time></trkpt><trkpt lat="43.370889353330384" lon="11.2878002810442"><ele>256.0</ele><time>2026-05-01T11:07:31Z</time></trkpt><trkpt lat="43.37072752352706" lon="11.287933508057256"><ele>256.0</ele><time>2026-05-01T11:07:32Z</time></trkpt><trkpt lat="43.37054297143046" lon="11.288114092541951"><ele>257.0</ele><time>2026-05-01T11:07:33Z</time></trkpt><trkpt lat="43.37039862057659" lon="11.28825141797039"><ele>258.0</ele><time>2026-05-01T11:07:34Z</time></trkpt><trkpt lat="43.370255394866724" lon="11.288397727112216"><ele>259.0</ele><time>2026-05-01T11:07:35Z</time></trkpt><trkpt lat="43.37010047320679" lon="11.288555276136162"><ele>259.0</ele><time>2026-05-01T11:07:36Z</time></trkpt><trkpt lat="43.369960019343615" lon="11.288723493281612"><ele>259.0</ele><time>2026-05-01T11:07:37Z</time></trkpt><trkpt lat="43.3698208825025" lon="11.288894320259704"><ele>259.0</ele><time>2026-05-01T11:07:38Z</time></trkpt><trkpt lat="43.36967852718862" lon="11.289076174644837"><ele>259.3333333333333</ele><time>2026-05-01T11:07:39Z</time></trkpt><trkpt lat="43.36953769836781" lon="11.289261310646053"><ele>259.6666666666667</ele><time>2026-05-01T11:07:40Z</time></trkpt><trkpt lat="43.369408891165406" lon="11.289451939630487"><ele>260.0</ele><time>2026-05-01T11:07:41Z</time></trkpt><trkpt lat="43.36927997406298" lon="11.289655517421076"><ele>261.33333333333337</ele><time>2026-05-01T11:07:42Z</time></trkpt><trkpt lat="43.36915897299093" lon="11.28986072676078"><ele>262.6666666666667</ele><time>2026-05-01T11:07:43Z</time></trkpt><trkpt lat="43.36904155017659" lon="11.290068708215543"><ele>264.0</ele><time>2026-05-01T11:07:44Z</time></trkpt><trkpt lat="43.368933666040896" lon="11.290282548328259"><ele>261.6666666666667</ele><time>2026-05-01T11:07:45Z</time></trkpt><trkpt lat="43.3688269102751" lon="11.290509214112559"><ele>259.33333333333337</ele><time>2026-05-01T11:07:46Z</time></trkpt><trkpt lat="43.36872809982691" lon="11.290735413846603"><ele>257.0</ele><time>2026-05-01T11:07:47Z</time></trkpt><trkpt lat="43.36863377971654" lon="11.290968088499413"><ele>257.0</ele><time>2026-05-01T11:07:48Z</time></trkpt><trkpt lat="43.36854521208113" lon="11.291191505783738"><ele>257.0</ele><time>2026-05-01T11:07:49Z</time></trkpt><trkpt lat="43.368466615997356" lon="11.291429464168246"><ele>257.0</ele><time>2026-05-01T11:07:50Z</time></trkpt><trkpt lat="43.36839622123224" lon="11.291675066718192"><ele>259.33333333333337</ele><time>2026-05-01T11:07:51Z</time></trkpt><trkpt lat="43.36832509424042" lon="11.291919546507534"><ele>261.6666666666667</ele><time>2026-05-01T11:07:52Z</time></trkpt><trkpt lat="43.36825623022287" lon="11.292170081241201"><ele>264.0</ele><time>2026-05-01T11:07:53Z</time></trkpt><trkpt lat="43.36819685143971" lon="11.292426135334415"><ele>267.3333333333333</ele><time>2026-05-01T11:07:54Z</time></trkpt><trkpt lat="43.36814923450453" lon="11.292689877644484"><ele>270.66666666666663</ele><time>2026-05-01T11:07:55Z</time></trkpt><trkpt lat="43.36810242215141" lon="11.292942943789377"><ele>274.0</ele><time>2026-05-01T11:07:56Z</time></trkpt><trkpt lat="43.36806083597182" lon="11.293201142341921"><ele>274.0</ele><time>2026-05-01T11:07:57Z</time></trkpt><trkpt lat="43.368018330830964" lon="11.293458436934113"><ele>274.0</ele><time>2026-05-01T11:07:58Z</time></trkpt><trkpt lat="43.367976236749634" lon="11.293714117484429"><ele>274.0</ele><time>2026-05-01T11:07:59Z</time></trkpt><trkpt lat="43.36793443122896" lon="11.293969041638093"><ele>274.0</ele><time>2026-05-01T11:08:00Z</time></trkpt><trkpt lat="43.36789253621328" lon="11.294230566330624"><ele>274.0</ele><time>2026-05-01T11:08:01Z</time></trkpt><trkpt lat="43.36784637543493" lon="11.294485675038564"><ele>274.0</ele><time>2026-05-01T11:08:02Z</time></trkpt><trkpt lat="43.367802039811416" lon="11.2947442326915"><ele>272.3333333333333</ele><time>2026-05-01T11:08:03Z</time></trkpt><trkpt lat="43.36775447060291" lon="11.295006049810254"><ele>270.6666666666667</ele><time>2026-05-01T11:08:04Z</time></trkpt><trkpt lat="43.36771117033788" lon="11.29526616736244"><ele>269.0</ele><time>2026-05-01T11:08:05Z</time></trkpt><trkpt lat="43.367675364799524" lon="11.295529669860496"><ele>268.33333333333337</ele><time>2026-05-01T11:08:06Z</time></trkpt><trkpt lat="43.36762896720755" lon="11.295792056930356"><ele>267.6666666666667</ele><time>2026-05-01T11:08:07Z</time></trkpt><trkpt lat="43.3675882089912" lon="11.296056550881701"><ele>267.0</ele><time>2026-05-01T11:08:08Z</time></trkpt><trkpt lat="43.36754401049444" lon="11.29632162268288"><ele>267.6666666666667</ele><time>2026-05-01T11:08:09Z</time></trkpt><trkpt lat="43.36749959941523" lon="11.296580547270063"><ele>268.33333333333337</ele><time>2026-05-01T11:08:10Z</time></trkpt><trkpt lat="43.36745750757601" lon="11.296836284006439"><ele>269.0</ele><time>2026-05-01T11:08:11Z</time></trkpt><trkpt lat="43.3674122589379" lon="11.29709065454876"><ele>270.33333333333337</ele><time>2026-05-01T11:08:12Z</time></trkpt><trkpt lat="43.36736296284502" lon="11.297348104108776"><ele>271.6666666666667</ele><time>2026-05-01T11:08:13Z</time></trkpt><trkpt lat="43.36730894537872" lon="11.297598484828633"><ele>273.0</ele><time>2026-05-01T11:08:14Z</time></trkpt><trkpt lat="43.367248584815606" lon="11.297847039236443"><ele>274.3333333333333</ele><time>2026-05-01T11:08:15Z</time></trkpt><trkpt lat="43.367184577644515" lon="11.298090618334026"><ele>275.66666666666663</ele><time>2026-05-01T11:08:16Z</time></trkpt><trkpt lat="43.36710621767294" lon="11.29832931740794"><ele>277.0</ele><time>2026-05-01T11:08:17Z</time></trkpt><trkpt lat="43.367021040131874" lon="11.298555702349432"><ele>277.0</ele><time>2026-05-01T11:08:18Z</time></trkpt><trkpt lat="43.36697055196759" lon="11.298766747502697"><ele>277.0</ele><time>2026-05-01T11:08:19Z</time></trkpt><trkpt lat="43.366884926206005" lon="11.29893810015417"><ele>277.0</ele><time>2026-05-01T11:08:20Z</time></trkpt><trkpt lat="43.3668180102795" lon="11.299115789753811"><ele>280.0</ele><time>2026-05-01T11:08:21Z</time></trkpt><trkpt lat="43.36674319783917" lon="11.299290815649492"><ele>283.0</ele><time>2026-05-01T11:08:22Z</time></trkpt><trkpt lat="43.36666113264471" lon="11.299466669951375"><ele>286.0</ele><time>2026-05-01T11:08:23Z</time></trkpt><trkpt lat="43.366577772164796" lon="11.299646760276188"><ele>286.0</ele><time>2026-05-01T11:08:24Z</time></trkpt><trkpt lat="43.366490450873926" lon="11.299824368081477"><ele>286.0</ele><time>2026-05-01T11:08:25Z</time></trkpt><trkpt lat="43.366402162434454" lon="11.30000247678682"><ele>286.0</ele><time>2026-05-01T11:08:26Z</time></trkpt><trkpt lat="43.366309184289264" lon="11.300184837997518"><ele>286.0</ele><time>2026-05-01T11:08:27Z</time></trkpt><trkpt lat="43.36621452475728" lon="11.300363897064324"><ele>286.0</ele><time>2026-05-01T11:08:28Z</time></trkpt><trkpt lat="43.36611346456877" lon="11.3005466169997"><ele>286.0</ele><time>2026-05-01T11:08:29Z</time></trkpt><trkpt lat="43.36600566909459" lon="11.300731508655382"><ele>286.66666666666663</ele><time>2026-05-01T11:08:30Z</time></trkpt><trkpt lat="43.36589529294733" lon="11.300909896148458"><ele>287.3333333333333</ele><time>2026-05-01T11:08:31Z</time></trkpt><trkpt lat="43.36578155197686" lon="11.301084349878776"><ele>288.0</ele><time>2026-05-01T11:08:32Z</time></trkpt><trkpt lat="43.36566415796875" lon="11.301251756570789"><ele>289.0</ele><time>2026-05-01T11:08:33Z</time></trkpt><trkpt lat="43.36554881769505" lon="11.30142008011783"><ele>290.0</ele><time>2026-05-01T11:08:34Z</time></trkpt><trkpt lat="43.36543199505651" lon="11.30158496924286"><ele>291.0</ele><time>2026-05-01T11:08:35Z</time></trkpt><trkpt lat="43.365311021653845" lon="11.301740130393227"><ele>288.3333333333333</ele><time>2026-05-01T11:08:36Z</time></trkpt><trkpt lat="43.365174591026864" lon="11.301883602617725"><ele>285.66666666666663</ele><time>2026-05-01T11:08:37Z</time></trkpt><trkpt lat="43.36503548777607" lon="11.302024365699683"><ele>283.0</ele><time>2026-05-01T11:08:38Z</time></trkpt><trkpt lat="43.364893089990886" lon="11.302161979413032"><ele>284.66666666666663</ele><time>2026-05-01T11:08:39Z</time></trkpt><trkpt lat="43.36475274975111" lon="11.302292313280558"><ele>286.3333333333333</ele><time>2026-05-01T11:08:40Z</time></trkpt><trkpt lat="43.36460655180183" lon="11.302418526589015"><ele>288.0</ele><time>2026-05-01T11:08:41Z</time></trkpt><trkpt lat="43.36446070902039" lon="11.30254565085671"><ele>288.6666666666667</ele><time>2026-05-01T11:08:42Z</time></trkpt><trkpt lat="43.364309640910946" lon="11.302662679199724"><ele>289.33333333333337</ele><time>2026-05-01T11:08:43Z</time></trkpt><trkpt lat="43.36415679137743" lon="11.302769107084456"><ele>290.0</ele><time>2026-05-01T11:08:44Z</time></trkpt><trkpt lat="43.36400702562365" lon="11.302867213198452"><ele>289.33333333333337</ele><time>2026-05-01T11:08:45Z</time></trkpt><trkpt lat="43.36385844499207" lon="11.302959132494777"><ele>288.6666666666667</ele><time>2026-05-01T11:08:46Z</time></trkpt><trkpt lat="43.36370426308404" lon="11.303046936555985"><ele>288.0</ele><time>2026-05-01T11:08:47Z</time></trkpt><trkpt lat="43.363544494608085" lon="11.30313141431471"><ele>289.6666666666667</ele><time>2026-05-01T11:08:48Z</time></trkpt><trkpt lat="43.36338134769046" lon="11.303201748186916"><ele>291.33333333333337</ele><time>2026-05-01T11:08:49Z</time></trkpt><trkpt lat="43.36321836327801" lon="11.303279364036069"><ele>293.0</ele><time>2026-05-01T11:08:50Z</time></trkpt><trkpt lat="43.363048807116805" lon="11.303353490474988"><ele>290.0</ele><time>2026-05-01T11:08:51Z</time></trkpt><trkpt lat="43.36287622703586" lon="11.303419115035512"><ele>287.0</ele><time>2026-05-01T11:08:52Z</time></trkpt><trkpt lat="43.36270747482581" lon="11.30347885563775"><ele>284.0</ele><time>2026-05-01T11:08:53Z</time></trkpt><trkpt lat="43.36253168808468" lon="11.30352653591946"><ele>284.0</ele><time>2026-05-01T11:08:54Z</time></trkpt><trkpt lat="43.36235795797072" lon="11.303574962368186"><ele>284.0</ele><time>2026-05-01T11:08:55Z</time></trkpt><trkpt lat="43.36217708892997" lon="11.30361488176995"><ele>284.0</ele><time>2026-05-01T11:08:56Z</time></trkpt><trkpt lat="43.36200672811843" lon="11.303647634724296"><ele>283.0</ele><time>2026-05-01T11:08:57Z</time></trkpt><trkpt lat="43.36183802095566" lon="11.303691055597925"><ele>282.0</ele><time>2026-05-01T11:08:58Z</time></trkpt><trkpt lat="43.36166441100345" lon="11.30373595888611"><ele>281.0</ele><time>2026-05-01T11:08:59Z</time></trkpt><trkpt lat="43.361501314477316" lon="11.303775064521261"><ele>280.33333333333337</ele><time>2026-05-01T11:09:00Z</time></trkpt><trkpt lat="43.36133033137189" lon="11.303818973548838"><ele>279.6666666666667</ele><time>2026-05-01T11:09:01Z</time></trkpt><trkpt lat="43.36115935387891" lon="11.303869479346018"><ele>279.0</ele><time>2026-05-01T11:09:02Z</time></trkpt><trkpt lat="43.360980259494056" lon="11.303912440422861"><ele>282.0</ele><time>2026-05-01T11:09:03Z</time></trkpt><trkpt lat="43.360805435867775" lon="11.303954522803384"><ele>285.0</ele><time>2026-05-01T11:09:04Z</time></trkpt><trkpt lat="43.36062770387984" lon="11.303996237378277"><ele>288.0</ele><time>2026-05-01T11:09:05Z</time></trkpt><trkpt lat="43.36044346518802" lon="11.304036429491251"><ele>288.0</ele><time>2026-05-01T11:09:06Z</time></trkpt><trkpt lat="43.36026183495977" lon="11.30407427847882"><ele>288.0</ele><time>2026-05-01T11:09:07Z</time></trkpt><trkpt lat="43.36008104201722" lon="11.304122859520401"><ele>288.0</ele><time>2026-05-01T11:09:08Z</time></trkpt><trkpt lat="43.35990520169238" lon="11.304157969402914"><ele>288.0</ele><time>2026-05-01T11:09:09Z</time></trkpt><trkpt lat="43.3597317176934" lon="11.304203847794113"><ele>288.0</ele><time>2026-05-01T11:09:10Z</time></trkpt><trkpt lat="43.359554091479254" lon="11.304252827038344"><ele>288.0</ele><time>2026-05-01T11:09:11Z</time></trkpt><trkpt lat="43.35937821451774" lon="11.304295858070553"><ele>288.0</ele><time>2026-05-01T11:09:12Z</time></trkpt><trkpt lat="43.35920261231279" lon="11.304337292563584"><ele>288.0</ele><time>2026-05-01T11:09:13Z</time></trkpt><trkpt lat="43.35902607721994" lon="11.304384731882461"><ele>288.0</ele><time>2026-05-01T11:09:14Z</time></trkpt><trkpt lat="43.35885451969311" lon="11.304426154288544"><ele>287.6666666666667</ele><time>2026-05-01T11:09:15Z</time></trkpt><trkpt lat="43.35867707492778" lon="11.30446935085963"><ele>287.33333333333337</ele><time>2026-05-01T11:09:16Z</time></trkpt><trkpt lat="43.358502641298955" lon="11.304508400870098"><ele>287.0</ele><time>2026-05-01T11:09:17Z</time></trkpt><trkpt lat="43.358326676192135" lon="11.304548445520393"><ele>287.0</ele><time>2026-05-01T11:09:18Z</time></trkpt><trkpt lat="43.358167583052236" lon="11.304588189019213"><ele>287.0</ele><time>2026-05-01T11:09:19Z</time></trkpt><trkpt lat="43.35800790210722" lon="11.304625926396414"><ele>287.0</ele><time>2026-05-01T11:09:20Z</time></trkpt><trkpt lat="43.357854852006746" lon="11.304653824573833"><ele>287.25</ele><time>2026-05-01T11:09:21Z</time></trkpt><trkpt lat="43.35771129997349" lon="11.304679117712832"><ele>287.5</ele><time>2026-05-01T11:09:22Z</time></trkpt><trkpt lat="43.357579132321405" lon="11.304710321086251"><ele>287.75</ele><time>2026-05-01T11:09:23Z</time></trkpt><trkpt lat="43.35746550418046" lon="11.304741857351365"><ele>288.0</ele><time>2026-05-01T11:09:24Z</time></trkpt><trkpt lat="43.3573683725823" lon="11.304755063456408"><ele>288.0</ele><time>2026-05-01T11:09:25Z</time></trkpt><trkpt lat="43.35728203830942" lon="11.304765686052445"><ele>288.0</ele><time>2026-05-01T11:09:26Z</time></trkpt><trkpt lat="43.357196759144706" lon="11.304750738172112"><ele>288.0</ele><time>2026-05-01T11:09:27Z</time></trkpt><trkpt lat="43.357116441606124" lon="11.304723834514443"><ele>288.0</ele><time>2026-05-01T11:09:28Z</time></trkpt><trkpt lat="43.35703419246106" lon="11.304688678926084"><ele>288.0</ele><time>2026-05-01T11:09:29Z</time></trkpt><trkpt lat="43.35695408766841" lon="11.30463227795925"><ele>288.0</ele><time>2026-05-01T11:09:30Z</time></trkpt><trkpt lat="43.35686870817657" lon="11.304568360551325"><ele>288.0</ele><time>2026-05-01T11:09:31Z</time></trkpt><trkpt lat="43.3567954066655" lon="11.304478170082321"><ele>288.0</ele><time>2026-05-01T11:09:32Z</time></trkpt><trkpt lat="43.356724808800884" lon="11.304379964081193"><ele>288.0</ele><time>2026-05-01T11:09:33Z</time></trkpt><trkpt lat="43.35665405583486" lon="11.304280746474365"><ele>288.0</ele><time>2026-05-01T11:09:34Z</time></trkpt><trkpt lat="43.35658095164621" lon="11.304189320971679"><ele>288.0</ele><time>2026-05-01T11:09:35Z</time></trkpt><trkpt lat="43.356497466985566" lon="11.304145798225674"><ele>288.0</ele><time>2026-05-01T11:09:36Z</time></trkpt><trkpt lat="43.35640305085807" lon="11.304130069078495"><ele>288.0</ele><time>2026-05-01T11:09:37Z</time></trkpt><trkpt lat="43.35629838936456" lon="11.304133539282887"><ele>288.0</ele><time>2026-05-01T11:09:38Z</time></trkpt><trkpt lat="43.356186268901276" lon="11.304154077025377"><ele>288.0</ele><time>2026-05-01T11:09:39Z</time></trkpt><trkpt lat="43.35607381382362" lon="11.304181513109453"><ele>288.0</ele><time>2026-05-01T11:09:40Z</time></trkpt><trkpt lat="43.35595815011481" lon="11.304206837668078"><ele>288.4</ele><time>2026-05-01T11:09:41Z</time></trkpt><trkpt lat="43.355850501271945" lon="11.30422615126477"><ele>288.8</ele><time>2026-05-01T11:09:42Z</time></trkpt><trkpt lat="43.35576042826865" lon="11.304262089956598"><ele>289.2</ele><time>2026-05-01T11:09:43Z</time></trkpt><trkpt lat="43.355669750700194" lon="11.304292142993718"><ele>289.6</ele><time>2026-05-01T11:09:44Z</time></trkpt><trkpt lat="43.355610562552144" lon="11.304399928148726"><ele>290.0</ele><time>2026-05-01T11:09:45Z</time></trkpt><trkpt lat="43.35555315257616" lon="11.304510445385382"><ele>289.4</ele><time>2026-05-01T11:09:46Z</time></trkpt><trkpt lat="43.35551239880008" lon="11.304648417492398"><ele>288.8</ele><time>2026-05-01T11:09:47Z</time></trkpt><trkpt lat="43.355456077699664" lon="11.304782361115622"><ele>288.2</ele><time>2026-05-01T11:09:48Z</time></trkpt><trkpt lat="43.35542038685447" lon="11.304906244616378"><ele>287.6</ele><time>2026-05-01T11:09:49Z</time></trkpt><trkpt lat="43.35538101999579" lon="11.305040917047906"><ele>287.0</ele><time>2026-05-01T11:09:50Z</time></trkpt><trkpt lat="43.35534259556154" lon="11.30514594472566"><ele>289.0</ele><time>2026-05-01T11:09:51Z</time></trkpt><trkpt lat="43.35528900059676" lon="11.305227865289222"><ele>291.0</ele><time>2026-05-01T11:09:52Z</time></trkpt><trkpt lat="43.35522284666113" lon="11.30529955833178"><ele>293.0</ele><time>2026-05-01T11:09:53Z</time></trkpt><trkpt lat="43.35514600089325" lon="11.305353853329018"><ele>295.0</ele><time>2026-05-01T11:09:54Z</time></trkpt><trkpt lat="43.35504968377258" lon="11.305387579709018"><ele>297.0</ele><time>2026-05-01T11:09:55Z</time></trkpt><trkpt lat="43.3549488966597" lon="11.305411687145444"><ele>297.0</ele><time>2026-05-01T11:09:56Z</time></trkpt><trkpt lat="43.354837244516766" lon="11.30542368895169"><ele>297.0</ele><time>2026-05-01T11:09:57Z</time></trkpt><trkpt lat="43.35472503166615" lon="11.305450997758497"><ele>297.0</ele><time>2026-05-01T11:09:58Z</time></trkpt><trkpt lat="43.354610909929704" lon="11.305466577980354"><ele>297.0</ele><time>2026-05-01T11:09:59Z</time></trkpt><trkpt lat="43.35449295586705" lon="11.305485331701009"><ele>297.75</ele><time>2026-05-01T11:10:00Z</time></trkpt><trkpt lat="43.354369245436295" lon="11.305507723340916"><ele>298.5</ele><time>2026-05-01T11:10:01Z</time></trkpt><trkpt lat="43.35425209351848" lon="11.30554318432724"><ele>299.25</ele><time>2026-05-01T11:10:02Z</time></trkpt><trkpt lat="43.35414118620537" lon="11.305549665088702"><ele>300.0</ele><time>2026-05-01T11:10:03Z</time></trkpt><trkpt lat="43.35402051291849" lon="11.305568724198746"><ele>302.0</ele><time>2026-05-01T11:10:04Z</time></trkpt><trkpt lat="43.353897110281004" lon="11.305585795145142"><ele>304.0</ele><time>2026-05-01T11:10:05Z</time></trkpt><trkpt lat="43.35377673737716" lon="11.305601219535118"><ele>306.0</ele><time>2026-05-01T11:10:06Z</time></trkpt><trkpt lat="43.35364922084964" lon="11.305609651561007"><ele>308.0</ele><time>2026-05-01T11:10:07Z</time></trkpt><trkpt lat="43.35352111035222" lon="11.30561046285776"><ele>308.0</ele><time>2026-05-01T11:10:08Z</time></trkpt><trkpt lat="43.35338222042376" lon="11.305613965553361"><ele>308.0</ele><time>2026-05-01T11:10:09Z</time></trkpt><trkpt lat="43.35324807058686" lon="11.305625446985934"><ele>308.0</ele><time>2026-05-01T11:10:10Z</time></trkpt><trkpt lat="43.35311097831268" lon="11.305640069109435"><ele>308.0</ele><time>2026-05-01T11:10:11Z</time></trkpt><trkpt lat="43.352963754625314" lon="11.305658722819276"><ele>308.6666666666667</ele><time>2026-05-01T11:10:12Z</time></trkpt><trkpt lat="43.35280708975274" lon="11.305679237189787"><ele>309.3333333333333</ele><time>2026-05-01T11:10:13Z</time></trkpt><trkpt lat="43.35265424812551" lon="11.305697448916872"><ele>310.0</ele><time>2026-05-01T11:10:14Z</time></trkpt><trkpt lat="43.352502839986876" lon="11.30571182835293"><ele>310.0</ele><time>2026-05-01T11:10:15Z</time></trkpt><trkpt lat="43.35236991579915" lon="11.305718910662227"><ele>310.0</ele><time>2026-05-01T11:10:16Z</time></trkpt><trkpt lat="43.352232772164804" lon="11.305735393583817"><ele>310.0</ele><time>2026-05-01T11:10:17Z</time></trkpt><trkpt lat="43.35209915437937" lon="11.305750427448423"><ele>310.0</ele><time>2026-05-01T11:10:18Z</time></trkpt><trkpt lat="43.35196401328484" lon="11.305763036992987"><ele>311.0</ele><time>2026-05-01T11:10:19Z</time></trkpt><trkpt lat="43.35183051703015" lon="11.305770812195119"><ele>312.0</ele><time>2026-05-01T11:10:20Z</time></trkpt><trkpt lat="43.35169248435583" lon="11.30578146142103"><ele>313.0</ele><time>2026-05-01T11:10:21Z</time></trkpt><trkpt lat="43.351557350017785" lon="11.305785981956438"><ele>314.0</ele><time>2026-05-01T11:10:22Z</time></trkpt><trkpt lat="43.351418342314425" lon="11.305798456450434"><ele>314.5</ele><time>2026-05-01T11:10:23Z</time></trkpt><trkpt lat="43.351279525380725" lon="11.305810868243116"><ele>315.0</ele><time>2026-05-01T11:10:24Z</time></trkpt><trkpt lat="43.351139180452776" lon="11.305823692198828"><ele>315.5</ele><time>2026-05-01T11:10:25Z</time></trkpt><trkpt lat="43.3510037672015" lon="11.305836087538042"><ele>316.0</ele><time>2026-05-01T11:10:26Z</time></trkpt><trkpt lat="43.35086444622302" lon="11.30584866135241"><ele>316.0</ele><time>2026-05-01T11:10:27Z</time></trkpt><trkpt lat="43.35072824251717" lon="11.305860840992647"><ele>316.0</ele><time>2026-05-01T11:10:28Z</time></trkpt><trkpt lat="43.35058632651868" lon="11.305878178686019"><ele>316.0</ele><time>2026-05-01T11:10:29Z</time></trkpt><trkpt lat="43.350454548673525" lon="11.30588313544428"><ele>316.0</ele><time>2026-05-01T11:10:30Z</time></trkpt><trkpt lat="43.35032128457034" lon="11.305896682966985"><ele>317.0</ele><time>2026-05-01T11:10:31Z</time></trkpt><trkpt lat="43.350190176228956" lon="11.305912407656532"><ele>318.0</ele><time>2026-05-01T11:10:32Z</time></trkpt><trkpt lat="43.35005823485152" lon="11.305923955540669"><ele>319.0</ele><time>2026-05-01T11:10:33Z</time></trkpt><trkpt lat="43.349931546479496" lon="11.305930850078752"><ele>320.0</ele><time>2026-05-01T11:10:34Z</time></trkpt><trkpt lat="43.34981059405255" lon="11.30595255399316"><ele>320.2</ele><time>2026-05-01T11:10:35Z</time></trkpt><trkpt lat="43.34970014000711" lon="11.305980261568756"><ele>320.4</ele><time>2026-05-01T11:10:36Z</time></trkpt><trkpt lat="43.3495876682344" lon="11.306037780703834"><ele>320.6</ele><time>2026-05-01T11:10:37Z</time></trkpt><trkpt lat="43.34950453125095" lon="11.306084964548456"><ele>320.8</ele><time>2026-05-01T11:10:38Z</time></trkpt><trkpt lat="43.349427061703096" lon="11.306127843644312"><ele>321.0</ele><time>2026-05-01T11:10:39Z</time></trkpt><trkpt lat="43.34935778982393" lon="11.306150578902212"><ele>320.99999999999994</ele><time>2026-05-01T11:10:40Z</time></trkpt><trkpt lat="43.34928230652644" lon="11.306176025671865"><ele>321.0</ele><time>2026-05-01T11:10:41Z</time></trkpt><trkpt lat="43.34921406433911" lon="11.3061605933553"><ele>321.0</ele><time>2026-05-01T11:10:42Z</time></trkpt><trkpt lat="43.349142336211415" lon="11.306129896808498"><ele>321.0</ele><time>2026-05-01T11:10:43Z</time></trkpt><trkpt lat="43.349083603285315" lon="11.306060457863863"><ele>321.0</ele><time>2026-05-01T11:10:44Z</time></trkpt><trkpt lat="43.349017341377674" lon="11.306073911263669"><ele>320.99999999999994</ele><time>2026-05-01T11:10:45Z</time></trkpt><trkpt lat="43.34894598545044" lon="11.306081238927586"><ele>321.0</ele><time>2026-05-01T11:10:46Z</time></trkpt><trkpt lat="43.34887225255398" lon="11.306126659369845"><ele>322.0</ele><time>2026-05-01T11:10:47Z</time></trkpt><trkpt lat="43.34878780532801" lon="11.30619316217146"><ele>323.0</ele><time>2026-05-01T11:10:48Z</time></trkpt><trkpt lat="43.348712745999684" lon="11.30621806629553"><ele>324.0</ele><time>2026-05-01T11:10:49Z</time></trkpt><trkpt lat="43.34862518920854" lon="11.306208936983065"><ele>325.0</ele><time>2026-05-01T11:10:50Z</time></trkpt><trkpt lat="43.34853229490647" lon="11.306185440822865"><ele>326.0</ele><time>2026-05-01T11:10:51Z</time></trkpt><trkpt lat="43.34843260276619" lon="11.30614784547903"><ele>326.0</ele><time>2026-05-01T11:10:52Z</time></trkpt><trkpt lat="43.34832019669062" lon="11.306126880938718"><ele>326.0</ele><time>2026-05-01T11:10:53Z</time></trkpt><trkpt lat="43.34821666923304" lon="11.306100927680959"><ele>326.0</ele><time>2026-05-01T11:10:54Z</time></trkpt><trkpt lat="43.34809885871141" lon="11.30610221067498"><ele>326.0</ele><time>2026-05-01T11:10:55Z</time></trkpt><trkpt lat="43.34800656251553" lon="11.306094631465754"><ele>326.0</ele><time>2026-05-01T11:10:56Z</time></trkpt><trkpt lat="43.347903237567095" lon="11.306099775996636"><ele>328.4</ele><time>2026-05-01T11:10:57Z</time></trkpt><trkpt lat="43.34779823489093" lon="11.306105009691896"><ele>330.8</ele><time>2026-05-01T11:10:58Z</time></trkpt><trkpt lat="43.34768786331116" lon="11.306119854152744"><ele>333.2</ele><time>2026-05-01T11:10:59Z</time></trkpt><trkpt lat="43.34757802913362" lon="11.306129239259452"><ele>335.59999999999997</ele><time>2026-05-01T11:11:00Z</time></trkpt><trkpt lat="43.34745599070101" lon="11.306146925986791"><ele>338.0</ele><time>2026-05-01T11:11:01Z</time></trkpt><trkpt lat="43.347326985417666" lon="11.306164809976387"><ele>339.75</ele><time>2026-05-01T11:11:02Z</time></trkpt><trkpt lat="43.34719459939" lon="11.306175671003846"><ele>341.5</ele><time>2026-05-01T11:11:03Z</time></trkpt><trkpt lat="43.34706096417672" lon="11.3061902542379"><ele>343.25</ele><time>2026-05-01T11:11:04Z</time></trkpt><trkpt lat="43.34692910365826" lon="11.306194463344386"><ele>345.0</ele><time>2026-05-01T11:11:05Z</time></trkpt><trkpt lat="43.34679507768339" lon="11.30619551310397"><ele>345.0</ele><time>2026-05-01T11:11:06Z</time></trkpt><trkpt lat="43.346669103041144" lon="11.30620916333317"><ele>345.0</ele><time>2026-05-01T11:11:07Z</time></trkpt><trkpt lat="43.346532994564384" lon="11.306244089166565"><ele>345.0</ele><time>2026-05-01T11:11:08Z</time></trkpt><trkpt lat="43.34639600343578" lon="11.30627685040417"><ele>345.0</ele><time>2026-05-01T11:11:09Z</time></trkpt><trkpt lat="43.3462697304178" lon="11.30629801766303"><ele>346.25</ele><time>2026-05-01T11:11:10Z</time></trkpt><trkpt lat="43.346129373386006" lon="11.306321615509056"><ele>347.5</ele><time>2026-05-01T11:11:11Z</time></trkpt><trkpt lat="43.34600172261541" lon="11.306340173785124"><ele>348.75</ele><time>2026-05-01T11:11:12Z</time></trkpt><trkpt lat="43.34587574081296" lon="11.306360019257857"><ele>350.0</ele><time>2026-05-01T11:11:13Z</time></trkpt><trkpt lat="43.345754198090304" lon="11.306387679055277"><ele>350.0</ele><time>2026-05-01T11:11:14Z</time></trkpt><trkpt lat="43.34563130165916" lon="11.306407650158146"><ele>350.0</ele><time>2026-05-01T11:11:15Z</time></trkpt><trkpt lat="43.345493638813196" lon="11.30644453241432"><ele>350.0</ele><time>2026-05-01T11:11:16Z</time></trkpt><trkpt lat="43.34535751992732" lon="11.306468140969114"><ele>350.0</ele><time>2026-05-01T11:11:17Z</time></trkpt><trkpt lat="43.34521551853601" lon="11.306497647264663"><ele>348.8</ele><time>2026-05-01T11:11:18Z</time></trkpt><trkpt lat="43.34509427840585" lon="11.306512162567149"><ele>347.6</ele><time>2026-05-01T11:11:19Z</time></trkpt><trkpt lat="43.34499278590927" lon="11.306530941012982"><ele>346.4</ele><time>2026-05-01T11:11:20Z</time></trkpt><trkpt lat="43.34491100759054" lon="11.306549518897942"><ele>345.2</ele><time>2026-05-01T11:11:21Z</time></trkpt><trkpt lat="43.34483766634871" lon="11.306556007623684"><ele>344.0</ele><time>2026-05-01T11:11:22Z</time></trkpt><trkpt lat="43.3447350936645" lon="11.306591171713881"><ele>343.0</ele><time>2026-05-01T11:11:24Z</time></trkpt><trkpt lat="43.3446760490286" lon="11.306634609131764"><ele>342.0</ele><time>2026-05-01T11:11:27Z</time></trkpt><trkpt lat="43.34457756867814" lon="11.306576109406867"><ele>341.0</ele><time>2026-05-01T11:11:29Z</time></trkpt><trkpt lat="43.3444924914142" lon="11.306570718225927"><ele>340.0</ele><time>2026-05-01T11:11:31Z</time></trkpt><trkpt lat="43.34438783294021" lon="11.30663927351705"><ele>339.0</ele><time>2026-05-01T11:11:33Z</time></trkpt><trkpt lat="43.34432780680574" lon="11.30677500869112"><ele>339.0</ele><time>2026-05-01T11:11:35Z</time></trkpt><trkpt lat="43.34434579694743" lon="11.306911622641163"><ele>339.0</ele><time>2026-05-01T11:11:37Z</time></trkpt><trkpt lat="43.34434784845957" lon="11.307019193316124"><ele>339.0</ele><time>2026-05-01T11:11:39Z</time></trkpt><trkpt lat="43.34431025533221" lon="11.307152317687086"><ele>339.0</ele><time>2026-05-01T11:11:41Z</time></trkpt><trkpt lat="43.34426856532239" lon="11.307228599581038"><ele>339.0</ele><time>2026-05-01T11:11:42Z</time></trkpt><trkpt lat="43.34421768835285" lon="11.307305485038686"><ele>339.0</ele><time>2026-05-01T11:11:43Z</time></trkpt><trkpt lat="43.34416062284945" lon="11.307366461548801"><ele>338.6666666666667</ele><time>2026-05-01T11:11:44Z</time></trkpt><trkpt lat="43.34409842965466" lon="11.307413858179485"><ele>338.3333333333333</ele><time>2026-05-01T11:11:45Z</time></trkpt><trkpt lat="43.344028413945054" lon="11.30746386783014"><ele>338.0</ele><time>2026-05-01T11:11:46Z</time></trkpt><trkpt lat="43.34394876553261" lon="11.30750714504532"><ele>337.66666666666663</ele><time>2026-05-01T11:11:47Z</time></trkpt><trkpt lat="43.34386241900498" lon="11.307538879806106"><ele>337.3333333333333</ele><time>2026-05-01T11:11:48Z</time></trkpt><trkpt lat="43.343768944162285" lon="11.307563472471752"><ele>337.0</ele><time>2026-05-01T11:11:49Z</time></trkpt><trkpt lat="43.34366358143187" lon="11.307587389243995"><ele>335.5</ele><time>2026-05-01T11:11:50Z</time></trkpt><trkpt lat="43.34355179786474" lon="11.307605615250319"><ele>334.0</ele><time>2026-05-01T11:11:51Z</time></trkpt><trkpt lat="43.34343773248708" lon="11.307622072588398"><ele>332.5</ele><time>2026-05-01T11:11:52Z</time></trkpt><trkpt lat="43.34332342858187" lon="11.30763510622536"><ele>331.0</ele><time>2026-05-01T11:11:53Z</time></trkpt><trkpt lat="43.343198546967606" lon="11.307646720318964"><ele>331.0</ele><time>2026-05-01T11:11:54Z</time></trkpt><trkpt lat="43.34306707891504" lon="11.307662746264892"><ele>331.0</ele><time>2026-05-01T11:11:55Z</time></trkpt><trkpt lat="43.34294297681297" lon="11.307678102607426"><ele>331.0</ele><time>2026-05-01T11:11:56Z</time></trkpt><trkpt lat="43.34281184675548" lon="11.307699739749403"><ele>331.0</ele><time>2026-05-01T11:11:57Z</time></trkpt><trkpt lat="43.34266605489971" lon="11.307725407071453"><ele>331.0</ele><time>2026-05-01T11:11:58Z</time></trkpt><trkpt lat="43.342527293171074" lon="11.307743923458334"><ele>331.0</ele><time>2026-05-01T11:11:59Z</time></trkpt><trkpt lat="43.34238824133536" lon="11.307763477063897"><ele>331.0</ele><time>2026-05-01T11:12:00Z</time></trkpt><trkpt lat="43.342259809708985" lon="11.307778726487284"><ele>331.0</ele><time>2026-05-01T11:12:01Z</time></trkpt><trkpt lat="43.34212717459479" lon="11.307764065077317"><ele>330.75</ele><time>2026-05-01T11:12:02Z</time></trkpt><trkpt lat="43.341988616982036" lon="11.307791269579266"><ele>330.5</ele><time>2026-05-01T11:12:03Z</time></trkpt><trkpt lat="43.34186406633561" lon="11.30782295798236"><ele>330.25</ele><time>2026-05-01T11:12:04Z</time></trkpt><trkpt lat="43.34173741561584" lon="11.30786756388902"><ele>330.0</ele><time>2026-05-01T11:12:05Z</time></trkpt><trkpt lat="43.341601203324394" lon="11.307929708063972"><ele>330.0</ele><time>2026-05-01T11:12:06Z</time></trkpt><trkpt lat="43.34145993781604" lon="11.308015195544376"><ele>330.0</ele><time>2026-05-01T11:12:07Z</time></trkpt><trkpt lat="43.34133330401213" lon="11.308097341479536"><ele>330.0</ele><time>2026-05-01T11:12:08Z</time></trkpt><trkpt lat="43.34120634094863" lon="11.308185522949303"><ele>330.0</ele><time>2026-05-01T11:12:09Z</time></trkpt><trkpt lat="43.3410870166425" lon="11.308285125173576"><ele>328.0</ele><time>2026-05-01T11:12:10Z</time></trkpt><trkpt lat="43.34096811255439" lon="11.308393505572022"><ele>326.0</ele><time>2026-05-01T11:12:11Z</time></trkpt><trkpt lat="43.340846270624716" lon="11.308501367021918"><ele>324.0</ele><time>2026-05-01T11:12:12Z</time></trkpt><trkpt lat="43.34071856360308" lon="11.308615628462974"><ele>322.0</ele><time>2026-05-01T11:12:13Z</time></trkpt><trkpt lat="43.34059238459421" lon="11.308730036106825"><ele>321.0</ele><time>2026-05-01T11:12:14Z</time></trkpt><trkpt lat="43.34046542171721" lon="11.308854519375636"><ele>320.0</ele><time>2026-05-01T11:12:15Z</time></trkpt><trkpt lat="43.3403422523068" lon="11.308968484915829"><ele>319.0</ele><time>2026-05-01T11:12:16Z</time></trkpt><trkpt lat="43.340219627330015" lon="11.309086598418068"><ele>319.0</ele><time>2026-05-01T11:12:17Z</time></trkpt><trkpt lat="43.34010245813771" lon="11.309210204399028"><ele>319.0</ele><time>2026-05-01T11:12:18Z</time></trkpt><trkpt lat="43.33998230137279" lon="11.309344151171233"><ele>319.0</ele><time>2026-05-01T11:12:19Z</time></trkpt><trkpt lat="43.33986199824308" lon="11.309475783982736"><ele>319.0</ele><time>2026-05-01T11:12:20Z</time></trkpt><trkpt lat="43.339744929252106" lon="11.3096228990594"><ele>319.0</ele><time>2026-05-01T11:12:21Z</time></trkpt><trkpt lat="43.33963115436983" lon="11.309769956934232"><ele>319.0</ele><time>2026-05-01T11:12:22Z</time></trkpt><trkpt lat="43.33951709162497" lon="11.309926832709449"><ele>317.0</ele><time>2026-05-01T11:12:23Z</time></trkpt><trkpt lat="43.33940058201064" lon="11.310077584978865"><ele>315.0</ele><time>2026-05-01T11:12:24Z</time></trkpt><trkpt lat="43.339280913418555" lon="11.310238333547685"><ele>313.0</ele><time>2026-05-01T11:12:25Z</time></trkpt><trkpt lat="43.33916225803871" lon="11.310403327550302"><ele>313.0</ele><time>2026-05-01T11:12:26Z</time></trkpt><trkpt lat="43.33904050843028" lon="11.31056389454045"><ele>313.0</ele><time>2026-05-01T11:12:27Z</time></trkpt><trkpt lat="43.3389118296003" lon="11.310715684518318"><ele>313.0</ele><time>2026-05-01T11:12:28Z</time></trkpt><trkpt lat="43.338775183190116" lon="11.31086103474044"><ele>312.0</ele><time>2026-05-01T11:12:29Z</time></trkpt><trkpt lat="43.33862840496021" lon="11.31099253706213"><ele>311.0</ele><time>2026-05-01T11:12:30Z</time></trkpt><trkpt lat="43.338481785398734" lon="11.311121771996067"><ele>310.0</ele><time>2026-05-01T11:12:31Z</time></trkpt><trkpt lat="43.338336388162965" lon="11.311241349314566"><ele>310.0</ele><time>2026-05-01T11:12:32Z</time></trkpt><trkpt lat="43.33819630053676" lon="11.31135811224474"><ele>310.0</ele><time>2026-05-01T11:12:33Z</time></trkpt><trkpt lat="43.338050536021136" lon="11.311471843548915"><ele>310.0</ele><time>2026-05-01T11:12:34Z</time></trkpt><trkpt lat="43.33791408796059" lon="11.311580840625306"><ele>308.3333333333333</ele><time>2026-05-01T11:12:35Z</time></trkpt><trkpt lat="43.337771780763916" lon="11.311698275094393"><ele>306.6666666666667</ele><time>2026-05-01T11:12:36Z</time></trkpt><trkpt lat="43.33762872001497" lon="11.31181565881108"><ele>305.0</ele><time>2026-05-01T11:12:37Z</time></trkpt><trkpt lat="43.33748933216156" lon="11.311933236559332"><ele>305.0</ele><time>2026-05-01T11:12:38Z</time></trkpt><trkpt lat="43.337349138899796" lon="11.312046986566628"><ele>305.0</ele><time>2026-05-01T11:12:39Z</time></trkpt><trkpt lat="43.33720689344894" lon="11.312154091789806"><ele>305.0</ele><time>2026-05-01T11:12:40Z</time></trkpt><trkpt lat="43.33706721448275" lon="11.312263957003617"><ele>304.6666666666667</ele><time>2026-05-01T11:12:41Z</time></trkpt><trkpt lat="43.33692542337002" lon="11.312381626473254"><ele>304.3333333333333</ele><time>2026-05-01T11:12:42Z</time></trkpt><trkpt lat="43.33678858299219" lon="11.312509032322447"><ele>304.0</ele><time>2026-05-01T11:12:43Z</time></trkpt><trkpt lat="43.336633075210685" lon="11.312621548297336"><ele>304.0</ele><time>2026-05-01T11:12:44Z</time></trkpt><trkpt lat="43.33649264624994" lon="11.312736191238486"><ele>304.0</ele><time>2026-05-01T11:12:45Z</time></trkpt><trkpt lat="43.33634007180933" lon="11.312854106686556"><ele>304.0</ele><time>2026-05-01T11:12:46Z</time></trkpt><trkpt lat="43.3361935797743" lon="11.3129687633412"><ele>304.66666666666663</ele><time>2026-05-01T11:12:47Z</time></trkpt><trkpt lat="43.336050690016855" lon="11.313066187414849"><ele>305.3333333333333</ele><time>2026-05-01T11:12:48Z</time></trkpt><trkpt lat="43.33592826687638" lon="11.313173871359748"><ele>306.0</ele><time>2026-05-01T11:12:49Z</time></trkpt><trkpt lat="43.335817281001304" lon="11.313304460127698"><ele>305.8</ele><time>2026-05-01T11:12:50Z</time></trkpt><trkpt lat="43.335726184617045" lon="11.313428267928938"><ele>305.6</ele><time>2026-05-01T11:12:51Z</time></trkpt><trkpt lat="43.335656208303185" lon="11.313545634671833"><ele>305.4</ele><time>2026-05-01T11:12:52Z</time></trkpt><trkpt lat="43.33560084350354" lon="11.313671713393434"><ele>305.2</ele><time>2026-05-01T11:12:53Z</time></trkpt><trkpt lat="43.335549515410044" lon="11.313784345888315"><ele>305.0</ele><time>2026-05-01T11:12:54Z</time></trkpt><trkpt lat="43.33547414403196" lon="11.313869936042888"><ele>303.83333333333337</ele><time>2026-05-01T11:12:55Z</time></trkpt><trkpt lat="43.335403781938666" lon="11.313937909736058"><ele>302.6666666666667</ele><time>2026-05-01T11:12:56Z</time></trkpt><trkpt lat="43.33534780608104" lon="11.314013394623045"><ele>301.5</ele><time>2026-05-01T11:12:57Z</time></trkpt><trkpt lat="43.33531100094817" lon="11.31411091403847"><ele>300.3333333333333</ele><time>2026-05-01T11:12:58Z</time></trkpt><trkpt lat="43.335291836739444" lon="11.31421831747291"><ele>299.16666666666663</ele><time>2026-05-01T11:12:59Z</time></trkpt><trkpt lat="43.335293615574294" lon="11.31431731060336"><ele>298.0</ele><time>2026-05-01T11:13:00Z</time></trkpt><trkpt lat="43.335343762534336" lon="11.31446306192748"><ele>298.0</ele><time>2026-05-01T11:13:02Z</time></trkpt><trkpt lat="43.33529927664311" lon="11.314577501952648"><ele>298.0</ele><time>2026-05-01T11:13:03Z</time></trkpt><trkpt lat="43.335271313156994" lon="11.31467135749731"><ele>298.0</ele><time>2026-05-01T11:13:04Z</time></trkpt><trkpt lat="43.33523381225082" lon="11.314763316647259"><ele>298.0</ele><time>2026-05-01T11:13:05Z</time></trkpt><trkpt lat="43.33518880940374" lon="11.314859454651373"><ele>298.0</ele><time>2026-05-01T11:13:06Z</time></trkpt><trkpt lat="43.3351473124533" lon="11.314959547268765"><ele>298.0</ele><time>2026-05-01T11:13:07Z</time></trkpt><trkpt lat="43.335106209458296" lon="11.315081359984097"><ele>297.4</ele><time>2026-05-01T11:13:08Z</time></trkpt><trkpt lat="43.33506521958134" lon="11.315213385586626"><ele>296.8</ele><time>2026-05-01T11:13:09Z</time></trkpt><trkpt lat="43.33501574567701" lon="11.315350166541108"><ele>296.2</ele><time>2026-05-01T11:13:10Z</time></trkpt><trkpt lat="43.33496799649716" lon="11.31548736233983"><ele>295.6</ele><time>2026-05-01T11:13:11Z</time></trkpt><trkpt lat="43.33492193479513" lon="11.315632825307425"><ele>295.0</ele><time>2026-05-01T11:13:12Z</time></trkpt><trkpt lat="43.33487346315223" lon="11.315778603455021"><ele>295.0</ele><time>2026-05-01T11:13:13Z</time></trkpt><trkpt lat="43.33482333888682" lon="11.31592679360264"><ele>295.0</ele><time>2026-05-01T11:13:14Z</time></trkpt><trkpt lat="43.33477464695655" lon="11.316085112635454"><ele>295.0</ele><time>2026-05-01T11:13:15Z</time></trkpt><trkpt lat="43.33473337740799" lon="11.316257986312115"><ele>295.0</ele><time>2026-05-01T11:13:16Z</time></trkpt><trkpt lat="43.33470166820837" lon="11.316439564248473"><ele>294.0</ele><time>2026-05-01T11:13:17Z</time></trkpt><trkpt lat="43.334679238726025" lon="11.316621645084217"><ele>293.0</ele><time>2026-05-01T11:13:18Z</time></trkpt><trkpt lat="43.334657246581116" lon="11.316821529928088"><ele>292.0</ele><time>2026-05-01T11:13:19Z</time></trkpt><trkpt lat="43.334642928881316" lon="11.317001259444236"><ele>291.0</ele><time>2026-05-01T11:13:20Z</time></trkpt><trkpt lat="43.33460612913577" lon="11.317184731892109"><ele>290.25</ele><time>2026-05-01T11:13:21Z</time></trkpt><trkpt lat="43.33457559213442" lon="11.317356806371707"><ele>289.5</ele><time>2026-05-01T11:13:22Z</time></trkpt><trkpt lat="43.334550018140874" lon="11.31754556058891"><ele>288.75</ele><time>2026-05-01T11:13:23Z</time></trkpt><trkpt lat="43.33451802109725" lon="11.31773611568728"><ele>288.0</ele><time>2026-05-01T11:13:24Z</time></trkpt><trkpt lat="43.334475680733554" lon="11.317913758645053"><ele>288.5</ele><time>2026-05-01T11:13:25Z</time></trkpt><trkpt lat="43.334429235425" lon="11.318083914764037"><ele>289.0</ele><time>2026-05-01T11:13:26Z</time></trkpt><trkpt lat="43.334375250629186" lon="11.318249916473258"><ele>289.5</ele><time>2026-05-01T11:13:27Z</time></trkpt><trkpt lat="43.334317050401374" lon="11.318404407316788"><ele>290.0</ele><time>2026-05-01T11:13:28Z</time></trkpt><trkpt lat="43.334256420620854" lon="11.318556530231522"><ele>290.0</ele><time>2026-05-01T11:13:29Z</time></trkpt><trkpt lat="43.33420469042294" lon="11.318670758276284"><ele>290.0</ele><time>2026-05-01T11:13:30Z</time></trkpt><trkpt lat="43.33415400446176" lon="11.318765082591161"><ele>290.0</ele><time>2026-05-01T11:13:31Z</time></trkpt><trkpt lat="43.33410542035658" lon="11.318857306452886"><ele>290.0</ele><time>2026-05-01T11:13:32Z</time></trkpt><trkpt lat="43.33404856684214" lon="11.31895157419085"><ele>290.0</ele><time>2026-05-01T11:13:33Z</time></trkpt><trkpt lat="43.33398459171011" lon="11.319054858358347"><ele>289.8</ele><time>2026-05-01T11:13:34Z</time></trkpt><trkpt lat="43.333918408713224" lon="11.319161156038422"><ele>289.6</ele><time>2026-05-01T11:13:35Z</time></trkpt><trkpt lat="43.33384636718205" lon="11.319278456827654"><ele>289.4</ele><time>2026-05-01T11:13:36Z</time></trkpt><trkpt lat="43.333773740953276" lon="11.31938488990856"><ele>289.2</ele><time>2026-05-01T11:13:37Z</time></trkpt><trkpt lat="43.333706805736604" lon="11.319483083536486"><ele>289.0</ele><time>2026-05-01T11:13:38Z</time></trkpt><trkpt lat="43.333642931761474" lon="11.319579400669937"><ele>289.0</ele><time>2026-05-01T11:13:39Z</time></trkpt><trkpt lat="43.33358284846213" lon="11.319675208661298"><ele>289.0</ele><time>2026-05-01T11:13:40Z</time></trkpt><trkpt lat="43.33352314245315" lon="11.319767663893922"><ele>289.0</ele><time>2026-05-01T11:13:41Z</time></trkpt><trkpt lat="43.333474583145744" lon="11.319863435889424"><ele>289.0</ele><time>2026-05-01T11:13:42Z</time></trkpt><trkpt lat="43.33344059907288" lon="11.319971014308623"><ele>289.0</ele><time>2026-05-01T11:13:43Z</time></trkpt><trkpt lat="43.33342586132072" lon="11.320096609625988"><ele>289.0</ele><time>2026-05-01T11:13:44Z</time></trkpt><trkpt lat="43.33342766535423" lon="11.320230681188072"><ele>288.59999999999997</ele><time>2026-05-01T11:13:45Z</time></trkpt><trkpt lat="43.33344181773944" lon="11.320369347670585"><ele>288.2</ele><time>2026-05-01T11:13:46Z</time></trkpt><trkpt lat="43.333416986929805" lon="11.320503634387482"><ele>287.79999999999995</ele><time>2026-05-01T11:13:47Z</time></trkpt><trkpt lat="43.33336826332052" lon="11.32064229516006"><ele>287.4</ele><time>2026-05-01T11:13:48Z</time></trkpt><trkpt lat="43.33331227075142" lon="11.320789939461855"><ele>287.0</ele><time>2026-05-01T11:13:49Z</time></trkpt><trkpt lat="43.33325381176623" lon="11.320940106972447"><ele>286.75</ele><time>2026-05-01T11:13:50Z</time></trkpt><trkpt lat="43.33319614977668" lon="11.321088665386817"><ele>286.5</ele><time>2026-05-01T11:13:51Z</time></trkpt><trkpt lat="43.33313552251912" lon="11.321257915235034"><ele>286.25</ele><time>2026-05-01T11:13:52Z</time></trkpt><trkpt lat="43.33307603643739" lon="11.321426910598941"><ele>286.0</ele><time>2026-05-01T11:13:53Z</time></trkpt><trkpt lat="43.33302379406508" lon="11.321606150712348"><ele>286.0</ele><time>2026-05-01T11:13:54Z</time></trkpt><trkpt lat="43.33297303603348" lon="11.321776550827675"><ele>286.0</ele><time>2026-05-01T11:13:55Z</time></trkpt><trkpt lat="43.33291743405521" lon="11.321946349572363"><ele>286.0</ele><time>2026-05-01T11:13:56Z</time></trkpt><trkpt lat="43.33286537968252" lon="11.32211232971385"><ele>286.0</ele><time>2026-05-01T11:13:57Z</time></trkpt><trkpt lat="43.33281606549778" lon="11.32226680921757"><ele>286.0</ele><time>2026-05-01T11:13:58Z</time></trkpt><trkpt lat="43.332765958431196" lon="11.322427219731413"><ele>286.0</ele><time>2026-05-01T11:13:59Z</time></trkpt><trkpt lat="43.332719549870866" lon="11.322581945416538"><ele>286.0</ele><time>2026-05-01T11:14:00Z</time></trkpt><trkpt lat="43.332673104217534" lon="11.322725113957958"><ele>286.0</ele><time>2026-05-01T11:14:01Z</time></trkpt><trkpt lat="43.33262860658803" lon="11.322875731406121"><ele>286.0</ele><time>2026-05-01T11:14:02Z</time></trkpt><trkpt lat="43.332580038248196" lon="11.32302366985068"><ele>286.0</ele><time>2026-05-01T11:14:03Z</time></trkpt><trkpt lat="43.332533815153475" lon="11.323158387690132"><ele>286.0</ele><time>2026-05-01T11:14:04Z</time></trkpt><trkpt lat="43.33249022673725" lon="11.323294020143091"><ele>286.0</ele><time>2026-05-01T11:14:05Z</time></trkpt><trkpt lat="43.3324489739846" lon="11.323436603969306"><ele>286.0</ele><time>2026-05-01T11:14:06Z</time></trkpt><trkpt lat="43.33240332804651" lon="11.323588546122695"><ele>286.75</ele><time>2026-05-01T11:14:07Z</time></trkpt><trkpt lat="43.332361282538315" lon="11.32373196746773"><ele>287.5</ele><time>2026-05-01T11:14:08Z</time></trkpt><trkpt lat="43.33231757844935" lon="11.323880067833306"><ele>288.25</ele><time>2026-05-01T11:14:09Z</time></trkpt><trkpt lat="43.3322726815622" lon="11.324041330790267"><ele>289.0</ele><time>2026-05-01T11:14:10Z</time></trkpt><trkpt lat="43.33222474824629" lon="11.324202881693495"><ele>287.75</ele><time>2026-05-01T11:14:11Z</time></trkpt><trkpt lat="43.33217575772805" lon="11.32437276757773"><ele>286.5</ele><time>2026-05-01T11:14:12Z</time></trkpt><trkpt lat="43.33211779491669" lon="11.324542171497846"><ele>285.25</ele><time>2026-05-01T11:14:13Z</time></trkpt><trkpt lat="43.33206973620493" lon="11.324711476503603"><ele>284.0</ele><time>2026-05-01T11:14:14Z</time></trkpt><trkpt lat="43.33201881757432" lon="11.32487275068342"><ele>284.0</ele><time>2026-05-01T11:14:15Z</time></trkpt><trkpt lat="43.33197385995666" lon="11.32502423200443"><ele>284.0</ele><time>2026-05-01T11:14:16Z</time></trkpt><trkpt lat="43.331908801127604" lon="11.325155888285988"><ele>284.0</ele><time>2026-05-01T11:14:17Z</time></trkpt><trkpt lat="43.33187396264635" lon="11.325287086276969"><ele>284.0</ele><time>2026-05-01T11:14:18Z</time></trkpt><trkpt lat="43.331835206356175" lon="11.325419335456749"><ele>284.0</ele><time>2026-05-01T11:14:19Z</time></trkpt><trkpt lat="43.331785652892954" lon="11.325543373635313"><ele>283.8</ele><time>2026-05-01T11:14:20Z</time></trkpt><trkpt lat="43.33173594740779" lon="11.325651445641745"><ele>283.59999999999997</ele><time>2026-05-01T11:14:21Z</time></trkpt><trkpt lat="43.331684789214165" lon="11.325746557596108"><ele>283.4</ele><time>2026-05-01T11:14:22Z</time></trkpt><trkpt lat="43.33163647107344" lon="11.325820620540322"><ele>283.2</ele><time>2026-05-01T11:14:23Z</time></trkpt><trkpt lat="43.331550888733055" lon="11.325924487164608"><ele>283.0</ele><time>2026-05-01T11:14:25Z</time></trkpt><trkpt lat="43.33145173344018" lon="11.326030358247586"><ele>283.0</ele><time>2026-05-01T11:14:27Z</time></trkpt><trkpt lat="43.33139507739104" lon="11.326120825470252"><ele>283.0</ele><time>2026-05-01T11:14:28Z</time></trkpt><trkpt lat="43.33134097286431" lon="11.326205688428411"><ele>283.0</ele><time>2026-05-01T11:14:29Z</time></trkpt><trkpt lat="43.331289975683916" lon="11.326288921564764"><ele>283.0</ele><time>2026-05-01T11:14:30Z</time></trkpt><trkpt lat="43.33122557118157" lon="11.326336948693138"><ele>283.0</ele><time>2026-05-01T11:14:31Z</time></trkpt><trkpt lat="43.33114860185068" lon="11.32636559425432"><ele>283.0</ele><time>2026-05-01T11:14:32Z</time></trkpt><trkpt lat="43.331073575180376" lon="11.326378243204418"><ele>282.8333333333333</ele><time>2026-05-01T11:14:33Z</time></trkpt><trkpt lat="43.33099917310569" lon="11.326361423781831"><ele>282.66666666666663</ele><time>2026-05-01T11:14:34Z</time></trkpt><trkpt lat="43.33093086888645" lon="11.326327217505213"><ele>282.5</ele><time>2026-05-01T11:14:35Z</time></trkpt><trkpt lat="43.33085206442105" lon="11.326283180369145"><ele>282.3333333333333</ele><time>2026-05-01T11:14:36Z</time></trkpt><trkpt lat="43.33078230957817" lon="11.326235479761829"><ele>282.1666666666667</ele><time>2026-05-01T11:14:37Z</time></trkpt><trkpt lat="43.33071272123594" lon="11.32619460988819"><ele>282.0</ele><time>2026-05-01T11:14:38Z</time></trkpt><trkpt lat="43.330638266915926" lon="11.326146724322156"><ele>284.1666666666667</ele><time>2026-05-01T11:14:39Z</time></trkpt><trkpt lat="43.33055374986517" lon="11.32610188059197"><ele>286.3333333333333</ele><time>2026-05-01T11:14:40Z</time></trkpt><trkpt lat="43.33048294802643" lon="11.326056949505427"><ele>288.5</ele><time>2026-05-01T11:14:41Z</time></trkpt><trkpt lat="43.33041709232592" lon="11.326014955602416"><ele>290.66666666666663</ele><time>2026-05-01T11:14:42Z</time></trkpt><trkpt lat="43.33032949946534" lon="11.325961020272432"><ele>292.8333333333333</ele><time>2026-05-01T11:14:44Z</time></trkpt><trkpt lat="43.33027045048673" lon="11.325911539632706"><ele>295.0</ele><time>2026-05-01T11:14:46Z</time></trkpt><trkpt lat="43.33023289818545" lon="11.325785555015337"><ele>295.0</ele><time>2026-05-01T11:14:48Z</time></trkpt><trkpt lat="43.33022487355044" lon="11.325603672149766"><ele>295.0</ele><time>2026-05-01T11:14:50Z</time></trkpt><trkpt lat="43.330242544696894" lon="11.325497561878791"><ele>295.0</ele><time>2026-05-01T11:14:51Z</time></trkpt><trkpt lat="43.3302712998612" lon="11.325383313433102"><ele>295.0</ele><time>2026-05-01T11:14:52Z</time></trkpt><trkpt lat="43.330313751926454" lon="11.325256859379222"><ele>295.0</ele><time>2026-05-01T11:14:53Z</time></trkpt><trkpt lat="43.33035700235379" lon="11.325142678399406"><ele>295.8333333333333</ele><time>2026-05-01T11:14:54Z</time></trkpt><trkpt lat="43.330398193453455" lon="11.325031753161815"><ele>296.66666666666663</ele><time>2026-05-01T11:14:55Z</time></trkpt><trkpt lat="43.33043479668604" lon="11.324933537658099"><ele>297.5</ele><time>2026-05-01T11:14:56Z</time></trkpt><trkpt lat="43.33046767261481" lon="11.324842474115883"><ele>298.3333333333333</ele><time>2026-05-01T11:14:57Z</time></trkpt><trkpt lat="43.33050444275158" lon="11.324758946223525"><ele>299.1666666666667</ele><time>2026-05-01T11:14:58Z</time></trkpt><trkpt lat="43.33053360938821" lon="11.324675688976333"><ele>300.0</ele><time>2026-05-01T11:14:59Z</time></trkpt><trkpt lat="43.33058729326723" lon="11.324544392929978"><ele>297.1666666666667</ele><time>2026-05-01T11:15:01Z</time></trkpt><trkpt lat="43.33066383952261" lon="11.324450297070035"><ele>294.3333333333333</ele><time>2026-05-01T11:15:03Z</time></trkpt><trkpt lat="43.330739664419234" lon="11.324441075134693"><ele>291.5</ele><time>2026-05-01T11:15:05Z</time></trkpt><trkpt lat="43.33081038478989" lon="11.324360192946653"><ele>288.66666666666663</ele><time>2026-05-01T11:15:08Z</time></trkpt><trkpt lat="43.33083798941926" lon="11.324252335889046"><ele>285.8333333333333</ele><time>2026-05-01T11:15:10Z</time></trkpt><trkpt lat="43.330872627618334" lon="11.324175077763556"><ele>283.0</ele><time>2026-05-01T11:15:13Z</time></trkpt><trkpt lat="43.33091159952353" lon="11.32410254726715"><ele>283.0</ele><time>2026-05-01T11:15:15Z</time></trkpt><trkpt lat="43.3309660554347" lon="11.324022226723217"><ele>283.0</ele><time>2026-05-01T11:15:17Z</time></trkpt><trkpt lat="43.33101602035602" lon="11.32391645626591"><ele>283.0</ele><time>2026-05-01T11:15:19Z</time></trkpt><trkpt lat="43.331021911195634" lon="11.323813253919875"><ele>283.0</ele><time>2026-05-01T11:15:21Z</time></trkpt><trkpt lat="43.33105694870527" lon="11.323730755275824"><ele>283.0</ele><time>2026-05-01T11:15:24Z</time></trkpt><trkpt lat="43.33112164808895" lon="11.323766382491979"><ele>283.0</ele><time>2026-05-01T11:15:25Z</time></trkpt><trkpt lat="43.331067305412276" lon="11.323866169260492"><ele>283.0</ele><time>2026-05-01T11:17:44Z</time></trkpt><trkpt lat="43.33102172977149" lon="11.323945659171503"><ele>283.0</ele><time>2026-05-01T11:17:48Z</time></trkpt><trkpt lat="43.330960822706174" lon="11.324033303920894"><ele>283.0</ele><time>2026-05-01T11:18:09Z</time></trkpt><trkpt lat="43.33091733997008" lon="11.324127602562369"><ele>283.0</ele><time>2026-05-01T11:18:15Z</time></trkpt><trkpt lat="43.33086813589428" lon="11.324237278454053"><ele>283.0</ele><time>2026-05-01T11:18:17Z</time></trkpt><trkpt lat="43.33083803132634" lon="11.32435890199527"><ele>283.0</ele><time>2026-05-01T11:18:19Z</time></trkpt><trkpt lat="43.330792397312536" lon="11.324429981722536"><ele>283.0</ele><time>2026-05-01T11:18:21Z</time></trkpt><trkpt lat="43.33073790704493" lon="11.324482984256692"><ele>283.0</ele><time>2026-05-01T11:18:28Z</time></trkpt></trkseg><trkseg><trkpt lat="43.330765409552136" lon="11.324588869069219"><ele>283.0</ele><time>2026-05-01T16:11:15Z</time></trkpt><trkpt lat="43.3307111998108" lon="11.324523852988907"><ele>283.0</ele><time>2026-05-01T16:13:35Z</time></trkpt><trkpt lat="43.330769513739696" lon="11.324421072047683"><ele>283.0</ele><time>2026-05-01T16:13:39Z</time></trkpt><trkpt lat="43.330812404648846" lon="11.324352678342036"><ele>283.0</ele><time>2026-05-01T16:13:41Z</time></trkpt><trkpt lat="43.33084041921683" lon="11.324271323294315"><ele>283.0</ele><time>2026-05-01T16:13:44Z</time></trkpt><trkpt lat="43.3308570588443" lon="11.324162108626739"><ele>283.0</ele><time>2026-05-01T16:13:50Z</time></trkpt><trkpt lat="43.33090256556372" lon="11.324044698751086"><ele>283.0</ele><time>2026-05-01T16:13:52Z</time></trkpt><trkpt lat="43.330998930093486" lon="11.323935559938423"><ele>283.0</ele><time>2026-05-01T16:13:54Z</time></trkpt><trkpt lat="43.3310494303315" lon="11.32387861789437"><ele>283.0</ele><time>2026-05-01T16:13:55Z</time></trkpt><trkpt lat="43.331092934247124" lon="11.323816035219618"><ele>283.0</ele><time>2026-05-01T16:13:56Z</time></trkpt><trkpt lat="43.33116358417657" lon="11.323675642491061"><ele>283.0</ele><time>2026-05-01T16:13:58Z</time></trkpt><trkpt lat="43.33121276493811" lon="11.323605144112808"><ele>283.0</ele><time>2026-05-01T16:13:59Z</time></trkpt><trkpt lat="43.33122997568354" lon="11.323517143481357"><ele>283.2</ele><time>2026-05-01T16:14:00Z</time></trkpt><trkpt lat="43.331293231138595" lon="11.323350176759547"><ele>283.4</ele><time>2026-05-01T16:14:02Z</time></trkpt><trkpt lat="43.33132868904357" lon="11.323264190230116"><ele>283.59999999999997</ele><time>2026-05-01T16:14:03Z</time></trkpt><trkpt lat="43.331370049740805" lon="11.323163957844754"><ele>283.8</ele><time>2026-05-01T16:14:04Z</time></trkpt><trkpt lat="43.331402383907495" lon="11.323052677720991"><ele>284.0</ele><time>2026-05-01T16:14:05Z</time></trkpt><trkpt lat="43.33143345495396" lon="11.32295848122923"><ele>283.6666666666667</ele><time>2026-05-01T16:14:06Z</time></trkpt><trkpt lat="43.331465169952" lon="11.322850908650475"><ele>283.33333333333337</ele><time>2026-05-01T16:14:07Z</time></trkpt><trkpt lat="43.33149935266189" lon="11.322741546689585"><ele>283.0</ele><time>2026-05-01T16:14:08Z</time></trkpt><trkpt lat="43.33152911269139" lon="11.322651284551707"><ele>282.6666666666667</ele><time>2026-05-01T16:14:09Z</time></trkpt><trkpt lat="43.33157076023997" lon="11.322560698632826"><ele>282.3333333333333</ele><time>2026-05-01T16:14:10Z</time></trkpt><trkpt lat="43.33161050079097" lon="11.322470738557728"><ele>282.0</ele><time>2026-05-01T16:14:11Z</time></trkpt><trkpt lat="43.3316438239085" lon="11.322371568294113"><ele>282.0</ele><time>2026-05-01T16:14:12Z</time></trkpt><trkpt lat="43.33168668461167" lon="11.32225281098432"><ele>282.0</ele><time>2026-05-01T16:14:14Z</time></trkpt><trkpt lat="43.331715299318134" lon="11.322171329164973"><ele>282.0</ele><time>2026-05-01T16:14:15Z</time></trkpt><trkpt lat="43.331720814731945" lon="11.322084557094529"><ele>282.0</ele><time>2026-05-01T16:14:17Z</time></trkpt><trkpt lat="43.331631684191954" lon="11.32198941088254"><ele>282.0</ele><time>2026-05-01T16:14:19Z</time></trkpt><trkpt lat="43.33156710136285" lon="11.32194696400077"><ele>282.0</ele><time>2026-05-01T16:14:20Z</time></trkpt><trkpt lat="43.33148082059544" lon="11.32189064900962"><ele>282.3333333333333</ele><time>2026-05-01T16:14:22Z</time></trkpt><trkpt lat="43.33151090940205" lon="11.321733725414566"><ele>282.6666666666667</ele><time>2026-05-01T16:14:23Z</time></trkpt><trkpt lat="43.33154150237949" lon="11.321641606787567"><ele>283.0</ele><time>2026-05-01T16:14:24Z</time></trkpt><trkpt lat="43.33157181678176" lon="11.321550783884119"><ele>283.33333333333337</ele><time>2026-05-01T16:14:25Z</time></trkpt><trkpt lat="43.33159859979359" lon="11.321472048716974"><ele>283.6666666666667</ele><time>2026-05-01T16:14:26Z</time></trkpt><trkpt lat="43.33161647441132" lon="11.321383676804858"><ele>284.0</ele><time>2026-05-01T16:14:27Z</time></trkpt><trkpt lat="43.331648147774885" lon="11.321285892177368"><ele>285.0</ele><time>2026-05-01T16:14:28Z</time></trkpt><trkpt lat="43.33168365958773" lon="11.321176254031187"><ele>286.0</ele><time>2026-05-01T16:14:29Z</time></trkpt><trkpt lat="43.331716710603054" lon="11.321085664112383"><ele>287.0</ele><time>2026-05-01T16:14:30Z</time></trkpt><trkpt lat="43.331749653556024" lon="11.32098670352139"><ele>288.0</ele><time>2026-05-01T16:14:31Z</time></trkpt><trkpt lat="43.331780385137776" lon="11.32088189445351"><ele>289.0</ele><time>2026-05-01T16:14:32Z</time></trkpt><trkpt lat="43.331821058345746" lon="11.320771521329018"><ele>290.0</ele><time>2026-05-01T16:14:33Z</time></trkpt><trkpt lat="43.33186609396219" lon="11.320674394708492"><ele>290.0</ele><time>2026-05-01T16:14:34Z</time></trkpt><trkpt lat="43.33190499249473" lon="11.320568764598114"><ele>290.0</ele><time>2026-05-01T16:14:35Z</time></trkpt><trkpt lat="43.33194346190811" lon="11.32045285287309"><ele>290.0</ele><time>2026-05-01T16:14:36Z</time></trkpt><trkpt lat="43.33197414159484" lon="11.320339923040125"><ele>290.0</ele><time>2026-05-01T16:14:37Z</time></trkpt><trkpt lat="43.33202073559822" lon="11.32023942554265"><ele>290.0</ele><time>2026-05-01T16:14:38Z</time></trkpt><trkpt lat="43.33205361177621" lon="11.320119676577956"><ele>290.0</ele><time>2026-05-01T16:14:39Z</time></trkpt><trkpt lat="43.332086605362214" lon="11.320012480017372"><ele>290.0</ele><time>2026-05-01T16:14:40Z</time></trkpt><trkpt lat="43.33211319476505" lon="11.319917146111566"><ele>290.0</ele><time>2026-05-01T16:14:41Z</time></trkpt><trkpt lat="43.332135331427004" lon="11.319832850944069"><ele>290.0</ele><time>2026-05-01T16:14:42Z</time></trkpt><trkpt lat="43.332175186647284" lon="11.31969331911583"><ele>290.0</ele><time>2026-05-01T16:14:44Z</time></trkpt><trkpt lat="43.33221462844043" lon="11.319588418653266"><ele>290.0</ele><time>2026-05-01T16:14:46Z</time></trkpt><trkpt lat="43.33224640791847" lon="11.319451194889075"><ele>290.0</ele><time>2026-05-01T16:14:48Z</time></trkpt><trkpt lat="43.33232545732767" lon="11.31941599981938"><ele>290.0</ele><time>2026-05-01T16:14:49Z</time></trkpt><trkpt lat="43.33238944751308" lon="11.319365298109384"><ele>290.0</ele><time>2026-05-01T16:14:50Z</time></trkpt><trkpt lat="43.33246686937951" lon="11.319349863021795"><ele>290.0</ele><time>2026-05-01T16:14:51Z</time></trkpt><trkpt lat="43.332543190303696" lon="11.319447283566067"><ele>290.0</ele><time>2026-05-01T16:14:52Z</time></trkpt><trkpt lat="43.332614055623964" lon="11.319480637458767"><ele>290.0</ele><time>2026-05-01T16:14:53Z</time></trkpt><trkpt lat="43.33268793579305" lon="11.319532417245462"><ele>290.0</ele><time>2026-05-01T16:14:54Z</time></trkpt><trkpt lat="43.33276533625097" lon="11.319584749469985"><ele>290.0</ele><time>2026-05-01T16:14:55Z</time></trkpt><trkpt lat="43.332837470211835" lon="11.319635217277868"><ele>290.0</ele><time>2026-05-01T16:14:56Z</time></trkpt><trkpt lat="43.33291528385614" lon="11.319681424382944"><ele>290.0</ele><time>2026-05-01T16:14:57Z</time></trkpt><trkpt lat="43.33299632764844" lon="11.319729746119323"><ele>290.0</ele><time>2026-05-01T16:14:58Z</time></trkpt><trkpt lat="43.33307033319704" lon="11.319775021102096"><ele>290.0</ele><time>2026-05-01T16:14:59Z</time></trkpt><trkpt lat="43.33314646111611" lon="11.319819155094486"><ele>290.0</ele><time>2026-05-01T16:15:01Z</time></trkpt><trkpt lat="43.33320503992228" lon="11.31987633184418"><ele>289.4</ele><time>2026-05-01T16:15:03Z</time></trkpt><trkpt lat="43.333269493756845" lon="11.319919081210537"><ele>288.8</ele><time>2026-05-01T16:15:05Z</time></trkpt><trkpt lat="43.33333370016695" lon="11.319987022701614"><ele>288.2</ele><time>2026-05-01T16:15:07Z</time></trkpt><trkpt lat="43.33340561682071" lon="11.320117699203673"><ele>287.6</ele><time>2026-05-01T16:15:09Z</time></trkpt><trkpt lat="43.33349350023346" lon="11.320197432801807"><ele>287.0</ele><time>2026-05-01T16:15:11Z</time></trkpt><trkpt lat="43.333570742101784" lon="11.320226969326841"><ele>287.0</ele><time>2026-05-01T16:15:12Z</time></trkpt><trkpt lat="43.33363360612998" lon="11.320167440496967"><ele>287.0</ele><time>2026-05-01T16:15:13Z</time></trkpt><trkpt lat="43.33370124777749" lon="11.320092576807607"><ele>287.0</ele><time>2026-05-01T16:15:14Z</time></trkpt><trkpt lat="43.33376857837705" lon="11.320024765594447"><ele>287.0</ele><time>2026-05-01T16:15:15Z</time></trkpt><trkpt lat="43.33383520235373" lon="11.319934900281057"><ele>287.0</ele><time>2026-05-01T16:15:16Z</time></trkpt><trkpt lat="43.33391556450718" lon="11.319850997798689"><ele>287.0</ele><time>2026-05-01T16:15:17Z</time></trkpt><trkpt lat="43.3339859737762" lon="11.319777984697462"><ele>287.83333333333337</ele><time>2026-05-01T16:15:18Z</time></trkpt><trkpt lat="43.33404914673719" lon="11.319724227128312"><ele>288.6666666666667</ele><time>2026-05-01T16:15:19Z</time></trkpt><trkpt lat="43.33410947318635" lon="11.319650556511473"><ele>289.5</ele><time>2026-05-01T16:15:20Z</time></trkpt><trkpt lat="43.33416838192907" lon="11.319581245869417"><ele>290.3333333333333</ele><time>2026-05-01T16:15:21Z</time></trkpt><trkpt lat="43.33422079423403" lon="11.319506758001923"><ele>291.16666666666663</ele><time>2026-05-01T16:15:22Z</time></trkpt><trkpt lat="43.33427319638695" lon="11.319332186679686"><ele>292.0</ele><time>2026-05-01T16:15:24Z</time></trkpt><trkpt lat="43.3342670412651" lon="11.319239143305643"><ele>292.0</ele><time>2026-05-01T16:15:25Z</time></trkpt><trkpt lat="43.33426014639508" lon="11.319140111789858"><ele>292.0</ele><time>2026-05-01T16:15:26Z</time></trkpt><trkpt lat="43.334211675413975" lon="11.319046965047063"><ele>292.0</ele><time>2026-05-01T16:15:27Z</time></trkpt><trkpt lat="43.33419812454336" lon="11.31894159876094"><ele>292.0</ele><time>2026-05-01T16:15:28Z</time></trkpt><trkpt lat="43.33420946648013" lon="11.318833190813423"><ele>292.0</ele><time>2026-05-01T16:15:29Z</time></trkpt><trkpt lat="43.334236223244304" lon="11.318723568219891"><ele>292.0</ele><time>2026-05-01T16:15:30Z</time></trkpt><trkpt lat="43.3342824959482" lon="11.318606566922533"><ele>291.6</ele><time>2026-05-01T16:15:31Z</time></trkpt><trkpt lat="43.33433264533169" lon="11.318486287721166"><ele>291.2</ele><time>2026-05-01T16:15:32Z</time></trkpt><trkpt lat="43.33437911402064" lon="11.318369306301523"><ele>290.8</ele><time>2026-05-01T16:15:33Z</time></trkpt><trkpt lat="43.33442406302956" lon="11.318232673697128"><ele>290.4</ele><time>2026-05-01T16:15:34Z</time></trkpt><trkpt lat="43.33447357201438" lon="11.31809771839848"><ele>290.0</ele><time>2026-05-01T16:15:35Z</time></trkpt><trkpt lat="43.334509700555984" lon="11.31795983479845"><ele>289.6</ele><time>2026-05-01T16:15:36Z</time></trkpt><trkpt lat="43.33454543960732" lon="11.31782317567363"><ele>289.2</ele><time>2026-05-01T16:15:37Z</time></trkpt><trkpt lat="43.33457552285372" lon="11.317685322465936"><ele>288.8</ele><time>2026-05-01T16:15:38Z</time></trkpt><trkpt lat="43.33460107605388" lon="11.3175463383019"><ele>288.4</ele><time>2026-05-01T16:15:39Z</time></trkpt><trkpt lat="43.334624144418946" lon="11.317386865500563"><ele>288.0</ele><time>2026-05-01T16:15:40Z</time></trkpt><trkpt lat="43.334648137538075" lon="11.31723946207915"><ele>288.6</ele><time>2026-05-01T16:15:41Z</time></trkpt><trkpt lat="43.334658602093064" lon="11.317094353875465"><ele>289.20000000000005</ele><time>2026-05-01T16:15:42Z</time></trkpt><trkpt lat="43.334671325642866" lon="11.316963404853016"><ele>289.8</ele><time>2026-05-01T16:15:43Z</time></trkpt><trkpt lat="43.33468396102863" lon="11.316832312380114"><ele>290.40000000000003</ele><time>2026-05-01T16:15:44Z</time></trkpt><trkpt lat="43.33470383325011" lon="11.316703956027647"><ele>291.0</ele><time>2026-05-01T16:15:45Z</time></trkpt><trkpt lat="43.334718848098326" lon="11.316579159804625"><ele>291.8</ele><time>2026-05-01T16:15:46Z</time></trkpt><trkpt lat="43.334729083052885" lon="11.316449802963168"><ele>292.6</ele><time>2026-05-01T16:15:47Z</time></trkpt><trkpt lat="43.33475269850203" lon="11.316327850783354"><ele>293.4</ele><time>2026-05-01T16:15:48Z</time></trkpt><trkpt lat="43.33477869667439" lon="11.316196852303431"><ele>294.2</ele><time>2026-05-01T16:15:49Z</time></trkpt><trkpt lat="43.33481696386129" lon="11.316070279025496"><ele>295.0</ele><time>2026-05-01T16:15:50Z</time></trkpt><trkpt lat="43.334854094935494" lon="11.315949083753319"><ele>295.0</ele><time>2026-05-01T16:15:51Z</time></trkpt><trkpt lat="43.33489736031188" lon="11.315822369252887"><ele>295.0</ele><time>2026-05-01T16:15:52Z</time></trkpt><trkpt lat="43.334935790676205" lon="11.315697880720338"><ele>295.0</ele><time>2026-05-01T16:15:53Z</time></trkpt><trkpt lat="43.3349711794647" lon="11.315591112655863"><ele>295.0</ele><time>2026-05-01T16:15:54Z</time></trkpt><trkpt lat="43.33500749392901" lon="11.315471457495018"><ele>295.0</ele><time>2026-05-01T16:15:55Z</time></trkpt><trkpt lat="43.33505187795646" lon="11.315347527078773"><ele>294.8</ele><time>2026-05-01T16:15:56Z</time></trkpt><trkpt lat="43.33510207718155" lon="11.315210664135481"><ele>294.6</ele><time>2026-05-01T16:15:57Z</time></trkpt><trkpt lat="43.335155180270164" lon="11.315070483396857"><ele>294.4</ele><time>2026-05-01T16:15:58Z</time></trkpt><trkpt lat="43.33519921481395" lon="11.314947742393862"><ele>294.2</ele><time>2026-05-01T16:15:59Z</time></trkpt><trkpt lat="43.33523970302881" lon="11.314831921514662"><ele>294.0</ele><time>2026-05-01T16:16:00Z</time></trkpt><trkpt lat="43.33528139895322" lon="11.314734157703882"><ele>294.6666666666667</ele><time>2026-05-01T16:16:01Z</time></trkpt><trkpt lat="43.33531793690916" lon="11.314644023123469"><ele>295.3333333333333</ele><time>2026-05-01T16:16:02Z</time></trkpt><trkpt lat="43.33536278541535" lon="11.314562594243219"><ele>296.0</ele><time>2026-05-01T16:16:03Z</time></trkpt><trkpt lat="43.33541857039337" lon="11.31449461624346"><ele>296.66666666666663</ele><time>2026-05-01T16:16:04Z</time></trkpt><trkpt lat="43.33548265726734" lon="11.314429732581544"><ele>297.3333333333333</ele><time>2026-05-01T16:16:05Z</time></trkpt><trkpt lat="43.33554726728021" lon="11.314359356265479"><ele>298.0</ele><time>2026-05-01T16:16:06Z</time></trkpt><trkpt lat="43.33559009933936" lon="11.314277975075619"><ele>298.16666666666663</ele><time>2026-05-01T16:16:07Z</time></trkpt><trkpt lat="43.335615987318725" lon="11.314184904075399"><ele>298.3333333333333</ele><time>2026-05-01T16:16:08Z</time></trkpt><trkpt lat="43.33562576804871" lon="11.314076999415994"><ele>298.5</ele><time>2026-05-01T16:16:09Z</time></trkpt><trkpt lat="43.33562391026681" lon="11.313950561385246"><ele>298.6666666666667</ele><time>2026-05-01T16:16:10Z</time></trkpt><trkpt lat="43.33562462210766" lon="11.313837053388562"><ele>298.83333333333337</ele><time>2026-05-01T16:16:11Z</time></trkpt><trkpt lat="43.33565311472658" lon="11.313731284072501"><ele>299.0</ele><time>2026-05-01T16:16:12Z</time></trkpt><trkpt lat="43.33569702827734" lon="11.313633879141188"><ele>298.59999999999997</ele><time>2026-05-01T16:16:13Z</time></trkpt><trkpt lat="43.33575924126943" lon="11.313542187741152"><ele>298.2</ele><time>2026-05-01T16:16:14Z</time></trkpt><trkpt lat="43.335822663186875" lon="11.313444153140907"><ele>297.79999999999995</ele><time>2026-05-01T16:16:15Z</time></trkpt><trkpt lat="43.33588722316228" lon="11.313352160884692"><ele>297.4</ele><time>2026-05-01T16:16:16Z</time></trkpt><trkpt lat="43.335954884945686" lon="11.313264380474804"><ele>297.0</ele><time>2026-05-01T16:16:17Z</time></trkpt><trkpt lat="43.336020122524594" lon="11.313179225262715"><ele>297.0</ele><time>2026-05-01T16:16:18Z</time></trkpt><trkpt lat="43.336096503489344" lon="11.31310944164153"><ele>297.0</ele><time>2026-05-01T16:16:19Z</time></trkpt><trkpt lat="43.33617995153641" lon="11.313042948928006"><ele>297.0</ele><time>2026-05-01T16:16:20Z</time></trkpt><trkpt lat="43.336267475396596" lon="11.312968790681413"><ele>297.0</ele><time>2026-05-01T16:16:21Z</time></trkpt><trkpt lat="43.33635340845029" lon="11.31289618030085"><ele>297.0</ele><time>2026-05-01T16:16:22Z</time></trkpt><trkpt lat="43.336441125249195" lon="11.312823740007582"><ele>298.4</ele><time>2026-05-01T16:16:23Z</time></trkpt><trkpt lat="43.336527773820194" lon="11.312754805844405"><ele>299.79999999999995</ele><time>2026-05-01T16:16:24Z</time></trkpt><trkpt lat="43.33662413303784" lon="11.312693939824879"><ele>301.2</ele><time>2026-05-01T16:16:25Z</time></trkpt><trkpt lat="43.33671738138837" lon="11.312615934537932"><ele>302.59999999999997</ele><time>2026-05-01T16:16:26Z</time></trkpt><trkpt lat="43.33680321879377" lon="11.312526962006526"><ele>304.0</ele><time>2026-05-01T16:16:27Z</time></trkpt><trkpt lat="43.33689400789274" lon="11.312448266144935"><ele>304.0</ele><time>2026-05-01T16:16:28Z</time></trkpt><trkpt lat="43.336993010574616" lon="11.312366552058569"><ele>304.0</ele><time>2026-05-01T16:16:29Z</time></trkpt><trkpt lat="43.33708991578311" lon="11.31228957031567"><ele>304.0</ele><time>2026-05-01T16:16:30Z</time></trkpt><trkpt lat="43.33718652997711" lon="11.312211279506174"><ele>304.0</ele><time>2026-05-01T16:16:31Z</time></trkpt><trkpt lat="43.337289672751716" lon="11.312131731864993"><ele>304.25</ele><time>2026-05-01T16:16:32Z</time></trkpt><trkpt lat="43.33738874587817" lon="11.312049229467705"><ele>304.5</ele><time>2026-05-01T16:16:33Z</time></trkpt><trkpt lat="43.33749902274986" lon="11.311985300377293"><ele>304.75</ele><time>2026-05-01T16:16:34Z</time></trkpt><trkpt lat="43.337603950408365" lon="11.311894171150584"><ele>305.0</ele><time>2026-05-01T16:16:35Z</time></trkpt><trkpt lat="43.337709419302456" lon="11.3118028432712"><ele>305.0</ele><time>2026-05-01T16:16:36Z</time></trkpt><trkpt lat="43.33782224028577" lon="11.31171662909412"><ele>305.0</ele><time>2026-05-01T16:16:37Z</time></trkpt><trkpt lat="43.337931472004776" lon="11.311623731465078"><ele>305.0</ele><time>2026-05-01T16:16:38Z</time></trkpt><trkpt lat="43.3380367915917" lon="11.311528323105078"><ele>305.0</ele><time>2026-05-01T16:16:39Z</time></trkpt><trkpt lat="43.338136287095686" lon="11.31144139276697"><ele>306.25</ele><time>2026-05-01T16:16:40Z</time></trkpt><trkpt lat="43.33824114511848" lon="11.31135897173529"><ele>307.5</ele><time>2026-05-01T16:16:41Z</time></trkpt><trkpt lat="43.33834514829318" lon="11.311290775749152"><ele>308.75</ele><time>2026-05-01T16:16:42Z</time></trkpt><trkpt lat="43.3384444158247" lon="11.31120684368735"><ele>310.0</ele><time>2026-05-01T16:16:43Z</time></trkpt><trkpt lat="43.33854258662928" lon="11.311124665958985"><ele>310.0</ele><time>2026-05-01T16:16:44Z</time></trkpt><trkpt lat="43.338638720739546" lon="11.3110376021083"><ele>310.0</ele><time>2026-05-01T16:16:45Z</time></trkpt><trkpt lat="43.338735642779895" lon="11.310954744511177"><ele>310.0</ele><time>2026-05-01T16:16:46Z</time></trkpt><trkpt lat="43.33882702821199" lon="11.310854621350813"><ele>310.0</ele><time>2026-05-01T16:16:47Z</time></trkpt><trkpt lat="43.33892159607751" lon="11.310747317549373"><ele>310.75</ele><time>2026-05-01T16:16:48Z</time></trkpt><trkpt lat="43.33902299581128" lon="11.31062950537836"><ele>311.5</ele><time>2026-05-01T16:16:49Z</time></trkpt><trkpt lat="43.339131269356194" lon="11.31052513887245"><ele>312.25</ele><time>2026-05-01T16:16:50Z</time></trkpt><trkpt lat="43.339224608805196" lon="11.31040207454893"><ele>313.0</ele><time>2026-05-01T16:16:51Z</time></trkpt><trkpt lat="43.33931358719061" lon="11.310285496807731"><ele>313.0</ele><time>2026-05-01T16:16:52Z</time></trkpt><trkpt lat="43.33939924153485" lon="11.310170206172112"><ele>313.0</ele><time>2026-05-01T16:16:53Z</time></trkpt><trkpt lat="43.339483691553355" lon="11.310052954889239"><ele>313.0</ele><time>2026-05-01T16:16:54Z</time></trkpt><trkpt lat="43.33957251489662" lon="11.309924861619118"><ele>313.0</ele><time>2026-05-01T16:16:55Z</time></trkpt><trkpt lat="43.33966129938374" lon="11.309801342262954"><ele>314.5</ele><time>2026-05-01T16:16:56Z</time></trkpt><trkpt lat="43.3397430962338" lon="11.309685080056534"><ele>316.0</ele><time>2026-05-01T16:16:57Z</time></trkpt><trkpt lat="43.339834915150405" lon="11.309571461417843"><ele>317.5</ele><time>2026-05-01T16:16:58Z</time></trkpt><trkpt lat="43.33993220942911" lon="11.309463048923428"><ele>319.0</ele><time>2026-05-01T16:16:59Z</time></trkpt><trkpt lat="43.34002872506611" lon="11.309356489085316"><ele>319.0</ele><time>2026-05-01T16:17:00Z</time></trkpt><trkpt lat="43.34012244415328" lon="11.309261944899864"><ele>319.0</ele><time>2026-05-01T16:17:01Z</time></trkpt><trkpt lat="43.34022840607283" lon="11.309158621563794"><ele>319.0</ele><time>2026-05-01T16:17:02Z</time></trkpt><trkpt lat="43.34033634258902" lon="11.309054893049737"><ele>319.0</ele><time>2026-05-01T16:17:03Z</time></trkpt><trkpt lat="43.340441152020816" lon="11.308956101223574"><ele>319.75</ele><time>2026-05-01T16:17:04Z</time></trkpt><trkpt lat="43.34054793975683" lon="11.30885969967389"><ele>320.5</ele><time>2026-05-01T16:17:05Z</time></trkpt><trkpt lat="43.34064836339662" lon="11.308761897531902"><ele>321.25</ele><time>2026-05-01T16:17:06Z</time></trkpt><trkpt lat="43.3407468230074" lon="11.30866149066587"><ele>322.0</ele><time>2026-05-01T16:17:07Z</time></trkpt><trkpt lat="43.34084365408866" lon="11.308563560388457"><ele>322.0</ele><time>2026-05-01T16:17:08Z</time></trkpt><trkpt lat="43.34094577359752" lon="11.308470660398159"><ele>322.0</ele><time>2026-05-01T16:17:09Z</time></trkpt><trkpt lat="43.341048997383744" lon="11.308382650748008"><ele>322.0</ele><time>2026-05-01T16:17:10Z</time></trkpt><trkpt lat="43.34115005753485" lon="11.308289865704982"><ele>322.0</ele><time>2026-05-01T16:17:11Z</time></trkpt><trkpt lat="43.34125515802678" lon="11.308205450088971"><ele>322.0</ele><time>2026-05-01T16:17:12Z</time></trkpt><trkpt lat="43.34136306768984" lon="11.308126927727622"><ele>322.0</ele><time>2026-05-01T16:17:13Z</time></trkpt><trkpt lat="43.341475225784166" lon="11.30805300971744"><ele>322.0</ele><time>2026-05-01T16:17:14Z</time></trkpt><trkpt lat="43.34159277092514" lon="11.3080060575484"><ele>322.0</ele><time>2026-05-01T16:17:15Z</time></trkpt><trkpt lat="43.34170954029281" lon="11.307952760433295"><ele>324.0</ele><time>2026-05-01T16:17:16Z</time></trkpt><trkpt lat="43.34182368997193" lon="11.307906793553096"><ele>326.0</ele><time>2026-05-01T16:17:17Z</time></trkpt><trkpt lat="43.3419317493614" lon="11.307874838003206"><ele>328.0</ele><time>2026-05-01T16:17:18Z</time></trkpt><trkpt lat="43.3420415928342" lon="11.307839936202152"><ele>330.0</ele><time>2026-05-01T16:17:19Z</time></trkpt><trkpt lat="43.342147082121244" lon="11.307810205116303"><ele>330.25</ele><time>2026-05-01T16:17:20Z</time></trkpt><trkpt lat="43.34225749318649" lon="11.307814500326886"><ele>330.5</ele><time>2026-05-01T16:17:21Z</time></trkpt><trkpt lat="43.342367126683556" lon="11.307793955825357"><ele>330.75</ele><time>2026-05-01T16:17:22Z</time></trkpt><trkpt lat="43.34248224885154" lon="11.307766767385635"><ele>331.0</ele><time>2026-05-01T16:17:23Z</time></trkpt><trkpt lat="43.34260074297253" lon="11.307753041816433"><ele>331.0</ele><time>2026-05-01T16:17:24Z</time></trkpt><trkpt lat="43.34272590162136" lon="11.307739461204607"><ele>331.0</ele><time>2026-05-01T16:17:25Z</time></trkpt><trkpt lat="43.34285248732457" lon="11.307726595246233"><ele>331.0</ele><time>2026-05-01T16:17:26Z</time></trkpt><trkpt lat="43.342975579812" lon="11.307718471633056"><ele>331.0</ele><time>2026-05-01T16:17:27Z</time></trkpt><trkpt lat="43.34310223661539" lon="11.307704148854214"><ele>331.0</ele><time>2026-05-01T16:17:28Z</time></trkpt><trkpt lat="43.34322649736111" lon="11.30768832732335"><ele>331.0</ele><time>2026-05-01T16:17:29Z</time></trkpt><trkpt lat="43.34334420115637" lon="11.307674382923832"><ele>331.0</ele><time>2026-05-01T16:17:30Z</time></trkpt><trkpt lat="43.343462398795985" lon="11.307658983010977"><ele>331.0</ele><time>2026-05-01T16:17:31Z</time></trkpt><trkpt lat="43.34358050211045" lon="11.307636362219542"><ele>331.0</ele><time>2026-05-01T16:17:32Z</time></trkpt><trkpt lat="43.34369140148327" lon="11.307611665433619"><ele>331.0</ele><time>2026-05-01T16:17:33Z</time></trkpt><trkpt lat="43.34379682191099" lon="11.307615338076657"><ele>331.0</ele><time>2026-05-01T16:17:34Z</time></trkpt><trkpt lat="43.343884260412395" lon="11.30758076380414"><ele>331.0</ele><time>2026-05-01T16:17:35Z</time></trkpt><trkpt lat="43.34397212783976" lon="11.307534880104996"><ele>331.0</ele><time>2026-05-01T16:17:36Z</time></trkpt><trkpt lat="43.34404482736582" lon="11.307488458737133"><ele>332.0</ele><time>2026-05-01T16:17:37Z</time></trkpt><trkpt lat="43.3441086675192" lon="11.307444540886442"><ele>333.0</ele><time>2026-05-01T16:17:38Z</time></trkpt><trkpt lat="43.344169781008226" lon="11.307396967297931"><ele>334.0</ele><time>2026-05-01T16:17:39Z</time></trkpt><trkpt lat="43.344256868191096" lon="11.30730797072978"><ele>335.0</ele><time>2026-05-01T16:17:41Z</time></trkpt><trkpt lat="43.34431151271909" lon="11.307229452223433"><ele>336.0</ele><time>2026-05-01T16:17:43Z</time></trkpt><trkpt lat="43.3443619434292" lon="11.307166885053642"><ele>337.0</ele><time>2026-05-01T16:17:45Z</time></trkpt><trkpt lat="43.344430884180134" lon="11.307078314788706"><ele>337.3333333333333</ele><time>2026-05-01T16:17:47Z</time></trkpt><trkpt lat="43.34449256103694" lon="11.307049686550664"><ele>337.66666666666663</ele><time>2026-05-01T16:17:48Z</time></trkpt><trkpt lat="43.344571461108444" lon="11.307037608407148"><ele>338.0</ele><time>2026-05-01T16:17:49Z</time></trkpt><trkpt lat="43.34465111779176" lon="11.3070350525123"><ele>338.3333333333333</ele><time>2026-05-01T16:17:50Z</time></trkpt><trkpt lat="43.34473145065571" lon="11.3070607488912"><ele>338.6666666666667</ele><time>2026-05-01T16:17:51Z</time></trkpt><trkpt lat="43.34481331465268" lon="11.307099870160041"><ele>339.0</ele><time>2026-05-01T16:17:52Z</time></trkpt><trkpt lat="43.34489879332263" lon="11.307161038067447"><ele>339.3333333333333</ele><time>2026-05-01T16:17:53Z</time></trkpt><trkpt lat="43.34497635029003" lon="11.307219567838231"><ele>339.6666666666667</ele><time>2026-05-01T16:17:54Z</time></trkpt><trkpt lat="43.34505231840997" lon="11.307289201508507"><ele>340.0</ele><time>2026-05-01T16:17:55Z</time></trkpt><trkpt lat="43.345123755955235" lon="11.307342386250946"><ele>340.33333333333337</ele><time>2026-05-01T16:17:56Z</time></trkpt><trkpt lat="43.345199729917674" lon="11.307400036753888"><ele>340.6666666666667</ele><time>2026-05-01T16:17:57Z</time></trkpt><trkpt lat="43.34528528818835" lon="11.307454424994454"><ele>341.0</ele><time>2026-05-01T16:17:58Z</time></trkpt><trkpt lat="43.34537004736818" lon="11.307516408531287"><ele>341.0</ele><time>2026-05-01T16:17:59Z</time></trkpt><trkpt lat="43.3454569487161" lon="11.307583617267802"><ele>341.0</ele><time>2026-05-01T16:18:00Z</time></trkpt><trkpt lat="43.34553251472986" lon="11.3076423002549"><ele>341.0</ele><time>2026-05-01T16:18:01Z</time></trkpt><trkpt lat="43.34559806610301" lon="11.307693584537594"><ele>341.0</ele><time>2026-05-01T16:18:02Z</time></trkpt><trkpt lat="43.345658520029616" lon="11.307732792554479"><ele>341.0</ele><time>2026-05-01T16:18:03Z</time></trkpt><trkpt lat="43.34576503944134" lon="11.307803160607861"><ele>341.0</ele><time>2026-05-01T16:18:05Z</time></trkpt><trkpt lat="43.34581374514389" lon="11.307868479240431"><ele>342.0</ele><time>2026-05-01T16:18:06Z</time></trkpt><trkpt lat="43.34591867102587" lon="11.307943841846859"><ele>343.0</ele><time>2026-05-01T16:18:08Z</time></trkpt><trkpt lat="43.346019060909995" lon="11.307818139732307"><ele>344.0</ele><time>2026-05-01T16:18:09Z</time></trkpt><trkpt lat="43.34607866894144" lon="11.307745646890686"><ele>345.0</ele><time>2026-05-01T16:18:10Z</time></trkpt><trkpt lat="43.346134683320436" lon="11.307653173198172"><ele>346.0</ele><time>2026-05-01T16:18:11Z</time></trkpt><trkpt lat="43.34619692362497" lon="11.307555032781538"><ele>346.0</ele><time>2026-05-01T16:18:12Z</time></trkpt><trkpt lat="43.34627627984494" lon="11.307461584024454"><ele>346.0</ele><time>2026-05-01T16:18:13Z</time></trkpt><trkpt lat="43.34636130031413" lon="11.307377336116499"><ele>346.0</ele><time>2026-05-01T16:18:14Z</time></trkpt><trkpt lat="43.34644847396536" lon="11.307299964225354"><ele>346.0</ele><time>2026-05-01T16:18:15Z</time></trkpt><trkpt lat="43.34654226513793" lon="11.307217672838075"><ele>346.0</ele><time>2026-05-01T16:18:16Z</time></trkpt><trkpt lat="43.346641477895226" lon="11.30715020333735"><ele>344.5</ele><time>2026-05-01T16:18:17Z</time></trkpt><trkpt lat="43.346746967071645" lon="11.307077968973056"><ele>343.0</ele><time>2026-05-01T16:18:18Z</time></trkpt><trkpt lat="43.34685563516944" lon="11.30702145087487"><ele>341.5</ele><time>2026-05-01T16:18:19Z</time></trkpt><trkpt lat="43.34696275582451" lon="11.306964578702077"><ele>340.0</ele><time>2026-05-01T16:18:20Z</time></trkpt><trkpt lat="43.34706909269726" lon="11.306918139023708"><ele>340.0</ele><time>2026-05-01T16:18:21Z</time></trkpt><trkpt lat="43.34717121701964" lon="11.306870336379752"><ele>340.0</ele><time>2026-05-01T16:18:22Z</time></trkpt><trkpt lat="43.34727111172498" lon="11.306822429601969"><ele>340.0</ele><time>2026-05-01T16:18:23Z</time></trkpt><trkpt lat="43.34737848630317" lon="11.306782161456763"><ele>340.0</ele><time>2026-05-01T16:18:24Z</time></trkpt><trkpt lat="43.347480935645144" lon="11.306736906870176"><ele>340.0</ele><time>2026-05-01T16:18:25Z</time></trkpt><trkpt lat="43.347585083926504" lon="11.3066789691155"><ele>338.4</ele><time>2026-05-01T16:18:26Z</time></trkpt><trkpt lat="43.3476896591143" lon="11.30663030976341"><ele>336.8</ele><time>2026-05-01T16:18:27Z</time></trkpt><trkpt lat="43.347795344210844" lon="11.306596173560484"><ele>335.20000000000005</ele><time>2026-05-01T16:18:28Z</time></trkpt><trkpt lat="43.347905613973445" lon="11.306574940214057"><ele>333.6</ele><time>2026-05-01T16:18:29Z</time></trkpt><trkpt lat="43.34801578866085" lon="11.306548660523639"><ele>332.0</ele><time>2026-05-01T16:18:30Z</time></trkpt><trkpt lat="43.34811842104379" lon="11.306506337963883"><ele>331.40000000000003</ele><time>2026-05-01T16:18:31Z</time></trkpt><trkpt lat="43.34821686355365" lon="11.306476169009313"><ele>330.8</ele><time>2026-05-01T16:18:32Z</time></trkpt><trkpt lat="43.348298817668905" lon="11.306425507801555"><ele>330.2</ele><time>2026-05-01T16:18:33Z</time></trkpt><trkpt lat="43.348398218957215" lon="11.306389601329778"><ele>329.6</ele><time>2026-05-01T16:18:34Z</time></trkpt><trkpt lat="43.34848800567819" lon="11.306365472556994"><ele>329.0</ele><time>2026-05-01T16:18:35Z</time></trkpt><trkpt lat="43.348571864433104" lon="11.306340352066902"><ele>329.1666666666667</ele><time>2026-05-01T16:18:36Z</time></trkpt><trkpt lat="43.34864419619759" lon="11.306331639090848"><ele>329.33333333333337</ele><time>2026-05-01T16:18:37Z</time></trkpt><trkpt lat="43.34871167239175" lon="11.306336971721368"><ele>329.5</ele><time>2026-05-01T16:18:38Z</time></trkpt><trkpt lat="43.34878242035032" lon="11.306356098954133"><ele>329.6666666666667</ele><time>2026-05-01T16:18:39Z</time></trkpt><trkpt lat="43.348850829633044" lon="11.306406636298869"><ele>329.8333333333333</ele><time>2026-05-01T16:18:40Z</time></trkpt><trkpt lat="43.348905152797236" lon="11.30646694155255"><ele>330.0</ele><time>2026-05-01T16:18:41Z</time></trkpt><trkpt lat="43.349018776494376" lon="11.306515935710099"><ele>330.0</ele><time>2026-05-01T16:18:43Z</time></trkpt><trkpt lat="43.34909234289438" lon="11.306534789095421"><ele>330.0</ele><time>2026-05-01T16:18:44Z</time></trkpt><trkpt lat="43.34916455466453" lon="11.306485162050699"><ele>330.0</ele><time>2026-05-01T16:18:45Z</time></trkpt><trkpt lat="43.34922169175614" lon="11.3064022528004"><ele>330.0</ele><time>2026-05-01T16:18:46Z</time></trkpt><trkpt lat="43.34929436918269" lon="11.306332063955177"><ele>330.0</ele><time>2026-05-01T16:18:47Z</time></trkpt><trkpt lat="43.34937762069278" lon="11.306261793336281"><ele>330.0</ele><time>2026-05-01T16:18:48Z</time></trkpt><trkpt lat="43.34947497123568" lon="11.306199487081495"><ele>327.75</ele><time>2026-05-01T16:18:49Z</time></trkpt><trkpt lat="43.349584333779354" lon="11.306145882969739"><ele>325.5</ele><time>2026-05-01T16:18:50Z</time></trkpt><trkpt lat="43.34969835725907" lon="11.306107460865423"><ele>323.25</ele><time>2026-05-01T16:18:51Z</time></trkpt><trkpt lat="43.349823421192504" lon="11.306086229699504"><ele>321.0</ele><time>2026-05-01T16:18:52Z</time></trkpt><trkpt lat="43.34994888266217" lon="11.306072069483037"><ele>320.75</ele><time>2026-05-01T16:18:53Z</time></trkpt><trkpt lat="43.35007907408723" lon="11.306060598174614"><ele>320.5</ele><time>2026-05-01T16:18:54Z</time></trkpt><trkpt lat="43.35021488591469" lon="11.306042411053301"><ele>320.25</ele><time>2026-05-01T16:18:55Z</time></trkpt><trkpt lat="43.35035173428567" lon="11.306025024316824"><ele>320.0</ele><time>2026-05-01T16:18:56Z</time></trkpt><trkpt lat="43.35049222995855" lon="11.306012284135527"><ele>319.0</ele><time>2026-05-01T16:18:57Z</time></trkpt><trkpt lat="43.35063600299169" lon="11.305989252482648"><ele>318.0</ele><time>2026-05-01T16:18:58Z</time></trkpt><trkpt lat="43.35078164249753" lon="11.305968644231598"><ele>317.0</ele><time>2026-05-01T16:18:59Z</time></trkpt><trkpt lat="43.35092701128395" lon="11.305953671517658"><ele>316.0</ele><time>2026-05-01T16:19:00Z</time></trkpt><trkpt lat="43.35107051938967" lon="11.305935619150782"><ele>316.0</ele><time>2026-05-01T16:19:01Z</time></trkpt><trkpt lat="43.351221186478725" lon="11.305914364394557"><ele>316.0</ele><time>2026-05-01T16:19:02Z</time></trkpt><trkpt lat="43.351375617220626" lon="11.305894017175678"><ele>316.0</ele><time>2026-05-01T16:19:03Z</time></trkpt><trkpt lat="43.35152858386535" lon="11.305880985035332"><ele>315.3333333333333</ele><time>2026-05-01T16:19:04Z</time></trkpt><trkpt lat="43.35167880676655" lon="11.305867986304294"><ele>314.6666666666667</ele><time>2026-05-01T16:19:05Z</time></trkpt><trkpt lat="43.3518336829162" lon="11.305854977145202"><ele>314.0</ele><time>2026-05-01T16:19:06Z</time></trkpt><trkpt lat="43.35198637446356" lon="11.305839622788481"><ele>314.0</ele><time>2026-05-01T16:19:07Z</time></trkpt><trkpt lat="43.352142267064416" lon="11.30582511260064"><ele>314.0</ele><time>2026-05-01T16:19:08Z</time></trkpt><trkpt lat="43.352293564952085" lon="11.305817157234094"><ele>314.0</ele><time>2026-05-01T16:19:09Z</time></trkpt><trkpt lat="43.35244577221662" lon="11.305801252286006"><ele>312.6666666666667</ele><time>2026-05-01T16:19:10Z</time></trkpt><trkpt lat="43.35260916709131" lon="11.305787197531915"><ele>311.3333333333333</ele><time>2026-05-01T16:19:11Z</time></trkpt><trkpt lat="43.35277372884906" lon="11.305772719425384"><ele>310.0</ele><time>2026-05-01T16:19:12Z</time></trkpt><trkpt lat="43.3529360554547" lon="11.305762048899975"><ele>309.3333333333333</ele><time>2026-05-01T16:19:13Z</time></trkpt><trkpt lat="43.35309338345496" lon="11.305749219645744"><ele>308.6666666666667</ele><time>2026-05-01T16:19:14Z</time></trkpt><trkpt lat="43.35325431427792" lon="11.305732653382435"><ele>308.0</ele><time>2026-05-01T16:19:15Z</time></trkpt><trkpt lat="43.35341271872461" lon="11.305719467082788"><ele>308.0</ele><time>2026-05-01T16:19:16Z</time></trkpt><trkpt lat="43.353568818193054" lon="11.305710741362446"><ele>308.0</ele><time>2026-05-01T16:19:17Z</time></trkpt><trkpt lat="43.353725259150465" lon="11.30569632508563"><ele>308.0</ele><time>2026-05-01T16:19:18Z</time></trkpt><trkpt lat="43.353879194163426" lon="11.30568180102002"><ele>309.33333333333337</ele><time>2026-05-01T16:19:19Z</time></trkpt><trkpt lat="43.354035581195696" lon="11.305662901673147"><ele>310.6666666666667</ele><time>2026-05-01T16:19:20Z</time></trkpt><trkpt lat="43.35419025050865" lon="11.305639843350011"><ele>312.0</ele><time>2026-05-01T16:19:21Z</time></trkpt><trkpt lat="43.354343627294256" lon="11.305618162931587"><ele>312.0</ele><time>2026-05-01T16:19:22Z</time></trkpt><trkpt lat="43.35449948587867" lon="11.30559727534618"><ele>312.0</ele><time>2026-05-01T16:19:23Z</time></trkpt><trkpt lat="43.354656470583194" lon="11.305578653168492"><ele>312.0</ele><time>2026-05-01T16:19:24Z</time></trkpt><trkpt lat="43.35481622311471" lon="11.305555321814163"><ele>308.25</ele><time>2026-05-01T16:19:25Z</time></trkpt><trkpt lat="43.35496611517479" lon="11.305537883350073"><ele>304.5</ele><time>2026-05-01T16:19:26Z</time></trkpt><trkpt lat="43.355110255866315" lon="11.30551639068814"><ele>300.75</ele><time>2026-05-01T16:19:27Z</time></trkpt><trkpt lat="43.355253553919276" lon="11.30547582330328"><ele>297.0</ele><time>2026-05-01T16:19:28Z</time></trkpt><trkpt lat="43.35539772813541" lon="11.305416306230052"><ele>297.5</ele><time>2026-05-01T16:19:29Z</time></trkpt><trkpt lat="43.35553714429319" lon="11.305342271778123"><ele>298.0</ele><time>2026-05-01T16:19:30Z</time></trkpt><trkpt lat="43.355668882018236" lon="11.305273695130142"><ele>298.5</ele><time>2026-05-01T16:19:31Z</time></trkpt><trkpt lat="43.355805700382696" lon="11.305197882637843"><ele>299.0</ele><time>2026-05-01T16:19:32Z</time></trkpt><trkpt lat="43.355937364642614" lon="11.305146353288471"><ele>299.0</ele><time>2026-05-01T16:19:33Z</time></trkpt><trkpt lat="43.35607445562255" lon="11.305117635391825"><ele>299.0</ele><time>2026-05-01T16:19:34Z</time></trkpt><trkpt lat="43.35621146508774" lon="11.305105931736719"><ele>299.0</ele><time>2026-05-01T16:19:35Z</time></trkpt><trkpt lat="43.35634337591837" lon="11.305102017687124"><ele>299.0</ele><time>2026-05-01T16:19:36Z</time></trkpt><trkpt lat="43.356474607135326" lon="11.305098905850196"><ele>299.75</ele><time>2026-05-01T16:19:37Z</time></trkpt><trkpt lat="43.35660703445146" lon="11.30509653448213"><ele>300.5</ele><time>2026-05-01T16:19:38Z</time></trkpt><trkpt lat="43.356742945668444" lon="11.305061665052829"><ele>301.25</ele><time>2026-05-01T16:19:39Z</time></trkpt><trkpt lat="43.35688721415177" lon="11.305032472370609"><ele>302.0</ele><time>2026-05-01T16:19:40Z</time></trkpt><trkpt lat="43.357036193718244" lon="11.304999700649303"><ele>302.0</ele><time>2026-05-01T16:19:41Z</time></trkpt><trkpt lat="43.35719029890805" lon="11.304968258404832"><ele>302.0</ele><time>2026-05-01T16:19:42Z</time></trkpt><trkpt lat="43.357346422674645" lon="11.304937585980465"><ele>302.0</ele><time>2026-05-01T16:19:43Z</time></trkpt><trkpt lat="43.357504763744565" lon="11.304904871734344"><ele>300.33333333333337</ele><time>2026-05-01T16:19:44Z</time></trkpt><trkpt lat="43.35766660741193" lon="11.304861385263083"><ele>298.6666666666667</ele><time>2026-05-01T16:19:45Z</time></trkpt><trkpt lat="43.35782965936687" lon="11.304823698779604"><ele>297.0</ele><time>2026-05-01T16:19:46Z</time></trkpt><trkpt lat="43.357992483323905" lon="11.304785889038824"><ele>293.6666666666667</ele><time>2026-05-01T16:19:47Z</time></trkpt><trkpt lat="43.358149601245415" lon="11.30473926470045"><ele>290.33333333333337</ele><time>2026-05-01T16:19:48Z</time></trkpt><trkpt lat="43.35830962322796" lon="11.30469833247808"><ele>287.0</ele><time>2026-05-01T16:19:49Z</time></trkpt><trkpt lat="43.35846073679985" lon="11.304653715382459"><ele>287.0</ele><time>2026-05-01T16:19:50Z</time></trkpt><trkpt lat="43.35861656347504" lon="11.304620475960354"><ele>287.0</ele><time>2026-05-01T16:19:51Z</time></trkpt><trkpt lat="43.35877280855868" lon="11.304581684234083"><ele>287.0</ele><time>2026-05-01T16:19:52Z</time></trkpt><trkpt lat="43.35893132339941" lon="11.30454733335163"><ele>287.33333333333337</ele><time>2026-05-01T16:19:53Z</time></trkpt><trkpt lat="43.359092258459604" lon="11.304507920453531"><ele>287.6666666666667</ele><time>2026-05-01T16:19:54Z</time></trkpt><trkpt lat="43.35925174292887" lon="11.30447050364675"><ele>288.0</ele><time>2026-05-01T16:19:55Z</time></trkpt><trkpt lat="43.359410022077014" lon="11.304433551248858"><ele>288.0</ele><time>2026-05-01T16:19:56Z</time></trkpt><trkpt lat="43.3595676296997" lon="11.304394048025886"><ele>288.0</ele><time>2026-05-01T16:19:57Z</time></trkpt><trkpt lat="43.35972751700204" lon="11.304352571996468"><ele>288.0</ele><time>2026-05-01T16:19:58Z</time></trkpt><trkpt lat="43.35988493280993" lon="11.304313412026842"><ele>288.0</ele><time>2026-05-01T16:19:59Z</time></trkpt><trkpt lat="43.36004288056218" lon="11.304277180877282"><ele>288.0</ele><time>2026-05-01T16:20:00Z</time></trkpt><trkpt lat="43.36019967989815" lon="11.304245304577027"><ele>288.0</ele><time>2026-05-01T16:20:01Z</time></trkpt><trkpt lat="43.36036029870094" lon="11.304201798907451"><ele>288.0</ele><time>2026-05-01T16:20:02Z</time></trkpt><trkpt lat="43.36052128860803" lon="11.304165530612714"><ele>288.0</ele><time>2026-05-01T16:20:03Z</time></trkpt><trkpt lat="43.36068038542735" lon="11.304128914247562"><ele>288.0</ele><time>2026-05-01T16:20:04Z</time></trkpt><trkpt lat="43.36083993636804" lon="11.304090743203778"><ele>289.3333333333333</ele><time>2026-05-01T16:20:05Z</time></trkpt><trkpt lat="43.36099621692541" lon="11.304054923259935"><ele>290.66666666666663</ele><time>2026-05-01T16:20:06Z</time></trkpt><trkpt lat="43.361152484291594" lon="11.304014128398844"><ele>292.0</ele><time>2026-05-01T16:20:07Z</time></trkpt><trkpt lat="43.36130914957302" lon="11.303972348765377"><ele>292.0</ele><time>2026-05-01T16:20:08Z</time></trkpt><trkpt lat="43.361466351642704" lon="11.303931873363084"><ele>292.0</ele><time>2026-05-01T16:20:09Z</time></trkpt><trkpt lat="43.36162335101705" lon="11.303889540704954"><ele>292.0</ele><time>2026-05-01T16:20:10Z</time></trkpt><trkpt lat="43.36178075717553" lon="11.303847284808104"><ele>289.3333333333333</ele><time>2026-05-01T16:20:11Z</time></trkpt><trkpt lat="43.36194016109663" lon="11.303811710517925"><ele>286.6666666666667</ele><time>2026-05-01T16:20:12Z</time></trkpt><trkpt lat="43.36209992951512" lon="11.303779669666941"><ele>284.0</ele><time>2026-05-01T16:20:13Z</time></trkpt><trkpt lat="43.36225528798431" lon="11.303738283777593"><ele>284.0</ele><time>2026-05-01T16:20:14Z</time></trkpt><trkpt lat="43.362413246626076" lon="11.303701973644875"><ele>284.0</ele><time>2026-05-01T16:20:15Z</time></trkpt><trkpt lat="43.362568652333174" lon="11.303654116236793"><ele>284.0</ele><time>2026-05-01T16:20:16Z</time></trkpt><trkpt lat="43.36272736562571" lon="11.303614234836733"><ele>284.0</ele><time>2026-05-01T16:20:17Z</time></trkpt><trkpt lat="43.36289068595261" lon="11.30356254742201"><ele>284.0</ele><time>2026-05-01T16:20:18Z</time></trkpt><trkpt lat="43.36305013553426" lon="11.30350348583416"><ele>284.0</ele><time>2026-05-01T16:20:19Z</time></trkpt><trkpt lat="43.36320389521334" lon="11.3034386306574"><ele>287.0</ele><time>2026-05-01T16:20:20Z</time></trkpt><trkpt lat="43.36335626242828" lon="11.30336793371899"><ele>290.0</ele><time>2026-05-01T16:20:21Z</time></trkpt><trkpt lat="43.3635094430614" lon="11.303290408033078"><ele>293.0</ele><time>2026-05-01T16:20:22Z</time></trkpt><trkpt lat="43.363660095397165" lon="11.303213678419443"><ele>293.0</ele><time>2026-05-01T16:20:23Z</time></trkpt><trkpt lat="43.36381080913952" lon="11.303123627489136"><ele>293.0</ele><time>2026-05-01T16:20:24Z</time></trkpt><trkpt lat="43.363960919674135" lon="11.30303393625197"><ele>293.0</ele><time>2026-05-01T16:20:25Z</time></trkpt><trkpt lat="43.364108626402846" lon="11.302938079192536"><ele>292.0</ele><time>2026-05-01T16:20:26Z</time></trkpt><trkpt lat="43.36425542656617" lon="11.302834271111394"><ele>291.0</ele><time>2026-05-01T16:20:27Z</time></trkpt><trkpt lat="43.36440121792069" lon="11.302725124320931"><ele>290.0</ele><time>2026-05-01T16:20:28Z</time></trkpt><trkpt lat="43.36454301375084" lon="11.302614885722567"><ele>290.0</ele><time>2026-05-01T16:20:29Z</time></trkpt><trkpt lat="43.36468251966986" lon="11.302498643501409"><ele>290.0</ele><time>2026-05-01T16:20:30Z</time></trkpt><trkpt lat="43.364820930276835" lon="11.302378820274157"><ele>290.0</ele><time>2026-05-01T16:20:31Z</time></trkpt><trkpt lat="43.36495912746147" lon="11.302256161164987"><ele>287.6666666666667</ele><time>2026-05-01T16:20:32Z</time></trkpt><trkpt lat="43.365096735094376" lon="11.302124516521038"><ele>285.3333333333333</ele><time>2026-05-01T16:20:33Z</time></trkpt><trkpt lat="43.365231140250344" lon="11.301984304588267"><ele>283.0</ele><time>2026-05-01T16:20:34Z</time></trkpt><trkpt lat="43.365361869704245" lon="11.301834581297493"><ele>283.0</ele><time>2026-05-01T16:20:35Z</time></trkpt><trkpt lat="43.36548837944346" lon="11.301684256660982"><ele>283.0</ele><time>2026-05-01T16:20:36Z</time></trkpt><trkpt lat="43.36560919495251" lon="11.301524079852936"><ele>283.0</ele><time>2026-05-01T16:20:37Z</time></trkpt><trkpt lat="43.36572425572821" lon="11.30135493082765"><ele>284.66666666666663</ele><time>2026-05-01T16:20:38Z</time></trkpt><trkpt lat="43.365834765092885" lon="11.301180695916404"><ele>286.3333333333333</ele><time>2026-05-01T16:20:39Z</time></trkpt><trkpt lat="43.365944623507296" lon="11.30100339383642"><ele>288.0</ele><time>2026-05-01T16:20:40Z</time></trkpt><trkpt lat="43.36605277502834" lon="11.300825202523447"><ele>288.0</ele><time>2026-05-01T16:20:41Z</time></trkpt><trkpt lat="43.36615838608307" lon="11.300642174142816"><ele>288.0</ele><time>2026-05-01T16:20:42Z</time></trkpt><trkpt lat="43.36626055096605" lon="11.300455649050678"><ele>288.0</ele><time>2026-05-01T16:20:43Z</time></trkpt><trkpt lat="43.3663572583125" lon="11.300268797988785"><ele>287.3333333333333</ele><time>2026-05-01T16:20:44Z</time></trkpt><trkpt lat="43.366452720929175" lon="11.300078554510062"><ele>286.66666666666663</ele><time>2026-05-01T16:20:45Z</time></trkpt><trkpt lat="43.36654642063602" lon="11.299887896580199"><ele>286.0</ele><time>2026-05-01T16:20:46Z</time></trkpt><trkpt lat="43.36663981979523" lon="11.299695199787044"><ele>286.0</ele><time>2026-05-01T16:20:47Z</time></trkpt><trkpt lat="43.36673359661481" lon="11.299498293536743"><ele>286.0</ele><time>2026-05-01T16:20:48Z</time></trkpt><trkpt lat="43.36682548149075" lon="11.29929793158648"><ele>286.0</ele><time>2026-05-01T16:20:49Z</time></trkpt><trkpt lat="43.36691341217823" lon="11.299092286717478"><ele>283.0</ele><time>2026-05-01T16:20:50Z</time></trkpt><trkpt lat="43.3669999689554" lon="11.298884127949238"><ele>280.0</ele><time>2026-05-01T16:20:51Z</time></trkpt><trkpt lat="43.36708218987837" lon="11.298672974902285"><ele>277.0</ele><time>2026-05-01T16:20:52Z</time></trkpt><trkpt lat="43.36716303093124" lon="11.298461990138692"><ele>277.66666666666663</ele><time>2026-05-01T16:20:53Z</time></trkpt><trkpt lat="43.36723529423143" lon="11.298249435412119"><ele>278.3333333333333</ele><time>2026-05-01T16:20:54Z</time></trkpt><trkpt lat="43.36730193689815" lon="11.298027487357853"><ele>279.0</ele><time>2026-05-01T16:20:55Z</time></trkpt><trkpt lat="43.36736345020953" lon="11.297796747320046"><ele>277.0</ele><time>2026-05-01T16:20:56Z</time></trkpt><trkpt lat="43.367415992487935" lon="11.297563708185878"><ele>275.0</ele><time>2026-05-01T16:20:57Z</time></trkpt><trkpt lat="43.36746325908403" lon="11.297324954896395"><ele>273.0</ele><time>2026-05-01T16:20:58Z</time></trkpt><trkpt lat="43.36750452331507" lon="11.297094712963826"><ele>271.6666666666667</ele><time>2026-05-01T16:20:59Z</time></trkpt><trkpt lat="43.36754368089657" lon="11.296865687228372"><ele>270.33333333333337</ele><time>2026-05-01T16:21:00Z</time></trkpt><trkpt lat="43.36758189157121" lon="11.296638039038244"><ele>269.0</ele><time>2026-05-01T16:21:01Z</time></trkpt><trkpt lat="43.36761979127234" lon="11.29640613073929"><ele>268.33333333333337</ele><time>2026-05-01T16:21:02Z</time></trkpt><trkpt lat="43.36765625642537" lon="11.296174570156275"><ele>267.6666666666667</ele><time>2026-05-01T16:21:03Z</time></trkpt><trkpt lat="43.36769276246182" lon="11.295945380372636"><ele>267.0</ele><time>2026-05-01T16:21:04Z</time></trkpt><trkpt lat="43.36772939776198" lon="11.295716904849307"><ele>267.6666666666667</ele><time>2026-05-01T16:21:05Z</time></trkpt><trkpt lat="43.36776708878966" lon="11.295498394362317"><ele>268.33333333333337</ele><time>2026-05-01T16:21:06Z</time></trkpt><trkpt lat="43.36780526430559" lon="11.295282156238441"><ele>269.0</ele><time>2026-05-01T16:21:07Z</time></trkpt><trkpt lat="43.36784208827971" lon="11.295068203140593"><ele>269.0</ele><time>2026-05-01T16:21:08Z</time></trkpt><trkpt lat="43.3678785269998" lon="11.29485653610031"><ele>269.0</ele><time>2026-05-01T16:21:09Z</time></trkpt><trkpt lat="43.36791149403877" lon="11.294641056679096"><ele>269.0</ele><time>2026-05-01T16:21:10Z</time></trkpt><trkpt lat="43.36794950766773" lon="11.294433870689367"><ele>270.6666666666667</ele><time>2026-05-01T16:21:11Z</time></trkpt><trkpt lat="43.3679812921505" lon="11.294221752428488"><ele>272.3333333333333</ele><time>2026-05-01T16:21:12Z</time></trkpt><trkpt lat="43.3680147520808" lon="11.294002113416418"><ele>274.0</ele><time>2026-05-01T16:21:13Z</time></trkpt><trkpt lat="43.3680488099945" lon="11.293773775178154"><ele>274.0</ele><time>2026-05-01T16:21:14Z</time></trkpt><trkpt lat="43.36809281190464" lon="11.293545335649195"><ele>274.0</ele><time>2026-05-01T16:21:15Z</time></trkpt><trkpt lat="43.36813043235047" lon="11.293306894664603"><ele>274.0</ele><time>2026-05-01T16:21:16Z</time></trkpt><trkpt lat="43.36817127340866" lon="11.293067821216656"><ele>274.0</ele><time>2026-05-01T16:21:17Z</time></trkpt><trkpt lat="43.36821248732603" lon="11.292832756285142"><ele>274.0</ele><time>2026-05-01T16:21:18Z</time></trkpt><trkpt lat="43.36825777605388" lon="11.292596347559254"><ele>274.0</ele><time>2026-05-01T16:21:19Z</time></trkpt><trkpt lat="43.36830775942366" lon="11.292363288545374"><ele>270.66666666666663</ele><time>2026-05-01T16:21:20Z</time></trkpt><trkpt lat="43.36836249032054" lon="11.292136787896407"><ele>267.3333333333333</ele><time>2026-05-01T16:21:21Z</time></trkpt><trkpt lat="43.36842422315869" lon="11.291906973492106"><ele>264.0</ele><time>2026-05-01T16:21:22Z</time></trkpt><trkpt lat="43.36849341929781" lon="11.291678662087012"><ele>264.0</ele><time>2026-05-01T16:21:23Z</time></trkpt><trkpt lat="43.36856646377909" lon="11.291446422987091"><ele>264.0</ele><time>2026-05-01T16:21:24Z</time></trkpt><trkpt lat="43.36864456223897" lon="11.29121680349685"><ele>264.0</ele><time>2026-05-01T16:21:25Z</time></trkpt><trkpt lat="43.368725145459074" lon="11.291005753957958"><ele>264.0</ele><time>2026-05-01T16:21:26Z</time></trkpt><trkpt lat="43.368810197266974" lon="11.290796987217604"><ele>264.0</ele><time>2026-05-01T16:21:27Z</time></trkpt><trkpt lat="43.3688993780841" lon="11.290589495582953"><ele>264.0</ele><time>2026-05-01T16:21:28Z</time></trkpt><trkpt lat="43.36899289161201" lon="11.29038579231254"><ele>264.0</ele><time>2026-05-01T16:21:29Z</time></trkpt><trkpt lat="43.369092069244495" lon="11.29019056989015"><ele>264.0</ele><time>2026-05-01T16:21:30Z</time></trkpt><trkpt lat="43.369197095163635" lon="11.28999094230634"><ele>264.0</ele><time>2026-05-01T16:21:31Z</time></trkpt><trkpt lat="43.36930862185778" lon="11.289801758228998"><ele>262.6666666666667</ele><time>2026-05-01T16:21:32Z</time></trkpt><trkpt lat="43.36942527820549" lon="11.289615715181155"><ele>261.33333333333337</ele><time>2026-05-01T16:21:33Z</time></trkpt><trkpt lat="43.36954441131337" lon="11.289427655550176"><ele>260.0</ele><time>2026-05-01T16:21:34Z</time></trkpt><trkpt lat="43.36966894379255" lon="11.289248797399491"><ele>259.6666666666667</ele><time>2026-05-01T16:21:35Z</time></trkpt><trkpt lat="43.36979931341196" lon="11.289078645401414"><ele>259.3333333333333</ele><time>2026-05-01T16:21:36Z</time></trkpt><trkpt lat="43.369933884157206" lon="11.288910066174799"><ele>259.0</ele><time>2026-05-01T16:21:37Z</time></trkpt><trkpt lat="43.370070083779964" lon="11.288739505047895"><ele>259.0</ele><time>2026-05-01T16:21:38Z</time></trkpt><trkpt lat="43.37021233911018" lon="11.288577866660361"><ele>259.0</ele><time>2026-05-01T16:21:39Z</time></trkpt><trkpt lat="43.37035914063584" lon="11.28842308549573"><ele>259.0</ele><time>2026-05-01T16:21:40Z</time></trkpt><trkpt lat="43.370511788220774" lon="11.288277427141827"><ele>258.0</ele><time>2026-05-01T16:21:41Z</time></trkpt><trkpt lat="43.370666870928154" lon="11.288133897924881"><ele>257.0</ele><time>2026-05-01T16:21:42Z</time></trkpt><trkpt lat="43.37082526001618" lon="11.288000048979448"><ele>256.0</ele><time>2026-05-01T16:21:43Z</time></trkpt><trkpt lat="43.370985682705005" lon="11.287867781737942"><ele>256.0</ele><time>2026-05-01T16:21:44Z</time></trkpt><trkpt lat="43.37115164448476" lon="11.287747177153229"><ele>256.0</ele><time>2026-05-01T16:21:45Z</time></trkpt><trkpt lat="43.37132123215647" lon="11.287629943963555"><ele>256.0</ele><time>2026-05-01T16:21:46Z</time></trkpt><trkpt lat="43.37149305075708" lon="11.287526652294538"><ele>253.33333333333331</ele><time>2026-05-01T16:21:47Z</time></trkpt><trkpt lat="43.37166602258918" lon="11.28743080170534"><ele>250.66666666666669</ele><time>2026-05-01T16:21:48Z</time></trkpt><trkpt lat="43.37183873382836" lon="11.287339952258165"><ele>248.0</ele><time>2026-05-01T16:21:49Z</time></trkpt><trkpt lat="43.372014680425316" lon="11.287259205672859"><ele>249.0</ele><time>2026-05-01T16:21:50Z</time></trkpt><trkpt lat="43.372194547370064" lon="11.287181971675638"><ele>250.0</ele><time>2026-05-01T16:21:51Z</time></trkpt><trkpt lat="43.37237529925858" lon="11.287119095862687"><ele>251.0</ele><time>2026-05-01T16:21:52Z</time></trkpt><trkpt lat="43.372559075689885" lon="11.287060196120848"><ele>251.0</ele><time>2026-05-01T16:21:53Z</time></trkpt><trkpt lat="43.372740065668445" lon="11.286994649022256"><ele>251.0</ele><time>2026-05-01T16:21:54Z</time></trkpt><trkpt lat="43.37291767581106" lon="11.286940093016936"><ele>251.0</ele><time>2026-05-01T16:21:55Z</time></trkpt><trkpt lat="43.37309567113411" lon="11.28688360321654"><ele>252.0</ele><time>2026-05-01T16:21:56Z</time></trkpt><trkpt lat="43.373272878153415" lon="11.286827766372243"><ele>253.0</ele><time>2026-05-01T16:21:57Z</time></trkpt><trkpt lat="43.37345153057092" lon="11.286782584379717"><ele>254.0</ele><time>2026-05-01T16:21:58Z</time></trkpt><trkpt lat="43.37363180696906" lon="11.286726922376465"><ele>254.0</ele><time>2026-05-01T16:21:59Z</time></trkpt><trkpt lat="43.37381188299752" lon="11.286669245616874"><ele>254.0</ele><time>2026-05-01T16:22:00Z</time></trkpt><trkpt lat="43.373989716589904" lon="11.286609211169159"><ele>254.0</ele><time>2026-05-01T16:22:01Z</time></trkpt><trkpt lat="43.3741670114449" lon="11.286548363563519"><ele>254.66666666666669</ele><time>2026-05-01T16:22:02Z</time></trkpt><trkpt lat="43.37435067438758" lon="11.286492925859571"><ele>255.33333333333331</ele><time>2026-05-01T16:22:03Z</time></trkpt><trkpt lat="43.3745318803991" lon="11.28644588028234"><ele>256.0</ele><time>2026-05-01T16:22:04Z</time></trkpt><trkpt lat="43.37470880815574" lon="11.286388694209922"><ele>254.0</ele><time>2026-05-01T16:22:05Z</time></trkpt><trkpt lat="43.37488488057565" lon="11.28634049463338"><ele>252.0</ele><time>2026-05-01T16:22:06Z</time></trkpt><trkpt lat="43.375062531344405" lon="11.286289957426467"><ele>250.0</ele><time>2026-05-01T16:22:07Z</time></trkpt><trkpt lat="43.37523840898422" lon="11.286234382453765"><ele>250.0</ele><time>2026-05-01T16:22:08Z</time></trkpt><trkpt lat="43.37541529089983" lon="11.286179686610028"><ele>250.0</ele><time>2026-05-01T16:22:09Z</time></trkpt><trkpt lat="43.375591270048076" lon="11.2861281672698"><ele>250.0</ele><time>2026-05-01T16:22:10Z</time></trkpt><trkpt lat="43.37576828411221" lon="11.286074051231491"><ele>250.33333333333331</ele><time>2026-05-01T16:22:11Z</time></trkpt><trkpt lat="43.37594588740015" lon="11.286019465398002"><ele>250.66666666666669</ele><time>2026-05-01T16:22:12Z</time></trkpt><trkpt lat="43.3761218378872" lon="11.285957119589305"><ele>251.0</ele><time>2026-05-01T16:22:13Z</time></trkpt><trkpt lat="43.37629826889099" lon="11.285896626792567"><ele>251.66666666666669</ele><time>2026-05-01T16:22:14Z</time></trkpt><trkpt lat="43.376475148986955" lon="11.28583870539405"><ele>252.33333333333331</ele><time>2026-05-01T16:22:15Z</time></trkpt><trkpt lat="43.37664890446147" lon="11.285784696607129"><ele>253.0</ele><time>2026-05-01T16:22:16Z</time></trkpt><trkpt lat="43.37682369787337" lon="11.285730608628901"><ele>253.0</ele><time>2026-05-01T16:22:17Z</time></trkpt><trkpt lat="43.37699514074729" lon="11.285678326903723"><ele>253.0</ele><time>2026-05-01T16:22:18Z</time></trkpt><trkpt lat="43.377163562086594" lon="11.2856284839116"><ele>253.0</ele><time>2026-05-01T16:22:19Z</time></trkpt><trkpt lat="43.37733153917935" lon="11.285570051049962"><ele>247.33333333333331</ele><time>2026-05-01T16:22:20Z</time></trkpt><trkpt lat="43.3775003349916" lon="11.285503385235447"><ele>241.66666666666669</ele><time>2026-05-01T16:22:21Z</time></trkpt><trkpt lat="43.37766637636911" lon="11.285421614407303"><ele>236.0</ele><time>2026-05-01T16:22:22Z</time></trkpt><trkpt lat="43.37783318270307" lon="11.285341516337315"><ele>236.0</ele><time>2026-05-01T16:22:23Z</time></trkpt><trkpt lat="43.377997871350324" lon="11.285248719243633"><ele>236.0</ele><time>2026-05-01T16:22:24Z</time></trkpt><trkpt lat="43.37815908441819" lon="11.285142891574386"><ele>236.0</ele><time>2026-05-01T16:22:25Z</time></trkpt><trkpt lat="43.37832062706645" lon="11.285020993570752"><ele>236.33333333333334</ele><time>2026-05-01T16:22:26Z</time></trkpt><trkpt lat="43.37847941567323" lon="11.284895112616933"><ele>236.66666666666669</ele><time>2026-05-01T16:22:27Z</time></trkpt><trkpt lat="43.37863793175315" lon="11.284760957880215"><ele>237.0</ele><time>2026-05-01T16:22:28Z</time></trkpt><trkpt lat="43.37879341965653" lon="11.284618200378553"><ele>240.0</ele><time>2026-05-01T16:22:29Z</time></trkpt><trkpt lat="43.37894459492127" lon="11.284462022660275"><ele>243.0</ele><time>2026-05-01T16:22:30Z</time></trkpt><trkpt lat="43.3790909620327" lon="11.284291591085296"><ele>246.0</ele><time>2026-05-01T16:22:31Z</time></trkpt><trkpt lat="43.37923363881516" lon="11.284117091179986"><ele>246.0</ele><time>2026-05-01T16:22:32Z</time></trkpt><trkpt lat="43.379372926409346" lon="11.283933090237797"><ele>246.0</ele><time>2026-05-01T16:22:33Z</time></trkpt><trkpt lat="43.37950635562159" lon="11.283742585226285"><ele>246.0</ele><time>2026-05-01T16:22:34Z</time></trkpt><trkpt lat="43.379628572220604" lon="11.28354516699045"><ele>246.66666666666669</ele><time>2026-05-01T16:22:35Z</time></trkpt><trkpt lat="43.37974388092218" lon="11.283340298964877"><ele>247.33333333333334</ele><time>2026-05-01T16:22:36Z</time></trkpt><trkpt lat="43.379852579032715" lon="11.283135300981378"><ele>248.0</ele><time>2026-05-01T16:22:37Z</time></trkpt><trkpt lat="43.37995592433435" lon="11.282933973192904"><ele>246.0</ele><time>2026-05-01T16:22:38Z</time></trkpt><trkpt lat="43.38005575381931" lon="11.282725857331972"><ele>244.0</ele><time>2026-05-01T16:22:39Z</time></trkpt><trkpt lat="43.38015471393858" lon="11.282515128330788"><ele>242.0</ele><time>2026-05-01T16:22:40Z</time></trkpt><trkpt lat="43.38025527376665" lon="11.282306744720337"><ele>243.0</ele><time>2026-05-01T16:22:41Z</time></trkpt><trkpt lat="43.38035807547111" lon="11.282100563740418"><ele>244.0</ele><time>2026-05-01T16:22:42Z</time></trkpt><trkpt lat="43.38045970251515" lon="11.281895005089847"><ele>245.0</ele><time>2026-05-01T16:22:43Z</time></trkpt><trkpt lat="43.380559939068604" lon="11.28168560996246"><ele>245.0</ele><time>2026-05-01T16:22:44Z</time></trkpt><trkpt lat="43.38066113136881" lon="11.281477303085472"><ele>245.0</ele><time>2026-05-01T16:22:45Z</time></trkpt><trkpt lat="43.380761948801066" lon="11.281268424780045"><ele>245.0</ele><time>2026-05-01T16:22:46Z</time></trkpt><trkpt lat="43.38086240748531" lon="11.281062227672713"><ele>242.33333333333334</ele><time>2026-05-01T16:22:47Z</time></trkpt><trkpt lat="43.380963362625636" lon="11.280855077469479"><ele>239.66666666666669</ele><time>2026-05-01T16:22:48Z</time></trkpt><trkpt lat="43.38106460681587" lon="11.280647414061772"><ele>237.0</ele><time>2026-05-01T16:22:49Z</time></trkpt><trkpt lat="43.38116529906618" lon="11.280440512278505"><ele>235.66666666666669</ele><time>2026-05-01T16:22:50Z</time></trkpt><trkpt lat="43.38126663819694" lon="11.280229149880416"><ele>234.33333333333334</ele><time>2026-05-01T16:22:51Z</time></trkpt><trkpt lat="43.38136761528637" lon="11.28002040800384"><ele>233.0</ele><time>2026-05-01T16:22:52Z</time></trkpt><trkpt lat="43.38146804618469" lon="11.279812292477427"><ele>236.66666666666669</ele><time>2026-05-01T16:22:53Z</time></trkpt><trkpt lat="43.381566428701106" lon="11.279607751915357"><ele>240.33333333333331</ele><time>2026-05-01T16:22:54Z</time></trkpt><trkpt lat="43.38166697235126" lon="11.279403688988866"><ele>244.0</ele><time>2026-05-01T16:22:55Z</time></trkpt><trkpt lat="43.38176607807413" lon="11.279197750105018"><ele>244.0</ele><time>2026-05-01T16:22:56Z</time></trkpt><trkpt lat="43.381864312283724" lon="11.278980369022793"><ele>244.0</ele><time>2026-05-01T16:22:57Z</time></trkpt><trkpt lat="43.38196414886869" lon="11.278775786862523"><ele>244.0</ele><time>2026-05-01T16:22:58Z</time></trkpt><trkpt lat="43.38206473203263" lon="11.27857274948597"><ele>245.33333333333331</ele><time>2026-05-01T16:22:59Z</time></trkpt><trkpt lat="43.3821646712273" lon="11.278366647279562"><ele>246.66666666666669</ele><time>2026-05-01T16:23:00Z</time></trkpt><trkpt lat="43.382263793736314" lon="11.278161113097715"><ele>248.0</ele><time>2026-05-01T16:23:01Z</time></trkpt><trkpt lat="43.382362637469754" lon="11.277954698058005"><ele>244.33333333333334</ele><time>2026-05-01T16:23:02Z</time></trkpt><trkpt lat="43.38246293800265" lon="11.27774482331412"><ele>240.66666666666669</ele><time>2026-05-01T16:23:03Z</time></trkpt><trkpt lat="43.382565164012874" lon="11.277538134451119"><ele>237.0</ele><time>2026-05-01T16:23:04Z</time></trkpt><trkpt lat="43.382667353238915" lon="11.277327436668289"><ele>235.33333333333331</ele><time>2026-05-01T16:23:05Z</time></trkpt><trkpt lat="43.38277033025599" lon="11.27711788762959"><ele>233.66666666666666</ele><time>2026-05-01T16:23:06Z</time></trkpt><trkpt lat="43.38287176754395" lon="11.276911028716928"><ele>232.0</ele><time>2026-05-01T16:23:07Z</time></trkpt><trkpt lat="43.38296938012687" lon="11.276713960786163"><ele>232.33333333333331</ele><time>2026-05-01T16:23:08Z</time></trkpt><trkpt lat="43.38306963147986" lon="11.276513315306634"><ele>232.66666666666669</ele><time>2026-05-01T16:23:09Z</time></trkpt><trkpt lat="43.38317456231199" lon="11.276312220202792"><ele>233.0</ele><time>2026-05-01T16:23:10Z</time></trkpt><trkpt lat="43.383283785400714" lon="11.276112799540835"><ele>233.0</ele><time>2026-05-01T16:23:11Z</time></trkpt><trkpt lat="43.38340009765016" lon="11.275919416353807"><ele>233.0</ele><time>2026-05-01T16:23:12Z</time></trkpt><trkpt lat="43.383520547196575" lon="11.275736085338195"><ele>233.0</ele><time>2026-05-01T16:23:13Z</time></trkpt><trkpt lat="43.38364382287316" lon="11.275545654727289"><ele>233.33333333333334</ele><time>2026-05-01T16:23:14Z</time></trkpt><trkpt lat="43.38377294510043" lon="11.275366937675708"><ele>233.66666666666669</ele><time>2026-05-01T16:23:15Z</time></trkpt><trkpt lat="43.383904583119765" lon="11.275189360839953"><ele>234.0</ele><time>2026-05-01T16:23:16Z</time></trkpt><trkpt lat="43.384036645871035" lon="11.275019588335285"><ele>234.0</ele><time>2026-05-01T16:23:17Z</time></trkpt><trkpt lat="43.384175396824965" lon="11.274858980305195"><ele>234.0</ele><time>2026-05-01T16:23:18Z</time></trkpt><trkpt lat="43.38431562380697" lon="11.274702390992724"><ele>234.0</ele><time>2026-05-01T16:23:19Z</time></trkpt><trkpt lat="43.384459740919596" lon="11.274551872918"><ele>232.33333333333331</ele><time>2026-05-01T16:23:20Z</time></trkpt><trkpt lat="43.38460712579421" lon="11.274405130153562"><ele>230.66666666666666</ele><time>2026-05-01T16:23:21Z</time></trkpt><trkpt lat="43.38475656553189" lon="11.274272573406238"><ele>229.0</ele><time>2026-05-01T16:23:22Z</time></trkpt><trkpt lat="43.38490903015288" lon="11.274138276071733"><ele>229.0</ele><time>2026-05-01T16:23:23Z</time></trkpt><trkpt lat="43.385067011488566" lon="11.274018369176861"><ele>229.0</ele><time>2026-05-01T16:23:24Z</time></trkpt><trkpt lat="43.38522833514452" lon="11.273900291545528"><ele>229.0</ele><time>2026-05-01T16:23:25Z</time></trkpt><trkpt lat="43.38539162789674" lon="11.27378324136948"><ele>227.0</ele><time>2026-05-01T16:23:26Z</time></trkpt><trkpt lat="43.38555325531758" lon="11.273668218835809"><ele>225.0</ele><time>2026-05-01T16:23:27Z</time></trkpt><trkpt lat="43.38571753473081" lon="11.273555162810537"><ele>223.0</ele><time>2026-05-01T16:23:28Z</time></trkpt><trkpt lat="43.38587913053491" lon="11.273445178067497"><ele>223.0</ele><time>2026-05-01T16:23:29Z</time></trkpt><trkpt lat="43.38604432961111" lon="11.273338263966242"><ele>223.0</ele><time>2026-05-01T16:23:30Z</time></trkpt><trkpt lat="43.386208285128085" lon="11.273225422499033"><ele>223.0</ele><time>2026-05-01T16:23:31Z</time></trkpt><trkpt lat="43.38636664088621" lon="11.273109559369432"><ele>223.33333333333331</ele><time>2026-05-01T16:23:32Z</time></trkpt><trkpt lat="43.38652122977253" lon="11.272986965206973"><ele>223.66666666666669</ele><time>2026-05-01T16:23:33Z</time></trkpt><trkpt lat="43.38667344293441" lon="11.272858228108074"><ele>224.0</ele><time>2026-05-01T16:23:34Z</time></trkpt><trkpt lat="43.386823105751304" lon="11.27271729114557"><ele>224.0</ele><time>2026-05-01T16:23:35Z</time></trkpt><trkpt lat="43.38696909100814" lon="11.272574591516886"><ele>224.0</ele><time>2026-05-01T16:23:36Z</time></trkpt><trkpt lat="43.387111332942645" lon="11.272420280577462"><ele>224.0</ele><time>2026-05-01T16:23:37Z</time></trkpt><trkpt lat="43.387249875228704" lon="11.272267008917975"><ele>223.66666666666669</ele><time>2026-05-01T16:23:38Z</time></trkpt><trkpt lat="43.387383958224035" lon="11.272106128183962"><ele>223.33333333333331</ele><time>2026-05-01T16:23:39Z</time></trkpt><trkpt lat="43.387518950679066" lon="11.271940483340808"><ele>223.0</ele><time>2026-05-01T16:23:40Z</time></trkpt><trkpt lat="43.387651626828" lon="11.271767521689119"><ele>223.0</ele><time>2026-05-01T16:23:41Z</time></trkpt><trkpt lat="43.38778031987286" lon="11.271587799872217"><ele>223.0</ele><time>2026-05-01T16:23:42Z</time></trkpt><trkpt lat="43.387902840407584" lon="11.271404554526672"><ele>223.0</ele><time>2026-05-01T16:23:43Z</time></trkpt><trkpt lat="43.3880208753965" lon="11.27121396792786"><ele>224.66666666666666</ele><time>2026-05-01T16:23:44Z</time></trkpt><trkpt lat="43.388135496637084" lon="11.27102070238269"><ele>226.33333333333331</ele><time>2026-05-01T16:23:45Z</time></trkpt><trkpt lat="43.38824554579557" lon="11.27082247997731"><ele>228.0</ele><time>2026-05-01T16:23:46Z</time></trkpt><trkpt lat="43.388350586407775" lon="11.270626579796907"><ele>226.0</ele><time>2026-05-01T16:23:47Z</time></trkpt><trkpt lat="43.388448305497356" lon="11.270424771830315"><ele>224.0</ele><time>2026-05-01T16:23:48Z</time></trkpt><trkpt lat="43.38854127023452" lon="11.270220948967813"><ele>222.0</ele><time>2026-05-01T16:23:49Z</time></trkpt><trkpt lat="43.38862719587743" lon="11.270013993038047"><ele>222.0</ele><time>2026-05-01T16:23:50Z</time></trkpt><trkpt lat="43.38870884339876" lon="11.269810505118123"><ele>222.0</ele><time>2026-05-01T16:23:51Z</time></trkpt><trkpt lat="43.38878733592966" lon="11.269604505706226"><ele>222.0</ele><time>2026-05-01T16:23:52Z</time></trkpt><trkpt lat="43.38885693219991" lon="11.269392878210397"><ele>221.66666666666669</ele><time>2026-05-01T16:23:53Z</time></trkpt><trkpt lat="43.38892883690764" lon="11.269183498605745"><ele>221.33333333333334</ele><time>2026-05-01T16:23:54Z</time></trkpt><trkpt lat="43.38899470166361" lon="11.268969274222506"><ele>221.0</ele><time>2026-05-01T16:23:55Z</time></trkpt><trkpt lat="43.389057529696366" lon="11.268750410897526"><ele>221.0</ele><time>2026-05-01T16:23:56Z</time></trkpt><trkpt lat="43.389115429470124" lon="11.268528647847951"><ele>221.0</ele><time>2026-05-01T16:23:57Z</time></trkpt><trkpt lat="43.38916448214869" lon="11.268306253432625"><ele>221.0</ele><time>2026-05-01T16:23:58Z</time></trkpt><trkpt lat="43.38921586256203" lon="11.268083267110567"><ele>221.0</ele><time>2026-05-01T16:23:59Z</time></trkpt><trkpt lat="43.38925780880863" lon="11.267852652765704"><ele>221.0</ele><time>2026-05-01T16:24:00Z</time></trkpt><trkpt lat="43.38929482954021" lon="11.267629151680602"><ele>221.0</ele><time>2026-05-01T16:24:01Z</time></trkpt><trkpt lat="43.3893289849204" lon="11.26740595182231"><ele>221.66666666666669</ele><time>2026-05-01T16:24:02Z</time></trkpt><trkpt lat="43.389352616747786" lon="11.267176330685876"><ele>222.33333333333331</ele><time>2026-05-01T16:24:03Z</time></trkpt><trkpt lat="43.38937853385869" lon="11.26694682898722"><ele>223.0</ele><time>2026-05-01T16:24:04Z</time></trkpt><trkpt lat="43.3893998261203" lon="11.266716065928883"><ele>223.0</ele><time>2026-05-01T16:24:05Z</time></trkpt><trkpt lat="43.389422022092546" lon="11.266482796211179"><ele>223.0</ele><time>2026-05-01T16:24:06Z</time></trkpt><trkpt lat="43.38944167181543" lon="11.266247091362493"><ele>223.0</ele><time>2026-05-01T16:24:07Z</time></trkpt><trkpt lat="43.389459962097355" lon="11.266008828890563"><ele>223.33333333333331</ele><time>2026-05-01T16:24:08Z</time></trkpt><trkpt lat="43.389476312806636" lon="11.265770895197884"><ele>223.66666666666669</ele><time>2026-05-01T16:24:09Z</time></trkpt><trkpt lat="43.38949397309921" lon="11.265533563226164"><ele>224.0</ele><time>2026-05-01T16:24:10Z</time></trkpt><trkpt lat="43.38950968362127" lon="11.265297922893327"><ele>224.33333333333334</ele><time>2026-05-01T16:24:11Z</time></trkpt><trkpt lat="43.389528426832676" lon="11.265063170633596"><ele>224.66666666666669</ele><time>2026-05-01T16:24:12Z</time></trkpt><trkpt lat="43.389545915237264" lon="11.264831774720326"><ele>225.0</ele><time>2026-05-01T16:24:13Z</time></trkpt><trkpt lat="43.38956298919559" lon="11.264594879836705"><ele>225.66666666666669</ele><time>2026-05-01T16:24:14Z</time></trkpt><trkpt lat="43.38958352904402" lon="11.264357790282865"><ele>226.33333333333334</ele><time>2026-05-01T16:24:15Z</time></trkpt><trkpt lat="43.38959636146812" lon="11.264112195281161"><ele>227.0</ele><time>2026-05-01T16:24:16Z</time></trkpt><trkpt lat="43.38961636105004" lon="11.263873821092112"><ele>227.0</ele><time>2026-05-01T16:24:17Z</time></trkpt><trkpt lat="43.389632975268775" lon="11.263632579245483"><ele>227.0</ele><time>2026-05-01T16:24:18Z</time></trkpt><trkpt lat="43.389650558246686" lon="11.263392866267692"><ele>227.0</ele><time>2026-05-01T16:24:19Z</time></trkpt><trkpt lat="43.389667020726236" lon="11.263153146545214"><ele>229.66666666666669</ele><time>2026-05-01T16:24:20Z</time></trkpt><trkpt lat="43.38968276745507" lon="11.262912182307646"><ele>232.33333333333331</ele><time>2026-05-01T16:24:21Z</time></trkpt><trkpt lat="43.389698989195814" lon="11.26267038124068"><ele>235.0</ele><time>2026-05-01T16:24:22Z</time></trkpt><trkpt lat="43.38971959414356" lon="11.262429684065902"><ele>234.33333333333331</ele><time>2026-05-01T16:24:23Z</time></trkpt><trkpt lat="43.389739652520774" lon="11.262189211905616"><ele>233.66666666666669</ele><time>2026-05-01T16:24:24Z</time></trkpt><trkpt lat="43.38975660496994" lon="11.261945910759097"><ele>233.0</ele><time>2026-05-01T16:24:25Z</time></trkpt><trkpt lat="43.38977368092891" lon="11.261710095055134"><ele>233.0</ele><time>2026-05-01T16:24:26Z</time></trkpt><trkpt lat="43.389789861086086" lon="11.261480304323785"><ele>233.0</ele><time>2026-05-01T16:24:27Z</time></trkpt><trkpt lat="43.38980782237076" lon="11.261244742173417"><ele>233.0</ele><time>2026-05-01T16:24:28Z</time></trkpt><trkpt lat="43.38982491801899" lon="11.261011797843183"><ele>234.66666666666669</ele><time>2026-05-01T16:24:29Z</time></trkpt><trkpt lat="43.389842516369875" lon="11.260778217203613"><ele>236.33333333333331</ele><time>2026-05-01T16:24:30Z</time></trkpt><trkpt lat="43.38986085847777" lon="11.260543325701539"><ele>238.0</ele><time>2026-05-01T16:24:31Z</time></trkpt><trkpt lat="43.38987806394604" lon="11.260304143283584"><ele>238.0</ele><time>2026-05-01T16:24:32Z</time></trkpt><trkpt lat="43.389896774615636" lon="11.26006935423214"><ele>238.0</ele><time>2026-05-01T16:24:33Z</time></trkpt><trkpt lat="43.389916752812965" lon="11.259830951207297"><ele>238.0</ele><time>2026-05-01T16:24:34Z</time></trkpt><trkpt lat="43.389936708662276" lon="11.259594861564976"><ele>237.66666666666666</ele><time>2026-05-01T16:24:35Z</time></trkpt><trkpt lat="43.38995718021507" lon="11.25935920594684"><ele>237.33333333333331</ele><time>2026-05-01T16:24:36Z</time></trkpt><trkpt lat="43.389974285420486" lon="11.259121883306596"><ele>237.0</ele><time>2026-05-01T16:24:37Z</time></trkpt><trkpt lat="43.389990689800236" lon="11.258877592071705"><ele>235.66666666666669</ele><time>2026-05-01T16:24:38Z</time></trkpt><trkpt lat="43.39000901724037" lon="11.258639284831062"><ele>234.33333333333334</ele><time>2026-05-01T16:24:39Z</time></trkpt><trkpt lat="43.3900228593416" lon="11.258395788353246"><ele>233.0</ele><time>2026-05-01T16:24:40Z</time></trkpt><trkpt lat="43.39004101886532" lon="11.258153007524518"><ele>231.66666666666669</ele><time>2026-05-01T16:24:41Z</time></trkpt><trkpt lat="43.39005952984672" lon="11.257911158206985"><ele>230.33333333333331</ele><time>2026-05-01T16:24:42Z</time></trkpt><trkpt lat="43.39007621978992" lon="11.25767436765459"><ele>229.0</ele><time>2026-05-01T16:24:43Z</time></trkpt><trkpt lat="43.390094328073815" lon="11.257429301951504"><ele>227.0</ele><time>2026-05-01T16:24:44Z</time></trkpt><trkpt lat="43.3901098390714" lon="11.257179118950345"><ele>225.0</ele><time>2026-05-01T16:24:45Z</time></trkpt><trkpt lat="43.39012969994239" lon="11.256932444498469"><ele>223.0</ele><time>2026-05-01T16:24:46Z</time></trkpt><trkpt lat="43.39014952171805" lon="11.256686982022515"><ele>222.66666666666666</ele><time>2026-05-01T16:24:47Z</time></trkpt><trkpt lat="43.39016700710759" lon="11.256439292908556"><ele>222.33333333333331</ele><time>2026-05-01T16:24:48Z</time></trkpt><trkpt lat="43.39018648299016" lon="11.256194011127638"><ele>222.0</ele><time>2026-05-01T16:24:49Z</time></trkpt><trkpt lat="43.39020397667416" lon="11.2559496312853"><ele>222.0</ele><time>2026-05-01T16:24:50Z</time></trkpt><trkpt lat="43.39022380631676" lon="11.255701923421785"><ele>222.0</ele><time>2026-05-01T16:24:51Z</time></trkpt><trkpt lat="43.39023884662801" lon="11.255452902050987"><ele>222.0</ele><time>2026-05-01T16:24:52Z</time></trkpt><trkpt lat="43.39025792406852" lon="11.25520759280943"><ele>221.66666666666669</ele><time>2026-05-01T16:24:53Z</time></trkpt><trkpt lat="43.39027595118348" lon="11.254958312108476"><ele>221.33333333333334</ele><time>2026-05-01T16:24:54Z</time></trkpt><trkpt lat="43.39029723600839" lon="11.25471089838364"><ele>221.0</ele><time>2026-05-01T16:24:55Z</time></trkpt><trkpt lat="43.39031360732177" lon="11.254462968764667"><ele>221.0</ele><time>2026-05-01T16:24:56Z</time></trkpt><trkpt lat="43.39033326309505" lon="11.254216309481125"><ele>221.0</ele><time>2026-05-01T16:24:57Z</time></trkpt><trkpt lat="43.39034978796305" lon="11.25396594788171"><ele>221.0</ele><time>2026-05-01T16:24:58Z</time></trkpt><trkpt lat="43.39037259552308" lon="11.25371498539707"><ele>221.0</ele><time>2026-05-01T16:24:59Z</time></trkpt><trkpt lat="43.3903941041821" lon="11.253466218868777"><ele>221.0</ele><time>2026-05-01T16:25:00Z</time></trkpt><trkpt lat="43.39041160734356" lon="11.253213710817878"><ele>221.0</ele><time>2026-05-01T16:25:01Z</time></trkpt><trkpt lat="43.39042900985789" lon="11.25296208439822"><ele>221.0</ele><time>2026-05-01T16:25:02Z</time></trkpt><trkpt lat="43.39044918639819" lon="11.252709177046103"><ele>221.0</ele><time>2026-05-01T16:25:03Z</time></trkpt><trkpt lat="43.39046587777962" lon="11.252450463108127"><ele>221.0</ele><time>2026-05-01T16:25:04Z</time></trkpt><trkpt lat="43.39048445968115" lon="11.252197730207444"><ele>222.33333333333334</ele><time>2026-05-01T16:25:05Z</time></trkpt><trkpt lat="43.39050191487098" lon="11.251946505475466"><ele>223.66666666666669</ele><time>2026-05-01T16:25:06Z</time></trkpt><trkpt lat="43.3905176417328" lon="11.251691280098552"><ele>225.0</ele><time>2026-05-01T16:25:07Z</time></trkpt><trkpt lat="43.390536770509875" lon="11.251445733474188"><ele>227.66666666666669</ele><time>2026-05-01T16:25:08Z</time></trkpt><trkpt lat="43.39055464011539" lon="11.251195126569117"><ele>230.33333333333334</ele><time>2026-05-01T16:25:09Z</time></trkpt><trkpt lat="43.39057249293187" lon="11.250949963500483"><ele>233.0</ele><time>2026-05-01T16:25:10Z</time></trkpt><trkpt lat="43.39059180899767" lon="11.25070305784043"><ele>231.33333333333334</ele><time>2026-05-01T16:25:11Z</time></trkpt><trkpt lat="43.390607551844695" lon="11.250450682176341"><ele>229.66666666666669</ele><time>2026-05-01T16:25:12Z</time></trkpt><trkpt lat="43.39062744556084" lon="11.25020207147589"><ele>228.0</ele><time>2026-05-01T16:25:13Z</time></trkpt><trkpt lat="43.39064638989424" lon="11.249947527999499"><ele>226.66666666666669</ele><time>2026-05-01T16:25:14Z</time></trkpt><trkpt lat="43.39066366153122" lon="11.249694560997101"><ele>225.33333333333334</ele><time>2026-05-01T16:25:15Z</time></trkpt><trkpt lat="43.39068691265359" lon="11.24944234338387"><ele>224.0</ele><time>2026-05-01T16:25:16Z</time></trkpt><trkpt lat="43.39071338019173" lon="11.249192387543834"><ele>223.0</ele><time>2026-05-01T16:25:17Z</time></trkpt><trkpt lat="43.39074843592547" lon="11.248945384367056"><ele>222.0</ele><time>2026-05-01T16:25:18Z</time></trkpt><trkpt lat="43.39079019810158" lon="11.248699930991481"><ele>221.0</ele><time>2026-05-01T16:25:19Z</time></trkpt><trkpt lat="43.390843393045195" lon="11.24845372140166"><ele>221.0</ele><time>2026-05-01T16:25:20Z</time></trkpt><trkpt lat="43.39089525334503" lon="11.248205891402137"><ele>221.0</ele><time>2026-05-01T16:25:21Z</time></trkpt><trkpt lat="43.3909612257945" lon="11.247967875226804"><ele>221.0</ele><time>2026-05-01T16:25:22Z</time></trkpt><trkpt lat="43.39103418734864" lon="11.247729554226728"><ele>219.66666666666669</ele><time>2026-05-01T16:25:23Z</time></trkpt><trkpt lat="43.391114672387026" lon="11.247493355654127"><ele>218.33333333333331</ele><time>2026-05-01T16:25:24Z</time></trkpt><trkpt lat="43.3912004067085" lon="11.24726284880446"><ele>217.0</ele><time>2026-05-01T16:25:25Z</time></trkpt><trkpt lat="43.391290281301664" lon="11.247033123875557"><ele>217.33333333333331</ele><time>2026-05-01T16:25:26Z</time></trkpt><trkpt lat="43.39138399949997" lon="11.246806890566244"><ele>217.66666666666669</ele><time>2026-05-01T16:25:27Z</time></trkpt><trkpt lat="43.39147597306434" lon="11.246582617875363"><ele>218.0</ele><time>2026-05-01T16:25:28Z</time></trkpt><trkpt lat="43.39156428813179" lon="11.246364527714881"><ele>218.0</ele><time>2026-05-01T16:25:29Z</time></trkpt><trkpt lat="43.391654208816476" lon="11.246143285471806"><ele>218.0</ele><time>2026-05-01T16:25:30Z</time></trkpt><trkpt lat="43.39174589597155" lon="11.245924107750268"><ele>218.0</ele><time>2026-05-01T16:25:31Z</time></trkpt><trkpt lat="43.39182749227429" lon="11.245699615875766"><ele>215.66666666666669</ele><time>2026-05-01T16:25:32Z</time></trkpt><trkpt lat="43.39190690892943" lon="11.245476042451575"><ele>213.33333333333331</ele><time>2026-05-01T16:25:33Z</time></trkpt><trkpt lat="43.391975321143086" lon="11.245243009654928"><ele>211.0</ele><time>2026-05-01T16:25:34Z</time></trkpt><trkpt lat="43.39204051880803" lon="11.245003337874316"><ele>211.33333333333331</ele><time>2026-05-01T16:25:35Z</time></trkpt><trkpt lat="43.39210036219032" lon="11.244762666233642"><ele>211.66666666666669</ele><time>2026-05-01T16:25:36Z</time></trkpt><trkpt lat="43.39215034212283" lon="11.244514505744736"><ele>212.0</ele><time>2026-05-01T16:25:37Z</time></trkpt><trkpt lat="43.3921946302958" lon="11.244264975223203"><ele>212.0</ele><time>2026-05-01T16:25:38Z</time></trkpt><trkpt lat="43.39222901727601" lon="11.244013056815934"><ele>212.0</ele><time>2026-05-01T16:25:39Z</time></trkpt><trkpt lat="43.39225788141912" lon="11.243753921373724"><ele>212.0</ele><time>2026-05-01T16:25:40Z</time></trkpt><trkpt lat="43.39228145351915" lon="11.243505202143044"><ele>212.0</ele><time>2026-05-01T16:25:41Z</time></trkpt><trkpt lat="43.392295872181805" lon="11.243251986230078"><ele>212.0</ele><time>2026-05-01T16:25:42Z</time></trkpt><trkpt lat="43.39230306815933" lon="11.243001126029068"><ele>212.0</ele><time>2026-05-01T16:25:43Z</time></trkpt><trkpt lat="43.39230040398887" lon="11.242748165972625"><ele>212.0</ele><time>2026-05-01T16:25:44Z</time></trkpt><trkpt lat="43.39229566923976" lon="11.242496521842021"><ele>212.0</ele><time>2026-05-01T16:25:45Z</time></trkpt><trkpt lat="43.39227876550495" lon="11.242243188465789"><ele>212.0</ele><time>2026-05-01T16:25:46Z</time></trkpt><trkpt lat="43.39225748116269" lon="11.241985605737995"><ele>211.33333333333334</ele><time>2026-05-01T16:25:47Z</time></trkpt><trkpt lat="43.39223216189098" lon="11.24172757088895"><ele>210.66666666666669</ele><time>2026-05-01T16:25:48Z</time></trkpt><trkpt lat="43.39219341295108" lon="11.241459156759191"><ele>210.0</ele><time>2026-05-01T16:25:49Z</time></trkpt><trkpt lat="43.392164313202905" lon="11.241201098406405"><ele>216.0</ele><time>2026-05-01T16:25:50Z</time></trkpt><trkpt lat="43.392134264333016" lon="11.240939757018836"><ele>222.0</ele><time>2026-05-01T16:25:51Z</time></trkpt><trkpt lat="43.392100840636374" lon="11.240684699396885"><ele>228.0</ele><time>2026-05-01T16:25:52Z</time></trkpt><trkpt lat="43.3920717781175" lon="11.24043419836998"><ele>228.0</ele><time>2026-05-01T16:25:53Z</time></trkpt><trkpt lat="43.39204829154988" lon="11.240181583801188"><ele>228.0</ele><time>2026-05-01T16:25:54Z</time></trkpt><trkpt lat="43.39202152684587" lon="11.239920997805665"><ele>228.0</ele><time>2026-05-01T16:25:55Z</time></trkpt><trkpt lat="43.39200731192666" lon="11.239659546534034"><ele>228.0</ele><time>2026-05-01T16:25:56Z</time></trkpt><trkpt lat="43.39200030447511" lon="11.239397207509413"><ele>228.0</ele><time>2026-05-01T16:25:57Z</time></trkpt><trkpt lat="43.39200145769458" lon="11.239128731119859"><ele>228.0</ele><time>2026-05-01T16:25:58Z</time></trkpt><trkpt lat="43.39200722343234" lon="11.238859228235533"><ele>228.0</ele><time>2026-05-01T16:25:59Z</time></trkpt><trkpt lat="43.392019008692515" lon="11.238592701633886"><ele>228.0</ele><time>2026-05-01T16:26:00Z</time></trkpt><trkpt lat="43.3920349665913" lon="11.238328465771726"><ele>228.0</ele><time>2026-05-01T16:26:01Z</time></trkpt><trkpt lat="43.39205576448748" lon="11.238072895753376"><ele>226.66666666666669</ele><time>2026-05-01T16:26:02Z</time></trkpt><trkpt lat="43.392088419890335" lon="11.237820979347118"><ele>225.33333333333334</ele><time>2026-05-01T16:26:03Z</time></trkpt><trkpt lat="43.39212896044626" lon="11.23757575305631"><ele>224.0</ele><time>2026-05-01T16:26:04Z</time></trkpt><trkpt lat="43.39217343288855" lon="11.23733042560896"><ele>219.66666666666669</ele><time>2026-05-01T16:26:05Z</time></trkpt><trkpt lat="43.39222148411958" lon="11.237090184750404"><ele>215.33333333333331</ele><time>2026-05-01T16:26:06Z</time></trkpt><trkpt lat="43.39227377890683" lon="11.236849295875771"><ele>211.0</ele><time>2026-05-01T16:26:07Z</time></trkpt><trkpt lat="43.392330665087655" lon="11.236615663488188"><ele>210.66666666666666</ele><time>2026-05-01T16:26:08Z</time></trkpt><trkpt lat="43.392393664343736" lon="11.236381419025955"><ele>210.33333333333331</ele><time>2026-05-01T16:26:09Z</time></trkpt><trkpt lat="43.39245895974776" lon="11.236152056802329"><ele>210.0</ele><time>2026-05-01T16:26:10Z</time></trkpt><trkpt lat="43.392530697350466" lon="11.235926330477064"><ele>210.0</ele><time>2026-05-01T16:26:11Z</time></trkpt><trkpt lat="43.39260656491141" lon="11.235706000686067"><ele>210.0</ele><time>2026-05-01T16:26:12Z</time></trkpt><trkpt lat="43.392677252234925" lon="11.235481213411465"><ele>210.0</ele><time>2026-05-01T16:26:13Z</time></trkpt><trkpt lat="43.39274676324623" lon="11.235260423787294"><ele>211.33333333333331</ele><time>2026-05-01T16:26:14Z</time></trkpt><trkpt lat="43.39282005078556" lon="11.2350410098016"><ele>212.66666666666666</ele><time>2026-05-01T16:26:15Z</time></trkpt><trkpt lat="43.392893677319776" lon="11.234826224548677"><ele>214.0</ele><time>2026-05-01T16:26:16Z</time></trkpt><trkpt lat="43.39296418305037" lon="11.234611940258544"><ele>213.66666666666666</ele><time>2026-05-01T16:26:17Z</time></trkpt><trkpt lat="43.39303628855041" lon="11.234397295563062"><ele>213.33333333333331</ele><time>2026-05-01T16:26:18Z</time></trkpt><trkpt lat="43.39310722978723" lon="11.234180965438105"><ele>213.0</ele><time>2026-05-01T16:26:19Z</time></trkpt><trkpt lat="43.39317570732911" lon="11.233966845595432"><ele>213.0</ele><time>2026-05-01T16:26:20Z</time></trkpt><trkpt lat="43.39325015710092" lon="11.233753563269017"><ele>213.0</ele><time>2026-05-01T16:26:21Z</time></trkpt><trkpt lat="43.39332245838289" lon="11.233541312022895"><ele>213.0</ele><time>2026-05-01T16:26:22Z</time></trkpt><trkpt lat="43.39339355061242" lon="11.233329518556769"><ele>214.33333333333331</ele><time>2026-05-01T16:26:23Z</time></trkpt><trkpt lat="43.39345988647951" lon="11.233118893718078"><ele>215.66666666666666</ele><time>2026-05-01T16:26:24Z</time></trkpt><trkpt lat="43.393527914800806" lon="11.232904634409186"><ele>217.0</ele><time>2026-05-01T16:26:25Z</time></trkpt><trkpt lat="43.39359839309299" lon="11.232690733808914"><ele>217.0</ele><time>2026-05-01T16:26:26Z</time></trkpt><trkpt lat="43.39367003230239" lon="11.232474360891969"><ele>217.0</ele><time>2026-05-01T16:26:27Z</time></trkpt><trkpt lat="43.39374231755093" lon="11.232253337915378"><ele>217.0</ele><time>2026-05-01T16:26:28Z</time></trkpt><trkpt lat="43.3938165841611" lon="11.232034679877415"><ele>216.66666666666666</ele><time>2026-05-01T16:26:29Z</time></trkpt><trkpt lat="43.393889379948604" lon="11.231812571432398"><ele>216.33333333333331</ele><time>2026-05-01T16:26:30Z</time></trkpt><trkpt lat="43.393962661708414" lon="11.23160064089377"><ele>216.0</ele><time>2026-05-01T16:26:31Z</time></trkpt><trkpt lat="43.39403264054796" lon="11.231387984246776"><ele>216.0</ele><time>2026-05-01T16:26:32Z</time></trkpt><trkpt lat="43.39410389268985" lon="11.231182028387634"><ele>216.0</ele><time>2026-05-01T16:26:33Z</time></trkpt><trkpt lat="43.394168992805284" lon="11.230974882909335"><ele>216.0</ele><time>2026-05-01T16:26:34Z</time></trkpt><trkpt lat="43.394231150196475" lon="11.230766780555225"><ele>218.33333333333331</ele><time>2026-05-01T16:26:35Z</time></trkpt><trkpt lat="43.3942885624129" lon="11.230556891395182"><ele>220.66666666666666</ele><time>2026-05-01T16:26:36Z</time></trkpt><trkpt lat="43.394336868989946" lon="11.230340868978184"><ele>223.0</ele><time>2026-05-01T16:26:37Z</time></trkpt><trkpt lat="43.39437838333662" lon="11.230119012340463"><ele>223.0</ele><time>2026-05-01T16:26:38Z</time></trkpt><trkpt lat="43.39441583335372" lon="11.229900381693485"><ele>223.0</ele><time>2026-05-01T16:26:39Z</time></trkpt><trkpt lat="43.39444580911425" lon="11.229679992212082"><ele>223.0</ele><time>2026-05-01T16:26:40Z</time></trkpt><trkpt lat="43.39447234752032" lon="11.229456059461715"><ele>224.0</ele><time>2026-05-01T16:26:41Z</time></trkpt><trkpt lat="43.39448939974484" lon="11.229234835261913"><ele>225.0</ele><time>2026-05-01T16:26:42Z</time></trkpt><trkpt lat="43.39450120576356" lon="11.229007800238298"><ele>226.0</ele><time>2026-05-01T16:26:43Z</time></trkpt><trkpt lat="43.3945110080577" lon="11.228777440309273"><ele>223.33333333333331</ele><time>2026-05-01T16:26:44Z</time></trkpt><trkpt lat="43.39451178197438" lon="11.228543038500247"><ele>220.66666666666669</ele><time>2026-05-01T16:26:45Z</time></trkpt><trkpt lat="43.39450865507277" lon="11.228302511627701"><ele>218.0</ele><time>2026-05-01T16:26:46Z</time></trkpt><trkpt lat="43.39449596285992" lon="11.22806477759135"><ele>216.0</ele><time>2026-05-01T16:26:47Z</time></trkpt><trkpt lat="43.39447838613408" lon="11.227821731555867"><ele>214.0</ele><time>2026-05-01T16:26:48Z</time></trkpt><trkpt lat="43.394453204885046" lon="11.22757590507285"><ele>212.0</ele><time>2026-05-01T16:26:49Z</time></trkpt><trkpt lat="43.39442440514316" lon="11.227333480945077"><ele>211.33333333333334</ele><time>2026-05-01T16:26:50Z</time></trkpt><trkpt lat="43.39439426788279" lon="11.227088839849653"><ele>210.66666666666669</ele><time>2026-05-01T16:26:51Z</time></trkpt><trkpt lat="43.3943685446699" lon="11.226848364673641"><ele>210.0</ele><time>2026-05-01T16:26:52Z</time></trkpt><trkpt lat="43.394339924930215" lon="11.22660997744133"><ele>209.0</ele><time>2026-05-01T16:26:53Z</time></trkpt><trkpt lat="43.39430751207867" lon="11.22636115554975"><ele>208.0</ele><time>2026-05-01T16:26:54Z</time></trkpt><trkpt lat="43.394282042587434" lon="11.226122954869577"><ele>207.0</ele><time>2026-05-01T16:26:55Z</time></trkpt><trkpt lat="43.394253960023676" lon="11.225878311928355"><ele>207.0</ele><time>2026-05-01T16:26:56Z</time></trkpt><trkpt lat="43.394229295060555" lon="11.225634626402018"><ele>207.0</ele><time>2026-05-01T16:26:57Z</time></trkpt><trkpt lat="43.39420542521827" lon="11.22539016172922"><ele>207.0</ele><time>2026-05-01T16:26:58Z</time></trkpt><trkpt lat="43.394176428201895" lon="11.225151314110507"><ele>207.0</ele><time>2026-05-01T16:26:59Z</time></trkpt><trkpt lat="43.39415158117483" lon="11.224907942525034"><ele>207.0</ele><time>2026-05-01T16:27:00Z</time></trkpt><trkpt lat="43.394125861040735" lon="11.224658634842827"><ele>207.0</ele><time>2026-05-01T16:27:01Z</time></trkpt><trkpt lat="43.3940948204379" lon="11.224409493460005"><ele>207.0</ele><time>2026-05-01T16:27:02Z</time></trkpt><trkpt lat="43.39406567355184" lon="11.224162078267383"><ele>207.0</ele><time>2026-05-01T16:27:03Z</time></trkpt><trkpt lat="43.39403876604263" lon="11.223912266998893"><ele>207.0</ele><time>2026-05-01T16:27:04Z</time></trkpt><trkpt lat="43.39401112858024" lon="11.223666743614782"><ele>206.33333333333331</ele><time>2026-05-01T16:27:05Z</time></trkpt><trkpt lat="43.39398190797282" lon="11.223418532103462"><ele>205.66666666666666</ele><time>2026-05-01T16:27:06Z</time></trkpt><trkpt lat="43.393952011717964" lon="11.22316870586042"><ele>205.0</ele><time>2026-05-01T16:27:07Z</time></trkpt><trkpt lat="43.39392320665054" lon="11.222917100001817"><ele>204.33333333333331</ele><time>2026-05-01T16:27:08Z</time></trkpt><trkpt lat="43.39389656414507" lon="11.222667857811972"><ele>203.66666666666669</ele><time>2026-05-01T16:27:09Z</time></trkpt><trkpt lat="43.39387370005867" lon="11.222418518083144"><ele>203.0</ele><time>2026-05-01T16:27:10Z</time></trkpt><trkpt lat="43.39384880034932" lon="11.22217462023057"><ele>208.33333333333334</ele><time>2026-05-01T16:27:11Z</time></trkpt><trkpt lat="43.39382688144504" lon="11.221934871101803"><ele>213.66666666666669</ele><time>2026-05-01T16:27:12Z</time></trkpt><trkpt lat="43.39381177547369" lon="11.221687684396898"><ele>219.0</ele><time>2026-05-01T16:27:13Z</time></trkpt><trkpt lat="43.39379892725884" lon="11.22144092544819"><ele>219.0</ele><time>2026-05-01T16:27:14Z</time></trkpt><trkpt lat="43.39378930314196" lon="11.221193254323675"><ele>219.0</ele><time>2026-05-01T16:27:15Z</time></trkpt><trkpt lat="43.393784940581696" lon="11.22094372340657"><ele>219.0</ele><time>2026-05-01T16:27:16Z</time></trkpt><trkpt lat="43.39377861742303" lon="11.220691094514672"><ele>216.0</ele><time>2026-05-01T16:27:17Z</time></trkpt><trkpt lat="43.39378031936275" lon="11.220435666064905"><ele>213.0</ele><time>2026-05-01T16:27:18Z</time></trkpt><trkpt lat="43.39378580983979" lon="11.220182272289465"><ele>210.0</ele><time>2026-05-01T16:27:19Z</time></trkpt><trkpt lat="43.393790838621" lon="11.219942571650419"><ele>208.0</ele><time>2026-05-01T16:27:20Z</time></trkpt><trkpt lat="43.393798361233394" lon="11.219695215239376"><ele>206.0</ele><time>2026-05-01T16:27:21Z</time></trkpt><trkpt lat="43.3938184979056" lon="11.21944754091747"><ele>204.0</ele><time>2026-05-01T16:27:22Z</time></trkpt><trkpt lat="43.39383518039312" lon="11.21919989954727"><ele>202.33333333333331</ele><time>2026-05-01T16:27:23Z</time></trkpt><trkpt lat="43.39385318467109" lon="11.218954366852092"><ele>200.66666666666666</ele><time>2026-05-01T16:27:24Z</time></trkpt><trkpt lat="43.39386990156872" lon="11.218704839889051"><ele>199.0</ele><time>2026-05-01T16:27:25Z</time></trkpt><trkpt lat="43.39389130397632" lon="11.218460520069128"><ele>199.0</ele><time>2026-05-01T16:27:26Z</time></trkpt><trkpt lat="43.39391307825963" lon="11.21822044364305"><ele>199.0</ele><time>2026-05-01T16:27:27Z</time></trkpt><trkpt lat="43.39393145046325" lon="11.217973466168695"><ele>199.0</ele><time>2026-05-01T16:27:28Z</time></trkpt><trkpt lat="43.3939516332978" lon="11.217723510453684"><ele>198.33333333333331</ele><time>2026-05-01T16:27:29Z</time></trkpt><trkpt lat="43.39397270611463" lon="11.217479330599243"><ele>197.66666666666669</ele><time>2026-05-01T16:27:30Z</time></trkpt><trkpt lat="43.39399261768423" lon="11.217232078590483"><ele>197.0</ele><time>2026-05-01T16:27:31Z</time></trkpt><trkpt lat="43.394015752074495" lon="11.216988018188713"><ele>197.0</ele><time>2026-05-01T16:27:32Z</time></trkpt><trkpt lat="43.39403460141337" lon="11.216737716902186"><ele>197.0</ele><time>2026-05-01T16:27:33Z</time></trkpt><trkpt lat="43.39405636507462" lon="11.216488194726777"><ele>197.0</ele><time>2026-05-01T16:27:34Z</time></trkpt><trkpt lat="43.39407927589429" lon="11.216238090950236"><ele>197.0</ele><time>2026-05-01T16:27:35Z</time></trkpt><trkpt lat="43.39410172548285" lon="11.21598840573019"><ele>197.0</ele><time>2026-05-01T16:27:36Z</time></trkpt><trkpt lat="43.39412167114505" lon="11.215738928561997"><ele>197.0</ele><time>2026-05-01T16:27:37Z</time></trkpt><trkpt lat="43.39414121187667" lon="11.21549124603543"><ele>197.33333333333334</ele><time>2026-05-01T16:27:38Z</time></trkpt><trkpt lat="43.394159957168256" lon="11.215243212603367"><ele>197.66666666666669</ele><time>2026-05-01T16:27:39Z</time></trkpt><trkpt lat="43.394184315279524" lon="11.214994256174773"><ele>198.0</ele><time>2026-05-01T16:27:40Z</time></trkpt><trkpt lat="43.39420768302141" lon="11.21474709306243"><ele>197.33333333333331</ele><time>2026-05-01T16:27:41Z</time></trkpt><trkpt lat="43.39422623930861" lon="11.21450112003795"><ele>196.66666666666666</ele><time>2026-05-01T16:27:42Z</time></trkpt><trkpt lat="43.39424815311877" lon="11.21425641560532"><ele>196.0</ele><time>2026-05-01T16:27:43Z</time></trkpt><trkpt lat="43.39426657492358" lon="11.214011016274158"><ele>196.0</ele><time>2026-05-01T16:27:44Z</time></trkpt><trkpt lat="43.394287334388785" lon="11.213767944321578"><ele>196.0</ele><time>2026-05-01T16:27:45Z</time></trkpt><trkpt lat="43.39430784002639" lon="11.213522969496822"><ele>196.0</ele><time>2026-05-01T16:27:46Z</time></trkpt><trkpt lat="43.39432457893879" lon="11.21327887855667"><ele>196.0</ele><time>2026-05-01T16:27:47Z</time></trkpt><trkpt lat="43.39434432287891" lon="11.213034888581793"><ele>196.0</ele><time>2026-05-01T16:27:48Z</time></trkpt><trkpt lat="43.39436347278979" lon="11.212790594734829"><ele>196.0</ele><time>2026-05-01T16:27:49Z</time></trkpt><trkpt lat="43.39438308216418" lon="11.212542166655771"><ele>195.33333333333331</ele><time>2026-05-01T16:27:50Z</time></trkpt><trkpt lat="43.39440349718858" lon="11.212297468832059"><ele>194.66666666666669</ele><time>2026-05-01T16:27:51Z</time></trkpt><trkpt lat="43.394427813193104" lon="11.21205179960738"><ele>194.0</ele><time>2026-05-01T16:27:52Z</time></trkpt><trkpt lat="43.39444900573412" lon="11.21179954565172"><ele>194.0</ele><time>2026-05-01T16:27:53Z</time></trkpt><trkpt lat="43.39447180337891" lon="11.211543558553501"><ele>194.0</ele><time>2026-05-01T16:27:54Z</time></trkpt><trkpt lat="43.39449176221528" lon="11.211285503846286"><ele>194.0</ele><time>2026-05-01T16:27:55Z</time></trkpt><trkpt lat="43.39451103861045" lon="11.211028862920875"><ele>194.0</ele><time>2026-05-01T16:27:56Z</time></trkpt><trkpt lat="43.394533696204185" lon="11.210775613871766"><ele>194.0</ele><time>2026-05-01T16:27:57Z</time></trkpt><trkpt lat="43.39455363087719" lon="11.21052411567281"><ele>194.0</ele><time>2026-05-01T16:27:58Z</time></trkpt><trkpt lat="43.394576376883784" lon="11.210275954545516"><ele>194.66666666666669</ele><time>2026-05-01T16:27:59Z</time></trkpt><trkpt lat="43.3945983965395" lon="11.21003276497335"><ele>195.33333333333331</ele><time>2026-05-01T16:28:00Z</time></trkpt><trkpt lat="43.39461585730443" lon="11.209788100745333"><ele>196.0</ele><time>2026-05-01T16:28:01Z</time></trkpt><trkpt lat="43.39463580179156" lon="11.209549897119858"><ele>197.0</ele><time>2026-05-01T16:28:02Z</time></trkpt><trkpt lat="43.394652052141225" lon="11.209315817326978"><ele>198.0</ele><time>2026-05-01T16:28:03Z</time></trkpt><trkpt lat="43.39467036437239" lon="11.20908120279942"><ele>199.0</ele><time>2026-05-01T16:28:04Z</time></trkpt><trkpt lat="43.39469128433276" lon="11.208850158110508"><ele>202.0</ele><time>2026-05-01T16:28:05Z</time></trkpt><trkpt lat="43.39470627038283" lon="11.208618173572622"><ele>205.0</ele><time>2026-05-01T16:28:06Z</time></trkpt><trkpt lat="43.39472452612218" lon="11.208385216184604"><ele>208.0</ele><time>2026-05-01T16:28:07Z</time></trkpt><trkpt lat="43.394742714448114" lon="11.208152949908648"><ele>208.0</ele><time>2026-05-01T16:28:08Z</time></trkpt><trkpt lat="43.39476399232831" lon="11.207925719791119"><ele>208.0</ele><time>2026-05-01T16:28:09Z</time></trkpt><trkpt lat="43.3947836880322" lon="11.20769319169164"><ele>208.0</ele><time>2026-05-01T16:28:10Z</time></trkpt><trkpt lat="43.3948018066549" lon="11.20746430730961"><ele>208.66666666666666</ele><time>2026-05-01T16:28:11Z</time></trkpt><trkpt lat="43.39481985503436" lon="11.207239500076701"><ele>209.33333333333331</ele><time>2026-05-01T16:28:12Z</time></trkpt><trkpt lat="43.3948382077502" lon="11.20700981673622"><ele>210.0</ele><time>2026-05-01T16:28:13Z</time></trkpt><trkpt lat="43.3948623821801" lon="11.206779232755894"><ele>210.0</ele><time>2026-05-01T16:28:14Z</time></trkpt><trkpt lat="43.394881248211405" lon="11.206548948272419"><ele>210.0</ele><time>2026-05-01T16:28:15Z</time></trkpt><trkpt lat="43.3949001501436" lon="11.206316420954971"><ele>210.0</ele><time>2026-05-01T16:28:16Z</time></trkpt><trkpt lat="43.394916260700896" lon="11.206082102231187"><ele>211.0</ele><time>2026-05-01T16:28:17Z</time></trkpt><trkpt lat="43.394938452928685" lon="11.205849801208482"><ele>212.0</ele><time>2026-05-01T16:28:18Z</time></trkpt><trkpt lat="43.39495735529059" lon="11.205612770629575"><ele>213.0</ele><time>2026-05-01T16:28:19Z</time></trkpt><trkpt lat="43.39498185742818" lon="11.205378525393181"><ele>213.0</ele><time>2026-05-01T16:28:20Z</time></trkpt><trkpt lat="43.3950053871243" lon="11.205145007217018"><ele>213.0</ele><time>2026-05-01T16:28:21Z</time></trkpt><trkpt lat="43.39503335705114" lon="11.204908250564095"><ele>213.0</ele><time>2026-05-01T16:28:22Z</time></trkpt><trkpt lat="43.395067499498204" lon="11.204671859557244"><ele>214.0</ele><time>2026-05-01T16:28:23Z</time></trkpt><trkpt lat="43.39510848335972" lon="11.204437274543938"><ele>215.0</ele><time>2026-05-01T16:28:24Z</time></trkpt><trkpt lat="43.3951518063788" lon="11.204209237143637"><ele>216.0</ele><time>2026-05-01T16:28:25Z</time></trkpt><trkpt lat="43.395201097224216" lon="11.203980014876532"><ele>216.0</ele><time>2026-05-01T16:28:26Z</time></trkpt><trkpt lat="43.39525702377955" lon="11.20375405913363"><ele>216.0</ele><time>2026-05-01T16:28:27Z</time></trkpt><trkpt lat="43.39531788362958" lon="11.20352928159333"><ele>216.0</ele><time>2026-05-01T16:28:28Z</time></trkpt><trkpt lat="43.39538477230638" lon="11.20331277736122"><ele>216.0</ele><time>2026-05-01T16:28:29Z</time></trkpt><trkpt lat="43.395456613364146" lon="11.2031027308546"><ele>216.0</ele><time>2026-05-01T16:28:30Z</time></trkpt><trkpt lat="43.39552894061665" lon="11.202895401947197"><ele>216.0</ele><time>2026-05-01T16:28:31Z</time></trkpt><trkpt lat="43.39560109734162" lon="11.202692744657362"><ele>216.0</ele><time>2026-05-01T16:28:32Z</time></trkpt><trkpt lat="43.39568327346472" lon="11.202496924608413"><ele>216.0</ele><time>2026-05-01T16:28:33Z</time></trkpt><trkpt lat="43.39576984471015" lon="11.202299942159815"><ele>216.0</ele><time>2026-05-01T16:28:34Z</time></trkpt><trkpt lat="43.3958577479008" lon="11.202097366015483"><ele>215.66666666666669</ele><time>2026-05-01T16:28:35Z</time></trkpt><trkpt lat="43.39595427632252" lon="11.201898657767511"><ele>215.33333333333334</ele><time>2026-05-01T16:28:36Z</time></trkpt><trkpt lat="43.396047312506504" lon="11.20169605012605"><ele>215.0</ele><time>2026-05-01T16:28:37Z</time></trkpt><trkpt lat="43.396147214582285" lon="11.201492314403417"><ele>214.66666666666669</ele><time>2026-05-01T16:28:38Z</time></trkpt><trkpt lat="43.3962410239566" lon="11.201283360396681"><ele>214.33333333333331</ele><time>2026-05-01T16:28:39Z</time></trkpt><trkpt lat="43.39634251339924" lon="11.201078041202829"><ele>214.0</ele><time>2026-05-01T16:28:40Z</time></trkpt><trkpt lat="43.39644252408262" lon="11.200869355797805"><ele>215.0</ele><time>2026-05-01T16:28:41Z</time></trkpt><trkpt lat="43.39656229666655" lon="11.200665984471575"><ele>216.0</ele><time>2026-05-01T16:28:42Z</time></trkpt><trkpt lat="43.396660140514" lon="11.200459088729223"><ele>217.0</ele><time>2026-05-01T16:28:43Z</time></trkpt><trkpt lat="43.396763218591424" lon="11.200252801774305"><ele>217.0</ele><time>2026-05-01T16:28:44Z</time></trkpt><trkpt lat="43.3968638418622" lon="11.20004220440695"><ele>217.0</ele><time>2026-05-01T16:28:45Z</time></trkpt><trkpt lat="43.39696227183046" lon="11.199834670847741"><ele>217.0</ele><time>2026-05-01T16:28:46Z</time></trkpt><trkpt lat="43.397064405247335" lon="11.199632283786794"><ele>218.0</ele><time>2026-05-01T16:28:47Z</time></trkpt><trkpt lat="43.397161480691814" lon="11.199416446032417"><ele>219.0</ele><time>2026-05-01T16:28:48Z</time></trkpt><trkpt lat="43.397259741301696" lon="11.199202596352329"><ele>220.0</ele><time>2026-05-01T16:28:49Z</time></trkpt><trkpt lat="43.39735992558226" lon="11.198991730072414"><ele>217.66666666666666</ele><time>2026-05-01T16:28:50Z</time></trkpt><trkpt lat="43.3974624196651" lon="11.198779496111724"><ele>215.33333333333331</ele><time>2026-05-01T16:28:51Z</time></trkpt><trkpt lat="43.39756451535" lon="11.198564695483096"><ele>213.0</ele><time>2026-05-01T16:28:52Z</time></trkpt><trkpt lat="43.39766562975912" lon="11.198351002505149"><ele>211.33333333333331</ele><time>2026-05-01T16:28:53Z</time></trkpt><trkpt lat="43.397766261410254" lon="11.198139306763485"><ele>209.66666666666666</ele><time>2026-05-01T16:28:54Z</time></trkpt><trkpt lat="43.39786953312078" lon="11.197926377831433"><ele>208.0</ele><time>2026-05-01T16:28:55Z</time></trkpt><trkpt lat="43.397970420197574" lon="11.19771380169261"><ele>208.33333333333331</ele><time>2026-05-01T16:28:56Z</time></trkpt><trkpt lat="43.39807446556826" lon="11.19750336102003"><ele>208.66666666666669</ele><time>2026-05-01T16:28:57Z</time></trkpt><trkpt lat="43.39817423255976" lon="11.197293111530637"><ele>209.0</ele><time>2026-05-01T16:28:58Z</time></trkpt><trkpt lat="43.398274915844375" lon="11.197087122852633"><ele>209.0</ele><time>2026-05-01T16:28:59Z</time></trkpt><trkpt lat="43.398374630219074" lon="11.196878270269613"><ele>209.0</ele><time>2026-05-01T16:29:00Z</time></trkpt><trkpt lat="43.39847250521918" lon="11.196671328115976"><ele>209.0</ele><time>2026-05-01T16:29:01Z</time></trkpt><trkpt lat="43.39857112284277" lon="11.19646412592213"><ele>209.0</ele><time>2026-05-01T16:29:02Z</time></trkpt><trkpt lat="43.39867157907938" lon="11.196258019020888"><ele>209.0</ele><time>2026-05-01T16:29:03Z</time></trkpt><trkpt lat="43.398771404425204" lon="11.196051514412138"><ele>209.0</ele><time>2026-05-01T16:29:04Z</time></trkpt><trkpt lat="43.39887037107223" lon="11.19584412975636"><ele>209.33333333333334</ele><time>2026-05-01T16:29:05Z</time></trkpt><trkpt lat="43.39897298874106" lon="11.195636546095693"><ele>209.66666666666669</ele><time>2026-05-01T16:29:06Z</time></trkpt><trkpt lat="43.39907562508239" lon="11.195420288878806"><ele>210.0</ele><time>2026-05-01T16:29:07Z</time></trkpt><trkpt lat="43.39917873664462" lon="11.19520788097778"><ele>210.0</ele><time>2026-05-01T16:29:08Z</time></trkpt><trkpt lat="43.39928216504216" lon="11.194992738364911"><ele>210.0</ele><time>2026-05-01T16:29:09Z</time></trkpt><trkpt lat="43.39938452589396" lon="11.194774907298653"><ele>210.0</ele><time>2026-05-01T16:29:10Z</time></trkpt><trkpt lat="43.39949004577089" lon="11.194565355130761"><ele>210.0</ele><time>2026-05-01T16:29:11Z</time></trkpt><trkpt lat="43.39959307258578" lon="11.194356107351256"><ele>210.0</ele><time>2026-05-01T16:29:12Z</time></trkpt><trkpt lat="43.39969535332779" lon="11.194149388656683"><ele>210.0</ele><time>2026-05-01T16:29:13Z</time></trkpt><trkpt lat="43.399794594923186" lon="11.193934181260778"><ele>210.0</ele><time>2026-05-01T16:29:14Z</time></trkpt><trkpt lat="43.39989190778994" lon="11.19371841663602"><ele>210.0</ele><time>2026-05-01T16:29:15Z</time></trkpt><trkpt lat="43.39999234363529" lon="11.193505926693382"><ele>210.0</ele><time>2026-05-01T16:29:16Z</time></trkpt><trkpt lat="43.40009291815767" lon="11.193303972063836"><ele>209.66666666666669</ele><time>2026-05-01T16:29:17Z</time></trkpt><trkpt lat="43.400192292674745" lon="11.193093897604427"><ele>209.33333333333334</ele><time>2026-05-01T16:29:18Z</time></trkpt><trkpt lat="43.40029277616565" lon="11.192887506002648"><ele>209.0</ele><time>2026-05-01T16:29:19Z</time></trkpt><trkpt lat="43.40039204752649" lon="11.192679031736034"><ele>209.0</ele><time>2026-05-01T16:29:20Z</time></trkpt><trkpt lat="43.40049318028334" lon="11.192470383575419"><ele>209.0</ele><time>2026-05-01T16:29:21Z</time></trkpt><trkpt lat="43.40059548672798" lon="11.192258940746319"><ele>209.0</ele><time>2026-05-01T16:29:22Z</time></trkpt><trkpt lat="43.400696685550166" lon="11.192049765150696"><ele>209.33333333333334</ele><time>2026-05-01T16:29:23Z</time></trkpt><trkpt lat="43.40080039106993" lon="11.191837051465253"><ele>209.66666666666669</ele><time>2026-05-01T16:29:24Z</time></trkpt><trkpt lat="43.40090357163102" lon="11.19162395854042"><ele>210.0</ele><time>2026-05-01T16:29:25Z</time></trkpt><trkpt lat="43.40100677824066" lon="11.191409055507634"><ele>210.0</ele><time>2026-05-01T16:29:26Z</time></trkpt><trkpt lat="43.40111263381934" lon="11.19119358218336"><ele>210.0</ele><time>2026-05-01T16:29:27Z</time></trkpt><trkpt lat="43.401217097446455" lon="11.190976157142705"><ele>210.0</ele><time>2026-05-01T16:29:28Z</time></trkpt><trkpt lat="43.40132254314572" lon="11.19076262931769"><ele>209.66666666666669</ele><time>2026-05-01T16:29:29Z</time></trkpt><trkpt lat="43.401428503445146" lon="11.190544313958007"><ele>209.33333333333334</ele><time>2026-05-01T16:29:30Z</time></trkpt><trkpt lat="43.40153550046382" lon="11.190325268721246"><ele>209.0</ele><time>2026-05-01T16:29:31Z</time></trkpt><trkpt lat="43.40164076260871" lon="11.190108308985463"><ele>209.0</ele><time>2026-05-01T16:29:32Z</time></trkpt><trkpt lat="43.401745586242846" lon="11.189891635684893"><ele>209.0</ele><time>2026-05-01T16:29:33Z</time></trkpt><trkpt lat="43.40184966899187" lon="11.189679974966644"><ele>209.0</ele><time>2026-05-01T16:29:34Z</time></trkpt><trkpt lat="43.40195234660962" lon="11.189468065273953"><ele>209.0</ele><time>2026-05-01T16:29:35Z</time></trkpt><trkpt lat="43.402058699592295" lon="11.189258352184607"><ele>209.0</ele><time>2026-05-01T16:29:36Z</time></trkpt><trkpt lat="43.402162925977215" lon="11.18904584030455"><ele>209.0</ele><time>2026-05-01T16:29:37Z</time></trkpt><trkpt lat="43.402265743207955" lon="11.188831055447784"><ele>209.66666666666669</ele><time>2026-05-01T16:29:38Z</time></trkpt><trkpt lat="43.40236903253081" lon="11.188617945943957"><ele>210.33333333333331</ele><time>2026-05-01T16:29:39Z</time></trkpt><trkpt lat="43.40247138937927" lon="11.188404101762517"><ele>211.0</ele><time>2026-05-01T16:29:40Z</time></trkpt><trkpt lat="43.402576024475636" lon="11.188193114095121"><ele>210.66666666666666</ele><time>2026-05-01T16:29:41Z</time></trkpt><trkpt lat="43.40267605533175" lon="11.187979312727194"><ele>210.33333333333331</ele><time>2026-05-01T16:29:42Z</time></trkpt><trkpt lat="43.40277677206169" lon="11.187766609904712"><ele>210.0</ele><time>2026-05-01T16:29:43Z</time></trkpt><trkpt lat="43.40287846724872" lon="11.187557127387315"><ele>210.0</ele><time>2026-05-01T16:29:44Z</time></trkpt><trkpt lat="43.402982289393506" lon="11.187354917159189"><ele>210.0</ele><time>2026-05-01T16:29:45Z</time></trkpt><trkpt lat="43.403083546012276" lon="11.187147487162111"><ele>210.0</ele><time>2026-05-01T16:29:46Z</time></trkpt><trkpt lat="43.40318237774419" lon="11.186935928761544"><ele>210.66666666666669</ele><time>2026-05-01T16:29:47Z</time></trkpt><trkpt lat="43.40328574845217" lon="11.186724888508275"><ele>211.33333333333334</ele><time>2026-05-01T16:29:48Z</time></trkpt><trkpt lat="43.40338793210384" lon="11.186512867275214"><ele>212.0</ele><time>2026-05-01T16:29:49Z</time></trkpt><trkpt lat="43.403486498296495" lon="11.186303992695004"><ele>212.33333333333334</ele><time>2026-05-01T16:29:50Z</time></trkpt><trkpt lat="43.40358636462665" lon="11.186095887031446"><ele>212.66666666666669</ele><time>2026-05-01T16:29:51Z</time></trkpt><trkpt lat="43.403686529159444" lon="11.185890481042788"><ele>213.0</ele><time>2026-05-01T16:29:52Z</time></trkpt><trkpt lat="43.40378473699851" lon="11.185687691877584"><ele>213.33333333333331</ele><time>2026-05-01T16:29:53Z</time></trkpt><trkpt lat="43.40388150840652" lon="11.185490059593642"><ele>213.66666666666666</ele><time>2026-05-01T16:29:54Z</time></trkpt><trkpt lat="43.40397736314975" lon="11.185288240717384"><ele>214.0</ele><time>2026-05-01T16:29:55Z</time></trkpt><trkpt lat="43.4040727498354" lon="11.185089381138171"><ele>214.0</ele><time>2026-05-01T16:29:56Z</time></trkpt><trkpt lat="43.404166652934926" lon="11.184892136136847"><ele>214.0</ele><time>2026-05-01T16:29:57Z</time></trkpt><trkpt lat="43.404260234558706" lon="11.184694695180887"><ele>214.0</ele><time>2026-05-01T16:29:58Z</time></trkpt><trkpt lat="43.404355091858065" lon="11.184501171426424"><ele>215.0</ele><time>2026-05-01T16:29:59Z</time></trkpt><trkpt lat="43.40444997899502" lon="11.184307250941666"><ele>216.0</ele><time>2026-05-01T16:30:00Z</time></trkpt><trkpt lat="43.40454824831454" lon="11.18410651503065"><ele>217.0</ele><time>2026-05-01T16:30:01Z</time></trkpt><trkpt lat="43.4046441443383" lon="11.183907813281968"><ele>217.66666666666666</ele><time>2026-05-01T16:30:02Z</time></trkpt><trkpt lat="43.40473767245646" lon="11.183707596920417"><ele>218.33333333333331</ele><time>2026-05-01T16:30:03Z</time></trkpt><trkpt lat="43.40483451149536" lon="11.183509985883116"><ele>219.0</ele><time>2026-05-01T16:30:04Z</time></trkpt><trkpt lat="43.40492842041344" lon="11.183315032757761"><ele>220.0</ele><time>2026-05-01T16:30:05Z</time></trkpt><trkpt lat="43.40502555201766" lon="11.183120362315751"><ele>221.0</ele><time>2026-05-01T16:30:06Z</time></trkpt><trkpt lat="43.405120396553315" lon="11.182925520833116"><ele>222.0</ele><time>2026-05-01T16:30:07Z</time></trkpt><trkpt lat="43.40521462456666" lon="11.182734775049406"><ele>222.0</ele><time>2026-05-01T16:30:08Z</time></trkpt><trkpt lat="43.405311517476676" lon="11.18253967534713"><ele>222.0</ele><time>2026-05-01T16:30:09Z</time></trkpt><trkpt lat="43.40540867913552" lon="11.182342059409365"><ele>222.0</ele><time>2026-05-01T16:30:10Z</time></trkpt><trkpt lat="43.40550599172738" lon="11.182144742180926"><ele>222.66666666666669</ele><time>2026-05-01T16:30:11Z</time></trkpt><trkpt lat="43.40559729701741" lon="11.181931444572"><ele>223.33333333333334</ele><time>2026-05-01T16:30:12Z</time></trkpt><trkpt lat="43.405695159495764" lon="11.181727945521905"><ele>224.0</ele><time>2026-05-01T16:30:13Z</time></trkpt><trkpt lat="43.40579569760557" lon="11.181524873582672"><ele>223.66666666666669</ele><time>2026-05-01T16:30:14Z</time></trkpt><trkpt lat="43.40589420547459" lon="11.181326305693704"><ele>223.33333333333331</ele><time>2026-05-01T16:30:15Z</time></trkpt><trkpt lat="43.40598911070428" lon="11.181125189210128"><ele>223.0</ele><time>2026-05-01T16:30:16Z</time></trkpt><trkpt lat="43.40608523209554" lon="11.180929208606917"><ele>223.0</ele><time>2026-05-01T16:30:17Z</time></trkpt><trkpt lat="43.406181627607054" lon="11.18073253311081"><ele>223.0</ele><time>2026-05-01T16:30:18Z</time></trkpt><trkpt lat="43.406275582627835" lon="11.180535226795604"><ele>223.0</ele><time>2026-05-01T16:30:19Z</time></trkpt><trkpt lat="43.40636925651904" lon="11.180330260122258"><ele>222.33333333333331</ele><time>2026-05-01T16:30:20Z</time></trkpt><trkpt lat="43.4064680776389" lon="11.18013209218033"><ele>221.66666666666669</ele><time>2026-05-01T16:30:21Z</time></trkpt><trkpt lat="43.40656207645538" lon="11.179923717499618"><ele>221.0</ele><time>2026-05-01T16:30:22Z</time></trkpt><trkpt lat="43.406653801398384" lon="11.179713089663812"><ele>220.0</ele><time>2026-05-01T16:30:23Z</time></trkpt><trkpt lat="43.4067461680104" lon="11.179501786165616"><ele>219.0</ele><time>2026-05-01T16:30:24Z</time></trkpt><trkpt lat="43.406832019887304" lon="11.179286144608225"><ele>218.0</ele><time>2026-05-01T16:30:25Z</time></trkpt><trkpt lat="43.40691931140685" lon="11.17906620829262"><ele>217.33333333333334</ele><time>2026-05-01T16:30:26Z</time></trkpt><trkpt lat="43.40701735534465" lon="11.178848063382754"><ele>216.66666666666669</ele><time>2026-05-01T16:30:27Z</time></trkpt><trkpt lat="43.407105788884735" lon="11.178632859161937"><ele>216.0</ele><time>2026-05-01T16:30:28Z</time></trkpt><trkpt lat="43.40719106598777" lon="11.178416446857202"><ele>218.0</ele><time>2026-05-01T16:30:29Z</time></trkpt><trkpt lat="43.40727210212262" lon="11.178200698672677"><ele>220.0</ele><time>2026-05-01T16:30:30Z</time></trkpt><trkpt lat="43.407353370333766" lon="11.177982084139582"><ele>222.0</ele><time>2026-05-01T16:30:31Z</time></trkpt><trkpt lat="43.40742702614342" lon="11.177763004293976"><ele>222.0</ele><time>2026-05-01T16:30:32Z</time></trkpt><trkpt lat="43.40749893667525" lon="11.177542029017353"><ele>222.0</ele><time>2026-05-01T16:30:33Z</time></trkpt><trkpt lat="43.407572221230325" lon="11.1773198509382"><ele>222.0</ele><time>2026-05-01T16:30:34Z</time></trkpt><trkpt lat="43.40764048663844" lon="11.177091537362074"><ele>221.0</ele><time>2026-05-01T16:30:35Z</time></trkpt><trkpt lat="43.40770658750867" lon="11.176860412460666"><ele>220.0</ele><time>2026-05-01T16:30:36Z</time></trkpt><trkpt lat="43.40777427298393" lon="11.17662699134666"><ele>219.0</ele><time>2026-05-01T16:30:37Z</time></trkpt><trkpt lat="43.40784393621174" lon="11.176389869727782"><ele>218.33333333333331</ele><time>2026-05-01T16:30:38Z</time></trkpt><trkpt lat="43.40791509131538" lon="11.176159329205479"><ele>217.66666666666666</ele><time>2026-05-01T16:30:39Z</time></trkpt><trkpt lat="43.40798449959357" lon="11.175926604351433"><ele>217.0</ele><time>2026-05-01T16:30:40Z</time></trkpt><trkpt lat="43.408051035746254" lon="11.175692810992608"><ele>220.33333333333331</ele><time>2026-05-01T16:30:41Z</time></trkpt><trkpt lat="43.40811768934575" lon="11.17545759257335"><ele>223.66666666666669</ele><time>2026-05-01T16:30:42Z</time></trkpt><trkpt lat="43.40818427539045" lon="11.17522730400964"><ele>227.0</ele><time>2026-05-01T16:30:43Z</time></trkpt><trkpt lat="43.4082513758659" lon="11.174999162770325"><ele>226.33333333333334</ele><time>2026-05-01T16:30:44Z</time></trkpt><trkpt lat="43.40831770455632" lon="11.17477507821518"><ele>225.66666666666669</ele><time>2026-05-01T16:30:45Z</time></trkpt><trkpt lat="43.40838138231848" lon="11.17454260208533"><ele>225.0</ele><time>2026-05-01T16:30:46Z</time></trkpt><trkpt lat="43.4084478024207" lon="11.174316617835768"><ele>225.0</ele><time>2026-05-01T16:30:47Z</time></trkpt><trkpt lat="43.408512718385474" lon="11.1740875658208"><ele>225.0</ele><time>2026-05-01T16:30:48Z</time></trkpt><trkpt lat="43.40857873132544" lon="11.17385514089941"><ele>225.0</ele><time>2026-05-01T16:30:49Z</time></trkpt><trkpt lat="43.4086463701571" lon="11.173623500071733"><ele>224.33333333333331</ele><time>2026-05-01T16:30:50Z</time></trkpt><trkpt lat="43.40871378076257" lon="11.173392057274894"><ele>223.66666666666666</ele><time>2026-05-01T16:30:51Z</time></trkpt><trkpt lat="43.40878189369892" lon="11.173159849514267"><ele>223.0</ele><time>2026-05-01T16:30:52Z</time></trkpt><trkpt lat="43.408851312459234" lon="11.17292467233438"><ele>223.0</ele><time>2026-05-01T16:30:53Z</time></trkpt><trkpt lat="43.4089229698972" lon="11.172693545669544"><ele>223.0</ele><time>2026-05-01T16:30:54Z</time></trkpt><trkpt lat="43.408991905931586" lon="11.172462271990861"><ele>223.0</ele><time>2026-05-01T16:30:55Z</time></trkpt><trkpt lat="43.40905716777309" lon="11.172236775512026"><ele>223.33333333333331</ele><time>2026-05-01T16:30:56Z</time></trkpt><trkpt lat="43.40912172206156" lon="11.172017125060904"><ele>223.66666666666669</ele><time>2026-05-01T16:30:57Z</time></trkpt><trkpt lat="43.40918646646701" lon="11.171795570121404"><ele>224.0</ele><time>2026-05-01T16:30:58Z</time></trkpt><trkpt lat="43.409249960343224" lon="11.171575477104378"><ele>224.0</ele><time>2026-05-01T16:30:59Z</time></trkpt><trkpt lat="43.40931700785088" lon="11.171352842081227"><ele>224.0</ele><time>2026-05-01T16:31:00Z</time></trkpt><trkpt lat="43.40938346033972" lon="11.171126943152094"><ele>224.0</ele><time>2026-05-01T16:31:01Z</time></trkpt><trkpt lat="43.409452904939926" lon="11.170904417231943"><ele>223.33333333333334</ele><time>2026-05-01T16:31:02Z</time></trkpt><trkpt lat="43.409516855248306" lon="11.17067422740956"><ele>222.66666666666669</ele><time>2026-05-01T16:31:03Z</time></trkpt><trkpt lat="43.40958091132979" lon="11.170446288862424"><ele>222.0</ele><time>2026-05-01T16:31:04Z</time></trkpt><trkpt lat="43.4096468893829" lon="11.1702230295059"><ele>222.66666666666669</ele><time>2026-05-01T16:31:05Z</time></trkpt><trkpt lat="43.409710639570896" lon="11.169994287523057"><ele>223.33333333333334</ele><time>2026-05-01T16:31:06Z</time></trkpt><trkpt lat="43.40977785981004" lon="11.169770763037114"><ele>224.0</ele><time>2026-05-01T16:31:07Z</time></trkpt><trkpt lat="43.409846329540166" lon="11.169549100799815"><ele>224.0</ele><time>2026-05-01T16:31:08Z</time></trkpt><trkpt lat="43.40991201702159" lon="11.169326345049907"><ele>224.0</ele><time>2026-05-01T16:31:09Z</time></trkpt><trkpt lat="43.4099808173108" lon="11.169103100133784"><ele>224.0</ele><time>2026-05-01T16:31:10Z</time></trkpt><trkpt lat="43.41004468533228" lon="11.168876538480497"><ele>224.33333333333334</ele><time>2026-05-01T16:31:11Z</time></trkpt><trkpt lat="43.41011039147124" lon="11.168650459565717"><ele>224.66666666666669</ele><time>2026-05-01T16:31:12Z</time></trkpt><trkpt lat="43.41017800252577" lon="11.168429551344293"><ele>225.0</ele><time>2026-05-01T16:31:13Z</time></trkpt><trkpt lat="43.41024331427515" lon="11.168211479283837"><ele>225.66666666666669</ele><time>2026-05-01T16:31:14Z</time></trkpt><trkpt lat="43.41030770476982" lon="11.16798791257134"><ele>226.33333333333334</ele><time>2026-05-01T16:31:15Z</time></trkpt><trkpt lat="43.410373038292356" lon="11.167766203150007"><ele>227.0</ele><time>2026-05-01T16:31:16Z</time></trkpt><trkpt lat="43.41044132927513" lon="11.167544308216595"><ele>226.66666666666669</ele><time>2026-05-01T16:31:17Z</time></trkpt><trkpt lat="43.410509003468654" lon="11.16731938123265"><ele>226.33333333333331</ele><time>2026-05-01T16:31:18Z</time></trkpt><trkpt lat="43.410583422130415" lon="11.167097261111392"><ele>226.0</ele><time>2026-05-01T16:31:19Z</time></trkpt><trkpt lat="43.41065884917772" lon="11.166875661119654"><ele>226.0</ele><time>2026-05-01T16:31:20Z</time></trkpt><trkpt lat="43.41073632245901" lon="11.166648199086527"><ele>226.0</ele><time>2026-05-01T16:31:21Z</time></trkpt><trkpt lat="43.41082220248969" lon="11.166430919592445"><ele>226.0</ele><time>2026-05-01T16:31:22Z</time></trkpt><trkpt lat="43.410908930327835" lon="11.166218060830364"><ele>226.0</ele><time>2026-05-01T16:31:23Z</time></trkpt><trkpt lat="43.41099824822421" lon="11.166009239769837"><ele>226.0</ele><time>2026-05-01T16:31:24Z</time></trkpt><trkpt lat="43.41108714398829" lon="11.1657999958616"><ele>226.0</ele><time>2026-05-01T16:31:25Z</time></trkpt><trkpt lat="43.411180696417425" lon="11.16559406554105"><ele>226.0</ele><time>2026-05-01T16:31:26Z</time></trkpt><trkpt lat="43.411279736079074" lon="11.165392088321418"><ele>226.0</ele><time>2026-05-01T16:31:27Z</time></trkpt><trkpt lat="43.41137967262671" lon="11.165193188753701"><ele>226.0</ele><time>2026-05-01T16:31:28Z</time></trkpt><trkpt lat="43.41148321760743" lon="11.164994657126254"><ele>226.0</ele><time>2026-05-01T16:31:29Z</time></trkpt><trkpt lat="43.41158520666519" lon="11.16479765454521"><ele>226.0</ele><time>2026-05-01T16:31:30Z</time></trkpt><trkpt lat="43.41169421904233" lon="11.164607265805863"><ele>226.0</ele><time>2026-05-01T16:31:31Z</time></trkpt><trkpt lat="43.41180582820532" lon="11.164418110242766"><ele>226.0</ele><time>2026-05-01T16:31:32Z</time></trkpt><trkpt lat="43.41192108122217" lon="11.164232130587639"><ele>226.0</ele><time>2026-05-01T16:31:33Z</time></trkpt><trkpt lat="43.41203693397275" lon="11.164048410002561"><ele>226.0</ele><time>2026-05-01T16:31:34Z</time></trkpt><trkpt lat="43.41215949989353" lon="11.163867682478568"><ele>225.66666666666666</ele><time>2026-05-01T16:31:35Z</time></trkpt><trkpt lat="43.41227986990549" lon="11.163684387885128"><ele>225.33333333333331</ele><time>2026-05-01T16:31:36Z</time></trkpt><trkpt lat="43.4124046302607" lon="11.163505030611963"><ele>225.0</ele><time>2026-05-01T16:31:37Z</time></trkpt><trkpt lat="43.41253143711285" lon="11.163325041670653"><ele>225.66666666666669</ele><time>2026-05-01T16:31:38Z</time></trkpt><trkpt lat="43.412659203109484" lon="11.16314360427716"><ele>226.33333333333334</ele><time>2026-05-01T16:31:39Z</time></trkpt><trkpt lat="43.41278446486806" lon="11.162957063797489"><ele>227.0</ele><time>2026-05-01T16:31:40Z</time></trkpt><trkpt lat="43.412911364837285" lon="11.162766065593622"><ele>226.66666666666669</ele><time>2026-05-01T16:31:41Z</time></trkpt><trkpt lat="43.4130388235376" lon="11.162580398920632"><ele>226.33333333333331</ele><time>2026-05-01T16:31:42Z</time></trkpt><trkpt lat="43.41316519595196" lon="11.162397419411361"><ele>226.0</ele><time>2026-05-01T16:31:43Z</time></trkpt><trkpt lat="43.413298833926476" lon="11.16221741063622"><ele>226.66666666666666</ele><time>2026-05-01T16:31:44Z</time></trkpt><trkpt lat="43.41342994699606" lon="11.162036510784118"><ele>227.33333333333331</ele><time>2026-05-01T16:31:45Z</time></trkpt><trkpt lat="43.413557380588095" lon="11.161855324219282"><ele>228.0</ele><time>2026-05-01T16:31:46Z</time></trkpt><trkpt lat="43.413684687361794" lon="11.161672234497576"><ele>228.0</ele><time>2026-05-01T16:31:47Z</time></trkpt><trkpt lat="43.41380693574756" lon="11.161488851595916"><ele>228.0</ele><time>2026-05-01T16:31:48Z</time></trkpt><trkpt lat="43.41393430063701" lon="11.161303795833033"><ele>228.0</ele><time>2026-05-01T16:31:49Z</time></trkpt><trkpt lat="43.41406132404855" lon="11.161122481954555"><ele>228.33333333333331</ele><time>2026-05-01T16:31:50Z</time></trkpt><trkpt lat="43.41418957596767" lon="11.160942431589255"><ele>228.66666666666666</ele><time>2026-05-01T16:31:51Z</time></trkpt><trkpt lat="43.414315494976655" lon="11.160758832358836"><ele>229.0</ele><time>2026-05-01T16:31:52Z</time></trkpt><trkpt lat="43.41444578374355" lon="11.160571026102188"><ele>229.0</ele><time>2026-05-01T16:31:53Z</time></trkpt><trkpt lat="43.41457634933589" lon="11.160382527281614"><ele>229.0</ele><time>2026-05-01T16:31:54Z</time></trkpt><trkpt lat="43.414708516025364" lon="11.16019300889865"><ele>229.0</ele><time>2026-05-01T16:31:55Z</time></trkpt><trkpt lat="43.414840689270974" lon="11.160004427156194"><ele>229.33333333333331</ele><time>2026-05-01T16:31:56Z</time></trkpt><trkpt lat="43.41497115986111" lon="11.159817423911333"><ele>229.66666666666669</ele><time>2026-05-01T16:31:57Z</time></trkpt><trkpt lat="43.415102378087944" lon="11.159628657051865"><ele>230.0</ele><time>2026-05-01T16:31:58Z</time></trkpt><trkpt lat="43.415234206175306" lon="11.159442057756433"><ele>230.0</ele><time>2026-05-01T16:31:59Z</time></trkpt><trkpt lat="43.415367866472444" lon="11.159253387923123"><ele>230.0</ele><time>2026-05-01T16:32:00Z</time></trkpt><trkpt lat="43.415501452279116" lon="11.15905766422259"><ele>230.0</ele><time>2026-05-01T16:32:01Z</time></trkpt><trkpt lat="43.41563358015536" lon="11.158865550053276"><ele>230.33333333333334</ele><time>2026-05-01T16:32:02Z</time></trkpt><trkpt lat="43.415766634322345" lon="11.158669077613203"><ele>230.66666666666669</ele><time>2026-05-01T16:32:03Z</time></trkpt><trkpt lat="43.41590549644984" lon="11.158476415025547"><ele>231.0</ele><time>2026-05-01T16:32:04Z</time></trkpt><trkpt lat="43.41604764746957" lon="11.158285595858557"><ele>231.33333333333331</ele><time>2026-05-01T16:32:05Z</time></trkpt><trkpt lat="43.416186442294425" lon="11.158090535527823"><ele>231.66666666666666</ele><time>2026-05-01T16:32:06Z</time></trkpt><trkpt lat="43.41632112559435" lon="11.15788857495217"><ele>232.0</ele><time>2026-05-01T16:32:07Z</time></trkpt><trkpt lat="43.416457614319384" lon="11.157690419270802"><ele>232.0</ele><time>2026-05-01T16:32:08Z</time></trkpt><trkpt lat="43.41659451601794" lon="11.15749779656477"><ele>232.0</ele><time>2026-05-01T16:32:09Z</time></trkpt><trkpt lat="43.416727498943935" lon="11.157298260514475"><ele>232.0</ele><time>2026-05-01T16:32:10Z</time></trkpt><trkpt lat="43.41686486943583" lon="11.157102082233724"><ele>232.0</ele><time>2026-05-01T16:32:11Z</time></trkpt><trkpt lat="43.41700186926525" lon="11.15690515547014"><ele>232.0</ele><time>2026-05-01T16:32:12Z</time></trkpt><trkpt lat="43.41714013035713" lon="11.156706294226789"><ele>232.0</ele><time>2026-05-01T16:32:13Z</time></trkpt><trkpt lat="43.41728065926539" lon="11.156513408741302"><ele>232.0</ele><time>2026-05-01T16:32:14Z</time></trkpt><trkpt lat="43.41741635222354" lon="11.156316453850193"><ele>232.0</ele><time>2026-05-01T16:32:15Z</time></trkpt><trkpt lat="43.4175525262541" lon="11.156117746338214"><ele>232.0</ele><time>2026-05-01T16:32:16Z</time></trkpt><trkpt lat="43.41768728904478" lon="11.155922347435414"><ele>232.0</ele><time>2026-05-01T16:32:17Z</time></trkpt><trkpt lat="43.417822349142824" lon="11.155724243989438"><ele>232.0</ele><time>2026-05-01T16:32:18Z</time></trkpt><trkpt lat="43.417956544280514" lon="11.155526927194131"><ele>232.0</ele><time>2026-05-01T16:32:19Z</time></trkpt><trkpt lat="43.41809333138536" lon="11.155335056509209"><ele>231.0</ele><time>2026-05-01T16:32:20Z</time></trkpt><trkpt lat="43.4182297811812" lon="11.155137464189743"><ele>230.0</ele><time>2026-05-01T16:32:21Z</time></trkpt><trkpt lat="43.41836699184721" lon="11.154938419596547"><ele>229.0</ele><time>2026-05-01T16:32:22Z</time></trkpt><trkpt lat="43.418502426616136" lon="11.154740229499309"><ele>228.66666666666666</ele><time>2026-05-01T16:32:23Z</time></trkpt><trkpt lat="43.41863772014245" lon="11.154537355222113"><ele>228.33333333333331</ele><time>2026-05-01T16:32:24Z</time></trkpt><trkpt lat="43.41877411298242" lon="11.154331236379464"><ele>228.0</ele><time>2026-05-01T16:32:25Z</time></trkpt><trkpt lat="43.41891139757133" lon="11.154131448354994"><ele>226.0</ele><time>2026-05-01T16:32:26Z</time></trkpt><trkpt lat="43.419047951979614" lon="11.153933652305097"><ele>224.0</ele><time>2026-05-01T16:32:27Z</time></trkpt><trkpt lat="43.41918396176874" lon="11.15373598266244"><ele>222.0</ele><time>2026-05-01T16:32:28Z</time></trkpt><trkpt lat="43.41932259779174" lon="11.153539746673909"><ele>222.0</ele><time>2026-05-01T16:32:29Z</time></trkpt><trkpt lat="43.41946032309118" lon="11.15333768819993"><ele>222.0</ele><time>2026-05-01T16:32:30Z</time></trkpt><trkpt lat="43.419599787853976" lon="11.153140100828452"><ele>222.0</ele><time>2026-05-01T16:32:31Z</time></trkpt><trkpt lat="43.41973932548024" lon="11.152936622402699"><ele>220.0</ele><time>2026-05-01T16:32:32Z</time></trkpt><trkpt lat="43.41987841654086" lon="11.152733382660607"><ele>218.0</ele><time>2026-05-01T16:32:33Z</time></trkpt><trkpt lat="43.42002004956441" lon="11.15253196101826"><ele>216.0</ele><time>2026-05-01T16:32:34Z</time></trkpt><trkpt lat="43.42015970186884" lon="11.152334711939918"><ele>216.0</ele><time>2026-05-01T16:32:35Z</time></trkpt><trkpt lat="43.42030097958369" lon="11.152132950952158"><ele>216.0</ele><time>2026-05-01T16:32:36Z</time></trkpt><trkpt lat="43.42044107660323" lon="11.15193326757398"><ele>216.0</ele><time>2026-05-01T16:32:37Z</time></trkpt><trkpt lat="43.42057893656269" lon="11.15172983781241"><ele>213.33333333333331</ele><time>2026-05-01T16:32:38Z</time></trkpt><trkpt lat="43.4207193937209" lon="11.151529780775597"><ele>210.66666666666666</ele><time>2026-05-01T16:32:39Z</time></trkpt><trkpt lat="43.4208630586737" lon="11.151326821271734"><ele>208.0</ele><time>2026-05-01T16:32:40Z</time></trkpt><trkpt lat="43.42100731228485" lon="11.151128846902697"><ele>208.0</ele><time>2026-05-01T16:32:41Z</time></trkpt><trkpt lat="43.42115018203047" lon="11.150925319066557"><ele>208.0</ele><time>2026-05-01T16:32:42Z</time></trkpt><trkpt lat="43.42129111675639" lon="11.150723399504406"><ele>208.0</ele><time>2026-05-01T16:32:43Z</time></trkpt><trkpt lat="43.421430001243074" lon="11.150519585071534"><ele>205.33333333333331</ele><time>2026-05-01T16:32:44Z</time></trkpt><trkpt lat="43.42156912637134" lon="11.15031322243195"><ele>202.66666666666669</ele><time>2026-05-01T16:32:45Z</time></trkpt><trkpt lat="43.42171120561012" lon="11.150105502359239"><ele>200.0</ele><time>2026-05-01T16:32:46Z</time></trkpt><trkpt lat="43.42184651081881" lon="11.14990007184888"><ele>199.66666666666669</ele><time>2026-05-01T16:32:47Z</time></trkpt><trkpt lat="43.4219879154361" lon="11.149697724620143"><ele>199.33333333333331</ele><time>2026-05-01T16:32:48Z</time></trkpt><trkpt lat="43.42213052985395" lon="11.14949541440667"><ele>199.0</ele><time>2026-05-01T16:32:49Z</time></trkpt><trkpt lat="43.4222697359158" lon="11.149288632466849"><ele>195.66666666666666</ele><time>2026-05-01T16:32:50Z</time></trkpt><trkpt lat="43.4224121027714" lon="11.149089000019927"><ele>192.33333333333331</ele><time>2026-05-01T16:32:51Z</time></trkpt><trkpt lat="43.42255398064285" lon="11.148888429168395"><ele>189.0</ele><time>2026-05-01T16:32:52Z</time></trkpt><trkpt lat="43.42269557041289" lon="11.148680535045795"><ele>189.0</ele><time>2026-05-01T16:32:53Z</time></trkpt><trkpt lat="43.42283601010067" lon="11.148479251085988"><ele>189.0</ele><time>2026-05-01T16:32:54Z</time></trkpt><trkpt lat="43.42297409025362" lon="11.148278402550714"><ele>189.0</ele><time>2026-05-01T16:32:55Z</time></trkpt><trkpt lat="43.423115168762756" lon="11.148076864781604"><ele>186.0</ele><time>2026-05-01T16:32:56Z</time></trkpt><trkpt lat="43.42325802371132" lon="11.147876669468419"><ele>183.0</ele><time>2026-05-01T16:32:57Z</time></trkpt><trkpt lat="43.42339754437321" lon="11.147669035145956"><ele>180.0</ele><time>2026-05-01T16:32:58Z</time></trkpt><trkpt lat="43.42354161556491" lon="11.147463551841318"><ele>180.33333333333334</ele><time>2026-05-01T16:32:59Z</time></trkpt><trkpt lat="43.42368030315711" lon="11.147262753248366"><ele>180.66666666666669</ele><time>2026-05-01T16:33:00Z</time></trkpt><trkpt lat="43.423817887474165" lon="11.147059799751366"><ele>181.0</ele><time>2026-05-01T16:33:01Z</time></trkpt><trkpt lat="43.42395865604788" lon="11.146857125413614"><ele>179.0</ele><time>2026-05-01T16:33:02Z</time></trkpt><trkpt lat="43.42410111215976" lon="11.146662154629876"><ele>177.0</ele><time>2026-05-01T16:33:03Z</time></trkpt><trkpt lat="43.42424798421304" lon="11.146469275165623"><ele>175.0</ele><time>2026-05-01T16:33:04Z</time></trkpt><trkpt lat="43.42439704819789" lon="11.146284007501768"><ele>175.0</ele><time>2026-05-01T16:33:05Z</time></trkpt><trkpt lat="43.424552995177535" lon="11.1461073945377"><ele>175.0</ele><time>2026-05-01T16:33:06Z</time></trkpt><trkpt lat="43.424711478114816" lon="11.145935102572357"><ele>175.0</ele><time>2026-05-01T16:33:07Z</time></trkpt><trkpt lat="43.424872588090594" lon="11.145771665546045"><ele>173.33333333333334</ele><time>2026-05-01T16:33:08Z</time></trkpt><trkpt lat="43.42503885824146" lon="11.145611850910079"><ele>171.66666666666666</ele><time>2026-05-01T16:33:09Z</time></trkpt><trkpt lat="43.42521294569536" lon="11.145465956786989"><ele>170.0</ele><time>2026-05-01T16:33:10Z</time></trkpt><trkpt lat="43.42538935699971" lon="11.145333294750632"><ele>167.33333333333331</ele><time>2026-05-01T16:33:11Z</time></trkpt><trkpt lat="43.425567405178086" lon="11.145203020080814"><ele>164.66666666666666</ele><time>2026-05-01T16:33:12Z</time></trkpt><trkpt lat="43.425751808394104" lon="11.145089948231382"><ele>162.0</ele><time>2026-05-01T16:33:13Z</time></trkpt><trkpt lat="43.42593721993319" lon="11.14497958066867"><ele>163.0</ele><time>2026-05-01T16:33:14Z</time></trkpt><trkpt lat="43.42612770788701" lon="11.144877884719515"><ele>164.0</ele><time>2026-05-01T16:33:15Z</time></trkpt><trkpt lat="43.42631672404208" lon="11.144790014985501"><ele>165.0</ele><time>2026-05-01T16:33:16Z</time></trkpt><trkpt lat="43.42651528806087" lon="11.144714558845953"><ele>165.0</ele><time>2026-05-01T16:33:17Z</time></trkpt><trkpt lat="43.426717663677756" lon="11.144653565699866"><ele>165.0</ele><time>2026-05-01T16:33:18Z</time></trkpt><trkpt lat="43.42691752819291" lon="11.144594813755369"><ele>165.0</ele><time>2026-05-01T16:33:19Z</time></trkpt><trkpt lat="43.42711998326703" lon="11.144545462079105"><ele>164.0</ele><time>2026-05-01T16:33:20Z</time></trkpt><trkpt lat="43.4273263872459" lon="11.14451104730697"><ele>163.0</ele><time>2026-05-01T16:33:21Z</time></trkpt><trkpt lat="43.42753158502196" lon="11.144480760651332"><ele>162.0</ele><time>2026-05-01T16:33:22Z</time></trkpt><trkpt lat="43.42773734049415" lon="11.144461312988968"><ele>162.0</ele><time>2026-05-01T16:33:23Z</time></trkpt><trkpt lat="43.42794457730736" lon="11.14445004056812"><ele>162.0</ele><time>2026-05-01T16:33:24Z</time></trkpt><trkpt lat="43.428146766460166" lon="11.144445781356309"><ele>162.0</ele><time>2026-05-01T16:33:25Z</time></trkpt><trkpt lat="43.42834424774549" lon="11.144441044270705"><ele>161.33333333333334</ele><time>2026-05-01T16:33:26Z</time></trkpt><trkpt lat="43.42854158249289" lon="11.144437847262873"><ele>160.66666666666669</ele><time>2026-05-01T16:33:27Z</time></trkpt><trkpt lat="43.42874050016706" lon="11.144429193359306"><ele>160.0</ele><time>2026-05-01T16:33:28Z</time></trkpt><trkpt lat="43.42893827400965" lon="11.14442366593545"><ele>159.0</ele><time>2026-05-01T16:33:29Z</time></trkpt><trkpt lat="43.42913584346102" lon="11.144417321066706"><ele>158.0</ele><time>2026-05-01T16:33:30Z</time></trkpt><trkpt lat="43.42933170962439" lon="11.14440754100377"><ele>157.0</ele><time>2026-05-01T16:33:31Z</time></trkpt><trkpt lat="43.42952760081746" lon="11.144405195534494"><ele>155.66666666666669</ele><time>2026-05-01T16:33:32Z</time></trkpt><trkpt lat="43.42972636548004" lon="11.144401009969208"><ele>154.33333333333334</ele><time>2026-05-01T16:33:33Z</time></trkpt><trkpt lat="43.42992631670019" lon="11.144386560493944"><ele>153.0</ele><time>2026-05-01T16:33:34Z</time></trkpt><trkpt lat="43.43011694202069" lon="11.144388024784357"><ele>153.0</ele><time>2026-05-01T16:33:35Z</time></trkpt><trkpt lat="43.4303119728769" lon="11.144380294806524"><ele>153.0</ele><time>2026-05-01T16:33:36Z</time></trkpt><trkpt lat="43.43050864906405" lon="11.144377304723085"><ele>153.0</ele><time>2026-05-01T16:33:37Z</time></trkpt><trkpt lat="43.43070597631799" lon="11.144385677686198"><ele>151.0</ele><time>2026-05-01T16:33:38Z</time></trkpt><trkpt lat="43.430901429098355" lon="11.144394914320834"><ele>149.0</ele><time>2026-05-01T16:33:39Z</time></trkpt><trkpt lat="43.431088477271935" lon="11.144410508856463"><ele>147.0</ele><time>2026-05-01T16:33:40Z</time></trkpt><trkpt lat="43.43128234565304" lon="11.144435406639367"><ele>146.0</ele><time>2026-05-01T16:33:41Z</time></trkpt><trkpt lat="43.431469570092865" lon="11.14446587432433"><ele>145.0</ele><time>2026-05-01T16:33:42Z</time></trkpt><trkpt lat="43.43165668899612" lon="11.144507200924162"><ele>144.0</ele><time>2026-05-01T16:33:43Z</time></trkpt><trkpt lat="43.43183690640733" lon="11.144555833710264"><ele>144.0</ele><time>2026-05-01T16:33:44Z</time></trkpt><trkpt lat="43.43200698186799" lon="11.14462116441711"><ele>144.0</ele><time>2026-05-01T16:33:45Z</time></trkpt><trkpt lat="43.43217543782477" lon="11.14469596785853"><ele>144.0</ele><time>2026-05-01T16:33:46Z</time></trkpt><trkpt lat="43.43234199922672" lon="11.144765563297591"><ele>144.0</ele><time>2026-05-01T16:33:47Z</time></trkpt><trkpt lat="43.43250584282884" lon="11.14484389141663"><ele>144.0</ele><time>2026-05-01T16:33:48Z</time></trkpt><trkpt lat="43.43266424235878" lon="11.144923037331113"><ele>144.0</ele><time>2026-05-01T16:33:49Z</time></trkpt><trkpt lat="43.432820079140235" lon="11.144993761192291"><ele>140.66666666666666</ele><time>2026-05-01T16:33:50Z</time></trkpt><trkpt lat="43.43297560771536" lon="11.145070991715736"><ele>137.33333333333331</ele><time>2026-05-01T16:33:51Z</time></trkpt><trkpt lat="43.43312998013399" lon="11.145151819328298"><ele>134.0</ele><time>2026-05-01T16:33:52Z</time></trkpt><trkpt lat="43.43328737626803" lon="11.1452360515243"><ele>134.0</ele><time>2026-05-01T16:33:53Z</time></trkpt><trkpt lat="43.43344581988557" lon="11.145322649701482"><ele>134.0</ele><time>2026-05-01T16:33:54Z</time></trkpt><trkpt lat="43.43360582974099" lon="11.145409421840002"><ele>134.0</ele><time>2026-05-01T16:33:55Z</time></trkpt><trkpt lat="43.43377209529891" lon="11.14549293888495"><ele>135.66666666666666</ele><time>2026-05-01T16:33:56Z</time></trkpt><trkpt lat="43.43393931232822" lon="11.145576397675107"><ele>137.33333333333334</ele><time>2026-05-01T16:33:57Z</time></trkpt><trkpt lat="43.43410616095403" lon="11.14565925196108"><ele>139.0</ele><time>2026-05-01T16:33:58Z</time></trkpt><trkpt lat="43.43427225071549" lon="11.145744728056268"><ele>139.0</ele><time>2026-05-01T16:33:59Z</time></trkpt><trkpt lat="43.43443303194474" lon="11.14583013632466"><ele>139.0</ele><time>2026-05-01T16:34:00Z</time></trkpt><trkpt lat="43.4345924756119" lon="11.145904726548425"><ele>139.0</ele><time>2026-05-01T16:34:01Z</time></trkpt><trkpt lat="43.43474723971226" lon="11.145980109453282"><ele>139.33333333333334</ele><time>2026-05-01T16:34:02Z</time></trkpt><trkpt lat="43.4348945927881" lon="11.14605489741246"><ele>139.66666666666666</ele><time>2026-05-01T16:34:03Z</time></trkpt><trkpt lat="43.435043152106616" lon="11.146130399350696"><ele>140.0</ele><time>2026-05-01T16:34:04Z</time></trkpt><trkpt lat="43.43518831225725" lon="11.146205555085391"><ele>140.0</ele><time>2026-05-01T16:34:05Z</time></trkpt><trkpt lat="43.43533387693645" lon="11.146277343087984"><ele>140.0</ele><time>2026-05-01T16:34:06Z</time></trkpt><trkpt lat="43.435478220254645" lon="11.14634766020939"><ele>140.0</ele><time>2026-05-01T16:34:07Z</time></trkpt><trkpt lat="43.43561994001555" lon="11.146421341911491"><ele>141.33333333333331</ele><time>2026-05-01T16:34:08Z</time></trkpt><trkpt lat="43.43576048424874" lon="11.1464988560598"><ele>142.66666666666666</ele><time>2026-05-01T16:34:09Z</time></trkpt><trkpt lat="43.43590195809761" lon="11.146574618217866"><ele>144.0</ele><time>2026-05-01T16:34:10Z</time></trkpt><trkpt lat="43.43604319980176" lon="11.14664752876752"><ele>146.33333333333334</ele><time>2026-05-01T16:34:11Z</time></trkpt><trkpt lat="43.436187152532305" lon="11.146720411333229"><ele>148.66666666666669</ele><time>2026-05-01T16:34:12Z</time></trkpt><trkpt lat="43.436329846739994" lon="11.14679200475104"><ele>151.0</ele><time>2026-05-01T16:34:13Z</time></trkpt><trkpt lat="43.436473416861105" lon="11.146866561439332"><ele>151.66666666666669</ele><time>2026-05-01T16:34:14Z</time></trkpt><trkpt lat="43.43661584409805" lon="11.146941690632664"><ele>152.33333333333334</ele><time>2026-05-01T16:34:15Z</time></trkpt><trkpt lat="43.4367582943949" lon="11.147018235145124"><ele>153.0</ele><time>2026-05-01T16:34:16Z</time></trkpt><trkpt lat="43.436897881003695" lon="11.147091280415468"><ele>153.0</ele><time>2026-05-01T16:34:17Z</time></trkpt><trkpt lat="43.43703213356342" lon="11.147172194152793"><ele>153.0</ele><time>2026-05-01T16:34:18Z</time></trkpt><trkpt lat="43.43716539395291" lon="11.147257025634554"><ele>153.0</ele><time>2026-05-01T16:34:19Z</time></trkpt><trkpt lat="43.43729848052026" lon="11.147350349916941"><ele>153.0</ele><time>2026-05-01T16:34:20Z</time></trkpt><trkpt lat="43.437433172339624" lon="11.14744750721095"><ele>155.66666666666666</ele><time>2026-05-01T16:34:21Z</time></trkpt><trkpt lat="43.43757000980356" lon="11.147551062288983"><ele>158.33333333333331</ele><time>2026-05-01T16:34:22Z</time></trkpt><trkpt lat="43.43770166854609" lon="11.147672915932038"><ele>161.0</ele><time>2026-05-01T16:34:23Z</time></trkpt><trkpt lat="43.437828821318476" lon="11.147803873747485"><ele>161.0</ele><time>2026-05-01T16:34:24Z</time></trkpt><trkpt lat="43.43796074735177" lon="11.147940938459776"><ele>161.0</ele><time>2026-05-01T16:34:25Z</time></trkpt><trkpt lat="43.438086899873944" lon="11.148081427773233"><ele>161.0</ele><time>2026-05-01T16:34:26Z</time></trkpt><trkpt lat="43.43821256587635" lon="11.14822331983482"><ele>161.33333333333331</ele><time>2026-05-01T16:34:27Z</time></trkpt><trkpt lat="43.43834391559835" lon="11.148367665508557"><ele>161.66666666666666</ele><time>2026-05-01T16:34:28Z</time></trkpt><trkpt lat="43.43847658939367" lon="11.148511201098655"><ele>162.0</ele><time>2026-05-01T16:34:29Z</time></trkpt><trkpt lat="43.43860742792832" lon="11.148660564762965"><ele>162.0</ele><time>2026-05-01T16:34:30Z</time></trkpt><trkpt lat="43.43874135493933" lon="11.148809229895909"><ele>162.0</ele><time>2026-05-01T16:34:31Z</time></trkpt><trkpt lat="43.43888250463677" lon="11.148945112729798"><ele>162.0</ele><time>2026-05-01T16:34:32Z</time></trkpt><trkpt lat="43.43903062572621" lon="11.149068803814485"><ele>161.33333333333334</ele><time>2026-05-01T16:34:33Z</time></trkpt><trkpt lat="43.43917841803197" lon="11.149191875826107"><ele>160.66666666666669</ele><time>2026-05-01T16:34:34Z</time></trkpt><trkpt lat="43.439327037652866" lon="11.149305792587704"><ele>160.0</ele><time>2026-05-01T16:34:35Z</time></trkpt><trkpt lat="43.43947117910572" lon="11.149411141290342"><ele>160.0</ele><time>2026-05-01T16:34:36Z</time></trkpt><trkpt lat="43.439622879084325" lon="11.149506978932113"><ele>160.0</ele><time>2026-05-01T16:34:37Z</time></trkpt><trkpt lat="43.43978644401019" lon="11.149595431457675"><ele>160.0</ele><time>2026-05-01T16:34:38Z</time></trkpt><trkpt lat="43.43996102143489" lon="11.149674562228174"><ele>160.0</ele><time>2026-05-01T16:34:39Z</time></trkpt><trkpt lat="43.44013116634428" lon="11.149748511112406"><ele>160.0</ele><time>2026-05-01T16:34:40Z</time></trkpt><trkpt lat="43.440302622630064" lon="11.149823024307148"><ele>160.0</ele><time>2026-05-01T16:34:41Z</time></trkpt><trkpt lat="43.44048126231468" lon="11.149876513188381"><ele>155.33333333333334</ele><time>2026-05-01T16:34:42Z</time></trkpt><trkpt lat="43.44066348391639" lon="11.149931254615545"><ele>150.66666666666666</ele><time>2026-05-01T16:34:43Z</time></trkpt><trkpt lat="43.440842016709055" lon="11.149964440816857"><ele>146.0</ele><time>2026-05-01T16:34:44Z</time></trkpt><trkpt lat="43.441020168427464" lon="11.149996293100548"><ele>146.0</ele><time>2026-05-01T16:34:45Z</time></trkpt><trkpt lat="43.441201404018294" lon="11.150011720718961"><ele>146.0</ele><time>2026-05-01T16:34:46Z</time></trkpt><trkpt lat="43.44138232316124" lon="11.150019995375708"><ele>146.0</ele><time>2026-05-01T16:34:47Z</time></trkpt><trkpt lat="43.4415685810333" lon="11.150024356329835"><ele>145.0</ele><time>2026-05-01T16:34:48Z</time></trkpt><trkpt lat="43.44175371336526" lon="11.150023987399587"><ele>144.0</ele><time>2026-05-01T16:34:49Z</time></trkpt><trkpt lat="43.44194263663764" lon="11.150021248486503"><ele>143.0</ele><time>2026-05-01T16:34:50Z</time></trkpt><trkpt lat="43.442131401623236" lon="11.150022903956305"><ele>141.0</ele><time>2026-05-01T16:34:51Z</time></trkpt><trkpt lat="43.44232181581115" lon="11.150017846070778"><ele>139.0</ele><time>2026-05-01T16:34:52Z</time></trkpt><trkpt lat="43.44251337745567" lon="11.15001530608492"><ele>137.0</ele><time>2026-05-01T16:34:53Z</time></trkpt><trkpt lat="43.4427050132775" lon="11.150018367443831"><ele>137.0</ele><time>2026-05-01T16:34:54Z</time></trkpt><trkpt lat="43.44289545184934" lon="11.150014609092201"><ele>137.0</ele><time>2026-05-01T16:34:55Z</time></trkpt><trkpt lat="43.44308861128741" lon="11.150009656151227"><ele>137.0</ele><time>2026-05-01T16:34:56Z</time></trkpt><trkpt lat="43.443281571062" lon="11.150000092377038"><ele>135.33333333333331</ele><time>2026-05-01T16:34:57Z</time></trkpt><trkpt lat="43.443474345240304" lon="11.149996859910994"><ele>133.66666666666666</ele><time>2026-05-01T16:34:58Z</time></trkpt><trkpt lat="43.44366924909814" lon="11.149990047475459"><ele>132.0</ele><time>2026-05-01T16:34:59Z</time></trkpt><trkpt lat="43.44385890117736" lon="11.149994551934842"><ele>130.66666666666666</ele><time>2026-05-01T16:35:00Z</time></trkpt><trkpt lat="43.44405076376315" lon="11.149997196661605"><ele>129.33333333333331</ele><time>2026-05-01T16:35:01Z</time></trkpt><trkpt lat="43.44424119405055" lon="11.149999505247736"><ele>128.0</ele><time>2026-05-01T16:35:02Z</time></trkpt><trkpt lat="43.44443247230459" lon="11.150009748138476"><ele>128.0</ele><time>2026-05-01T16:35:03Z</time></trkpt><trkpt lat="43.44462493662083" lon="11.150027335872629"><ele>128.0</ele><time>2026-05-01T16:35:04Z</time></trkpt><trkpt lat="43.444815933275855" lon="11.150055545152671"><ele>128.0</ele><time>2026-05-01T16:35:05Z</time></trkpt><trkpt lat="43.44500600739097" lon="11.150096552480713"><ele>128.33333333333331</ele><time>2026-05-01T16:35:06Z</time></trkpt><trkpt lat="43.445195151119385" lon="11.150149179082586"><ele>128.66666666666666</ele><time>2026-05-01T16:35:07Z</time></trkpt><trkpt lat="43.44537982620624" lon="11.15021242417734"><ele>129.0</ele><time>2026-05-01T16:35:08Z</time></trkpt><trkpt lat="43.44556542201572" lon="11.150289484045636"><ele>129.0</ele><time>2026-05-01T16:35:09Z</time></trkpt><trkpt lat="43.445745165582814" lon="11.150379679223073"><ele>129.0</ele><time>2026-05-01T16:35:10Z</time></trkpt><trkpt lat="43.4459252228369" lon="11.150472799936551"><ele>129.0</ele><time>2026-05-01T16:35:11Z</time></trkpt><trkpt lat="43.4461005947992" lon="11.150575773907523"><ele>129.0</ele><time>2026-05-01T16:35:12Z</time></trkpt><trkpt lat="43.44627212648022" lon="11.150689712334714"><ele>129.0</ele><time>2026-05-01T16:35:13Z</time></trkpt><trkpt lat="43.44643667080154" lon="11.15081237135742"><ele>129.0</ele><time>2026-05-01T16:35:14Z</time></trkpt><trkpt lat="43.44659798798036" lon="11.15094796351737"><ele>126.33333333333334</ele><time>2026-05-01T16:35:15Z</time></trkpt><trkpt lat="43.446756130243244" lon="11.151093252668623"><ele>123.66666666666667</ele><time>2026-05-01T16:35:16Z</time></trkpt><trkpt lat="43.44690640682639" lon="11.151242451662872"><ele>121.0</ele><time>2026-05-01T16:35:17Z</time></trkpt><trkpt lat="43.44705919240752" lon="11.151396052879077"><ele>119.66666666666667</ele><time>2026-05-01T16:35:18Z</time></trkpt><trkpt lat="43.44720620666756" lon="11.151557840783653"><ele>118.33333333333334</ele><time>2026-05-01T16:35:19Z</time></trkpt><trkpt lat="43.44735727409385" lon="11.15171652516098"><ele>117.0</ele><time>2026-05-01T16:35:20Z</time></trkpt><trkpt lat="43.44750840315407" lon="11.151877461909285"><ele>117.0</ele><time>2026-05-01T16:35:21Z</time></trkpt><trkpt lat="43.44765928824643" lon="11.152042905375989"><ele>117.0</ele><time>2026-05-01T16:35:22Z</time></trkpt><trkpt lat="43.447813606371966" lon="11.152200075443726"><ele>117.0</ele><time>2026-05-01T16:35:23Z</time></trkpt><trkpt lat="43.44797048731484" lon="11.152354658625033"><ele>116.0</ele><time>2026-05-01T16:35:24Z</time></trkpt><trkpt lat="43.44813152984607" lon="11.152506350247142"><ele>115.0</ele><time>2026-05-01T16:35:25Z</time></trkpt><trkpt lat="43.44829401695095" lon="11.15265926460099"><ele>114.0</ele><time>2026-05-01T16:35:26Z</time></trkpt><trkpt lat="43.44845510034824" lon="11.152803903998286"><ele>114.0</ele><time>2026-05-01T16:35:27Z</time></trkpt><trkpt lat="43.44862182634855" lon="11.152946328405484"><ele>114.0</ele><time>2026-05-01T16:35:28Z</time></trkpt><trkpt lat="43.44879151345121" lon="11.153075943940092"><ele>114.0</ele><time>2026-05-01T16:35:29Z</time></trkpt><trkpt lat="43.44895859786223" lon="11.1532048055826"><ele>116.33333333333334</ele><time>2026-05-01T16:35:30Z</time></trkpt><trkpt lat="43.44912997629416" lon="11.153324869167754"><ele>118.66666666666667</ele><time>2026-05-01T16:35:31Z</time></trkpt><trkpt lat="43.44930771506573" lon="11.153435012984499"><ele>121.0</ele><time>2026-05-01T16:35:32Z</time></trkpt><trkpt lat="43.4494810994684" lon="11.153546259696329"><ele>122.0</ele><time>2026-05-01T16:35:33Z</time></trkpt><trkpt lat="43.44966147263196" lon="11.153652919047977"><ele>123.0</ele><time>2026-05-01T16:35:34Z</time></trkpt><trkpt lat="43.449840803689234" lon="11.153757754441893"><ele>124.0</ele><time>2026-05-01T16:35:35Z</time></trkpt><trkpt lat="43.450021337673135" lon="11.153861678409262"><ele>124.0</ele><time>2026-05-01T16:35:36Z</time></trkpt><trkpt lat="43.450202303728034" lon="11.153957927565951"><ele>124.0</ele><time>2026-05-01T16:35:37Z</time></trkpt><trkpt lat="43.45038243422127" lon="11.154050762219285"><ele>124.0</ele><time>2026-05-01T16:35:38Z</time></trkpt><trkpt lat="43.45056752162894" lon="11.154144997180012"><ele>123.0</ele><time>2026-05-01T16:35:39Z</time></trkpt><trkpt lat="43.450748892859735" lon="11.154237888695492"><ele>122.0</ele><time>2026-05-01T16:35:40Z</time></trkpt><trkpt lat="43.450926057803215" lon="11.154329362777913"><ele>121.0</ele><time>2026-05-01T16:35:41Z</time></trkpt><trkpt lat="43.451099667002495" lon="11.154420652386925"><ele>121.0</ele><time>2026-05-01T16:35:42Z</time></trkpt><trkpt lat="43.45126609110891" lon="11.154513120940202"><ele>121.0</ele><time>2026-05-01T16:35:43Z</time></trkpt><trkpt lat="43.45143505928607" lon="11.15461084775414"><ele>121.0</ele><time>2026-05-01T16:35:44Z</time></trkpt><trkpt lat="43.451601489295804" lon="11.154704982783837"><ele>118.33333333333334</ele><time>2026-05-01T16:35:45Z</time></trkpt><trkpt lat="43.45176894895816" lon="11.154798528254213"><ele>115.66666666666666</ele><time>2026-05-01T16:35:46Z</time></trkpt><trkpt lat="43.451937349466995" lon="11.154887163710054"><ele>113.0</ele><time>2026-05-01T16:35:47Z</time></trkpt><trkpt lat="43.452106216073126" lon="11.15497521004374"><ele>112.33333333333333</ele><time>2026-05-01T16:35:48Z</time></trkpt><trkpt lat="43.4522743702676" lon="11.15507212295008"><ele>111.66666666666666</ele><time>2026-05-01T16:35:49Z</time></trkpt><trkpt lat="43.45243704863632" lon="11.155173357731845"><ele>111.0</ele><time>2026-05-01T16:35:50Z</time></trkpt><trkpt lat="43.452599072263496" lon="11.155281172294007"><ele>111.0</ele><time>2026-05-01T16:35:51Z</time></trkpt><trkpt lat="43.45275926698856" lon="11.155398436365688"><ele>111.0</ele><time>2026-05-01T16:35:52Z</time></trkpt><trkpt lat="43.45291419052482" lon="11.155528325333753"><ele>111.0</ele><time>2026-05-01T16:35:53Z</time></trkpt><trkpt lat="43.45306940959353" lon="11.155663210889784"><ele>111.0</ele><time>2026-05-01T16:35:54Z</time></trkpt><trkpt lat="43.45321967621882" lon="11.155808211935543"><ele>111.0</ele><time>2026-05-01T16:35:55Z</time></trkpt><trkpt lat="43.453367148753784" lon="11.155956628503729"><ele>111.0</ele><time>2026-05-01T16:35:56Z</time></trkpt><trkpt lat="43.45351057327531" lon="11.156112596199408"><ele>111.0</ele><time>2026-05-01T16:35:57Z</time></trkpt><trkpt lat="43.45365261976608" lon="11.156278437912173"><ele>111.0</ele><time>2026-05-01T16:35:58Z</time></trkpt><trkpt lat="43.45379076790922" lon="11.156444756443204"><ele>111.0</ele><time>2026-05-01T16:35:59Z</time></trkpt><trkpt lat="43.45392019461028" lon="11.15662323584602"><ele>110.66666666666666</ele><time>2026-05-01T16:36:00Z</time></trkpt><trkpt lat="43.454050753846516" lon="11.15679649652042"><ele>110.33333333333333</ele><time>2026-05-01T16:36:01Z</time></trkpt><trkpt lat="43.45417872073022" lon="11.156968307668098"><ele>110.0</ele><time>2026-05-01T16:36:02Z</time></trkpt><trkpt lat="43.454305711901085" lon="11.157142950016732"><ele>110.0</ele><time>2026-05-01T16:36:03Z</time></trkpt><trkpt lat="43.4544314520836" lon="11.157314743695407"><ele>110.0</ele><time>2026-05-01T16:36:04Z</time></trkpt><trkpt lat="43.45455832422131" lon="11.157485648672191"><ele>110.0</ele><time>2026-05-01T16:36:05Z</time></trkpt><trkpt lat="43.45468497313556" lon="11.157662466779763"><ele>109.33333333333333</ele><time>2026-05-01T16:36:06Z</time></trkpt><trkpt lat="43.45481369810799" lon="11.15783649931082"><ele>108.66666666666666</ele><time>2026-05-01T16:36:07Z</time></trkpt><trkpt lat="43.45493918751825" lon="11.15800630090294"><ele>108.0</ele><time>2026-05-01T16:36:08Z</time></trkpt><trkpt lat="43.45506910797056" lon="11.158186617456076"><ele>108.33333333333334</ele><time>2026-05-01T16:36:09Z</time></trkpt><trkpt lat="43.45520170431279" lon="11.158363100654325"><ele>108.66666666666667</ele><time>2026-05-01T16:36:10Z</time></trkpt><trkpt lat="43.45533348010783" lon="11.158543753072792"><ele>109.0</ele><time>2026-05-01T16:36:11Z</time></trkpt><trkpt lat="43.45546797778572" lon="11.158725050312226"><ele>109.0</ele><time>2026-05-01T16:36:12Z</time></trkpt><trkpt lat="43.455601550874746" lon="11.158908450788125"><ele>109.0</ele><time>2026-05-01T16:36:13Z</time></trkpt><trkpt lat="43.45573762196548" lon="11.159095643528088"><ele>109.0</ele><time>2026-05-01T16:36:14Z</time></trkpt><trkpt lat="43.45587309133115" lon="11.159281992049271"><ele>110.33333333333334</ele><time>2026-05-01T16:36:15Z</time></trkpt><trkpt lat="43.456010580932976" lon="11.15946813823623"><ele>111.66666666666666</ele><time>2026-05-01T16:36:16Z</time></trkpt><trkpt lat="43.45614949389893" lon="11.159652574336224"><ele>113.0</ele><time>2026-05-01T16:36:17Z</time></trkpt><trkpt lat="43.456282947721746" lon="11.15984113981892"><ele>111.66666666666666</ele><time>2026-05-01T16:36:18Z</time></trkpt><trkpt lat="43.456417796765045" lon="11.160031503561587"><ele>110.33333333333334</ele><time>2026-05-01T16:36:19Z</time></trkpt><trkpt lat="43.45655342746944" lon="11.16021823798438"><ele>109.0</ele><time>2026-05-01T16:36:20Z</time></trkpt><trkpt lat="43.45668468995736" lon="11.160407156345526"><ele>109.0</ele><time>2026-05-01T16:36:21Z</time></trkpt><trkpt lat="43.456826802919" lon="11.160598638511724"><ele>109.0</ele><time>2026-05-01T16:36:22Z</time></trkpt><trkpt lat="43.45696505493373" lon="11.160786891009135"><ele>109.0</ele><time>2026-05-01T16:36:23Z</time></trkpt><trkpt lat="43.45710395794633" lon="11.160978960600387"><ele>109.0</ele><time>2026-05-01T16:36:24Z</time></trkpt><trkpt lat="43.45724281370326" lon="11.161170518140068"><ele>109.0</ele><time>2026-05-01T16:36:25Z</time></trkpt><trkpt lat="43.45737953301497" lon="11.161354354456199"><ele>109.0</ele><time>2026-05-01T16:36:26Z</time></trkpt><trkpt lat="43.457512919234084" lon="11.161539492162648"><ele>109.0</ele><time>2026-05-01T16:36:27Z</time></trkpt><trkpt lat="43.45765161469015" lon="11.161722906525094"><ele>109.0</ele><time>2026-05-01T16:36:28Z</time></trkpt><trkpt lat="43.457782698344595" lon="11.161901415713386"><ele>109.0</ele><time>2026-05-01T16:36:29Z</time></trkpt><trkpt lat="43.45792224709691" lon="11.162073548753119"><ele>107.66666666666667</ele><time>2026-05-01T16:36:30Z</time></trkpt><trkpt lat="43.45806559016805" lon="11.162241146442474"><ele>106.33333333333334</ele><time>2026-05-01T16:36:31Z</time></trkpt><trkpt lat="43.45821496159347" lon="11.162397569115075"><ele>105.0</ele><time>2026-05-01T16:36:32Z</time></trkpt><trkpt lat="43.45836892208285" lon="11.162541941961358"><ele>104.66666666666666</ele><time>2026-05-01T16:36:33Z</time></trkpt><trkpt lat="43.45852854200773" lon="11.162675644060531"><ele>104.33333333333333</ele><time>2026-05-01T16:36:34Z</time></trkpt><trkpt lat="43.45868942212121" lon="11.162799187895805"><ele>104.0</ele><time>2026-05-01T16:36:35Z</time></trkpt><trkpt lat="43.45885386211635" lon="11.162921619071366"><ele>105.33333333333333</ele><time>2026-05-01T16:36:36Z</time></trkpt><trkpt lat="43.45902132201398" lon="11.163041678438589"><ele>106.66666666666666</ele><time>2026-05-01T16:36:37Z</time></trkpt><trkpt lat="43.45919394862292" lon="11.163141325594413"><ele>108.0</ele><time>2026-05-01T16:36:38Z</time></trkpt><trkpt lat="43.459365470928276" lon="11.16323300109953"><ele>108.33333333333334</ele><time>2026-05-01T16:36:39Z</time></trkpt><trkpt lat="43.459534648834875" lon="11.16331387020664"><ele>108.66666666666667</ele><time>2026-05-01T16:36:40Z</time></trkpt><trkpt lat="43.459710741499585" lon="11.163385716014156"><ele>109.0</ele><time>2026-05-01T16:36:41Z</time></trkpt><trkpt lat="43.45988592037365" lon="11.163447582486835"><ele>108.33333333333334</ele><time>2026-05-01T16:36:42Z</time></trkpt><trkpt lat="43.46006781893911" lon="11.163492709953633"><ele>107.66666666666666</ele><time>2026-05-01T16:36:43Z</time></trkpt><trkpt lat="43.460250314563226" lon="11.163537381136035"><ele>107.0</ele><time>2026-05-01T16:36:44Z</time></trkpt><trkpt lat="43.46043173083543" lon="11.16356847150243"><ele>107.66666666666666</ele><time>2026-05-01T16:36:45Z</time></trkpt><trkpt lat="43.46061437040556" lon="11.163595278016977"><ele>108.33333333333334</ele><time>2026-05-01T16:36:46Z</time></trkpt><trkpt lat="43.46079996318053" lon="11.16360531753479"><ele>109.0</ele><time>2026-05-01T16:36:47Z</time></trkpt><trkpt lat="43.460987514344666" lon="11.163604065540596"><ele>109.0</ele><time>2026-05-01T16:36:48Z</time></trkpt><trkpt lat="43.46117871689032" lon="11.163592058183795"><ele>109.0</ele><time>2026-05-01T16:36:49Z</time></trkpt><trkpt lat="43.46137131783907" lon="11.163577348158036"><ele>109.0</ele><time>2026-05-01T16:36:50Z</time></trkpt><trkpt lat="43.46156081365573" lon="11.163567618552577"><ele>109.0</ele><time>2026-05-01T16:36:51Z</time></trkpt><trkpt lat="43.46175138764939" lon="11.16354770422259"><ele>109.0</ele><time>2026-05-01T16:36:52Z</time></trkpt><trkpt lat="43.46194003888247" lon="11.163537474470195"><ele>109.0</ele><time>2026-05-01T16:36:53Z</time></trkpt><trkpt lat="43.46213041057445" lon="11.163521833842305"><ele>109.0</ele><time>2026-05-01T16:36:54Z</time></trkpt><trkpt lat="43.46231979831827" lon="11.163506461215988"><ele>109.0</ele><time>2026-05-01T16:36:55Z</time></trkpt><trkpt lat="43.46250515619141" lon="11.163488235126513"><ele>109.0</ele><time>2026-05-01T16:36:56Z</time></trkpt><trkpt lat="43.46268744109608" lon="11.163464671970868"><ele>109.0</ele><time>2026-05-01T16:36:57Z</time></trkpt><trkpt lat="43.4628703851781" lon="11.163432418949787"><ele>109.0</ele><time>2026-05-01T16:36:58Z</time></trkpt><trkpt lat="43.46305019879971" lon="11.16339241515292"><ele>109.0</ele><time>2026-05-01T16:36:59Z</time></trkpt><trkpt lat="43.46323201974719" lon="11.163343930975527"><ele>109.0</ele><time>2026-05-01T16:37:00Z</time></trkpt><trkpt lat="43.463412954216395" lon="11.163285908859185"><ele>109.0</ele><time>2026-05-01T16:37:01Z</time></trkpt><trkpt lat="43.46359446207041" lon="11.163225096845347"><ele>109.0</ele><time>2026-05-01T16:37:02Z</time></trkpt><trkpt lat="43.46377297322379" lon="11.163157567189488"><ele>108.33333333333334</ele><time>2026-05-01T16:37:03Z</time></trkpt><trkpt lat="43.463950423381455" lon="11.16307951924298"><ele>107.66666666666666</ele><time>2026-05-01T16:37:04Z</time></trkpt><trkpt lat="43.46412613054128" lon="11.162997681088761"><ele>107.0</ele><time>2026-05-01T16:37:05Z</time></trkpt><trkpt lat="43.46429992960151" lon="11.162907812368616"><ele>107.0</ele><time>2026-05-01T16:37:06Z</time></trkpt><trkpt lat="43.46447164935929" lon="11.162808904638904"><ele>107.0</ele><time>2026-05-01T16:37:07Z</time></trkpt><trkpt lat="43.46464386751186" lon="11.162701361352344"><ele>107.0</ele><time>2026-05-01T16:37:08Z</time></trkpt><trkpt lat="43.46481443845776" lon="11.162583213200056"><ele>107.33333333333333</ele><time>2026-05-01T16:37:09Z</time></trkpt><trkpt lat="43.464983458575084" lon="11.162465254019347"><ele>107.66666666666666</ele><time>2026-05-01T16:37:10Z</time></trkpt><trkpt lat="43.465147634529984" lon="11.162340740842374"><ele>108.0</ele><time>2026-05-01T16:37:11Z</time></trkpt><trkpt lat="43.46530429124263" lon="11.162208544166377"><ele>108.33333333333334</ele><time>2026-05-01T16:37:12Z</time></trkpt><trkpt lat="43.46546462814686" lon="11.16207069112811"><ele>108.66666666666667</ele><time>2026-05-01T16:37:13Z</time></trkpt><trkpt lat="43.465621215646394" lon="11.161921744814926"><ele>109.0</ele><time>2026-05-01T16:37:14Z</time></trkpt><trkpt lat="43.465778557388376" lon="11.161766847221655"><ele>109.0</ele><time>2026-05-01T16:37:15Z</time></trkpt><trkpt lat="43.46593038076449" lon="11.161603889770337"><ele>109.0</ele><time>2026-05-01T16:37:16Z</time></trkpt><trkpt lat="43.466079208563556" lon="11.161436943188107"><ele>109.0</ele><time>2026-05-01T16:37:17Z</time></trkpt><trkpt lat="43.4662245860274" lon="11.161267333923876"><ele>107.66666666666667</ele><time>2026-05-01T16:37:18Z</time></trkpt><trkpt lat="43.46636828753235" lon="11.161088335548653"><ele>106.33333333333334</ele><time>2026-05-01T16:37:19Z</time></trkpt><trkpt lat="43.46650496307581" lon="11.16089598991827"><ele>105.0</ele><time>2026-05-01T16:37:20Z</time></trkpt><trkpt lat="43.4666398057928" lon="11.160703915090165"><ele>104.33333333333334</ele><time>2026-05-01T16:37:21Z</time></trkpt><trkpt lat="43.466769042944264" lon="11.160500571427514"><ele>103.66666666666667</ele><time>2026-05-01T16:37:22Z</time></trkpt><trkpt lat="43.46689651070858" lon="11.160295944856541"><ele>103.0</ele><time>2026-05-01T16:37:23Z</time></trkpt><trkpt lat="43.46702093245553" lon="11.16008450697526"><ele>102.33333333333334</ele><time>2026-05-01T16:37:24Z</time></trkpt><trkpt lat="43.46713709976968" lon="11.159860541967804"><ele>101.66666666666666</ele><time>2026-05-01T16:37:25Z</time></trkpt><trkpt lat="43.467250119355604" lon="11.159635169025528"><ele>101.0</ele><time>2026-05-01T16:37:26Z</time></trkpt><trkpt lat="43.46735996845838" lon="11.15940178080333"><ele>101.0</ele><time>2026-05-01T16:37:27Z</time></trkpt><trkpt lat="43.467468621405814" lon="11.159169757792384"><ele>101.0</ele><time>2026-05-01T16:37:28Z</time></trkpt><trkpt lat="43.4676050081452" lon="11.15896597605198"><ele>101.0</ele><time>2026-05-01T16:37:29Z</time></trkpt><trkpt lat="43.46768555572501" lon="11.15870271752587"><ele>101.0</ele><time>2026-05-01T16:37:30Z</time></trkpt><trkpt lat="43.467793875318065" lon="11.158477145027252"><ele>101.0</ele><time>2026-05-01T16:37:31Z</time></trkpt><trkpt lat="43.46790478452356" lon="11.15824768431044"><ele>101.0</ele><time>2026-05-01T16:37:32Z</time></trkpt><trkpt lat="43.468010716409516" lon="11.158022316701441"><ele>101.66666666666666</ele><time>2026-05-01T16:37:33Z</time></trkpt><trkpt lat="43.468113101320874" lon="11.157793410854726"><ele>102.33333333333334</ele><time>2026-05-01T16:37:34Z</time></trkpt><trkpt lat="43.4682170559931" lon="11.157569969817297"><ele>103.0</ele><time>2026-05-01T16:37:35Z</time></trkpt><trkpt lat="43.46832223315415" lon="11.157353636899419"><ele>103.0</ele><time>2026-05-01T16:37:36Z</time></trkpt><trkpt lat="43.468426213654176" lon="11.157135132688435"><ele>103.0</ele><time>2026-05-01T16:37:37Z</time></trkpt><trkpt lat="43.46852972930735" lon="11.156919984450974"><ele>103.0</ele><time>2026-05-01T16:37:38Z</time></trkpt><trkpt lat="43.46863452581617" lon="11.156702468264417"><ele>103.0</ele><time>2026-05-01T16:37:39Z</time></trkpt><trkpt lat="43.46874477288277" lon="11.15649288909796"><ele>103.0</ele><time>2026-05-01T16:37:40Z</time></trkpt><trkpt lat="43.46886157622604" lon="11.156292301975723"><ele>103.0</ele><time>2026-05-01T16:37:41Z</time></trkpt><trkpt lat="43.46897697341401" lon="11.156094518263822"><ele>103.0</ele><time>2026-05-01T16:37:42Z</time></trkpt><trkpt lat="43.46909971730826" lon="11.155909375774726"><ele>103.0</ele><time>2026-05-01T16:37:43Z</time></trkpt><trkpt lat="43.469228424553044" lon="11.15573093255548"><ele>103.0</ele><time>2026-05-01T16:37:44Z</time></trkpt><trkpt lat="43.46936324331988" lon="11.155555146255347"><ele>103.0</ele><time>2026-05-01T16:37:45Z</time></trkpt><trkpt lat="43.469501019732576" lon="11.155384163521083"><ele>103.0</ele><time>2026-05-01T16:37:46Z</time></trkpt><trkpt lat="43.469642645765994" lon="11.15521484506164"><ele>103.0</ele><time>2026-05-01T16:37:47Z</time></trkpt><trkpt lat="43.469786151750185" lon="11.155051421476172"><ele>103.0</ele><time>2026-05-01T16:37:48Z</time></trkpt><trkpt lat="43.46993615788717" lon="11.154898617496999"><ele>103.0</ele><time>2026-05-01T16:37:49Z</time></trkpt><trkpt lat="43.47008663134337" lon="11.15474825056188"><ele>103.0</ele><time>2026-05-01T16:37:50Z</time></trkpt><trkpt lat="43.47024062491425" lon="11.154607933349107"><ele>103.33333333333334</ele><time>2026-05-01T16:37:51Z</time></trkpt><trkpt lat="43.470394772266125" lon="11.154468199999975"><ele>103.66666666666666</ele><time>2026-05-01T16:37:52Z</time></trkpt><trkpt lat="43.47055674552896" lon="11.15433731668633"><ele>104.0</ele><time>2026-05-01T16:37:53Z</time></trkpt><trkpt lat="43.470722640262395" lon="11.154217262507977"><ele>104.66666666666666</ele><time>2026-05-01T16:37:54Z</time></trkpt><trkpt lat="43.47088812141394" lon="11.154097940623078"><ele>105.33333333333334</ele><time>2026-05-01T16:37:55Z</time></trkpt><trkpt lat="43.47105507602871" lon="11.153982414797294"><ele>106.0</ele><time>2026-05-01T16:37:56Z</time></trkpt><trkpt lat="43.47122746347988" lon="11.153879682413084"><ele>106.0</ele><time>2026-05-01T16:37:57Z</time></trkpt><trkpt lat="43.47139975442752" lon="11.15378299725439"><ele>106.0</ele><time>2026-05-01T16:37:58Z</time></trkpt><trkpt lat="43.47157569776734" lon="11.15369805341669"><ele>106.0</ele><time>2026-05-01T16:37:59Z</time></trkpt><trkpt lat="43.471757906651916" lon="11.153615218264797"><ele>106.0</ele><time>2026-05-01T16:38:00Z</time></trkpt><trkpt lat="43.4719374653093" lon="11.153533592685454"><ele>106.0</ele><time>2026-05-01T16:38:01Z</time></trkpt><trkpt lat="43.47211523543846" lon="11.153448729068518"><ele>106.0</ele><time>2026-05-01T16:38:02Z</time></trkpt><trkpt lat="43.47229087692028" lon="11.153367393140309"><ele>105.33333333333334</ele><time>2026-05-01T16:38:03Z</time></trkpt><trkpt lat="43.47246284163513" lon="11.15328804614494"><ele>104.66666666666666</ele><time>2026-05-01T16:38:04Z</time></trkpt><trkpt lat="43.47263519151701" lon="11.153209567413585"><ele>104.0</ele><time>2026-05-01T16:38:05Z</time></trkpt><trkpt lat="43.47280982830548" lon="11.153129859987615"><ele>105.33333333333333</ele><time>2026-05-01T16:38:06Z</time></trkpt><trkpt lat="43.4729800127325" lon="11.153054794443358"><ele>106.66666666666666</ele><time>2026-05-01T16:38:07Z</time></trkpt><trkpt lat="43.47315163819952" lon="11.152970149377296"><ele>108.0</ele><time>2026-05-01T16:38:08Z</time></trkpt><trkpt lat="43.47332377558774" lon="11.152889004038924"><ele>108.0</ele><time>2026-05-01T16:38:09Z</time></trkpt><trkpt lat="43.47349269826764" lon="11.152806536463093"><ele>108.0</ele><time>2026-05-01T16:38:10Z</time></trkpt><trkpt lat="43.473665317456735" lon="11.152725872106394"><ele>108.0</ele><time>2026-05-01T16:38:11Z</time></trkpt><trkpt lat="43.47383444147388" lon="11.152647709527752"><ele>110.0</ele><time>2026-05-01T16:38:12Z</time></trkpt><trkpt lat="43.4740055412364" lon="11.152563376716015"><ele>112.0</ele><time>2026-05-01T16:38:13Z</time></trkpt><trkpt lat="43.47417687602911" lon="11.152481177901219"><ele>114.0</ele><time>2026-05-01T16:38:14Z</time></trkpt><trkpt lat="43.4743444282978" lon="11.152403053429456"><ele>115.33333333333334</ele><time>2026-05-01T16:38:15Z</time></trkpt><trkpt lat="43.474515258184795" lon="11.152328387337668"><ele>116.66666666666667</ele><time>2026-05-01T16:38:16Z</time></trkpt><trkpt lat="43.474690834538585" lon="11.1522652233115"><ele>118.0</ele><time>2026-05-01T16:38:17Z</time></trkpt><trkpt lat="43.47486834914369" lon="11.152219047087122"><ele>118.0</ele><time>2026-05-01T16:38:18Z</time></trkpt><trkpt lat="43.47504620575909" lon="11.152172044537423"><ele>118.0</ele><time>2026-05-01T16:38:19Z</time></trkpt><trkpt lat="43.4752240489164" lon="11.152134491973491"><ele>118.0</ele><time>2026-05-01T16:38:20Z</time></trkpt><trkpt lat="43.47539901079382" lon="11.152096448113996"><ele>120.0</ele><time>2026-05-01T16:38:21Z</time></trkpt><trkpt lat="43.4755711190563" lon="11.15205619104757"><ele>122.0</ele><time>2026-05-01T16:38:22Z</time></trkpt><trkpt lat="43.475738311528644" lon="11.152001483815413"><ele>124.0</ele><time>2026-05-01T16:38:23Z</time></trkpt><trkpt lat="43.47591256304473" lon="11.151945411235626"><ele>124.0</ele><time>2026-05-01T16:38:24Z</time></trkpt><trkpt lat="43.47608258560934" lon="11.151874814779362"><ele>124.0</ele><time>2026-05-01T16:38:25Z</time></trkpt><trkpt lat="43.47625151911641" lon="11.151784829515064"><ele>124.0</ele><time>2026-05-01T16:38:26Z</time></trkpt><trkpt lat="43.476422314468735" lon="11.151698270755775"><ele>127.0</ele><time>2026-05-01T16:38:27Z</time></trkpt><trkpt lat="43.476590224007346" lon="11.151605794266816"><ele>130.0</ele><time>2026-05-01T16:38:28Z</time></trkpt><trkpt lat="43.476760622687756" lon="11.151516157659007"><ele>133.0</ele><time>2026-05-01T16:38:29Z</time></trkpt><trkpt lat="43.476927966004546" lon="11.151422404712704"><ele>133.0</ele><time>2026-05-01T16:38:30Z</time></trkpt><trkpt lat="43.47709380385764" lon="11.151324505854461"><ele>133.0</ele><time>2026-05-01T16:38:31Z</time></trkpt><trkpt lat="43.47726704179154" lon="11.15123113470214"><ele>133.0</ele><time>2026-05-01T16:38:32Z</time></trkpt><trkpt lat="43.47743946322452" lon="11.151139884182196"><ele>133.0</ele><time>2026-05-01T16:38:33Z</time></trkpt><trkpt lat="43.47760797332799" lon="11.151047548308695"><ele>133.0</ele><time>2026-05-01T16:38:34Z</time></trkpt><trkpt lat="43.47777492739563" lon="11.150949966764127"><ele>133.0</ele><time>2026-05-01T16:38:35Z</time></trkpt><trkpt lat="43.4779425363757" lon="11.150857686786217"><ele>133.33333333333334</ele><time>2026-05-01T16:38:36Z</time></trkpt><trkpt lat="43.47810801955381" lon="11.150759859782449"><ele>133.66666666666666</ele><time>2026-05-01T16:38:37Z</time></trkpt><trkpt lat="43.478276815424145" lon="11.150670908799112"><ele>134.0</ele><time>2026-05-01T16:38:38Z</time></trkpt><trkpt lat="43.478444417185095" lon="11.150568953951545"><ele>131.66666666666666</ele><time>2026-05-01T16:38:39Z</time></trkpt><trkpt lat="43.478612031156295" lon="11.150472133868586"><ele>129.33333333333334</ele><time>2026-05-01T16:38:40Z</time></trkpt><trkpt lat="43.478778272721094" lon="11.15037948641194"><ele>127.0</ele><time>2026-05-01T16:38:41Z</time></trkpt><trkpt lat="43.47894661614458" lon="11.150284662076286"><ele>124.66666666666667</ele><time>2026-05-01T16:38:42Z</time></trkpt><trkpt lat="43.479117138035015" lon="11.15019725105791"><ele>122.33333333333334</ele><time>2026-05-01T16:38:43Z</time></trkpt><trkpt lat="43.47929368107407" lon="11.150117467457587"><ele>120.0</ele><time>2026-05-01T16:38:44Z</time></trkpt><trkpt lat="43.47946956546478" lon="11.15005834883731"><ele>119.0</ele><time>2026-05-01T16:38:45Z</time></trkpt><trkpt lat="43.479647675780946" lon="11.15000387044046"><ele>118.0</ele><time>2026-05-01T16:38:46Z</time></trkpt><trkpt lat="43.47982885461127" lon="11.149959604685412"><ele>117.0</ele><time>2026-05-01T16:38:47Z</time></trkpt><trkpt lat="43.48001025984022" lon="11.149924178289611"><ele>117.0</ele><time>2026-05-01T16:38:48Z</time></trkpt><trkpt lat="43.48019210081557" lon="11.149901250542035"><ele>117.0</ele><time>2026-05-01T16:38:49Z</time></trkpt><trkpt lat="43.480375506234694" lon="11.149889824071241"><ele>117.0</ele><time>2026-05-01T16:38:50Z</time></trkpt><trkpt lat="43.480558071832974" lon="11.149884234363931"><ele>119.66666666666666</ele><time>2026-05-01T16:38:51Z</time></trkpt><trkpt lat="43.480741717322545" lon="11.149888996190434"><ele>122.33333333333333</ele><time>2026-05-01T16:38:52Z</time></trkpt><trkpt lat="43.48092674876518" lon="11.149903539263388"><ele>125.0</ele><time>2026-05-01T16:38:53Z</time></trkpt><trkpt lat="43.481110599282324" lon="11.149926762073717"><ele>125.33333333333333</ele><time>2026-05-01T16:38:54Z</time></trkpt><trkpt lat="43.48129387094154" lon="11.149959146207026"><ele>125.66666666666666</ele><time>2026-05-01T16:38:55Z</time></trkpt><trkpt lat="43.481474689112936" lon="11.150007855161508"><ele>126.0</ele><time>2026-05-01T16:38:56Z</time></trkpt><trkpt lat="43.48165734516312" lon="11.150069603754892"><ele>126.0</ele><time>2026-05-01T16:38:57Z</time></trkpt><trkpt lat="43.481835998630125" lon="11.150135931081996"><ele>126.0</ele><time>2026-05-01T16:38:58Z</time></trkpt><trkpt lat="43.48201197511686" lon="11.150210919254059"><ele>126.0</ele><time>2026-05-01T16:38:59Z</time></trkpt><trkpt lat="43.48218982926987" lon="11.150304435003427"><ele>124.66666666666666</ele><time>2026-05-01T16:39:00Z</time></trkpt><trkpt lat="43.48236290747837" lon="11.150403627716164"><ele>123.33333333333333</ele><time>2026-05-01T16:39:01Z</time></trkpt><trkpt lat="43.48253306885085" lon="11.150511943519657"><ele>122.0</ele><time>2026-05-01T16:39:02Z</time></trkpt><trkpt lat="43.48270371170259" lon="11.150640910510777"><ele>123.0</ele><time>2026-05-01T16:39:03Z</time></trkpt><trkpt lat="43.48287112725678" lon="11.150785147502036"><ele>124.0</ele><time>2026-05-01T16:39:04Z</time></trkpt><trkpt lat="43.48303911311297" lon="11.150919080123472"><ele>125.0</ele><time>2026-05-01T16:39:05Z</time></trkpt><trkpt lat="43.483200891549444" lon="11.151065640732396"><ele>123.0</ele><time>2026-05-01T16:39:06Z</time></trkpt><trkpt lat="43.48336143038859" lon="11.151218362728027"><ele>121.0</ele><time>2026-05-01T16:39:07Z</time></trkpt><trkpt lat="43.48352458883311" lon="11.151375365824663"><ele>119.0</ele><time>2026-05-01T16:39:08Z</time></trkpt><trkpt lat="43.48368111478218" lon="11.15153212922065"><ele>116.33333333333333</ele><time>2026-05-01T16:39:09Z</time></trkpt><trkpt lat="43.483836320206215" lon="11.151685583062708"><ele>113.66666666666666</ele><time>2026-05-01T16:39:10Z</time></trkpt><trkpt lat="43.483990517047964" lon="11.151839772856889"><ele>111.0</ele><time>2026-05-01T16:39:11Z</time></trkpt><trkpt lat="43.484144010093885" lon="11.151991609034784"><ele>111.0</ele><time>2026-05-01T16:39:12Z</time></trkpt><trkpt lat="43.48429257523933" lon="11.152150279279216"><ele>111.0</ele><time>2026-05-01T16:39:13Z</time></trkpt><trkpt lat="43.48444332720215" lon="11.152302059086168"><ele>111.0</ele><time>2026-05-01T16:39:14Z</time></trkpt><trkpt lat="43.48459193584153" lon="11.152454652143"><ele>110.66666666666666</ele><time>2026-05-01T16:39:15Z</time></trkpt><trkpt lat="43.48474335203689" lon="11.152600309415387"><ele>110.33333333333333</ele><time>2026-05-01T16:39:16Z</time></trkpt><trkpt lat="43.48488851359321" lon="11.152748097271514"><ele>110.0</ele><time>2026-05-01T16:39:17Z</time></trkpt><trkpt lat="43.48503777266869" lon="11.152898373695146"><ele>110.0</ele><time>2026-05-01T16:39:18Z</time></trkpt><trkpt lat="43.48517956349094" lon="11.153047200006704"><ele>110.0</ele><time>2026-05-01T16:39:19Z</time></trkpt><trkpt lat="43.48532671505873" lon="11.153199184162048"><ele>110.0</ele><time>2026-05-01T16:39:20Z</time></trkpt><trkpt lat="43.485459714561514" lon="11.153370003142442"><ele>111.0</ele><time>2026-05-01T16:39:21Z</time></trkpt><trkpt lat="43.48559062337576" lon="11.153548780732693"><ele>112.0</ele><time>2026-05-01T16:39:22Z</time></trkpt><trkpt lat="43.485717161196455" lon="11.153740206678766"><ele>113.0</ele><time>2026-05-01T16:39:23Z</time></trkpt><trkpt lat="43.48583417906278" lon="11.153942944110254"><ele>113.0</ele><time>2026-05-01T16:39:24Z</time></trkpt><trkpt lat="43.48595413268235" lon="11.154150257252157"><ele>113.0</ele><time>2026-05-01T16:39:25Z</time></trkpt><trkpt lat="43.48606954899388" lon="11.15436317642148"><ele>113.0</ele><time>2026-05-01T16:39:26Z</time></trkpt><trkpt lat="43.486174620983164" lon="11.154586327911748"><ele>114.0</ele><time>2026-05-01T16:39:27Z</time></trkpt><trkpt lat="43.48626913402337" lon="11.154817393818526"><ele>115.0</ele><time>2026-05-01T16:39:28Z</time></trkpt><trkpt lat="43.48635673281611" lon="11.155050730828236"><ele>116.0</ele><time>2026-05-01T16:39:29Z</time></trkpt><trkpt lat="43.486442005019555" lon="11.155287637016544"><ele>116.33333333333333</ele><time>2026-05-01T16:39:30Z</time></trkpt><trkpt lat="43.48651520095674" lon="11.155528699985211"><ele>116.66666666666666</ele><time>2026-05-01T16:39:31Z</time></trkpt><trkpt lat="43.48657989222696" lon="11.1557706924589"><ele>117.0</ele><time>2026-05-01T16:39:32Z</time></trkpt><trkpt lat="43.48663670113018" lon="11.156017175437631"><ele>118.0</ele><time>2026-05-01T16:39:33Z</time></trkpt><trkpt lat="43.48668701141488" lon="11.156266655894326"><ele>119.0</ele><time>2026-05-01T16:39:34Z</time></trkpt><trkpt lat="43.48673220406945" lon="11.15651886708722"><ele>120.0</ele><time>2026-05-01T16:39:35Z</time></trkpt><trkpt lat="43.48676926317827" lon="11.156770126749315"><ele>120.33333333333334</ele><time>2026-05-01T16:39:36Z</time></trkpt><trkpt lat="43.486802216021154" lon="11.15701922829585"><ele>120.66666666666667</ele><time>2026-05-01T16:39:37Z</time></trkpt><trkpt lat="43.48683688553696" lon="11.157268353328043"><ele>121.0</ele><time>2026-05-01T16:39:38Z</time></trkpt><trkpt lat="43.48687106374571" lon="11.1575093626366"><ele>121.0</ele><time>2026-05-01T16:39:39Z</time></trkpt><trkpt lat="43.486900236148365" lon="11.157732652291884"><ele>121.0</ele><time>2026-05-01T16:39:40Z</time></trkpt><trkpt lat="43.48692758767724" lon="11.157960459779167"><ele>121.0</ele><time>2026-05-01T16:39:41Z</time></trkpt><trkpt lat="43.486951708232766" lon="11.158169717553745"><ele>120.66666666666667</ele><time>2026-05-01T16:39:42Z</time></trkpt><trkpt lat="43.48697933582469" lon="11.158383928404486"><ele>120.33333333333334</ele><time>2026-05-01T16:39:43Z</time></trkpt><trkpt lat="43.48700283731949" lon="11.158596602574782"><ele>120.0</ele><time>2026-05-01T16:39:44Z</time></trkpt><trkpt lat="43.48703176466087" lon="11.158814148087263"><ele>120.0</ele><time>2026-05-01T16:39:45Z</time></trkpt><trkpt lat="43.4870618503876" lon="11.159033852364574"><ele>120.0</ele><time>2026-05-01T16:39:46Z</time></trkpt><trkpt lat="43.48709097213546" lon="11.159257310176006"><ele>120.0</ele><time>2026-05-01T16:39:47Z</time></trkpt><trkpt lat="43.487120930203815" lon="11.159479869895968"><ele>122.0</ele><time>2026-05-01T16:39:48Z</time></trkpt><trkpt lat="43.48715143365773" lon="11.159709942519104"><ele>124.0</ele><time>2026-05-01T16:39:49Z</time></trkpt><trkpt lat="43.4871834812619" lon="11.159944569147632"><ele>126.0</ele><time>2026-05-01T16:39:50Z</time></trkpt><trkpt lat="43.48721648940996" lon="11.160185049619807"><ele>126.0</ele><time>2026-05-01T16:39:51Z</time></trkpt><trkpt lat="43.48724452052953" lon="11.160433141221787"><ele>126.0</ele><time>2026-05-01T16:39:52Z</time></trkpt><trkpt lat="43.48727732824284" lon="11.160683157718415"><ele>126.0</ele><time>2026-05-01T16:39:53Z</time></trkpt><trkpt lat="43.4873088285169" lon="11.160940077227291"><ele>126.33333333333334</ele><time>2026-05-01T16:39:54Z</time></trkpt><trkpt lat="43.48734736708924" lon="11.161195875536759"><ele>126.66666666666667</ele><time>2026-05-01T16:39:55Z</time></trkpt><trkpt lat="43.48738195979779" lon="11.16145218715903"><ele>127.0</ele><time>2026-05-01T16:39:56Z</time></trkpt><trkpt lat="43.487416316552995" lon="11.161709696538656"><ele>126.33333333333334</ele><time>2026-05-01T16:39:57Z</time></trkpt><trkpt lat="43.48744884601549" lon="11.161969038812158"><ele>125.66666666666666</ele><time>2026-05-01T16:39:58Z</time></trkpt><trkpt lat="43.48747977813007" lon="11.162226887916203"><ele>125.0</ele><time>2026-05-01T16:39:59Z</time></trkpt><trkpt lat="43.48751496310952" lon="11.16248518176517"><ele>125.0</ele><time>2026-05-01T16:40:00Z</time></trkpt><trkpt lat="43.48754745210408" lon="11.162746751672145"><ele>125.0</ele><time>2026-05-01T16:40:01Z</time></trkpt><trkpt lat="43.48758044876381" lon="11.163002121274696"><ele>125.0</ele><time>2026-05-01T16:40:02Z</time></trkpt><trkpt lat="43.48761388495107" lon="11.163259400996361"><ele>124.33333333333333</ele><time>2026-05-01T16:40:03Z</time></trkpt><trkpt lat="43.48764822604959" lon="11.163514944931883"><ele>123.66666666666666</ele><time>2026-05-01T16:40:04Z</time></trkpt><trkpt lat="43.48768031262568" lon="11.163769751196995"><ele>123.0</ele><time>2026-05-01T16:40:05Z</time></trkpt><trkpt lat="43.48771210850355" lon="11.164020029051478"><ele>123.33333333333334</ele><time>2026-05-01T16:40:06Z</time></trkpt><trkpt lat="43.48774482726012" lon="11.164267363366267"><ele>123.66666666666667</ele><time>2026-05-01T16:40:07Z</time></trkpt><trkpt lat="43.4877766919589" lon="11.164506680434748"><ele>124.0</ele><time>2026-05-01T16:40:08Z</time></trkpt><trkpt lat="43.487805247201656" lon="11.164743544410555"><ele>124.0</ele><time>2026-05-01T16:40:09Z</time></trkpt><trkpt lat="43.4878376873309" lon="11.164978555244325"><ele>124.0</ele><time>2026-05-01T16:40:10Z</time></trkpt><trkpt lat="43.48787289311465" lon="11.165202868576646"><ele>124.0</ele><time>2026-05-01T16:40:11Z</time></trkpt><trkpt lat="43.48790406736366" lon="11.165427759603908"><ele>125.33333333333334</ele><time>2026-05-01T16:40:12Z</time></trkpt><trkpt lat="43.48793437819577" lon="11.165653853493113"><ele>126.66666666666666</ele><time>2026-05-01T16:40:13Z</time></trkpt><trkpt lat="43.48796531727198" lon="11.165877910293792"><ele>128.0</ele><time>2026-05-01T16:40:14Z</time></trkpt><trkpt lat="43.48800590286409" lon="11.16610584168572"><ele>128.0</ele><time>2026-05-01T16:40:15Z</time></trkpt><trkpt lat="43.488045583573616" lon="11.166336083058921"><ele>128.0</ele><time>2026-05-01T16:40:16Z</time></trkpt><trkpt lat="43.48808072786997" lon="11.166558367389321"><ele>128.0</ele><time>2026-05-01T16:40:17Z</time></trkpt><trkpt lat="43.48812006336832" lon="11.166780009231214"><ele>129.0</ele><time>2026-05-01T16:40:18Z</time></trkpt><trkpt lat="43.48815922283257" lon="11.167000998642512"><ele>130.0</ele><time>2026-05-01T16:40:19Z</time></trkpt><trkpt lat="43.488198581710265" lon="11.16721583664921"><ele>131.0</ele><time>2026-05-01T16:40:20Z</time></trkpt><trkpt lat="43.48823758873773" lon="11.16741651270966"><ele>131.0</ele><time>2026-05-01T16:40:21Z</time></trkpt><trkpt lat="43.48827938534067" lon="11.167613694742428"><ele>131.0</ele><time>2026-05-01T16:40:22Z</time></trkpt><trkpt lat="43.488327382088464" lon="11.167808697058424"><ele>131.0</ele><time>2026-05-01T16:40:23Z</time></trkpt><trkpt lat="43.48837420073841" lon="11.167986487631094"><ele>131.0</ele><time>2026-05-01T16:40:24Z</time></trkpt><trkpt lat="43.488413574618555" lon="11.168160319864533"><ele>131.0</ele><time>2026-05-01T16:40:25Z</time></trkpt><trkpt lat="43.48845009022285" lon="11.16831981090461"><ele>131.0</ele><time>2026-05-01T16:40:26Z</time></trkpt><trkpt lat="43.488481427070596" lon="11.168476896526304"><ele>131.0</ele><time>2026-05-01T16:40:27Z</time></trkpt><trkpt lat="43.48850737853513" lon="11.168621283605448"><ele>131.0</ele><time>2026-05-01T16:40:28Z</time></trkpt><trkpt lat="43.48852959134595" lon="11.168746029732908"><ele>131.0</ele><time>2026-05-01T16:40:29Z</time></trkpt><trkpt lat="43.48855339480672" lon="11.168860990260237"><ele>131.0</ele><time>2026-05-01T16:40:30Z</time></trkpt><trkpt lat="43.48857823683952" lon="11.168958016152443"><ele>131.0</ele><time>2026-05-01T16:40:31Z</time></trkpt><trkpt lat="43.4885989984005" lon="11.169039996476656"><ele>131.0</ele><time>2026-05-01T16:40:32Z</time></trkpt><trkpt lat="43.48864021792105" lon="11.169167085863068"><ele>131.0</ele><time>2026-05-01T16:40:34Z</time></trkpt><trkpt lat="43.48867518332756" lon="11.169246193208313"><ele>131.0</ele><time>2026-05-01T16:40:36Z</time></trkpt><trkpt lat="43.48870470530129" lon="11.16937215565787"><ele>131.0</ele><time>2026-05-01T16:41:16Z</time></trkpt><trkpt lat="43.488678519911545" lon="11.169468902423588"><ele>131.0</ele><time>2026-05-01T16:41:18Z</time></trkpt><trkpt lat="43.48866832363814" lon="11.169607015131785"><ele>131.0</ele><time>2026-05-01T16:42:52Z</time></trkpt><trkpt lat="43.4886855465394" lon="11.169711479676884"><ele>131.0</ele><time>2026-05-01T16:42:54Z</time></trkpt><trkpt lat="43.48872827145428" lon="11.169851965097257"><ele>131.0</ele><time>2026-05-01T16:42:56Z</time></trkpt><trkpt lat="43.488761325691065" lon="11.169939298115992"><ele>131.0</ele><time>2026-05-01T16:42:58Z</time></trkpt><trkpt lat="43.488807698457535" lon="11.17008416558452"><ele>132.16666666666666</ele><time>2026-05-01T16:43:00Z</time></trkpt><trkpt lat="43.488833362076825" lon="11.170199154797238"><ele>133.33333333333331</ele><time>2026-05-01T16:43:02Z</time></trkpt><trkpt lat="43.48889831943253" lon="11.17020757066958"><ele>134.5</ele><time>2026-05-01T16:47:09Z</time></trkpt><trkpt lat="43.48887056348883" lon="11.170286778109876"><ele>135.66666666666666</ele><time>2026-05-01T16:47:17Z</time></trkpt><trkpt lat="43.488961248821276" lon="11.170246450306253"><ele>136.83333333333334</ele><time>2026-05-01T16:50:21Z</time></trkpt><trkpt lat="43.48892803690617" lon="11.170168100410327"><ele>138.0</ele><time>2026-05-01T16:51:40Z</time></trkpt><trkpt lat="43.48896815951454" lon="11.170301224013208"><ele>138.0</ele><time>2026-05-01T16:51:42Z</time></trkpt><trkpt lat="43.4890315443828" lon="11.170452575912096"><ele>138.0</ele><time>2026-05-01T16:51:44Z</time></trkpt><trkpt lat="43.489072364923906" lon="11.170536381191106"><ele>138.0</ele><time>2026-05-01T16:51:45Z</time></trkpt><trkpt lat="43.4891241432422" lon="11.170621648929453"><ele>138.0</ele><time>2026-05-01T16:51:46Z</time></trkpt><trkpt lat="43.48917520639712" lon="11.170714868284985"><ele>138.0</ele><time>2026-05-01T16:51:47Z</time></trkpt><trkpt lat="43.48922278866901" lon="11.170802028291051"><ele>138.0</ele><time>2026-05-01T16:51:48Z</time></trkpt><trkpt lat="43.489268221993896" lon="11.170897447142805"><ele>137.8</ele><time>2026-05-01T16:51:49Z</time></trkpt><trkpt lat="43.48931481171205" lon="11.170998090137767"><ele>137.60000000000002</ele><time>2026-05-01T16:51:50Z</time></trkpt><trkpt lat="43.4893650319224" lon="11.17110878249383"><ele>137.39999999999998</ele><time>2026-05-01T16:51:51Z</time></trkpt><trkpt lat="43.489413819924444" lon="11.171220072882344"><ele>137.2</ele><time>2026-05-01T16:51:52Z</time></trkpt><trkpt lat="43.489467301667595" lon="11.17133616148206"><ele>137.0</ele><time>2026-05-01T16:51:53Z</time></trkpt><trkpt lat="43.489524366832164" lon="11.171453195851687"><ele>136.6</ele><time>2026-05-01T16:51:54Z</time></trkpt><trkpt lat="43.489583530405184" lon="11.171566709859515"><ele>136.2</ele><time>2026-05-01T16:51:55Z</time></trkpt><trkpt lat="43.489632960887825" lon="11.171668897976547"><ele>135.8</ele><time>2026-05-01T16:51:56Z</time></trkpt><trkpt lat="43.48968747761522" lon="11.17177903980111"><ele>135.4</ele><time>2026-05-01T16:51:57Z</time></trkpt><trkpt lat="43.489748637998574" lon="11.171896768347736"><ele>135.0</ele><time>2026-05-01T16:51:58Z</time></trkpt><trkpt lat="43.4898149644272" lon="11.172022850126849"><ele>135.75</ele><time>2026-05-01T16:51:59Z</time></trkpt><trkpt lat="43.48988868112179" lon="11.172162590975386"><ele>136.5</ele><time>2026-05-01T16:52:00Z</time></trkpt><trkpt lat="43.48995250508957" lon="11.172295984677467"><ele>137.25</ele><time>2026-05-01T16:52:01Z</time></trkpt><trkpt lat="43.49002229951857" lon="11.172433882156424"><ele>138.0</ele><time>2026-05-01T16:52:02Z</time></trkpt><trkpt lat="43.49009131055989" lon="11.172572586150865"><ele>138.0</ele><time>2026-05-01T16:52:03Z</time></trkpt><trkpt lat="43.490164334462825" lon="11.17271070783732"><ele>138.0</ele><time>2026-05-01T16:52:04Z</time></trkpt><trkpt lat="43.49023909423794" lon="11.172848773183334"><ele>138.0</ele><time>2026-05-01T16:52:05Z</time></trkpt><trkpt lat="43.49031252782611" lon="11.17299577704045"><ele>138.0</ele><time>2026-05-01T16:52:06Z</time></trkpt><trkpt lat="43.49038342253527" lon="11.173135332303389"><ele>138.75</ele><time>2026-05-01T16:52:07Z</time></trkpt><trkpt lat="43.490453649363715" lon="11.173275885069389"><ele>139.5</ele><time>2026-05-01T16:52:08Z</time></trkpt><trkpt lat="43.4905253490607" lon="11.173416985534317"><ele>140.25</ele><time>2026-05-01T16:52:09Z</time></trkpt><trkpt lat="43.490598520257905" lon="11.173559999265285"><ele>141.0</ele><time>2026-05-01T16:52:10Z</time></trkpt><trkpt lat="43.49067381052992" lon="11.173704568825356"><ele>141.0</ele><time>2026-05-01T16:52:11Z</time></trkpt><trkpt lat="43.490746464460535" lon="11.173849118078513"><ele>141.0</ele><time>2026-05-01T16:52:12Z</time></trkpt><trkpt lat="43.49082058303936" lon="11.17399683366534"><ele>141.0</ele><time>2026-05-01T16:52:13Z</time></trkpt><trkpt lat="43.49089747521504" lon="11.174147931221167"><ele>141.0</ele><time>2026-05-01T16:52:14Z</time></trkpt><trkpt lat="43.49097639981658" lon="11.174307379884493"><ele>141.25</ele><time>2026-05-01T16:52:15Z</time></trkpt><trkpt lat="43.491058940022896" lon="11.174465502119117"><ele>141.5</ele><time>2026-05-01T16:52:16Z</time></trkpt><trkpt lat="43.491142411025955" lon="11.174623715233919"><ele>141.75</ele><time>2026-05-01T16:52:17Z</time></trkpt><trkpt lat="43.49122582859552" lon="11.17478136114423"><ele>142.0</ele><time>2026-05-01T16:52:18Z</time></trkpt><trkpt lat="43.49130891620182" lon="11.17493759246277"><ele>143.75</ele><time>2026-05-01T16:52:19Z</time></trkpt><trkpt lat="43.49138955723958" lon="11.175091320869091"><ele>145.5</ele><time>2026-05-01T16:52:20Z</time></trkpt><trkpt lat="43.4914722937362" lon="11.175249041613307"><ele>147.25</ele><time>2026-05-01T16:52:21Z</time></trkpt><trkpt lat="43.491552986534494" lon="11.175405027828676"><ele>149.0</ele><time>2026-05-01T16:52:22Z</time></trkpt><trkpt lat="43.49163478179539" lon="11.175560377699385"><ele>149.0</ele><time>2026-05-01T16:52:23Z</time></trkpt><trkpt lat="43.49171669509795" lon="11.175714283676019"><ele>149.0</ele><time>2026-05-01T16:52:24Z</time></trkpt><trkpt lat="43.49179931793049" lon="11.175869364384216"><ele>149.0</ele><time>2026-05-01T16:52:25Z</time></trkpt><trkpt lat="43.49188138961539" lon="11.176025730907682"><ele>149.0</ele><time>2026-05-01T16:52:26Z</time></trkpt><trkpt lat="43.49196391453991" lon="11.176183453378636"><ele>149.0</ele><time>2026-05-01T16:52:27Z</time></trkpt><trkpt lat="43.49204903544759" lon="11.176338797046688"><ele>149.0</ele><time>2026-05-01T16:52:28Z</time></trkpt><trkpt lat="43.492136667986735" lon="11.176493379739457"><ele>149.0</ele><time>2026-05-01T16:52:29Z</time></trkpt><trkpt lat="43.49222697649884" lon="11.176648572214795"><ele>149.0</ele><time>2026-05-01T16:52:30Z</time></trkpt><trkpt lat="43.49232066094981" lon="11.176802702723585"><ele>150.25</ele><time>2026-05-01T16:52:31Z</time></trkpt><trkpt lat="43.492419089428466" lon="11.17695171454986"><ele>151.5</ele><time>2026-05-01T16:52:32Z</time></trkpt><trkpt lat="43.49252563665515" lon="11.177100480389472"><ele>152.75</ele><time>2026-05-01T16:52:33Z</time></trkpt><trkpt lat="43.49263066194274" lon="11.17724259946492"><ele>154.0</ele><time>2026-05-01T16:52:34Z</time></trkpt><trkpt lat="43.49273882858947" lon="11.177380835378358"><ele>154.0</ele><time>2026-05-01T16:52:35Z</time></trkpt><trkpt lat="43.492847850957126" lon="11.177517875322266"><ele>154.0</ele><time>2026-05-01T16:52:36Z</time></trkpt><trkpt lat="43.49295880951436" lon="11.177647657173905"><ele>154.0</ele><time>2026-05-01T16:52:37Z</time></trkpt><trkpt lat="43.49307451995558" lon="11.177774652631362"><ele>154.0</ele><time>2026-05-01T16:52:38Z</time></trkpt><trkpt lat="43.4931942764079" lon="11.177898643041347"><ele>154.33333333333334</ele><time>2026-05-01T16:52:39Z</time></trkpt><trkpt lat="43.493321619536765" lon="11.17801803032893"><ele>154.66666666666666</ele><time>2026-05-01T16:52:40Z</time></trkpt><trkpt lat="43.493448361036016" lon="11.178136644825955"><ele>155.0</ele><time>2026-05-01T16:52:41Z</time></trkpt><trkpt lat="43.49358097228411" lon="11.178252997383996"><ele>155.0</ele><time>2026-05-01T16:52:42Z</time></trkpt><trkpt lat="43.49371705498323" lon="11.178362456113637"><ele>155.0</ele><time>2026-05-01T16:52:43Z</time></trkpt><trkpt lat="43.49385955126593" lon="11.178460692166475"><ele>155.0</ele><time>2026-05-01T16:52:44Z</time></trkpt><trkpt lat="43.493995917811546" lon="11.178556125706296"><ele>155.0</ele><time>2026-05-01T16:52:45Z</time></trkpt><trkpt lat="43.494137017286036" lon="11.178644583762157"><ele>155.0</ele><time>2026-05-01T16:52:46Z</time></trkpt><trkpt lat="43.49428079245358" lon="11.178729758089322"><ele>155.0</ele><time>2026-05-01T16:52:47Z</time></trkpt><trkpt lat="43.494427900945794" lon="11.178807022331254"><ele>155.0</ele><time>2026-05-01T16:52:48Z</time></trkpt><trkpt lat="43.49457244041979" lon="11.178887023952473"><ele>155.0</ele><time>2026-05-01T16:52:49Z</time></trkpt><trkpt lat="43.4947186467732" lon="11.17896710789163"><ele>155.0</ele><time>2026-05-01T16:52:50Z</time></trkpt><trkpt lat="43.49486719145858" lon="11.17904949707564"><ele>158.0</ele><time>2026-05-01T16:52:51Z</time></trkpt><trkpt lat="43.495016348509544" lon="11.17913640808943"><ele>161.0</ele><time>2026-05-01T16:52:52Z</time></trkpt><trkpt lat="43.495168759442905" lon="11.17921983044139"><ele>164.0</ele><time>2026-05-01T16:52:53Z</time></trkpt><trkpt lat="43.49532082725027" lon="11.179308157362508"><ele>163.33333333333331</ele><time>2026-05-01T16:52:54Z</time></trkpt><trkpt lat="43.495474433523896" lon="11.179395526192817"><ele>162.66666666666666</ele><time>2026-05-01T16:52:55Z</time></trkpt><trkpt lat="43.49562414196676" lon="11.17949533406124"><ele>162.0</ele><time>2026-05-01T16:52:56Z</time></trkpt><trkpt lat="43.49577188399693" lon="11.17960176430104"><ele>162.0</ele><time>2026-05-01T16:52:57Z</time></trkpt><trkpt lat="43.49591813016103" lon="11.179708954272819"><ele>162.0</ele><time>2026-05-01T16:52:58Z</time></trkpt><trkpt lat="43.49606317012352" lon="11.17981432317827"><ele>162.0</ele><time>2026-05-01T16:52:59Z</time></trkpt><trkpt lat="43.49620714578914" lon="11.179920612197156"><ele>163.66666666666666</ele><time>2026-05-01T16:53:00Z</time></trkpt><trkpt lat="43.496347998153574" lon="11.180037125301244"><ele>165.33333333333331</ele><time>2026-05-01T16:53:01Z</time></trkpt><trkpt lat="43.496488808731606" lon="11.180159907896794"><ele>167.0</ele><time>2026-05-01T16:53:02Z</time></trkpt><trkpt lat="43.49662754688107" lon="11.180286801800385"><ele>167.0</ele><time>2026-05-01T16:53:03Z</time></trkpt><trkpt lat="43.4967635071227" lon="11.180419856337231"><ele>167.0</ele><time>2026-05-01T16:53:04Z</time></trkpt><trkpt lat="43.49689137429676" lon="11.180549141027063"><ele>167.0</ele><time>2026-05-01T16:53:05Z</time></trkpt><trkpt lat="43.49701616523538" lon="11.180673550069297"><ele>167.66666666666666</ele><time>2026-05-01T16:53:06Z</time></trkpt><trkpt lat="43.49713841154232" lon="11.180803915584145"><ele>168.33333333333334</ele><time>2026-05-01T16:53:07Z</time></trkpt><trkpt lat="43.49726015810254" lon="11.18094209892735"><ele>169.0</ele><time>2026-05-01T16:53:08Z</time></trkpt><trkpt lat="43.49738154712265" lon="11.18108363989159"><ele>169.0</ele><time>2026-05-01T16:53:09Z</time></trkpt><trkpt lat="43.497503227874034" lon="11.18123239722094"><ele>169.0</ele><time>2026-05-01T16:53:10Z</time></trkpt><trkpt lat="43.497623219912136" lon="11.18138444186267"><ele>169.0</ele><time>2026-05-01T16:53:11Z</time></trkpt><trkpt lat="43.49774132485802" lon="11.181545941891384"><ele>171.33333333333334</ele><time>2026-05-01T16:53:12Z</time></trkpt><trkpt lat="43.49785803858159" lon="11.181705888107027"><ele>173.66666666666666</ele><time>2026-05-01T16:53:13Z</time></trkpt><trkpt lat="43.497969891552025" lon="11.18186643186403"><ele>176.0</ele><time>2026-05-01T16:53:14Z</time></trkpt><trkpt lat="43.49808051874208" lon="11.182027875344009"><ele>176.0</ele><time>2026-05-01T16:53:15Z</time></trkpt><trkpt lat="43.49818764683032" lon="11.18219264261364"><ele>176.0</ele><time>2026-05-01T16:53:16Z</time></trkpt><trkpt lat="43.49829255478726" lon="11.182361424492353"><ele>176.0</ele><time>2026-05-01T16:53:17Z</time></trkpt><trkpt lat="43.498394696195646" lon="11.182534363570502"><ele>177.0</ele><time>2026-05-01T16:53:18Z</time></trkpt><trkpt lat="43.49849634656677" lon="11.182712920144102"><ele>178.0</ele><time>2026-05-01T16:53:19Z</time></trkpt><trkpt lat="43.49859474341779" lon="11.182891133503308"><ele>179.0</ele><time>2026-05-01T16:53:20Z</time></trkpt><trkpt lat="43.49869509788809" lon="11.18306763635997"><ele>178.66666666666666</ele><time>2026-05-01T16:53:21Z</time></trkpt><trkpt lat="43.49879082262649" lon="11.18324834094571"><ele>178.33333333333334</ele><time>2026-05-01T16:53:22Z</time></trkpt><trkpt lat="43.49888575221501" lon="11.18343344383215"><ele>178.0</ele><time>2026-05-01T16:53:23Z</time></trkpt><trkpt lat="43.49897961258921" lon="11.183612741861586"><ele>178.0</ele><time>2026-05-01T16:53:24Z</time></trkpt><trkpt lat="43.49907130043913" lon="11.183792681424146"><ele>178.0</ele><time>2026-05-01T16:53:25Z</time></trkpt><trkpt lat="43.49916516155967" lon="11.183971072735192"><ele>178.0</ele><time>2026-05-01T16:53:26Z</time></trkpt><trkpt lat="43.49926075263067" lon="11.184149818551743"><ele>180.66666666666669</ele><time>2026-05-01T16:53:27Z</time></trkpt><trkpt lat="43.49935867320966" lon="11.184327582973285"><ele>183.33333333333334</ele><time>2026-05-01T16:53:28Z</time></trkpt><trkpt lat="43.4994519887749" lon="11.18450511944874"><ele>186.0</ele><time>2026-05-01T16:53:29Z</time></trkpt><trkpt lat="43.49954419711338" lon="11.184678626543462"><ele>184.66666666666666</ele><time>2026-05-01T16:53:30Z</time></trkpt><trkpt lat="43.49963339915768" lon="11.184853890814228"><ele>183.33333333333331</ele><time>2026-05-01T16:53:31Z</time></trkpt><trkpt lat="43.49972809503264" lon="11.185033415521618"><ele>182.0</ele><time>2026-05-01T16:53:32Z</time></trkpt><trkpt lat="43.499824403967324" lon="11.185210622756458"><ele>182.0</ele><time>2026-05-01T16:53:33Z</time></trkpt><trkpt lat="43.49991834717265" lon="11.185382616744324"><ele>182.0</ele><time>2026-05-01T16:53:34Z</time></trkpt><trkpt lat="43.50000643987324" lon="11.185541974732367"><ele>182.0</ele><time>2026-05-01T16:53:35Z</time></trkpt><trkpt lat="43.50010240252551" lon="11.185696438732505"><ele>182.0</ele><time>2026-05-01T16:53:36Z</time></trkpt><trkpt lat="43.5002009703992" lon="11.185840203682705"><ele>182.33333333333331</ele><time>2026-05-01T16:53:37Z</time></trkpt><trkpt lat="43.500306982677984" lon="11.185987405569474"><ele>182.66666666666666</ele><time>2026-05-01T16:53:38Z</time></trkpt><trkpt lat="43.50041845492074" lon="11.186129862818909"><ele>183.0</ele><time>2026-05-01T16:53:39Z</time></trkpt><trkpt lat="43.50053381637365" lon="11.186272180057673"><ele>183.0</ele><time>2026-05-01T16:53:40Z</time></trkpt><trkpt lat="43.5006532326388" lon="11.186414585639646"><ele>183.0</ele><time>2026-05-01T16:53:41Z</time></trkpt><trkpt lat="43.50077862866096" lon="11.186551633264873"><ele>183.0</ele><time>2026-05-01T16:53:42Z</time></trkpt><trkpt lat="43.50091316130259" lon="11.186682448408819"><ele>183.0</ele><time>2026-05-01T16:53:43Z</time></trkpt><trkpt lat="43.501051420644075" lon="11.186812802043452"><ele>183.0</ele><time>2026-05-01T16:53:44Z</time></trkpt><trkpt lat="43.50119829676816" lon="11.186933724408629"><ele>183.0</ele><time>2026-05-01T16:53:45Z</time></trkpt><trkpt lat="43.501347033681384" lon="11.187047553897928"><ele>183.0</ele><time>2026-05-01T16:53:46Z</time></trkpt><trkpt lat="43.50149825435414" lon="11.187151170513873"><ele>183.0</ele><time>2026-05-01T16:53:47Z</time></trkpt><trkpt lat="43.50164932751979" lon="11.187249663622058"><ele>183.0</ele><time>2026-05-01T16:53:48Z</time></trkpt><trkpt lat="43.50179964237345" lon="11.187337890136762"><ele>186.66666666666669</ele><time>2026-05-01T16:53:49Z</time></trkpt><trkpt lat="43.501950850341025" lon="11.187417042704283"><ele>190.33333333333334</ele><time>2026-05-01T16:53:50Z</time></trkpt><trkpt lat="43.50210682352285" lon="11.187495115653073"><ele>194.0</ele><time>2026-05-01T16:53:51Z</time></trkpt><trkpt lat="43.502261886033274" lon="11.187568647010742"><ele>194.0</ele><time>2026-05-01T16:53:52Z</time></trkpt><trkpt lat="43.50241812117683" lon="11.187642717827975"><ele>194.0</ele><time>2026-05-01T16:53:53Z</time></trkpt><trkpt lat="43.50257763919703" lon="11.187716120069918"><ele>194.0</ele><time>2026-05-01T16:53:54Z</time></trkpt><trkpt lat="43.502736909996045" lon="11.18778711726938"><ele>194.0</ele><time>2026-05-01T16:53:55Z</time></trkpt><trkpt lat="43.50289116103398" lon="11.187861011173966"><ele>194.0</ele><time>2026-05-01T16:53:56Z</time></trkpt><trkpt lat="43.50304915890928" lon="11.187936291052754"><ele>194.0</ele><time>2026-05-01T16:53:57Z</time></trkpt><trkpt lat="43.50320800822384" lon="11.188014859091084"><ele>193.0</ele><time>2026-05-01T16:53:58Z</time></trkpt><trkpt lat="43.50337104071774" lon="11.188094765171105"><ele>192.0</ele><time>2026-05-01T16:53:59Z</time></trkpt><trkpt lat="43.5035336255239" lon="11.18817536831433"><ele>191.0</ele><time>2026-05-01T16:54:00Z</time></trkpt><trkpt lat="43.50369730448726" lon="11.188252025895778"><ele>193.0</ele><time>2026-05-01T16:54:01Z</time></trkpt><trkpt lat="43.503863187985154" lon="11.188322894441729"><ele>195.0</ele><time>2026-05-01T16:54:02Z</time></trkpt><trkpt lat="43.50402452965311" lon="11.188399284730528"><ele>197.0</ele><time>2026-05-01T16:54:03Z</time></trkpt><trkpt lat="43.504185739199336" lon="11.188474941513723"><ele>197.0</ele><time>2026-05-01T16:54:04Z</time></trkpt><trkpt lat="43.504346622511164" lon="11.188549851285828"><ele>197.0</ele><time>2026-05-01T16:54:05Z</time></trkpt><trkpt lat="43.50450674659699" lon="11.18862016121453"><ele>197.0</ele><time>2026-05-01T16:54:06Z</time></trkpt><trkpt lat="43.50466712853981" lon="11.188696334117203"><ele>196.0</ele><time>2026-05-01T16:54:07Z</time></trkpt><trkpt lat="43.50482837468974" lon="11.188772945923633"><ele>195.0</ele><time>2026-05-01T16:54:08Z</time></trkpt><trkpt lat="43.50498862874652" lon="11.18884655244466"><ele>194.0</ele><time>2026-05-01T16:54:09Z</time></trkpt><trkpt lat="43.505149157191596" lon="11.188920295217448"><ele>194.0</ele><time>2026-05-01T16:54:10Z</time></trkpt><trkpt lat="43.50530688156652" lon="11.188992734922744"><ele>194.0</ele><time>2026-05-01T16:54:11Z</time></trkpt><trkpt lat="43.505461808260954" lon="11.1890619935878"><ele>194.0</ele><time>2026-05-01T16:54:12Z</time></trkpt><trkpt lat="43.50561794409212" lon="11.189126888246172"><ele>198.33333333333334</ele><time>2026-05-01T16:54:13Z</time></trkpt><trkpt lat="43.505777011579475" lon="11.189179562420964"><ele>202.66666666666669</ele><time>2026-05-01T16:54:14Z</time></trkpt><trkpt lat="43.50593542093472" lon="11.1892331702711"><ele>207.0</ele><time>2026-05-01T16:54:15Z</time></trkpt><trkpt lat="43.50609540500679" lon="11.189280636220618"><ele>206.0</ele><time>2026-05-01T16:54:16Z</time></trkpt><trkpt lat="43.50625351167761" lon="11.189326910416732"><ele>205.0</ele><time>2026-05-01T16:54:17Z</time></trkpt><trkpt lat="43.50641063366252" lon="11.189371390908434"><ele>204.0</ele><time>2026-05-01T16:54:18Z</time></trkpt><trkpt lat="43.50656477198076" lon="11.189421290215844"><ele>204.0</ele><time>2026-05-01T16:54:19Z</time></trkpt><trkpt lat="43.50672024541121" lon="11.189469249326493"><ele>204.0</ele><time>2026-05-01T16:54:20Z</time></trkpt><trkpt lat="43.50687628062911" lon="11.189516361934594"><ele>204.0</ele><time>2026-05-01T16:54:21Z</time></trkpt><trkpt lat="43.5070327703416" lon="11.189561013810332"><ele>204.33333333333331</ele><time>2026-05-01T16:54:22Z</time></trkpt><trkpt lat="43.50718772230063" lon="11.18960795503597"><ele>204.66666666666666</ele><time>2026-05-01T16:54:23Z</time></trkpt><trkpt lat="43.50734115799349" lon="11.189652964033455"><ele>205.0</ele><time>2026-05-01T16:54:24Z</time></trkpt><trkpt lat="43.50749755054965" lon="11.189696281851367"><ele>205.0</ele><time>2026-05-01T16:54:25Z</time></trkpt><trkpt lat="43.50764725795382" lon="11.189738144262241"><ele>205.0</ele><time>2026-05-01T16:54:26Z</time></trkpt><trkpt lat="43.507792402156284" lon="11.189782055275103"><ele>205.0</ele><time>2026-05-01T16:54:27Z</time></trkpt><trkpt lat="43.507931551085015" lon="11.189824574220157"><ele>205.0</ele><time>2026-05-01T16:54:28Z</time></trkpt><trkpt lat="43.508069602583824" lon="11.189871865307568"><ele>207.0</ele><time>2026-05-01T16:54:29Z</time></trkpt><trkpt lat="43.50821150529343" lon="11.189917345086247"><ele>209.0</ele><time>2026-05-01T16:54:30Z</time></trkpt><trkpt lat="43.5083538698271" lon="11.189963515359215"><ele>211.0</ele><time>2026-05-01T16:54:31Z</time></trkpt><trkpt lat="43.50849813212384" lon="11.190009432812168"><ele>213.0</ele><time>2026-05-01T16:54:32Z</time></trkpt><trkpt lat="43.50864393140616" lon="11.190056238648049"><ele>213.0</ele><time>2026-05-01T16:54:33Z</time></trkpt><trkpt lat="43.508795825055714" lon="11.190095746146985"><ele>213.0</ele><time>2026-05-01T16:54:34Z</time></trkpt><trkpt lat="43.50893890946877" lon="11.190138584679042"><ele>213.0</ele><time>2026-05-01T16:54:35Z</time></trkpt><trkpt lat="43.50908317087889" lon="11.190183614404653"><ele>213.0</ele><time>2026-05-01T16:54:36Z</time></trkpt><trkpt lat="43.50922725783885" lon="11.190232396425811"><ele>213.0</ele><time>2026-05-01T16:54:37Z</time></trkpt><trkpt lat="43.50937044627193" lon="11.190284584994544"><ele>213.0</ele><time>2026-05-01T16:54:38Z</time></trkpt><trkpt lat="43.509509936929625" lon="11.190344364305023"><ele>213.0</ele><time>2026-05-01T16:54:39Z</time></trkpt><trkpt lat="43.50964783447398" lon="11.19041148788531"><ele>213.0</ele><time>2026-05-01T16:54:40Z</time></trkpt><trkpt lat="43.50978753197997" lon="11.190475572795021"><ele>212.0</ele><time>2026-05-01T16:54:41Z</time></trkpt><trkpt lat="43.50992435332335" lon="11.190541534166309"><ele>211.0</ele><time>2026-05-01T16:54:42Z</time></trkpt><trkpt lat="43.510058700107756" lon="11.190611914328127"><ele>210.0</ele><time>2026-05-01T16:54:43Z</time></trkpt><trkpt lat="43.510193412768444" lon="11.190688996437974"><ele>209.0</ele><time>2026-05-01T16:54:44Z</time></trkpt><trkpt lat="43.51032700158549" lon="11.190766774728178"><ele>210.75</ele><time>2026-05-01T16:54:45Z</time></trkpt><trkpt lat="43.51045730221578" lon="11.190842082684146"><ele>212.5</ele><time>2026-05-01T16:54:46Z</time></trkpt><trkpt lat="43.51057836287285" lon="11.19091954853268"><ele>214.25</ele><time>2026-05-01T16:54:47Z</time></trkpt><trkpt lat="43.51070201001076" lon="11.191003975506122"><ele>216.0</ele><time>2026-05-01T16:54:48Z</time></trkpt><trkpt lat="43.510812447229426" lon="11.191094613621193"><ele>216.0</ele><time>2026-05-01T16:54:49Z</time></trkpt><trkpt lat="43.51092911489696" lon="11.19119113625365"><ele>216.0</ele><time>2026-05-01T16:54:50Z</time></trkpt><trkpt lat="43.51104596597552" lon="11.191286780497606"><ele>216.0</ele><time>2026-05-01T16:54:51Z</time></trkpt><trkpt lat="43.511162708432416" lon="11.1913919960959"><ele>216.0</ele><time>2026-05-01T16:54:52Z</time></trkpt><trkpt lat="43.51126524085786" lon="11.19150526091014"><ele>218.0</ele><time>2026-05-01T16:54:53Z</time></trkpt><trkpt lat="43.511381659893566" lon="11.191607646835564"><ele>220.0</ele><time>2026-05-01T16:54:54Z</time></trkpt><trkpt lat="43.511492433961905" lon="11.191712424817561"><ele>222.0</ele><time>2026-05-01T16:54:55Z</time></trkpt><trkpt lat="43.51160426807848" lon="11.191815189182204"><ele>224.0</ele><time>2026-05-01T16:54:56Z</time></trkpt><trkpt lat="43.51172076317897" lon="11.191917647747731"><ele>224.0</ele><time>2026-05-01T16:54:57Z</time></trkpt><trkpt lat="43.51183421067203" lon="11.192021359895366"><ele>224.0</ele><time>2026-05-01T16:54:58Z</time></trkpt><trkpt lat="43.51195428048512" lon="11.19213753319264"><ele>224.0</ele><time>2026-05-01T16:54:59Z</time></trkpt><trkpt lat="43.512079072918546" lon="11.192257051482992"><ele>224.0</ele><time>2026-05-01T16:55:00Z</time></trkpt><trkpt lat="43.512194701285146" lon="11.192378704815551"><ele>225.33333333333334</ele><time>2026-05-01T16:55:01Z</time></trkpt><trkpt lat="43.512309673648055" lon="11.192505663629307"><ele>226.66666666666669</ele><time>2026-05-01T16:55:02Z</time></trkpt><trkpt lat="43.51242479979719" lon="11.192649474680326"><ele>228.0</ele><time>2026-05-01T16:55:03Z</time></trkpt><trkpt lat="43.51253586779677" lon="11.192797654668851"><ele>228.0</ele><time>2026-05-01T16:55:04Z</time></trkpt><trkpt lat="43.51264017390147" lon="11.192956006120786"><ele>228.0</ele><time>2026-05-01T16:55:05Z</time></trkpt><trkpt lat="43.512745238545534" lon="11.193119965553207"><ele>228.0</ele><time>2026-05-01T16:55:06Z</time></trkpt><trkpt lat="43.51284828447418" lon="11.193288536645822"><ele>228.0</ele><time>2026-05-01T16:55:07Z</time></trkpt><trkpt lat="43.51294699374692" lon="11.193465721480148"><ele>228.0</ele><time>2026-05-01T16:55:08Z</time></trkpt><trkpt lat="43.51303947227871" lon="11.193651107558951"><ele>228.0</ele><time>2026-05-01T16:55:09Z</time></trkpt><trkpt lat="43.513128625863644" lon="11.193843550813778"><ele>231.33333333333331</ele><time>2026-05-01T16:55:10Z</time></trkpt><trkpt lat="43.513217566410745" lon="11.194039064434609"><ele>234.66666666666666</ele><time>2026-05-01T16:55:11Z</time></trkpt><trkpt lat="43.51329663652194" lon="11.19423242851319"><ele>238.0</ele><time>2026-05-01T16:55:12Z</time></trkpt><trkpt lat="43.5133802746295" lon="11.194421345746271"><ele>238.0</ele><time>2026-05-01T16:55:13Z</time></trkpt><trkpt lat="43.513464104023036" lon="11.194605890904965"><ele>238.0</ele><time>2026-05-01T16:55:14Z</time></trkpt><trkpt lat="43.51354773746332" lon="11.194788848209736"><ele>238.0</ele><time>2026-05-01T16:55:15Z</time></trkpt><trkpt lat="43.513640327145005" lon="11.194961319435514"><ele>237.66666666666666</ele><time>2026-05-01T16:55:16Z</time></trkpt><trkpt lat="43.51373304809049" lon="11.195127924478143"><ele>237.33333333333331</ele><time>2026-05-01T16:55:17Z</time></trkpt><trkpt lat="43.51383299071137" lon="11.195290540097622"><ele>237.0</ele><time>2026-05-01T16:55:18Z</time></trkpt><trkpt lat="43.5139366913353" lon="11.195444680087586"><ele>237.0</ele><time>2026-05-01T16:55:19Z</time></trkpt><trkpt lat="43.51403733490677" lon="11.195579559017581"><ele>237.0</ele><time>2026-05-01T16:55:20Z</time></trkpt><trkpt lat="43.514139726195495" lon="11.19570670507883"><ele>237.0</ele><time>2026-05-01T16:55:21Z</time></trkpt><trkpt lat="43.51424829166864" lon="11.195833298311674"><ele>237.0</ele><time>2026-05-01T16:55:22Z</time></trkpt><trkpt lat="43.51435551853106" lon="11.195953928102146"><ele>238.25</ele><time>2026-05-01T16:55:23Z</time></trkpt><trkpt lat="43.514466692138164" lon="11.196066182388364"><ele>239.5</ele><time>2026-05-01T16:55:24Z</time></trkpt><trkpt lat="43.51457859718475" lon="11.196174070217396"><ele>240.75</ele><time>2026-05-01T16:55:25Z</time></trkpt><trkpt lat="43.51469763740922" lon="11.196273394318169"><ele>242.0</ele><time>2026-05-01T16:55:26Z</time></trkpt><trkpt lat="43.51481710351916" lon="11.196366943320658"><ele>239.25</ele><time>2026-05-01T16:55:27Z</time></trkpt><trkpt lat="43.5149339071798" lon="11.196457135266368"><ele>236.5</ele><time>2026-05-01T16:55:28Z</time></trkpt><trkpt lat="43.515054696932985" lon="11.196543455584376"><ele>233.75</ele><time>2026-05-01T16:55:29Z</time></trkpt><trkpt lat="43.515181055143806" lon="11.196620050878549"><ele>231.0</ele><time>2026-05-01T16:55:30Z</time></trkpt><trkpt lat="43.5153096655669" lon="11.196695642136696"><ele>231.75</ele><time>2026-05-01T16:55:31Z</time></trkpt><trkpt lat="43.51544134618883" lon="11.196763446387562"><ele>232.5</ele><time>2026-05-01T16:55:32Z</time></trkpt><trkpt lat="43.515573831310945" lon="11.196820875563837"><ele>233.25</ele><time>2026-05-01T16:55:33Z</time></trkpt><trkpt lat="43.515700945073185" lon="11.19687185897518"><ele>234.0</ele><time>2026-05-01T16:55:34Z</time></trkpt><trkpt lat="43.51582309958764" lon="11.19691913402488"><ele>234.0</ele><time>2026-05-01T16:55:35Z</time></trkpt><trkpt lat="43.5159492972424" lon="11.196955898926184"><ele>234.0</ele><time>2026-05-01T16:55:36Z</time></trkpt><trkpt lat="43.516069099809606" lon="11.196985957912538"><ele>234.0</ele><time>2026-05-01T16:55:37Z</time></trkpt><trkpt lat="43.516199729877975" lon="11.197012877410412"><ele>234.0</ele><time>2026-05-01T16:55:38Z</time></trkpt><trkpt lat="43.516333319126936" lon="11.197033474418902"><ele>237.0</ele><time>2026-05-01T16:55:39Z</time></trkpt><trkpt lat="43.516469460241055" lon="11.197052617059887"><ele>240.0</ele><time>2026-05-01T16:55:40Z</time></trkpt><trkpt lat="43.51660792596737" lon="11.197066493547673"><ele>243.0</ele><time>2026-05-01T16:55:41Z</time></trkpt><trkpt lat="43.51674680182745" lon="11.197076506539744"><ele>246.0</ele><time>2026-05-01T16:55:42Z</time></trkpt><trkpt lat="43.516886802968145" lon="11.197085539778811"><ele>246.0</ele><time>2026-05-01T16:55:43Z</time></trkpt><trkpt lat="43.517024161441434" lon="11.197094602343787"><ele>246.0</ele><time>2026-05-01T16:55:44Z</time></trkpt><trkpt lat="43.517165255220014" lon="11.19709990059179"><ele>246.0</ele><time>2026-05-01T16:55:45Z</time></trkpt><trkpt lat="43.51730873132978" lon="11.197108424154763"><ele>246.0</ele><time>2026-05-01T16:55:46Z</time></trkpt><trkpt lat="43.51745391437939" lon="11.19711282627755"><ele>247.75</ele><time>2026-05-01T16:55:47Z</time></trkpt><trkpt lat="43.51759682725527" lon="11.19711318369434"><ele>249.5</ele><time>2026-05-01T16:55:48Z</time></trkpt><trkpt lat="43.51773672939125" lon="11.197121237503717"><ele>251.25</ele><time>2026-05-01T16:55:49Z</time></trkpt><trkpt lat="43.51787684867744" lon="11.197124760751176"><ele>253.0</ele><time>2026-05-01T16:55:50Z</time></trkpt><trkpt lat="43.518015150547264" lon="11.19712948930199"><ele>253.5</ele><time>2026-05-01T16:55:51Z</time></trkpt><trkpt lat="43.51815422193175" lon="11.197142549425465"><ele>254.0</ele><time>2026-05-01T16:55:52Z</time></trkpt><trkpt lat="43.51829556078966" lon="11.197149451388114"><ele>254.5</ele><time>2026-05-01T16:55:53Z</time></trkpt><trkpt lat="43.51843609703532" lon="11.197151505488323"><ele>255.0</ele><time>2026-05-01T16:55:54Z</time></trkpt><trkpt lat="43.518573182193" lon="11.197172364755719"><ele>255.0</ele><time>2026-05-01T16:55:55Z</time></trkpt><trkpt lat="43.51871153638373" lon="11.197191119378727"><ele>255.0</ele><time>2026-05-01T16:55:56Z</time></trkpt><trkpt lat="43.51884850925042" lon="11.197206576883165"><ele>255.0</ele><time>2026-05-01T16:55:57Z</time></trkpt><trkpt lat="43.518987157681906" lon="11.197228977882352"><ele>255.0</ele><time>2026-05-01T16:55:58Z</time></trkpt><trkpt lat="43.51912464089309" lon="11.197260667799677"><ele>255.25</ele><time>2026-05-01T16:55:59Z</time></trkpt><trkpt lat="43.51926184243019" lon="11.19729167958581"><ele>255.5</ele><time>2026-05-01T16:56:00Z</time></trkpt><trkpt lat="43.519401488211976" lon="11.197333335239373"><ele>255.75</ele><time>2026-05-01T16:56:01Z</time></trkpt><trkpt lat="43.519540950628794" lon="11.19738095108035"><ele>256.0</ele><time>2026-05-01T16:56:02Z</time></trkpt><trkpt lat="43.51967865070263" lon="11.19743434872227"><ele>258.75</ele><time>2026-05-01T16:56:03Z</time></trkpt><trkpt lat="43.519809952751714" lon="11.197489102697624"><ele>261.5</ele><time>2026-05-01T16:56:04Z</time></trkpt><trkpt lat="43.51994038354455" lon="11.197543231110307"><ele>264.25</ele><time>2026-05-01T16:56:05Z</time></trkpt><trkpt lat="43.52006744996065" lon="11.197599722680108"><ele>267.0</ele><time>2026-05-01T16:56:06Z</time></trkpt><trkpt lat="43.52019570118644" lon="11.197662409260978"><ele>267.0</ele><time>2026-05-01T16:56:07Z</time></trkpt><trkpt lat="43.52032268957505" lon="11.197724777165618"><ele>267.0</ele><time>2026-05-01T16:56:08Z</time></trkpt><trkpt lat="43.52044921676015" lon="11.197786999646894"><ele>267.0</ele><time>2026-05-01T16:56:09Z</time></trkpt><trkpt lat="43.520575615910914" lon="11.197857867217312"><ele>267.0</ele><time>2026-05-01T16:56:10Z</time></trkpt><trkpt lat="43.52069906277996" lon="11.197923646848782"><ele>265.75</ele><time>2026-05-01T16:56:11Z</time></trkpt><trkpt lat="43.520823161976686" lon="11.197987812659823"><ele>264.5</ele><time>2026-05-01T16:56:12Z</time></trkpt><trkpt lat="43.52094397105889" lon="11.198054591454298"><ele>263.25</ele><time>2026-05-01T16:56:13Z</time></trkpt><trkpt lat="43.521066460891554" lon="11.198115481354682"><ele>262.0</ele><time>2026-05-01T16:56:14Z</time></trkpt><trkpt lat="43.52118626579338" lon="11.198177796556854"><ele>264.25</ele><time>2026-05-01T16:56:15Z</time></trkpt><trkpt lat="43.521307467770676" lon="11.198240922828857"><ele>266.5</ele><time>2026-05-01T16:56:16Z</time></trkpt><trkpt lat="43.521428182657836" lon="11.198304243316691"><ele>268.75</ele><time>2026-05-01T16:56:17Z</time></trkpt><trkpt lat="43.52155072208306" lon="11.198372310635245"><ele>271.0</ele><time>2026-05-01T16:56:18Z</time></trkpt><trkpt lat="43.52167413199811" lon="11.198435157414258"><ele>271.0</ele><time>2026-05-01T16:56:19Z</time></trkpt><trkpt lat="43.521797269343054" lon="11.198501539605106"><ele>271.0</ele><time>2026-05-01T16:56:20Z</time></trkpt><trkpt lat="43.52192473162919" lon="11.198568348558497"><ele>271.0</ele><time>2026-05-01T16:56:21Z</time></trkpt><trkpt lat="43.52205041457369" lon="11.198638214978198"><ele>271.0</ele><time>2026-05-01T16:56:22Z</time></trkpt><trkpt lat="43.522182219336905" lon="11.198707139218243"><ele>270.25</ele><time>2026-05-01T16:56:23Z</time></trkpt><trkpt lat="43.5223132845656" lon="11.198773538826847"><ele>269.5</ele><time>2026-05-01T16:56:24Z</time></trkpt><trkpt lat="43.522437261175305" lon="11.198847177664852"><ele>268.75</ele><time>2026-05-01T16:56:25Z</time></trkpt><trkpt lat="43.522561029388044" lon="11.19891836318649"><ele>268.0</ele><time>2026-05-01T16:56:26Z</time></trkpt><trkpt lat="43.522686560474504" lon="11.198995026990929"><ele>269.0</ele><time>2026-05-01T16:56:27Z</time></trkpt><trkpt lat="43.522812347243296" lon="11.199072832391288"><ele>270.0</ele><time>2026-05-01T16:56:28Z</time></trkpt><trkpt lat="43.522942887437424" lon="11.199157701833117"><ele>271.0</ele><time>2026-05-01T16:56:29Z</time></trkpt><trkpt lat="43.52306389087502" lon="11.199244486333452"><ele>272.0</ele><time>2026-05-01T16:56:30Z</time></trkpt><trkpt lat="43.52318716620119" lon="11.199337329708783"><ele>272.0</ele><time>2026-05-01T16:56:31Z</time></trkpt><trkpt lat="43.52331552776141" lon="11.199434102370663"><ele>272.0</ele><time>2026-05-01T16:56:32Z</time></trkpt><trkpt lat="43.52344133981071" lon="11.199524757961806"><ele>272.0</ele><time>2026-05-01T16:56:33Z</time></trkpt><trkpt lat="43.52355629765934" lon="11.19962266833794"><ele>272.0</ele><time>2026-05-01T16:56:34Z</time></trkpt><trkpt lat="43.523678750785734" lon="11.199716319081258"><ele>272.75</ele><time>2026-05-01T16:56:35Z</time></trkpt><trkpt lat="43.52379500559079" lon="11.199821133617048"><ele>273.5</ele><time>2026-05-01T16:56:36Z</time></trkpt><trkpt lat="43.52391700835856" lon="11.199927128147902"><ele>274.25</ele><time>2026-05-01T16:56:37Z</time></trkpt><trkpt lat="43.52403422361718" lon="11.200036026199285"><ele>275.0</ele><time>2026-05-01T16:56:38Z</time></trkpt><trkpt lat="43.524153766045046" lon="11.200147151961184"><ele>276.0</ele><time>2026-05-01T16:56:39Z</time></trkpt><trkpt lat="43.52427501663848" lon="11.200266238219081"><ele>277.0</ele><time>2026-05-01T16:56:40Z</time></trkpt><trkpt lat="43.52439647972938" lon="11.200391120058365"><ele>278.0</ele><time>2026-05-01T16:56:41Z</time></trkpt><trkpt lat="43.52451935778763" lon="11.200508861095164"><ele>279.0</ele><time>2026-05-01T16:56:42Z</time></trkpt><trkpt lat="43.524637618341934" lon="11.20063516601745"><ele>280.0</ele><time>2026-05-01T16:56:43Z</time></trkpt><trkpt lat="43.524752544862906" lon="11.200765386238423"><ele>281.0</ele><time>2026-05-01T16:56:44Z</time></trkpt><trkpt lat="43.52486719388969" lon="11.200897581892864"><ele>282.0</ele><time>2026-05-01T16:56:45Z</time></trkpt><trkpt lat="43.52498426774235" lon="11.20102831244849"><ele>282.0</ele><time>2026-05-01T16:56:46Z</time></trkpt><trkpt lat="43.525091531340706" lon="11.201164177828163"><ele>282.0</ele><time>2026-05-01T16:56:47Z</time></trkpt><trkpt lat="43.52519948511428" lon="11.20129800071945"><ele>282.0</ele><time>2026-05-01T16:56:48Z</time></trkpt><trkpt lat="43.52530275777321" lon="11.201436652120048"><ele>282.0</ele><time>2026-05-01T16:56:49Z</time></trkpt><trkpt lat="43.52541091188655" lon="11.201581902525165"><ele>285.0</ele><time>2026-05-01T16:56:50Z</time></trkpt><trkpt lat="43.52551588301793" lon="11.20173173265103"><ele>288.0</ele><time>2026-05-01T16:56:51Z</time></trkpt><trkpt lat="43.525625495654786" lon="11.201882004258309"><ele>291.0</ele><time>2026-05-01T16:56:52Z</time></trkpt><trkpt lat="43.525727370725996" lon="11.202042432167843"><ele>291.0</ele><time>2026-05-01T16:56:53Z</time></trkpt><trkpt lat="43.52582804386149" lon="11.20220676860712"><ele>291.0</ele><time>2026-05-01T16:56:54Z</time></trkpt><trkpt lat="43.52592975622908" lon="11.202377435552169"><ele>291.0</ele><time>2026-05-01T16:56:55Z</time></trkpt><trkpt lat="43.5260302480393" lon="11.202549273075682"><ele>290.6666666666667</ele><time>2026-05-01T16:56:56Z</time></trkpt><trkpt lat="43.52612693363504" lon="11.202721790163007"><ele>290.33333333333337</ele><time>2026-05-01T16:56:57Z</time></trkpt><trkpt lat="43.52621958680148" lon="11.202898174880126"><ele>290.0</ele><time>2026-05-01T16:56:58Z</time></trkpt><trkpt lat="43.52631022717573" lon="11.203076599731167"><ele>289.6666666666667</ele><time>2026-05-01T16:56:59Z</time></trkpt><trkpt lat="43.52640095561156" lon="11.203251839449551"><ele>289.3333333333333</ele><time>2026-05-01T16:57:00Z</time></trkpt><trkpt lat="43.526492053593" lon="11.203432254870256"><ele>289.0</ele><time>2026-05-01T16:57:01Z</time></trkpt><trkpt lat="43.526580238529974" lon="11.203614878856175"><ele>289.0</ele><time>2026-05-01T16:57:02Z</time></trkpt><trkpt lat="43.52666137058925" lon="11.203789478658987"><ele>289.0</ele><time>2026-05-01T16:57:03Z</time></trkpt><trkpt lat="43.52674056928792" lon="11.203978163824573"><ele>289.0</ele><time>2026-05-01T16:57:04Z</time></trkpt><trkpt lat="43.52682080131067" lon="11.204166740199929"><ele>290.0</ele><time>2026-05-01T16:57:05Z</time></trkpt><trkpt lat="43.52690501671994" lon="11.204356020864084"><ele>291.0</ele><time>2026-05-01T16:57:06Z</time></trkpt><trkpt lat="43.52698805068562" lon="11.204550446536143"><ele>292.0</ele><time>2026-05-01T16:57:07Z</time></trkpt><trkpt lat="43.527070699536964" lon="11.204743940286328"><ele>289.66666666666663</ele><time>2026-05-01T16:57:08Z</time></trkpt><trkpt lat="43.52715461584146" lon="11.204936970824775"><ele>287.3333333333333</ele><time>2026-05-01T16:57:09Z</time></trkpt><trkpt lat="43.527236907325076" lon="11.205129783222322"><ele>285.0</ele><time>2026-05-01T16:57:10Z</time></trkpt><trkpt lat="43.52732088841858" lon="11.205320499323268"><ele>285.0</ele><time>2026-05-01T16:57:11Z</time></trkpt><trkpt lat="43.52740562876814" lon="11.205509929393356"><ele>285.0</ele><time>2026-05-01T16:57:12Z</time></trkpt><trkpt lat="43.52749911474903" lon="11.205701666726668"><ele>285.0</ele><time>2026-05-01T16:57:13Z</time></trkpt><trkpt lat="43.52758636632794" lon="11.205903293433476"><ele>288.0</ele><time>2026-05-01T16:57:14Z</time></trkpt><trkpt lat="43.52767831976786" lon="11.206107325797952"><ele>291.0</ele><time>2026-05-01T16:57:15Z</time></trkpt><trkpt lat="43.52777014214815" lon="11.206315283558776"><ele>294.0</ele><time>2026-05-01T16:57:16Z</time></trkpt><trkpt lat="43.52785622578928" lon="11.206522685485895"><ele>294.0</ele><time>2026-05-01T16:57:17Z</time></trkpt><trkpt lat="43.527954299697384" lon="11.206733486348748"><ele>294.0</ele><time>2026-05-01T16:57:18Z</time></trkpt><trkpt lat="43.52803985376316" lon="11.206943198721197"><ele>294.0</ele><time>2026-05-01T16:57:19Z</time></trkpt><trkpt lat="43.5281273253185" lon="11.207160557018758"><ele>293.0</ele><time>2026-05-01T16:57:20Z</time></trkpt><trkpt lat="43.52821724698636" lon="11.207372420958034"><ele>292.0</ele><time>2026-05-01T16:57:21Z</time></trkpt><trkpt lat="43.52831286473407" lon="11.207583802507413"><ele>291.0</ele><time>2026-05-01T16:57:22Z</time></trkpt><trkpt lat="43.5284029113697" lon="11.207795686875809"><ele>291.0</ele><time>2026-05-01T16:57:23Z</time></trkpt><trkpt lat="43.528500141024246" lon="11.20800602615934"><ele>291.0</ele><time>2026-05-01T16:57:24Z</time></trkpt><trkpt lat="43.52860642033678" lon="11.208206703024544"><ele>291.0</ele><time>2026-05-01T16:57:25Z</time></trkpt><trkpt lat="43.52871622491971" lon="11.208402072859773"><ele>289.0</ele><time>2026-05-01T16:57:26Z</time></trkpt><trkpt lat="43.52883267792883" lon="11.20859504240987"><ele>287.0</ele><time>2026-05-01T16:57:27Z</time></trkpt><trkpt lat="43.52894848627994" lon="11.208779662453734"><ele>285.0</ele><time>2026-05-01T16:57:28Z</time></trkpt><trkpt lat="43.52907820337837" lon="11.208965616233513"><ele>288.0</ele><time>2026-05-01T16:57:29Z</time></trkpt><trkpt lat="43.529205884931706" lon="11.209148267501792"><ele>291.0</ele><time>2026-05-01T16:57:30Z</time></trkpt><trkpt lat="43.529332062923274" lon="11.209325040883698"><ele>294.0</ele><time>2026-05-01T16:57:31Z</time></trkpt><trkpt lat="43.52945555896049" lon="11.209496730532186"><ele>292.6666666666667</ele><time>2026-05-01T16:57:32Z</time></trkpt><trkpt lat="43.52957298293565" lon="11.209673167229266"><ele>291.33333333333337</ele><time>2026-05-01T16:57:33Z</time></trkpt><trkpt lat="43.52969104059329" lon="11.209849111032762"><ele>290.0</ele><time>2026-05-01T16:57:34Z</time></trkpt><trkpt lat="43.529808657009966" lon="11.210030190479642"><ele>290.0</ele><time>2026-05-01T16:57:35Z</time></trkpt><trkpt lat="43.52991981044747" lon="11.21021722143085"><ele>290.0</ele><time>2026-05-01T16:57:36Z</time></trkpt><trkpt lat="43.5300270423571" lon="11.210407834690413"><ele>290.0</ele><time>2026-05-01T16:57:37Z</time></trkpt><trkpt lat="43.53013193822656" lon="11.210607835278521"><ele>287.33333333333337</ele><time>2026-05-01T16:57:38Z</time></trkpt><trkpt lat="43.530227767329144" lon="11.210814854541146"><ele>284.6666666666667</ele><time>2026-05-01T16:57:39Z</time></trkpt><trkpt lat="43.53032269225944" lon="11.211023918967479"><ele>282.0</ele><time>2026-05-01T16:57:40Z</time></trkpt><trkpt lat="43.53041055056971" lon="11.211242296749068"><ele>282.0</ele><time>2026-05-01T16:57:41Z</time></trkpt><trkpt lat="43.53048850522892" lon="11.211465506890821"><ele>282.0</ele><time>2026-05-01T16:57:42Z</time></trkpt><trkpt lat="43.53056021732659" lon="11.211691974349934"><ele>282.0</ele><time>2026-05-01T16:57:43Z</time></trkpt><trkpt lat="43.530628603618005" lon="11.211924538527366"><ele>284.0</ele><time>2026-05-01T16:57:44Z</time></trkpt><trkpt lat="43.530694341725706" lon="11.212157111217236"><ele>286.0</ele><time>2026-05-01T16:57:45Z</time></trkpt><trkpt lat="43.53076741595098" lon="11.212392615982584"><ele>288.0</ele><time>2026-05-01T16:57:46Z</time></trkpt><trkpt lat="43.530833571116" lon="11.212625363471957"><ele>289.3333333333333</ele><time>2026-05-01T16:57:47Z</time></trkpt><trkpt lat="43.530901852171134" lon="11.212860139094113"><ele>290.66666666666663</ele><time>2026-05-01T16:57:48Z</time></trkpt><trkpt lat="43.53097190058238" lon="11.213093780652725"><ele>292.0</ele><time>2026-05-01T16:57:49Z</time></trkpt><trkpt lat="43.53104412867109" lon="11.213329209610778"><ele>292.3333333333333</ele><time>2026-05-01T16:57:50Z</time></trkpt><trkpt lat="43.531118365180596" lon="11.2135635450217"><ele>292.6666666666667</ele><time>2026-05-01T16:57:51Z</time></trkpt><trkpt lat="43.53120131919929" lon="11.21379614657212"><ele>293.0</ele><time>2026-05-01T16:57:52Z</time></trkpt><trkpt lat="43.53129180821538" lon="11.214020787121582"><ele>287.6666666666667</ele><time>2026-05-01T16:57:53Z</time></trkpt><trkpt lat="43.53139244586859" lon="11.214242895012655"><ele>282.3333333333333</ele><time>2026-05-01T16:57:54Z</time></trkpt><trkpt lat="43.531498588582565" lon="11.214459128192823"><ele>277.0</ele><time>2026-05-01T16:57:55Z</time></trkpt><trkpt lat="43.53160968916382" lon="11.214667909799727"><ele>277.66666666666663</ele><time>2026-05-01T16:57:56Z</time></trkpt><trkpt lat="43.53173019645607" lon="11.21487248922393"><ele>278.3333333333333</ele><time>2026-05-01T16:57:57Z</time></trkpt><trkpt lat="43.53185693288711" lon="11.21507089964397"><ele>279.0</ele><time>2026-05-01T16:57:58Z</time></trkpt><trkpt lat="43.53198412059363" lon="11.215269291304583"><ele>284.3333333333333</ele><time>2026-05-01T16:57:59Z</time></trkpt><trkpt lat="43.53211331395508" lon="11.21546769424159"><ele>289.66666666666663</ele><time>2026-05-01T16:58:00Z</time></trkpt><trkpt lat="43.53223910653071" lon="11.215665836200637"><ele>295.0</ele><time>2026-05-01T16:58:01Z</time></trkpt><trkpt lat="43.532362271581924" lon="11.21586478529223"><ele>296.0</ele><time>2026-05-01T16:58:02Z</time></trkpt><trkpt lat="43.53249067610086" lon="11.216061293779319"><ele>297.0</ele><time>2026-05-01T16:58:03Z</time></trkpt><trkpt lat="43.53261774848804" lon="11.21626417730487"><ele>298.0</ele><time>2026-05-01T16:58:04Z</time></trkpt><trkpt lat="43.532744167929664" lon="11.216464624345186"><ele>297.3333333333333</ele><time>2026-05-01T16:58:05Z</time></trkpt><trkpt lat="43.53286719053313" lon="11.216669274360374"><ele>296.6666666666667</ele><time>2026-05-01T16:58:06Z</time></trkpt><trkpt lat="43.53298404228937" lon="11.216875697951398"><ele>296.0</ele><time>2026-05-01T16:58:07Z</time></trkpt><trkpt lat="43.53310498999245" lon="11.217070799436986"><ele>299.0</ele><time>2026-05-01T16:58:08Z</time></trkpt><trkpt lat="43.53322789804374" lon="11.21726587944706"><ele>302.0</ele><time>2026-05-01T16:58:09Z</time></trkpt><trkpt lat="43.533353125103616" lon="11.217458426947736"><ele>305.0</ele><time>2026-05-01T16:58:10Z</time></trkpt><trkpt lat="43.5334796746314" lon="11.217652644091409"><ele>305.0</ele><time>2026-05-01T16:58:11Z</time></trkpt><trkpt lat="43.53360607478793" lon="11.217846588228209"><ele>305.0</ele><time>2026-05-01T16:58:12Z</time></trkpt><trkpt lat="43.533726571612895" lon="11.218043191285258"><ele>305.0</ele><time>2026-05-01T16:58:13Z</time></trkpt><trkpt lat="43.533850933299135" lon="11.218236544847777"><ele>306.6666666666667</ele><time>2026-05-01T16:58:14Z</time></trkpt><trkpt lat="43.533982011575326" lon="11.218422612616825"><ele>308.3333333333333</ele><time>2026-05-01T16:58:15Z</time></trkpt><trkpt lat="43.53411783434293" lon="11.218604203804786"><ele>310.0</ele><time>2026-05-01T16:58:16Z</time></trkpt><trkpt lat="43.53425727396805" lon="11.218778666938482"><ele>310.0</ele><time>2026-05-01T16:58:17Z</time></trkpt><trkpt lat="43.534405359254244" lon="11.218949491236506"><ele>310.0</ele><time>2026-05-01T16:58:18Z</time></trkpt><trkpt lat="43.53455636071479" lon="11.219114053667644"><ele>310.0</ele><time>2026-05-01T16:58:19Z</time></trkpt><trkpt lat="43.53471331404441" lon="11.219267512754586"><ele>311.66666666666663</ele><time>2026-05-01T16:58:20Z</time></trkpt><trkpt lat="43.53487587561814" lon="11.219414380871381"><ele>313.3333333333333</ele><time>2026-05-01T16:58:21Z</time></trkpt><trkpt lat="43.53504301178777" lon="11.219550404371391"><ele>315.0</ele><time>2026-05-01T16:58:22Z</time></trkpt><trkpt lat="43.53521745093972" lon="11.219680807875905"><ele>316.0</ele><time>2026-05-01T16:58:23Z</time></trkpt><trkpt lat="43.5353955317912" lon="11.219804929702073"><ele>317.0</ele><time>2026-05-01T16:58:24Z</time></trkpt><trkpt lat="43.5355744367003" lon="11.2199213895931"><ele>318.0</ele><time>2026-05-01T16:58:25Z</time></trkpt><trkpt lat="43.535756152180106" lon="11.220032204306907"><ele>318.0</ele><time>2026-05-01T16:58:26Z</time></trkpt><trkpt lat="43.535943336789465" lon="11.220136408079934"><ele>318.0</ele><time>2026-05-01T16:58:27Z</time></trkpt><trkpt lat="43.53613302286231" lon="11.220230412717894"><ele>318.0</ele><time>2026-05-01T16:58:28Z</time></trkpt><trkpt lat="43.53632012331209" lon="11.220316308935779"><ele>319.3333333333333</ele><time>2026-05-01T16:58:29Z</time></trkpt><trkpt lat="43.53651210516407" lon="11.220391714800755"><ele>320.66666666666663</ele><time>2026-05-01T16:58:30Z</time></trkpt><trkpt lat="43.53670740694909" lon="11.220452913869432"><ele>322.0</ele><time>2026-05-01T16:58:31Z</time></trkpt><trkpt lat="43.53690356297253" lon="11.220500770040557"><ele>320.66666666666663</ele><time>2026-05-01T16:58:32Z</time></trkpt><trkpt lat="43.53709039658188" lon="11.220539089979571"><ele>319.3333333333333</ele><time>2026-05-01T16:58:33Z</time></trkpt><trkpt lat="43.53728116887248" lon="11.22056874815691"><ele>318.0</ele><time>2026-05-01T16:58:34Z</time></trkpt><trkpt lat="43.537472833964955" lon="11.220594072427664"><ele>318.0</ele><time>2026-05-01T16:58:35Z</time></trkpt><trkpt lat="43.53766371184519" lon="11.220604655808485"><ele>318.0</ele><time>2026-05-01T16:58:36Z</time></trkpt><trkpt lat="43.537854781357694" lon="11.220606318126938"><ele>318.0</ele><time>2026-05-01T16:58:37Z</time></trkpt><trkpt lat="43.53804737370128" lon="11.22060027447815"><ele>316.0</ele><time>2026-05-01T16:58:38Z</time></trkpt><trkpt lat="43.53824556718792" lon="11.220582974831514"><ele>314.0</ele><time>2026-05-01T16:58:39Z</time></trkpt><trkpt lat="43.53844148048781" lon="11.220554719715006"><ele>312.0</ele><time>2026-05-01T16:58:40Z</time></trkpt><trkpt lat="43.538639602986756" lon="11.220516575802666"><ele>311.6666666666667</ele><time>2026-05-01T16:58:41Z</time></trkpt><trkpt lat="43.53883686209488" lon="11.220478242396872"><ele>311.33333333333337</ele><time>2026-05-01T16:58:42Z</time></trkpt><trkpt lat="43.53903484350355" lon="11.220414801265079"><ele>311.0</ele><time>2026-05-01T16:58:43Z</time></trkpt><trkpt lat="43.539228570607996" lon="11.220346938652261"><ele>311.0</ele><time>2026-05-01T16:58:44Z</time></trkpt><trkpt lat="43.5394188478041" lon="11.220269967166365"><ele>311.0</ele><time>2026-05-01T16:58:45Z</time></trkpt><trkpt lat="43.53960872380936" lon="11.220184943236946"><ele>311.0</ele><time>2026-05-01T16:58:46Z</time></trkpt><trkpt lat="43.53979704939247" lon="11.22009015065956"><ele>310.33333333333337</ele><time>2026-05-01T16:58:47Z</time></trkpt><trkpt lat="43.539983189390455" lon="11.219982528313906"><ele>309.6666666666667</ele><time>2026-05-01T16:58:48Z</time></trkpt><trkpt lat="43.54016809558621" lon="11.219866952147276"><ele>309.0</ele><time>2026-05-01T16:58:49Z</time></trkpt><trkpt lat="43.540348909476755" lon="11.21974207735547"><ele>309.0</ele><time>2026-05-01T16:58:50Z</time></trkpt><trkpt lat="43.54052721648861" lon="11.219611116068178"><ele>309.0</ele><time>2026-05-01T16:58:51Z</time></trkpt><trkpt lat="43.54070164074897" lon="11.219468454350814"><ele>309.0</ele><time>2026-05-01T16:58:52Z</time></trkpt><trkpt lat="43.54087238306727" lon="11.219318484564427"><ele>309.0</ele><time>2026-05-01T16:58:53Z</time></trkpt><trkpt lat="43.54103757315288" lon="11.219156767495196"><ele>309.0</ele><time>2026-05-01T16:58:54Z</time></trkpt><trkpt lat="43.54120063628456" lon="11.21898609040248"><ele>309.0</ele><time>2026-05-01T16:58:55Z</time></trkpt><trkpt lat="43.54136188834051" lon="11.218806302372638"><ele>307.0</ele><time>2026-05-01T16:58:56Z</time></trkpt><trkpt lat="43.541512516625666" lon="11.218616765513877"><ele>305.0</ele><time>2026-05-01T16:58:57Z</time></trkpt><trkpt lat="43.54165794263776" lon="11.218427811764633"><ele>303.0</ele><time>2026-05-01T16:58:58Z</time></trkpt><trkpt lat="43.541801332554286" lon="11.218228476735657"><ele>303.0</ele><time>2026-05-01T16:58:59Z</time></trkpt><trkpt lat="43.54193849150745" lon="11.218021389459448"><ele>303.0</ele><time>2026-05-01T16:59:00Z</time></trkpt><trkpt lat="43.542072924279566" lon="11.217808547634514"><ele>303.0</ele><time>2026-05-01T16:59:01Z</time></trkpt><trkpt lat="43.54220447173381" lon="11.217592278303984"><ele>303.0</ele><time>2026-05-01T16:59:02Z</time></trkpt><trkpt lat="43.54233629372952" lon="11.217382741812052"><ele>303.0</ele><time>2026-05-01T16:59:03Z</time></trkpt><trkpt lat="43.54246941922021" lon="11.217170324195218"><ele>303.0</ele><time>2026-05-01T16:59:04Z</time></trkpt><trkpt lat="43.542601328900346" lon="11.2169596808785"><ele>300.3333333333333</ele><time>2026-05-01T16:59:05Z</time></trkpt><trkpt lat="43.54273407359293" lon="11.216751658486018"><ele>297.66666666666663</ele><time>2026-05-01T16:59:06Z</time></trkpt><trkpt lat="43.542864821561324" lon="11.216540505289018"><ele>295.0</ele><time>2026-05-01T16:59:07Z</time></trkpt><trkpt lat="43.54299491992442" lon="11.216328741881272"><ele>294.0</ele><time>2026-05-01T16:59:08Z</time></trkpt><trkpt lat="43.54312615805268" lon="11.216119467337478"><ele>293.0</ele><time>2026-05-01T16:59:09Z</time></trkpt><trkpt lat="43.54325644992405" lon="11.215909574149853"><ele>292.0</ele><time>2026-05-01T16:59:10Z</time></trkpt><trkpt lat="43.54338896869052" lon="11.215702817614638"><ele>291.0</ele><time>2026-05-01T16:59:11Z</time></trkpt><trkpt lat="43.54352079513802" lon="11.215493174479027"><ele>290.0</ele><time>2026-05-01T16:59:12Z</time></trkpt><trkpt lat="43.54365182936937" lon="11.215284951175997"><ele>289.0</ele><time>2026-05-01T16:59:13Z</time></trkpt><trkpt lat="43.54378070721212" lon="11.215075892097206"><ele>291.3333333333333</ele><time>2026-05-01T16:59:14Z</time></trkpt><trkpt lat="43.54391923464692" lon="11.214877981597041"><ele>293.6666666666667</ele><time>2026-05-01T16:59:15Z</time></trkpt><trkpt lat="43.54405587864279" lon="11.21467965502755"><ele>296.0</ele><time>2026-05-01T16:59:16Z</time></trkpt><trkpt lat="43.54419389136466" lon="11.214483395143063"><ele>296.0</ele><time>2026-05-01T16:59:17Z</time></trkpt><trkpt lat="43.544332316542445" lon="11.21428458372347"><ele>296.0</ele><time>2026-05-01T16:59:18Z</time></trkpt><trkpt lat="43.54447343102152" lon="11.214088602959057"><ele>296.0</ele><time>2026-05-01T16:59:19Z</time></trkpt><trkpt lat="43.54461755291078" lon="11.213897544844633"><ele>296.0</ele><time>2026-05-01T16:59:20Z</time></trkpt><trkpt lat="43.544758339257626" lon="11.213703507793168"><ele>296.0</ele><time>2026-05-01T16:59:21Z</time></trkpt><trkpt lat="43.54490226037711" lon="11.213516407740986"><ele>296.0</ele><time>2026-05-01T16:59:22Z</time></trkpt><trkpt lat="43.54504624584143" lon="11.213332238897328"><ele>295.33333333333337</ele><time>2026-05-01T16:59:23Z</time></trkpt><trkpt lat="43.54519356334934" lon="11.213154396869417"><ele>294.6666666666667</ele><time>2026-05-01T16:59:24Z</time></trkpt><trkpt lat="43.54534024335867" lon="11.212978643731365"><ele>294.0</ele><time>2026-05-01T16:59:25Z</time></trkpt><trkpt lat="43.545483584056974" lon="11.212804969541473"><ele>294.0</ele><time>2026-05-01T16:59:26Z</time></trkpt><trkpt lat="43.54562995772075" lon="11.21263561986832"><ele>294.0</ele><time>2026-05-01T16:59:27Z</time></trkpt><trkpt lat="43.54577423973027" lon="11.212463879362428"><ele>294.0</ele><time>2026-05-01T16:59:28Z</time></trkpt><trkpt lat="43.54591854829017" lon="11.212301382009874"><ele>294.3333333333333</ele><time>2026-05-01T16:59:29Z</time></trkpt><trkpt lat="43.546065269715754" lon="11.212138186402516"><ele>294.66666666666663</ele><time>2026-05-01T16:59:30Z</time></trkpt><trkpt lat="43.54620967001516" lon="11.21197521289565"><ele>295.0</ele><time>2026-05-01T16:59:31Z</time></trkpt><trkpt lat="43.546356083696374" lon="11.211807721714184"><ele>295.0</ele><time>2026-05-01T16:59:32Z</time></trkpt><trkpt lat="43.54650935371923" lon="11.21164714759245"><ele>295.0</ele><time>2026-05-01T16:59:33Z</time></trkpt><trkpt lat="43.54666784553823" lon="11.211492489516262"><ele>295.0</ele><time>2026-05-01T16:59:34Z</time></trkpt><trkpt lat="43.546829084427365" lon="11.211342085210362"><ele>294.66666666666663</ele><time>2026-05-01T16:59:35Z</time></trkpt><trkpt lat="43.54699325381653" lon="11.21119968425476"><ele>294.3333333333333</ele><time>2026-05-01T16:59:36Z</time></trkpt><trkpt lat="43.547162785472345" lon="11.211071366486431"><ele>294.0</ele><time>2026-05-01T16:59:37Z</time></trkpt><trkpt lat="43.54733673809611" lon="11.210948918280035"><ele>295.3333333333333</ele><time>2026-05-01T16:59:38Z</time></trkpt><trkpt lat="43.547514288063965" lon="11.210839179642065"><ele>296.66666666666663</ele><time>2026-05-01T16:59:39Z</time></trkpt><trkpt lat="43.54769396120195" lon="11.210739307905055"><ele>298.0</ele><time>2026-05-01T16:59:40Z</time></trkpt><trkpt lat="43.54787586989025" lon="11.210648363027197"><ele>299.66666666666663</ele><time>2026-05-01T16:59:41Z</time></trkpt><trkpt lat="43.54805963867228" lon="11.210569063054887"><ele>301.3333333333333</ele><time>2026-05-01T16:59:42Z</time></trkpt><trkpt lat="43.54824642750551" lon="11.210503351278332"><ele>303.0</ele><time>2026-05-01T16:59:43Z</time></trkpt><trkpt lat="43.54843461404706" lon="11.210452765941609"><ele>303.0</ele><time>2026-05-01T16:59:44Z</time></trkpt><trkpt lat="43.548624188240375" lon="11.210413431986321"><ele>303.0</ele><time>2026-05-01T16:59:45Z</time></trkpt><trkpt lat="43.548815081173935" lon="11.210382199213427"><ele>303.0</ele><time>2026-05-01T16:59:46Z</time></trkpt><trkpt lat="43.549007803329324" lon="11.210362420778399"><ele>305.3333333333333</ele><time>2026-05-01T16:59:47Z</time></trkpt><trkpt lat="43.549201036927656" lon="11.210354421017925"><ele>307.66666666666663</ele><time>2026-05-01T16:59:48Z</time></trkpt><trkpt lat="43.549395412533144" lon="11.210351323223971"><ele>310.0</ele><time>2026-05-01T16:59:49Z</time></trkpt><trkpt lat="43.54958958143058" lon="11.210346630576492"><ele>310.0</ele><time>2026-05-01T16:59:50Z</time></trkpt><trkpt lat="43.54978444934639" lon="11.210344864750592"><ele>310.0</ele><time>2026-05-01T16:59:51Z</time></trkpt><trkpt lat="43.54998010726689" lon="11.210339706782317"><ele>310.0</ele><time>2026-05-01T16:59:52Z</time></trkpt><trkpt lat="43.55017651273685" lon="11.210338525037308"><ele>310.0</ele><time>2026-05-01T16:59:53Z</time></trkpt><trkpt lat="43.55037149025354" lon="11.210334837568686"><ele>310.0</ele><time>2026-05-01T16:59:54Z</time></trkpt><trkpt lat="43.55056802086571" lon="11.210334261329168"><ele>310.0</ele><time>2026-05-01T16:59:55Z</time></trkpt><trkpt lat="43.55076349608443" lon="11.210332162618865"><ele>308.66666666666663</ele><time>2026-05-01T16:59:56Z</time></trkpt><trkpt lat="43.55096125577721" lon="11.210328274194673"><ele>307.3333333333333</ele><time>2026-05-01T16:59:57Z</time></trkpt><trkpt lat="43.55115768232266" lon="11.210328496289154"><ele>306.0</ele><time>2026-05-01T16:59:58Z</time></trkpt><trkpt lat="43.551352645722154" lon="11.21032897695256"><ele>306.0</ele><time>2026-05-01T16:59:59Z</time></trkpt><trkpt lat="43.55154801180569" lon="11.210324340069084"><ele>306.0</ele><time>2026-05-01T17:00:00Z</time></trkpt><trkpt lat="43.551740866352624" lon="11.21032074715576"><ele>306.0</ele><time>2026-05-01T17:00:01Z</time></trkpt><trkpt lat="43.5519309793878" lon="11.210315609641"><ele>308.6666666666667</ele><time>2026-05-01T17:00:02Z</time></trkpt><trkpt lat="43.55211865826902" lon="11.210314574994264"><ele>311.33333333333337</ele><time>2026-05-01T17:00:03Z</time></trkpt><trkpt lat="43.55230734111281" lon="11.210308013550357"><ele>314.0</ele><time>2026-05-01T17:00:04Z</time></trkpt><trkpt lat="43.55249059852731" lon="11.210304494875237"><ele>314.0</ele><time>2026-05-01T17:00:05Z</time></trkpt><trkpt lat="43.552672479728" lon="11.210299785385766"><ele>314.0</ele><time>2026-05-01T17:00:06Z</time></trkpt><trkpt lat="43.55285803542432" lon="11.210295186904567"><ele>314.0</ele><time>2026-05-01T17:00:07Z</time></trkpt><trkpt lat="43.553043439365126" lon="11.210289307933428"><ele>314.33333333333337</ele><time>2026-05-01T17:00:08Z</time></trkpt><trkpt lat="43.553230690292665" lon="11.21028651531406"><ele>314.6666666666667</ele><time>2026-05-01T17:00:09Z</time></trkpt><trkpt lat="43.553419102923684" lon="11.210281936783192"><ele>315.0</ele><time>2026-05-01T17:00:10Z</time></trkpt><trkpt lat="43.553612435060614" lon="11.210279355964131"><ele>316.0</ele><time>2026-05-01T17:00:11Z</time></trkpt><trkpt lat="43.55380784595028" lon="11.210274877310612"><ele>317.0</ele><time>2026-05-01T17:00:12Z</time></trkpt><trkpt lat="43.554007081646496" lon="11.210276886894249"><ele>318.0</ele><time>2026-05-01T17:00:13Z</time></trkpt><trkpt lat="43.55420970059268" lon="11.210286431570315"><ele>318.0</ele><time>2026-05-01T17:00:14Z</time></trkpt><trkpt lat="43.55441057260084" lon="11.210297699476536"><ele>318.0</ele><time>2026-05-01T17:00:15Z</time></trkpt><trkpt lat="43.55460548010487" lon="11.210318239431075"><ele>318.0</ele><time>2026-05-01T17:00:16Z</time></trkpt><trkpt lat="43.5547990189589" lon="11.210340693158201"><ele>316.0</ele><time>2026-05-01T17:00:17Z</time></trkpt><trkpt lat="43.554985108338926" lon="11.210383698150627"><ele>314.0</ele><time>2026-05-01T17:00:18Z</time></trkpt><trkpt lat="43.55516350892504" lon="11.210444444010099"><ele>312.0</ele><time>2026-05-01T17:00:19Z</time></trkpt><trkpt lat="43.55533804840992" lon="11.210499606784655"><ele>312.3333333333333</ele><time>2026-05-01T17:00:20Z</time></trkpt><trkpt lat="43.55551153979533" lon="11.21055840385342"><ele>312.66666666666663</ele><time>2026-05-01T17:00:21Z</time></trkpt><trkpt lat="43.555681350654226" lon="11.210634495061747"><ele>313.0</ele><time>2026-05-01T17:00:22Z</time></trkpt><trkpt lat="43.55585116306081" lon="11.210720306312542"><ele>309.66666666666663</ele><time>2026-05-01T17:00:23Z</time></trkpt><trkpt lat="43.55602237164589" lon="11.210810408916142"><ele>306.3333333333333</ele><time>2026-05-01T17:00:24Z</time></trkpt><trkpt lat="43.55618942525489" lon="11.210930125864573"><ele>303.0</ele><time>2026-05-01T17:00:25Z</time></trkpt><trkpt lat="43.55635830678541" lon="11.211057698631212"><ele>301.3333333333333</ele><time>2026-05-01T17:00:26Z</time></trkpt><trkpt lat="43.55652105165391" lon="11.211191644380676"><ele>299.66666666666663</ele><time>2026-05-01T17:00:27Z</time></trkpt><trkpt lat="43.55667907137335" lon="11.211324822963846"><ele>298.0</ele><time>2026-05-01T17:00:28Z</time></trkpt><trkpt lat="43.556832324471316" lon="11.211453320808909"><ele>294.66666666666663</ele><time>2026-05-01T17:00:29Z</time></trkpt><trkpt lat="43.55698417557952" lon="11.211585461456089"><ele>291.3333333333333</ele><time>2026-05-01T17:00:30Z</time></trkpt><trkpt lat="43.55714097570021" lon="11.21171674534178"><ele>288.0</ele><time>2026-05-01T17:00:31Z</time></trkpt><trkpt lat="43.55729827009027" lon="11.211848120351675"><ele>287.6666666666667</ele><time>2026-05-01T17:00:32Z</time></trkpt><trkpt lat="43.55745758470405" lon="11.211978909810085"><ele>287.33333333333337</ele><time>2026-05-01T17:00:33Z</time></trkpt><trkpt lat="43.55762315252462" lon="11.21209620349534"><ele>287.0</ele><time>2026-05-01T17:00:34Z</time></trkpt><trkpt lat="43.557797589719726" lon="11.212206838108589"><ele>287.33333333333337</ele><time>2026-05-01T17:00:35Z</time></trkpt><trkpt lat="43.55797724827743" lon="11.21230603905908"><ele>287.6666666666667</ele><time>2026-05-01T17:00:36Z</time></trkpt><trkpt lat="43.558159038106645" lon="11.212396389486019"><ele>288.0</ele><time>2026-05-01T17:00:37Z</time></trkpt><trkpt lat="43.55834349352752" lon="11.21248170786049"><ele>288.0</ele><time>2026-05-01T17:00:38Z</time></trkpt><trkpt lat="43.55853230852428" lon="11.212556885889866"><ele>288.0</ele><time>2026-05-01T17:00:39Z</time></trkpt><trkpt lat="43.55872832216936" lon="11.212614608115953"><ele>288.0</ele><time>2026-05-01T17:00:40Z</time></trkpt><trkpt lat="43.55892614909817" lon="11.212663695102615"><ele>288.0</ele><time>2026-05-01T17:00:41Z</time></trkpt><trkpt lat="43.55912598300332" lon="11.21270427157734"><ele>288.0</ele><time>2026-05-01T17:00:42Z</time></trkpt><trkpt lat="43.55932907392323" lon="11.21273321821279"><ele>288.0</ele><time>2026-05-01T17:00:43Z</time></trkpt><trkpt lat="43.559524479076416" lon="11.212762024830232"><ele>287.3333333333333</ele><time>2026-05-01T17:00:44Z</time></trkpt><trkpt lat="43.55972001430024" lon="11.212791082430282"><ele>286.66666666666663</ele><time>2026-05-01T17:00:45Z</time></trkpt><trkpt lat="43.5599138070753" lon="11.212820588358102"><ele>286.0</ele><time>2026-05-01T17:00:46Z</time></trkpt><trkpt lat="43.56010785652156" lon="11.21284541034186"><ele>286.0</ele><time>2026-05-01T17:00:47Z</time></trkpt><trkpt lat="43.5603006642925" lon="11.212872843247656"><ele>286.0</ele><time>2026-05-01T17:00:48Z</time></trkpt><trkpt lat="43.56049183982445" lon="11.212898843416244"><ele>286.0</ele><time>2026-05-01T17:00:49Z</time></trkpt><trkpt lat="43.560684989197334" lon="11.212921286715149"><ele>283.3333333333333</ele><time>2026-05-01T17:00:50Z</time></trkpt><trkpt lat="43.5608761517135" lon="11.212945458066175"><ele>280.6666666666667</ele><time>2026-05-01T17:00:51Z</time></trkpt><trkpt lat="43.56106740749166" lon="11.212969438624269"><ele>278.0</ele><time>2026-05-01T17:00:52Z</time></trkpt><trkpt lat="43.56125214492826" lon="11.212986407428144"><ele>277.33333333333337</ele><time>2026-05-01T17:00:53Z</time></trkpt><trkpt lat="43.56143683575864" lon="11.213002801594712"><ele>276.6666666666667</ele><time>2026-05-01T17:00:54Z</time></trkpt><trkpt lat="43.56162066240657" lon="11.213013042434639"><ele>276.0</ele><time>2026-05-01T17:00:55Z</time></trkpt><trkpt lat="43.561807335562186" lon="11.21303308303201"><ele>276.0</ele><time>2026-05-01T17:00:56Z</time></trkpt><trkpt lat="43.561986279315455" lon="11.213058907239962"><ele>276.0</ele><time>2026-05-01T17:00:57Z</time></trkpt><trkpt lat="43.562168193821265" lon="11.213087222848257"><ele>276.0</ele><time>2026-05-01T17:00:58Z</time></trkpt><trkpt lat="43.562350714588234" lon="11.213114461000677"><ele>276.0</ele><time>2026-05-01T17:00:59Z</time></trkpt><trkpt lat="43.56253660186952" lon="11.213134120663165"><ele>276.0</ele><time>2026-05-01T17:01:00Z</time></trkpt><trkpt lat="43.562722444531246" lon="11.213158861307056"><ele>276.0</ele><time>2026-05-01T17:01:01Z</time></trkpt><trkpt lat="43.56291401808177" lon="11.21318504347651"><ele>270.6666666666667</ele><time>2026-05-01T17:01:02Z</time></trkpt><trkpt lat="43.5631038074148" lon="11.213212392535286"><ele>265.33333333333337</ele><time>2026-05-01T17:01:03Z</time></trkpt><trkpt lat="43.56330316956298" lon="11.21323921311971"><ele>260.0</ele><time>2026-05-01T17:01:04Z</time></trkpt><trkpt lat="43.563503570725004" lon="11.213264192737281"><ele>262.0</ele><time>2026-05-01T17:01:05Z</time></trkpt><trkpt lat="43.56370510928571" lon="11.213288612388238"><ele>264.0</ele><time>2026-05-01T17:01:06Z</time></trkpt><trkpt lat="43.56390528652448" lon="11.213314079616637"><ele>266.0</ele><time>2026-05-01T17:01:07Z</time></trkpt><trkpt lat="43.56410208246636" lon="11.2133354676391"><ele>266.0</ele><time>2026-05-01T17:01:08Z</time></trkpt><trkpt lat="43.56430028864868" lon="11.213349755500781"><ele>266.0</ele><time>2026-05-01T17:01:09Z</time></trkpt><trkpt lat="43.564503034872324" lon="11.213349630659321"><ele>266.0</ele><time>2026-05-01T17:01:10Z</time></trkpt><trkpt lat="43.564704883423566" lon="11.213334276261433"><ele>267.0</ele><time>2026-05-01T17:01:11Z</time></trkpt><trkpt lat="43.56490555433949" lon="11.213310672411504"><ele>268.0</ele><time>2026-05-01T17:01:12Z</time></trkpt><trkpt lat="43.56510759673901" lon="11.21327194323521"><ele>269.0</ele><time>2026-05-01T17:01:13Z</time></trkpt><trkpt lat="43.565308210323245" lon="11.213225362777195"><ele>267.0</ele><time>2026-05-01T17:01:14Z</time></trkpt><trkpt lat="43.56550693395624" lon="11.213164537746755"><ele>265.0</ele><time>2026-05-01T17:01:15Z</time></trkpt><trkpt lat="43.56569868381041" lon="11.213093922074828"><ele>263.0</ele><time>2026-05-01T17:01:16Z</time></trkpt><trkpt lat="43.56588866583207" lon="11.213009008933161"><ele>262.6666666666667</ele><time>2026-05-01T17:01:17Z</time></trkpt><trkpt lat="43.566077193675724" lon="11.212909157158554"><ele>262.3333333333333</ele><time>2026-05-01T17:01:18Z</time></trkpt><trkpt lat="43.56626313244031" lon="11.212804413021592"><ele>262.0</ele><time>2026-05-01T17:01:19Z</time></trkpt><trkpt lat="43.566448246630905" lon="11.212687057070456"><ele>262.0</ele><time>2026-05-01T17:01:20Z</time></trkpt><trkpt lat="43.566628240512436" lon="11.212556790363474"><ele>262.0</ele><time>2026-05-01T17:01:21Z</time></trkpt><trkpt lat="43.56679733405274" lon="11.21241658950146"><ele>262.0</ele><time>2026-05-01T17:01:22Z</time></trkpt><trkpt lat="43.566962312535225" lon="11.212265458955367"><ele>254.66666666666666</ele><time>2026-05-01T17:01:23Z</time></trkpt><trkpt lat="43.56712435812281" lon="11.212102519735973"><ele>247.33333333333331</ele><time>2026-05-01T17:01:24Z</time></trkpt><trkpt lat="43.567282835281475" lon="11.211930095230846"><ele>240.0</ele><time>2026-05-01T17:01:25Z</time></trkpt><trkpt lat="43.56743671749387" lon="11.211762880173378"><ele>240.0</ele><time>2026-05-01T17:01:26Z</time></trkpt><trkpt lat="43.567588955621765" lon="11.211594622204357"><ele>240.0</ele><time>2026-05-01T17:01:27Z</time></trkpt><trkpt lat="43.56774053480865" lon="11.21142093531674"><ele>240.0</ele><time>2026-05-01T17:01:28Z</time></trkpt><trkpt lat="43.5678922823195" lon="11.211247617791258"><ele>239.66666666666669</ele><time>2026-05-01T17:01:29Z</time></trkpt><trkpt lat="43.56804590393266" lon="11.211076927791275"><ele>239.33333333333334</ele><time>2026-05-01T17:01:30Z</time></trkpt><trkpt lat="43.56819637614555" lon="11.210910817065667"><ele>239.0</ele><time>2026-05-01T17:01:31Z</time></trkpt><trkpt lat="43.56834867903328" lon="11.210748455430267"><ele>238.33333333333334</ele><time>2026-05-01T17:01:32Z</time></trkpt><trkpt lat="43.56850379400186" lon="11.21059076102918"><ele>237.66666666666669</ele><time>2026-05-01T17:01:33Z</time></trkpt><trkpt lat="43.56865894046671" lon="11.21043196556472"><ele>237.0</ele><time>2026-05-01T17:01:34Z</time></trkpt><trkpt lat="43.568812246366754" lon="11.210270624182854"><ele>237.0</ele><time>2026-05-01T17:01:35Z</time></trkpt><trkpt lat="43.56896376802793" lon="11.210095469201079"><ele>237.0</ele><time>2026-05-01T17:01:36Z</time></trkpt><trkpt lat="43.569118484861825" lon="11.209924995310725"><ele>237.0</ele><time>2026-05-01T17:01:37Z</time></trkpt><trkpt lat="43.56927326924996" lon="11.209752549869679"><ele>235.0</ele><time>2026-05-01T17:01:38Z</time></trkpt><trkpt lat="43.56943073902292" lon="11.209586885926603"><ele>233.0</ele><time>2026-05-01T17:01:39Z</time></trkpt><trkpt lat="43.56958391825067" lon="11.209412572788152"><ele>231.0</ele><time>2026-05-01T17:01:40Z</time></trkpt><trkpt lat="43.569736289983176" lon="11.209242581050209"><ele>231.0</ele><time>2026-05-01T17:01:41Z</time></trkpt><trkpt lat="43.56989252369909" lon="11.209069966047537"><ele>231.0</ele><time>2026-05-01T17:01:42Z</time></trkpt><trkpt lat="43.570050059549295" lon="11.208898811087527"><ele>231.0</ele><time>2026-05-01T17:01:43Z</time></trkpt><trkpt lat="43.57020875908609" lon="11.208722616984877"><ele>230.0</ele><time>2026-05-01T17:01:44Z</time></trkpt><trkpt lat="43.57036284863784" lon="11.20855584927547"><ele>229.0</ele><time>2026-05-01T17:01:45Z</time></trkpt><trkpt lat="43.57052021721153" lon="11.20839215767599"><ele>228.0</ele><time>2026-05-01T17:01:46Z</time></trkpt><trkpt lat="43.57068026947616" lon="11.208238263465406"><ele>225.0</ele><time>2026-05-01T17:01:47Z</time></trkpt><trkpt lat="43.57084830086514" lon="11.20809394246728"><ele>222.0</ele><time>2026-05-01T17:01:48Z</time></trkpt><trkpt lat="43.57102499011328" lon="11.207960875790247"><ele>219.0</ele><time>2026-05-01T17:01:49Z</time></trkpt><trkpt lat="43.57120427892924" lon="11.207834987083997"><ele>219.0</ele><time>2026-05-01T17:01:50Z</time></trkpt><trkpt lat="43.57138764123449" lon="11.207720628162082"><ele>219.0</ele><time>2026-05-01T17:01:51Z</time></trkpt><trkpt lat="43.57157548499681" lon="11.207616365037902"><ele>219.0</ele><time>2026-05-01T17:01:52Z</time></trkpt><trkpt lat="43.57175739419473" lon="11.207517010269225"><ele>219.0</ele><time>2026-05-01T17:01:53Z</time></trkpt><trkpt lat="43.571940336829634" lon="11.207415703746678"><ele>219.0</ele><time>2026-05-01T17:01:54Z</time></trkpt><trkpt lat="43.57212426190023" lon="11.207308064644605"><ele>219.0</ele><time>2026-05-01T17:01:55Z</time></trkpt><trkpt lat="43.57230848659709" lon="11.207205025918768"><ele>219.0</ele><time>2026-05-01T17:01:56Z</time></trkpt><trkpt lat="43.57249511011069" lon="11.207103678460037"><ele>219.0</ele><time>2026-05-01T17:01:57Z</time></trkpt><trkpt lat="43.57268009463358" lon="11.207002770235215"><ele>219.0</ele><time>2026-05-01T17:01:58Z</time></trkpt><trkpt lat="43.572867409219015" lon="11.206895271492908"><ele>219.0</ele><time>2026-05-01T17:01:59Z</time></trkpt><trkpt lat="43.57305629842668" lon="11.20679309173358"><ele>219.0</ele><time>2026-05-01T17:02:00Z</time></trkpt><trkpt lat="43.57324098010922" lon="11.206691864787402"><ele>219.0</ele><time>2026-05-01T17:02:01Z</time></trkpt><trkpt lat="43.57342854742797" lon="11.206590133730037"><ele>222.66666666666669</ele><time>2026-05-01T17:02:02Z</time></trkpt><trkpt lat="43.573618567712415" lon="11.206484513597792"><ele>226.33333333333334</ele><time>2026-05-01T17:02:03Z</time></trkpt><trkpt lat="43.57380804191354" lon="11.206377183530627"><ele>230.0</ele><time>2026-05-01T17:02:04Z</time></trkpt><trkpt lat="43.573996370159335" lon="11.206271136485418"><ele>230.0</ele><time>2026-05-01T17:02:05Z</time></trkpt><trkpt lat="43.57418537904352" lon="11.206163633341482"><ele>230.0</ele><time>2026-05-01T17:02:06Z</time></trkpt><trkpt lat="43.57437765860966" lon="11.206056690012609"><ele>230.0</ele><time>2026-05-01T17:02:07Z</time></trkpt><trkpt lat="43.57456177603985" lon="11.20595085566006"><ele>226.0</ele><time>2026-05-01T17:02:08Z</time></trkpt><trkpt lat="43.5747446135348" lon="11.205849398096854"><ele>222.0</ele><time>2026-05-01T17:02:09Z</time></trkpt><trkpt lat="43.574926905906196" lon="11.205747754784271"><ele>218.0</ele><time>2026-05-01T17:02:10Z</time></trkpt><trkpt lat="43.57510770445579" lon="11.205642441084445"><ele>218.0</ele><time>2026-05-01T17:02:11Z</time></trkpt><trkpt lat="43.57529083394534" lon="11.205544258733717"><ele>218.0</ele><time>2026-05-01T17:02:12Z</time></trkpt><trkpt lat="43.575473695579504" lon="11.20544484189079"><ele>218.0</ele><time>2026-05-01T17:02:13Z</time></trkpt><trkpt lat="43.57565660927813" lon="11.205342652931972"><ele>215.0</ele><time>2026-05-01T17:02:14Z</time></trkpt><trkpt lat="43.575843481219046" lon="11.2052470123038"><ele>212.0</ele><time>2026-05-01T17:02:15Z</time></trkpt><trkpt lat="43.576033643445854" lon="11.205148027617849"><ele>209.0</ele><time>2026-05-01T17:02:16Z</time></trkpt><trkpt lat="43.57622709587042" lon="11.205056790203662"><ele>208.66666666666669</ele><time>2026-05-01T17:02:17Z</time></trkpt><trkpt lat="43.57642071661245" lon="11.20496740297065"><ele>208.33333333333331</ele><time>2026-05-01T17:02:18Z</time></trkpt><trkpt lat="43.57661472244678" lon="11.204878499535551"><ele>208.0</ele><time>2026-05-01T17:02:19Z</time></trkpt><trkpt lat="43.57680885387166" lon="11.204793754093375"><ele>208.0</ele><time>2026-05-01T17:02:20Z</time></trkpt><trkpt lat="43.5770037130972" lon="11.20471339816371"><ele>208.0</ele><time>2026-05-01T17:02:21Z</time></trkpt><trkpt lat="43.57719818240944" lon="11.204635959905499"><ele>208.0</ele><time>2026-05-01T17:02:22Z</time></trkpt><trkpt lat="43.57739205017318" lon="11.204560125316956"><ele>206.0</ele><time>2026-05-01T17:02:23Z</time></trkpt><trkpt lat="43.57758570012253" lon="11.204489837724239"><ele>204.0</ele><time>2026-05-01T17:02:24Z</time></trkpt><trkpt lat="43.577780194253386" lon="11.20441949464845"><ele>202.0</ele><time>2026-05-01T17:02:25Z</time></trkpt><trkpt lat="43.57797423340307" lon="11.204354873142968"><ele>200.0</ele><time>2026-05-01T17:02:26Z</time></trkpt><trkpt lat="43.57817072467624" lon="11.204294775769903"><ele>198.0</ele><time>2026-05-01T17:02:27Z</time></trkpt><trkpt lat="43.57836601161831" lon="11.204235332429285"><ele>196.0</ele><time>2026-05-01T17:02:28Z</time></trkpt><trkpt lat="43.57856166260105" lon="11.204182166578931"><ele>193.0</ele><time>2026-05-01T17:02:29Z</time></trkpt><trkpt lat="43.57875493801259" lon="11.204123028060165"><ele>190.0</ele><time>2026-05-01T17:02:30Z</time></trkpt><trkpt lat="43.57894830786092" lon="11.204063444397068"><ele>187.0</ele><time>2026-05-01T17:02:31Z</time></trkpt><trkpt lat="43.579142182121124" lon="11.204004735973028"><ele>189.33333333333334</ele><time>2026-05-01T17:02:32Z</time></trkpt><trkpt lat="43.57933479840275" lon="11.20394708046296"><ele>191.66666666666669</ele><time>2026-05-01T17:02:33Z</time></trkpt><trkpt lat="43.5795290273494" lon="11.2038890236909"><ele>194.0</ele><time>2026-05-01T17:02:34Z</time></trkpt><trkpt lat="43.57972380106676" lon="11.203830764920252"><ele>194.0</ele><time>2026-05-01T17:02:35Z</time></trkpt><trkpt lat="43.57991883067643" lon="11.203767533298404"><ele>194.0</ele><time>2026-05-01T17:02:36Z</time></trkpt><trkpt lat="43.58011377373783" lon="11.203707072472774"><ele>194.0</ele><time>2026-05-01T17:02:37Z</time></trkpt><trkpt lat="43.580305945298306" lon="11.203644842189227"><ele>191.0</ele><time>2026-05-01T17:02:38Z</time></trkpt><trkpt lat="43.580498384365995" lon="11.203581927517453"><ele>188.0</ele><time>2026-05-01T17:02:39Z</time></trkpt><trkpt lat="43.58069139358937" lon="11.203525654455778"><ele>185.0</ele><time>2026-05-01T17:02:40Z</time></trkpt><trkpt lat="43.580886030456305" lon="11.203466129572675"><ele>185.0</ele><time>2026-05-01T17:02:41Z</time></trkpt><trkpt lat="43.58108056848097" lon="11.203409508436597"><ele>185.0</ele><time>2026-05-01T17:02:42Z</time></trkpt><trkpt lat="43.58127274978743" lon="11.203348010810666"><ele>185.0</ele><time>2026-05-01T17:02:43Z</time></trkpt><trkpt lat="43.58146371855983" lon="11.203292600125431"><ele>184.0</ele><time>2026-05-01T17:02:44Z</time></trkpt><trkpt lat="43.5816543828177" lon="11.203233918245228"><ele>183.0</ele><time>2026-05-01T17:02:45Z</time></trkpt><trkpt lat="43.5818457931411" lon="11.203179464889548"><ele>182.0</ele><time>2026-05-01T17:02:46Z</time></trkpt><trkpt lat="43.582038483410585" lon="11.203121107458918"><ele>182.0</ele><time>2026-05-01T17:02:47Z</time></trkpt><trkpt lat="43.5822294871886" lon="11.203065088384562"><ele>182.0</ele><time>2026-05-01T17:02:48Z</time></trkpt><trkpt lat="43.582419900599724" lon="11.20300876192355"><ele>182.0</ele><time>2026-05-01T17:02:49Z</time></trkpt><trkpt lat="43.58260574343082" lon="11.202950138831552"><ele>182.0</ele><time>2026-05-01T17:02:50Z</time></trkpt><trkpt lat="43.58279138987888" lon="11.202894593055317"><ele>182.0</ele><time>2026-05-01T17:02:51Z</time></trkpt><trkpt lat="43.58297831196042" lon="11.20283807918251"><ele>182.0</ele><time>2026-05-01T17:02:52Z</time></trkpt><trkpt lat="43.58316279654587" lon="11.202786028207212"><ele>180.0</ele><time>2026-05-01T17:02:53Z</time></trkpt><trkpt lat="43.583345387682336" lon="11.202731621049347"><ele>178.0</ele><time>2026-05-01T17:02:54Z</time></trkpt><trkpt lat="43.58351864137588" lon="11.2026766342837"><ele>176.0</ele><time>2026-05-01T17:02:55Z</time></trkpt><trkpt lat="43.58369450360047" lon="11.202622564545203"><ele>175.33333333333331</ele><time>2026-05-01T17:02:56Z</time></trkpt><trkpt lat="43.58387715162791" lon="11.202569962515408"><ele>174.66666666666666</ele><time>2026-05-01T17:02:57Z</time></trkpt><trkpt lat="43.58406077149659" lon="11.20251206195907"><ele>174.0</ele><time>2026-05-01T17:02:58Z</time></trkpt><trkpt lat="43.58424975652512" lon="11.202452739821082"><ele>174.0</ele><time>2026-05-01T17:02:59Z</time></trkpt><trkpt lat="43.58443697689473" lon="11.202394154681274"><ele>174.0</ele><time>2026-05-01T17:03:00Z</time></trkpt><trkpt lat="43.58462218699558" lon="11.202338042805781"><ele>174.0</ele><time>2026-05-01T17:03:01Z</time></trkpt><trkpt lat="43.58480900505092" lon="11.20227901868372"><ele>174.33333333333334</ele><time>2026-05-01T17:03:02Z</time></trkpt><trkpt lat="43.58499685897419" lon="11.202224290397588"><ele>174.66666666666669</ele><time>2026-05-01T17:03:03Z</time></trkpt><trkpt lat="43.585187572407875" lon="11.202168182479133"><ele>175.0</ele><time>2026-05-01T17:03:04Z</time></trkpt><trkpt lat="43.58537918244995" lon="11.202111866821538"><ele>175.0</ele><time>2026-05-01T17:03:05Z</time></trkpt><trkpt lat="43.58557086885105" lon="11.202050835537436"><ele>175.0</ele><time>2026-05-01T17:03:06Z</time></trkpt><trkpt lat="43.58576437725375" lon="11.20199392197452"><ele>175.0</ele><time>2026-05-01T17:03:07Z</time></trkpt><trkpt lat="43.58595602355362" lon="11.201933798245008"><ele>175.0</ele><time>2026-05-01T17:03:08Z</time></trkpt><trkpt lat="43.58613856748902" lon="11.201875910953062"><ele>175.0</ele><time>2026-05-01T17:03:09Z</time></trkpt><trkpt lat="43.58631608556936" lon="11.201826776128536"><ele>175.0</ele><time>2026-05-01T17:03:10Z</time></trkpt><trkpt lat="43.586493587546556" lon="11.201770342345778"><ele>173.33333333333334</ele><time>2026-05-01T17:03:11Z</time></trkpt><trkpt lat="43.586675849843054" lon="11.201717994608302"><ele>171.66666666666666</ele><time>2026-05-01T17:03:12Z</time></trkpt><trkpt lat="43.58686061184673" lon="11.201662561656075"><ele>170.0</ele><time>2026-05-01T17:03:13Z</time></trkpt><trkpt lat="43.58704703027882" lon="11.201608290323447"><ele>169.66666666666666</ele><time>2026-05-01T17:03:14Z</time></trkpt><trkpt lat="43.587231564475005" lon="11.201548653916488"><ele>169.33333333333334</ele><time>2026-05-01T17:03:15Z</time></trkpt><trkpt lat="43.58741732658942" lon="11.201489551469905"><ele>169.0</ele><time>2026-05-01T17:03:16Z</time></trkpt><trkpt lat="43.58760415773164" lon="11.201427376480073"><ele>169.0</ele><time>2026-05-01T17:03:17Z</time></trkpt><trkpt lat="43.587788205030826" lon="11.201358677554104"><ele>169.0</ele><time>2026-05-01T17:03:18Z</time></trkpt><trkpt lat="43.58796880746315" lon="11.201286404073164"><ele>169.0</ele><time>2026-05-01T17:03:19Z</time></trkpt><trkpt lat="43.58815161355099" lon="11.201205693337716"><ele>167.66666666666669</ele><time>2026-05-01T17:03:20Z</time></trkpt><trkpt lat="43.58833612946304" lon="11.201119834558224"><ele>166.33333333333334</ele><time>2026-05-01T17:03:21Z</time></trkpt><trkpt lat="43.5885204560347" lon="11.201029575419255"><ele>165.0</ele><time>2026-05-01T17:03:22Z</time></trkpt><trkpt lat="43.58870335630232" lon="11.20094057084876"><ele>165.0</ele><time>2026-05-01T17:03:23Z</time></trkpt><trkpt lat="43.58888925538275" lon="11.200850008013196"><ele>165.0</ele><time>2026-05-01T17:03:24Z</time></trkpt><trkpt lat="43.58907409107329" lon="11.200755597280864"><ele>165.0</ele><time>2026-05-01T17:03:25Z</time></trkpt><trkpt lat="43.5892597832384" lon="11.20066157095351"><ele>165.0</ele><time>2026-05-01T17:03:26Z</time></trkpt><trkpt lat="43.58944493875319" lon="11.200569153853717"><ele>165.0</ele><time>2026-05-01T17:03:27Z</time></trkpt><trkpt lat="43.58962326423249" lon="11.200478529585473"><ele>165.0</ele><time>2026-05-01T17:03:28Z</time></trkpt><trkpt lat="43.58979987608142" lon="11.200388238310484"><ele>163.66666666666666</ele><time>2026-05-01T17:03:29Z</time></trkpt><trkpt lat="43.58997903127222" lon="11.20030506456389"><ele>162.33333333333331</ele><time>2026-05-01T17:03:30Z</time></trkpt><trkpt lat="43.590158085376636" lon="11.200211520931184"><ele>161.0</ele><time>2026-05-01T17:03:31Z</time></trkpt><trkpt lat="43.590339516501786" lon="11.200123607906578"><ele>160.66666666666666</ele><time>2026-05-01T17:03:32Z</time></trkpt><trkpt lat="43.59052056702575" lon="11.200028844792698"><ele>160.33333333333334</ele><time>2026-05-01T17:03:33Z</time></trkpt><trkpt lat="43.590701690262755" lon="11.199936155876362"><ele>160.0</ele><time>2026-05-01T17:03:34Z</time></trkpt><trkpt lat="43.59088625915046" lon="11.19984458468795"><ele>160.33333333333334</ele><time>2026-05-01T17:03:35Z</time></trkpt><trkpt lat="43.59107131407661" lon="11.199749825812427"><ele>160.66666666666666</ele><time>2026-05-01T17:03:36Z</time></trkpt><trkpt lat="43.59125944287099" lon="11.19965585275555"><ele>161.0</ele><time>2026-05-01T17:03:37Z</time></trkpt><trkpt lat="43.59144691026932" lon="11.199562551761003"><ele>161.0</ele><time>2026-05-01T17:03:38Z</time></trkpt><trkpt lat="43.59163128192283" lon="11.199467436043035"><ele>161.0</ele><time>2026-05-01T17:03:39Z</time></trkpt><trkpt lat="43.59181634251474" lon="11.199376319451423"><ele>161.0</ele><time>2026-05-01T17:03:40Z</time></trkpt><trkpt lat="43.59200220267358" lon="11.199283849325445"><ele>161.0</ele><time>2026-05-01T17:03:41Z</time></trkpt><trkpt lat="43.592184995274515" lon="11.199188644025815"><ele>161.0</ele><time>2026-05-01T17:03:42Z</time></trkpt><trkpt lat="43.592365986611185" lon="11.199090770917127"><ele>161.0</ele><time>2026-05-01T17:03:43Z</time></trkpt><trkpt lat="43.59254419116" lon="11.19898945609117"><ele>161.66666666666666</ele><time>2026-05-01T17:03:44Z</time></trkpt><trkpt lat="43.592720702912565" lon="11.198884914100558"><ele>162.33333333333334</ele><time>2026-05-01T17:03:45Z</time></trkpt><trkpt lat="43.59289571009192" lon="11.19877838267092"><ele>163.0</ele><time>2026-05-01T17:03:46Z</time></trkpt><trkpt lat="43.59306743606462" lon="11.198664035705766"><ele>163.0</ele><time>2026-05-01T17:03:47Z</time></trkpt><trkpt lat="43.593237894016774" lon="11.19854685673404"><ele>163.0</ele><time>2026-05-01T17:03:48Z</time></trkpt><trkpt lat="43.593406640463215" lon="11.198423394156995"><ele>163.0</ele><time>2026-05-01T17:03:49Z</time></trkpt><trkpt lat="43.59356851308328" lon="11.198294614380028"><ele>162.66666666666669</ele><time>2026-05-01T17:03:50Z</time></trkpt><trkpt lat="43.59373361503605" lon="11.198162010346977"><ele>162.33333333333334</ele><time>2026-05-01T17:03:51Z</time></trkpt><trkpt lat="43.5938949596485" lon="11.198025171091311"><ele>162.0</ele><time>2026-05-01T17:03:52Z</time></trkpt><trkpt lat="43.594056295511855" lon="11.197884979882627"><ele>162.0</ele><time>2026-05-01T17:03:53Z</time></trkpt><trkpt lat="43.59421510176855" lon="11.19774197086965"><ele>162.0</ele><time>2026-05-01T17:03:54Z</time></trkpt><trkpt lat="43.59437118861353" lon="11.197595646036449"><ele>162.0</ele><time>2026-05-01T17:03:55Z</time></trkpt><trkpt lat="43.59452638096392" lon="11.197446881043522"><ele>161.33333333333334</ele><time>2026-05-01T17:03:56Z</time></trkpt><trkpt lat="43.59468181892879" lon="11.19730805968543"><ele>160.66666666666669</ele><time>2026-05-01T17:03:57Z</time></trkpt><trkpt lat="43.594831147281276" lon="11.197170619647158"><ele>160.0</ele><time>2026-05-01T17:03:58Z</time></trkpt><trkpt lat="43.594979740707416" lon="11.197031259881749"><ele>160.0</ele><time>2026-05-01T17:03:59Z</time></trkpt><trkpt lat="43.59512834575481" lon="11.196890322653578"><ele>160.0</ele><time>2026-05-01T17:04:00Z</time></trkpt><trkpt lat="43.595279072996604" lon="11.19674740925774"><ele>160.0</ele><time>2026-05-01T17:04:01Z</time></trkpt><trkpt lat="43.59543683969336" lon="11.196607902108443"><ele>160.33333333333334</ele><time>2026-05-01T17:04:02Z</time></trkpt><trkpt lat="43.595593969711956" lon="11.196460200146326"><ele>160.66666666666666</ele><time>2026-05-01T17:04:03Z</time></trkpt><trkpt lat="43.595754500444706" lon="11.196317756417265"><ele>161.0</ele><time>2026-05-01T17:04:04Z</time></trkpt><trkpt lat="43.59591574922397" lon="11.196176908285286"><ele>161.0</ele><time>2026-05-01T17:04:05Z</time></trkpt><trkpt lat="43.59607486465008" lon="11.196030819312801"><ele>161.0</ele><time>2026-05-01T17:04:06Z</time></trkpt><trkpt lat="43.59623673520775" lon="11.195884703848082"><ele>161.0</ele><time>2026-05-01T17:04:07Z</time></trkpt><trkpt lat="43.59639816008181" lon="11.195731862975393"><ele>161.66666666666666</ele><time>2026-05-01T17:04:08Z</time></trkpt><trkpt lat="43.5965588706248" lon="11.195579674247956"><ele>162.33333333333334</ele><time>2026-05-01T17:04:09Z</time></trkpt><trkpt lat="43.596718440966505" lon="11.195430827025316"><ele>163.0</ele><time>2026-05-01T17:04:10Z</time></trkpt><trkpt lat="43.59688256777059" lon="11.195280371182823"><ele>160.33333333333334</ele><time>2026-05-01T17:04:11Z</time></trkpt><trkpt lat="43.59704798975179" lon="11.195135189540737"><ele>157.66666666666666</ele><time>2026-05-01T17:04:12Z</time></trkpt><trkpt lat="43.5972130141505" lon="11.194991066487264"><ele>155.0</ele><time>2026-05-01T17:04:13Z</time></trkpt><trkpt lat="43.59738365696486" lon="11.194850193959253"><ele>154.33333333333331</ele><time>2026-05-01T17:04:14Z</time></trkpt><trkpt lat="43.597556603091164" lon="11.194720773382196"><ele>153.66666666666666</ele><time>2026-05-01T17:04:15Z</time></trkpt><trkpt lat="43.597734004116944" lon="11.194599196655298"><ele>153.0</ele><time>2026-05-01T17:04:16Z</time></trkpt><trkpt lat="43.59791554245365" lon="11.194479094237684"><ele>153.0</ele><time>2026-05-01T17:04:17Z</time></trkpt><trkpt lat="43.59809599386814" lon="11.194363702352403"><ele>153.0</ele><time>2026-05-01T17:04:18Z</time></trkpt><trkpt lat="43.598274681416875" lon="11.194245355789027"><ele>153.0</ele><time>2026-05-01T17:04:19Z</time></trkpt><trkpt lat="43.59845611181296" lon="11.1941403259268"><ele>153.0</ele><time>2026-05-01T17:04:20Z</time></trkpt><trkpt lat="43.59864194204194" lon="11.194042159728578"><ele>153.0</ele><time>2026-05-01T17:04:21Z</time></trkpt><trkpt lat="43.59882828736158" lon="11.193946196017373"><ele>153.0</ele><time>2026-05-01T17:04:22Z</time></trkpt><trkpt lat="43.5990157964891" lon="11.19385448682682"><ele>152.66666666666666</ele><time>2026-05-01T17:04:23Z</time></trkpt><trkpt lat="43.599207225856055" lon="11.193768186035532"><ele>152.33333333333331</ele><time>2026-05-01T17:04:24Z</time></trkpt><trkpt lat="43.59939765048932" lon="11.193688018897925"><ele>152.0</ele><time>2026-05-01T17:04:25Z</time></trkpt><trkpt lat="43.59959048078518" lon="11.19360951652636"><ele>152.0</ele><time>2026-05-01T17:04:26Z</time></trkpt><trkpt lat="43.599784161705315" lon="11.193530510653293"><ele>152.0</ele><time>2026-05-01T17:04:27Z</time></trkpt><trkpt lat="43.59997394892566" lon="11.193457074797223"><ele>152.0</ele><time>2026-05-01T17:04:28Z</time></trkpt><trkpt lat="43.600159724439536" lon="11.193383609975152"><ele>152.0</ele><time>2026-05-01T17:04:29Z</time></trkpt><trkpt lat="43.600344170744755" lon="11.193310034070532"><ele>152.0</ele><time>2026-05-01T17:04:30Z</time></trkpt><trkpt lat="43.60053032917556" lon="11.1932351442176"><ele>152.0</ele><time>2026-05-01T17:04:31Z</time></trkpt><trkpt lat="43.600714352831666" lon="11.193156083215385"><ele>152.0</ele><time>2026-05-01T17:04:32Z</time></trkpt><trkpt lat="43.60089771931429" lon="11.193078122874516"><ele>152.0</ele><time>2026-05-01T17:04:33Z</time></trkpt><trkpt lat="43.60108259083399" lon="11.193006799994745"><ele>152.0</ele><time>2026-05-01T17:04:34Z</time></trkpt><trkpt lat="43.6012694134932" lon="11.192935070212716"><ele>151.66666666666666</ele><time>2026-05-01T17:04:35Z</time></trkpt><trkpt lat="43.60146080060704" lon="11.19285728839601"><ele>151.33333333333334</ele><time>2026-05-01T17:04:36Z</time></trkpt><trkpt lat="43.60165279212485" lon="11.192776945089216"><ele>151.0</ele><time>2026-05-01T17:04:37Z</time></trkpt><trkpt lat="43.6018481975097" lon="11.192696691121931"><ele>150.33333333333334</ele><time>2026-05-01T17:04:38Z</time></trkpt><trkpt lat="43.60204251129591" lon="11.192621370957939"><ele>149.66666666666666</ele><time>2026-05-01T17:04:39Z</time></trkpt><trkpt lat="43.602237207352815" lon="11.192544109632511"><ele>149.0</ele><time>2026-05-01T17:04:40Z</time></trkpt><trkpt lat="43.6024242932558" lon="11.192466240567937"><ele>149.0</ele><time>2026-05-01T17:04:41Z</time></trkpt><trkpt lat="43.60260826746216" lon="11.192390330187754"><ele>149.0</ele><time>2026-05-01T17:04:42Z</time></trkpt><trkpt lat="43.602792010607985" lon="11.192314155273642"><ele>149.0</ele><time>2026-05-01T17:04:43Z</time></trkpt><trkpt lat="43.60297695715356" lon="11.192239011585926"><ele>149.66666666666666</ele><time>2026-05-01T17:04:44Z</time></trkpt><trkpt lat="43.60316423959957" lon="11.192165498050866"><ele>150.33333333333334</ele><time>2026-05-01T17:04:45Z</time></trkpt><trkpt lat="43.60335090578993" lon="11.19208624570172"><ele>151.0</ele><time>2026-05-01T17:04:46Z</time></trkpt><trkpt lat="43.60354040989043" lon="11.19201085460382"><ele>151.0</ele><time>2026-05-01T17:04:47Z</time></trkpt><trkpt lat="43.603729665226766" lon="11.191937165213877"><ele>151.0</ele><time>2026-05-01T17:04:48Z</time></trkpt><trkpt lat="43.60391726467909" lon="11.191860863006474"><ele>151.0</ele><time>2026-05-01T17:04:49Z</time></trkpt><trkpt lat="43.60410703098897" lon="11.19179046484575"><ele>151.0</ele><time>2026-05-01T17:04:50Z</time></trkpt><trkpt lat="43.60429677609309" lon="11.191734198422116"><ele>151.0</ele><time>2026-05-01T17:04:51Z</time></trkpt><trkpt lat="43.6044863853366" lon="11.191680390068935"><ele>151.0</ele><time>2026-05-01T17:04:52Z</time></trkpt><trkpt lat="43.60467888128337" lon="11.191632813381196"><ele>151.0</ele><time>2026-05-01T17:04:53Z</time></trkpt><trkpt lat="43.604872211624134" lon="11.191587629764173"><ele>151.0</ele><time>2026-05-01T17:04:54Z</time></trkpt><trkpt lat="43.60506502119499" lon="11.191550025225746"><ele>151.0</ele><time>2026-05-01T17:04:55Z</time></trkpt><trkpt lat="43.60525254434799" lon="11.191524143607404"><ele>149.66666666666669</ele><time>2026-05-01T17:04:56Z</time></trkpt><trkpt lat="43.60543406345186" lon="11.1914963240519"><ele>148.33333333333334</ele><time>2026-05-01T17:04:57Z</time></trkpt><trkpt lat="43.605614306624105" lon="11.191472395160359"><ele>147.0</ele><time>2026-05-01T17:04:58Z</time></trkpt><trkpt lat="43.6057940362917" lon="11.191454794461592"><ele>147.0</ele><time>2026-05-01T17:04:59Z</time></trkpt><trkpt lat="43.60597419596607" lon="11.191435989382693"><ele>147.0</ele><time>2026-05-01T17:05:00Z</time></trkpt><trkpt lat="43.60615815884245" lon="11.191415182014973"><ele>147.0</ele><time>2026-05-01T17:05:01Z</time></trkpt><trkpt lat="43.606341289162444" lon="11.191392662321412"><ele>146.66666666666666</ele><time>2026-05-01T17:05:02Z</time></trkpt><trkpt lat="43.60652362785755" lon="11.19136925005745"><ele>146.33333333333331</ele><time>2026-05-01T17:05:03Z</time></trkpt><trkpt lat="43.606701899562" lon="11.191348333416146"><ele>146.0</ele><time>2026-05-01T17:05:04Z</time></trkpt><trkpt lat="43.60687766361321" lon="11.191329881268645"><ele>145.66666666666666</ele><time>2026-05-01T17:05:05Z</time></trkpt><trkpt lat="43.60705347945139" lon="11.191309376701728"><ele>145.33333333333334</ele><time>2026-05-01T17:05:06Z</time></trkpt><trkpt lat="43.607233597427616" lon="11.191289308229791"><ele>145.0</ele><time>2026-05-01T17:05:07Z</time></trkpt><trkpt lat="43.607413731018674" lon="11.191271354112216"><ele>145.0</ele><time>2026-05-01T17:05:08Z</time></trkpt><trkpt lat="43.60759633865582" lon="11.191252977406803"><ele>145.0</ele><time>2026-05-01T17:05:09Z</time></trkpt><trkpt lat="43.607780200999976" lon="11.191234323660671"><ele>145.0</ele><time>2026-05-01T17:05:10Z</time></trkpt><trkpt lat="43.60796321659276" lon="11.191213860233473"><ele>145.66666666666669</ele><time>2026-05-01T17:05:11Z</time></trkpt><trkpt lat="43.60814856138958" lon="11.191191589707115"><ele>146.33333333333334</ele><time>2026-05-01T17:05:12Z</time></trkpt><trkpt lat="43.6083339738459" lon="11.191172216854804"><ele>147.0</ele><time>2026-05-01T17:05:13Z</time></trkpt><trkpt lat="43.60852315704308" lon="11.191152693966007"><ele>147.0</ele><time>2026-05-01T17:05:14Z</time></trkpt><trkpt lat="43.60871417594843" lon="11.191129985384084"><ele>147.0</ele><time>2026-05-01T17:05:15Z</time></trkpt><trkpt lat="43.60889894878279" lon="11.19110301746551"><ele>147.0</ele><time>2026-05-01T17:05:16Z</time></trkpt><trkpt lat="43.60907432155838" lon="11.191079527229867"><ele>147.0</ele><time>2026-05-01T17:05:17Z</time></trkpt><trkpt lat="43.60924825684553" lon="11.191058680793946"><ele>147.0</ele><time>2026-05-01T17:05:18Z</time></trkpt><trkpt lat="43.609428642717255" lon="11.191035360590192"><ele>147.0</ele><time>2026-05-01T17:05:19Z</time></trkpt><trkpt lat="43.609612926019146" lon="11.191011587102283"><ele>146.0</ele><time>2026-05-01T17:05:20Z</time></trkpt><trkpt lat="43.60979919169542" lon="11.190995210420509"><ele>145.0</ele><time>2026-05-01T17:05:21Z</time></trkpt><trkpt lat="43.60998381525292" lon="11.190977544316754"><ele>144.0</ele><time>2026-05-01T17:05:22Z</time></trkpt><trkpt lat="43.61016883926642" lon="11.190955106637439"><ele>143.66666666666666</ele><time>2026-05-01T17:05:23Z</time></trkpt><trkpt lat="43.61035303529021" lon="11.190932711208806"><ele>143.33333333333331</ele><time>2026-05-01T17:05:24Z</time></trkpt><trkpt lat="43.61053726812687" lon="11.190918597616157"><ele>143.0</ele><time>2026-05-01T17:05:25Z</time></trkpt><trkpt lat="43.61071510445343" lon="11.190895958166225"><ele>143.0</ele><time>2026-05-01T17:05:26Z</time></trkpt><trkpt lat="43.61088608793449" lon="11.19087750345077"><ele>143.0</ele><time>2026-05-01T17:05:27Z</time></trkpt><trkpt lat="43.61105248958407" lon="11.190856800188232"><ele>143.0</ele><time>2026-05-01T17:05:28Z</time></trkpt><trkpt lat="43.611219663484704" lon="11.190837922582793"><ele>143.33333333333331</ele><time>2026-05-01T17:05:29Z</time></trkpt><trkpt lat="43.61139123833984" lon="11.19081678451752"><ele>143.66666666666666</ele><time>2026-05-01T17:05:30Z</time></trkpt><trkpt lat="43.61156685180864" lon="11.19079437222636"><ele>144.0</ele><time>2026-05-01T17:05:31Z</time></trkpt><trkpt lat="43.61174141947268" lon="11.190763640452332"><ele>144.0</ele><time>2026-05-01T17:05:32Z</time></trkpt><trkpt lat="43.61191409032751" lon="11.19072393921531"><ele>144.0</ele><time>2026-05-01T17:05:33Z</time></trkpt><trkpt lat="43.61209293539855" lon="11.190688101436661"><ele>144.0</ele><time>2026-05-01T17:05:34Z</time></trkpt><trkpt lat="43.61226888927053" lon="11.190644740459144"><ele>143.66666666666666</ele><time>2026-05-01T17:05:35Z</time></trkpt><trkpt lat="43.61244496670768" lon="11.190590779616109"><ele>143.33333333333331</ele><time>2026-05-01T17:05:36Z</time></trkpt><trkpt lat="43.6126224836106" lon="11.190531710873094"><ele>143.0</ele><time>2026-05-01T17:05:37Z</time></trkpt><trkpt lat="43.6128003028862" lon="11.190468741839444"><ele>143.33333333333331</ele><time>2026-05-01T17:05:38Z</time></trkpt><trkpt lat="43.61297526404357" lon="11.19040040602183"><ele>143.66666666666666</ele><time>2026-05-01T17:05:39Z</time></trkpt><trkpt lat="43.61314940469229" lon="11.19032765501192"><ele>144.0</ele><time>2026-05-01T17:05:40Z</time></trkpt><trkpt lat="43.61332059188953" lon="11.190249802348035"><ele>144.0</ele><time>2026-05-01T17:05:41Z</time></trkpt><trkpt lat="43.61348894109455" lon="11.190175822839247"><ele>144.0</ele><time>2026-05-01T17:05:42Z</time></trkpt><trkpt lat="43.613663236443124" lon="11.190097273183513"><ele>144.0</ele><time>2026-05-01T17:05:43Z</time></trkpt><trkpt lat="43.613834065901244" lon="11.190001271504176"><ele>144.0</ele><time>2026-05-01T17:05:44Z</time></trkpt><trkpt lat="43.61400591287845" lon="11.189903556209169"><ele>144.0</ele><time>2026-05-01T17:05:45Z</time></trkpt><trkpt lat="43.61417948802439" lon="11.189804754093267"><ele>144.0</ele><time>2026-05-01T17:05:46Z</time></trkpt><trkpt lat="43.614354779942076" lon="11.189703642709889"><ele>143.0</ele><time>2026-05-01T17:05:47Z</time></trkpt><trkpt lat="43.614532516775114" lon="11.189601592207005"><ele>142.0</ele><time>2026-05-01T17:05:48Z</time></trkpt><trkpt lat="43.61471133228109" lon="11.189491952409089"><ele>141.0</ele><time>2026-05-01T17:05:49Z</time></trkpt><trkpt lat="43.61489010083349" lon="11.189387234656317"><ele>141.0</ele><time>2026-05-01T17:05:50Z</time></trkpt><trkpt lat="43.61506753829849" lon="11.189285372530753"><ele>141.0</ele><time>2026-05-01T17:05:51Z</time></trkpt><trkpt lat="43.61524454543638" lon="11.189182319720818"><ele>141.0</ele><time>2026-05-01T17:05:52Z</time></trkpt><trkpt lat="43.61542411004213" lon="11.189083745164533"><ele>141.33333333333334</ele><time>2026-05-01T17:05:53Z</time></trkpt><trkpt lat="43.61560279029827" lon="11.188984413488457"><ele>141.66666666666669</ele><time>2026-05-01T17:05:54Z</time></trkpt><trkpt lat="43.61578165518848" lon="11.188873230508435"><ele>142.0</ele><time>2026-05-01T17:05:55Z</time></trkpt><trkpt lat="43.61595992226595" lon="11.188770108163165"><ele>142.0</ele><time>2026-05-01T17:05:56Z</time></trkpt><trkpt lat="43.616141221505046" lon="11.188663776053932"><ele>142.0</ele><time>2026-05-01T17:05:57Z</time></trkpt><trkpt lat="43.616319249624425" lon="11.188562773012077"><ele>142.0</ele><time>2026-05-01T17:05:58Z</time></trkpt><trkpt lat="43.616499957374785" lon="11.188457911782157"><ele>141.66666666666669</ele><time>2026-05-01T17:05:59Z</time></trkpt><trkpt lat="43.61668101063533" lon="11.188356160203462"><ele>141.33333333333334</ele><time>2026-05-01T17:06:00Z</time></trkpt><trkpt lat="43.616862410292256" lon="11.188254939275584"><ele>141.0</ele><time>2026-05-01T17:06:01Z</time></trkpt><trkpt lat="43.617040404878225" lon="11.188148321957662"><ele>141.0</ele><time>2026-05-01T17:06:02Z</time></trkpt><trkpt lat="43.61721773488071" lon="11.188041732541464"><ele>141.0</ele><time>2026-05-01T17:06:03Z</time></trkpt><trkpt lat="43.617393384223604" lon="11.187937390148145"><ele>141.0</ele><time>2026-05-01T17:06:04Z</time></trkpt><trkpt lat="43.61756739775869" lon="11.187834463670537"><ele>141.0</ele><time>2026-05-01T17:06:05Z</time></trkpt><trkpt lat="43.6177404799359" lon="11.1877329931214"><ele>141.0</ele><time>2026-05-01T17:06:06Z</time></trkpt><trkpt lat="43.61791122861646" lon="11.187632185568724"><ele>141.0</ele><time>2026-05-01T17:06:07Z</time></trkpt><trkpt lat="43.61807735149861" lon="11.187532717258499"><ele>140.66666666666666</ele><time>2026-05-01T17:06:08Z</time></trkpt><trkpt lat="43.61824817432273" lon="11.18743071964065"><ele>140.33333333333331</ele><time>2026-05-01T17:06:09Z</time></trkpt><trkpt lat="43.618416066119416" lon="11.187333334551436"><ele>140.0</ele><time>2026-05-01T17:06:10Z</time></trkpt><trkpt lat="43.61858506809002" lon="11.18722969244976"><ele>139.0</ele><time>2026-05-01T17:06:11Z</time></trkpt><trkpt lat="43.618753229054306" lon="11.18713350723908"><ele>138.0</ele><time>2026-05-01T17:06:12Z</time></trkpt><trkpt lat="43.618922987200264" lon="11.187037928048047"><ele>137.0</ele><time>2026-05-01T17:06:13Z</time></trkpt><trkpt lat="43.619090422760515" lon="11.186949625805108"><ele>137.0</ele><time>2026-05-01T17:06:14Z</time></trkpt><trkpt lat="43.61926032396085" lon="11.186853393779446"><ele>137.0</ele><time>2026-05-01T17:06:15Z</time></trkpt><trkpt lat="43.61943221703461" lon="11.186751027153852"><ele>137.0</ele><time>2026-05-01T17:06:16Z</time></trkpt><trkpt lat="43.61960695116956" lon="11.186668236131723"><ele>137.33333333333331</ele><time>2026-05-01T17:06:17Z</time></trkpt><trkpt lat="43.61977772609472" lon="11.186566136305425"><ele>137.66666666666666</ele><time>2026-05-01T17:06:18Z</time></trkpt><trkpt lat="43.61994985330152" lon="11.186462325646247"><ele>138.0</ele><time>2026-05-01T17:06:19Z</time></trkpt><trkpt lat="43.62012174319231" lon="11.18635771049883"><ele>137.33333333333334</ele><time>2026-05-01T17:06:20Z</time></trkpt><trkpt lat="43.62029307215862" lon="11.186257364662326"><ele>136.66666666666669</ele><time>2026-05-01T17:06:21Z</time></trkpt><trkpt lat="43.62046506945897" lon="11.18615454902571"><ele>136.0</ele><time>2026-05-01T17:06:22Z</time></trkpt><trkpt lat="43.62063715596665" lon="11.186048309631191"><ele>136.0</ele><time>2026-05-01T17:06:23Z</time></trkpt><trkpt lat="43.62080947899839" lon="11.185953731828079"><ele>136.0</ele><time>2026-05-01T17:06:24Z</time></trkpt><trkpt lat="43.6209799063091" lon="11.185854365387687"><ele>136.0</ele><time>2026-05-01T17:06:25Z</time></trkpt><trkpt lat="43.62114736023675" lon="11.18575259091144"><ele>135.66666666666669</ele><time>2026-05-01T17:06:26Z</time></trkpt><trkpt lat="43.62131676300957" lon="11.185655315455513"><ele>135.33333333333334</ele><time>2026-05-01T17:06:27Z</time></trkpt><trkpt lat="43.62148645467645" lon="11.18555454315879"><ele>135.0</ele><time>2026-05-01T17:06:28Z</time></trkpt><trkpt lat="43.62165652788948" lon="11.185454645481464"><ele>135.0</ele><time>2026-05-01T17:06:29Z</time></trkpt><trkpt lat="43.62182542779817" lon="11.185358109294306"><ele>135.0</ele><time>2026-05-01T17:06:30Z</time></trkpt><trkpt lat="43.621995359220364" lon="11.185256968493293"><ele>135.0</ele><time>2026-05-01T17:06:31Z</time></trkpt><trkpt lat="43.62216096354704" lon="11.185155620058843"><ele>135.0</ele><time>2026-05-01T17:06:32Z</time></trkpt><trkpt lat="43.622326713705554" lon="11.185057225033512"><ele>135.0</ele><time>2026-05-01T17:06:33Z</time></trkpt><trkpt lat="43.62249352409993" lon="11.184964397218586"><ele>135.0</ele><time>2026-05-01T17:06:34Z</time></trkpt><trkpt lat="43.62265867818818" lon="11.184871061836247"><ele>135.66666666666666</ele><time>2026-05-01T17:06:35Z</time></trkpt><trkpt lat="43.62282374529474" lon="11.18477624957076"><ele>136.33333333333331</ele><time>2026-05-01T17:06:36Z</time></trkpt><trkpt lat="43.622983482516865" lon="11.18467735334403"><ele>137.0</ele><time>2026-05-01T17:06:37Z</time></trkpt><trkpt lat="43.62313869182453" lon="11.184586688940776"><ele>137.0</ele><time>2026-05-01T17:06:38Z</time></trkpt><trkpt lat="43.623294935097846" lon="11.184496393915477"><ele>137.0</ele><time>2026-05-01T17:06:39Z</time></trkpt><trkpt lat="43.62345201356971" lon="11.184403476866223"><ele>137.0</ele><time>2026-05-01T17:06:40Z</time></trkpt><trkpt lat="43.62360841348906" lon="11.184312148570449"><ele>138.0</ele><time>2026-05-01T17:06:41Z</time></trkpt><trkpt lat="43.623764747887456" lon="11.184222540596378"><ele>139.0</ele><time>2026-05-01T17:06:42Z</time></trkpt><trkpt lat="43.623922950505765" lon="11.18412961572411"><ele>140.0</ele><time>2026-05-01T17:06:43Z</time></trkpt><trkpt lat="43.62408140362955" lon="11.184036439580142"><ele>139.33333333333331</ele><time>2026-05-01T17:06:44Z</time></trkpt><trkpt lat="43.62424212401409" lon="11.183946753960345"><ele>138.66666666666666</ele><time>2026-05-01T17:06:45Z</time></trkpt><trkpt lat="43.6243977854635" lon="11.183867798480634"><ele>138.0</ele><time>2026-05-01T17:06:46Z</time></trkpt><trkpt lat="43.62454577089704" lon="11.183794072131958"><ele>138.0</ele><time>2026-05-01T17:06:47Z</time></trkpt><trkpt lat="43.62468772507385" lon="11.183747290402763"><ele>138.0</ele><time>2026-05-01T17:06:48Z</time></trkpt><trkpt lat="43.62482680413335" lon="11.183695199426035"><ele>138.0</ele><time>2026-05-01T17:06:49Z</time></trkpt><trkpt lat="43.624961209534746" lon="11.183644419150687"><ele>138.0</ele><time>2026-05-01T17:06:50Z</time></trkpt><trkpt lat="43.62508350796916" lon="11.183599988483987"><ele>138.0</ele><time>2026-05-01T17:06:51Z</time></trkpt><trkpt lat="43.625201985099224" lon="11.183567540386115"><ele>138.0</ele><time>2026-05-01T17:06:52Z</time></trkpt><trkpt lat="43.62532065346678" lon="11.183528815858732"><ele>138.0</ele><time>2026-05-01T17:06:53Z</time></trkpt><trkpt lat="43.62543916414425" lon="11.18350271611209"><ele>138.0</ele><time>2026-05-01T17:06:54Z</time></trkpt><trkpt lat="43.6255476895437" lon="11.18347493018843"><ele>138.33333333333334</ele><time>2026-05-01T17:06:55Z</time></trkpt><trkpt lat="43.62564896309781" lon="11.18346200472493"><ele>138.66666666666666</ele><time>2026-05-01T17:06:56Z</time></trkpt><trkpt lat="43.62573981120794" lon="11.183468490001937"><ele>139.0</ele><time>2026-05-01T17:06:57Z</time></trkpt><trkpt lat="43.62582056683912" lon="11.183497139724963"><ele>139.33333333333331</ele><time>2026-05-01T17:06:58Z</time></trkpt><trkpt lat="43.62589157046439" lon="11.183556596692204"><ele>139.66666666666666</ele><time>2026-05-01T17:06:59Z</time></trkpt><trkpt lat="43.62594890915813" lon="11.183645349429273"><ele>140.0</ele><time>2026-05-01T17:07:00Z</time></trkpt><trkpt lat="43.625984015817174" lon="11.18373857797039"><ele>140.0</ele><time>2026-05-01T17:07:01Z</time></trkpt><trkpt lat="43.62599635612379" lon="11.183831817574822"><ele>140.0</ele><time>2026-05-01T17:07:02Z</time></trkpt><trkpt lat="43.62601744523595" lon="11.183975222318113"><ele>140.0</ele><time>2026-05-01T17:07:04Z</time></trkpt><trkpt lat="43.626030502267284" lon="11.184061201432781"><ele>140.0</ele><time>2026-05-01T17:07:07Z</time></trkpt><trkpt lat="43.626087560860505" lon="11.184150576929191"><ele>140.0</ele><time>2026-05-01T17:07:18Z</time></trkpt><trkpt lat="43.626229312131635" lon="11.18415023072114"><ele>140.16666666666666</ele><time>2026-05-01T17:07:20Z</time></trkpt><trkpt lat="43.626308657129634" lon="11.184130241519789"><ele>140.33333333333331</ele><time>2026-05-01T17:07:21Z</time></trkpt><trkpt lat="43.626389842051246" lon="11.184107752066346"><ele>140.5</ele><time>2026-05-01T17:07:22Z</time></trkpt><trkpt lat="43.6264794161145" lon="11.184080105472201"><ele>140.66666666666666</ele><time>2026-05-01T17:07:23Z</time></trkpt><trkpt lat="43.62655422362672" lon="11.184057042496045"><ele>140.83333333333334</ele><time>2026-05-01T17:07:24Z</time></trkpt><trkpt lat="43.626642652161806" lon="11.184024325267298"><ele>141.0</ele><time>2026-05-01T17:07:25Z</time></trkpt><trkpt lat="43.62674405101555" lon="11.183984004866836"><ele>140.4</ele><time>2026-05-01T17:07:26Z</time></trkpt><trkpt lat="43.62683224618788" lon="11.183950340213432"><ele>139.8</ele><time>2026-05-01T17:07:27Z</time></trkpt><trkpt lat="43.6269245662313" lon="11.183918238736371"><ele>139.20000000000002</ele><time>2026-05-01T17:07:28Z</time></trkpt><trkpt lat="43.627021538715745" lon="11.183882694389336"><ele>138.6</ele><time>2026-05-01T17:07:29Z</time></trkpt><trkpt lat="43.627127975302024" lon="11.18385932194238"><ele>138.0</ele><time>2026-05-01T17:07:30Z</time></trkpt><trkpt lat="43.62723161637108" lon="11.183789654589578"><ele>138.0</ele><time>2026-05-01T17:07:31Z</time></trkpt><trkpt lat="43.627345499302685" lon="11.183721318229288"><ele>138.0</ele><time>2026-05-01T17:07:32Z</time></trkpt><trkpt lat="43.627449243828835" lon="11.183650381788517"><ele>138.0</ele><time>2026-05-01T17:07:33Z</time></trkpt><trkpt lat="43.62755984131694" lon="11.18356037422581"><ele>138.0</ele><time>2026-05-01T17:07:34Z</time></trkpt><trkpt lat="43.62766686172457" lon="11.18346905339745"><ele>138.0</ele><time>2026-05-01T17:07:35Z</time></trkpt><trkpt lat="43.62777727429683" lon="11.183355992950746"><ele>138.0</ele><time>2026-05-01T17:07:36Z</time></trkpt><trkpt lat="43.6278825561974" lon="11.18323469518362"><ele>138.0</ele><time>2026-05-01T17:07:37Z</time></trkpt><trkpt lat="43.627983830829876" lon="11.183101913206793"><ele>138.0</ele><time>2026-05-01T17:07:38Z</time></trkpt><trkpt lat="43.62808102117134" lon="11.182965537243478"><ele>136.75</ele><time>2026-05-01T17:07:39Z</time></trkpt><trkpt lat="43.628176029904196" lon="11.182824596272825"><ele>135.5</ele><time>2026-05-01T17:07:40Z</time></trkpt><trkpt lat="43.62826608349351" lon="11.18267808684886"><ele>134.25</ele><time>2026-05-01T17:07:41Z</time></trkpt><trkpt lat="43.62835650293844" lon="11.182545263426935"><ele>133.0</ele><time>2026-05-01T17:07:42Z</time></trkpt><trkpt lat="43.628450065735834" lon="11.182405997307265"><ele>132.5</ele><time>2026-05-01T17:07:43Z</time></trkpt><trkpt lat="43.628547441012714" lon="11.182274883441504"><ele>132.0</ele><time>2026-05-01T17:07:44Z</time></trkpt><trkpt lat="43.62866662312874" lon="11.182193333631073"><ele>131.5</ele><time>2026-05-01T17:07:45Z</time></trkpt><trkpt lat="43.62878413111327" lon="11.182131035881143"><ele>131.0</ele><time>2026-05-01T17:07:46Z</time></trkpt><trkpt lat="43.628915190564015" lon="11.182081002129017"><ele>130.75</ele><time>2026-05-01T17:07:47Z</time></trkpt><trkpt lat="43.629048874979766" lon="11.182047996349874"><ele>130.5</ele><time>2026-05-01T17:07:48Z</time></trkpt><trkpt lat="43.629188071621066" lon="11.182023589404091"><ele>130.25</ele><time>2026-05-01T17:07:49Z</time></trkpt><trkpt lat="43.629324183197106" lon="11.181997966823095"><ele>130.0</ele><time>2026-05-01T17:07:50Z</time></trkpt><trkpt lat="43.629459346723024" lon="11.181969019306557"><ele>130.5</ele><time>2026-05-01T17:07:51Z</time></trkpt><trkpt lat="43.62959853334062" lon="11.181911997862203"><ele>131.0</ele><time>2026-05-01T17:07:52Z</time></trkpt><trkpt lat="43.62972892024229" lon="11.181815435648389"><ele>131.5</ele><time>2026-05-01T17:07:53Z</time></trkpt><trkpt lat="43.62985449725511" lon="11.181718178263178"><ele>132.0</ele><time>2026-05-01T17:07:54Z</time></trkpt><trkpt lat="43.62997948513592" lon="11.181621527883078"><ele>132.0</ele><time>2026-05-01T17:07:55Z</time></trkpt><trkpt lat="43.63010637905605" lon="11.181535283510991"><ele>132.0</ele><time>2026-05-01T17:07:56Z</time></trkpt><trkpt lat="43.630238943913085" lon="11.181466775142162"><ele>132.0</ele><time>2026-05-01T17:07:57Z</time></trkpt><trkpt lat="43.63037331058116" lon="11.181387184580748"><ele>132.0</ele><time>2026-05-01T17:07:58Z</time></trkpt><trkpt lat="43.63051471535345" lon="11.181328342214615"><ele>131.0</ele><time>2026-05-01T17:07:59Z</time></trkpt><trkpt lat="43.63065713071067" lon="11.181272106096845"><ele>130.0</ele><time>2026-05-01T17:08:00Z</time></trkpt><trkpt lat="43.63079165930823" lon="11.181221809014373"><ele>129.0</ele><time>2026-05-01T17:08:01Z</time></trkpt><trkpt lat="43.630931255005045" lon="11.181194893652679"><ele>128.0</ele><time>2026-05-01T17:08:02Z</time></trkpt><trkpt lat="43.63107086105407" lon="11.181148087440874"><ele>128.0</ele><time>2026-05-01T17:08:03Z</time></trkpt><trkpt lat="43.63121262972593" lon="11.181096153946964"><ele>128.0</ele><time>2026-05-01T17:08:04Z</time></trkpt><trkpt lat="43.63135031410929" lon="11.181030728592134"><ele>128.0</ele><time>2026-05-01T17:08:05Z</time></trkpt><trkpt lat="43.63148550414669" lon="11.18095163423397"><ele>128.0</ele><time>2026-05-01T17:08:06Z</time></trkpt><trkpt lat="43.63162059293633" lon="11.180867058492353"><ele>128.0</ele><time>2026-05-01T17:08:07Z</time></trkpt><trkpt lat="43.63175286223211" lon="11.180784247929715"><ele>128.0</ele><time>2026-05-01T17:08:08Z</time></trkpt><trkpt lat="43.631885215072884" lon="11.180701961301102"><ele>128.0</ele><time>2026-05-01T17:08:09Z</time></trkpt><trkpt lat="43.63202335821887" lon="11.18061947153002"><ele>128.0</ele><time>2026-05-01T17:08:10Z</time></trkpt><trkpt lat="43.63216181562331" lon="11.180542108042106"><ele>128.25</ele><time>2026-05-01T17:08:11Z</time></trkpt><trkpt lat="43.63228574601729" lon="11.180465930062063"><ele>128.5</ele><time>2026-05-01T17:08:12Z</time></trkpt><trkpt lat="43.63241636947255" lon="11.180401955381573"><ele>128.75</ele><time>2026-05-01T17:08:13Z</time></trkpt><trkpt lat="43.6325472656948" lon="11.180327410556258"><ele>129.0</ele><time>2026-05-01T17:08:14Z</time></trkpt><trkpt lat="43.63267991045226" lon="11.180254337994661"><ele>129.25</ele><time>2026-05-01T17:08:15Z</time></trkpt><trkpt lat="43.6328135846616" lon="11.180184486685626"><ele>129.5</ele><time>2026-05-01T17:08:16Z</time></trkpt><trkpt lat="43.632941658324974" lon="11.180105627703893"><ele>129.75</ele><time>2026-05-01T17:08:17Z</time></trkpt><trkpt lat="43.63306342433075" lon="11.180013410148446"><ele>130.0</ele><time>2026-05-01T17:08:18Z</time></trkpt><trkpt lat="43.63317477225373" lon="11.179901550665102"><ele>129.75</ele><time>2026-05-01T17:08:19Z</time></trkpt><trkpt lat="43.63328433297469" lon="11.179772996910579"><ele>129.5</ele><time>2026-05-01T17:08:20Z</time></trkpt><trkpt lat="43.6334074444292" lon="11.179663819644112"><ele>129.25</ele><time>2026-05-01T17:08:21Z</time></trkpt><trkpt lat="43.633508864984734" lon="11.17952252120989"><ele>129.0</ele><time>2026-05-01T17:08:22Z</time></trkpt><trkpt lat="43.63363135304382" lon="11.179414625288148"><ele>129.0</ele><time>2026-05-01T17:08:23Z</time></trkpt><trkpt lat="43.633726769851116" lon="11.17928361280454"><ele>129.0</ele><time>2026-05-01T17:08:24Z</time></trkpt><trkpt lat="43.63385406768174" lon="11.17920530175618"><ele>129.0</ele><time>2026-05-01T17:08:25Z</time></trkpt><trkpt lat="43.633985393358046" lon="11.179122488044053"><ele>129.0</ele><time>2026-05-01T17:08:26Z</time></trkpt><trkpt lat="43.63411340516806" lon="11.179015466108245"><ele>129.0</ele><time>2026-05-01T17:08:27Z</time></trkpt><trkpt lat="43.63424611926352" lon="11.178932763083663"><ele>129.0</ele><time>2026-05-01T17:08:28Z</time></trkpt><trkpt lat="43.63436918525478" lon="11.178857171290733"><ele>129.0</ele><time>2026-05-01T17:08:29Z</time></trkpt><trkpt lat="43.63448466453073" lon="11.178784763542213"><ele>129.0</ele><time>2026-05-01T17:08:30Z</time></trkpt><trkpt lat="43.63459672287252" lon="11.178729360821611"><ele>128.8</ele><time>2026-05-01T17:08:31Z</time></trkpt><trkpt lat="43.63470030623799" lon="11.178717416627816"><ele>128.60000000000002</ele><time>2026-05-01T17:08:32Z</time></trkpt><trkpt lat="43.63478751928914" lon="11.17869990193923"><ele>128.4</ele><time>2026-05-01T17:08:33Z</time></trkpt><trkpt lat="43.63489051474812" lon="11.178687757350655"><ele>128.20000000000002</ele><time>2026-05-01T17:08:35Z</time></trkpt><trkpt lat="43.63496066761266" lon="11.178671899033963"><ele>128.0</ele><time>2026-05-01T17:08:37Z</time></trkpt><trkpt lat="43.634968144800844" lon="11.178434362732178"><ele>128.0</ele><time>2026-05-01T17:08:38Z</time></trkpt><trkpt lat="43.63496110851323" lon="11.17830693068683"><ele>128.0</ele><time>2026-05-01T17:08:39Z</time></trkpt><trkpt lat="43.634973662257416" lon="11.178168405320733"><ele>128.0</ele><time>2026-05-01T17:08:40Z</time></trkpt><trkpt lat="43.63499898003394" lon="11.178033702102232"><ele>128.0</ele><time>2026-05-01T17:08:41Z</time></trkpt><trkpt lat="43.63503526777049" lon="11.17789686459553"><ele>128.0</ele><time>2026-05-01T17:08:42Z</time></trkpt><trkpt lat="43.63510602265467" lon="11.177771981788897"><ele>128.25</ele><time>2026-05-01T17:08:43Z</time></trkpt><trkpt lat="43.63518213196679" lon="11.177645274974621"><ele>128.5</ele><time>2026-05-01T17:08:44Z</time></trkpt><trkpt lat="43.63528024321303" lon="11.177531278341688"><ele>128.75</ele><time>2026-05-01T17:08:45Z</time></trkpt><trkpt lat="43.63538636630296" lon="11.177410839989365"><ele>129.0</ele><time>2026-05-01T17:08:46Z</time></trkpt><trkpt lat="43.63549964951684" lon="11.177282701898719"><ele>128.0</ele><time>2026-05-01T17:08:47Z</time></trkpt><trkpt lat="43.63562039056056" lon="11.177146378071841"><ele>127.0</ele><time>2026-05-01T17:08:48Z</time></trkpt><trkpt lat="43.63572823855994" lon="11.176995189615248"><ele>126.0</ele><time>2026-05-01T17:08:49Z</time></trkpt><trkpt lat="43.6358392752593" lon="11.176880291893463"><ele>125.0</ele><time>2026-05-01T17:08:50Z</time></trkpt><trkpt lat="43.63594413925102" lon="11.176769641433772"><ele>125.0</ele><time>2026-05-01T17:08:51Z</time></trkpt><trkpt lat="43.6360480484974" lon="11.176649616478857"><ele>125.0</ele><time>2026-05-01T17:08:52Z</time></trkpt><trkpt lat="43.63615458104936" lon="11.176531709123811"><ele>125.0</ele><time>2026-05-01T17:08:53Z</time></trkpt><trkpt lat="43.63626321830952" lon="11.176415390133757"><ele>125.0</ele><time>2026-05-01T17:08:54Z</time></trkpt><trkpt lat="43.636373547379854" lon="11.176295470845814"><ele>125.0</ele><time>2026-05-01T17:08:55Z</time></trkpt><trkpt lat="43.636484594401246" lon="11.176173450562445"><ele>125.0</ele><time>2026-05-01T17:08:56Z</time></trkpt><trkpt lat="43.63659687995948" lon="11.176049555849543"><ele>125.0</ele><time>2026-05-01T17:08:57Z</time></trkpt><trkpt lat="43.636708415748984" lon="11.175923851544834"><ele>125.0</ele><time>2026-05-01T17:08:58Z</time></trkpt><trkpt lat="43.6368234873693" lon="11.175804745464129"><ele>124.66666666666666</ele><time>2026-05-01T17:08:59Z</time></trkpt><trkpt lat="43.63693553737292" lon="11.175668145359932"><ele>124.33333333333334</ele><time>2026-05-01T17:09:00Z</time></trkpt><trkpt lat="43.63704371145232" lon="11.1755169497532"><ele>124.0</ele><time>2026-05-01T17:09:01Z</time></trkpt><trkpt lat="43.637147763690145" lon="11.175359861684921"><ele>124.75</ele><time>2026-05-01T17:09:02Z</time></trkpt><trkpt lat="43.63724828682146" lon="11.175206966873068"><ele>125.5</ele><time>2026-05-01T17:09:03Z</time></trkpt><trkpt lat="43.637351796182514" lon="11.175050200519378"><ele>126.25</ele><time>2026-05-01T17:09:04Z</time></trkpt><trkpt lat="43.637449185055125" lon="11.174899812646064"><ele>127.0</ele><time>2026-05-01T17:09:05Z</time></trkpt><trkpt lat="43.63754536885906" lon="11.1747494428962"><ele>127.0</ele><time>2026-05-01T17:09:06Z</time></trkpt><trkpt lat="43.63764779935004" lon="11.174608320001328"><ele>127.0</ele><time>2026-05-01T17:09:07Z</time></trkpt><trkpt lat="43.637749817834255" lon="11.17448400275166"><ele>127.0</ele><time>2026-05-01T17:09:08Z</time></trkpt><trkpt lat="43.63786666582557" lon="11.174368931229123"><ele>127.0</ele><time>2026-05-01T17:09:09Z</time></trkpt><trkpt lat="43.63797534731673" lon="11.174249033925479"><ele>127.75</ele><time>2026-05-01T17:09:10Z</time></trkpt><trkpt lat="43.63807440249205" lon="11.174107953573825"><ele>128.5</ele><time>2026-05-01T17:09:11Z</time></trkpt><trkpt lat="43.63818465520276" lon="11.173960403611655"><ele>129.25</ele><time>2026-05-01T17:09:12Z</time></trkpt><trkpt lat="43.638281235289924" lon="11.173797621940023"><ele>130.0</ele><time>2026-05-01T17:09:13Z</time></trkpt><trkpt lat="43.638387756871026" lon="11.173641478676446"><ele>130.0</ele><time>2026-05-01T17:09:14Z</time></trkpt><trkpt lat="43.63850114079387" lon="11.173492091924468"><ele>130.0</ele><time>2026-05-01T17:09:15Z</time></trkpt><trkpt lat="43.63861854099307" lon="11.173358062615085"><ele>130.0</ele><time>2026-05-01T17:09:16Z</time></trkpt><trkpt lat="43.638746445503585" lon="11.17325203717303"><ele>130.0</ele><time>2026-05-01T17:09:17Z</time></trkpt><trkpt lat="43.63887239953512" lon="11.17312173299724"><ele>130.0</ele><time>2026-05-01T17:09:18Z</time></trkpt><trkpt lat="43.63898398566086" lon="11.172973550008427"><ele>130.0</ele><time>2026-05-01T17:09:19Z</time></trkpt><trkpt lat="43.63910363406183" lon="11.172841308279697"><ele>130.0</ele><time>2026-05-01T17:09:20Z</time></trkpt><trkpt lat="43.63922338607599" lon="11.172702183939116"><ele>130.0</ele><time>2026-05-01T17:09:21Z</time></trkpt><trkpt lat="43.639342796615324" lon="11.172560688672576"><ele>130.0</ele><time>2026-05-01T17:09:22Z</time></trkpt><trkpt lat="43.6394633486308" lon="11.172419994466894"><ele>130.33333333333334</ele><time>2026-05-01T17:09:23Z</time></trkpt><trkpt lat="43.63959279835216" lon="11.172292729804441"><ele>130.66666666666666</ele><time>2026-05-01T17:09:24Z</time></trkpt><trkpt lat="43.63970873495681" lon="11.172156678528783"><ele>131.0</ele><time>2026-05-01T17:09:25Z</time></trkpt><trkpt lat="43.6398149797263" lon="11.172008059910869"><ele>131.0</ele><time>2026-05-01T17:09:26Z</time></trkpt><trkpt lat="43.63992841234677" lon="11.171877012032263"><ele>131.0</ele><time>2026-05-01T17:09:27Z</time></trkpt><trkpt lat="43.64004228706526" lon="11.171778235850883"><ele>131.0</ele><time>2026-05-01T17:09:28Z</time></trkpt><trkpt lat="43.640147636132504" lon="11.171691596314776"><ele>131.0</ele><time>2026-05-01T17:09:29Z</time></trkpt><trkpt lat="43.64026292582772" lon="11.171610375006228"><ele>131.75</ele><time>2026-05-01T17:09:30Z</time></trkpt><trkpt lat="43.640395541118565" lon="11.171570657744462"><ele>132.5</ele><time>2026-05-01T17:09:31Z</time></trkpt><trkpt lat="43.64053343633172" lon="11.171588226430435"><ele>133.25</ele><time>2026-05-01T17:09:32Z</time></trkpt><trkpt lat="43.640674638749246" lon="11.17159560205909"><ele>134.0</ele><time>2026-05-01T17:09:33Z</time></trkpt><trkpt lat="43.64081579010303" lon="11.171639224123561"><ele>134.0</ele><time>2026-05-01T17:09:34Z</time></trkpt><trkpt lat="43.64095783347744" lon="11.171678205902655"><ele>134.0</ele><time>2026-05-01T17:09:35Z</time></trkpt><trkpt lat="43.64109495182784" lon="11.171709498496789"><ele>134.0</ele><time>2026-05-01T17:09:36Z</time></trkpt><trkpt lat="43.64122817564729" lon="11.171744934901279"><ele>134.0</ele><time>2026-05-01T17:09:37Z</time></trkpt><trkpt lat="43.64136261321007" lon="11.17177750012038"><ele>135.5</ele><time>2026-05-01T17:09:38Z</time></trkpt><trkpt lat="43.64149462720262" lon="11.17180675630006"><ele>137.0</ele><time>2026-05-01T17:09:39Z</time></trkpt><trkpt lat="43.64162579325839" lon="11.171837808037381"><ele>138.5</ele><time>2026-05-01T17:09:40Z</time></trkpt><trkpt lat="43.64175592038409" lon="11.171875023905436"><ele>140.0</ele><time>2026-05-01T17:09:41Z</time></trkpt><trkpt lat="43.64188381680812" lon="11.171908222574526"><ele>141.5</ele><time>2026-05-01T17:09:42Z</time></trkpt><trkpt lat="43.642002747707295" lon="11.171927109364523"><ele>143.0</ele><time>2026-05-01T17:09:43Z</time></trkpt><trkpt lat="43.64211977262576" lon="11.171930169395862"><ele>144.5</ele><time>2026-05-01T17:09:44Z</time></trkpt><trkpt lat="43.64223809644061" lon="11.171941009692084"><ele>146.0</ele><time>2026-05-01T17:09:45Z</time></trkpt><trkpt lat="43.642358105336356" lon="11.171881302730279"><ele>146.0</ele><time>2026-05-01T17:09:46Z</time></trkpt><trkpt lat="43.6424625996609" lon="11.171793232904397"><ele>146.0</ele><time>2026-05-01T17:09:47Z</time></trkpt><trkpt lat="43.64257037637" lon="11.171709411879513"><ele>146.0</ele><time>2026-05-01T17:09:48Z</time></trkpt><trkpt lat="43.642674569357126" lon="11.171614087527038"><ele>146.0</ele><time>2026-05-01T17:09:49Z</time></trkpt><trkpt lat="43.642787990153046" lon="11.171532531171522"><ele>147.25</ele><time>2026-05-01T17:09:50Z</time></trkpt><trkpt lat="43.64288749817549" lon="11.17141345850193"><ele>148.5</ele><time>2026-05-01T17:09:51Z</time></trkpt><trkpt lat="43.64299025013706" lon="11.171321511523939"><ele>149.75</ele><time>2026-05-01T17:09:52Z</time></trkpt><trkpt lat="43.64308892249432" lon="11.171233333631609"><ele>151.0</ele><time>2026-05-01T17:09:53Z</time></trkpt><trkpt lat="43.64318529223104" lon="11.171140820467567"><ele>151.0</ele><time>2026-05-01T17:09:54Z</time></trkpt><trkpt lat="43.64328303497077" lon="11.1710433704588"><ele>151.0</ele><time>2026-05-01T17:09:55Z</time></trkpt><trkpt lat="43.6433881297435" lon="11.17094079141058"><ele>151.0</ele><time>2026-05-01T17:09:56Z</time></trkpt><trkpt lat="43.643497019442165" lon="11.170835107444011"><ele>151.0</ele><time>2026-05-01T17:09:57Z</time></trkpt><trkpt lat="43.6436009694069" lon="11.170736350408436"><ele>149.6</ele><time>2026-05-01T17:09:58Z</time></trkpt><trkpt lat="43.64370434419856" lon="11.170635315513032"><ele>148.2</ele><time>2026-05-01T17:09:59Z</time></trkpt><trkpt lat="43.643795565230626" lon="11.170549497351988"><ele>146.8</ele><time>2026-05-01T17:10:00Z</time></trkpt><trkpt lat="43.64386413036735" lon="11.170481750631842"><ele>145.4</ele><time>2026-05-01T17:10:01Z</time></trkpt><trkpt lat="43.643917372489135" lon="11.170429910734393"><ele>144.0</ele><time>2026-05-01T17:10:02Z</time></trkpt><trkpt lat="43.6439833793179" lon="11.170365160631292"><ele>144.0</ele><time>2026-05-01T17:10:04Z</time></trkpt><trkpt lat="43.64409483520312" lon="11.170279296709806"><ele>144.0</ele><time>2026-05-01T17:10:09Z</time></trkpt><trkpt lat="43.64416285588601" lon="11.170209688030887"><ele>144.0</ele><time>2026-05-01T17:10:10Z</time></trkpt><trkpt lat="43.6442443807938" lon="11.170110591683848"><ele>144.0</ele><time>2026-05-01T17:10:11Z</time></trkpt><trkpt lat="43.644339625005216" lon="11.17001781482803"><ele>144.0</ele><time>2026-05-01T17:10:12Z</time></trkpt><trkpt lat="43.64442243556497" lon="11.169861380291234"><ele>143.25</ele><time>2026-05-01T17:10:13Z</time></trkpt><trkpt lat="43.64450746945732" lon="11.169726258777297"><ele>142.5</ele><time>2026-05-01T17:10:14Z</time></trkpt><trkpt lat="43.64458891340646" lon="11.169596318655755"><ele>141.75</ele><time>2026-05-01T17:10:15Z</time></trkpt><trkpt lat="43.644672532794885" lon="11.169462656751277"><ele>141.0</ele><time>2026-05-01T17:10:16Z</time></trkpt><trkpt lat="43.6447558125641" lon="11.169329160274357"><ele>141.0</ele><time>2026-05-01T17:10:17Z</time></trkpt><trkpt lat="43.64483650959845" lon="11.169199756536687"><ele>141.0</ele><time>2026-05-01T17:10:18Z</time></trkpt><trkpt lat="43.644915239811546" lon="11.16907317561702"><ele>141.0</ele><time>2026-05-01T17:10:19Z</time></trkpt><trkpt lat="43.64499384514613" lon="11.168946795435163"><ele>141.0</ele><time>2026-05-01T17:10:20Z</time></trkpt><trkpt lat="43.64507087598665" lon="11.16881839127372"><ele>141.25</ele><time>2026-05-01T17:10:21Z</time></trkpt><trkpt lat="43.64514332723219" lon="11.168690447619266"><ele>141.5</ele><time>2026-05-01T17:10:22Z</time></trkpt><trkpt lat="43.64519741509745" lon="11.16854751040694"><ele>141.75</ele><time>2026-05-01T17:10:23Z</time></trkpt><trkpt lat="43.64526305522415" lon="11.168416962285795"><ele>142.0</ele><time>2026-05-01T17:10:24Z</time></trkpt><trkpt lat="43.645303289668135" lon="11.168269235651014"><ele>140.75</ele><time>2026-05-01T17:10:25Z</time></trkpt><trkpt lat="43.64533698024178" lon="11.168123771584629"><ele>139.5</ele><time>2026-05-01T17:10:26Z</time></trkpt><trkpt lat="43.64534064225055" lon="11.167966748121676"><ele>138.25</ele><time>2026-05-01T17:10:27Z</time></trkpt><trkpt lat="43.645351735938505" lon="11.167810030255687"><ele>137.0</ele><time>2026-05-01T17:10:28Z</time></trkpt><trkpt lat="43.64535909160276" lon="11.167652841576219"><ele>137.0</ele><time>2026-05-01T17:10:29Z</time></trkpt><trkpt lat="43.64536596087158" lon="11.1674998988075"><ele>137.0</ele><time>2026-05-01T17:10:30Z</time></trkpt><trkpt lat="43.64536592378827" lon="11.167347185732817"><ele>137.0</ele><time>2026-05-01T17:10:31Z</time></trkpt><trkpt lat="43.64536285117379" lon="11.167196617665745"><ele>137.0</ele><time>2026-05-01T17:10:32Z</time></trkpt><trkpt lat="43.645357856594615" lon="11.167041236554967"><ele>137.0</ele><time>2026-05-01T17:10:33Z</time></trkpt><trkpt lat="43.64536010330043" lon="11.166878492169342"><ele>135.75</ele><time>2026-05-01T17:10:34Z</time></trkpt><trkpt lat="43.645361507183665" lon="11.166707376039165"><ele>134.5</ele><time>2026-05-01T17:10:35Z</time></trkpt><trkpt lat="43.64535909017568" lon="11.166531868848681"><ele>133.25</ele><time>2026-05-01T17:10:36Z</time></trkpt><trkpt lat="43.645356531009604" lon="11.166367651516255"><ele>132.0</ele><time>2026-05-01T17:10:37Z</time></trkpt><trkpt lat="43.645352345013514" lon="11.166208710972263"><ele>131.0</ele><time>2026-05-01T17:10:38Z</time></trkpt><trkpt lat="43.64537215066973" lon="11.166061860181644"><ele>130.0</ele><time>2026-05-01T17:10:39Z</time></trkpt><trkpt lat="43.64538557866159" lon="11.165918375857434"><ele>129.0</ele><time>2026-05-01T17:10:40Z</time></trkpt><trkpt lat="43.645417334221044" lon="11.165788913291866"><ele>128.0</ele><time>2026-05-01T17:10:41Z</time></trkpt><trkpt lat="43.645468349068025" lon="11.165663022200832"><ele>127.0</ele><time>2026-05-01T17:10:42Z</time></trkpt><trkpt lat="43.64553167716795" lon="11.165536987938937"><ele>125.19999999999999</ele><time>2026-05-01T17:10:43Z</time></trkpt><trkpt lat="43.64560280325043" lon="11.165406110078136"><ele>123.39999999999999</ele><time>2026-05-01T17:10:44Z</time></trkpt><trkpt lat="43.64567047231557" lon="11.16527835872192"><ele>121.60000000000001</ele><time>2026-05-01T17:10:45Z</time></trkpt><trkpt lat="43.645728046510115" lon="11.165154705626003"><ele>119.80000000000001</ele><time>2026-05-01T17:10:46Z</time></trkpt><trkpt lat="43.64577641494613" lon="11.165033004107896"><ele>118.0</ele><time>2026-05-01T17:10:47Z</time></trkpt><trkpt lat="43.64581763135008" lon="11.164871310049671"><ele>117.0</ele><time>2026-05-01T17:10:48Z</time></trkpt><trkpt lat="43.64584912508255" lon="11.1646992262637"><ele>116.0</ele><time>2026-05-01T17:10:49Z</time></trkpt><trkpt lat="43.645868151604844" lon="11.164524826958388"><ele>115.0</ele><time>2026-05-01T17:10:50Z</time></trkpt><trkpt lat="43.64585488132319" lon="11.16433074475212"><ele>114.0</ele><time>2026-05-01T17:10:51Z</time></trkpt><trkpt lat="43.64583583515704" lon="11.164138989293717"><ele>113.25</ele><time>2026-05-01T17:10:52Z</time></trkpt><trkpt lat="43.64579789158861" lon="11.16395455729275"><ele>112.5</ele><time>2026-05-01T17:10:53Z</time></trkpt><trkpt lat="43.645776779753454" lon="11.163788824376178"><ele>111.75</ele><time>2026-05-01T17:10:54Z</time></trkpt><trkpt lat="43.645754116105735" lon="11.163630306402014"><ele>111.0</ele><time>2026-05-01T17:10:55Z</time></trkpt><trkpt lat="43.64573088513593" lon="11.163472939180904"><ele>111.0</ele><time>2026-05-01T17:10:56Z</time></trkpt><trkpt lat="43.64570394372562" lon="11.163311799400269"><ele>111.0</ele><time>2026-05-01T17:10:57Z</time></trkpt><trkpt lat="43.645682295356714" lon="11.163147889805364"><ele>111.0</ele><time>2026-05-01T17:10:58Z</time></trkpt><trkpt lat="43.645634077780024" lon="11.162996690088061"><ele>111.0</ele><time>2026-05-01T17:10:59Z</time></trkpt><trkpt lat="43.645569295532184" lon="11.162860612014214"><ele>111.0</ele><time>2026-05-01T17:11:00Z</time></trkpt><trkpt lat="43.64547816860942" lon="11.162742058877157"><ele>111.0</ele><time>2026-05-01T17:11:01Z</time></trkpt><trkpt lat="43.64536627943646" lon="11.162633994838059"><ele>111.0</ele><time>2026-05-01T17:11:02Z</time></trkpt><trkpt lat="43.64524267054843" lon="11.16252963617273"><ele>111.0</ele><time>2026-05-01T17:11:03Z</time></trkpt><trkpt lat="43.64512100278794" lon="11.162417451187592"><ele>112.25</ele><time>2026-05-01T17:11:04Z</time></trkpt><trkpt lat="43.64501075956128" lon="11.16231708392878"><ele>113.5</ele><time>2026-05-01T17:11:05Z</time></trkpt><trkpt lat="43.64489930555027" lon="11.1622165598348"><ele>114.75</ele><time>2026-05-01T17:11:06Z</time></trkpt><trkpt lat="43.644785114162836" lon="11.162116862624895"><ele>116.0</ele><time>2026-05-01T17:11:07Z</time></trkpt><trkpt lat="43.64467294627337" lon="11.162011223804496"><ele>116.0</ele><time>2026-05-01T17:11:08Z</time></trkpt><trkpt lat="43.64455694698604" lon="11.161900448939871"><ele>116.0</ele><time>2026-05-01T17:11:09Z</time></trkpt><trkpt lat="43.64444235263086" lon="11.161782425485155"><ele>116.0</ele><time>2026-05-01T17:11:10Z</time></trkpt><trkpt lat="43.64432951134281" lon="11.161662714878858"><ele>116.0</ele><time>2026-05-01T17:11:11Z</time></trkpt><trkpt lat="43.64421717713799" lon="11.16154156916758"><ele>117.0</ele><time>2026-05-01T17:11:12Z</time></trkpt><trkpt lat="43.644108007547" lon="11.161418237918266"><ele>118.0</ele><time>2026-05-01T17:11:13Z</time></trkpt><trkpt lat="43.64400326553132" lon="11.16129310887739"><ele>119.0</ele><time>2026-05-01T17:11:14Z</time></trkpt><trkpt lat="43.64390356149832" lon="11.161162045945098"><ele>120.0</ele><time>2026-05-01T17:11:15Z</time></trkpt><trkpt lat="43.64381129012232" lon="11.161024233218205"><ele>120.0</ele><time>2026-05-01T17:11:16Z</time></trkpt><trkpt lat="43.64372251030659" lon="11.160884019548151"><ele>120.0</ele><time>2026-05-01T17:11:17Z</time></trkpt><trkpt lat="43.6436307651464" lon="11.160738308818889"><ele>120.0</ele><time>2026-05-01T17:11:18Z</time></trkpt><trkpt lat="43.643538144728375" lon="11.160586136296526"><ele>120.0</ele><time>2026-05-01T17:11:19Z</time></trkpt><trkpt lat="43.64344352797869" lon="11.160432865311293"><ele>120.75</ele><time>2026-05-01T17:11:20Z</time></trkpt><trkpt lat="43.64334523111888" lon="11.160278140394993"><ele>121.5</ele><time>2026-05-01T17:11:21Z</time></trkpt><trkpt lat="43.6432479431004" lon="11.160122839392828"><ele>122.25</ele><time>2026-05-01T17:11:22Z</time></trkpt><trkpt lat="43.64316110118281" lon="11.159977508714547"><ele>123.0</ele><time>2026-05-01T17:11:23Z</time></trkpt><trkpt lat="43.643076763779476" lon="11.159830761052948"><ele>123.25</ele><time>2026-05-01T17:11:24Z</time></trkpt><trkpt lat="43.6429904247756" lon="11.159682661140264"><ele>123.5</ele><time>2026-05-01T17:11:25Z</time></trkpt><trkpt lat="43.64290259611521" lon="11.159537048499274"><ele>123.75</ele><time>2026-05-01T17:11:26Z</time></trkpt><trkpt lat="43.64281060888952" lon="11.15939866095443"><ele>124.0</ele><time>2026-05-01T17:11:27Z</time></trkpt><trkpt lat="43.64271532451111" lon="11.159270336339098"><ele>124.75</ele><time>2026-05-01T17:11:28Z</time></trkpt><trkpt lat="43.64260854370795" lon="11.159154922345685"><ele>125.5</ele><time>2026-05-01T17:11:29Z</time></trkpt><trkpt lat="43.64249358694183" lon="11.159048776546772"><ele>126.25</ele><time>2026-05-01T17:11:30Z</time></trkpt><trkpt lat="43.64237070292081" lon="11.158954651347486"><ele>127.0</ele><time>2026-05-01T17:11:31Z</time></trkpt><trkpt lat="43.642240852890026" lon="11.158878341768942"><ele>127.25</ele><time>2026-05-01T17:11:32Z</time></trkpt><trkpt lat="43.642115074449734" lon="11.158809189055058"><ele>127.5</ele><time>2026-05-01T17:11:33Z</time></trkpt><trkpt lat="43.641998736647594" lon="11.158753172909577"><ele>127.75</ele><time>2026-05-01T17:11:34Z</time></trkpt><trkpt lat="43.641873325861475" lon="11.158717163096664"><ele>128.0</ele><time>2026-05-01T17:11:35Z</time></trkpt><trkpt lat="43.64174123258916" lon="11.15870763716138"><ele>128.5</ele><time>2026-05-01T17:11:36Z</time></trkpt><trkpt lat="43.64160255256025" lon="11.158740789124865"><ele>129.0</ele><time>2026-05-01T17:11:37Z</time></trkpt><trkpt lat="43.64146595102161" lon="11.158772115551594"><ele>129.5</ele><time>2026-05-01T17:11:38Z</time></trkpt><trkpt lat="43.641330240647534" lon="11.158799413404543"><ele>130.0</ele><time>2026-05-01T17:11:39Z</time></trkpt><trkpt lat="43.64120683600543" lon="11.15880785347166"><ele>130.75</ele><time>2026-05-01T17:11:40Z</time></trkpt><trkpt lat="43.64108893682052" lon="11.158789347952306"><ele>131.5</ele><time>2026-05-01T17:11:41Z</time></trkpt><trkpt lat="43.64096373646618" lon="11.15874136003796"><ele>132.25</ele><time>2026-05-01T17:11:42Z</time></trkpt><trkpt lat="43.64083256866021" lon="11.15868306488046"><ele>133.0</ele><time>2026-05-01T17:11:43Z</time></trkpt><trkpt lat="43.640693083100935" lon="11.1586294686099"><ele>133.0</ele><time>2026-05-01T17:11:44Z</time></trkpt><trkpt lat="43.64054495885862" lon="11.158567997555524"><ele>133.0</ele><time>2026-05-01T17:11:45Z</time></trkpt><trkpt lat="43.64039986490991" lon="11.158507783126728"><ele>133.0</ele><time>2026-05-01T17:11:46Z</time></trkpt><trkpt lat="43.64026428121144" lon="11.1584574728614"><ele>133.0</ele><time>2026-05-01T17:11:47Z</time></trkpt><trkpt lat="43.64013084503468" lon="11.158402907516052"><ele>133.5</ele><time>2026-05-01T17:11:48Z</time></trkpt><trkpt lat="43.63999330044916" lon="11.15834833233804"><ele>134.0</ele><time>2026-05-01T17:11:49Z</time></trkpt><trkpt lat="43.63985340379597" lon="11.158292110757799"><ele>134.5</ele><time>2026-05-01T17:11:50Z</time></trkpt><trkpt lat="43.63971243489583" lon="11.158233333502604"><ele>135.0</ele><time>2026-05-01T17:11:51Z</time></trkpt><trkpt lat="43.63956827363156" lon="11.158182357921579"><ele>136.5</ele><time>2026-05-01T17:11:52Z</time></trkpt><trkpt lat="43.63943335494863" lon="11.158144873425595"><ele>138.0</ele><time>2026-05-01T17:11:53Z</time></trkpt><trkpt lat="43.63929419485743" lon="11.158125957149796"><ele>139.5</ele><time>2026-05-01T17:11:54Z</time></trkpt><trkpt lat="43.639163158601846" lon="11.158123925807157"><ele>141.0</ele><time>2026-05-01T17:11:55Z</time></trkpt><trkpt lat="43.63904282915102" lon="11.158124715091006"><ele>141.0</ele><time>2026-05-01T17:11:56Z</time></trkpt><trkpt lat="43.63892942228667" lon="11.15810920391457"><ele>141.0</ele><time>2026-05-01T17:11:57Z</time></trkpt><trkpt lat="43.63881985919299" lon="11.158060884731624"><ele>141.0</ele><time>2026-05-01T17:11:58Z</time></trkpt><trkpt lat="43.638714131276636" lon="11.157974803809603"><ele>141.0</ele><time>2026-05-01T17:11:59Z</time></trkpt><trkpt lat="43.63862117514852" lon="11.157849855070458"><ele>141.5</ele><time>2026-05-01T17:12:00Z</time></trkpt><trkpt lat="43.63852951592654" lon="11.157713094409706"><ele>142.0</ele><time>2026-05-01T17:12:01Z</time></trkpt><trkpt lat="43.63843460746008" lon="11.157577327627857"><ele>142.5</ele><time>2026-05-01T17:12:02Z</time></trkpt><trkpt lat="43.63833280736115" lon="11.157442468175296"><ele>143.0</ele><time>2026-05-01T17:12:03Z</time></trkpt><trkpt lat="43.63823353643918" lon="11.157313681359932"><ele>144.25</ele><time>2026-05-01T17:12:04Z</time></trkpt><trkpt lat="43.638141285651024" lon="11.157197094939509"><ele>145.5</ele><time>2026-05-01T17:12:05Z</time></trkpt><trkpt lat="43.638043762190875" lon="11.157100180867"><ele>146.75</ele><time>2026-05-01T17:12:06Z</time></trkpt><trkpt lat="43.63792459568206" lon="11.157029646243913"><ele>148.0</ele><time>2026-05-01T17:12:07Z</time></trkpt><trkpt lat="43.637788612009075" lon="11.156978194433442"><ele>148.0</ele><time>2026-05-01T17:12:08Z</time></trkpt><trkpt lat="43.63765472260924" lon="11.156922562101666"><ele>148.0</ele><time>2026-05-01T17:12:09Z</time></trkpt><trkpt lat="43.637517199812386" lon="11.15686598790763"><ele>148.0</ele><time>2026-05-01T17:12:10Z</time></trkpt><trkpt lat="43.637376909456705" lon="11.156810250824773"><ele>148.0</ele><time>2026-05-01T17:12:11Z</time></trkpt><trkpt lat="43.637253065646426" lon="11.156750988562056"><ele>148.0</ele><time>2026-05-01T17:12:12Z</time></trkpt><trkpt lat="43.63713513941217" lon="11.156707828932527"><ele>148.0</ele><time>2026-05-01T17:12:13Z</time></trkpt><trkpt lat="43.63701142308689" lon="11.156702421663514"><ele>148.0</ele><time>2026-05-01T17:12:14Z</time></trkpt><trkpt lat="43.63688282739308" lon="11.1567275039071"><ele>148.0</ele><time>2026-05-01T17:12:15Z</time></trkpt><trkpt lat="43.63676149910756" lon="11.156773523231273"><ele>148.4</ele><time>2026-05-01T17:12:16Z</time></trkpt><trkpt lat="43.63665697648982" lon="11.156813173313674"><ele>148.8</ele><time>2026-05-01T17:12:17Z</time></trkpt><trkpt lat="43.63656194429512" lon="11.156831205298683"><ele>149.2</ele><time>2026-05-01T17:12:18Z</time></trkpt><trkpt lat="43.63646707207519" lon="11.156813528544792"><ele>149.6</ele><time>2026-05-01T17:12:19Z</time></trkpt><trkpt lat="43.636381566190494" lon="11.156763063938419"><ele>150.0</ele><time>2026-05-01T17:12:20Z</time></trkpt><trkpt lat="43.636315413329385" lon="11.156684369714057"><ele>150.0</ele><time>2026-05-01T17:12:21Z</time></trkpt><trkpt lat="43.63627483737621" lon="11.156573580555744"><ele>150.0</ele><time>2026-05-01T17:12:22Z</time></trkpt><trkpt lat="43.63627304362413" lon="11.15644969904595"><ele>150.0</ele><time>2026-05-01T17:12:23Z</time></trkpt><trkpt lat="43.63630379621743" lon="11.156336684449572"><ele>150.0</ele><time>2026-05-01T17:12:24Z</time></trkpt><trkpt lat="43.63636024907153" lon="11.156240424583562"><ele>150.0</ele><time>2026-05-01T17:12:25Z</time></trkpt><trkpt lat="43.6364494382264" lon="11.156199893257478"><ele>153.0</ele><time>2026-05-01T17:12:26Z</time></trkpt><trkpt lat="43.636536349495415" lon="11.156150150403047"><ele>156.0</ele><time>2026-05-01T17:12:27Z</time></trkpt><trkpt lat="43.63663397190551" lon="11.15610541753809"><ele>159.0</ele><time>2026-05-01T17:12:28Z</time></trkpt><trkpt lat="43.636742303194765" lon="11.15606954925685"><ele>162.0</ele><time>2026-05-01T17:12:29Z</time></trkpt><trkpt lat="43.636851992985996" lon="11.156064081641121"><ele>165.0</ele><time>2026-05-01T17:12:30Z</time></trkpt><trkpt lat="43.63696523569562" lon="11.156076997464945"><ele>165.25</ele><time>2026-05-01T17:12:31Z</time></trkpt><trkpt lat="43.63707651358455" lon="11.156105352563825"><ele>165.5</ele><time>2026-05-01T17:12:32Z</time></trkpt><trkpt lat="43.63719621967252" lon="11.156109688433029"><ele>165.75</ele><time>2026-05-01T17:12:33Z</time></trkpt><trkpt lat="43.63731869923746" lon="11.156107634068329"><ele>166.0</ele><time>2026-05-01T17:12:34Z</time></trkpt><trkpt lat="43.63744768426253" lon="11.156089170909812"><ele>166.0</ele><time>2026-05-01T17:12:35Z</time></trkpt><trkpt lat="43.637566891620025" lon="11.15608249133445"><ele>166.0</ele><time>2026-05-01T17:12:36Z</time></trkpt><trkpt lat="43.637687772591775" lon="11.15604986194882"><ele>166.0</ele><time>2026-05-01T17:12:37Z</time></trkpt><trkpt lat="43.637809961973865" lon="11.156021997933097"><ele>166.0</ele><time>2026-05-01T17:12:38Z</time></trkpt><trkpt lat="43.63793209538805" lon="11.155991697252203"><ele>165.25</ele><time>2026-05-01T17:12:39Z</time></trkpt><trkpt lat="43.63805202156718" lon="11.155965874188164"><ele>164.5</ele><time>2026-05-01T17:12:40Z</time></trkpt><trkpt lat="43.63817110526593" lon="11.155939038897449"><ele>163.75</ele><time>2026-05-01T17:12:41Z</time></trkpt><trkpt lat="43.63829003961702" lon="11.155910761145831"><ele>163.0</ele><time>2026-05-01T17:12:42Z</time></trkpt><trkpt lat="43.63840836238664" lon="11.155881152853109"><ele>163.0</ele><time>2026-05-01T17:12:43Z</time></trkpt><trkpt lat="43.638526455342245" lon="11.155850407265095"><ele>163.0</ele><time>2026-05-01T17:12:44Z</time></trkpt><trkpt lat="43.638640601999064" lon="11.155818050896794"><ele>163.0</ele><time>2026-05-01T17:12:45Z</time></trkpt><trkpt lat="43.63876113267291" lon="11.155788150883588"><ele>163.0</ele><time>2026-05-01T17:12:46Z</time></trkpt><trkpt lat="43.63888377275435" lon="11.15575482668661"><ele>164.0</ele><time>2026-05-01T17:12:47Z</time></trkpt><trkpt lat="43.639005855170936" lon="11.155721764378901"><ele>165.0</ele><time>2026-05-01T17:12:48Z</time></trkpt><trkpt lat="43.63912620205469" lon="11.155684333315133"><ele>166.0</ele><time>2026-05-01T17:12:49Z</time></trkpt><trkpt lat="43.639241559206866" lon="11.155626317247721"><ele>167.0</ele><time>2026-05-01T17:12:50Z</time></trkpt><trkpt lat="43.63935132766344" lon="11.155559963853582"><ele>170.25</ele><time>2026-05-01T17:12:51Z</time></trkpt><trkpt lat="43.639466243685696" lon="11.155488587896915"><ele>173.5</ele><time>2026-05-01T17:12:52Z</time></trkpt><trkpt lat="43.63957562813762" lon="11.155416031780975"><ele>176.75</ele><time>2026-05-01T17:12:53Z</time></trkpt><trkpt lat="43.63968564222036" lon="11.155338289754168"><ele>180.0</ele><time>2026-05-01T17:12:54Z</time></trkpt><trkpt lat="43.63979232538801" lon="11.15527265157228"><ele>180.5</ele><time>2026-05-01T17:12:55Z</time></trkpt><trkpt lat="43.63989646635536" lon="11.15520127725404"><ele>181.0</ele><time>2026-05-01T17:12:56Z</time></trkpt><trkpt lat="43.64000150517552" lon="11.155131537694015"><ele>181.5</ele><time>2026-05-01T17:12:57Z</time></trkpt><trkpt lat="43.640107296892154" lon="11.155062542831283"><ele>182.0</ele><time>2026-05-01T17:12:58Z</time></trkpt><trkpt lat="43.64021385753062" lon="11.154990359428515"><ele>183.25</ele><time>2026-05-01T17:12:59Z</time></trkpt><trkpt lat="43.64032822959276" lon="11.154929092975733"><ele>184.5</ele><time>2026-05-01T17:13:00Z</time></trkpt><trkpt lat="43.6404315343313" lon="11.154856997809341"><ele>185.75</ele><time>2026-05-01T17:13:01Z</time></trkpt><trkpt lat="43.640533370205894" lon="11.154778580670357"><ele>187.0</ele><time>2026-05-01T17:13:02Z</time></trkpt><trkpt lat="43.64063525190788" lon="11.154707689275723"><ele>187.0</ele><time>2026-05-01T17:13:03Z</time></trkpt><trkpt lat="43.640742503297815" lon="11.154633332112493"><ele>187.0</ele><time>2026-05-01T17:13:04Z</time></trkpt><trkpt lat="43.640846794618525" lon="11.154548062924276"><ele>187.0</ele><time>2026-05-01T17:13:05Z</time></trkpt><trkpt lat="43.64095721541444" lon="11.154466725720281"><ele>187.0</ele><time>2026-05-01T17:13:06Z</time></trkpt><trkpt lat="43.64106354479903" lon="11.15436072851612"><ele>185.25</ele><time>2026-05-01T17:13:07Z</time></trkpt><trkpt lat="43.64116198116533" lon="11.154251109801782"><ele>183.5</ele><time>2026-05-01T17:13:08Z</time></trkpt><trkpt lat="43.64125374976818" lon="11.15413416411131"><ele>181.75</ele><time>2026-05-01T17:13:09Z</time></trkpt><trkpt lat="43.64134161806628" lon="11.154009420597347"><ele>180.0</ele><time>2026-05-01T17:13:10Z</time></trkpt><trkpt lat="43.641431938259466" lon="11.153886507319765"><ele>183.75</ele><time>2026-05-01T17:13:11Z</time></trkpt><trkpt lat="43.64151933175566" lon="11.15375711786578"><ele>187.5</ele><time>2026-05-01T17:13:12Z</time></trkpt><trkpt lat="43.6415999488994" lon="11.153623677738752"><ele>191.25</ele><time>2026-05-01T17:13:13Z</time></trkpt><trkpt lat="43.64167887483078" lon="11.153491579537762"><ele>195.0</ele><time>2026-05-01T17:13:14Z</time></trkpt><trkpt lat="43.641756473824664" lon="11.153351260989753"><ele>195.0</ele><time>2026-05-01T17:13:15Z</time></trkpt><trkpt lat="43.6418312294827" lon="11.153207278577897"><ele>195.0</ele><time>2026-05-01T17:13:16Z</time></trkpt><trkpt lat="43.64191859644908" lon="11.1530764040847"><ele>195.0</ele><time>2026-05-01T17:13:17Z</time></trkpt><trkpt lat="43.641996527969916" lon="11.152936560444164"><ele>195.0</ele><time>2026-05-01T17:13:18Z</time></trkpt><trkpt lat="43.642071328125304" lon="11.15279187231435"><ele>196.0</ele><time>2026-05-01T17:13:19Z</time></trkpt><trkpt lat="43.64214610596704" lon="11.152646508036577"><ele>197.0</ele><time>2026-05-01T17:13:20Z</time></trkpt><trkpt lat="43.64222492511272" lon="11.152506042523358"><ele>198.0</ele><time>2026-05-01T17:13:21Z</time></trkpt><trkpt lat="43.642305277672456" lon="11.152370269828948"><ele>199.0</ele><time>2026-05-01T17:13:22Z</time></trkpt><trkpt lat="43.642386438801125" lon="11.15222856424538"><ele>201.5</ele><time>2026-05-01T17:13:23Z</time></trkpt><trkpt lat="43.64247130648427" lon="11.15209636069091"><ele>204.0</ele><time>2026-05-01T17:13:24Z</time></trkpt><trkpt lat="43.64255527757946" lon="11.151965426584809"><ele>206.5</ele><time>2026-05-01T17:13:25Z</time></trkpt><trkpt lat="43.642643429584126" lon="11.151835412139654"><ele>209.0</ele><time>2026-05-01T17:13:26Z</time></trkpt><trkpt lat="43.64271764503833" lon="11.151709832942279"><ele>209.0</ele><time>2026-05-01T17:13:27Z</time></trkpt><trkpt lat="43.642781763537265" lon="11.151595184094317"><ele>209.0</ele><time>2026-05-01T17:13:28Z</time></trkpt><trkpt lat="43.64282854364339" lon="11.15147665321278"><ele>209.0</ele><time>2026-05-01T17:13:29Z</time></trkpt><trkpt lat="43.64286453092243" lon="11.15134344528057"><ele>209.0</ele><time>2026-05-01T17:13:30Z</time></trkpt><trkpt lat="43.64288197284058" lon="11.151202309659167"><ele>209.0</ele><time>2026-05-01T17:13:31Z</time></trkpt><trkpt lat="43.642876534303916" lon="11.151056496953215"><ele>209.39999999999998</ele><time>2026-05-01T17:13:32Z</time></trkpt><trkpt lat="43.64285238281776" lon="11.15092099882425"><ele>209.8</ele><time>2026-05-01T17:13:33Z</time></trkpt><trkpt lat="43.64278887881298" lon="11.15081792096024"><ele>210.2</ele><time>2026-05-01T17:13:34Z</time></trkpt><trkpt lat="43.64273167619145" lon="11.150721849822556"><ele>210.60000000000002</ele><time>2026-05-01T17:13:35Z</time></trkpt><trkpt lat="43.64265134331079" lon="11.15065974910231"><ele>211.0</ele><time>2026-05-01T17:13:36Z</time></trkpt><trkpt lat="43.64256198810365" lon="11.150628422426221"><ele>211.0</ele><time>2026-05-01T17:13:37Z</time></trkpt><trkpt lat="43.64246645535585" lon="11.150628598667224"><ele>211.0</ele><time>2026-05-01T17:13:38Z</time></trkpt><trkpt lat="43.64237779474847" lon="11.150671615622677"><ele>211.0</ele><time>2026-05-01T17:13:39Z</time></trkpt><trkpt lat="43.64229879909098" lon="11.150742350937236"><ele>211.0</ele><time>2026-05-01T17:13:40Z</time></trkpt><trkpt lat="43.642226981349786" lon="11.150843780141711"><ele>211.0</ele><time>2026-05-01T17:13:41Z</time></trkpt><trkpt lat="43.64216353261301" lon="11.150958320360038"><ele>212.25</ele><time>2026-05-01T17:13:42Z</time></trkpt><trkpt lat="43.64210109558313" lon="11.151087700469338"><ele>213.5</ele><time>2026-05-01T17:13:43Z</time></trkpt><trkpt lat="43.642040528691034" lon="11.151224690576514"><ele>214.75</ele><time>2026-05-01T17:13:44Z</time></trkpt><trkpt lat="43.641971289157716" lon="11.151351827164754"><ele>216.0</ele><time>2026-05-01T17:13:45Z</time></trkpt><trkpt lat="43.6418891434008" lon="11.151452351413761"><ele>217.0</ele><time>2026-05-01T17:13:46Z</time></trkpt><trkpt lat="43.641794676206594" lon="11.151524648488602"><ele>218.0</ele><time>2026-05-01T17:13:47Z</time></trkpt><trkpt lat="43.64168860993254" lon="11.151564570299039"><ele>219.0</ele><time>2026-05-01T17:13:48Z</time></trkpt><trkpt lat="43.64157497725516" lon="11.151572639665314"><ele>220.0</ele><time>2026-05-01T17:13:49Z</time></trkpt><trkpt lat="43.64145810046088" lon="11.151544280848595"><ele>223.5</ele><time>2026-05-01T17:13:50Z</time></trkpt><trkpt lat="43.64134273251912" lon="11.151478020196143"><ele>227.0</ele><time>2026-05-01T17:13:51Z</time></trkpt><trkpt lat="43.6412225565143" lon="11.1514096196597"><ele>230.5</ele><time>2026-05-01T17:13:52Z</time></trkpt><trkpt lat="43.64110563698786" lon="11.15134244969919"><ele>234.0</ele><time>2026-05-01T17:13:53Z</time></trkpt><trkpt lat="43.64099555835324" lon="11.151277801042022"><ele>237.0</ele><time>2026-05-01T17:13:54Z</time></trkpt><trkpt lat="43.64087639451861" lon="11.151215383888053"><ele>240.0</ele><time>2026-05-01T17:13:55Z</time></trkpt><trkpt lat="43.640750541151284" lon="11.15117475209522"><ele>243.0</ele><time>2026-05-01T17:13:56Z</time></trkpt><trkpt lat="43.640616868611836" lon="11.151159101936036"><ele>246.0</ele><time>2026-05-01T17:13:57Z</time></trkpt><trkpt lat="43.64047769910241" lon="11.15115556246633"><ele>246.0</ele><time>2026-05-01T17:13:58Z</time></trkpt><trkpt lat="43.6403398527963" lon="11.151184954396362"><ele>246.0</ele><time>2026-05-01T17:13:59Z</time></trkpt><trkpt lat="43.64020056334237" lon="11.151228649761283"><ele>246.0</ele><time>2026-05-01T17:14:00Z</time></trkpt><trkpt lat="43.640062892294445" lon="11.151303843528913"><ele>246.0</ele><time>2026-05-01T17:14:01Z</time></trkpt><trkpt lat="43.63993154829306" lon="11.151378842777547"><ele>246.75</ele><time>2026-05-01T17:14:02Z</time></trkpt><trkpt lat="43.63980495236389" lon="11.151447100653451"><ele>247.5</ele><time>2026-05-01T17:14:03Z</time></trkpt><trkpt lat="43.639675677814964" lon="11.15151791663577"><ele>248.25</ele><time>2026-05-01T17:14:04Z</time></trkpt><trkpt lat="43.639546666662426" lon="11.151589699234986"><ele>249.0</ele><time>2026-05-01T17:14:05Z</time></trkpt><trkpt lat="43.63941920454181" lon="11.151668343904918"><ele>249.0</ele><time>2026-05-01T17:14:06Z</time></trkpt><trkpt lat="43.63929984092266" lon="11.151744584474098"><ele>249.0</ele><time>2026-05-01T17:14:07Z</time></trkpt><trkpt lat="43.63918085049561" lon="11.15180994707738"><ele>249.0</ele><time>2026-05-01T17:14:08Z</time></trkpt><trkpt lat="43.63905188237346" lon="11.15185860323554"><ele>249.0</ele><time>2026-05-01T17:14:09Z</time></trkpt><trkpt lat="43.638931907259874" lon="11.15192620716144"><ele>249.0</ele><time>2026-05-01T17:14:10Z</time></trkpt><trkpt lat="43.638812517030196" lon="11.152001430844669"><ele>249.0</ele><time>2026-05-01T17:14:11Z</time></trkpt><trkpt lat="43.638695445626766" lon="11.152093612054374"><ele>249.0</ele><time>2026-05-01T17:14:12Z</time></trkpt><trkpt lat="43.63859984954029" lon="11.152218283568537"><ele>249.0</ele><time>2026-05-01T17:14:13Z</time></trkpt><trkpt lat="43.638494358697194" lon="11.15231242645019"><ele>247.79999999999998</ele><time>2026-05-01T17:14:14Z</time></trkpt><trkpt lat="43.63841026526091" lon="11.152406342990114"><ele>246.59999999999997</ele><time>2026-05-01T17:14:15Z</time></trkpt><trkpt lat="43.6383277453708" lon="11.152470316092076"><ele>245.4</ele><time>2026-05-01T17:14:16Z</time></trkpt><trkpt lat="43.638236816186854" lon="11.152507587645584"><ele>244.2</ele><time>2026-05-01T17:14:17Z</time></trkpt><trkpt lat="43.638127086813896" lon="11.152542016643634"><ele>243.0</ele><time>2026-05-01T17:14:18Z</time></trkpt><trkpt lat="43.63800426942508" lon="11.152522693916227"><ele>243.0</ele><time>2026-05-01T17:14:19Z</time></trkpt><trkpt lat="43.637881994197684" lon="11.152489188916434"><ele>243.0</ele><time>2026-05-01T17:14:20Z</time></trkpt><trkpt lat="43.637758633650584" lon="11.152419343049901"><ele>243.0</ele><time>2026-05-01T17:14:21Z</time></trkpt><trkpt lat="43.63765371007577" lon="11.152329639018474"><ele>243.0</ele><time>2026-05-01T17:14:22Z</time></trkpt><trkpt lat="43.63756551123812" lon="11.152228769397894"><ele>246.0</ele><time>2026-05-01T17:14:23Z</time></trkpt><trkpt lat="43.63749037754884" lon="11.15210234737273"><ele>249.0</ele><time>2026-05-01T17:14:24Z</time></trkpt><trkpt lat="43.6374293547133" lon="11.151955787130836"><ele>252.0</ele><time>2026-05-01T17:14:25Z</time></trkpt><trkpt lat="43.637388126654535" lon="11.151790229986755"><ele>255.0</ele><time>2026-05-01T17:14:26Z</time></trkpt><trkpt lat="43.637363044063164" lon="11.151615058161854"><ele>257.5</ele><time>2026-05-01T17:14:27Z</time></trkpt><trkpt lat="43.6373437297124" lon="11.151427301652863"><ele>260.0</ele><time>2026-05-01T17:14:28Z</time></trkpt><trkpt lat="43.637323460193976" lon="11.151246028963111"><ele>262.5</ele><time>2026-05-01T17:14:29Z</time></trkpt><trkpt lat="43.637302587437595" lon="11.151060182351609"><ele>265.0</ele><time>2026-05-01T17:14:30Z</time></trkpt><trkpt lat="43.63727938736856" lon="11.150868916654337"><ele>268.25</ele><time>2026-05-01T17:14:31Z</time></trkpt><trkpt lat="43.63724377979483" lon="11.150682831034146"><ele>271.5</ele><time>2026-05-01T17:14:32Z</time></trkpt><trkpt lat="43.63719010306788" lon="11.150502745038889"><ele>274.75</ele><time>2026-05-01T17:14:33Z</time></trkpt><trkpt lat="43.637118227801935" lon="11.150331926363286"><ele>278.0</ele><time>2026-05-01T17:14:34Z</time></trkpt><trkpt lat="43.637033640983454" lon="11.150178030334436"><ele>277.5</ele><time>2026-05-01T17:14:35Z</time></trkpt><trkpt lat="43.636944607806264" lon="11.150034431981027"><ele>277.0</ele><time>2026-05-01T17:14:36Z</time></trkpt><trkpt lat="43.63685815712622" lon="11.149909812803443"><ele>276.5</ele><time>2026-05-01T17:14:37Z</time></trkpt><trkpt lat="43.63676918031782" lon="11.14977908327482"><ele>276.0</ele><time>2026-05-01T17:14:38Z</time></trkpt><trkpt lat="43.63668092188983" lon="11.149644498886964"><ele>276.0</ele><time>2026-05-01T17:14:39Z</time></trkpt><trkpt lat="43.63659162626718" lon="11.149514739987735"><ele>276.0</ele><time>2026-05-01T17:14:40Z</time></trkpt><trkpt lat="43.63649595172555" lon="11.14938649263868"><ele>276.0</ele><time>2026-05-01T17:14:41Z</time></trkpt><trkpt lat="43.63639293324831" lon="11.149269641002528"><ele>276.0</ele><time>2026-05-01T17:14:42Z</time></trkpt><trkpt lat="43.63628203335607" lon="11.149168442856693"><ele>276.0</ele><time>2026-05-01T17:14:43Z</time></trkpt><trkpt lat="43.63617206713207" lon="11.149076633894973"><ele>276.0</ele><time>2026-05-01T17:14:44Z</time></trkpt><trkpt lat="43.63606213824569" lon="11.1490053931528"><ele>276.0</ele><time>2026-05-01T17:14:45Z</time></trkpt><trkpt lat="43.63593827811175" lon="11.148964201094566"><ele>276.0</ele><time>2026-05-01T17:14:46Z</time></trkpt><trkpt lat="43.63581119399948" lon="11.148936718184324"><ele>276.6</ele><time>2026-05-01T17:14:47Z</time></trkpt><trkpt lat="43.63568303254892" lon="11.148917856838406"><ele>277.20000000000005</ele><time>2026-05-01T17:14:48Z</time></trkpt><trkpt lat="43.63556291199239" lon="11.148909809586806"><ele>277.79999999999995</ele><time>2026-05-01T17:14:49Z</time></trkpt><trkpt lat="43.6354596528268" lon="11.148900940035931"><ele>278.4</ele><time>2026-05-01T17:14:50Z</time></trkpt><trkpt lat="43.635368833331434" lon="11.148886691898484"><ele>279.0</ele><time>2026-05-01T17:14:51Z</time></trkpt><trkpt lat="43.635287872859834" lon="11.148845519983666"><ele>279.0</ele><time>2026-05-01T17:14:52Z</time></trkpt><trkpt lat="43.635213486786114" lon="11.148779684386083"><ele>279.0</ele><time>2026-05-01T17:14:53Z</time></trkpt><trkpt lat="43.63515087516766" lon="11.148683020331756"><ele>279.0</ele><time>2026-05-01T17:14:54Z</time></trkpt><trkpt lat="43.63508987756267" lon="11.148569830598694"><ele>279.0</ele><time>2026-05-01T17:14:55Z</time></trkpt><trkpt lat="43.635023620540366" lon="11.148440106699168"><ele>279.0</ele><time>2026-05-01T17:14:56Z</time></trkpt><trkpt lat="43.63494115679251" lon="11.148321929970338"><ele>279.0</ele><time>2026-05-01T17:14:57Z</time></trkpt><trkpt lat="43.63484649930533" lon="11.148214398993476"><ele>279.0</ele><time>2026-05-01T17:14:58Z</time></trkpt><trkpt lat="43.634733969064506" lon="11.148127865477901"><ele>279.0</ele><time>2026-05-01T17:14:59Z</time></trkpt><trkpt lat="43.63462425714193" lon="11.148069938116311"><ele>279.0</ele><time>2026-05-01T17:15:00Z</time></trkpt><trkpt lat="43.634512260114406" lon="11.148023754612133"><ele>279.59999999999997</ele><time>2026-05-01T17:15:01Z</time></trkpt><trkpt lat="43.63440290089603" lon="11.147973137238914"><ele>280.2</ele><time>2026-05-01T17:15:02Z</time></trkpt><trkpt lat="43.63430237204037" lon="11.14792341235473"><ele>280.79999999999995</ele><time>2026-05-01T17:15:03Z</time></trkpt><trkpt lat="43.63420556883462" lon="11.1478586324007"><ele>281.4</ele><time>2026-05-01T17:15:04Z</time></trkpt><trkpt lat="43.63411618040346" lon="11.14776708044307"><ele>282.0</ele><time>2026-05-01T17:15:05Z</time></trkpt><trkpt lat="43.63404107905991" lon="11.14765572520733"><ele>282.0</ele><time>2026-05-01T17:15:06Z</time></trkpt><trkpt lat="43.633991895707" lon="11.147515247400177"><ele>282.0</ele><time>2026-05-01T17:15:07Z</time></trkpt><trkpt lat="43.63394703209391" lon="11.14735917993435"><ele>282.0</ele><time>2026-05-01T17:15:08Z</time></trkpt><trkpt lat="43.63389571149308" lon="11.147199743938595"><ele>282.0</ele><time>2026-05-01T17:15:09Z</time></trkpt><trkpt lat="43.633837861343785" lon="11.147044275644628"><ele>281.0</ele><time>2026-05-01T17:15:10Z</time></trkpt><trkpt lat="43.633766390608415" lon="11.146886002907795"><ele>280.0</ele><time>2026-05-01T17:15:11Z</time></trkpt><trkpt lat="43.63368552686554" lon="11.146728596745767"><ele>279.0</ele><time>2026-05-01T17:15:12Z</time></trkpt><trkpt lat="43.6335945712839" lon="11.146572838122129"><ele>278.0</ele><time>2026-05-01T17:15:13Z</time></trkpt><trkpt lat="43.63349989872914" lon="11.146411811818059"><ele>277.75</ele><time>2026-05-01T17:15:14Z</time></trkpt><trkpt lat="43.63340213541828" lon="11.14625337607187"><ele>277.5</ele><time>2026-05-01T17:15:15Z</time></trkpt><trkpt lat="43.63332080650074" lon="11.14609994532295"><ele>277.25</ele><time>2026-05-01T17:15:16Z</time></trkpt><trkpt lat="43.63323412203764" lon="11.145949668779114"><ele>277.0</ele><time>2026-05-01T17:15:17Z</time></trkpt><trkpt lat="43.63314191390929" lon="11.145805435916515"><ele>274.5</ele><time>2026-05-01T17:15:18Z</time></trkpt><trkpt lat="43.63304151710774" lon="11.145674899123515"><ele>272.0</ele><time>2026-05-01T17:15:19Z</time></trkpt><trkpt lat="43.632929079632326" lon="11.145562045756176"><ele>269.5</ele><time>2026-05-01T17:15:20Z</time></trkpt><trkpt lat="43.63282923819742" lon="11.145460810713267"><ele>267.0</ele><time>2026-05-01T17:15:21Z</time></trkpt><trkpt lat="43.63272459268136" lon="11.145362058935286"><ele>269.75</ele><time>2026-05-01T17:15:22Z</time></trkpt><trkpt lat="43.63263400665797" lon="11.145231572660638"><ele>272.5</ele><time>2026-05-01T17:15:23Z</time></trkpt><trkpt lat="43.632557777899194" lon="11.145104946737325"><ele>275.25</ele><time>2026-05-01T17:15:24Z</time></trkpt><trkpt lat="43.63248036003796" lon="11.144986837180607"><ele>278.0</ele><time>2026-05-01T17:15:25Z</time></trkpt><trkpt lat="43.632389146500024" lon="11.144874421023886"><ele>278.0</ele><time>2026-05-01T17:15:26Z</time></trkpt><trkpt lat="43.63228190622872" lon="11.144801902855356"><ele>278.0</ele><time>2026-05-01T17:15:27Z</time></trkpt><trkpt lat="43.63217866899254" lon="11.144740021144159"><ele>278.0</ele><time>2026-05-01T17:15:28Z</time></trkpt><trkpt lat="43.63206726709401" lon="11.144696414685157"><ele>278.0</ele><time>2026-05-01T17:15:29Z</time></trkpt><trkpt lat="43.63195596250655" lon="11.144670741040091"><ele>281.75</ele><time>2026-05-01T17:15:30Z</time></trkpt><trkpt lat="43.63185111349472" lon="11.14462645068685"><ele>285.5</ele><time>2026-05-01T17:15:31Z</time></trkpt><trkpt lat="43.63175050089327" lon="11.144543824428892"><ele>289.25</ele><time>2026-05-01T17:15:32Z</time></trkpt><trkpt lat="43.631657946652574" lon="11.144451003989955"><ele>293.0</ele><time>2026-05-01T17:15:33Z</time></trkpt><trkpt lat="43.63156454243869" lon="11.14434411773922"><ele>293.0</ele><time>2026-05-01T17:15:34Z</time></trkpt><trkpt lat="43.63146735468044" lon="11.144231308465965"><ele>293.0</ele><time>2026-05-01T17:15:35Z</time></trkpt><trkpt lat="43.63136863321799" lon="11.144116479279708"><ele>293.0</ele><time>2026-05-01T17:15:36Z</time></trkpt><trkpt lat="43.63127011698545" lon="11.14399473019294"><ele>293.0</ele><time>2026-05-01T17:15:37Z</time></trkpt><trkpt lat="43.63117487881153" lon="11.14386889335017"><ele>293.8</ele><time>2026-05-01T17:15:38Z</time></trkpt><trkpt lat="43.6310970342134" lon="11.143741256981176"><ele>294.6</ele><time>2026-05-01T17:15:39Z</time></trkpt><trkpt lat="43.63102891710228" lon="11.143617455992045"><ele>295.4</ele><time>2026-05-01T17:15:40Z</time></trkpt><trkpt lat="43.630961861989405" lon="11.143512702596958"><ele>296.2</ele><time>2026-05-01T17:15:41Z</time></trkpt><trkpt lat="43.63088946114363" lon="11.143422499399207"><ele>297.0</ele><time>2026-05-01T17:15:42Z</time></trkpt><trkpt lat="43.630807633686445" lon="11.143351673340879"><ele>297.0</ele><time>2026-05-01T17:15:43Z</time></trkpt><trkpt lat="43.6307105500634" lon="11.143308344087464"><ele>297.0</ele><time>2026-05-01T17:15:44Z</time></trkpt><trkpt lat="43.63060286790992" lon="11.14329521921779"><ele>297.0</ele><time>2026-05-01T17:15:45Z</time></trkpt><trkpt lat="43.63048579956878" lon="11.143304857131417"><ele>297.0</ele><time>2026-05-01T17:15:46Z</time></trkpt><trkpt lat="43.63036802844023" lon="11.143328508077875"><ele>297.0</ele><time>2026-05-01T17:15:47Z</time></trkpt><trkpt lat="43.630252443013696" lon="11.143330365189872"><ele>297.5</ele><time>2026-05-01T17:15:48Z</time></trkpt><trkpt lat="43.63012169139326" lon="11.143314938243385"><ele>298.0</ele><time>2026-05-01T17:15:49Z</time></trkpt><trkpt lat="43.629977265560775" lon="11.143301697466203"><ele>298.5</ele><time>2026-05-01T17:15:50Z</time></trkpt><trkpt lat="43.629844937951646" lon="11.143277440654767"><ele>299.0</ele><time>2026-05-01T17:15:51Z</time></trkpt><trkpt lat="43.629710667870306" lon="11.143232780082366"><ele>299.0</ele><time>2026-05-01T17:15:52Z</time></trkpt><trkpt lat="43.629572687340065" lon="11.143167534283364"><ele>299.0</ele><time>2026-05-01T17:15:53Z</time></trkpt><trkpt lat="43.62943787546125" lon="11.143085771713679"><ele>299.0</ele><time>2026-05-01T17:15:54Z</time></trkpt><trkpt lat="43.62930352950552" lon="11.14300568160036"><ele>299.0</ele><time>2026-05-01T17:15:55Z</time></trkpt><trkpt lat="43.62917440015267" lon="11.142932516982537"><ele>299.0</ele><time>2026-05-01T17:15:56Z</time></trkpt><trkpt lat="43.62905358288076" lon="11.14286066567594"><ele>299.0</ele><time>2026-05-01T17:15:57Z</time></trkpt><trkpt lat="43.62893439404023" lon="11.142774673569678"><ele>299.0</ele><time>2026-05-01T17:15:58Z</time></trkpt><trkpt lat="43.62882446921457" lon="11.142672242108947"><ele>299.0</ele><time>2026-05-01T17:15:59Z</time></trkpt><trkpt lat="43.62872647333688" lon="11.142572020847233"><ele>300.5</ele><time>2026-05-01T17:16:00Z</time></trkpt><trkpt lat="43.6286281334721" lon="11.142465784558071"><ele>302.0</ele><time>2026-05-01T17:16:01Z</time></trkpt><trkpt lat="43.628530917802614" lon="11.14234442002358"><ele>303.5</ele><time>2026-05-01T17:16:02Z</time></trkpt><trkpt lat="43.62843991231707" lon="11.142195162489836"><ele>305.0</ele><time>2026-05-01T17:16:03Z</time></trkpt><trkpt lat="43.62835270502454" lon="11.142030159476215"><ele>305.0</ele><time>2026-05-01T17:16:04Z</time></trkpt><trkpt lat="43.628262174591576" lon="11.14186988493533"><ele>305.0</ele><time>2026-05-01T17:16:05Z</time></trkpt><trkpt lat="43.62817362697675" lon="11.141705396951991"><ele>305.0</ele><time>2026-05-01T17:16:06Z</time></trkpt><trkpt lat="43.62808828681058" lon="11.141537068257424"><ele>305.0</ele><time>2026-05-01T17:16:07Z</time></trkpt><trkpt lat="43.628014766547835" lon="11.141371580240243"><ele>306.0</ele><time>2026-05-01T17:16:08Z</time></trkpt><trkpt lat="43.62794238317996" lon="11.141194046272751"><ele>307.0</ele><time>2026-05-01T17:16:09Z</time></trkpt><trkpt lat="43.62787136385257" lon="11.14100987633562"><ele>308.0</ele><time>2026-05-01T17:16:10Z</time></trkpt><trkpt lat="43.627800975217966" lon="11.140827886961738"><ele>309.0</ele><time>2026-05-01T17:16:11Z</time></trkpt><trkpt lat="43.6277301127918" lon="11.140656971992541"><ele>309.0</ele><time>2026-05-01T17:16:12Z</time></trkpt><trkpt lat="43.627661826560995" lon="11.140488890755279"><ele>309.0</ele><time>2026-05-01T17:16:13Z</time></trkpt><trkpt lat="43.627586481084734" lon="11.140324155886422"><ele>309.0</ele><time>2026-05-01T17:16:14Z</time></trkpt><trkpt lat="43.62751182610286" lon="11.140163640490233"><ele>309.0</ele><time>2026-05-01T17:16:15Z</time></trkpt><trkpt lat="43.62744204133569" lon="11.140014189738167"><ele>308.0</ele><time>2026-05-01T17:16:16Z</time></trkpt><trkpt lat="43.62737035498528" lon="11.139869701481926"><ele>307.0</ele><time>2026-05-01T17:16:17Z</time></trkpt><trkpt lat="43.627306623058494" lon="11.139737398229013"><ele>306.0</ele><time>2026-05-01T17:16:18Z</time></trkpt><trkpt lat="43.62724773070928" lon="11.13959925007172"><ele>305.0</ele><time>2026-05-01T17:16:19Z</time></trkpt><trkpt lat="43.627192221073216" lon="11.13945616111021"><ele>305.0</ele><time>2026-05-01T17:16:20Z</time></trkpt><trkpt lat="43.62714694054565" lon="11.139321860088598"><ele>305.0</ele><time>2026-05-01T17:16:21Z</time></trkpt><trkpt lat="43.62709735377691" lon="11.139204231675748"><ele>305.0</ele><time>2026-05-01T17:16:22Z</time></trkpt><trkpt lat="43.627033647105115" lon="11.139096723227059"><ele>305.0</ele><time>2026-05-01T17:16:23Z</time></trkpt><trkpt lat="43.626952392061135" lon="11.138995714101501"><ele>305.0</ele><time>2026-05-01T17:16:24Z</time></trkpt><trkpt lat="43.626864810251625" lon="11.138898103370193"><ele>305.2</ele><time>2026-05-01T17:16:25Z</time></trkpt><trkpt lat="43.62678437197731" lon="11.138784924746124"><ele>305.4</ele><time>2026-05-01T17:16:26Z</time></trkpt><trkpt lat="43.626712478614095" lon="11.138667563415115"><ele>305.6</ele><time>2026-05-01T17:16:27Z</time></trkpt><trkpt lat="43.62664394541947" lon="11.138552714201525"><ele>305.8</ele><time>2026-05-01T17:16:28Z</time></trkpt><trkpt lat="43.62657445449041" lon="11.138435197712306"><ele>306.0</ele><time>2026-05-01T17:16:29Z</time></trkpt><trkpt lat="43.62650301380242" lon="11.138317700680766"><ele>306.6</ele><time>2026-05-01T17:16:30Z</time></trkpt><trkpt lat="43.626430472104914" lon="11.138202795496476"><ele>307.20000000000005</ele><time>2026-05-01T17:16:31Z</time></trkpt><trkpt lat="43.62635048441058" lon="11.138101322050241"><ele>307.79999999999995</ele><time>2026-05-01T17:16:32Z</time></trkpt><trkpt lat="43.62626753348091" lon="11.13800752728491"><ele>308.4</ele><time>2026-05-01T17:16:33Z</time></trkpt><trkpt lat="43.626180569566756" lon="11.137919489567384"><ele>309.0</ele><time>2026-05-01T17:16:34Z</time></trkpt><trkpt lat="43.626092147443714" lon="11.13783903302825"><ele>306.0</ele><time>2026-05-01T17:16:35Z</time></trkpt><trkpt lat="43.62599971769437" lon="11.137758967583329"><ele>303.0</ele><time>2026-05-01T17:16:36Z</time></trkpt><trkpt lat="43.625905044849056" lon="11.13768289213589"><ele>300.0</ele><time>2026-05-01T17:16:37Z</time></trkpt><trkpt lat="43.6258079529194" lon="11.13760995487686"><ele>297.0</ele><time>2026-05-01T17:16:38Z</time></trkpt><trkpt lat="43.625714490578694" lon="11.137545550454309"><ele>294.0</ele><time>2026-05-01T17:16:39Z</time></trkpt><trkpt lat="43.625634852784685" lon="11.13748990907536"><ele>294.0</ele><time>2026-05-01T17:16:40Z</time></trkpt><trkpt lat="43.6255590596959" lon="11.137437983053315"><ele>294.0</ele><time>2026-05-01T17:16:41Z</time></trkpt><trkpt lat="43.625494223460024" lon="11.137395211074512"><ele>294.0</ele><time>2026-05-01T17:16:42Z</time></trkpt><trkpt lat="43.62544262107165" lon="11.137330653398942"><ele>294.0</ele><time>2026-05-01T17:16:43Z</time></trkpt><trkpt lat="43.62540277188076" lon="11.137237886024396"><ele>294.0</ele><time>2026-05-01T17:16:44Z</time></trkpt><trkpt lat="43.62537889591684" lon="11.137123128464962"><ele>294.0</ele><time>2026-05-01T17:16:45Z</time></trkpt><trkpt lat="43.62536297557666" lon="11.1370103863092"><ele>294.3333333333333</ele><time>2026-05-01T17:16:46Z</time></trkpt><trkpt lat="43.62534735244239" lon="11.13690255013107"><ele>294.6666666666667</ele><time>2026-05-01T17:16:47Z</time></trkpt><trkpt lat="43.625310128573624" lon="11.13681018045007"><ele>295.0</ele><time>2026-05-01T17:16:48Z</time></trkpt><trkpt lat="43.625252474824606" lon="11.136726416655327"><ele>295.33333333333337</ele><time>2026-05-01T17:16:49Z</time></trkpt><trkpt lat="43.62517452653111" lon="11.136665020833874"><ele>295.6666666666667</ele><time>2026-05-01T17:16:50Z</time></trkpt><trkpt lat="43.62508781530775" lon="11.136634207752357"><ele>296.0</ele><time>2026-05-01T17:16:51Z</time></trkpt><trkpt lat="43.62498582507321" lon="11.136625888805687"><ele>291.75</ele><time>2026-05-01T17:16:52Z</time></trkpt><trkpt lat="43.62486867313969" lon="11.13663085224117"><ele>287.5</ele><time>2026-05-01T17:16:53Z</time></trkpt><trkpt lat="43.624750327421275" lon="11.136638360019262"><ele>283.25</ele><time>2026-05-01T17:16:54Z</time></trkpt><trkpt lat="43.62463332486201" lon="11.136653686628529"><ele>279.0</ele><time>2026-05-01T17:16:55Z</time></trkpt><trkpt lat="43.62452538025017" lon="11.136670408688664"><ele>278.5</ele><time>2026-05-01T17:16:56Z</time></trkpt><trkpt lat="43.624412813951025" lon="11.13666830169851"><ele>278.0</ele><time>2026-05-01T17:16:57Z</time></trkpt><trkpt lat="43.62430278037789" lon="11.136643728067506"><ele>277.5</ele><time>2026-05-01T17:16:58Z</time></trkpt><trkpt lat="43.624191749154605" lon="11.136592396269938"><ele>277.0</ele><time>2026-05-01T17:16:59Z</time></trkpt><trkpt lat="43.6240758301015" lon="11.136540408197376"><ele>277.0</ele><time>2026-05-01T17:17:00Z</time></trkpt><trkpt lat="43.623966414179236" lon="11.136473979605057"><ele>277.0</ele><time>2026-05-01T17:17:01Z</time></trkpt><trkpt lat="43.62386337354575" lon="11.136392090073631"><ele>277.0</ele><time>2026-05-01T17:17:02Z</time></trkpt><trkpt lat="43.623760435019186" lon="11.136309561287877"><ele>277.0</ele><time>2026-05-01T17:17:03Z</time></trkpt><trkpt lat="43.62365710720707" lon="11.136225792386602"><ele>271.75</ele><time>2026-05-01T17:17:04Z</time></trkpt><trkpt lat="43.623552045369856" lon="11.136142938399983"><ele>266.5</ele><time>2026-05-01T17:17:05Z</time></trkpt><trkpt lat="43.62344621740246" lon="11.136057065360655"><ele>261.25</ele><time>2026-05-01T17:17:06Z</time></trkpt><trkpt lat="43.62334003031557" lon="11.135965536458691"><ele>256.0</ele><time>2026-05-01T17:17:07Z</time></trkpt><trkpt lat="43.62323448861531" lon="11.135880810936557"><ele>256.0</ele><time>2026-05-01T17:17:08Z</time></trkpt><trkpt lat="43.623127049543584" lon="11.135804926053714"><ele>256.0</ele><time>2026-05-01T17:17:09Z</time></trkpt><trkpt lat="43.623034850560984" lon="11.135708907924755"><ele>256.0</ele><time>2026-05-01T17:17:10Z</time></trkpt><trkpt lat="43.62295248139187" lon="11.135607462782074"><ele>256.0</ele><time>2026-05-01T17:17:11Z</time></trkpt><trkpt lat="43.6228772907981" lon="11.135489331975656"><ele>252.25</ele><time>2026-05-01T17:17:12Z</time></trkpt><trkpt lat="43.622812473778325" lon="11.135358083377007"><ele>248.5</ele><time>2026-05-01T17:17:13Z</time></trkpt><trkpt lat="43.62275473686834" lon="11.135214017668774"><ele>244.75</ele><time>2026-05-01T17:17:14Z</time></trkpt><trkpt lat="43.62270509472539" lon="11.13506807735792"><ele>241.0</ele><time>2026-05-01T17:17:15Z</time></trkpt><trkpt lat="43.6226587672825" lon="11.134923198704518"><ele>242.75</ele><time>2026-05-01T17:17:16Z</time></trkpt><trkpt lat="43.62261172338217" lon="11.134779860394536"><ele>244.5</ele><time>2026-05-01T17:17:17Z</time></trkpt><trkpt lat="43.622565579235435" lon="11.13463229710053"><ele>246.25</ele><time>2026-05-01T17:17:18Z</time></trkpt><trkpt lat="43.622513582331756" lon="11.134487104575397"><ele>248.0</ele><time>2026-05-01T17:17:19Z</time></trkpt><trkpt lat="43.62246011790535" lon="11.134343321709196"><ele>248.0</ele><time>2026-05-01T17:17:20Z</time></trkpt><trkpt lat="43.62239844114134" lon="11.134207003143807"><ele>248.0</ele><time>2026-05-01T17:17:21Z</time></trkpt><trkpt lat="43.622327384070864" lon="11.134074670333666"><ele>248.0</ele><time>2026-05-01T17:17:22Z</time></trkpt><trkpt lat="43.62224649529978" lon="11.133944971541291"><ele>248.0</ele><time>2026-05-01T17:17:23Z</time></trkpt><trkpt lat="43.62215921926323" lon="11.133816276648117"><ele>249.25</ele><time>2026-05-01T17:17:24Z</time></trkpt><trkpt lat="43.62207173055995" lon="11.133684843462408"><ele>250.5</ele><time>2026-05-01T17:17:25Z</time></trkpt><trkpt lat="43.62198669728512" lon="11.133552168709343"><ele>251.75</ele><time>2026-05-01T17:17:26Z</time></trkpt><trkpt lat="43.62190471614024" lon="11.133428779078324"><ele>253.0</ele><time>2026-05-01T17:17:27Z</time></trkpt><trkpt lat="43.6218276516435" lon="11.133314141192502"><ele>246.2</ele><time>2026-05-01T17:17:28Z</time></trkpt><trkpt lat="43.621749984921145" lon="11.133199644922504"><ele>239.4</ele><time>2026-05-01T17:17:29Z</time></trkpt><trkpt lat="43.621681901620825" lon="11.133094041915692"><ele>232.59999999999997</ele><time>2026-05-01T17:17:30Z</time></trkpt><trkpt lat="43.62162188735353" lon="11.133004069285686"><ele>225.79999999999998</ele><time>2026-05-01T17:17:31Z</time></trkpt><trkpt lat="43.62156094179846" lon="11.132931220821542"><ele>219.0</ele><time>2026-05-01T17:17:32Z</time></trkpt><trkpt lat="43.621490247404886" lon="11.132884295964908"><ele>219.0</ele><time>2026-05-01T17:17:33Z</time></trkpt><trkpt lat="43.6214129487139" lon="11.132853986407413"><ele>218.99999999999997</ele><time>2026-05-01T17:17:34Z</time></trkpt><trkpt lat="43.62132899478752" lon="11.132852153205095"><ele>218.99999999999997</ele><time>2026-05-01T17:17:35Z</time></trkpt><trkpt lat="43.621243309546315" lon="11.13287389523091"><ele>219.0</ele><time>2026-05-01T17:17:36Z</time></trkpt><trkpt lat="43.621146320146835" lon="11.132925294818639"><ele>219.0</ele><time>2026-05-01T17:17:37Z</time></trkpt><trkpt lat="43.62104442167665" lon="11.133002557102813"><ele>216.0</ele><time>2026-05-01T17:17:38Z</time></trkpt><trkpt lat="43.62094062021956" lon="11.133087268375133"><ele>213.0</ele><time>2026-05-01T17:17:39Z</time></trkpt><trkpt lat="43.62083756521905" lon="11.133165649152923"><ele>210.0</ele><time>2026-05-01T17:17:40Z</time></trkpt><trkpt lat="43.62072989988095" lon="11.1332518246648"><ele>207.0</ele><time>2026-05-01T17:17:41Z</time></trkpt><trkpt lat="43.62061912593844" lon="11.133342094785263"><ele>207.0</ele><time>2026-05-01T17:17:42Z</time></trkpt><trkpt lat="43.62050513754213" lon="11.133433353046144"><ele>207.0</ele><time>2026-05-01T17:17:43Z</time></trkpt><trkpt lat="43.620391422252965" lon="11.133525735677786"><ele>207.0</ele><time>2026-05-01T17:17:44Z</time></trkpt><trkpt lat="43.620275871709055" lon="11.13361466450686"><ele>207.0</ele><time>2026-05-01T17:17:45Z</time></trkpt><trkpt lat="43.620163039178586" lon="11.133708885173915"><ele>204.39999999999998</ele><time>2026-05-01T17:17:46Z</time></trkpt><trkpt lat="43.620061463034496" lon="11.133796648307424"><ele>201.79999999999998</ele><time>2026-05-01T17:17:47Z</time></trkpt><trkpt lat="43.619966763000775" lon="11.133869146515737"><ele>199.2</ele><time>2026-05-01T17:17:48Z</time></trkpt><trkpt lat="43.61986542515321" lon="11.133920301699069"><ele>196.6</ele><time>2026-05-01T17:17:49Z</time></trkpt><trkpt lat="43.6197544417057" lon="11.133943912782389"><ele>194.0</ele><time>2026-05-01T17:17:50Z</time></trkpt><trkpt lat="43.61964539939119" lon="11.133914325682358"><ele>194.0</ele><time>2026-05-01T17:17:51Z</time></trkpt><trkpt lat="43.61954215215917" lon="11.133855434853487"><ele>194.0</ele><time>2026-05-01T17:17:52Z</time></trkpt><trkpt lat="43.61943422075685" lon="11.133780784597334"><ele>194.0</ele><time>2026-05-01T17:17:53Z</time></trkpt><trkpt lat="43.619326310959934" lon="11.133709465276576"><ele>194.0</ele><time>2026-05-01T17:17:54Z</time></trkpt><trkpt lat="43.61921137534462" lon="11.133636363038047"><ele>191.75</ele><time>2026-05-01T17:17:55Z</time></trkpt><trkpt lat="43.61909304997041" lon="11.133557523764097"><ele>189.5</ele><time>2026-05-01T17:17:56Z</time></trkpt><trkpt lat="43.61897258418808" lon="11.13348125900618"><ele>187.25</ele><time>2026-05-01T17:17:57Z</time></trkpt><trkpt lat="43.618860093671174" lon="11.13341724882601"><ele>185.0</ele><time>2026-05-01T17:17:58Z</time></trkpt><trkpt lat="43.61875048296221" lon="11.133365538829771"><ele>184.6</ele><time>2026-05-01T17:17:59Z</time></trkpt><trkpt lat="43.61864366896552" lon="11.13333504045812"><ele>184.2</ele><time>2026-05-01T17:18:00Z</time></trkpt><trkpt lat="43.618539495215785" lon="11.133315384235761"><ele>183.8</ele><time>2026-05-01T17:18:01Z</time></trkpt><trkpt lat="43.6184480657626" lon="11.133301753338914"><ele>183.4</ele><time>2026-05-01T17:18:02Z</time></trkpt><trkpt lat="43.61836672032989" lon="11.133282199800707"><ele>183.0</ele><time>2026-05-01T17:18:03Z</time></trkpt><trkpt lat="43.618276022415124" lon="11.133265533147956"><ele>182.0</ele><time>2026-05-01T17:18:04Z</time></trkpt><trkpt lat="43.618191919925614" lon="11.133191414884191"><ele>181.0</ele><time>2026-05-01T17:18:05Z</time></trkpt><trkpt lat="43.618111552517504" lon="11.13311006675224"><ele>180.0</ele><time>2026-05-01T17:18:06Z</time></trkpt><trkpt lat="43.61803111762199" lon="11.133031235479601"><ele>179.0</ele><time>2026-05-01T17:18:07Z</time></trkpt><trkpt lat="43.618046310942965" lon="11.132780247263"><ele>179.0</ele><time>2026-05-01T17:18:08Z</time></trkpt><trkpt lat="43.61802246355774" lon="11.132610957454004"><ele>179.0</ele><time>2026-05-01T17:18:09Z</time></trkpt><trkpt lat="43.61800045291802" lon="11.132425837105387"><ele>179.0</ele><time>2026-05-01T17:18:10Z</time></trkpt><trkpt lat="43.61798125036928" lon="11.132240850848097"><ele>179.0</ele><time>2026-05-01T17:18:11Z</time></trkpt><trkpt lat="43.61797011681357" lon="11.13204809478887"><ele>179.0</ele><time>2026-05-01T17:18:12Z</time></trkpt><trkpt lat="43.6179752780992" lon="11.131846487266587"><ele>179.0</ele><time>2026-05-01T17:18:13Z</time></trkpt><trkpt lat="43.61798738525744" lon="11.13164064289771"><ele>179.0</ele><time>2026-05-01T17:18:14Z</time></trkpt><trkpt lat="43.61801841156721" lon="11.131435346001682"><ele>179.0</ele><time>2026-05-01T17:18:15Z</time></trkpt><trkpt lat="43.618066699508894" lon="11.131230394203776"><ele>179.0</ele><time>2026-05-01T17:18:16Z</time></trkpt><trkpt lat="43.61813008183839" lon="11.13103077809645"><ele>179.0</ele><time>2026-05-01T17:18:17Z</time></trkpt><trkpt lat="43.61820715938906" lon="11.1308352838993"><ele>179.0</ele><time>2026-05-01T17:18:18Z</time></trkpt><trkpt lat="43.618294317917325" lon="11.130646476569426"><ele>179.33333333333331</ele><time>2026-05-01T17:18:19Z</time></trkpt><trkpt lat="43.61839305457327" lon="11.13046439185703"><ele>179.66666666666666</ele><time>2026-05-01T17:18:20Z</time></trkpt><trkpt lat="43.61849377759087" lon="11.130293516696437"><ele>180.0</ele><time>2026-05-01T17:18:21Z</time></trkpt><trkpt lat="43.618596372801676" lon="11.130123933239016"><ele>178.66666666666666</ele><time>2026-05-01T17:18:22Z</time></trkpt><trkpt lat="43.61869742405305" lon="11.129952153410507"><ele>177.33333333333331</ele><time>2026-05-01T17:18:23Z</time></trkpt><trkpt lat="43.61879769158658" lon="11.129780539039295"><ele>176.0</ele><time>2026-05-01T17:18:24Z</time></trkpt><trkpt lat="43.61889370025272" lon="11.129611768125933"><ele>176.0</ele><time>2026-05-01T17:18:25Z</time></trkpt><trkpt lat="43.6189867580727" lon="11.12945734468868"><ele>176.0</ele><time>2026-05-01T17:18:26Z</time></trkpt><trkpt lat="43.61907598903976" lon="11.129307340312355"><ele>176.0</ele><time>2026-05-01T17:18:27Z</time></trkpt><trkpt lat="43.619184553257966" lon="11.12917547523707"><ele>176.0</ele><time>2026-05-01T17:18:28Z</time></trkpt><trkpt lat="43.61928666098944" lon="11.129038130999009"><ele>176.25</ele><time>2026-05-01T17:18:29Z</time></trkpt><trkpt lat="43.61938765140189" lon="11.12890441259446"><ele>176.5</ele><time>2026-05-01T17:18:30Z</time></trkpt><trkpt lat="43.619492179382405" lon="11.128776664392769"><ele>176.75</ele><time>2026-05-01T17:18:31Z</time></trkpt><trkpt lat="43.61959535949909" lon="11.128659405281374"><ele>177.0</ele><time>2026-05-01T17:18:32Z</time></trkpt><trkpt lat="43.61970342729467" lon="11.128543753835636"><ele>177.25</ele><time>2026-05-01T17:18:33Z</time></trkpt><trkpt lat="43.61980118104144" lon="11.128415630923312"><ele>177.5</ele><time>2026-05-01T17:18:34Z</time></trkpt><trkpt lat="43.61991784714138" lon="11.128316986572509"><ele>177.75</ele><time>2026-05-01T17:18:35Z</time></trkpt><trkpt lat="43.62003461157386" lon="11.128209243374927"><ele>178.0</ele><time>2026-05-01T17:18:36Z</time></trkpt><trkpt lat="43.620159446428715" lon="11.128110737580656"><ele>178.0</ele><time>2026-05-01T17:18:37Z</time></trkpt><trkpt lat="43.620292875337206" lon="11.128036506670826"><ele>178.0</ele><time>2026-05-01T17:18:38Z</time></trkpt><trkpt lat="43.62042316223386" lon="11.127952019303573"><ele>178.0</ele><time>2026-05-01T17:18:39Z</time></trkpt><trkpt lat="43.62054953933579" lon="11.127857343675311"><ele>178.0</ele><time>2026-05-01T17:18:40Z</time></trkpt><trkpt lat="43.62068386688749" lon="11.127792615376398"><ele>177.5</ele><time>2026-05-01T17:18:41Z</time></trkpt><trkpt lat="43.62081647337737" lon="11.127718748852928"><ele>177.0</ele><time>2026-05-01T17:18:42Z</time></trkpt><trkpt lat="43.62096077829743" lon="11.127674367311986"><ele>176.5</ele><time>2026-05-01T17:18:43Z</time></trkpt><trkpt lat="43.621097660442885" lon="11.127613158649437"><ele>176.0</ele><time>2026-05-01T17:18:44Z</time></trkpt><trkpt lat="43.62123529129548" lon="11.127551615170201"><ele>175.66666666666666</ele><time>2026-05-01T17:18:45Z</time></trkpt><trkpt lat="43.62137483577536" lon="11.12749108052708"><ele>175.33333333333334</ele><time>2026-05-01T17:18:46Z</time></trkpt><trkpt lat="43.621526612839105" lon="11.12742547037495"><ele>175.0</ele><time>2026-05-01T17:18:47Z</time></trkpt><trkpt lat="43.621678992303735" lon="11.127359599809886"><ele>174.33333333333334</ele><time>2026-05-01T17:18:48Z</time></trkpt><trkpt lat="43.621834287744555" lon="11.127290711091248"><ele>173.66666666666666</ele><time>2026-05-01T17:18:49Z</time></trkpt><trkpt lat="43.62199211807588" lon="11.127219892403415"><ele>173.0</ele><time>2026-05-01T17:18:50Z</time></trkpt><trkpt lat="43.62214488971363" lon="11.127142657252632"><ele>172.33333333333331</ele><time>2026-05-01T17:18:51Z</time></trkpt><trkpt lat="43.62228899412656" lon="11.127058131765834"><ele>171.66666666666666</ele><time>2026-05-01T17:18:52Z</time></trkpt><trkpt lat="43.62243481523279" lon="11.126958634911277"><ele>171.0</ele><time>2026-05-01T17:18:53Z</time></trkpt><trkpt lat="43.62256874498416" lon="11.12685525481868"><ele>171.0</ele><time>2026-05-01T17:18:54Z</time></trkpt><trkpt lat="43.62270274348103" lon="11.126736249183246"><ele>171.0</ele><time>2026-05-01T17:18:55Z</time></trkpt><trkpt lat="43.622836899962664" lon="11.12660454518114"><ele>171.0</ele><time>2026-05-01T17:18:56Z</time></trkpt><trkpt lat="43.622962290663985" lon="11.126466297024033"><ele>171.66666666666666</ele><time>2026-05-01T17:18:57Z</time></trkpt><trkpt lat="43.62307478853858" lon="11.12629578653738"><ele>172.33333333333331</ele><time>2026-05-01T17:18:58Z</time></trkpt><trkpt lat="43.62319178456555" lon="11.126134196587747"><ele>173.0</ele><time>2026-05-01T17:18:59Z</time></trkpt><trkpt lat="43.62330269770681" lon="11.125954203786275"><ele>173.0</ele><time>2026-05-01T17:19:00Z</time></trkpt><trkpt lat="43.62340894468726" lon="11.125769362683494"><ele>173.0</ele><time>2026-05-01T17:19:01Z</time></trkpt><trkpt lat="43.623524520167706" lon="11.12559785053631"><ele>173.0</ele><time>2026-05-01T17:19:02Z</time></trkpt><trkpt lat="43.62362978839839" lon="11.125411509022388"><ele>173.33333333333331</ele><time>2026-05-01T17:19:03Z</time></trkpt><trkpt lat="43.62373494006539" lon="11.125228304379863"><ele>173.66666666666666</ele><time>2026-05-01T17:19:04Z</time></trkpt><trkpt lat="43.623839890879395" lon="11.125046046029663"><ele>174.0</ele><time>2026-05-01T17:19:05Z</time></trkpt><trkpt lat="43.623943790888966" lon="11.124865612532027"><ele>174.0</ele><time>2026-05-01T17:19:06Z</time></trkpt><trkpt lat="43.62405070808591" lon="11.124679093230897"><ele>174.0</ele><time>2026-05-01T17:19:07Z</time></trkpt><trkpt lat="43.62416010161804" lon="11.124487751292616"><ele>174.0</ele><time>2026-05-01T17:19:08Z</time></trkpt><trkpt lat="43.624267765246564" lon="11.124299435146392"><ele>174.0</ele><time>2026-05-01T17:19:09Z</time></trkpt><trkpt lat="43.624375656019" lon="11.124110721685089"><ele>174.0</ele><time>2026-05-01T17:19:10Z</time></trkpt><trkpt lat="43.624479061333574" lon="11.1239306194253"><ele>174.0</ele><time>2026-05-01T17:19:11Z</time></trkpt><trkpt lat="43.62458670923332" lon="11.123744220893126"><ele>173.66666666666666</ele><time>2026-05-01T17:19:12Z</time></trkpt><trkpt lat="43.62469129996016" lon="11.123558772377276"><ele>173.33333333333331</ele><time>2026-05-01T17:19:13Z</time></trkpt><trkpt lat="43.62479504414987" lon="11.123375081468843"><ele>173.0</ele><time>2026-05-01T17:19:14Z</time></trkpt><trkpt lat="43.62489987497332" lon="11.12319082019806"><ele>170.66666666666666</ele><time>2026-05-01T17:19:15Z</time></trkpt><trkpt lat="43.62500412701283" lon="11.123007576273643"><ele>168.33333333333334</ele><time>2026-05-01T17:19:16Z</time></trkpt><trkpt lat="43.6251074803227" lon="11.122825912046192"><ele>166.0</ele><time>2026-05-01T17:19:17Z</time></trkpt><trkpt lat="43.6252119012047" lon="11.122644013153828"><ele>166.66666666666669</ele><time>2026-05-01T17:19:18Z</time></trkpt><trkpt lat="43.62531905394342" lon="11.122460604231069"><ele>167.33333333333334</ele><time>2026-05-01T17:19:19Z</time></trkpt><trkpt lat="43.625427805121475" lon="11.122274459353836"><ele>168.0</ele><time>2026-05-01T17:19:20Z</time></trkpt><trkpt lat="43.62553967626748" lon="11.12209098322908"><ele>168.0</ele><time>2026-05-01T17:19:21Z</time></trkpt><trkpt lat="43.62565311264147" lon="11.121910630862324"><ele>168.0</ele><time>2026-05-01T17:19:22Z</time></trkpt><trkpt lat="43.62577026741322" lon="11.121736212921968"><ele>168.0</ele><time>2026-05-01T17:19:23Z</time></trkpt><trkpt lat="43.62588714498809" lon="11.12157184403172"><ele>168.0</ele><time>2026-05-01T17:19:24Z</time></trkpt><trkpt lat="43.62600543282939" lon="11.121406800355139"><ele>168.0</ele><time>2026-05-01T17:19:25Z</time></trkpt><trkpt lat="43.62612467090461" lon="11.121238150962972"><ele>168.0</ele><time>2026-05-01T17:19:26Z</time></trkpt><trkpt lat="43.626245156402994" lon="11.12107376423227"><ele>168.0</ele><time>2026-05-01T17:19:27Z</time></trkpt><trkpt lat="43.62636607008758" lon="11.120906098328279"><ele>168.0</ele><time>2026-05-01T17:19:28Z</time></trkpt><trkpt lat="43.626487744449975" lon="11.120735520763612"><ele>168.0</ele><time>2026-05-01T17:19:29Z</time></trkpt><trkpt lat="43.62661008615399" lon="11.120564007645276"><ele>167.0</ele><time>2026-05-01T17:19:30Z</time></trkpt><trkpt lat="43.62673285734332" lon="11.120391026854353"><ele>166.0</ele><time>2026-05-01T17:19:31Z</time></trkpt><trkpt lat="43.62685679637949" lon="11.120213759208323"><ele>165.0</ele><time>2026-05-01T17:19:32Z</time></trkpt><trkpt lat="43.62698286734823" lon="11.120036816238"><ele>165.0</ele><time>2026-05-01T17:19:33Z</time></trkpt><trkpt lat="43.62710909165406" lon="11.11986211530948"><ele>165.0</ele><time>2026-05-01T17:19:34Z</time></trkpt><trkpt lat="43.62723384039186" lon="11.119686913968465"><ele>165.0</ele><time>2026-05-01T17:19:35Z</time></trkpt><trkpt lat="43.62735863523319" lon="11.119511177504508"><ele>165.0</ele><time>2026-05-01T17:19:36Z</time></trkpt><trkpt lat="43.62748319822564" lon="11.119335766268609"><ele>165.0</ele><time>2026-05-01T17:19:37Z</time></trkpt><trkpt lat="43.62760762063458" lon="11.119159977825294"><ele>165.0</ele><time>2026-05-01T17:19:38Z</time></trkpt><trkpt lat="43.62773277948818" lon="11.11898136531728"><ele>165.0</ele><time>2026-05-01T17:19:39Z</time></trkpt><trkpt lat="43.62784507181307" lon="11.118789514135456"><ele>165.0</ele><time>2026-05-01T17:19:40Z</time></trkpt><trkpt lat="43.62796976358694" lon="11.118615605362296"><ele>165.0</ele><time>2026-05-01T17:19:41Z</time></trkpt><trkpt lat="43.628092824373844" lon="11.118441997762025"><ele>165.0</ele><time>2026-05-01T17:19:42Z</time></trkpt><trkpt lat="43.628216716452215" lon="11.118266062363901"><ele>165.0</ele><time>2026-05-01T17:19:43Z</time></trkpt><trkpt lat="43.62834236413107" lon="11.118088468063624"><ele>165.0</ele><time>2026-05-01T17:19:44Z</time></trkpt><trkpt lat="43.62846916313865" lon="11.117909760722258"><ele>165.0</ele><time>2026-05-01T17:19:45Z</time></trkpt><trkpt lat="43.628595911341954" lon="11.117730655185872"><ele>165.0</ele><time>2026-05-01T17:19:46Z</time></trkpt><trkpt lat="43.62872371044818" lon="11.117549019531063"><ele>165.0</ele><time>2026-05-01T17:19:47Z</time></trkpt><trkpt lat="43.62886233076124" lon="11.11738787159883"><ele>162.66666666666666</ele><time>2026-05-01T17:19:48Z</time></trkpt><trkpt lat="43.628990133350655" lon="11.1172086598846"><ele>160.33333333333331</ele><time>2026-05-01T17:19:49Z</time></trkpt><trkpt lat="43.62911657442893" lon="11.117028987923575"><ele>158.0</ele><time>2026-05-01T17:19:50Z</time></trkpt><trkpt lat="43.62923096491632" lon="11.116834662927957"><ele>158.0</ele><time>2026-05-01T17:19:51Z</time></trkpt><trkpt lat="43.62935870873177" lon="11.116655064319916"><ele>158.0</ele><time>2026-05-01T17:19:52Z</time></trkpt><trkpt lat="43.629487808667" lon="11.116473736494058"><ele>158.0</ele><time>2026-05-01T17:19:53Z</time></trkpt><trkpt lat="43.62961719815477" lon="11.11629505715327"><ele>158.0</ele><time>2026-05-01T17:19:54Z</time></trkpt><trkpt lat="43.62974720090651" lon="11.11611449630079"><ele>158.0</ele><time>2026-05-01T17:19:55Z</time></trkpt><trkpt lat="43.629876755085526" lon="11.115935287177463"><ele>158.0</ele><time>2026-05-01T17:19:56Z</time></trkpt><trkpt lat="43.630005760297806" lon="11.115753979287557"><ele>158.33333333333331</ele><time>2026-05-01T17:19:57Z</time></trkpt><trkpt lat="43.630137385970094" lon="11.115570762891286"><ele>158.66666666666666</ele><time>2026-05-01T17:19:58Z</time></trkpt><trkpt lat="43.63028321233039" lon="11.115404097791878"><ele>159.0</ele><time>2026-05-01T17:19:59Z</time></trkpt><trkpt lat="43.6304189760533" lon="11.115225953158035"><ele>159.0</ele><time>2026-05-01T17:20:00Z</time></trkpt><trkpt lat="43.63055359656027" lon="11.115049308620737"><ele>159.0</ele><time>2026-05-01T17:20:01Z</time></trkpt><trkpt lat="43.63068712995262" lon="11.11487409056325"><ele>159.0</ele><time>2026-05-01T17:20:02Z</time></trkpt><trkpt lat="43.63082177934994" lon="11.114699603795156"><ele>158.66666666666666</ele><time>2026-05-01T17:20:03Z</time></trkpt><trkpt lat="43.63095489238147" lon="11.1145291387911"><ele>158.33333333333331</ele><time>2026-05-01T17:20:04Z</time></trkpt><trkpt lat="43.63108768056408" lon="11.114359089785014"><ele>158.0</ele><time>2026-05-01T17:20:05Z</time></trkpt><trkpt lat="43.63122145978417" lon="11.114187667908368"><ele>156.0</ele><time>2026-05-01T17:20:06Z</time></trkpt><trkpt lat="43.63135284585534" lon="11.114016829229914"><ele>154.0</ele><time>2026-05-01T17:20:07Z</time></trkpt><trkpt lat="43.63148516768588" lon="11.113844773801492"><ele>152.0</ele><time>2026-05-01T17:20:08Z</time></trkpt><trkpt lat="43.63161646206781" lon="11.113674054347788"><ele>152.0</ele><time>2026-05-01T17:20:09Z</time></trkpt><trkpt lat="43.631749162175666" lon="11.113501507057029"><ele>152.0</ele><time>2026-05-01T17:20:10Z</time></trkpt><trkpt lat="43.631883228907526" lon="11.113327182774016"><ele>152.0</ele><time>2026-05-01T17:20:11Z</time></trkpt><trkpt lat="43.63201889538978" lon="11.11315077836439"><ele>152.0</ele><time>2026-05-01T17:20:12Z</time></trkpt><trkpt lat="43.63215410118332" lon="11.112974992946905"><ele>152.0</ele><time>2026-05-01T17:20:13Z</time></trkpt><trkpt lat="43.63228870576942" lon="11.112800003997839"><ele>152.0</ele><time>2026-05-01T17:20:14Z</time></trkpt><trkpt lat="43.632424804560074" lon="11.11262307116932"><ele>152.0</ele><time>2026-05-01T17:20:15Z</time></trkpt><trkpt lat="43.63256272220969" lon="11.112443773754952"><ele>152.0</ele><time>2026-05-01T17:20:16Z</time></trkpt><trkpt lat="43.63269939203342" lon="11.112266098573347"><ele>152.0</ele><time>2026-05-01T17:20:17Z</time></trkpt><trkpt lat="43.63282642995546" lon="11.1120713503202"><ele>151.66666666666666</ele><time>2026-05-01T17:20:18Z</time></trkpt><trkpt lat="43.632976425633835" lon="11.111905945928655"><ele>151.33333333333334</ele><time>2026-05-01T17:20:19Z</time></trkpt><trkpt lat="43.63311382394563" lon="11.111727323678839"><ele>151.0</ele><time>2026-05-01T17:20:20Z</time></trkpt><trkpt lat="43.633251283034035" lon="11.111548622415377"><ele>151.0</ele><time>2026-05-01T17:20:21Z</time></trkpt><trkpt lat="43.63338701425153" lon="11.111372167436887"><ele>151.0</ele><time>2026-05-01T17:20:22Z</time></trkpt><trkpt lat="43.63352111429841" lon="11.111197833033772"><ele>151.0</ele><time>2026-05-01T17:20:23Z</time></trkpt><trkpt lat="43.633655815091515" lon="11.111022877013095"><ele>151.66666666666669</ele><time>2026-05-01T17:20:24Z</time></trkpt><trkpt lat="43.63379039732954" lon="11.110848497196558"><ele>152.33333333333334</ele><time>2026-05-01T17:20:25Z</time></trkpt><trkpt lat="43.6339254156268" lon="11.110674264674174"><ele>153.0</ele><time>2026-05-01T17:20:26Z</time></trkpt><trkpt lat="43.634062283819446" lon="11.11049726266667"><ele>153.0</ele><time>2026-05-01T17:20:27Z</time></trkpt><trkpt lat="43.634200716603054" lon="11.110317597362036"><ele>153.0</ele><time>2026-05-01T17:20:28Z</time></trkpt><trkpt lat="43.63433740496224" lon="11.110140196067677"><ele>153.0</ele><time>2026-05-01T17:20:29Z</time></trkpt><trkpt lat="43.63447354359605" lon="11.109963508238032"><ele>151.33333333333334</ele><time>2026-05-01T17:20:30Z</time></trkpt><trkpt lat="43.63460903107336" lon="11.109787665514284"><ele>149.66666666666669</ele><time>2026-05-01T17:20:31Z</time></trkpt><trkpt lat="43.634745867252846" lon="11.109610072376219"><ele>148.0</ele><time>2026-05-01T17:20:32Z</time></trkpt><trkpt lat="43.63488132709866" lon="11.109434223249687"><ele>148.0</ele><time>2026-05-01T17:20:33Z</time></trkpt><trkpt lat="43.635019108732514" lon="11.109255251027475"><ele>148.0</ele><time>2026-05-01T17:20:34Z</time></trkpt><trkpt lat="43.63514573471172" lon="11.109060697268228"><ele>148.0</ele><time>2026-05-01T17:20:35Z</time></trkpt><trkpt lat="43.635283857974535" lon="11.108881953355617"><ele>148.33333333333334</ele><time>2026-05-01T17:20:36Z</time></trkpt><trkpt lat="43.63542256757981" lon="11.108702592254184"><ele>148.66666666666666</ele><time>2026-05-01T17:20:37Z</time></trkpt><trkpt lat="43.63556328423616" lon="11.108524280613318"><ele>149.0</ele><time>2026-05-01T17:20:38Z</time></trkpt><trkpt lat="43.63570460698295" lon="11.108341112278097"><ele>147.0</ele><time>2026-05-01T17:20:39Z</time></trkpt><trkpt lat="43.63584611994786" lon="11.108155965825564"><ele>145.0</ele><time>2026-05-01T17:20:40Z</time></trkpt><trkpt lat="43.6359875967096" lon="11.107971054523663"><ele>143.0</ele><time>2026-05-01T17:20:41Z</time></trkpt><trkpt lat="43.63612820614648" lon="11.107788300400127"><ele>142.0</ele><time>2026-05-01T17:20:42Z</time></trkpt><trkpt lat="43.636269467825215" lon="11.107604013284478"><ele>141.0</ele><time>2026-05-01T17:20:43Z</time></trkpt><trkpt lat="43.636410533097084" lon="11.107421494274838"><ele>140.0</ele><time>2026-05-01T17:20:44Z</time></trkpt><trkpt lat="43.63655039773114" lon="11.107239812106812"><ele>140.0</ele><time>2026-05-01T17:20:45Z</time></trkpt><trkpt lat="43.63668926388056" lon="11.107057726712327"><ele>140.0</ele><time>2026-05-01T17:20:46Z</time></trkpt><trkpt lat="43.63682810385332" lon="11.106876391916748"><ele>140.0</ele><time>2026-05-01T17:20:47Z</time></trkpt><trkpt lat="43.63696643454213" lon="11.106695913565362"><ele>139.66666666666666</ele><time>2026-05-01T17:20:48Z</time></trkpt><trkpt lat="43.63711589562203" lon="11.106533110997859"><ele>139.33333333333334</ele><time>2026-05-01T17:20:49Z</time></trkpt><trkpt lat="43.637254370051416" lon="11.106353201852103"><ele>139.0</ele><time>2026-05-01T17:20:50Z</time></trkpt><trkpt lat="43.637381374501665" lon="11.106159344282336"><ele>139.0</ele><time>2026-05-01T17:20:51Z</time></trkpt><trkpt lat="43.63751769712885" lon="11.105980318469687"><ele>139.0</ele><time>2026-05-01T17:20:52Z</time></trkpt><trkpt lat="43.6376662373932" lon="11.105818094381206"><ele>139.0</ele><time>2026-05-01T17:20:53Z</time></trkpt><trkpt lat="43.63779431024561" lon="11.105621861885208"><ele>139.0</ele><time>2026-05-01T17:20:54Z</time></trkpt><trkpt lat="43.63793375395172" lon="11.105443597870215"><ele>139.0</ele><time>2026-05-01T17:20:55Z</time></trkpt><trkpt lat="43.638071169121574" lon="11.105262526879505"><ele>139.0</ele><time>2026-05-01T17:20:56Z</time></trkpt><trkpt lat="43.638210115846306" lon="11.105082508556869"><ele>138.33333333333334</ele><time>2026-05-01T17:20:57Z</time></trkpt><trkpt lat="43.638351489521234" lon="11.104905073430889"><ele>137.66666666666666</ele><time>2026-05-01T17:20:58Z</time></trkpt><trkpt lat="43.638491977753525" lon="11.10472168512701"><ele>137.0</ele><time>2026-05-01T17:20:59Z</time></trkpt><trkpt lat="43.63863188221828" lon="11.104539067307385"><ele>137.0</ele><time>2026-05-01T17:21:00Z</time></trkpt><trkpt lat="43.63877338187409" lon="11.104356103191476"><ele>137.0</ele><time>2026-05-01T17:21:01Z</time></trkpt><trkpt lat="43.63891661131833" lon="11.104175973335918"><ele>137.0</ele><time>2026-05-01T17:21:02Z</time></trkpt><trkpt lat="43.63905509722829" lon="11.103992675831911"><ele>136.0</ele><time>2026-05-01T17:21:03Z</time></trkpt><trkpt lat="43.63919387774275" lon="11.103812149903836"><ele>135.0</ele><time>2026-05-01T17:21:04Z</time></trkpt><trkpt lat="43.639331949063575" lon="11.103634580457076"><ele>134.0</ele><time>2026-05-01T17:21:05Z</time></trkpt><trkpt lat="43.63946923576759" lon="11.10345499041514"><ele>134.0</ele><time>2026-05-01T17:21:06Z</time></trkpt><trkpt lat="43.63960461885088" lon="11.103275868792242"><ele>134.0</ele><time>2026-05-01T17:21:07Z</time></trkpt><trkpt lat="43.63973761711442" lon="11.103100512786677"><ele>134.0</ele><time>2026-05-01T17:21:08Z</time></trkpt><trkpt lat="43.63987078879555" lon="11.102927005681122"><ele>134.0</ele><time>2026-05-01T17:21:09Z</time></trkpt><trkpt lat="43.64001578312717" lon="11.102773068987652"><ele>134.0</ele><time>2026-05-01T17:21:10Z</time></trkpt><trkpt lat="43.64014838330552" lon="11.102603920856916"><ele>134.0</ele><time>2026-05-01T17:21:11Z</time></trkpt><trkpt lat="43.640279630936746" lon="11.102436498067512"><ele>133.33333333333331</ele><time>2026-05-01T17:21:12Z</time></trkpt><trkpt lat="43.64039837028738" lon="11.102256090571741"><ele>132.66666666666666</ele><time>2026-05-01T17:21:13Z</time></trkpt><trkpt lat="43.64052834123776" lon="11.102095706692529"><ele>132.0</ele><time>2026-05-01T17:21:14Z</time></trkpt><trkpt lat="43.64067193658579" lon="11.10195492391959"><ele>132.0</ele><time>2026-05-01T17:21:15Z</time></trkpt><trkpt lat="43.64080960364792" lon="11.101806063496518"><ele>132.0</ele><time>2026-05-01T17:21:16Z</time></trkpt><trkpt lat="43.64095029832703" lon="11.101667047691748"><ele>132.0</ele><time>2026-05-01T17:21:17Z</time></trkpt><trkpt lat="43.641097833644444" lon="11.10153286269627"><ele>131.66666666666666</ele><time>2026-05-01T17:21:18Z</time></trkpt><trkpt lat="43.641249398690604" lon="11.101409594949153"><ele>131.33333333333331</ele><time>2026-05-01T17:21:19Z</time></trkpt><trkpt lat="43.641406079108904" lon="11.101295562410463"><ele>131.0</ele><time>2026-05-01T17:21:20Z</time></trkpt><trkpt lat="43.641564432237814" lon="11.10118435086841"><ele>131.0</ele><time>2026-05-01T17:21:21Z</time></trkpt><trkpt lat="43.64172263159933" lon="11.101081313301574"><ele>131.0</ele><time>2026-05-01T17:21:22Z</time></trkpt><trkpt lat="43.64188125599116" lon="11.100979119079987"><ele>131.0</ele><time>2026-05-01T17:21:23Z</time></trkpt><trkpt lat="43.64204186293792" lon="11.100881421253417"><ele>131.0</ele><time>2026-05-01T17:21:24Z</time></trkpt><trkpt lat="43.642203576812975" lon="11.10078344572605"><ele>131.0</ele><time>2026-05-01T17:21:25Z</time></trkpt><trkpt lat="43.64236407388543" lon="11.100682685650453"><ele>131.0</ele><time>2026-05-01T17:21:26Z</time></trkpt><trkpt lat="43.642525086227835" lon="11.100581870172215"><ele>131.0</ele><time>2026-05-01T17:21:27Z</time></trkpt><trkpt lat="43.642683509091675" lon="11.10048267606648"><ele>131.0</ele><time>2026-05-01T17:21:28Z</time></trkpt><trkpt lat="43.64283488998919" lon="11.100363520800602"><ele>131.0</ele><time>2026-05-01T17:21:29Z</time></trkpt><trkpt lat="43.642992675223034" lon="11.100266809246255"><ele>131.0</ele><time>2026-05-01T17:21:30Z</time></trkpt><trkpt lat="43.643145698218795" lon="11.10017096188401"><ele>131.0</ele><time>2026-05-01T17:21:31Z</time></trkpt><trkpt lat="43.643300180941175" lon="11.100071413013005"><ele>131.0</ele><time>2026-05-01T17:21:32Z</time></trkpt><trkpt lat="43.64346140894978" lon="11.099995605711742"><ele>130.66666666666666</ele><time>2026-05-01T17:21:33Z</time></trkpt><trkpt lat="43.64361565182253" lon="11.099899028844566"><ele>130.33333333333334</ele><time>2026-05-01T17:21:34Z</time></trkpt><trkpt lat="43.64377202419419" lon="11.099801118625699"><ele>130.0</ele><time>2026-05-01T17:21:35Z</time></trkpt><trkpt lat="43.643924318239094" lon="11.099681467253973"><ele>129.66666666666669</ele><time>2026-05-01T17:21:36Z</time></trkpt><trkpt lat="43.644087622855" lon="11.0995824001666"><ele>129.33333333333334</ele><time>2026-05-01T17:21:37Z</time></trkpt><trkpt lat="43.64425036261336" lon="11.09947960555522"><ele>129.0</ele><time>2026-05-01T17:21:38Z</time></trkpt><trkpt lat="43.64441477892198" lon="11.099375494424894"><ele>128.33333333333334</ele><time>2026-05-01T17:21:39Z</time></trkpt><trkpt lat="43.644580688575054" lon="11.099271826043154"><ele>127.66666666666667</ele><time>2026-05-01T17:21:40Z</time></trkpt><trkpt lat="43.644748346352145" lon="11.099168764484311"><ele>127.0</ele><time>2026-05-01T17:21:41Z</time></trkpt><trkpt lat="43.64491353009407" lon="11.099068879562978"><ele>127.0</ele><time>2026-05-01T17:21:42Z</time></trkpt><trkpt lat="43.64507562890999" lon="11.098966003091162"><ele>127.0</ele><time>2026-05-01T17:21:43Z</time></trkpt><trkpt lat="43.64523707097587" lon="11.098861166793062"><ele>127.0</ele><time>2026-05-01T17:21:44Z</time></trkpt><trkpt lat="43.645402217487586" lon="11.09876143087553"><ele>127.0</ele><time>2026-05-01T17:21:45Z</time></trkpt><trkpt lat="43.64556201976713" lon="11.098660869844045"><ele>127.0</ele><time>2026-05-01T17:21:46Z</time></trkpt><trkpt lat="43.64571982247916" lon="11.098555707889062"><ele>127.0</ele><time>2026-05-01T17:21:47Z</time></trkpt><trkpt lat="43.645883110342176" lon="11.098470468278173"><ele>127.0</ele><time>2026-05-01T17:21:48Z</time></trkpt><trkpt lat="43.64603265022375" lon="11.098349567378444"><ele>127.0</ele><time>2026-05-01T17:21:49Z</time></trkpt><trkpt lat="43.646168799551525" lon="11.09820181048218"><ele>127.0</ele><time>2026-05-01T17:21:50Z</time></trkpt><trkpt lat="43.64631042294184" lon="11.098051181129765"><ele>126.66666666666667</ele><time>2026-05-01T17:21:51Z</time></trkpt><trkpt lat="43.64643517314285" lon="11.09789362793045"><ele>126.33333333333334</ele><time>2026-05-01T17:21:52Z</time></trkpt><trkpt lat="43.646565088731144" lon="11.09774263627029"><ele>126.0</ele><time>2026-05-01T17:21:53Z</time></trkpt><trkpt lat="43.646683291003136" lon="11.097565413808312"><ele>126.0</ele><time>2026-05-01T17:21:54Z</time></trkpt><trkpt lat="43.64679157973103" lon="11.097367945003475"><ele>126.0</ele><time>2026-05-01T17:21:55Z</time></trkpt><trkpt lat="43.64688425371291" lon="11.097153064593199"><ele>126.0</ele><time>2026-05-01T17:21:56Z</time></trkpt><trkpt lat="43.64698766785749" lon="11.096945452693449"><ele>126.0</ele><time>2026-05-01T17:21:57Z</time></trkpt><trkpt lat="43.647104521578356" lon="11.09674649675388"><ele>126.0</ele><time>2026-05-01T17:21:58Z</time></trkpt><trkpt lat="43.64719520996704" lon="11.096526597670332"><ele>126.0</ele><time>2026-05-01T17:21:59Z</time></trkpt><trkpt lat="43.64729752702759" lon="11.09633071178599"><ele>124.33333333333334</ele><time>2026-05-01T17:22:00Z</time></trkpt><trkpt lat="43.64741438700997" lon="11.096154346549058"><ele>122.66666666666667</ele><time>2026-05-01T17:22:01Z</time></trkpt><trkpt lat="43.64752189254901" lon="11.095967949372955"><ele>121.0</ele><time>2026-05-01T17:22:02Z</time></trkpt><trkpt lat="43.647620339719616" lon="11.095769547088327"><ele>120.66666666666667</ele><time>2026-05-01T17:22:03Z</time></trkpt><trkpt lat="43.64774128292963" lon="11.095595473881179"><ele>120.33333333333334</ele><time>2026-05-01T17:22:04Z</time></trkpt><trkpt lat="43.647870617241466" lon="11.095433924151486"><ele>120.0</ele><time>2026-05-01T17:22:05Z</time></trkpt><trkpt lat="43.64801857857682" lon="11.095302605184315"><ele>120.0</ele><time>2026-05-01T17:22:06Z</time></trkpt><trkpt lat="43.648161120791066" lon="11.095162865788707"><ele>120.0</ele><time>2026-05-01T17:22:07Z</time></trkpt><trkpt lat="43.64831333988914" lon="11.095035776794"><ele>120.0</ele><time>2026-05-01T17:22:08Z</time></trkpt><trkpt lat="43.64847002025087" lon="11.09491722829643"><ele>119.66666666666666</ele><time>2026-05-01T17:22:09Z</time></trkpt><trkpt lat="43.648629310323905" lon="11.094802508687193"><ele>119.33333333333333</ele><time>2026-05-01T17:22:10Z</time></trkpt><trkpt lat="43.64879095430589" lon="11.094690567078668"><ele>119.0</ele><time>2026-05-01T17:22:11Z</time></trkpt><trkpt lat="43.64895239223216" lon="11.09457876819309"><ele>119.0</ele><time>2026-05-01T17:22:12Z</time></trkpt><trkpt lat="43.64910199468228" lon="11.094473530435428"><ele>119.0</ele><time>2026-05-01T17:22:13Z</time></trkpt><trkpt lat="43.649245384406626" lon="11.09437139961958"><ele>119.0</ele><time>2026-05-01T17:22:14Z</time></trkpt><trkpt lat="43.649384777039906" lon="11.09427211577091"><ele>119.25</ele><time>2026-05-01T17:22:15Z</time></trkpt><trkpt lat="43.64951666456451" lon="11.094178177492466"><ele>119.5</ele><time>2026-05-01T17:22:16Z</time></trkpt><trkpt lat="43.64963492595504" lon="11.094096010072583"><ele>119.75</ele><time>2026-05-01T17:22:17Z</time></trkpt><trkpt lat="43.64973856778491" lon="11.094024052333266"><ele>120.0</ele><time>2026-05-01T17:22:18Z</time></trkpt><trkpt lat="43.64983361682164" lon="11.093958060523795"><ele>119.2</ele><time>2026-05-01T17:22:19Z</time></trkpt><trkpt lat="43.64992240002626" lon="11.093896419009072"><ele>118.4</ele><time>2026-05-01T17:22:20Z</time></trkpt><trkpt lat="43.6499998421651" lon="11.093842651521236"><ele>117.6</ele><time>2026-05-01T17:22:21Z</time></trkpt><trkpt lat="43.65005640198329" lon="11.093803382477596"><ele>116.8</ele><time>2026-05-01T17:22:22Z</time></trkpt><trkpt lat="43.65012559447806" lon="11.09375534265365"><ele>116.0</ele><time>2026-05-01T17:22:24Z</time></trkpt><trkpt lat="43.650076427810745" lon="11.093505069586469"><ele>116.0</ele><time>2026-05-01T17:22:26Z</time></trkpt><trkpt lat="43.65003214428168" lon="11.093412122053902"><ele>116.0</ele><time>2026-05-01T17:22:27Z</time></trkpt><trkpt lat="43.649972352262076" lon="11.093307748703575"><ele>116.0</ele><time>2026-05-01T17:22:28Z</time></trkpt><trkpt lat="43.64991205191121" lon="11.093197141589062"><ele>116.0</ele><time>2026-05-01T17:22:29Z</time></trkpt><trkpt lat="43.64984396318171" lon="11.093076699274109"><ele>116.0</ele><time>2026-05-01T17:22:30Z</time></trkpt><trkpt lat="43.64976941698316" lon="11.09294867567705"><ele>116.0</ele><time>2026-05-01T17:22:31Z</time></trkpt><trkpt lat="43.649693005466006" lon="11.092810210652171"><ele>116.0</ele><time>2026-05-01T17:22:32Z</time></trkpt><trkpt lat="43.64962103046042" lon="11.092677515357195"><ele>116.0</ele><time>2026-05-01T17:22:33Z</time></trkpt><trkpt lat="43.64954378599658" lon="11.092547861884123"><ele>116.0</ele><time>2026-05-01T17:22:34Z</time></trkpt><trkpt lat="43.64947253724928" lon="11.09241858139648"><ele>116.4</ele><time>2026-05-01T17:22:35Z</time></trkpt><trkpt lat="43.64940532602705" lon="11.092293004092957"><ele>116.8</ele><time>2026-05-01T17:22:36Z</time></trkpt><trkpt lat="43.64934426945768" lon="11.092183232315316"><ele>117.20000000000002</ele><time>2026-05-01T17:22:37Z</time></trkpt><trkpt lat="43.64928716372923" lon="11.092076913421309"><ele>117.60000000000001</ele><time>2026-05-01T17:22:38Z</time></trkpt><trkpt lat="43.6492379570937" lon="11.091979476619308"><ele>118.0</ele><time>2026-05-01T17:22:39Z</time></trkpt><trkpt lat="43.649200450290735" lon="11.091878597493006"><ele>118.00000000000001</ele><time>2026-05-01T17:22:40Z</time></trkpt><trkpt lat="43.64917275956632" lon="11.091769638865426"><ele>118.0</ele><time>2026-05-01T17:22:41Z</time></trkpt><trkpt lat="43.64917149050628" lon="11.091642432659754"><ele>118.0</ele><time>2026-05-01T17:22:42Z</time></trkpt><trkpt lat="43.64920819984319" lon="11.09153300716168"><ele>118.0</ele><time>2026-05-01T17:22:43Z</time></trkpt><trkpt lat="43.64925268134513" lon="11.091427488110977"><ele>118.00000000000001</ele><time>2026-05-01T17:22:44Z</time></trkpt><trkpt lat="43.649300597208224" lon="11.091312328547438"><ele>118.0</ele><time>2026-05-01T17:22:45Z</time></trkpt><trkpt lat="43.64935409857444" lon="11.091191024023168"><ele>118.4</ele><time>2026-05-01T17:22:46Z</time></trkpt><trkpt lat="43.64940986300152" lon="11.091068295360992"><ele>118.80000000000001</ele><time>2026-05-01T17:22:47Z</time></trkpt><trkpt lat="43.64946234365805" lon="11.090937839737306"><ele>119.2</ele><time>2026-05-01T17:22:48Z</time></trkpt><trkpt lat="43.64951640299669" lon="11.090829934541906"><ele>119.6</ele><time>2026-05-01T17:22:49Z</time></trkpt><trkpt lat="43.64957118562633" lon="11.090720409087757"><ele>120.0</ele><time>2026-05-01T17:22:50Z</time></trkpt><trkpt lat="43.64963955715254" lon="11.090618524419712"><ele>122.5</ele><time>2026-05-01T17:22:51Z</time></trkpt><trkpt lat="43.649744457082015" lon="11.090546390060297"><ele>125.0</ele><time>2026-05-01T17:22:52Z</time></trkpt><trkpt lat="43.64984052297553" lon="11.090460201137775"><ele>127.5</ele><time>2026-05-01T17:22:53Z</time></trkpt><trkpt lat="43.64993145555487" lon="11.090374296220947"><ele>130.0</ele><time>2026-05-01T17:22:54Z</time></trkpt><trkpt lat="43.65001455435524" lon="11.090261250310753"><ele>130.0</ele><time>2026-05-01T17:22:55Z</time></trkpt><trkpt lat="43.65011334690566" lon="11.09017551318044"><ele>130.0</ele><time>2026-05-01T17:22:56Z</time></trkpt><trkpt lat="43.650199734083905" lon="11.090081349226477"><ele>130.0</ele><time>2026-05-01T17:22:57Z</time></trkpt><trkpt lat="43.65028096141869" lon="11.089974400403166"><ele>130.0</ele><time>2026-05-01T17:22:58Z</time></trkpt><trkpt lat="43.65036528594107" lon="11.089857295430559"><ele>130.0</ele><time>2026-05-01T17:22:59Z</time></trkpt><trkpt lat="43.650438894369145" lon="11.089723096187642"><ele>130.0</ele><time>2026-05-01T17:23:00Z</time></trkpt><trkpt lat="43.65050490264867" lon="11.089585436869896"><ele>130.0</ele><time>2026-05-01T17:23:01Z</time></trkpt><trkpt lat="43.65056955991499" lon="11.089448766059258"><ele>130.0</ele><time>2026-05-01T17:23:02Z</time></trkpt><trkpt lat="43.65063119997249" lon="11.089311144261517"><ele>130.0</ele><time>2026-05-01T17:23:03Z</time></trkpt><trkpt lat="43.650691237029314" lon="11.08918399019374"><ele>130.0</ele><time>2026-05-01T17:23:04Z</time></trkpt><trkpt lat="43.65076295737078" lon="11.089077971928951"><ele>130.0</ele><time>2026-05-01T17:23:05Z</time></trkpt><trkpt lat="43.650858737839215" lon="11.089001756787907"><ele>130.0</ele><time>2026-05-01T17:23:06Z</time></trkpt><trkpt lat="43.65096412934494" lon="11.088946813806553"><ele>130.0</ele><time>2026-05-01T17:23:07Z</time></trkpt><trkpt lat="43.651061205053566" lon="11.088877993592504"><ele>131.0</ele><time>2026-05-01T17:23:08Z</time></trkpt><trkpt lat="43.651139603834224" lon="11.088773110179707"><ele>132.0</ele><time>2026-05-01T17:23:09Z</time></trkpt><trkpt lat="43.65121395988797" lon="11.08864979169768"><ele>133.0</ele><time>2026-05-01T17:23:10Z</time></trkpt><trkpt lat="43.651279534183224" lon="11.088521817013985"><ele>134.0</ele><time>2026-05-01T17:23:11Z</time></trkpt><trkpt lat="43.65134185537525" lon="11.088387440757364"><ele>134.0</ele><time>2026-05-01T17:23:12Z</time></trkpt><trkpt lat="43.65140518618518" lon="11.08826265970306"><ele>134.0</ele><time>2026-05-01T17:23:13Z</time></trkpt><trkpt lat="43.65145441013618" lon="11.088149344896875"><ele>134.0</ele><time>2026-05-01T17:23:14Z</time></trkpt><trkpt lat="43.651507972417775" lon="11.088040747390965"><ele>134.0</ele><time>2026-05-01T17:23:15Z</time></trkpt><trkpt lat="43.65156727749688" lon="11.08794203971819"><ele>134.0</ele><time>2026-05-01T17:23:16Z</time></trkpt><trkpt lat="43.65162953597181" lon="11.087864896135919"><ele>136.33333333333331</ele><time>2026-05-01T17:23:17Z</time></trkpt><trkpt lat="43.65168262912935" lon="11.087810089572736"><ele>138.66666666666666</ele><time>2026-05-01T17:23:18Z</time></trkpt><trkpt lat="43.65174554331708" lon="11.087747662271669"><ele>141.0</ele><time>2026-05-01T17:23:20Z</time></trkpt><trkpt lat="43.65184023933385" lon="11.087719318593065"><ele>143.33333333333334</ele><time>2026-05-01T17:23:33Z</time></trkpt><trkpt lat="43.651865061465216" lon="11.087609076792114"><ele>145.66666666666669</ele><time>2026-05-01T17:23:34Z</time></trkpt><trkpt lat="43.651898435362654" lon="11.08752975309389"><ele>148.0</ele><time>2026-05-01T17:23:35Z</time></trkpt><trkpt lat="43.651944276426626" lon="11.087445120177575"><ele>148.0</ele><time>2026-05-01T17:23:36Z</time></trkpt><trkpt lat="43.652015275787406" lon="11.087373628123618"><ele>148.0</ele><time>2026-05-01T17:23:37Z</time></trkpt><trkpt lat="43.65209573672303" lon="11.087316674860878"><ele>148.0</ele><time>2026-05-01T17:23:38Z</time></trkpt><trkpt lat="43.652179213368306" lon="11.087271032834828"><ele>148.0</ele><time>2026-05-01T17:23:39Z</time></trkpt><trkpt lat="43.65226043457129" lon="11.087219770518212"><ele>148.0</ele><time>2026-05-01T17:23:40Z</time></trkpt><trkpt lat="43.65233364511146" lon="11.087143200476358"><ele>148.0</ele><time>2026-05-01T17:23:41Z</time></trkpt><trkpt lat="43.65239586661011" lon="11.08704613080714"><ele>148.0</ele><time>2026-05-01T17:23:42Z</time></trkpt><trkpt lat="43.65244257849415" lon="11.086922959846415"><ele>148.0</ele><time>2026-05-01T17:23:43Z</time></trkpt><trkpt lat="43.65247624591679" lon="11.086786663042332"><ele>148.0</ele><time>2026-05-01T17:23:44Z</time></trkpt><trkpt lat="43.65249604962852" lon="11.086643027336457"><ele>148.0</ele><time>2026-05-01T17:23:45Z</time></trkpt><trkpt lat="43.65251011630713" lon="11.08650091198182"><ele>148.0</ele><time>2026-05-01T17:23:46Z</time></trkpt><trkpt lat="43.652523698748475" lon="11.086365694043886"><ele>148.16666666666669</ele><time>2026-05-01T17:23:47Z</time></trkpt><trkpt lat="43.65253547568055" lon="11.086244525144158"><ele>148.33333333333334</ele><time>2026-05-01T17:23:48Z</time></trkpt><trkpt lat="43.65255386513563" lon="11.086127118854943"><ele>148.5</ele><time>2026-05-01T17:23:49Z</time></trkpt><trkpt lat="43.65259937144518" lon="11.08602378415114"><ele>148.66666666666666</ele><time>2026-05-01T17:23:50Z</time></trkpt><trkpt lat="43.65266215366031" lon="11.08593803945859"><ele>148.83333333333331</ele><time>2026-05-01T17:23:51Z</time></trkpt><trkpt lat="43.65274060610051" lon="11.085868894109636"><ele>149.0</ele><time>2026-05-01T17:23:52Z</time></trkpt><trkpt lat="43.652830463395546" lon="11.08580785848397"><ele>150.0</ele><time>2026-05-01T17:23:53Z</time></trkpt><trkpt lat="43.65292191013431" lon="11.085744786796445"><ele>151.0</ele><time>2026-05-01T17:23:54Z</time></trkpt><trkpt lat="43.65301441550415" lon="11.085678322597694"><ele>152.0</ele><time>2026-05-01T17:23:55Z</time></trkpt><trkpt lat="43.65311166054759" lon="11.08561286121185"><ele>153.0</ele><time>2026-05-01T17:23:56Z</time></trkpt><trkpt lat="43.65320488450305" lon="11.08554415680247"><ele>154.0</ele><time>2026-05-01T17:23:57Z</time></trkpt><trkpt lat="43.653286729621" lon="11.085477409549789"><ele>154.0</ele><time>2026-05-01T17:23:58Z</time></trkpt><trkpt lat="43.653352874920245" lon="11.085388194840872"><ele>154.0</ele><time>2026-05-01T17:23:59Z</time></trkpt><trkpt lat="43.653416060410265" lon="11.0852917476899"><ele>154.0</ele><time>2026-05-01T17:24:00Z</time></trkpt><trkpt lat="43.65341877640655" lon="11.08515174663935"><ele>154.0</ele><time>2026-05-01T17:24:01Z</time></trkpt><trkpt lat="43.65342093586925" lon="11.085023088727397"><ele>154.0</ele><time>2026-05-01T17:24:02Z</time></trkpt><trkpt lat="43.653397433989944" lon="11.084885966810553"><ele>153.2</ele><time>2026-05-01T17:24:03Z</time></trkpt><trkpt lat="43.65334920638185" lon="11.084763866932482"><ele>152.4</ele><time>2026-05-01T17:24:04Z</time></trkpt><trkpt lat="43.65328083399057" lon="11.084657053818441"><ele>151.6</ele><time>2026-05-01T17:24:05Z</time></trkpt><trkpt lat="43.65319636113651" lon="11.08458014756846"><ele>150.8</ele><time>2026-05-01T17:24:06Z</time></trkpt><trkpt lat="43.653097258361385" lon="11.084533397141813"><ele>150.0</ele><time>2026-05-01T17:24:07Z</time></trkpt><trkpt lat="43.652989967449976" lon="11.084525885551951"><ele>150.0</ele><time>2026-05-01T17:24:08Z</time></trkpt><trkpt lat="43.652879249255236" lon="11.084551909322833"><ele>150.0</ele><time>2026-05-01T17:24:09Z</time></trkpt><trkpt lat="43.65276631065911" lon="11.084603698328205"><ele>150.0</ele><time>2026-05-01T17:24:10Z</time></trkpt><trkpt lat="43.652651695415194" lon="11.08466741745741"><ele>150.0</ele><time>2026-05-01T17:24:11Z</time></trkpt><trkpt lat="43.6525362785565" lon="11.084723204429194"><ele>152.0</ele><time>2026-05-01T17:24:12Z</time></trkpt><trkpt lat="43.652419151004935" lon="11.084782343350252"><ele>154.0</ele><time>2026-05-01T17:24:13Z</time></trkpt><trkpt lat="43.65230438450297" lon="11.084839289318479"><ele>156.0</ele><time>2026-05-01T17:24:14Z</time></trkpt><trkpt lat="43.65219078755248" lon="11.084894032701406"><ele>158.0</ele><time>2026-05-01T17:24:15Z</time></trkpt><trkpt lat="43.65208031546505" lon="11.084955366292576"><ele>158.75</ele><time>2026-05-01T17:24:16Z</time></trkpt><trkpt lat="43.65197457967169" lon="11.085036203316795"><ele>159.5</ele><time>2026-05-01T17:24:17Z</time></trkpt><trkpt lat="43.65188035070531" lon="11.085144453299456"><ele>160.25</ele><time>2026-05-01T17:24:18Z</time></trkpt><trkpt lat="43.651804696851464" lon="11.08525365936281"><ele>161.0</ele><time>2026-05-01T17:24:19Z</time></trkpt><trkpt lat="43.65173646677723" lon="11.085354621919716"><ele>163.0</ele><time>2026-05-01T17:24:20Z</time></trkpt><trkpt lat="43.65166254422099" lon="11.085458113626922"><ele>165.0</ele><time>2026-05-01T17:24:21Z</time></trkpt><trkpt lat="43.65159023975208" lon="11.085551018853906"><ele>167.0</ele><time>2026-05-01T17:24:22Z</time></trkpt><trkpt lat="43.65153011039612" lon="11.08561458913468"><ele>169.0</ele><time>2026-05-01T17:24:23Z</time></trkpt><trkpt lat="43.651420518845434" lon="11.0856621216006"><ele>171.0</ele><time>2026-05-01T17:24:25Z</time></trkpt><trkpt lat="43.65136072563189" lon="11.08562538869849"><ele>171.0</ele><time>2026-05-01T17:24:26Z</time></trkpt><trkpt lat="43.651316266732096" lon="11.085546955589152"><ele>171.0</ele><time>2026-05-01T17:24:27Z</time></trkpt><trkpt lat="43.65130641828131" lon="11.08543865714517"><ele>171.0</ele><time>2026-05-01T17:24:28Z</time></trkpt><trkpt lat="43.65132345597724" lon="11.085328416315146"><ele>171.0</ele><time>2026-05-01T17:24:29Z</time></trkpt><trkpt lat="43.6513474363949" lon="11.085214133753697"><ele>171.0</ele><time>2026-05-01T17:24:30Z</time></trkpt><trkpt lat="43.65135232526065" lon="11.085107868273141"><ele>171.0</ele><time>2026-05-01T17:24:31Z</time></trkpt><trkpt lat="43.65133452768309" lon="11.084996336004998"><ele>170.60000000000002</ele><time>2026-05-01T17:24:32Z</time></trkpt><trkpt lat="43.65129208602667" lon="11.084894465764332"><ele>170.2</ele><time>2026-05-01T17:24:33Z</time></trkpt><trkpt lat="43.65122652189494" lon="11.084809336629833"><ele>169.8</ele><time>2026-05-01T17:24:34Z</time></trkpt><trkpt lat="43.6511381935597" lon="11.084749939700869"><ele>169.39999999999998</ele><time>2026-05-01T17:24:35Z</time></trkpt><trkpt lat="43.6510370494093" lon="11.08470882925335"><ele>169.0</ele><time>2026-05-01T17:24:36Z</time></trkpt><trkpt lat="43.650926288318175" lon="11.084685609250766"><ele>172.0</ele><time>2026-05-01T17:24:37Z</time></trkpt><trkpt lat="43.650813456831806" lon="11.084671818520265"><ele>175.0</ele><time>2026-05-01T17:24:38Z</time></trkpt><trkpt lat="43.650699610395826" lon="11.084666389542578"><ele>178.0</ele><time>2026-05-01T17:24:39Z</time></trkpt><trkpt lat="43.65058833024729" lon="11.084660114485423"><ele>181.0</ele><time>2026-05-01T17:24:40Z</time></trkpt><trkpt lat="43.650476799948365" lon="11.08465852290269"><ele>181.0</ele><time>2026-05-01T17:24:41Z</time></trkpt><trkpt lat="43.65036529293371" lon="11.084661002652975"><ele>181.0</ele><time>2026-05-01T17:24:42Z</time></trkpt><trkpt lat="43.65025573271737" lon="11.084661942849756"><ele>181.0</ele><time>2026-05-01T17:24:43Z</time></trkpt><trkpt lat="43.65014218641913" lon="11.084658697075607"><ele>181.0</ele><time>2026-05-01T17:24:44Z</time></trkpt><trkpt lat="43.650029098102245" lon="11.08467003606004"><ele>181.0</ele><time>2026-05-01T17:24:45Z</time></trkpt><trkpt lat="43.64991668381795" lon="11.084694273735908"><ele>182.60000000000002</ele><time>2026-05-01T17:24:46Z</time></trkpt><trkpt lat="43.649806147219174" lon="11.08472702179777"><ele>184.2</ele><time>2026-05-01T17:24:47Z</time></trkpt><trkpt lat="43.64969496595338" lon="11.08476969082435"><ele>185.8</ele><time>2026-05-01T17:24:48Z</time></trkpt><trkpt lat="43.649593717748985" lon="11.084823379338095"><ele>187.39999999999998</ele><time>2026-05-01T17:24:49Z</time></trkpt><trkpt lat="43.64950307120838" lon="11.084890084992708"><ele>189.0</ele><time>2026-05-01T17:24:50Z</time></trkpt><trkpt lat="43.64941957904518" lon="11.084984100954879"><ele>191.6</ele><time>2026-05-01T17:24:51Z</time></trkpt><trkpt lat="43.64935328004497" lon="11.08510765832043"><ele>194.2</ele><time>2026-05-01T17:24:52Z</time></trkpt><trkpt lat="43.64930573354088" lon="11.085247816673988"><ele>196.79999999999998</ele><time>2026-05-01T17:24:53Z</time></trkpt><trkpt lat="43.64926877459545" lon="11.085402657506721"><ele>199.39999999999998</ele><time>2026-05-01T17:24:54Z</time></trkpt><trkpt lat="43.64922886991813" lon="11.085532848587054"><ele>202.0</ele><time>2026-05-01T17:24:55Z</time></trkpt><trkpt lat="43.64918637367413" lon="11.085643246122656"><ele>202.0</ele><time>2026-05-01T17:24:56Z</time></trkpt><trkpt lat="43.649137563173134" lon="11.085727514008692"><ele>202.0</ele><time>2026-05-01T17:24:57Z</time></trkpt><trkpt lat="43.649031386693714" lon="11.085790424529767"><ele>202.0</ele><time>2026-05-01T17:24:58Z</time></trkpt><trkpt lat="43.64894033727199" lon="11.085813117026579"><ele>202.0</ele><time>2026-05-01T17:24:59Z</time></trkpt><trkpt lat="43.648844097964755" lon="11.085800585367853"><ele>202.0</ele><time>2026-05-01T17:25:00Z</time></trkpt><trkpt lat="43.64874088670864" lon="11.085755630654774"><ele>202.0</ele><time>2026-05-01T17:25:01Z</time></trkpt><trkpt lat="43.64863954594097" lon="11.085684834847891"><ele>202.0</ele><time>2026-05-01T17:25:02Z</time></trkpt><trkpt lat="43.64854939097573" lon="11.0855878787371"><ele>202.0</ele><time>2026-05-01T17:25:03Z</time></trkpt><trkpt lat="43.648473298740946" lon="11.085463656845878"><ele>202.0</ele><time>2026-05-01T17:25:04Z</time></trkpt><trkpt lat="43.64840821721803" lon="11.085312363464165"><ele>202.25</ele><time>2026-05-01T17:25:05Z</time></trkpt><trkpt lat="43.64835220775985" lon="11.085153295592942"><ele>202.5</ele><time>2026-05-01T17:25:06Z</time></trkpt><trkpt lat="43.648303375127014" lon="11.084984711016055"><ele>202.75</ele><time>2026-05-01T17:25:07Z</time></trkpt><trkpt lat="43.6482510357924" lon="11.084818600307283"><ele>203.0</ele><time>2026-05-01T17:25:08Z</time></trkpt><trkpt lat="43.64819884714833" lon="11.084645556428974"><ele>203.0</ele><time>2026-05-01T17:25:09Z</time></trkpt><trkpt lat="43.64814672027297" lon="11.084475488229582"><ele>203.0</ele><time>2026-05-01T17:25:10Z</time></trkpt><trkpt lat="43.64809581986554" lon="11.084306268080933"><ele>203.0</ele><time>2026-05-01T17:25:11Z</time></trkpt><trkpt lat="43.64804093469299" lon="11.084130754740407"><ele>203.0</ele><time>2026-05-01T17:25:12Z</time></trkpt><trkpt lat="43.64798474317466" lon="11.083952291473276"><ele>201.75</ele><time>2026-05-01T17:25:13Z</time></trkpt><trkpt lat="43.647928870509695" lon="11.083773061340583"><ele>200.5</ele><time>2026-05-01T17:25:14Z</time></trkpt><trkpt lat="43.64787330644397" lon="11.083596640706013"><ele>199.25</ele><time>2026-05-01T17:25:15Z</time></trkpt><trkpt lat="43.64781822359097" lon="11.083422872598899"><ele>198.0</ele><time>2026-05-01T17:25:16Z</time></trkpt><trkpt lat="43.64776557546735" lon="11.083249626163301"><ele>201.25</ele><time>2026-05-01T17:25:17Z</time></trkpt><trkpt lat="43.64771312410637" lon="11.083076897549134"><ele>204.5</ele><time>2026-05-01T17:25:18Z</time></trkpt><trkpt lat="43.647666450777876" lon="11.08291629401928"><ele>207.75</ele><time>2026-05-01T17:25:19Z</time></trkpt><trkpt lat="43.64761992604619" lon="11.08275604495411"><ele>211.0</ele><time>2026-05-01T17:25:20Z</time></trkpt><trkpt lat="43.6475762683367" lon="11.082597919391429"><ele>211.0</ele><time>2026-05-01T17:25:21Z</time></trkpt><trkpt lat="43.64753670754764" lon="11.082439162111248"><ele>211.0</ele><time>2026-05-01T17:25:22Z</time></trkpt><trkpt lat="43.64750094673753" lon="11.082271994241841"><ele>211.0</ele><time>2026-05-01T17:25:23Z</time></trkpt><trkpt lat="43.647466899143716" lon="11.082101162390906"><ele>211.0</ele><time>2026-05-01T17:25:24Z</time></trkpt><trkpt lat="43.64743514450508" lon="11.081923924041478"><ele>211.5</ele><time>2026-05-01T17:25:25Z</time></trkpt><trkpt lat="43.64740294765579" lon="11.081741927056509"><ele>212.0</ele><time>2026-05-01T17:25:26Z</time></trkpt><trkpt lat="43.64735962954076" lon="11.081567570827323"><ele>212.5</ele><time>2026-05-01T17:25:27Z</time></trkpt><trkpt lat="43.64730107753226" lon="11.081398032846126"><ele>213.0</ele><time>2026-05-01T17:25:28Z</time></trkpt><trkpt lat="43.64723116380234" lon="11.08123255152233"><ele>212.75</ele><time>2026-05-01T17:25:29Z</time></trkpt><trkpt lat="43.647147009092286" lon="11.08107511995183"><ele>212.5</ele><time>2026-05-01T17:25:30Z</time></trkpt><trkpt lat="43.647057838880926" lon="11.080925113666352"><ele>212.25</ele><time>2026-05-01T17:25:31Z</time></trkpt><trkpt lat="43.64696463929954" lon="11.080782821725037"><ele>212.0</ele><time>2026-05-01T17:25:32Z</time></trkpt><trkpt lat="43.64686535645925" lon="11.080647979531175"><ele>212.0</ele><time>2026-05-01T17:25:33Z</time></trkpt><trkpt lat="43.646759419253826" lon="11.080519856721006"><ele>212.0</ele><time>2026-05-01T17:25:34Z</time></trkpt><trkpt lat="43.646651868946684" lon="11.080387114707992"><ele>212.0</ele><time>2026-05-01T17:25:35Z</time></trkpt><trkpt lat="43.6465500310765" lon="11.080248269179972"><ele>212.0</ele><time>2026-05-01T17:25:36Z</time></trkpt><trkpt lat="43.646453187158336" lon="11.080103765618267"><ele>212.0</ele><time>2026-05-01T17:25:37Z</time></trkpt><trkpt lat="43.646363699042084" lon="11.079947859743253"><ele>212.0</ele><time>2026-05-01T17:25:38Z</time></trkpt><trkpt lat="43.646285691646725" lon="11.079777851655544"><ele>212.0</ele><time>2026-05-01T17:25:39Z</time></trkpt><trkpt lat="43.64621833015301" lon="11.079600309427885"><ele>212.0</ele><time>2026-05-01T17:25:40Z</time></trkpt><trkpt lat="43.64616131795228" lon="11.079420407767893"><ele>215.25</ele><time>2026-05-01T17:25:41Z</time></trkpt><trkpt lat="43.64611401506875" lon="11.07923444741163"><ele>218.5</ele><time>2026-05-01T17:25:42Z</time></trkpt><trkpt lat="43.64607793482403" lon="11.079036998354102"><ele>221.75</ele><time>2026-05-01T17:25:43Z</time></trkpt><trkpt lat="43.64604746210989" lon="11.078848014823569"><ele>225.0</ele><time>2026-05-01T17:25:44Z</time></trkpt><trkpt lat="43.64601575064986" lon="11.0786652267483"><ele>225.25</ele><time>2026-05-01T17:25:45Z</time></trkpt><trkpt lat="43.64598611291983" lon="11.07848503405497"><ele>225.5</ele><time>2026-05-01T17:25:46Z</time></trkpt><trkpt lat="43.64595282492102" lon="11.078307042814819"><ele>225.75</ele><time>2026-05-01T17:25:47Z</time></trkpt><trkpt lat="43.64592353094538" lon="11.078128177107935"><ele>226.0</ele><time>2026-05-01T17:25:48Z</time></trkpt><trkpt lat="43.64589187318434" lon="11.077950562842434"><ele>226.0</ele><time>2026-05-01T17:25:49Z</time></trkpt><trkpt lat="43.64585208389117" lon="11.077773121774829"><ele>226.0</ele><time>2026-05-01T17:25:50Z</time></trkpt><trkpt lat="43.645806313983506" lon="11.077600881609733"><ele>226.0</ele><time>2026-05-01T17:25:51Z</time></trkpt><trkpt lat="43.645767572561844" lon="11.077437680386929"><ele>226.0</ele><time>2026-05-01T17:25:52Z</time></trkpt><trkpt lat="43.645727914754175" lon="11.077274785917668"><ele>226.5</ele><time>2026-05-01T17:25:53Z</time></trkpt><trkpt lat="43.645689377620556" lon="11.077110407685028"><ele>227.0</ele><time>2026-05-01T17:25:54Z</time></trkpt><trkpt lat="43.64565596679544" lon="11.07693964457732"><ele>227.5</ele><time>2026-05-01T17:25:55Z</time></trkpt><trkpt lat="43.64562039792585" lon="11.076778976629889"><ele>228.0</ele><time>2026-05-01T17:25:56Z</time></trkpt><trkpt lat="43.64558928036214" lon="11.076628149805387"><ele>227.8</ele><time>2026-05-01T17:25:57Z</time></trkpt><trkpt lat="43.64556207671036" lon="11.076483828786701"><ele>227.60000000000002</ele><time>2026-05-01T17:25:58Z</time></trkpt><trkpt lat="43.64553372546374" lon="11.076335473217265"><ele>227.39999999999998</ele><time>2026-05-01T17:25:59Z</time></trkpt><trkpt lat="43.645507137771155" lon="11.076184446345492"><ele>227.2</ele><time>2026-05-01T17:26:00Z</time></trkpt><trkpt lat="43.645479298996264" lon="11.076040551595606"><ele>227.0</ele><time>2026-05-01T17:26:01Z</time></trkpt><trkpt lat="43.64545878929363" lon="11.075912431941154"><ele>227.00000000000003</ele><time>2026-05-01T17:26:02Z</time></trkpt><trkpt lat="43.645439241130454" lon="11.075797847933739"><ele>227.0</ele><time>2026-05-01T17:26:03Z</time></trkpt><trkpt lat="43.64541526070131" lon="11.075685436404134"><ele>227.0</ele><time>2026-05-01T17:26:04Z</time></trkpt><trkpt lat="43.64539590483625" lon="11.07558321153287"><ele>227.0</ele><time>2026-05-01T17:26:05Z</time></trkpt><trkpt lat="43.645374637600995" lon="11.075472531996256"><ele>227.00000000000003</ele><time>2026-05-01T17:26:06Z</time></trkpt><trkpt lat="43.64535543356108" lon="11.075356184703699"><ele>227.0</ele><time>2026-05-01T17:26:07Z</time></trkpt><trkpt lat="43.645333368214494" lon="11.07523147099217"><ele>227.33333333333334</ele><time>2026-05-01T17:26:08Z</time></trkpt><trkpt lat="43.64531398415591" lon="11.075107451916724"><ele>227.66666666666669</ele><time>2026-05-01T17:26:09Z</time></trkpt><trkpt lat="43.6453017096619" lon="11.074996108205854"><ele>228.0</ele><time>2026-05-01T17:26:10Z</time></trkpt><trkpt lat="43.645293413244005" lon="11.074897816009862"><ele>228.33333333333331</ele><time>2026-05-01T17:26:11Z</time></trkpt><trkpt lat="43.645286020136496" lon="11.074809715555215"><ele>228.66666666666666</ele><time>2026-05-01T17:26:12Z</time></trkpt><trkpt lat="43.64526615931039" lon="11.074638963110685"><ele>229.0</ele><time>2026-05-01T17:26:14Z</time></trkpt><trkpt lat="43.64528551228836" lon="11.07448573465891"><ele>229.28571428571428</ele><time>2026-05-01T17:26:16Z</time></trkpt><trkpt lat="43.64534759019294" lon="11.074424246337296"><ele>229.57142857142858</ele><time>2026-05-01T17:26:17Z</time></trkpt><trkpt lat="43.64540281476319" lon="11.074351685320329"><ele>229.85714285714286</ele><time>2026-05-01T17:26:18Z</time></trkpt><trkpt lat="43.64544731232461" lon="11.074273970506443"><ele>230.14285714285714</ele><time>2026-05-01T17:26:19Z</time></trkpt><trkpt lat="43.64548710694414" lon="11.074196017594474"><ele>230.42857142857144</ele><time>2026-05-01T17:26:20Z</time></trkpt><trkpt lat="43.64552968466471" lon="11.07411453500721"><ele>230.71428571428572</ele><time>2026-05-01T17:26:21Z</time></trkpt><trkpt lat="43.64557044862101" lon="11.074045361294019"><ele>231.0</ele><time>2026-05-01T17:26:22Z</time></trkpt><trkpt lat="43.645641014781326" lon="11.073927054997268"><ele>231.0</ele><time>2026-05-01T17:26:24Z</time></trkpt><trkpt lat="43.645700724916296" lon="11.073827108843805"><ele>231.0</ele><time>2026-05-01T17:26:26Z</time></trkpt><trkpt lat="43.64574426500463" lon="11.0737497877718"><ele>231.0</ele><time>2026-05-01T17:26:28Z</time></trkpt><trkpt lat="43.64584603222867" lon="11.073677014348803"><ele>231.0</ele><time>2026-05-01T17:26:30Z</time></trkpt><trkpt lat="43.64591222761893" lon="11.073638100269852"><ele>231.0</ele><time>2026-05-01T17:26:31Z</time></trkpt><trkpt lat="43.64597152829949" lon="11.073593523100413"><ele>231.0</ele><time>2026-05-01T17:26:32Z</time></trkpt><trkpt lat="43.64608652734628" lon="11.073535102180415"><ele>230.4</ele><time>2026-05-01T17:26:34Z</time></trkpt><trkpt lat="43.64615410675341" lon="11.073471185541742"><ele>229.8</ele><time>2026-05-01T17:26:35Z</time></trkpt><trkpt lat="43.646227361408876" lon="11.073400225526694"><ele>229.20000000000002</ele><time>2026-05-01T17:26:36Z</time></trkpt><trkpt lat="43.646312887068845" lon="11.073315848259456"><ele>228.60000000000002</ele><time>2026-05-01T17:26:37Z</time></trkpt><trkpt lat="43.646398557893896" lon="11.07323132771591"><ele>228.0</ele><time>2026-05-01T17:26:38Z</time></trkpt><trkpt lat="43.64648470000526" lon="11.073133070093137"><ele>228.0</ele><time>2026-05-01T17:26:39Z</time></trkpt><trkpt lat="43.64657139090327" lon="11.073042668370155"><ele>228.0</ele><time>2026-05-01T17:26:40Z</time></trkpt><trkpt lat="43.64666442430825" lon="11.072958489310697"><ele>228.0</ele><time>2026-05-01T17:26:41Z</time></trkpt><trkpt lat="43.64675026728706" lon="11.07284636905054"><ele>228.0</ele><time>2026-05-01T17:26:42Z</time></trkpt><trkpt lat="43.64682437346458" lon="11.072743858856544"><ele>228.0</ele><time>2026-05-01T17:26:43Z</time></trkpt><trkpt lat="43.646894702116704" lon="11.072629371027467"><ele>227.60000000000002</ele><time>2026-05-01T17:26:44Z</time></trkpt><trkpt lat="43.64696375153589" lon="11.072531737108768"><ele>227.20000000000002</ele><time>2026-05-01T17:26:45Z</time></trkpt><trkpt lat="43.647026948321596" lon="11.072438330069367"><ele>226.8</ele><time>2026-05-01T17:26:46Z</time></trkpt><trkpt lat="43.647086806850254" lon="11.072351784075563"><ele>226.4</ele><time>2026-05-01T17:26:47Z</time></trkpt><trkpt lat="43.647145029799105" lon="11.07225735832833"><ele>226.0</ele><time>2026-05-01T17:26:48Z</time></trkpt><trkpt lat="43.647204879502276" lon="11.072166165084813"><ele>225.99999999999997</ele><time>2026-05-01T17:26:49Z</time></trkpt><trkpt lat="43.647271420483705" lon="11.072092667450976"><ele>226.0</ele><time>2026-05-01T17:26:50Z</time></trkpt><trkpt lat="43.64732511516709" lon="11.072009198781348"><ele>226.0</ele><time>2026-05-01T17:26:51Z</time></trkpt><trkpt lat="43.64738251316197" lon="11.071926878959605"><ele>226.0</ele><time>2026-05-01T17:26:52Z</time></trkpt><trkpt lat="43.6474374286339" lon="11.071848700831067"><ele>225.99999999999997</ele><time>2026-05-01T17:26:53Z</time></trkpt><trkpt lat="43.64748730803746" lon="11.071773980035061"><ele>226.0</ele><time>2026-05-01T17:26:54Z</time></trkpt><trkpt lat="43.64753429494031" lon="11.071704037697462"><ele>225.99999999999997</ele><time>2026-05-01T17:26:55Z</time></trkpt><trkpt lat="43.64758187705279" lon="11.071635889733383"><ele>226.0</ele><time>2026-05-01T17:26:56Z</time></trkpt><trkpt lat="43.6476248949831" lon="11.071567255094223"><ele>226.0</ele><time>2026-05-01T17:26:57Z</time></trkpt><trkpt lat="43.64766122055961" lon="11.071494264434376"><ele>226.0</ele><time>2026-05-01T17:26:58Z</time></trkpt><trkpt lat="43.64773129167916" lon="11.071370065078264"><ele>225.99999999999997</ele><time>2026-05-01T17:27:00Z</time></trkpt><trkpt lat="43.64780650716726" lon="11.071253060541455"><ele>226.0</ele><time>2026-05-01T17:27:02Z</time></trkpt><trkpt lat="43.64789600716632" lon="11.071201384901276"><ele>225.8</ele><time>2026-05-01T17:27:04Z</time></trkpt><trkpt lat="43.64793465944131" lon="11.071112587364844"><ele>225.60000000000002</ele><time>2026-05-01T17:27:06Z</time></trkpt><trkpt lat="43.64799286319833" lon="11.071024499157113"><ele>225.4</ele><time>2026-05-01T17:27:08Z</time></trkpt><trkpt lat="43.64805416718339" lon="11.070920036584377"><ele>225.2</ele><time>2026-05-01T17:27:10Z</time></trkpt><trkpt lat="43.64811688120312" lon="11.07078063796412"><ele>225.0</ele><time>2026-05-01T17:27:12Z</time></trkpt><trkpt lat="43.648205176962946" lon="11.070669098279152"><ele>225.0</ele><time>2026-05-01T17:27:14Z</time></trkpt><trkpt lat="43.64826538293579" lon="11.07058400791111"><ele>225.0</ele><time>2026-05-01T17:27:16Z</time></trkpt><trkpt lat="43.64832434083595" lon="11.07049929643934"><ele>225.0</ele><time>2026-05-01T17:27:18Z</time></trkpt><trkpt lat="43.648407102248704" lon="11.070381777966835"><ele>225.0</ele><time>2026-05-01T17:27:20Z</time></trkpt><trkpt lat="43.64845179569961" lon="11.070318468681643"><ele>225.0</ele><time>2026-05-01T17:27:21Z</time></trkpt><trkpt lat="43.648543743260575" lon="11.070196172618086"><ele>225.0</ele><time>2026-05-01T17:27:23Z</time></trkpt><trkpt lat="43.64859009812224" lon="11.070134688172091"><ele>225.0</ele><time>2026-05-01T17:27:24Z</time></trkpt><trkpt lat="43.64863771731255" lon="11.070072390579533"><ele>225.0</ele><time>2026-05-01T17:27:25Z</time></trkpt><trkpt lat="43.64867891164306" lon="11.06999060484946"><ele>225.0</ele><time>2026-05-01T17:27:26Z</time></trkpt><trkpt lat="43.64874257388736" lon="11.069939512699817"><ele>225.0</ele><time>2026-05-01T17:27:27Z</time></trkpt><trkpt lat="43.64883729541205" lon="11.069828445203727"><ele>225.0</ele><time>2026-05-01T17:27:29Z</time></trkpt><trkpt lat="43.648893004008706" lon="11.06976644005244"><ele>225.0</ele><time>2026-05-01T17:27:30Z</time></trkpt><trkpt lat="43.64894657515153" lon="11.069708026712997"><ele>225.0</ele><time>2026-05-01T17:27:31Z</time></trkpt><trkpt lat="43.64904382245616" lon="11.069607915903203"><ele>225.0</ele><time>2026-05-01T17:27:33Z</time></trkpt><trkpt lat="43.649141686179675" lon="11.069520940860897"><ele>225.0</ele><time>2026-05-01T17:27:35Z</time></trkpt><trkpt lat="43.649202968785154" lon="11.069468326317894"><ele>225.0</ele><time>2026-05-01T17:27:37Z</time></trkpt><trkpt lat="43.649188776918244" lon="11.069225696360062"><ele>225.0</ele><time>2026-05-01T17:27:40Z</time></trkpt><trkpt lat="43.64915396864563" lon="11.069148071685113"><ele>225.0</ele><time>2026-05-01T17:27:41Z</time></trkpt><trkpt lat="43.649115563942765" lon="11.069062426994886"><ele>225.0</ele><time>2026-05-01T17:27:42Z</time></trkpt><trkpt lat="43.64906051331094" lon="11.068993379107198"><ele>225.0</ele><time>2026-05-01T17:27:43Z</time></trkpt><trkpt lat="43.648991049536086" lon="11.068873315242673"><ele>225.0</ele><time>2026-05-01T17:27:45Z</time></trkpt><trkpt lat="43.648923336077466" lon="11.068823855805102"><ele>225.0</ele><time>2026-05-01T17:27:47Z</time></trkpt><trkpt lat="43.648847174122935" lon="11.068800542666098"><ele>225.0</ele><time>2026-05-01T17:27:50Z</time></trkpt><trkpt lat="43.64875474733367" lon="11.068787462074933"><ele>225.0</ele><time>2026-05-01T17:28:29Z</time></trkpt><trkpt lat="43.64869150050542" lon="11.06877308962093"><ele>225.0</ele><time>2026-05-01T17:28:32Z</time></trkpt></trkseg></trk></gpx>